<?xml version='1.0' encoding='UTF-8'?><gpx version="1.1" creator="JPX - https://github.com/jenetics/jpx" xmlns="http://www.topografix.com/GPX/1/1"><trk><trkseg><trkpt lat="43.16143194200225" lon="12.283021662134695"><ele>249.99999999999997</ele><time>2026-03-29T07:04:06.999Z</time></trkpt><trkpt lat="43.16147585570779" lon="12.282932820626964"><ele>250.0</ele><time>2026-03-29T07:08:23.999Z</time></trkpt><trkpt lat="43.16153835816984" lon="12.282901638854954"><ele>250.0</ele><time>2026-03-29T07:08:26.999Z</time></trkpt><trkpt lat="43.161595458134364" lon="12.282853409881648"><ele>250.0</ele><time>2026-03-29T07:08:31.999Z</time></trkpt><trkpt lat="43.1616472039713" lon="12.282803747451831"><ele>249.99999999999997</ele><time>2026-03-29T07:09:41Z</time></trkpt><trkpt lat="43.16173984979664" lon="12.28275331656127"><ele>250.0</ele><time>2026-03-29T07:10:15.999Z</time></trkpt><trkpt lat="43.161824468745905" lon="12.282603675377837"><ele>250.0</ele><time>2026-03-29T07:10:17.999Z</time></trkpt><trkpt lat="43.16187110868965" lon="12.282521470789208"><ele>250.0</ele><time>2026-03-29T07:10:18.999Z</time></trkpt><trkpt lat="43.161932872045014" lon="12.28240795739155"><ele>250.0</ele><time>2026-03-29T07:10:19.999Z</time></trkpt><trkpt lat="43.162016463133405" lon="12.28228866010714"><ele>250.0</ele><time>2026-03-29T07:10:20.999Z</time></trkpt><trkpt lat="43.16208484946463" lon="12.282152105555292"><ele>250.0</ele><time>2026-03-29T07:10:21.999Z</time></trkpt><trkpt lat="43.16214332526747" lon="12.282036130207599"><ele>250.0</ele><time>2026-03-29T07:10:22.999Z</time></trkpt><trkpt lat="43.162189031508134" lon="12.281945480788716"><ele>250.0</ele><time>2026-03-29T07:10:23.999Z</time></trkpt><trkpt lat="43.16222727714831" lon="12.281837712503666"><ele>250.0</ele><time>2026-03-29T07:10:24.999Z</time></trkpt><trkpt lat="43.16228048796384" lon="12.281739523854164"><ele>250.0</ele><time>2026-03-29T07:10:25.999Z</time></trkpt><trkpt lat="43.16233208860758" lon="12.281622544696697"><ele>250.0</ele><time>2026-03-29T07:10:26.999Z</time></trkpt><trkpt lat="43.16240959214197" lon="12.281508363363718"><ele>250.0</ele><time>2026-03-29T07:10:27.999Z</time></trkpt><trkpt lat="43.1624785445543" lon="12.281378552474914"><ele>250.0</ele><time>2026-03-29T07:10:28.999Z</time></trkpt><trkpt lat="43.16253860229166" lon="12.28123143127296"><ele>250.0</ele><time>2026-03-29T07:10:29.999Z</time></trkpt><trkpt lat="43.16261108578149" lon="12.281099969492587"><ele>250.0</ele><time>2026-03-29T07:10:30.999Z</time></trkpt><trkpt lat="43.162680766300745" lon="12.280966419004367"><ele>250.0</ele><time>2026-03-29T07:10:31.999Z</time></trkpt><trkpt lat="43.1627516709708" lon="12.28084168629401"><ele>250.0</ele><time>2026-03-29T07:10:32.999Z</time></trkpt><trkpt lat="43.16282989171979" lon="12.280704593146538"><ele>250.0</ele><time>2026-03-29T07:10:33.999Z</time></trkpt><trkpt lat="43.16292005377792" lon="12.280530541663161"><ele>250.0</ele><time>2026-03-29T07:10:34.999Z</time></trkpt><trkpt lat="43.16300092573514" lon="12.280366401968644"><ele>250.25</ele><time>2026-03-29T07:10:35.999Z</time></trkpt><trkpt lat="43.163081985218994" lon="12.280211957409417"><ele>250.5</ele><time>2026-03-29T07:10:36.999Z</time></trkpt><trkpt lat="43.163167398053645" lon="12.280053857395623"><ele>250.75</ele><time>2026-03-29T07:10:37.999Z</time></trkpt><trkpt lat="43.16324200867485" lon="12.279920624161484"><ele>251.0</ele><time>2026-03-29T07:10:38.999Z</time></trkpt><trkpt lat="43.16331330476119" lon="12.2797951167816"><ele>251.25</ele><time>2026-03-29T07:10:39.999Z</time></trkpt><trkpt lat="43.16339099370116" lon="12.279661539341754"><ele>251.5</ele><time>2026-03-29T07:10:40.999Z</time></trkpt><trkpt lat="43.16347121052014" lon="12.279545022510067"><ele>251.75</ele><time>2026-03-29T07:10:41.999Z</time></trkpt><trkpt lat="43.16356954749653" lon="12.279443575913804"><ele>252.0</ele><time>2026-03-29T07:10:42.999Z</time></trkpt><trkpt lat="43.16367560769281" lon="12.279367529447454"><ele>252.0</ele><time>2026-03-29T07:10:43.999Z</time></trkpt><trkpt lat="43.1637767053915" lon="12.279321673626633"><ele>252.0</ele><time>2026-03-29T07:10:44.999Z</time></trkpt><trkpt lat="43.16386842565696" lon="12.279292392413332"><ele>252.0</ele><time>2026-03-29T07:10:45.999Z</time></trkpt><trkpt lat="43.163950267420326" lon="12.279266284169314"><ele>252.0</ele><time>2026-03-29T07:10:46.999Z</time></trkpt><trkpt lat="43.164022743324466" lon="12.279241606265684"><ele>252.0</ele><time>2026-03-29T07:10:47.999Z</time></trkpt><trkpt lat="43.16412770869253" lon="12.279215750124896"><ele>252.5</ele><time>2026-03-29T07:10:49.998Z</time></trkpt><trkpt lat="43.16413870432436" lon="12.278955196650655"><ele>253.0</ele><time>2026-03-29T07:10:51.998Z</time></trkpt><trkpt lat="43.16412068392703" lon="12.278814557634135"><ele>253.5</ele><time>2026-03-29T07:10:52.998Z</time></trkpt><trkpt lat="43.16410798783177" lon="12.278662370990494"><ele>254.0</ele><time>2026-03-29T07:10:53.998Z</time></trkpt><trkpt lat="43.164086052481224" lon="12.278511292687028"><ele>254.0</ele><time>2026-03-29T07:10:54.998Z</time></trkpt><trkpt lat="43.164058162532655" lon="12.278387902277"><ele>253.99999999999997</ele><time>2026-03-29T07:10:55.998Z</time></trkpt><trkpt lat="43.16402857971518" lon="12.278250661297827"><ele>253.99999999999997</ele><time>2026-03-29T07:10:56.998Z</time></trkpt><trkpt lat="43.16400125795671" lon="12.278093839083109"><ele>254.0</ele><time>2026-03-29T07:10:57.998Z</time></trkpt><trkpt lat="43.16398341861797" lon="12.27795779153343"><ele>254.0</ele><time>2026-03-29T07:10:58.998Z</time></trkpt><trkpt lat="43.16397450930862" lon="12.277820572731171"><ele>254.75</ele><time>2026-03-29T07:10:59.998Z</time></trkpt><trkpt lat="43.16397530679156" lon="12.277645989383418"><ele>255.5</ele><time>2026-03-29T07:11:00.998Z</time></trkpt><trkpt lat="43.16397900302042" lon="12.277451431096019"><ele>256.25</ele><time>2026-03-29T07:11:01.998Z</time></trkpt><trkpt lat="43.163983579884565" lon="12.277210518758654"><ele>257.0</ele><time>2026-03-29T07:11:02.998Z</time></trkpt><trkpt lat="43.16398785281041" lon="12.276985604757428"><ele>257.0</ele><time>2026-03-29T07:11:03.998Z</time></trkpt><trkpt lat="43.16397661126255" lon="12.276814856495271"><ele>257.0</ele><time>2026-03-29T07:11:04.998Z</time></trkpt><trkpt lat="43.163981273238164" lon="12.276672126446071"><ele>257.0</ele><time>2026-03-29T07:11:05.998Z</time></trkpt><trkpt lat="43.16399217326362" lon="12.276541382234372"><ele>257.0</ele><time>2026-03-29T07:11:06.998Z</time></trkpt><trkpt lat="43.164018624791105" lon="12.27639840131436"><ele>257.0</ele><time>2026-03-29T07:11:07.998Z</time></trkpt><trkpt lat="43.164062824995284" lon="12.276247987302272"><ele>257.8</ele><time>2026-03-29T07:11:08.998Z</time></trkpt><trkpt lat="43.16411771823409" lon="12.276112066872864"><ele>258.6</ele><time>2026-03-29T07:11:09.998Z</time></trkpt><trkpt lat="43.16417241877757" lon="12.275982091752471"><ele>259.40000000000003</ele><time>2026-03-29T07:11:10.998Z</time></trkpt><trkpt lat="43.16422064647551" lon="12.275869148850884"><ele>260.2</ele><time>2026-03-29T07:11:11.998Z</time></trkpt><trkpt lat="43.164259338167945" lon="12.275774201350146"><ele>261.0</ele><time>2026-03-29T07:11:12.998Z</time></trkpt><trkpt lat="43.16432276662114" lon="12.2756917488114"><ele>261.0</ele><time>2026-03-29T07:11:14.998Z</time></trkpt><trkpt lat="43.164370454970715" lon="12.275588531107111"><ele>261.0</ele><time>2026-03-29T07:11:19.998Z</time></trkpt><trkpt lat="43.16449307026248" lon="12.275610073454677"><ele>261.0</ele><time>2026-03-29T07:11:21.998Z</time></trkpt><trkpt lat="43.16456856427162" lon="12.275622849037447"><ele>261.0</ele><time>2026-03-29T07:11:22.998Z</time></trkpt><trkpt lat="43.16467192448328" lon="12.275618794923252"><ele>261.0</ele><time>2026-03-29T07:11:23.998Z</time></trkpt><trkpt lat="43.16478017127297" lon="12.275598346019317"><ele>261.3333333333333</ele><time>2026-03-29T07:11:24.998Z</time></trkpt><trkpt lat="43.16487537829482" lon="12.275587838689404"><ele>261.6666666666667</ele><time>2026-03-29T07:11:25.998Z</time></trkpt><trkpt lat="43.16495323006714" lon="12.275582474878917"><ele>262.0</ele><time>2026-03-29T07:11:26.998Z</time></trkpt><trkpt lat="43.16502999874694" lon="12.275574845507805"><ele>262.33333333333337</ele><time>2026-03-29T07:11:27.998Z</time></trkpt><trkpt lat="43.16510951842256" lon="12.27556902610126"><ele>262.6666666666667</ele><time>2026-03-29T07:11:28.998Z</time></trkpt><trkpt lat="43.165174434043" lon="12.27558788324959"><ele>263.0</ele><time>2026-03-29T07:11:29.998Z</time></trkpt><trkpt lat="43.165284765307945" lon="12.275578173110647"><ele>263.0</ele><time>2026-03-29T07:11:31.998Z</time></trkpt><trkpt lat="43.16538092233995" lon="12.27554425483115"><ele>263.0</ele><time>2026-03-29T07:11:34Z</time></trkpt><trkpt lat="43.16549172108526" lon="12.275487754238108"><ele>263.0</ele><time>2026-03-29T07:11:36Z</time></trkpt><trkpt lat="43.165480472148424" lon="12.275074299389262"><ele>263.0</ele><time>2026-03-29T07:11:38Z</time></trkpt><trkpt lat="43.165496513687195" lon="12.274947556914011"><ele>263.0</ele><time>2026-03-29T07:11:39Z</time></trkpt><trkpt lat="43.16551482645299" lon="12.274809187835377"><ele>263.0</ele><time>2026-03-29T07:11:40Z</time></trkpt><trkpt lat="43.16552847690534" lon="12.27468103567399"><ele>263.0</ele><time>2026-03-29T07:11:41Z</time></trkpt><trkpt lat="43.1651253398635" lon="12.274558327716267"><ele>264.5</ele><time>2026-03-29T07:11:42Z</time></trkpt><trkpt lat="43.16556229651544" lon="12.27443135886629"><ele>266.0</ele><time>2026-03-29T07:11:43Z</time></trkpt><trkpt lat="43.1655822327553" lon="12.274279185129496"><ele>266.0</ele><time>2026-03-29T07:11:44Z</time></trkpt><trkpt lat="43.16559925156688" lon="12.274138874052793"><ele>266.0</ele><time>2026-03-29T07:11:45Z</time></trkpt><trkpt lat="43.16560520900417" lon="12.274030998754014"><ele>266.0</ele><time>2026-03-29T07:11:46Z</time></trkpt><trkpt lat="43.166058164244085" lon="12.27402705701948"><ele>268.8</ele><time>2026-03-29T07:11:47Z</time></trkpt><trkpt lat="43.16606164541731" lon="12.273855549018228"><ele>271.6</ele><time>2026-03-29T07:11:48Z</time></trkpt><trkpt lat="43.166070537992354" lon="12.27374426390968"><ele>274.4</ele><time>2026-03-29T07:11:49Z</time></trkpt><trkpt lat="43.166088132749856" lon="12.27363099193087"><ele>277.2</ele><time>2026-03-29T07:11:50Z</time></trkpt><trkpt lat="43.16610469169617" lon="12.273524386522848"><ele>280.0</ele><time>2026-03-29T07:11:51Z</time></trkpt><trkpt lat="43.165844148152075" lon="12.272750693093231"><ele>280.0</ele><time>2026-03-29T07:11:56.999Z</time></trkpt><trkpt lat="43.16596491334099" lon="12.272679730564763"><ele>280.0</ele><time>2026-03-29T07:11:58.999Z</time></trkpt><trkpt lat="43.16606355856327" lon="12.27266658079187"><ele>280.0</ele><time>2026-03-29T07:11:59.999Z</time></trkpt><trkpt lat="43.16618679768287" lon="12.272662589311864"><ele>280.0</ele><time>2026-03-29T07:12:00.999Z</time></trkpt><trkpt lat="43.1663110770051" lon="12.272640914212039"><ele>280.0</ele><time>2026-03-29T07:12:01.999Z</time></trkpt><trkpt lat="43.16641292953131" lon="12.272614789510428"><ele>280.0</ele><time>2026-03-29T07:12:02.999Z</time></trkpt><trkpt lat="43.166490060529384" lon="12.272556228171212"><ele>280.0</ele><time>2026-03-29T07:12:03.999Z</time></trkpt><trkpt lat="43.16656449602249" lon="12.272475446409176"><ele>280.0</ele><time>2026-03-29T07:12:04.999Z</time></trkpt><trkpt lat="43.16663907926714" lon="12.272377319263917"><ele>280.0</ele><time>2026-03-29T07:12:05.999Z</time></trkpt><trkpt lat="43.166717255194996" lon="12.272283747404156"><ele>281.3333333333333</ele><time>2026-03-29T07:12:06.999Z</time></trkpt><trkpt lat="43.166782176384515" lon="12.272200710251518"><ele>282.66666666666663</ele><time>2026-03-29T07:12:07.999Z</time></trkpt><trkpt lat="43.16684222167718" lon="12.272137923930714"><ele>284.0</ele><time>2026-03-29T07:12:08.999Z</time></trkpt><trkpt lat="43.16690813865854" lon="12.272090853622984"><ele>285.3333333333333</ele><time>2026-03-29T07:12:09.999Z</time></trkpt><trkpt lat="43.1669812447005" lon="12.272058523168486"><ele>286.6666666666667</ele><time>2026-03-29T07:12:10.999Z</time></trkpt><trkpt lat="43.16705038470195" lon="12.27203651708507"><ele>288.0</ele><time>2026-03-29T07:12:11.999Z</time></trkpt><trkpt lat="43.16710444484223" lon="12.27197836502433"><ele>288.0</ele><time>2026-03-29T07:12:12.999Z</time></trkpt><trkpt lat="43.167146896914815" lon="12.271865724806126"><ele>288.0</ele><time>2026-03-29T07:12:13.999Z</time></trkpt><trkpt lat="43.16717341040562" lon="12.271718049157352"><ele>288.0</ele><time>2026-03-29T07:12:14.999Z</time></trkpt><trkpt lat="43.1671894719188" lon="12.271562068738922"><ele>288.0</ele><time>2026-03-29T07:12:15.999Z</time></trkpt><trkpt lat="43.16721366509429" lon="12.271415434534045"><ele>288.0</ele><time>2026-03-29T07:12:16.999Z</time></trkpt><trkpt lat="43.16725280024501" lon="12.271286384998982"><ele>287.0</ele><time>2026-03-29T07:12:17.999Z</time></trkpt><trkpt lat="43.16730739469106" lon="12.271165576962265"><ele>286.0</ele><time>2026-03-29T07:12:18.999Z</time></trkpt><trkpt lat="43.167367927469215" lon="12.271072445677724"><ele>285.0</ele><time>2026-03-29T07:12:19.999Z</time></trkpt><trkpt lat="43.16744672108033" lon="12.271004512136674"><ele>284.0</ele><time>2026-03-29T07:12:20.999Z</time></trkpt><trkpt lat="43.1675476315837" lon="12.27093351199928"><ele>283.0</ele><time>2026-03-29T07:12:21.999Z</time></trkpt><trkpt lat="43.167651732561595" lon="12.270844221009"><ele>284.0</ele><time>2026-03-29T07:12:22.999Z</time></trkpt><trkpt lat="43.167770297223804" lon="12.270742805314287"><ele>285.0</ele><time>2026-03-29T07:12:23.999Z</time></trkpt><trkpt lat="43.16787235499399" lon="12.270656515022434"><ele>286.0</ele><time>2026-03-29T07:12:24.999Z</time></trkpt><trkpt lat="43.167969372333374" lon="12.270557907429838"><ele>287.0</ele><time>2026-03-29T07:12:25.999Z</time></trkpt><trkpt lat="43.16807100945407" lon="12.27043418675508"><ele>287.0</ele><time>2026-03-29T07:12:26.999Z</time></trkpt><trkpt lat="43.16816380920944" lon="12.27029865333303"><ele>287.0</ele><time>2026-03-29T07:12:27.999Z</time></trkpt><trkpt lat="43.16824745271533" lon="12.270183525580642"><ele>287.0</ele><time>2026-03-29T07:12:28.999Z</time></trkpt><trkpt lat="43.16833856233658" lon="12.27008809240389"><ele>287.0</ele><time>2026-03-29T07:12:29.999Z</time></trkpt><trkpt lat="43.16843130066891" lon="12.269980258401365"><ele>290.25</ele><time>2026-03-29T07:12:30.999Z</time></trkpt><trkpt lat="43.168519239650294" lon="12.269892144213316"><ele>293.5</ele><time>2026-03-29T07:12:31.999Z</time></trkpt><trkpt lat="43.16861469852164" lon="12.269798071569076"><ele>296.75</ele><time>2026-03-29T07:12:32.999Z</time></trkpt><trkpt lat="43.168712725892874" lon="12.269726375798395"><ele>300.0</ele><time>2026-03-29T07:12:33.999Z</time></trkpt><trkpt lat="43.168836163780014" lon="12.269671081442523"><ele>300.25</ele><time>2026-03-29T07:12:34.999Z</time></trkpt><trkpt lat="43.16897460739686" lon="12.269617736877084"><ele>300.5</ele><time>2026-03-29T07:12:35.999Z</time></trkpt><trkpt lat="43.16909279935171" lon="12.269556094069877"><ele>300.75</ele><time>2026-03-29T07:12:36.999Z</time></trkpt><trkpt lat="43.16919556835883" lon="12.269510333423343"><ele>301.0</ele><time>2026-03-29T07:12:37.999Z</time></trkpt><trkpt lat="43.16930602152036" lon="12.269473605851399"><ele>301.66666666666663</ele><time>2026-03-29T07:12:38.999Z</time></trkpt><trkpt lat="43.16940470778483" lon="12.26945140508042"><ele>302.3333333333333</ele><time>2026-03-29T07:12:39.999Z</time></trkpt><trkpt lat="43.16948200071929" lon="12.269441740784016"><ele>303.0</ele><time>2026-03-29T07:12:40.999Z</time></trkpt><trkpt lat="43.1695568965841" lon="12.2693904197021"><ele>303.6666666666667</ele><time>2026-03-29T07:12:42.999Z</time></trkpt><trkpt lat="43.169622040017714" lon="12.269302381362232"><ele>304.33333333333337</ele><time>2026-03-29T07:12:44.999Z</time></trkpt><trkpt lat="43.16966944417815" lon="12.269202566013526"><ele>305.0</ele><time>2026-03-29T07:12:46.999Z</time></trkpt><trkpt lat="43.169752125166035" lon="12.269080077990454"><ele>305.0</ele><time>2026-03-29T07:12:48.999Z</time></trkpt><trkpt lat="43.16980883625873" lon="12.26901940910851"><ele>305.0</ele><time>2026-03-29T07:12:49.999Z</time></trkpt><trkpt lat="43.16987145921284" lon="12.26897401243501"><ele>305.0</ele><time>2026-03-29T07:12:50.999Z</time></trkpt><trkpt lat="43.169947760837566" lon="12.26893803036853"><ele>305.0</ele><time>2026-03-29T07:12:51.999Z</time></trkpt><trkpt lat="43.17003473556897" lon="12.268899395069212"><ele>305.0</ele><time>2026-03-29T07:12:52.999Z</time></trkpt><trkpt lat="43.17012044729816" lon="12.2688454864506"><ele>305.0</ele><time>2026-03-29T07:12:53.999Z</time></trkpt><trkpt lat="43.170222194506216" lon="12.268789341914927"><ele>306.0</ele><time>2026-03-29T07:12:54.999Z</time></trkpt><trkpt lat="43.170330158599924" lon="12.268721533604264"><ele>307.0</ele><time>2026-03-29T07:12:55.999Z</time></trkpt><trkpt lat="43.17043769286575" lon="12.268632799317654"><ele>308.0</ele><time>2026-03-29T07:12:56.999Z</time></trkpt><trkpt lat="43.17053371444588" lon="12.268538561196827"><ele>309.0</ele><time>2026-03-29T07:12:57.999Z</time></trkpt><trkpt lat="43.17061015436985" lon="12.268450338475496"><ele>310.2</ele><time>2026-03-29T07:12:58.998Z</time></trkpt><trkpt lat="43.17069945590823" lon="12.268369556447787"><ele>311.4</ele><time>2026-03-29T07:12:59.998Z</time></trkpt><trkpt lat="43.17078590011953" lon="12.268273863106575"><ele>312.6</ele><time>2026-03-29T07:13:00.998Z</time></trkpt><trkpt lat="43.17087184905063" lon="12.26819992197412"><ele>313.8</ele><time>2026-03-29T07:13:01.998Z</time></trkpt><trkpt lat="43.170945113954254" lon="12.268133990768156"><ele>315.0</ele><time>2026-03-29T07:13:02.998Z</time></trkpt><trkpt lat="43.17100054113835" lon="12.268074328136521"><ele>315.6</ele><time>2026-03-29T07:13:03.998Z</time></trkpt><trkpt lat="43.17104115822871" lon="12.268006629850492"><ele>316.2</ele><time>2026-03-29T07:13:04.998Z</time></trkpt><trkpt lat="43.17111514923387" lon="12.267900609736444"><ele>316.8</ele><time>2026-03-29T07:13:06.998Z</time></trkpt><trkpt lat="43.17115295276055" lon="12.267761939038563"><ele>317.4</ele><time>2026-03-29T07:13:08.998Z</time></trkpt><trkpt lat="43.17113749554066" lon="12.267659117382008"><ele>318.0</ele><time>2026-03-29T07:13:12.998Z</time></trkpt><trkpt lat="43.171229187864036" lon="12.267534704838887"><ele>318.0</ele><time>2026-03-29T07:13:16.998Z</time></trkpt><trkpt lat="43.17134486177433" lon="12.267478352244465"><ele>318.0</ele><time>2026-03-29T07:13:17.998Z</time></trkpt><trkpt lat="43.171430174353716" lon="12.267448475366807"><ele>318.0</ele><time>2026-03-29T07:13:18.998Z</time></trkpt><trkpt lat="43.171514988126816" lon="12.267447370205044"><ele>318.0</ele><time>2026-03-29T07:13:19.998Z</time></trkpt><trkpt lat="43.171599582244994" lon="12.267419167211864"><ele>318.0</ele><time>2026-03-29T07:13:20.998Z</time></trkpt><trkpt lat="43.1716791074642" lon="12.267377970500833"><ele>319.4</ele><time>2026-03-29T07:13:21.998Z</time></trkpt><trkpt lat="43.171757378861685" lon="12.267317619571953"><ele>320.8</ele><time>2026-03-29T07:13:22.998Z</time></trkpt><trkpt lat="43.1718263309784" lon="12.267273190997118"><ele>322.2</ele><time>2026-03-29T07:13:23.998Z</time></trkpt><trkpt lat="43.17190971757594" lon="12.267173582408445"><ele>323.6</ele><time>2026-03-29T07:13:25.998Z</time></trkpt><trkpt lat="43.17195880543724" lon="12.267013648695455"><ele>325.0</ele><time>2026-03-29T07:13:27.998Z</time></trkpt><trkpt lat="43.17198781564133" lon="12.266924211952764"><ele>327.2</ele><time>2026-03-29T07:13:28.998Z</time></trkpt><trkpt lat="43.17200300145417" lon="12.266837615472982"><ele>329.4</ele><time>2026-03-29T07:13:29.998Z</time></trkpt><trkpt lat="43.172008866590666" lon="12.266698708430152"><ele>331.6</ele><time>2026-03-29T07:13:31.998Z</time></trkpt><trkpt lat="43.172041669739144" lon="12.266546006252412"><ele>333.8</ele><time>2026-03-29T07:13:33.998Z</time></trkpt><trkpt lat="43.1720921303281" lon="12.266394933448863"><ele>336.0</ele><time>2026-03-29T07:13:35.998Z</time></trkpt><trkpt lat="43.17212660059419" lon="12.266319281880785"><ele>338.8333333333333</ele><time>2026-03-29T07:13:36.998Z</time></trkpt><trkpt lat="43.17217290721541" lon="12.266238278237175"><ele>341.6666666666667</ele><time>2026-03-29T07:13:37.998Z</time></trkpt><trkpt lat="43.17221712844197" lon="12.266162774085815"><ele>344.5</ele><time>2026-03-29T07:13:38.998Z</time></trkpt><trkpt lat="43.17226696153851" lon="12.26601053442759"><ele>347.33333333333337</ele><time>2026-03-29T07:13:41Z</time></trkpt><trkpt lat="43.17228745593756" lon="12.265921738900925"><ele>350.1666666666667</ele><time>2026-03-29T07:13:42Z</time></trkpt><trkpt lat="43.172273793383305" lon="12.26582646765201"><ele>353.0</ele><time>2026-03-29T07:13:43Z</time></trkpt><trkpt lat="43.1722688362406" lon="12.265724509968551"><ele>353.0</ele><time>2026-03-29T07:13:44Z</time></trkpt><trkpt lat="43.17227042009271" lon="12.265622571454074"><ele>353.0</ele><time>2026-03-29T07:13:45Z</time></trkpt><trkpt lat="43.17229504285543" lon="12.26550833687933"><ele>353.0</ele><time>2026-03-29T07:13:46Z</time></trkpt><trkpt lat="43.172335224282705" lon="12.265401288303726"><ele>353.0</ele><time>2026-03-29T07:13:47Z</time></trkpt><trkpt lat="43.17239469279669" lon="12.265310491560797"><ele>353.0</ele><time>2026-03-29T07:13:48Z</time></trkpt><trkpt lat="43.172459678525584" lon="12.265168391307004"><ele>354.5</ele><time>2026-03-29T07:13:50Z</time></trkpt><trkpt lat="43.17247118098516" lon="12.265077980581701"><ele>356.0</ele><time>2026-03-29T07:13:51Z</time></trkpt><trkpt lat="43.17248693896085" lon="12.264970825825506"><ele>357.5</ele><time>2026-03-29T07:13:52Z</time></trkpt><trkpt lat="43.17249001409644" lon="12.264868073420033"><ele>359.0</ele><time>2026-03-29T07:13:53Z</time></trkpt><trkpt lat="43.17251999121599" lon="12.264780173737204"><ele>360.5</ele><time>2026-03-29T07:13:54Z</time></trkpt><trkpt lat="43.17254485686135" lon="12.264693288285695"><ele>362.0</ele><time>2026-03-29T07:13:55Z</time></trkpt><trkpt lat="43.17262128868161" lon="12.264613166653701"><ele>364.6666666666667</ele><time>2026-03-29T07:13:56Z</time></trkpt><trkpt lat="43.17266108223573" lon="12.264535085477558"><ele>367.33333333333337</ele><time>2026-03-29T07:13:57Z</time></trkpt><trkpt lat="43.17270315837655" lon="12.26443310165059"><ele>370.0</ele><time>2026-03-29T07:13:58Z</time></trkpt><trkpt lat="43.1727319336065" lon="12.264336651930385"><ele>372.6666666666667</ele><time>2026-03-29T07:13:59Z</time></trkpt><trkpt lat="43.172748821262694" lon="12.264240601812578"><ele>375.3333333333333</ele><time>2026-03-29T07:14:00Z</time></trkpt><trkpt lat="43.17276276590304" lon="12.26415151193528"><ele>378.0</ele><time>2026-03-29T07:14:00.999Z</time></trkpt><trkpt lat="43.17279719434737" lon="12.264046021217586"><ele>378.0</ele><time>2026-03-29T07:14:01.999Z</time></trkpt><trkpt lat="43.17283443259573" lon="12.263950255763184"><ele>378.0</ele><time>2026-03-29T07:14:02.999Z</time></trkpt><trkpt lat="43.17287599923949" lon="12.263885313916898"><ele>378.0</ele><time>2026-03-29T07:14:03.999Z</time></trkpt><trkpt lat="43.17294379015211" lon="12.263878688412488"><ele>378.0</ele><time>2026-03-29T07:14:04.999Z</time></trkpt><trkpt lat="43.173023758906794" lon="12.263796980829085"><ele>378.0</ele><time>2026-03-29T07:14:06.999Z</time></trkpt><trkpt lat="43.173067850511835" lon="12.263728356735989"><ele>378.0</ele><time>2026-03-29T07:14:07.999Z</time></trkpt><trkpt lat="43.17310173423146" lon="12.263652116131226"><ele>378.0</ele><time>2026-03-29T07:14:08.999Z</time></trkpt><trkpt lat="43.17312916537824" lon="12.26354646498981"><ele>379.0</ele><time>2026-03-29T07:14:09.999Z</time></trkpt><trkpt lat="43.173243363624586" lon="12.26344170313784"><ele>380.0</ele><time>2026-03-29T07:14:11.999Z</time></trkpt><trkpt lat="43.173327930229235" lon="12.263369350419278"><ele>381.0</ele><time>2026-03-29T07:14:12.999Z</time></trkpt><trkpt lat="43.1733988069819" lon="12.263321217814742"><ele>382.0</ele><time>2026-03-29T07:14:13.999Z</time></trkpt><trkpt lat="43.17346841071866" lon="12.263267132892093"><ele>383.0</ele><time>2026-03-29T07:14:14.999Z</time></trkpt><trkpt lat="43.17353542442765" lon="12.26321810165605"><ele>383.0</ele><time>2026-03-29T07:14:15.999Z</time></trkpt><trkpt lat="43.17358657993707" lon="12.263155158034593"><ele>383.0</ele><time>2026-03-29T07:14:16.999Z</time></trkpt><trkpt lat="43.17365974947203" lon="12.26309684012334"><ele>383.0</ele><time>2026-03-29T07:14:18.999Z</time></trkpt><trkpt lat="43.17370612473934" lon="12.262932518720408"><ele>383.0</ele><time>2026-03-29T07:14:21.999Z</time></trkpt><trkpt lat="43.17380121342301" lon="12.262869896475767"><ele>383.0</ele><time>2026-03-29T07:14:23.999Z</time></trkpt><trkpt lat="43.17389108582995" lon="12.262869144711196"><ele>384.0</ele><time>2026-03-29T07:14:24.999Z</time></trkpt><trkpt lat="43.173963065662306" lon="12.262864464899963"><ele>385.0</ele><time>2026-03-29T07:14:26.999Z</time></trkpt><trkpt lat="43.17405035562863" lon="12.262809217222767"><ele>386.0</ele><time>2026-03-29T07:14:29.999Z</time></trkpt><trkpt lat="43.17412178723774" lon="12.262832692407388"><ele>387.0</ele><time>2026-03-29T07:14:31.999Z</time></trkpt><trkpt lat="43.17417286837611" lon="12.262896449968743"><ele>387.99999999999994</ele><time>2026-03-29T07:14:34.999Z</time></trkpt><trkpt lat="43.17423250297853" lon="12.262954692121317"><ele>389.0</ele><time>2026-03-29T07:14:36.999Z</time></trkpt><trkpt lat="43.17425027744376" lon="12.263119555234024"><ele>388.99999999999994</ele><time>2026-03-29T07:14:39.999Z</time></trkpt><trkpt lat="43.17425241690092" lon="12.263221368871095"><ele>389.0</ele><time>2026-03-29T07:14:40.999Z</time></trkpt><trkpt lat="43.174318941530146" lon="12.263331931074262"><ele>389.0</ele><time>2026-03-29T07:14:42.999Z</time></trkpt><trkpt lat="43.17437091209957" lon="12.26341007902788"><ele>389.0</ele><time>2026-03-29T07:14:55.999Z</time></trkpt><trkpt lat="43.17445242637424" lon="12.263464792641043"><ele>388.99999999999994</ele><time>2026-03-29T07:14:59.999Z</time></trkpt><trkpt lat="43.174528807351344" lon="12.263440242498827"><ele>389.0</ele><time>2026-03-29T07:15:01.999Z</time></trkpt><trkpt lat="43.174583060765045" lon="12.263324712604911"><ele>388.99999999999994</ele><time>2026-03-29T07:15:13.998Z</time></trkpt><trkpt lat="43.17466446910337" lon="12.263255690243408"><ele>389.0</ele><time>2026-03-29T07:15:15.998Z</time></trkpt><trkpt lat="43.17473007475825" lon="12.263264244874524"><ele>389.0</ele><time>2026-03-29T07:15:17.998Z</time></trkpt><trkpt lat="43.174804206403635" lon="12.26319004422519"><ele>389.0</ele><time>2026-03-29T07:15:20.998Z</time></trkpt><trkpt lat="43.17482945861973" lon="12.263095078200957"><ele>388.99999999999994</ele><time>2026-03-29T07:15:24.998Z</time></trkpt><trkpt lat="43.174871871473044" lon="12.263001163863166"><ele>389.0</ele><time>2026-03-29T07:15:56Z</time></trkpt><trkpt lat="43.17490274965393" lon="12.262900484603893"><ele>393.3333333333333</ele><time>2026-03-29T07:15:59Z</time></trkpt><trkpt lat="43.17499521149623" lon="12.26285959114447"><ele>397.66666666666663</ele><time>2026-03-29T07:17:02Z</time></trkpt><trkpt lat="43.17503205590333" lon="12.262781572681451"><ele>402.0</ele><time>2026-03-29T07:17:09.999Z</time></trkpt><trkpt lat="43.175050783466936" lon="12.262679307592007"><ele>406.33333333333337</ele><time>2026-03-29T07:17:13.999Z</time></trkpt><trkpt lat="43.17508071550351" lon="12.262551297369317"><ele>410.6666666666667</ele><time>2026-03-29T07:17:18.999Z</time></trkpt><trkpt lat="43.17515337160085" lon="12.262528287490486"><ele>415.0</ele><time>2026-03-29T07:17:21.999Z</time></trkpt><trkpt lat="43.1752293534856" lon="12.262560020806337"><ele>415.00000000000006</ele><time>2026-03-29T07:17:23.999Z</time></trkpt><trkpt lat="43.175319308596634" lon="12.262586333345588"><ele>415.0</ele><time>2026-03-29T07:17:26.999Z</time></trkpt><trkpt lat="43.175407644688576" lon="12.262619644645941"><ele>415.0</ele><time>2026-03-29T07:17:28.999Z</time></trkpt><trkpt lat="43.175509268789206" lon="12.262636940189234"><ele>415.0</ele><time>2026-03-29T07:17:30.999Z</time></trkpt><trkpt lat="43.175598100327456" lon="12.262651630246197"><ele>415.00000000000006</ele><time>2026-03-29T07:17:32.999Z</time></trkpt><trkpt lat="43.17565959637914" lon="12.26261652145045"><ele>415.0</ele><time>2026-03-29T07:17:35.999Z</time></trkpt><trkpt lat="43.175721103441084" lon="12.262585531636903"><ele>418.33333333333337</ele><time>2026-03-29T07:17:42.999Z</time></trkpt><trkpt lat="43.17578549244212" lon="12.26256979566631"><ele>421.6666666666667</ele><time>2026-03-29T07:18:44Z</time></trkpt><trkpt lat="43.17585356982929" lon="12.26253360381072"><ele>425.0</ele><time>2026-03-29T07:23:14Z</time></trkpt><trkpt lat="43.17592583190179" lon="12.262478607282128"><ele>428.33333333333337</ele><time>2026-03-29T07:23:17.999Z</time></trkpt><trkpt lat="43.17598414347833" lon="12.262430651067396"><ele>431.6666666666667</ele><time>2026-03-29T07:23:20.999Z</time></trkpt><trkpt lat="43.17607712924099" lon="12.262398486264061"><ele>435.0</ele><time>2026-03-29T07:23:25.999Z</time></trkpt><trkpt lat="43.17614608993172" lon="12.262385395135523"><ele>435.0</ele><time>2026-03-29T07:23:27.999Z</time></trkpt><trkpt lat="43.17623353759746" lon="12.262354541090504"><ele>435.0</ele><time>2026-03-29T07:23:30.999Z</time></trkpt><trkpt lat="43.17629778286142" lon="12.262321665956685"><ele>435.0</ele><time>2026-03-29T07:23:33.999Z</time></trkpt><trkpt lat="43.17638714181167" lon="12.26227609256175"><ele>435.0</ele><time>2026-03-29T07:23:36.999Z</time></trkpt><trkpt lat="43.17649134525779" lon="12.262287920536206"><ele>435.0</ele><time>2026-03-29T07:23:38.999Z</time></trkpt><trkpt lat="43.176589176712405" lon="12.262287095008586"><ele>435.1666666666667</ele><time>2026-03-29T07:23:40.999Z</time></trkpt><trkpt lat="43.17667024106927" lon="12.262306700086855"><ele>435.33333333333337</ele><time>2026-03-29T07:23:42.999Z</time></trkpt><trkpt lat="43.176753462489145" lon="12.262284552776988"><ele>435.5</ele><time>2026-03-29T07:23:45.999Z</time></trkpt><trkpt lat="43.17682920437548" lon="12.262234294652563"><ele>435.6666666666667</ele><time>2026-03-29T07:23:47.999Z</time></trkpt><trkpt lat="43.176868487914625" lon="12.26215952477137"><ele>435.83333333333337</ele><time>2026-03-29T07:23:50.999Z</time></trkpt><trkpt lat="43.17687081439039" lon="12.26203908416828"><ele>436.0</ele><time>2026-03-29T07:23:53.999Z</time></trkpt><trkpt lat="43.176867651004684" lon="12.261950019988143"><ele>440.0</ele><time>2026-03-29T07:23:55.999Z</time></trkpt><trkpt lat="43.176885432510666" lon="12.261754123237735"><ele>444.0</ele><time>2026-03-29T07:23:57.999Z</time></trkpt><trkpt lat="43.17687456924277" lon="12.26162595263753"><ele>448.0</ele><time>2026-03-29T07:23:59.999Z</time></trkpt><trkpt lat="43.1768181540176" lon="12.261536264408454"><ele>452.0</ele><time>2026-03-29T07:24:02.999Z</time></trkpt><trkpt lat="43.176889366883934" lon="12.261515945305394"><ele>456.0</ele><time>2026-03-29T07:24:06.999Z</time></trkpt><trkpt lat="43.176986956867125" lon="12.261593599039278"><ele>456.0</ele><time>2026-03-29T07:24:08.999Z</time></trkpt><trkpt lat="43.177055020723" lon="12.261604868452025"><ele>456.0</ele><time>2026-03-29T07:24:11Z</time></trkpt><trkpt lat="43.17711783352442" lon="12.26162982150753"><ele>456.0</ele><time>2026-03-29T07:24:13Z</time></trkpt><trkpt lat="43.17722751267346" lon="12.26167393194685"><ele>456.0</ele><time>2026-03-29T07:24:15Z</time></trkpt><trkpt lat="43.17729845921513" lon="12.261726374565772"><ele>456.0</ele><time>2026-03-29T07:24:16Z</time></trkpt><trkpt lat="43.17738522667169" lon="12.261775110975028"><ele>456.0</ele><time>2026-03-29T07:24:17Z</time></trkpt><trkpt lat="43.17747491645094" lon="12.26183606385628"><ele>455.20000000000005</ele><time>2026-03-29T07:24:18Z</time></trkpt><trkpt lat="43.17756605584549" lon="12.26191254721668"><ele>454.40000000000003</ele><time>2026-03-29T07:24:19Z</time></trkpt><trkpt lat="43.177654015313294" lon="12.261987338312405"><ele>453.6</ele><time>2026-03-29T07:24:20Z</time></trkpt><trkpt lat="43.177735135952965" lon="12.262055031107101"><ele>452.8</ele><time>2026-03-29T07:24:21Z</time></trkpt><trkpt lat="43.17780915054141" lon="12.262107984001217"><ele>452.0</ele><time>2026-03-29T07:24:22Z</time></trkpt><trkpt lat="43.17788585427576" lon="12.262138637237188"><ele>451.99999999999994</ele><time>2026-03-29T07:24:23Z</time></trkpt><trkpt lat="43.177973054898516" lon="12.262162105335543"><ele>452.0</ele><time>2026-03-29T07:24:24Z</time></trkpt><trkpt lat="43.1780703891598" lon="12.262189938757563"><ele>452.0</ele><time>2026-03-29T07:24:25Z</time></trkpt><trkpt lat="43.17815462822615" lon="12.262192686592087"><ele>452.0</ele><time>2026-03-29T07:24:26Z</time></trkpt><trkpt lat="43.17822941714388" lon="12.262192095036921"><ele>451.99999999999994</ele><time>2026-03-29T07:24:27Z</time></trkpt><trkpt lat="43.17831286444922" lon="12.26221085036784"><ele>452.0</ele><time>2026-03-29T07:24:28Z</time></trkpt><trkpt lat="43.17839934050777" lon="12.262228101688729"><ele>450.66666666666663</ele><time>2026-03-29T07:24:29Z</time></trkpt><trkpt lat="43.17848316824641" lon="12.262233744298257"><ele>449.3333333333333</ele><time>2026-03-29T07:24:30Z</time></trkpt><trkpt lat="43.17857439252387" lon="12.262248591141242"><ele>448.0</ele><time>2026-03-29T07:24:31Z</time></trkpt><trkpt lat="43.178649732704606" lon="12.262261350415788"><ele>446.66666666666663</ele><time>2026-03-29T07:24:32Z</time></trkpt><trkpt lat="43.1787252481198" lon="12.262275790765338"><ele>445.3333333333333</ele><time>2026-03-29T07:24:33Z</time></trkpt><trkpt lat="43.178822183662376" lon="12.262299383149564"><ele>444.0</ele><time>2026-03-29T07:24:34Z</time></trkpt><trkpt lat="43.17892277249886" lon="12.262334580761724"><ele>444.4</ele><time>2026-03-29T07:24:35Z</time></trkpt><trkpt lat="43.17902654416854" lon="12.262390476731696"><ele>444.79999999999995</ele><time>2026-03-29T07:24:36Z</time></trkpt><trkpt lat="43.17912948752819" lon="12.262450057994338"><ele>445.20000000000005</ele><time>2026-03-29T07:24:37Z</time></trkpt><trkpt lat="43.17923160209672" lon="12.262505708417406"><ele>445.6</ele><time>2026-03-29T07:24:38Z</time></trkpt><trkpt lat="43.179327990657036" lon="12.262540963273768"><ele>446.0</ele><time>2026-03-29T07:24:39Z</time></trkpt><trkpt lat="43.1794387375873" lon="12.262568839669518"><ele>446.0</ele><time>2026-03-29T07:24:40Z</time></trkpt><trkpt lat="43.179544472104" lon="12.262609783071234"><ele>446.0</ele><time>2026-03-29T07:24:41Z</time></trkpt><trkpt lat="43.17963955997057" lon="12.26265977027385"><ele>446.0</ele><time>2026-03-29T07:24:42Z</time></trkpt><trkpt lat="43.17973353350169" lon="12.262734724902096"><ele>446.0</ele><time>2026-03-29T07:24:43Z</time></trkpt><trkpt lat="43.179813310070784" lon="12.26282358082037"><ele>446.0</ele><time>2026-03-29T07:24:44Z</time></trkpt><trkpt lat="43.17988307240226" lon="12.262937631697964"><ele>445.8</ele><time>2026-03-29T07:24:45Z</time></trkpt><trkpt lat="43.179954190019686" lon="12.263068850304819"><ele>445.6</ele><time>2026-03-29T07:24:46Z</time></trkpt><trkpt lat="43.1800267327161" lon="12.263194043106889"><ele>445.4</ele><time>2026-03-29T07:24:47Z</time></trkpt><trkpt lat="43.18010314149359" lon="12.263296134271657"><ele>445.2</ele><time>2026-03-29T07:24:48Z</time></trkpt><trkpt lat="43.18018477656374" lon="12.26338682436413"><ele>445.0</ele><time>2026-03-29T07:24:49Z</time></trkpt><trkpt lat="43.18027044473006" lon="12.263462013191456"><ele>445.00000000000006</ele><time>2026-03-29T07:24:50Z</time></trkpt><trkpt lat="43.1803482538997" lon="12.263526777307126"><ele>445.0</ele><time>2026-03-29T07:24:51Z</time></trkpt><trkpt lat="43.180411506083466" lon="12.263565270573013"><ele>445.0</ele><time>2026-03-29T07:24:52Z</time></trkpt><trkpt lat="43.18052102372876" lon="12.263628615358401"><ele>445.0</ele><time>2026-03-29T07:24:54Z</time></trkpt><trkpt lat="43.18058842476148" lon="12.263650485188128"><ele>445.00000000000006</ele><time>2026-03-29T07:24:55Z</time></trkpt><trkpt lat="43.18066455143266" lon="12.263649283213802"><ele>445.0</ele><time>2026-03-29T07:24:56Z</time></trkpt><trkpt lat="43.180762256307275" lon="12.263644652728294"><ele>446.4</ele><time>2026-03-29T07:24:58Z</time></trkpt><trkpt lat="43.18080484398037" lon="12.263544263242022"><ele>447.8</ele><time>2026-03-29T07:24:59Z</time></trkpt><trkpt lat="43.180925354380584" lon="12.263493236270225"><ele>449.20000000000005</ele><time>2026-03-29T07:25:01Z</time></trkpt><trkpt lat="43.181010819173785" lon="12.263479848970903"><ele>450.6</ele><time>2026-03-29T07:25:02Z</time></trkpt><trkpt lat="43.181097031872774" lon="12.263461038443342"><ele>452.0</ele><time>2026-03-29T07:25:03Z</time></trkpt><trkpt lat="43.181193611094564" lon="12.263469323388978"><ele>451.99999999999994</ele><time>2026-03-29T07:25:04Z</time></trkpt><trkpt lat="43.18128195634887" lon="12.263448523852082"><ele>452.0</ele><time>2026-03-29T07:25:05Z</time></trkpt><trkpt lat="43.18136530433997" lon="12.26341700043543"><ele>452.0</ele><time>2026-03-29T07:25:06Z</time></trkpt><trkpt lat="43.181453477874896" lon="12.263395796810766"><ele>452.0</ele><time>2026-03-29T07:25:07Z</time></trkpt><trkpt lat="43.18153977977782" lon="12.263365069110385"><ele>451.99999999999994</ele><time>2026-03-29T07:25:08Z</time></trkpt><trkpt lat="43.18162188037332" lon="12.263360729954213"><ele>452.0</ele><time>2026-03-29T07:25:09Z</time></trkpt><trkpt lat="43.181707364743836" lon="12.263345564762028"><ele>449.20000000000005</ele><time>2026-03-29T07:25:10Z</time></trkpt><trkpt lat="43.18179396489078" lon="12.263332321747425"><ele>446.40000000000003</ele><time>2026-03-29T07:25:11Z</time></trkpt><trkpt lat="43.181873804974366" lon="12.263322807806043"><ele>443.59999999999997</ele><time>2026-03-29T07:25:12Z</time></trkpt><trkpt lat="43.18200912400168" lon="12.263300953508967"><ele>440.79999999999995</ele><time>2026-03-29T07:25:14Z</time></trkpt><trkpt lat="43.18209145796438" lon="12.263320408448005"><ele>438.0</ele><time>2026-03-29T07:25:15Z</time></trkpt><trkpt lat="43.18216567252441" lon="12.26332345933928"><ele>438.0</ele><time>2026-03-29T07:25:16Z</time></trkpt><trkpt lat="43.18224386755994" lon="12.263330917830356"><ele>437.99999999999994</ele><time>2026-03-29T07:25:17Z</time></trkpt><trkpt lat="43.18235447424035" lon="12.263362665440699"><ele>437.99999999999994</ele><time>2026-03-29T07:25:18.999Z</time></trkpt><trkpt lat="43.18246820315977" lon="12.263370839703864"><ele>438.0</ele><time>2026-03-29T07:25:20.999Z</time></trkpt><trkpt lat="43.18258541132638" lon="12.263414177162145"><ele>438.0</ele><time>2026-03-29T07:25:22.999Z</time></trkpt><trkpt lat="43.18269210456015" lon="12.263464991596283"><ele>435.0</ele><time>2026-03-29T07:25:24.999Z</time></trkpt><trkpt lat="43.182826440613354" lon="12.263523181442373"><ele>432.0</ele><time>2026-03-29T07:25:26.999Z</time></trkpt><trkpt lat="43.18290420910246" lon="12.263536987262158"><ele>429.0</ele><time>2026-03-29T07:25:27.999Z</time></trkpt><trkpt lat="43.18297746512702" lon="12.26359309907855"><ele>426.0</ele><time>2026-03-29T07:25:28.999Z</time></trkpt><trkpt lat="43.18304588526402" lon="12.263623875085766"><ele>423.0</ele><time>2026-03-29T07:25:29.999Z</time></trkpt><trkpt lat="43.183117746399965" lon="12.26364976439496"><ele>420.0</ele><time>2026-03-29T07:25:30.999Z</time></trkpt><trkpt lat="43.1831892934744" lon="12.263660523090708"><ele>418.1666666666667</ele><time>2026-03-29T07:25:31.999Z</time></trkpt><trkpt lat="43.18325460447403" lon="12.263649544403195"><ele>416.33333333333337</ele><time>2026-03-29T07:25:32.999Z</time></trkpt><trkpt lat="43.1833198120813" lon="12.263573068938026"><ele>414.5</ele><time>2026-03-29T07:25:33.999Z</time></trkpt><trkpt lat="43.183385560270395" lon="12.263513098192712"><ele>412.6666666666667</ele><time>2026-03-29T07:25:34.999Z</time></trkpt><trkpt lat="43.183421410053015" lon="12.263400974831997"><ele>410.83333333333337</ele><time>2026-03-29T07:25:35.999Z</time></trkpt><trkpt lat="43.18345960058786" lon="12.2633275977578"><ele>409.0</ele><time>2026-03-29T07:25:36.999Z</time></trkpt><trkpt lat="43.18355689529451" lon="12.263197608592666"><ele>409.0</ele><time>2026-03-29T07:25:38.999Z</time></trkpt><trkpt lat="43.18360814233016" lon="12.263126929041272"><ele>409.0</ele><time>2026-03-29T07:25:39.999Z</time></trkpt><trkpt lat="43.18371562899908" lon="12.263040191902565"><ele>409.0</ele><time>2026-03-29T07:25:41.999Z</time></trkpt><trkpt lat="43.183848089448844" lon="12.26299922269284"><ele>409.0</ele><time>2026-03-29T07:25:43.999Z</time></trkpt><trkpt lat="43.183917614810746" lon="12.262986850435214"><ele>409.0</ele><time>2026-03-29T07:25:44.999Z</time></trkpt><trkpt lat="43.18398903151947" lon="12.26295729421474"><ele>405.1666666666667</ele><time>2026-03-29T07:25:45.999Z</time></trkpt><trkpt lat="43.18407454372982" lon="12.262939947632455"><ele>401.33333333333337</ele><time>2026-03-29T07:25:46.999Z</time></trkpt><trkpt lat="43.18414787178985" lon="12.262955254700524"><ele>397.5</ele><time>2026-03-29T07:25:47.999Z</time></trkpt><trkpt lat="43.184213405034086" lon="12.2629552547028"><ele>393.66666666666663</ele><time>2026-03-29T07:25:48.999Z</time></trkpt><trkpt lat="43.18432974835836" lon="12.262954277601294"><ele>389.8333333333333</ele><time>2026-03-29T07:25:50.999Z</time></trkpt><trkpt lat="43.184394481887566" lon="12.262924156698622"><ele>386.0</ele><time>2026-03-29T07:26:03.999Z</time></trkpt><trkpt lat="43.18450514917428" lon="12.262866144318274"><ele>385.99999999999994</ele><time>2026-03-29T07:26:05.999Z</time></trkpt><trkpt lat="43.18458097696639" lon="12.262831377861792"><ele>386.0</ele><time>2026-03-29T07:26:06.999Z</time></trkpt><trkpt lat="43.1846636185983" lon="12.262816239668686"><ele>386.0</ele><time>2026-03-29T07:26:07.999Z</time></trkpt><trkpt lat="43.18471236803561" lon="12.262743704231697"><ele>386.0</ele><time>2026-03-29T07:26:08.999Z</time></trkpt><trkpt lat="43.18476992874651" lon="12.262603911961433"><ele>385.99999999999994</ele><time>2026-03-29T07:26:10.999Z</time></trkpt><trkpt lat="43.18477018178147" lon="12.262487138647783"><ele>386.0</ele><time>2026-03-29T07:26:12.999Z</time></trkpt><trkpt lat="43.184788083125646" lon="12.262367000003536"><ele>382.0</ele><time>2026-03-29T07:26:14.999Z</time></trkpt><trkpt lat="43.18479427654601" lon="12.262235030088375"><ele>378.0</ele><time>2026-03-29T07:26:17Z</time></trkpt><trkpt lat="43.18480030822068" lon="12.262106506602397"><ele>374.0</ele><time>2026-03-29T07:26:19Z</time></trkpt><trkpt lat="43.18446737175172" lon="12.26196001554726"><ele>374.0</ele><time>2026-03-29T07:26:21Z</time></trkpt><trkpt lat="43.18439565639722" lon="12.26191285030818"><ele>374.0</ele><time>2026-03-29T07:26:22Z</time></trkpt><trkpt lat="43.184329618086615" lon="12.261858819578546"><ele>374.0</ele><time>2026-03-29T07:26:23Z</time></trkpt><trkpt lat="43.184285058846" lon="12.261797162895036"><ele>374.0</ele><time>2026-03-29T07:26:24Z</time></trkpt><trkpt lat="43.18423893409618" lon="12.261728897293557"><ele>374.0</ele><time>2026-03-29T07:26:25Z</time></trkpt><trkpt lat="43.18413497931419" lon="12.261691823421856"><ele>374.0</ele><time>2026-03-29T07:26:27Z</time></trkpt><trkpt lat="43.18404759016728" lon="12.261738594965646"><ele>374.0</ele><time>2026-03-29T07:26:29Z</time></trkpt><trkpt lat="43.18399944105815" lon="12.261682350238477"><ele>374.0</ele><time>2026-03-29T07:26:31Z</time></trkpt><trkpt lat="43.18399520157563" lon="12.26158456863261"><ele>374.0</ele><time>2026-03-29T07:26:33Z</time></trkpt><trkpt lat="43.18401965600554" lon="12.261452741215003"><ele>374.0</ele><time>2026-03-29T07:26:36Z</time></trkpt><trkpt lat="43.1839341880275" lon="12.261400574218122"><ele>374.0</ele><time>2026-03-29T07:26:38Z</time></trkpt><trkpt lat="43.183829044978324" lon="12.261485462957921"><ele>374.0</ele><time>2026-03-29T07:26:40Z</time></trkpt><trkpt lat="43.18374501480631" lon="12.261553592477025"><ele>372.6666666666667</ele><time>2026-03-29T07:26:42Z</time></trkpt><trkpt lat="43.18368574819519" lon="12.26162408497324"><ele>371.33333333333337</ele><time>2026-03-29T07:26:44Z</time></trkpt><trkpt lat="43.18364333007338" lon="12.261749761483602"><ele>370.0</ele><time>2026-03-29T07:26:46Z</time></trkpt><trkpt lat="43.18359947746367" lon="12.261835048654872"><ele>368.6666666666667</ele><time>2026-03-29T07:26:49Z</time></trkpt><trkpt lat="43.183528962354735" lon="12.261821753608173"><ele>367.3333333333333</ele><time>2026-03-29T07:26:51Z</time></trkpt><trkpt lat="43.18349297810752" lon="12.261666049157755"><ele>366.0</ele><time>2026-03-29T07:26:53Z</time></trkpt><trkpt lat="43.18344150778549" lon="12.26159177531348"><ele>366.0</ele><time>2026-03-29T07:26:56Z</time></trkpt><trkpt lat="43.18339838754328" lon="12.261523046133238"><ele>366.0</ele><time>2026-03-29T07:26:58Z</time></trkpt><trkpt lat="43.18337326826731" lon="12.261435421396298"><ele>366.0</ele><time>2026-03-29T07:27:01Z</time></trkpt><trkpt lat="43.18337356598756" lon="12.26133519452864"><ele>366.0</ele><time>2026-03-29T07:27:02Z</time></trkpt><trkpt lat="43.183364471038665" lon="12.261243959850315"><ele>366.0</ele><time>2026-03-29T07:27:03Z</time></trkpt><trkpt lat="43.18334013512952" lon="12.261148720850196"><ele>366.0</ele><time>2026-03-29T07:27:04Z</time></trkpt><trkpt lat="43.183335351422" lon="12.261032617464666"><ele>366.0</ele><time>2026-03-29T07:27:05Z</time></trkpt><trkpt lat="43.183339822540106" lon="12.260923828889492"><ele>363.5</ele><time>2026-03-29T07:27:06Z</time></trkpt><trkpt lat="43.18333767528835" lon="12.260810363820509"><ele>361.0</ele><time>2026-03-29T07:27:07Z</time></trkpt><trkpt lat="43.18334265730438" lon="12.260683825340793"><ele>358.5</ele><time>2026-03-29T07:27:08Z</time></trkpt><trkpt lat="43.18335040851951" lon="12.260555174359892"><ele>356.0</ele><time>2026-03-29T07:27:09Z</time></trkpt><trkpt lat="43.18335392967169" lon="12.26043310239064"><ele>353.5</ele><time>2026-03-29T07:27:10Z</time></trkpt><trkpt lat="43.18335457645223" lon="12.260311301661474"><ele>351.0</ele><time>2026-03-29T07:27:11Z</time></trkpt><trkpt lat="43.18335439849671" lon="12.260199261168154"><ele>349.1666666666667</ele><time>2026-03-29T07:27:12Z</time></trkpt><trkpt lat="43.18336976178984" lon="12.2601066321829"><ele>347.3333333333333</ele><time>2026-03-29T07:27:13Z</time></trkpt><trkpt lat="43.183381837649286" lon="12.260012018490043"><ele>345.5</ele><time>2026-03-29T07:27:14Z</time></trkpt><trkpt lat="43.18338582797679" lon="12.25991891369756"><ele>343.66666666666663</ele><time>2026-03-29T07:27:15Z</time></trkpt><trkpt lat="43.18339972895865" lon="12.259826664551206"><ele>341.8333333333333</ele><time>2026-03-29T07:27:16Z</time></trkpt><trkpt lat="43.18342449077515" lon="12.25973916594949"><ele>340.0</ele><time>2026-03-29T07:27:17Z</time></trkpt><trkpt lat="43.183437256240126" lon="12.25957660272788"><ele>337.8333333333333</ele><time>2026-03-29T07:27:19Z</time></trkpt><trkpt lat="43.183421576859445" lon="12.259412721777727"><ele>335.66666666666663</ele><time>2026-03-29T07:27:21Z</time></trkpt><trkpt lat="43.1834128655289" lon="12.259323728548566"><ele>333.5</ele><time>2026-03-29T07:27:22Z</time></trkpt><trkpt lat="43.18342010855766" lon="12.259220307161273"><ele>331.3333333333333</ele><time>2026-03-29T07:27:23Z</time></trkpt><trkpt lat="43.18340917207346" lon="12.25910902497804"><ele>329.1666666666667</ele><time>2026-03-29T07:27:24Z</time></trkpt><trkpt lat="43.183376500375786" lon="12.25901209925852"><ele>327.0</ele><time>2026-03-29T07:27:25Z</time></trkpt><trkpt lat="43.18333262817942" lon="12.258915813324691"><ele>327.1666666666667</ele><time>2026-03-29T07:27:26Z</time></trkpt><trkpt lat="43.183288622408966" lon="12.258817916659982"><ele>327.3333333333333</ele><time>2026-03-29T07:27:26.999Z</time></trkpt><trkpt lat="43.18324573370468" lon="12.258726243205144"><ele>327.5</ele><time>2026-03-29T07:27:27.999Z</time></trkpt><trkpt lat="43.18320793964354" lon="12.258638506281363"><ele>327.66666666666663</ele><time>2026-03-29T07:27:28.999Z</time></trkpt><trkpt lat="43.183169000902" lon="12.258554341749802"><ele>327.8333333333333</ele><time>2026-03-29T07:27:29.999Z</time></trkpt><trkpt lat="43.18313057356379" lon="12.25846843411843"><ele>328.0</ele><time>2026-03-29T07:27:30.999Z</time></trkpt><trkpt lat="43.18308876944314" lon="12.258383405820544"><ele>328.0</ele><time>2026-03-29T07:27:31.999Z</time></trkpt><trkpt lat="43.18304679404602" lon="12.258303860574323"><ele>328.0</ele><time>2026-03-29T07:27:32.999Z</time></trkpt><trkpt lat="43.18299815115222" lon="12.258171158623664"><ele>328.0</ele><time>2026-03-29T07:27:34.999Z</time></trkpt><trkpt lat="43.18300792008488" lon="12.258038842147496"><ele>328.0</ele><time>2026-03-29T07:27:37.999Z</time></trkpt><trkpt lat="43.18304066466248" lon="12.257934408559672"><ele>328.0</ele><time>2026-03-29T07:27:40.999Z</time></trkpt><trkpt lat="43.183070061201235" lon="12.257858007096711"><ele>328.0</ele><time>2026-03-29T07:27:41.999Z</time></trkpt><trkpt lat="43.1831612877343" lon="12.257778029952586"><ele>327.79999999999995</ele><time>2026-03-29T07:27:42.999Z</time></trkpt><trkpt lat="43.18328135163611" lon="12.257773360221753"><ele>327.6</ele><time>2026-03-29T07:27:44.999Z</time></trkpt><trkpt lat="43.18334155678426" lon="12.257746950723961"><ele>327.4</ele><time>2026-03-29T07:27:48.999Z</time></trkpt><trkpt lat="43.18340755362849" lon="12.257831233830967"><ele>327.20000000000005</ele><time>2026-03-29T07:27:53.999Z</time></trkpt><trkpt lat="43.183450889814075" lon="12.257909663508046"><ele>327.0</ele><time>2026-03-29T07:27:54.999Z</time></trkpt><trkpt lat="43.18353784329779" lon="12.25809036442817"><ele>325.6</ele><time>2026-03-29T07:27:56.999Z</time></trkpt><trkpt lat="43.18360332066672" lon="12.258179934500717"><ele>324.20000000000005</ele><time>2026-03-29T07:27:57.999Z</time></trkpt><trkpt lat="43.18366255311838" lon="12.25827284028356"><ele>322.8</ele><time>2026-03-29T07:27:58.999Z</time></trkpt><trkpt lat="43.183726600264656" lon="12.258353752367174"><ele>321.4</ele><time>2026-03-29T07:27:59.999Z</time></trkpt><trkpt lat="43.1837968621236" lon="12.258441836449263"><ele>320.0</ele><time>2026-03-29T07:28:00.999Z</time></trkpt><trkpt lat="43.18384987521508" lon="12.258551987513739"><ele>320.0</ele><time>2026-03-29T07:28:01.999Z</time></trkpt><trkpt lat="43.18390765693381" lon="12.258633471295521"><ele>320.0</ele><time>2026-03-29T07:28:02.999Z</time></trkpt><trkpt lat="43.18399076364177" lon="12.258650400787177"><ele>320.0</ele><time>2026-03-29T07:28:03.999Z</time></trkpt><trkpt lat="43.18405631325207" lon="12.258653429168774"><ele>320.0</ele><time>2026-03-29T07:28:04.999Z</time></trkpt><trkpt lat="43.18412005491656" lon="12.258661882927202"><ele>320.0</ele><time>2026-03-29T07:28:05.999Z</time></trkpt><trkpt lat="43.18418947616772" lon="12.258656274907162"><ele>320.0</ele><time>2026-03-29T07:28:06.999Z</time></trkpt><trkpt lat="43.184263448922856" lon="12.258650537207998"><ele>320.0</ele><time>2026-03-29T07:28:07.999Z</time></trkpt><trkpt lat="43.18433142985486" lon="12.258648179317845"><ele>320.33333333333337</ele><time>2026-03-29T07:28:08.999Z</time></trkpt><trkpt lat="43.18440695680298" lon="12.258669978817371"><ele>320.6666666666667</ele><time>2026-03-29T07:28:09.999Z</time></trkpt><trkpt lat="43.18447626766023" lon="12.258736250357824"><ele>321.0</ele><time>2026-03-29T07:28:10.999Z</time></trkpt><trkpt lat="43.18454915627072" lon="12.258824508241004"><ele>321.3333333333333</ele><time>2026-03-29T07:28:11.999Z</time></trkpt><trkpt lat="43.184612327677435" lon="12.25890452243957"><ele>321.66666666666663</ele><time>2026-03-29T07:28:12.999Z</time></trkpt><trkpt lat="43.18469838572363" lon="12.258971968651432"><ele>322.0</ele><time>2026-03-29T07:28:14.999Z</time></trkpt><trkpt lat="43.18476472519832" lon="12.25908823670625"><ele>324.40000000000003</ele><time>2026-03-29T07:28:16.999Z</time></trkpt><trkpt lat="43.184860995001834" lon="12.259194982225885"><ele>326.8</ele><time>2026-03-29T07:28:18.999Z</time></trkpt><trkpt lat="43.184935744791254" lon="12.259211385903257"><ele>329.2</ele><time>2026-03-29T07:28:23Z</time></trkpt><trkpt lat="43.18501027872643" lon="12.259237074385164"><ele>331.6</ele><time>2026-03-29T07:28:26Z</time></trkpt><trkpt lat="43.185109828019314" lon="12.259313913948734"><ele>334.0</ele><time>2026-03-29T07:28:28Z</time></trkpt><trkpt lat="43.185223982169624" lon="12.259302368864006"><ele>334.0</ele><time>2026-03-29T07:28:29Z</time></trkpt><trkpt lat="43.18529822553621" lon="12.259339702129429"><ele>334.0</ele><time>2026-03-29T07:28:30Z</time></trkpt><trkpt lat="43.18538334642035" lon="12.25935603138511"><ele>334.0</ele><time>2026-03-29T07:28:31Z</time></trkpt><trkpt lat="43.185482372832915" lon="12.259369183642669"><ele>334.0</ele><time>2026-03-29T07:28:32Z</time></trkpt><trkpt lat="43.185592388126004" lon="12.259362819615966"><ele>334.0</ele><time>2026-03-29T07:28:33Z</time></trkpt><trkpt lat="43.1857034746224" lon="12.259355863267974"><ele>337.2</ele><time>2026-03-29T07:28:34Z</time></trkpt><trkpt lat="43.185776792873725" lon="12.25936368524812"><ele>340.4</ele><time>2026-03-29T07:28:35Z</time></trkpt><trkpt lat="43.18587485451103" lon="12.259438097268378"><ele>343.6</ele><time>2026-03-29T07:28:37Z</time></trkpt><trkpt lat="43.18593749051497" lon="12.259556476771813"><ele>346.8</ele><time>2026-03-29T07:28:39Z</time></trkpt><trkpt lat="43.186024745589634" lon="12.259670882275113"><ele>350.0</ele><time>2026-03-29T07:28:41Z</time></trkpt><trkpt lat="43.1860834608223" lon="12.259717082422503"><ele>350.0</ele><time>2026-03-29T07:28:42Z</time></trkpt><trkpt lat="43.18616192415773" lon="12.259758073517746"><ele>350.0</ele><time>2026-03-29T07:28:43Z</time></trkpt><trkpt lat="43.186257507644605" lon="12.259814088128234"><ele>350.0</ele><time>2026-03-29T07:28:44Z</time></trkpt><trkpt lat="43.18634329729873" lon="12.259868587867679"><ele>350.0</ele><time>2026-03-29T07:28:45Z</time></trkpt><trkpt lat="43.18642077083241" lon="12.25990688494464"><ele>350.0</ele><time>2026-03-29T07:28:46Z</time></trkpt><trkpt lat="43.18650901025685" lon="12.259921603467928"><ele>347.33333333333337</ele><time>2026-03-29T07:28:47Z</time></trkpt><trkpt lat="43.186595185323775" lon="12.259948279744378"><ele>344.6666666666667</ele><time>2026-03-29T07:28:48Z</time></trkpt><trkpt lat="43.1866602006609" lon="12.259965254017818"><ele>342.0</ele><time>2026-03-29T07:28:49Z</time></trkpt><trkpt lat="43.18679178019606" lon="12.259950013076752"><ele>339.3333333333333</ele><time>2026-03-29T07:28:51Z</time></trkpt><trkpt lat="43.18686225276422" lon="12.259928929695539"><ele>336.66666666666663</ele><time>2026-03-29T07:28:52Z</time></trkpt><trkpt lat="43.18692979864629" lon="12.259911991847654"><ele>334.0</ele><time>2026-03-29T07:28:53Z</time></trkpt><trkpt lat="43.18705226333873" lon="12.259952243036164"><ele>334.0</ele><time>2026-03-29T07:28:55Z</time></trkpt><trkpt lat="43.18712598910613" lon="12.25997092913128"><ele>334.0</ele><time>2026-03-29T07:28:56Z</time></trkpt><trkpt lat="43.187212473406476" lon="12.259985758154285"><ele>334.0</ele><time>2026-03-29T07:28:57Z</time></trkpt><trkpt lat="43.187316121927886" lon="12.260053646103287"><ele>334.0</ele><time>2026-03-29T07:28:59Z</time></trkpt><trkpt lat="43.18740691552458" lon="12.260056871095244"><ele>334.0</ele><time>2026-03-29T07:29:01Z</time></trkpt><trkpt lat="43.1874855493277" lon="12.260106447792355"><ele>335.5</ele><time>2026-03-29T07:29:03Z</time></trkpt><trkpt lat="43.18758039729772" lon="12.260152459547806"><ele>337.0</ele><time>2026-03-29T07:29:05Z</time></trkpt><trkpt lat="43.18765056275486" lon="12.26016263740848"><ele>338.5</ele><time>2026-03-29T07:29:06Z</time></trkpt><trkpt lat="43.187728359337015" lon="12.260165320580224"><ele>340.0</ele><time>2026-03-29T07:29:07Z</time></trkpt><trkpt lat="43.18779363010389" lon="12.260181064949716"><ele>341.5</ele><time>2026-03-29T07:29:08Z</time></trkpt><trkpt lat="43.1878874839592" lon="12.260225481587998"><ele>343.0</ele><time>2026-03-29T07:29:10Z</time></trkpt><trkpt lat="43.187956851881204" lon="12.26021386169673"><ele>343.0</ele><time>2026-03-29T07:29:11Z</time></trkpt><trkpt lat="43.18801881551619" lon="12.260180276094058"><ele>343.0</ele><time>2026-03-29T07:29:12Z</time></trkpt><trkpt lat="43.188085740138085" lon="12.260158456015578"><ele>343.0</ele><time>2026-03-29T07:29:13Z</time></trkpt><trkpt lat="43.18820365866389" lon="12.260133829468288"><ele>343.0</ele><time>2026-03-29T07:29:15Z</time></trkpt><trkpt lat="43.18832807703107" lon="12.260152980912974"><ele>343.0</ele><time>2026-03-29T07:29:17Z</time></trkpt><trkpt lat="43.188404949293236" lon="12.26016103444668"><ele>344.79999999999995</ele><time>2026-03-29T07:29:18Z</time></trkpt><trkpt lat="43.18848195073037" lon="12.26017326600506"><ele>346.6</ele><time>2026-03-29T07:29:19Z</time></trkpt><trkpt lat="43.188582186789624" lon="12.26024497075706"><ele>348.4</ele><time>2026-03-29T07:29:21Z</time></trkpt><trkpt lat="43.18867841585246" lon="12.260312454713642"><ele>350.20000000000005</ele><time>2026-03-29T07:29:23Z</time></trkpt><trkpt lat="43.18877947652364" lon="12.260339410142983"><ele>352.0</ele><time>2026-03-29T07:29:25Z</time></trkpt><trkpt lat="43.18885347043981" lon="12.260344266412469"><ele>352.0</ele><time>2026-03-29T07:29:26Z</time></trkpt><trkpt lat="43.18892934190671" lon="12.26036009187866"><ele>352.0</ele><time>2026-03-29T07:29:26.999Z</time></trkpt><trkpt lat="43.188991543579135" lon="12.260389056802591"><ele>352.0</ele><time>2026-03-29T07:29:27.999Z</time></trkpt><trkpt lat="43.18905696065516" lon="12.260422999619587"><ele>352.0</ele><time>2026-03-29T07:29:28.999Z</time></trkpt><trkpt lat="43.18916968660108" lon="12.26044414312584"><ele>352.0</ele><time>2026-03-29T07:29:30.999Z</time></trkpt><trkpt lat="43.18925839991015" lon="12.260510536249578"><ele>352.0</ele><time>2026-03-29T07:29:32.999Z</time></trkpt><trkpt lat="43.18933740980096" lon="12.26048447998785"><ele>352.8333333333333</ele><time>2026-03-29T07:29:34.999Z</time></trkpt><trkpt lat="43.189410591701915" lon="12.26039252107974"><ele>353.66666666666663</ele><time>2026-03-29T07:29:36.999Z</time></trkpt><trkpt lat="43.18947911092157" lon="12.260362288048746"><ele>354.5</ele><time>2026-03-29T07:29:38.999Z</time></trkpt><trkpt lat="43.18957541760021" lon="12.260355635961039"><ele>355.3333333333333</ele><time>2026-03-29T07:29:40.999Z</time></trkpt><trkpt lat="43.189684952938066" lon="12.260359250547717"><ele>356.1666666666667</ele><time>2026-03-29T07:29:42.999Z</time></trkpt><trkpt lat="43.189751951261975" lon="12.260339967643752"><ele>357.0</ele><time>2026-03-29T07:29:43.999Z</time></trkpt><trkpt lat="43.18983070018499" lon="12.260355974546751"><ele>359.0</ele><time>2026-03-29T07:29:44.999Z</time></trkpt><trkpt lat="43.18993607684588" lon="12.260385115788733"><ele>361.0</ele><time>2026-03-29T07:29:46.999Z</time></trkpt><trkpt lat="43.190011432044194" lon="12.260450681332806"><ele>363.0</ele><time>2026-03-29T07:29:48.999Z</time></trkpt><trkpt lat="43.19010218863665" lon="12.260542042314515"><ele>365.0</ele><time>2026-03-29T07:29:50.999Z</time></trkpt><trkpt lat="43.19021486610378" lon="12.260577041108409"><ele>367.0</ele><time>2026-03-29T07:29:52.999Z</time></trkpt><trkpt lat="43.19028094698271" lon="12.260568963050835"><ele>367.0</ele><time>2026-03-29T07:29:53.999Z</time></trkpt><trkpt lat="43.19034390845972" lon="12.260555035259213"><ele>367.0</ele><time>2026-03-29T07:29:54.999Z</time></trkpt><trkpt lat="43.190459747287036" lon="12.260593340726423"><ele>367.0</ele><time>2026-03-29T07:29:56.999Z</time></trkpt><trkpt lat="43.19052688720022" lon="12.260642161518788"><ele>367.0</ele><time>2026-03-29T07:29:57.999Z</time></trkpt><trkpt lat="43.19063348030763" lon="12.260678258139988"><ele>367.0</ele><time>2026-03-29T07:29:59.999Z</time></trkpt><trkpt lat="43.190710502157906" lon="12.260719819741048"><ele>364.8</ele><time>2026-03-29T07:30:01.999Z</time></trkpt><trkpt lat="43.19077479544349" lon="12.260726309911185"><ele>362.6</ele><time>2026-03-29T07:30:03.999Z</time></trkpt><trkpt lat="43.190865533923734" lon="12.260747874628395"><ele>360.40000000000003</ele><time>2026-03-29T07:30:05.999Z</time></trkpt><trkpt lat="43.190966019287025" lon="12.26077934909557"><ele>358.20000000000005</ele><time>2026-03-29T07:30:07.999Z</time></trkpt><trkpt lat="43.191057592070116" lon="12.260811793463775"><ele>356.0</ele><time>2026-03-29T07:30:09.999Z</time></trkpt><trkpt lat="43.191174064733886" lon="12.260817853355517"><ele>356.0</ele><time>2026-03-29T07:30:11.999Z</time></trkpt><trkpt lat="43.1912675071583" lon="12.26083744999723"><ele>356.0</ele><time>2026-03-29T07:30:13.999Z</time></trkpt><trkpt lat="43.19133385157546" lon="12.260886630084444"><ele>356.0</ele><time>2026-03-29T07:30:15.999Z</time></trkpt><trkpt lat="43.1914060901013" lon="12.260903766415078"><ele>356.0</ele><time>2026-03-29T07:30:18.999Z</time></trkpt><trkpt lat="43.191521854547524" lon="12.26091095903719"><ele>356.0</ele><time>2026-03-29T07:30:20.999Z</time></trkpt><trkpt lat="43.19158910599398" lon="12.260923037083511"><ele>356.0</ele><time>2026-03-29T07:30:21.999Z</time></trkpt><trkpt lat="43.191662255805696" lon="12.260896998478646"><ele>356.2857142857143</ele><time>2026-03-29T07:30:22.999Z</time></trkpt><trkpt lat="43.19173703875079" lon="12.26086847211581"><ele>356.57142857142856</ele><time>2026-03-29T07:30:23.999Z</time></trkpt><trkpt lat="43.19181691831499" lon="12.260858490622658"><ele>356.8571428571429</ele><time>2026-03-29T07:30:24.999Z</time></trkpt><trkpt lat="43.19187914396988" lon="12.260836214880676"><ele>357.1428571428571</ele><time>2026-03-29T07:30:25.999Z</time></trkpt><trkpt lat="43.191948637486725" lon="12.260840653377791"><ele>357.42857142857144</ele><time>2026-03-29T07:30:29Z</time></trkpt><trkpt lat="43.19203603121308" lon="12.260834659177444"><ele>357.7142857142857</ele><time>2026-03-29T07:30:31Z</time></trkpt><trkpt lat="43.192098614642326" lon="12.260821596279694"><ele>358.0</ele><time>2026-03-29T07:30:32Z</time></trkpt><trkpt lat="43.19221377987522" lon="12.260777140235128"><ele>358.0</ele><time>2026-03-29T07:30:34Z</time></trkpt><trkpt lat="43.19228889875384" lon="12.260755267114366"><ele>358.0</ele><time>2026-03-29T07:30:35Z</time></trkpt><trkpt lat="43.19240982303964" lon="12.260723174598638"><ele>358.0</ele><time>2026-03-29T07:30:37Z</time></trkpt><trkpt lat="43.192482489695" lon="12.260695583609627"><ele>358.0</ele><time>2026-03-29T07:30:38Z</time></trkpt><trkpt lat="43.19255389763279" lon="12.260660755529257"><ele>358.0</ele><time>2026-03-29T07:30:39Z</time></trkpt><trkpt lat="43.19268174468182" lon="12.26061636178786"><ele>358.5</ele><time>2026-03-29T07:30:41Z</time></trkpt><trkpt lat="43.19275355595101" lon="12.260603863565303"><ele>359.0</ele><time>2026-03-29T07:30:42Z</time></trkpt><trkpt lat="43.19282296245556" lon="12.260611027942192"><ele>359.5</ele><time>2026-03-29T07:30:43Z</time></trkpt><trkpt lat="43.192942768061" lon="12.260605309489243"><ele>360.0</ele><time>2026-03-29T07:30:45Z</time></trkpt><trkpt lat="43.193018161866746" lon="12.260607555661837"><ele>360.5</ele><time>2026-03-29T07:30:46Z</time></trkpt><trkpt lat="43.19312556333753" lon="12.260636961292667"><ele>361.0</ele><time>2026-03-29T07:30:48Z</time></trkpt><trkpt lat="43.193221077072884" lon="12.260653173060152"><ele>363.66666666666663</ele><time>2026-03-29T07:30:50Z</time></trkpt><trkpt lat="43.193306190517376" lon="12.260599370841913"><ele>366.3333333333333</ele><time>2026-03-29T07:30:52Z</time></trkpt><trkpt lat="43.19337717441788" lon="12.260542387097631"><ele>369.0</ele><time>2026-03-29T07:30:54Z</time></trkpt><trkpt lat="43.193452227111614" lon="12.260461378481502"><ele>371.6666666666667</ele><time>2026-03-29T07:30:56Z</time></trkpt><trkpt lat="43.19350304419347" lon="12.260410260896696"><ele>374.33333333333337</ele><time>2026-03-29T07:30:57Z</time></trkpt><trkpt lat="43.19357777707216" lon="12.260324137484067"><ele>377.0</ele><time>2026-03-29T07:30:59Z</time></trkpt><trkpt lat="43.19363700707184" lon="12.260237019861414"><ele>377.0</ele><time>2026-03-29T07:31:01Z</time></trkpt><trkpt lat="43.19372545789643" lon="12.26023824448548"><ele>377.0</ele><time>2026-03-29T07:31:04Z</time></trkpt><trkpt lat="43.193823470478286" lon="12.260288567600934"><ele>377.0</ele><time>2026-03-29T07:31:06Z</time></trkpt><trkpt lat="43.193965166902146" lon="12.260306328232348"><ele>377.0</ele><time>2026-03-29T07:31:08Z</time></trkpt><trkpt lat="43.19405110435647" lon="12.26031518057131"><ele>377.0</ele><time>2026-03-29T07:31:09Z</time></trkpt><trkpt lat="43.194159185072" lon="12.260282129469804"><ele>376.6666666666667</ele><time>2026-03-29T07:31:11Z</time></trkpt><trkpt lat="43.19423220337793" lon="12.260224097754756"><ele>376.33333333333337</ele><time>2026-03-29T07:31:12Z</time></trkpt><trkpt lat="43.19430497110623" lon="12.260189825007771"><ele>376.0</ele><time>2026-03-29T07:31:13Z</time></trkpt><trkpt lat="43.19439133799982" lon="12.260159042718286"><ele>375.6666666666667</ele><time>2026-03-29T07:31:14Z</time></trkpt><trkpt lat="43.19448429037485" lon="12.26012305285832"><ele>375.3333333333333</ele><time>2026-03-29T07:31:15Z</time></trkpt><trkpt lat="43.194558345290794" lon="12.260090283098508"><ele>375.0</ele><time>2026-03-29T07:31:16Z</time></trkpt><trkpt lat="43.19463135387772" lon="12.260078224153595"><ele>375.0</ele><time>2026-03-29T07:31:17Z</time></trkpt><trkpt lat="43.19470329368673" lon="12.260087715702829"><ele>375.0</ele><time>2026-03-29T07:31:18Z</time></trkpt><trkpt lat="43.194766155323975" lon="12.260078352182786"><ele>375.0</ele><time>2026-03-29T07:31:19Z</time></trkpt><trkpt lat="43.19484033351555" lon="12.260069854229995"><ele>375.0</ele><time>2026-03-29T07:31:21Z</time></trkpt><trkpt lat="43.19498037430371" lon="12.26009998645773"><ele>375.0</ele><time>2026-03-29T07:31:23Z</time></trkpt><trkpt lat="43.19506011953056" lon="12.260103515172695"><ele>375.0</ele><time>2026-03-29T07:31:24Z</time></trkpt><trkpt lat="43.195131868770986" lon="12.260107387003687"><ele>376.0</ele><time>2026-03-29T07:31:25Z</time></trkpt><trkpt lat="43.195242346434355" lon="12.260127395847116"><ele>377.0</ele><time>2026-03-29T07:31:27Z</time></trkpt><trkpt lat="43.19532300395633" lon="12.260215137242035"><ele>378.0</ele><time>2026-03-29T07:31:29Z</time></trkpt><trkpt lat="43.1953831051085" lon="12.26026122166092"><ele>379.0</ele><time>2026-03-29T07:31:30Z</time></trkpt><trkpt lat="43.19548058227758" lon="12.260345490197537"><ele>380.0</ele><time>2026-03-29T07:31:32Z</time></trkpt><trkpt lat="43.19558049073117" lon="12.260321094286596"><ele>380.0</ele><time>2026-03-29T07:31:33.999Z</time></trkpt><trkpt lat="43.195665805918196" lon="12.260276074102476"><ele>380.0</ele><time>2026-03-29T07:31:35.999Z</time></trkpt><trkpt lat="43.1957604875519" lon="12.260245157921212"><ele>380.0</ele><time>2026-03-29T07:31:37.999Z</time></trkpt><trkpt lat="43.19581674548908" lon="12.26019785365424"><ele>380.0</ele><time>2026-03-29T07:31:38.999Z</time></trkpt><trkpt lat="43.195868763442945" lon="12.260123863212229"><ele>380.0</ele><time>2026-03-29T07:31:39.999Z</time></trkpt><trkpt lat="43.19593666176362" lon="12.260044522248167"><ele>380.0</ele><time>2026-03-29T07:31:41.999Z</time></trkpt><trkpt lat="43.19601331854433" lon="12.260040910364847"><ele>380.33333333333337</ele><time>2026-03-29T07:31:43.999Z</time></trkpt><trkpt lat="43.19608991905342" lon="12.260037406933604"><ele>380.6666666666667</ele><time>2026-03-29T07:31:46.999Z</time></trkpt><trkpt lat="43.19615495181151" lon="12.260002036844867"><ele>381.0</ele><time>2026-03-29T07:32:14.999Z</time></trkpt><trkpt lat="43.196273330412126" lon="12.260023303776995"><ele>381.3333333333333</ele><time>2026-03-29T07:32:16.999Z</time></trkpt><trkpt lat="43.19633746146565" lon="12.260011399948613"><ele>381.66666666666663</ele><time>2026-03-29T07:32:17.999Z</time></trkpt><trkpt lat="43.19642701543109" lon="12.260001339631144"><ele>382.0</ele><time>2026-03-29T07:32:19.999Z</time></trkpt><trkpt lat="43.196491177301674" lon="12.260021061980545"><ele>381.6</ele><time>2026-03-29T07:32:20.999Z</time></trkpt><trkpt lat="43.196608230839104" lon="12.260042088421807"><ele>381.20000000000005</ele><time>2026-03-29T07:32:22.999Z</time></trkpt><trkpt lat="43.196707377528654" lon="12.260046072305967"><ele>380.8</ele><time>2026-03-29T07:32:24.999Z</time></trkpt><trkpt lat="43.19679313332761" lon="12.260080034834532"><ele>380.4</ele><time>2026-03-29T07:32:27.999Z</time></trkpt><trkpt lat="43.196887244718404" lon="12.260059317429338"><ele>380.0</ele><time>2026-03-29T07:32:29.999Z</time></trkpt><trkpt lat="43.1969576762901" lon="12.260026697535654"><ele>380.0</ele><time>2026-03-29T07:32:30.999Z</time></trkpt><trkpt lat="43.1970152570782" lon="12.259974253017765"><ele>380.0</ele><time>2026-03-29T07:32:31.999Z</time></trkpt><trkpt lat="43.19708972452493" lon="12.25990136694308"><ele>380.0</ele><time>2026-03-29T07:32:34Z</time></trkpt><trkpt lat="43.19719393153844" lon="12.25989976051751"><ele>380.0</ele><time>2026-03-29T07:32:36Z</time></trkpt><trkpt lat="43.19727769362976" lon="12.259904534580185"><ele>380.0</ele><time>2026-03-29T07:32:38Z</time></trkpt><trkpt lat="43.197357362499396" lon="12.259947641780181"><ele>380.0</ele><time>2026-03-29T07:32:40Z</time></trkpt><trkpt lat="43.197438141565094" lon="12.259964512266842"><ele>379.6</ele><time>2026-03-29T07:32:42Z</time></trkpt><trkpt lat="43.197543132710905" lon="12.259986017010274"><ele>379.2</ele><time>2026-03-29T07:32:44Z</time></trkpt><trkpt lat="43.197650391756234" lon="12.259981495707304"><ele>378.79999999999995</ele><time>2026-03-29T07:32:46Z</time></trkpt><trkpt lat="43.19777223406881" lon="12.259940641850338"><ele>378.4</ele><time>2026-03-29T07:32:48Z</time></trkpt><trkpt lat="43.19786408579144" lon="12.259943542076073"><ele>378.0</ele><time>2026-03-29T07:32:50Z</time></trkpt><trkpt lat="43.19794604159642" lon="12.259968803583254"><ele>378.0</ele><time>2026-03-29T07:32:52Z</time></trkpt><trkpt lat="43.198041696001546" lon="12.259966570858083"><ele>378.0</ele><time>2026-03-29T07:32:54Z</time></trkpt><trkpt lat="43.19812323225289" lon="12.259980232840471"><ele>378.0</ele><time>2026-03-29T07:32:56Z</time></trkpt><trkpt lat="43.198214423231036" lon="12.259985403207416"><ele>378.0</ele><time>2026-03-29T07:32:58Z</time></trkpt><trkpt lat="43.19829349842633" lon="12.259949758593898"><ele>378.0</ele><time>2026-03-29T07:33:00Z</time></trkpt><trkpt lat="43.19836113826246" lon="12.259925052838065"><ele>378.0</ele><time>2026-03-29T07:33:02Z</time></trkpt><trkpt lat="43.19842617341722" lon="12.259896846834527"><ele>378.79999999999995</ele><time>2026-03-29T07:33:04Z</time></trkpt><trkpt lat="43.19850383569786" lon="12.259888476650543"><ele>379.6</ele><time>2026-03-29T07:33:07Z</time></trkpt><trkpt lat="43.19859933615833" lon="12.259872776796481"><ele>380.4</ele><time>2026-03-29T07:33:10Z</time></trkpt><trkpt lat="43.19868869548406" lon="12.259862740099956"><ele>381.20000000000005</ele><time>2026-03-29T07:33:12Z</time></trkpt><trkpt lat="43.19879208556379" lon="12.259849034382537"><ele>382.0</ele><time>2026-03-29T07:33:14Z</time></trkpt><trkpt lat="43.198885774626184" lon="12.259809647499965"><ele>384.5714285714286</ele><time>2026-03-29T07:33:16Z</time></trkpt><trkpt lat="43.19894994373738" lon="12.259740741708107"><ele>387.1428571428571</ele><time>2026-03-29T07:33:18Z</time></trkpt><trkpt lat="43.19901374806557" lon="12.259720989826913"><ele>389.7142857142857</ele><time>2026-03-29T07:33:23Z</time></trkpt><trkpt lat="43.199085457128945" lon="12.259679552695305"><ele>392.28571428571433</ele><time>2026-03-29T07:33:25Z</time></trkpt><trkpt lat="43.199150236879795" lon="12.25962112030602"><ele>394.8571428571429</ele><time>2026-03-29T07:33:27Z</time></trkpt><trkpt lat="43.1992199985667" lon="12.259599067880549"><ele>397.42857142857144</ele><time>2026-03-29T07:33:39.999Z</time></trkpt><trkpt lat="43.19916476618296" lon="12.259555513037094"><ele>400.0</ele><time>2026-03-29T07:47:32Z</time></trkpt><trkpt lat="43.19908244610435" lon="12.259546252626507"><ele>400.00000000000006</ele><time>2026-03-29T07:47:40Z</time></trkpt><trkpt lat="43.19906278313392" lon="12.259460390154112"><ele>400.0</ele><time>2026-03-29T07:47:42Z</time></trkpt><trkpt lat="43.19899320445863" lon="12.259471992494934"><ele>400.0</ele><time>2026-03-29T07:47:45Z</time></trkpt><trkpt lat="43.19892355607314" lon="12.259372833157412"><ele>400.0</ele><time>2026-03-29T07:47:55Z</time></trkpt><trkpt lat="43.198896978557265" lon="12.259249938435184"><ele>400.00000000000006</ele><time>2026-03-29T07:47:57Z</time></trkpt><trkpt lat="43.19888740179996" lon="12.259132886883673"><ele>400.0</ele><time>2026-03-29T07:47:59Z</time></trkpt><trkpt lat="43.19891403319482" lon="12.259036097566476"><ele>403.33333333333337</ele><time>2026-03-29T07:48:02Z</time></trkpt><trkpt lat="43.198876741904684" lon="12.258949887344707"><ele>406.6666666666667</ele><time>2026-03-29T07:49:53Z</time></trkpt><trkpt lat="43.19889157464204" lon="12.258788628923698"><ele>410.0</ele><time>2026-03-29T07:54:33.999Z</time></trkpt><trkpt lat="43.19893840199533" lon="12.25868161333171"><ele>413.33333333333337</ele><time>2026-03-29T07:54:35.999Z</time></trkpt><trkpt lat="43.19899582048367" lon="12.258626107162423"><ele>416.6666666666667</ele><time>2026-03-29T07:55:03.999Z</time></trkpt><trkpt lat="43.19907036924141" lon="12.25858164936"><ele>420.0</ele><time>2026-03-29T07:55:08.999Z</time></trkpt><trkpt lat="43.19911818084316" lon="12.258493218379545"><ele>420.0</ele><time>2026-03-29T07:55:11.999Z</time></trkpt><trkpt lat="43.19915413207677" lon="12.258417530671181"><ele>420.0</ele><time>2026-03-29T07:55:13.999Z</time></trkpt><trkpt lat="43.19922561023511" lon="12.258412213106643"><ele>420.0</ele><time>2026-03-29T07:55:47Z</time></trkpt><trkpt lat="43.19927887513558" lon="12.258350581621395"><ele>420.0</ele><time>2026-03-29T07:55:49Z</time></trkpt><trkpt lat="43.1993449366214" lon="12.258267240320695"><ele>420.0</ele><time>2026-03-29T07:55:52Z</time></trkpt><trkpt lat="43.199374703163016" lon="12.258184189728698"><ele>420.0</ele><time>2026-03-29T07:55:55Z</time></trkpt><trkpt lat="43.19944626889526" lon="12.258171044926874"><ele>420.0</ele><time>2026-03-29T07:56:04Z</time></trkpt><trkpt lat="43.19948725646017" lon="12.258082996189472"><ele>423.3333333333333</ele><time>2026-03-29T07:56:06Z</time></trkpt><trkpt lat="43.19945140544114" lon="12.257983528226282"><ele>426.66666666666663</ele><time>2026-03-29T07:56:08Z</time></trkpt><trkpt lat="43.19944812860257" lon="12.257871036088567"><ele>430.0</ele><time>2026-03-29T07:56:10Z</time></trkpt><trkpt lat="43.199458523859185" lon="12.257752529276868"><ele>433.3333333333333</ele><time>2026-03-29T07:56:12Z</time></trkpt><trkpt lat="43.19945798402543" lon="12.257629017436999"><ele>436.66666666666663</ele><time>2026-03-29T07:56:15Z</time></trkpt><trkpt lat="43.1994231780556" lon="12.257548384150342"><ele>440.0</ele><time>2026-03-29T07:56:17Z</time></trkpt><trkpt lat="43.1993947569476" lon="12.257463708751784"><ele>439.99999999999994</ele><time>2026-03-29T07:56:22Z</time></trkpt><trkpt lat="43.199395896742125" lon="12.257340472351746"><ele>440.0</ele><time>2026-03-29T07:56:24Z</time></trkpt><trkpt lat="43.1993662827183" lon="12.257244961134102"><ele>440.0</ele><time>2026-03-29T07:56:25.999Z</time></trkpt><trkpt lat="43.199291654898346" lon="12.257162102759532"><ele>440.0</ele><time>2026-03-29T07:56:27.999Z</time></trkpt><trkpt lat="43.19921495713465" lon="12.257137702476612"><ele>439.99999999999994</ele><time>2026-03-29T07:56:30.999Z</time></trkpt><trkpt lat="43.199250219075424" lon="12.257061155244333"><ele>440.0</ele><time>2026-03-29T07:56:38.999Z</time></trkpt><trkpt lat="43.19935910548802" lon="12.257061833925313"><ele>444.66666666666663</ele><time>2026-03-29T07:57:20.999Z</time></trkpt><trkpt lat="43.199429430595615" lon="12.257055667439941"><ele>449.3333333333333</ele><time>2026-03-29T07:57:21.999Z</time></trkpt><trkpt lat="43.19949345906214" lon="12.257072681014266"><ele>454.0</ele><time>2026-03-29T07:57:22.999Z</time></trkpt><trkpt lat="43.199613829759926" lon="12.25711220018557"><ele>458.66666666666663</ele><time>2026-03-29T07:57:24.999Z</time></trkpt><trkpt lat="43.19968112695818" lon="12.257097246669684"><ele>463.3333333333333</ele><time>2026-03-29T07:57:25.999Z</time></trkpt><trkpt lat="43.19980114778424" lon="12.257076562449209"><ele>468.0</ele><time>2026-03-29T07:57:27.998Z</time></trkpt><trkpt lat="43.19986868343188" lon="12.257072801127704"><ele>468.0</ele><time>2026-03-29T07:57:28.998Z</time></trkpt><trkpt lat="43.199937530253884" lon="12.257075297014996"><ele>468.0</ele><time>2026-03-29T07:57:29.998Z</time></trkpt><trkpt lat="43.200009724298816" lon="12.257096061774842"><ele>468.0</ele><time>2026-03-29T07:57:30.998Z</time></trkpt><trkpt lat="43.200079698544656" lon="12.257142607565063"><ele>468.0</ele><time>2026-03-29T07:57:31.998Z</time></trkpt><trkpt lat="43.200148604106516" lon="12.257204634423658"><ele>468.0</ele><time>2026-03-29T07:57:32.998Z</time></trkpt><trkpt lat="43.200212286285506" lon="12.257255847605288"><ele>468.0</ele><time>2026-03-29T07:57:33.998Z</time></trkpt><trkpt lat="43.200288604619374" lon="12.25729678511139"><ele>466.14285714285717</ele><time>2026-03-29T07:57:34.998Z</time></trkpt><trkpt lat="43.200372836864766" lon="12.257321706612942"><ele>464.28571428571433</ele><time>2026-03-29T07:57:35.998Z</time></trkpt><trkpt lat="43.20043624656978" lon="12.257351841257087"><ele>462.42857142857144</ele><time>2026-03-29T07:57:36.998Z</time></trkpt><trkpt lat="43.200504843395855" lon="12.257362986675012"><ele>460.57142857142856</ele><time>2026-03-29T07:57:37.998Z</time></trkpt><trkpt lat="43.20057574940228" lon="12.257348607186419"><ele>458.7142857142857</ele><time>2026-03-29T07:57:38.998Z</time></trkpt><trkpt lat="43.20065259506036" lon="12.2573277565737"><ele>456.8571428571429</ele><time>2026-03-29T07:57:39.998Z</time></trkpt><trkpt lat="43.200721820732035" lon="12.257294165078617"><ele>455.0</ele><time>2026-03-29T07:57:40.998Z</time></trkpt><trkpt lat="43.200793750990776" lon="12.257255943140644"><ele>455.0</ele><time>2026-03-29T07:57:41.998Z</time></trkpt><trkpt lat="43.20086854697743" lon="12.2572097246851"><ele>455.0</ele><time>2026-03-29T07:57:42.998Z</time></trkpt><trkpt lat="43.20092903462759" lon="12.257162591209497"><ele>455.0</ele><time>2026-03-29T07:57:43.998Z</time></trkpt><trkpt lat="43.20097905173205" lon="12.257105028808011"><ele>455.0</ele><time>2026-03-29T07:57:45Z</time></trkpt><trkpt lat="43.201045386087124" lon="12.257065889823858"><ele>455.0</ele><time>2026-03-29T07:57:46Z</time></trkpt><trkpt lat="43.201107014339186" lon="12.25703273489911"><ele>455.0</ele><time>2026-03-29T07:57:47Z</time></trkpt><trkpt lat="43.2011769043354" lon="12.256955684128574"><ele>455.0</ele><time>2026-03-29T07:57:52Z</time></trkpt><trkpt lat="43.20121177929524" lon="12.256874309037142"><ele>454.99999999999994</ele><time>2026-03-29T07:57:53Z</time></trkpt><trkpt lat="43.20123895913077" lon="12.256774106329928"><ele>455.0</ele><time>2026-03-29T07:57:54Z</time></trkpt><trkpt lat="43.20126664475018" lon="12.256670622470866"><ele>455.0</ele><time>2026-03-29T07:57:55Z</time></trkpt><trkpt lat="43.201310532802204" lon="12.256595067017965"><ele>455.0</ele><time>2026-03-29T07:57:56Z</time></trkpt><trkpt lat="43.201357494597865" lon="12.256532948248624"><ele>454.99999999999994</ele><time>2026-03-29T07:57:57Z</time></trkpt><trkpt lat="43.2014227398812" lon="12.256519400688491"><ele>455.0</ele><time>2026-03-29T07:57:59Z</time></trkpt><trkpt lat="43.20154233969238" lon="12.256493933096824"><ele>451.25</ele><time>2026-03-29T07:58:02Z</time></trkpt><trkpt lat="43.201636954580806" lon="12.25649175482967"><ele>447.5</ele><time>2026-03-29T07:58:04Z</time></trkpt><trkpt lat="43.20171835476509" lon="12.256516853318187"><ele>443.75</ele><time>2026-03-29T07:58:06Z</time></trkpt><trkpt lat="43.201966975470754" lon="12.25664420467743"><ele>440.0</ele><time>2026-03-29T07:58:09Z</time></trkpt><trkpt lat="43.20209509374438" lon="12.256646511389219"><ele>439.99999999999994</ele><time>2026-03-29T07:58:11Z</time></trkpt><trkpt lat="43.20219646472603" lon="12.256628134343035"><ele>440.0</ele><time>2026-03-29T07:58:13Z</time></trkpt><trkpt lat="43.20228183388736" lon="12.256614580575238"><ele>440.0</ele><time>2026-03-29T07:58:16Z</time></trkpt><trkpt lat="43.20234304980857" lon="12.25666422361045"><ele>440.0</ele><time>2026-03-29T07:58:19Z</time></trkpt><trkpt lat="43.20235040265999" lon="12.256751713540089"><ele>439.99999999999994</ele><time>2026-03-29T07:58:21Z</time></trkpt><trkpt lat="43.202335752680305" lon="12.256845276981945"><ele>440.0</ele><time>2026-03-29T07:58:23Z</time></trkpt><trkpt lat="43.202323764301966" lon="12.2569547510194"><ele>439.99999999999994</ele><time>2026-03-29T07:58:26Z</time></trkpt><trkpt lat="43.20232242073164" lon="12.25706221148358"><ele>440.0</ele><time>2026-03-29T07:58:29Z</time></trkpt><trkpt lat="43.20239359647139" lon="12.257032709136002"><ele>440.0</ele><time>2026-03-29T07:58:32.999Z</time></trkpt><trkpt lat="43.20245540210875" lon="12.25696811395244"><ele>440.0</ele><time>2026-03-29T07:58:34.999Z</time></trkpt><trkpt lat="43.20250524870796" lon="12.256883763405412"><ele>440.0</ele><time>2026-03-29T07:58:37.999Z</time></trkpt><trkpt lat="43.20253047988082" lon="12.25679758748244"><ele>439.99999999999994</ele><time>2026-03-29T07:58:40.999Z</time></trkpt><trkpt lat="43.20254829938678" lon="12.25671055112407"><ele>440.0</ele><time>2026-03-29T07:58:42.999Z</time></trkpt><trkpt lat="43.20259304892504" lon="12.256614072195921"><ele>438.66666666666663</ele><time>2026-03-29T07:58:45.999Z</time></trkpt><trkpt lat="43.20266425300723" lon="12.256575571696631"><ele>437.3333333333333</ele><time>2026-03-29T07:58:48.999Z</time></trkpt><trkpt lat="43.2027375804889" lon="12.25654746100011"><ele>436.0</ele><time>2026-03-29T07:58:51.999Z</time></trkpt><trkpt lat="43.20280361166211" lon="12.256480951614403"><ele>434.66666666666663</ele><time>2026-03-29T07:58:53.999Z</time></trkpt><trkpt lat="43.20290121022934" lon="12.256491515969088"><ele>433.3333333333333</ele><time>2026-03-29T07:58:56.999Z</time></trkpt><trkpt lat="43.2028804202759" lon="12.25660033204568"><ele>432.0</ele><time>2026-03-29T07:58:59.999Z</time></trkpt><trkpt lat="43.20285891306049" lon="12.256701315205335"><ele>432.0</ele><time>2026-03-29T07:59:03.999Z</time></trkpt><trkpt lat="43.202851731283566" lon="12.256790765466198"><ele>432.0</ele><time>2026-03-29T07:59:05.999Z</time></trkpt><trkpt lat="43.20290239522643" lon="12.257151352941586"><ele>432.0</ele><time>2026-03-29T07:59:08.999Z</time></trkpt><trkpt lat="43.20290343294736" lon="12.25725447730698"><ele>432.0</ele><time>2026-03-29T07:59:09.999Z</time></trkpt><trkpt lat="43.202907283274044" lon="12.257364231226699"><ele>430.8333333333333</ele><time>2026-03-29T07:59:10.999Z</time></trkpt><trkpt lat="43.20291398551307" lon="12.257470013445957"><ele>429.66666666666663</ele><time>2026-03-29T07:59:11.999Z</time></trkpt><trkpt lat="43.202935566310096" lon="12.257568207886933"><ele>428.5</ele><time>2026-03-29T07:59:12.999Z</time></trkpt><trkpt lat="43.20297958752779" lon="12.257637954748338"><ele>427.3333333333333</ele><time>2026-03-29T07:59:13.999Z</time></trkpt><trkpt lat="43.20306101812882" lon="12.25776422132606"><ele>426.16666666666663</ele><time>2026-03-29T07:59:15.999Z</time></trkpt><trkpt lat="43.20310727267992" lon="12.257833493869983"><ele>425.0</ele><time>2026-03-29T07:59:16.999Z</time></trkpt><trkpt lat="43.2031467837532" lon="12.257952620479463"><ele>424.99999999999994</ele><time>2026-03-29T07:59:18.999Z</time></trkpt><trkpt lat="43.20311352589717" lon="12.257873156165191"><ele>425.0</ele><time>2026-03-29T07:59:22.999Z</time></trkpt><trkpt lat="43.203098484247626" lon="12.25797352773724"><ele>425.0</ele><time>2026-03-29T07:59:32.999Z</time></trkpt><trkpt lat="43.20316034598368" lon="12.25806403092011"><ele>425.0</ele><time>2026-03-29T07:59:34.998Z</time></trkpt><trkpt lat="43.203181522196886" lon="12.258180937332373"><ele>424.99999999999994</ele><time>2026-03-29T07:59:36.998Z</time></trkpt><trkpt lat="43.20318756584098" lon="12.2583366848054"><ele>425.0</ele><time>2026-03-29T07:59:38.998Z</time></trkpt><trkpt lat="43.20320137977292" lon="12.258432024595603"><ele>424.8333333333333</ele><time>2026-03-29T07:59:39.998Z</time></trkpt><trkpt lat="43.2032121709764" lon="12.258533989902494"><ele>424.66666666666663</ele><time>2026-03-29T07:59:40.998Z</time></trkpt><trkpt lat="43.2032100605448" lon="12.258625746269557"><ele>424.5</ele><time>2026-03-29T07:59:41.998Z</time></trkpt><trkpt lat="43.20321254112871" lon="12.25878782332305"><ele>424.33333333333337</ele><time>2026-03-29T07:59:43.998Z</time></trkpt><trkpt lat="43.203151571326195" lon="12.258850612554681"><ele>424.1666666666667</ele><time>2026-03-29T07:59:46.998Z</time></trkpt><trkpt lat="43.20308053350372" lon="12.258890191343031"><ele>424.0</ele><time>2026-03-29T07:59:48.998Z</time></trkpt><trkpt lat="43.20309800154476" lon="12.25897859652155"><ele>427.7142857142857</ele><time>2026-03-29T07:59:51Z</time></trkpt><trkpt lat="43.20316748890545" lon="12.258989484851703"><ele>431.42857142857144</ele><time>2026-03-29T07:59:53Z</time></trkpt><trkpt lat="43.203232909555226" lon="12.259008454320316"><ele>435.14285714285717</ele><time>2026-03-29T08:00:38.999Z</time></trkpt><trkpt lat="43.203295244826364" lon="12.25905443313247"><ele>438.8571428571429</ele><time>2026-03-29T08:00:41.999Z</time></trkpt><trkpt lat="43.20327041292727" lon="12.259155661930452"><ele>442.57142857142856</ele><time>2026-03-29T08:00:43.999Z</time></trkpt><trkpt lat="43.20320248574665" lon="12.259154788210278"><ele>446.28571428571433</ele><time>2026-03-29T08:06:07.998Z</time></trkpt><trkpt lat="43.20312747740952" lon="12.259148133969264"><ele>450.00000000000006</ele><time>2026-03-29T08:06:11Z</time></trkpt><trkpt lat="43.203028252227426" lon="12.259214302582379"><ele>450.0</ele><time>2026-03-29T08:06:13Z</time></trkpt><trkpt lat="43.20298097803142" lon="12.259277941736894"><ele>450.0</ele><time>2026-03-29T08:06:14Z</time></trkpt><trkpt lat="43.202899372320935" lon="12.259347899846217"><ele>450.0</ele><time>2026-03-29T08:06:16Z</time></trkpt><trkpt lat="43.202746842256026" lon="12.259389776034938"><ele>450.0</ele><time>2026-03-29T08:06:18Z</time></trkpt><trkpt lat="43.20266044374039" lon="12.259401975129059"><ele>450.0</ele><time>2026-03-29T08:06:19Z</time></trkpt><trkpt lat="43.2025880088449" lon="12.25946654787237"><ele>450.0</ele><time>2026-03-29T08:06:21Z</time></trkpt><trkpt lat="43.20251792950649" lon="12.259588483907551"><ele>450.0</ele><time>2026-03-29T08:06:23Z</time></trkpt><trkpt lat="43.202473696602894" lon="12.259651647367363"><ele>450.0</ele><time>2026-03-29T08:06:24Z</time></trkpt><trkpt lat="43.20240768858087" lon="12.259666877435636"><ele>450.0</ele><time>2026-03-29T08:06:26Z</time></trkpt><trkpt lat="43.20231087187092" lon="12.259758150832171"><ele>450.0</ele><time>2026-03-29T08:06:28Z</time></trkpt><trkpt lat="43.20221036548537" lon="12.25985815642915"><ele>451.5</ele><time>2026-03-29T08:06:30Z</time></trkpt><trkpt lat="43.2021461261305" lon="12.259873900747985"><ele>453.0</ele><time>2026-03-29T08:06:31Z</time></trkpt><trkpt lat="43.202093038098006" lon="12.259952013458255"><ele>454.5</ele><time>2026-03-29T08:06:33Z</time></trkpt><trkpt lat="43.20204846950017" lon="12.260058904219589"><ele>456.0</ele><time>2026-03-29T08:06:35Z</time></trkpt><trkpt lat="43.20205332492215" lon="12.260166121072041"><ele>457.5</ele><time>2026-03-29T08:06:37Z</time></trkpt><trkpt lat="43.202153798928705" lon="12.260188466502344"><ele>459.0</ele><time>2026-03-29T08:06:39Z</time></trkpt><trkpt lat="43.20229574119307" lon="12.260138074032021"><ele>466.0</ele><time>2026-03-29T08:06:41Z</time></trkpt><trkpt lat="43.2023862623153" lon="12.260176625751306"><ele>473.0</ele><time>2026-03-29T08:06:45Z</time></trkpt><trkpt lat="43.20244364533915" lon="12.260220366198052"><ele>480.0</ele><time>2026-03-29T08:06:47Z</time></trkpt><trkpt lat="43.202760643909336" lon="12.260353182762422"><ele>480.0</ele><time>2026-03-29T08:06:50Z</time></trkpt><trkpt lat="43.20283556879331" lon="12.260429872063705"><ele>480.0</ele><time>2026-03-29T08:06:51.999Z</time></trkpt><trkpt lat="43.20291409891498" lon="12.260525982770655"><ele>480.0</ele><time>2026-03-29T08:06:53.999Z</time></trkpt><trkpt lat="43.202974755420065" lon="12.2606200122859"><ele>480.0</ele><time>2026-03-29T08:06:55.999Z</time></trkpt><trkpt lat="43.20303086526568" lon="12.260724696138835"><ele>480.0</ele><time>2026-03-29T08:06:57.999Z</time></trkpt><trkpt lat="43.20308702142971" lon="12.260824450874576"><ele>481.8</ele><time>2026-03-29T08:06:59.999Z</time></trkpt><trkpt lat="43.20314954571585" lon="12.260905331608042"><ele>483.6</ele><time>2026-03-29T08:07:01.999Z</time></trkpt><trkpt lat="43.203227294291814" lon="12.26098606949123"><ele>485.4</ele><time>2026-03-29T08:07:03.999Z</time></trkpt><trkpt lat="43.2033349792101" lon="12.261054548102265"><ele>487.2</ele><time>2026-03-29T08:07:05.999Z</time></trkpt><trkpt lat="43.20340288718208" lon="12.261083019965811"><ele>489.0</ele><time>2026-03-29T08:07:06.999Z</time></trkpt><trkpt lat="43.2033300133954" lon="12.261044565539372"><ele>492.1666666666667</ele><time>2026-03-29T08:07:07.999Z</time></trkpt><trkpt lat="43.20341607909315" lon="12.26111105319579"><ele>495.33333333333337</ele><time>2026-03-29T08:07:09.999Z</time></trkpt><trkpt lat="43.20350611392007" lon="12.261110793290495"><ele>498.5</ele><time>2026-03-29T08:07:11.999Z</time></trkpt><trkpt lat="43.20359260251852" lon="12.261139373502578"><ele>501.6666666666667</ele><time>2026-03-29T08:07:13.999Z</time></trkpt><trkpt lat="43.20366918252168" lon="12.261167906960422"><ele>504.83333333333337</ele><time>2026-03-29T08:07:16.999Z</time></trkpt><trkpt lat="43.203716914727984" lon="12.26122943705039"><ele>508.0</ele><time>2026-03-29T08:07:18.999Z</time></trkpt><trkpt lat="43.20392833972453" lon="12.26140340802718"><ele>506.2</ele><time>2026-03-29T08:07:19.999Z</time></trkpt><trkpt lat="43.20396814587462" lon="12.26152808362098"><ele>504.4</ele><time>2026-03-29T08:07:21.999Z</time></trkpt><trkpt lat="43.204024214053526" lon="12.26164613484442"><ele>502.59999999999997</ele><time>2026-03-29T08:07:23.999Z</time></trkpt><trkpt lat="43.204102866852935" lon="12.261746108846834"><ele>500.79999999999995</ele><time>2026-03-29T08:07:25.999Z</time></trkpt><trkpt lat="43.20418463492331" lon="12.261833178183638"><ele>499.0</ele><time>2026-03-29T08:07:27.999Z</time></trkpt><trkpt lat="43.2042733067639" lon="12.261918115755051"><ele>502.79999999999995</ele><time>2026-03-29T08:07:29.999Z</time></trkpt><trkpt lat="43.20436639788605" lon="12.2619718748615"><ele>506.59999999999997</ele><time>2026-03-29T08:07:31.999Z</time></trkpt><trkpt lat="43.20448075629008" lon="12.26201770352775"><ele>510.4</ele><time>2026-03-29T08:07:33.999Z</time></trkpt><trkpt lat="43.20454389310967" lon="12.262028744080098"><ele>514.1999999999999</ele><time>2026-03-29T08:07:34.999Z</time></trkpt><trkpt lat="43.204663594697905" lon="12.262058446248892"><ele>518.0</ele><time>2026-03-29T08:07:36.999Z</time></trkpt><trkpt lat="43.2046826789557" lon="12.262141909702178"><ele>518.0</ele><time>2026-03-29T08:07:40.999Z</time></trkpt><trkpt lat="43.20471917143957" lon="12.262235767944855"><ele>518.0</ele><time>2026-03-29T08:07:42.999Z</time></trkpt><trkpt lat="43.20478814441931" lon="12.262358036788674"><ele>518.0</ele><time>2026-03-29T08:07:44.999Z</time></trkpt><trkpt lat="43.204850452585035" lon="12.26240336332591"><ele>518.0</ele><time>2026-03-29T08:07:46.999Z</time></trkpt><trkpt lat="43.20490602111697" lon="12.26244567887812"><ele>518.0</ele><time>2026-03-29T08:07:48.999Z</time></trkpt><trkpt lat="43.204966755271705" lon="12.262498017059794"><ele>518.0</ele><time>2026-03-29T08:07:49.999Z</time></trkpt><trkpt lat="43.20524076841126" lon="12.262589771717675"><ele>520.1999999999999</ele><time>2026-03-29T08:07:52.999Z</time></trkpt><trkpt lat="43.20534634517236" lon="12.262627583925724"><ele>522.4</ele><time>2026-03-29T08:07:54.999Z</time></trkpt><trkpt lat="43.20538933989832" lon="12.262694610240915"><ele>524.5999999999999</ele><time>2026-03-29T08:07:57.998Z</time></trkpt><trkpt lat="43.20526764415953" lon="12.262631494190341"><ele>526.8</ele><time>2026-03-29T08:08:10.998Z</time></trkpt><trkpt lat="43.20535242374695" lon="12.262663955924566"><ele>529.0</ele><time>2026-03-29T08:08:31Z</time></trkpt><trkpt lat="43.20542604854362" lon="12.262732913741013"><ele>529.0</ele><time>2026-03-29T08:08:33Z</time></trkpt><trkpt lat="43.20547174186904" lon="12.262842223067237"><ele>529.0</ele><time>2026-03-29T08:08:35Z</time></trkpt><trkpt lat="43.205520337555626" lon="12.262978325431037"><ele>529.0</ele><time>2026-03-29T08:08:37Z</time></trkpt><trkpt lat="43.20559605184638" lon="12.26307949917901"><ele>529.0</ele><time>2026-03-29T08:08:39Z</time></trkpt><trkpt lat="43.20568549700736" lon="12.263190187534391"><ele>529.0</ele><time>2026-03-29T08:08:41Z</time></trkpt><trkpt lat="43.20574607639827" lon="12.26326054775719"><ele>530.8333333333334</ele><time>2026-03-29T08:08:43Z</time></trkpt><trkpt lat="43.205776179758516" lon="12.263159067225946"><ele>532.6666666666667</ele><time>2026-03-29T08:08:53.999Z</time></trkpt><trkpt lat="43.205790949796736" lon="12.263074079508856"><ele>534.5</ele><time>2026-03-29T08:10:06.998Z</time></trkpt><trkpt lat="43.205777505562395" lon="12.263159572816837"><ele>536.3333333333334</ele><time>2026-03-29T08:10:09.998Z</time></trkpt><trkpt lat="43.205753227039885" lon="12.263277664749536"><ele>538.1666666666666</ele><time>2026-03-29T08:14:56Z</time></trkpt><trkpt lat="43.20587034375234" lon="12.26337436706008"><ele>540.0</ele><time>2026-03-29T08:14:58Z</time></trkpt><trkpt lat="43.20596989771399" lon="12.263433079376599"><ele>540.2</ele><time>2026-03-29T08:14:59Z</time></trkpt><trkpt lat="43.20608554808983" lon="12.263522926501846"><ele>540.4</ele><time>2026-03-29T08:15:00Z</time></trkpt><trkpt lat="43.20613323119621" lon="12.263630423034078"><ele>540.6</ele><time>2026-03-29T08:15:01Z</time></trkpt><trkpt lat="43.206219035079116" lon="12.263638952443007"><ele>540.8</ele><time>2026-03-29T08:15:03Z</time></trkpt><trkpt lat="43.20627463324233" lon="12.263745539797794"><ele>541.0</ele><time>2026-03-29T08:15:05Z</time></trkpt><trkpt lat="43.20633240184252" lon="12.263836344816266"><ele>541.0</ele><time>2026-03-29T08:15:06Z</time></trkpt><trkpt lat="43.20639778445746" lon="12.263908844595736"><ele>541.0</ele><time>2026-03-29T08:15:07Z</time></trkpt><trkpt lat="43.20646411775018" lon="12.26401716853175"><ele>541.0</ele><time>2026-03-29T08:15:08Z</time></trkpt><trkpt lat="43.20651968835076" lon="12.26411383486853"><ele>541.0</ele><time>2026-03-29T08:15:09Z</time></trkpt><trkpt lat="43.20656181899857" lon="12.26420983156166"><ele>541.0</ele><time>2026-03-29T08:15:10Z</time></trkpt><trkpt lat="43.2065877313267" lon="12.264324172926026"><ele>541.0</ele><time>2026-03-29T08:15:11Z</time></trkpt><trkpt lat="43.20659036979401" lon="12.26444487334144"><ele>542.6</ele><time>2026-03-29T08:15:12Z</time></trkpt><trkpt lat="43.20657898720044" lon="12.264556373242076"><ele>544.2</ele><time>2026-03-29T08:15:13Z</time></trkpt><trkpt lat="43.20654744709445" lon="12.264650230079322"><ele>545.8</ele><time>2026-03-29T08:15:14Z</time></trkpt><trkpt lat="43.20647845297924" lon="12.264782020397716"><ele>547.4</ele><time>2026-03-29T08:15:16Z</time></trkpt><trkpt lat="43.20640665897897" lon="12.264851593067855"><ele>549.0</ele><time>2026-03-29T08:15:18Z</time></trkpt><trkpt lat="43.20648753354908" lon="12.264987113220275"><ele>547.2</ele><time>2026-03-29T08:15:18.999Z</time></trkpt><trkpt lat="43.20654277605325" lon="12.265054775121287"><ele>545.4</ele><time>2026-03-29T08:15:21.999Z</time></trkpt><trkpt lat="43.20663316510066" lon="12.265091304969078"><ele>543.6</ele><time>2026-03-29T08:15:30.999Z</time></trkpt><trkpt lat="43.20671387467903" lon="12.26511742791782"><ele>541.8</ele><time>2026-03-29T08:15:31.999Z</time></trkpt><trkpt lat="43.20681838219981" lon="12.265126242181326"><ele>540.0</ele><time>2026-03-29T08:15:32.999Z</time></trkpt><trkpt lat="43.206928727042495" lon="12.26510622500761"><ele>540.0</ele><time>2026-03-29T08:15:33.999Z</time></trkpt><trkpt lat="43.207048997061854" lon="12.265055005861468"><ele>540.0</ele><time>2026-03-29T08:15:34.999Z</time></trkpt><trkpt lat="43.207159322642525" lon="12.264975213053596"><ele>540.0</ele><time>2026-03-29T08:15:35.999Z</time></trkpt><trkpt lat="43.20725442348326" lon="12.264907088152095"><ele>540.0</ele><time>2026-03-29T08:15:36.999Z</time></trkpt><trkpt lat="43.207336067903775" lon="12.264800253860473"><ele>543.0</ele><time>2026-03-29T08:15:37.999Z</time></trkpt><trkpt lat="43.20741419590825" lon="12.264695052835384"><ele>546.0</ele><time>2026-03-29T08:15:38.999Z</time></trkpt><trkpt lat="43.20749585849894" lon="12.264622074056616"><ele>549.0</ele><time>2026-03-29T08:15:39.999Z</time></trkpt><trkpt lat="43.207597359575125" lon="12.264604832756598"><ele>552.0</ele><time>2026-03-29T08:15:40.999Z</time></trkpt><trkpt lat="43.20772542558814" lon="12.264584143797101"><ele>555.0</ele><time>2026-03-29T08:15:41.999Z</time></trkpt><trkpt lat="43.20786068451449" lon="12.264532543215964"><ele>555.0</ele><time>2026-03-29T08:15:42.999Z</time></trkpt><trkpt lat="43.207990380043846" lon="12.264434544054756"><ele>555.0</ele><time>2026-03-29T08:15:43.999Z</time></trkpt><trkpt lat="43.20812416490949" lon="12.264367028387284"><ele>555.0</ele><time>2026-03-29T08:15:44.999Z</time></trkpt><trkpt lat="43.208263488684366" lon="12.264314944656752"><ele>555.0</ele><time>2026-03-29T08:15:45.999Z</time></trkpt><trkpt lat="43.20841134872942" lon="12.264337091621849"><ele>551.3333333333334</ele><time>2026-03-29T08:15:46.999Z</time></trkpt><trkpt lat="43.20856709249133" lon="12.264339233680618"><ele>547.6666666666667</ele><time>2026-03-29T08:15:47.999Z</time></trkpt><trkpt lat="43.208723290118755" lon="12.26432152030354"><ele>544.0</ele><time>2026-03-29T08:15:48.999Z</time></trkpt><trkpt lat="43.20887905495124" lon="12.264325760360215"><ele>546.6666666666667</ele><time>2026-03-29T08:15:49.999Z</time></trkpt><trkpt lat="43.209039673359605" lon="12.264327787839328"><ele>549.3333333333334</ele><time>2026-03-29T08:15:50.999Z</time></trkpt><trkpt lat="43.2092019453307" lon="12.264331874296534"><ele>552.0</ele><time>2026-03-29T08:15:51.999Z</time></trkpt><trkpt lat="43.209361818908114" lon="12.264334438038837"><ele>552.0</ele><time>2026-03-29T08:15:52.999Z</time></trkpt><trkpt lat="43.20952166697092" lon="12.264337545607182"><ele>552.0</ele><time>2026-03-29T08:15:53.999Z</time></trkpt><trkpt lat="43.20965971695779" lon="12.264341064454323"><ele>552.0</ele><time>2026-03-29T08:15:54.999Z</time></trkpt><trkpt lat="43.20977613614215" lon="12.264343414636185"><ele>552.0</ele><time>2026-03-29T08:15:55.999Z</time></trkpt><trkpt lat="43.20985755471346" lon="12.264352324153942"><ele>552.5</ele><time>2026-03-29T08:15:56.999Z</time></trkpt><trkpt lat="43.20992238949006" lon="12.264395820398937"><ele>553.0</ele><time>2026-03-29T08:15:57.999Z</time></trkpt><trkpt lat="43.20998470728826" lon="12.264483708570726"><ele>553.5</ele><time>2026-03-29T08:15:58.999Z</time></trkpt><trkpt lat="43.21004768573756" lon="12.264598185964644"><ele>554.0</ele><time>2026-03-29T08:15:59.999Z</time></trkpt><trkpt lat="43.210094882702464" lon="12.264703753082362"><ele>554.5</ele><time>2026-03-29T08:16:00.999Z</time></trkpt><trkpt lat="43.21012552963525" lon="12.26479051277522"><ele>555.0</ele><time>2026-03-29T08:16:02.999Z</time></trkpt><trkpt lat="43.21034231075981" lon="12.264749731092502"><ele>555.0</ele><time>2026-03-29T08:16:06.999Z</time></trkpt><trkpt lat="43.21040816219685" lon="12.264754745625853"><ele>555.0</ele><time>2026-03-29T08:16:07.999Z</time></trkpt><trkpt lat="43.210529085510125" lon="12.264748445437172"><ele>555.0</ele><time>2026-03-29T08:16:09.999Z</time></trkpt><trkpt lat="43.21064068496849" lon="12.26475425484197"><ele>555.0</ele><time>2026-03-29T08:16:11.999Z</time></trkpt><trkpt lat="43.21070437491492" lon="12.26476392393712"><ele>555.0</ele><time>2026-03-29T08:16:12.999Z</time></trkpt><trkpt lat="43.21081027685587" lon="12.264807664825941"><ele>555.8333333333334</ele><time>2026-03-29T08:16:14.999Z</time></trkpt><trkpt lat="43.210890782047436" lon="12.264844180521496"><ele>556.6666666666666</ele><time>2026-03-29T08:16:16.999Z</time></trkpt><trkpt lat="43.21098786311223" lon="12.264845194986027"><ele>557.5</ele><time>2026-03-29T08:16:18.999Z</time></trkpt><trkpt lat="43.211087436719836" lon="12.264860296471783"><ele>558.3333333333333</ele><time>2026-03-29T08:16:20.999Z</time></trkpt><trkpt lat="43.21117424055185" lon="12.26485954011435"><ele>559.1666666666666</ele><time>2026-03-29T08:16:22.999Z</time></trkpt><trkpt lat="43.2112433008152" lon="12.264818203239706"><ele>560.0</ele><time>2026-03-29T08:16:24.999Z</time></trkpt><trkpt lat="43.21129746046009" lon="12.26472044370951"><ele>560.0</ele><time>2026-03-29T08:16:26.998Z</time></trkpt><trkpt lat="43.211347969054465" lon="12.264586047135873"><ele>560.0</ele><time>2026-03-29T08:16:28.998Z</time></trkpt><trkpt lat="43.21141582697482" lon="12.264500781051394"><ele>560.0</ele><time>2026-03-29T08:16:30.998Z</time></trkpt><trkpt lat="43.21151281728528" lon="12.26446824006726"><ele>560.0</ele><time>2026-03-29T08:16:32.998Z</time></trkpt><trkpt lat="43.211594575221646" lon="12.264505353287603"><ele>560.0</ele><time>2026-03-29T08:16:34.998Z</time></trkpt><trkpt lat="43.21167132698235" lon="12.264566883078528"><ele>559.4</ele><time>2026-03-29T08:16:38Z</time></trkpt><trkpt lat="43.21173498497339" lon="12.264599798796171"><ele>558.8</ele><time>2026-03-29T08:16:40Z</time></trkpt><trkpt lat="43.21183166992284" lon="12.264644268135136"><ele>558.2</ele><time>2026-03-29T08:16:42Z</time></trkpt><trkpt lat="43.211921348687824" lon="12.264635449068987"><ele>557.6</ele><time>2026-03-29T08:16:44Z</time></trkpt><trkpt lat="43.21201544875969" lon="12.26463173139939"><ele>557.0</ele><time>2026-03-29T08:16:46Z</time></trkpt><trkpt lat="43.212125328070094" lon="12.264635392969327"><ele>557.0</ele><time>2026-03-29T08:16:49Z</time></trkpt><trkpt lat="43.21219023794746" lon="12.264654652534775"><ele>557.0</ele><time>2026-03-29T08:16:52Z</time></trkpt><trkpt lat="43.21225544440064" lon="12.264650415591975"><ele>557.0</ele><time>2026-03-29T08:16:56Z</time></trkpt><trkpt lat="43.21239321814075" lon="12.26461469239715"><ele>557.0</ele><time>2026-03-29T08:16:58Z</time></trkpt><trkpt lat="43.21245235919521" lon="12.264583989117522"><ele>557.0</ele><time>2026-03-29T08:16:59Z</time></trkpt><trkpt lat="43.21253463286491" lon="12.264485480383883"><ele>557.0</ele><time>2026-03-29T08:17:01Z</time></trkpt><trkpt lat="43.2126215664019" lon="12.264407382911298"><ele>556.0</ele><time>2026-03-29T08:17:03Z</time></trkpt><trkpt lat="43.212696966600134" lon="12.264354920866719"><ele>555.0</ele><time>2026-03-29T08:17:04Z</time></trkpt><trkpt lat="43.21276010547608" lon="12.264322533525174"><ele>554.0</ele><time>2026-03-29T08:17:05Z</time></trkpt><trkpt lat="43.212854065434925" lon="12.26430465404347"><ele>553.0</ele><time>2026-03-29T08:17:07Z</time></trkpt><trkpt lat="43.212947225231034" lon="12.264302495235075"><ele>552.0</ele><time>2026-03-29T08:17:11Z</time></trkpt><trkpt lat="43.21305527936183" lon="12.26430370147415"><ele>551.0</ele><time>2026-03-29T08:17:13Z</time></trkpt><trkpt lat="43.213182876754495" lon="12.264351905897724"><ele>548.0</ele><time>2026-03-29T08:17:15Z</time></trkpt><trkpt lat="43.21325301337313" lon="12.264379704354658"><ele>545.0</ele><time>2026-03-29T08:17:16Z</time></trkpt><trkpt lat="43.21334340085359" lon="12.264383700092392"><ele>542.0</ele><time>2026-03-29T08:17:18Z</time></trkpt><trkpt lat="43.21341372148582" lon="12.264331827801147"><ele>539.0</ele><time>2026-03-29T08:17:20Z</time></trkpt><trkpt lat="43.21345653825646" lon="12.264236824943904"><ele>536.0</ele><time>2026-03-29T08:17:23Z</time></trkpt><trkpt lat="43.21349727862886" lon="12.264148228116788"><ele>533.0</ele><time>2026-03-29T08:17:25.999Z</time></trkpt><trkpt lat="43.213517720745365" lon="12.264002179111849"><ele>532.1999999999999</ele><time>2026-03-29T08:17:28.999Z</time></trkpt><trkpt lat="43.213495700111444" lon="12.263829640916287"><ele>531.4</ele><time>2026-03-29T08:17:30.999Z</time></trkpt><trkpt lat="43.21349694639886" lon="12.263674152520121"><ele>530.5999999999999</ele><time>2026-03-29T08:17:32.999Z</time></trkpt><trkpt lat="43.21350229736634" lon="12.263585611851683"><ele>529.8</ele><time>2026-03-29T08:17:33.999Z</time></trkpt><trkpt lat="43.2135228957868" lon="12.263449630466273"><ele>529.0</ele><time>2026-03-29T08:17:35.999Z</time></trkpt><trkpt lat="43.21352047067762" lon="12.263329590107048"><ele>529.0</ele><time>2026-03-29T08:17:38.999Z</time></trkpt><trkpt lat="43.213506374114395" lon="12.263208087596798"><ele>529.0</ele><time>2026-03-29T08:17:40.999Z</time></trkpt><trkpt lat="43.21345411917232" lon="12.26310862272765"><ele>529.0</ele><time>2026-03-29T08:17:42.999Z</time></trkpt><trkpt lat="43.21339024051365" lon="12.26301235213028"><ele>529.0</ele><time>2026-03-29T08:17:44.999Z</time></trkpt><trkpt lat="43.21336385182855" lon="12.262915106275505"><ele>529.0</ele><time>2026-03-29T08:17:47.999Z</time></trkpt><trkpt lat="43.21334476135082" lon="12.26279955394234"><ele>529.0</ele><time>2026-03-29T08:17:50.999Z</time></trkpt><trkpt lat="43.213388358301934" lon="12.262724593151475"><ele>528.5</ele><time>2026-03-29T08:17:52.999Z</time></trkpt><trkpt lat="43.213431914948444" lon="12.26265789616423"><ele>528.0</ele><time>2026-03-29T08:17:53.999Z</time></trkpt><trkpt lat="43.21347105454472" lon="12.262582972300796"><ele>527.5</ele><time>2026-03-29T08:17:56.999Z</time></trkpt><trkpt lat="43.21351145320074" lon="12.262454006079558"><ele>527.0</ele><time>2026-03-29T08:17:58.999Z</time></trkpt><trkpt lat="43.21354945290139" lon="12.26232962198685"><ele>526.5</ele><time>2026-03-29T08:18:00.999Z</time></trkpt><trkpt lat="43.21357648607059" lon="12.262244786425057"><ele>526.0</ele><time>2026-03-29T08:18:02.999Z</time></trkpt><trkpt lat="43.21361231023315" lon="12.262128145707232"><ele>527.2</ele><time>2026-03-29T08:18:04.999Z</time></trkpt><trkpt lat="43.213698488326976" lon="12.261930322795749"><ele>528.4000000000001</ele><time>2026-03-29T08:18:06.999Z</time></trkpt><trkpt lat="43.213736983539455" lon="12.261859121148163"><ele>529.6</ele><time>2026-03-29T08:18:09.999Z</time></trkpt><trkpt lat="43.2137774555908" lon="12.261772108442383"><ele>530.8000000000001</ele><time>2026-03-29T08:18:11.999Z</time></trkpt><trkpt lat="43.21380613415961" lon="12.26168927173831"><ele>532.0</ele><time>2026-03-29T08:18:12.999Z</time></trkpt><trkpt lat="43.2138387609405" lon="12.261565101167884"><ele>530.8000000000001</ele><time>2026-03-29T08:18:13.999Z</time></trkpt><trkpt lat="43.21386955719654" lon="12.261440692190481"><ele>529.6</ele><time>2026-03-29T08:18:15.999Z</time></trkpt><trkpt lat="43.21382792690065" lon="12.261333875176314"><ele>528.4000000000001</ele><time>2026-03-29T08:18:17.999Z</time></trkpt><trkpt lat="43.2137718042149" lon="12.261281901294003"><ele>527.2</ele><time>2026-03-29T08:18:18.999Z</time></trkpt><trkpt lat="43.21367797661635" lon="12.261202548078124"><ele>526.0</ele><time>2026-03-29T08:18:20.999Z</time></trkpt><trkpt lat="43.213585616687546" lon="12.26108061581331"><ele>526.0</ele><time>2026-03-29T08:18:22.999Z</time></trkpt><trkpt lat="43.2135373769136" lon="12.261017440613529"><ele>526.0</ele><time>2026-03-29T08:18:23.999Z</time></trkpt><trkpt lat="43.21345147686328" lon="12.260937633995239"><ele>526.0</ele><time>2026-03-29T08:18:26.999Z</time></trkpt><trkpt lat="43.21337807345236" lon="12.260883016025469"><ele>526.0</ele><time>2026-03-29T08:18:28.999Z</time></trkpt><trkpt lat="43.21333839134343" lon="12.260807414801922"><ele>526.0</ele><time>2026-03-29T08:18:31.998Z</time></trkpt><trkpt lat="43.21341199914497" lon="12.260743709422673"><ele>526.0</ele><time>2026-03-29T08:18:34.998Z</time></trkpt><trkpt lat="43.21347248483444" lon="12.260716930568966"><ele>526.0</ele><time>2026-03-29T08:18:36.998Z</time></trkpt><trkpt lat="43.213546919278905" lon="12.260665331476883"><ele>526.0</ele><time>2026-03-29T08:18:38.998Z</time></trkpt><trkpt lat="43.21360273510152" lon="12.260615845534142"><ele>526.0</ele><time>2026-03-29T08:18:40.998Z</time></trkpt><trkpt lat="43.21365734460646" lon="12.26054037371481"><ele>526.0</ele><time>2026-03-29T08:18:42.998Z</time></trkpt><trkpt lat="43.21374838717204" lon="12.260484478412897"><ele>526.0</ele><time>2026-03-29T08:18:45Z</time></trkpt><trkpt lat="43.213861893098155" lon="12.260357805466876"><ele>528.5</ele><time>2026-03-29T08:18:46Z</time></trkpt><trkpt lat="43.21395455881754" lon="12.260288540191498"><ele>531.0</ele><time>2026-03-29T08:18:48Z</time></trkpt><trkpt lat="43.21388024040553" lon="12.26024954702951"><ele>533.5</ele><time>2026-03-29T08:19:41.999Z</time></trkpt><trkpt lat="43.21382785087658" lon="12.260165883104039"><ele>536.0</ele><time>2026-03-29T08:19:43.999Z</time></trkpt><trkpt lat="43.21375415057215" lon="12.260100449444174"><ele>538.5</ele><time>2026-03-29T08:19:45.999Z</time></trkpt><trkpt lat="43.213685941002836" lon="12.260047335724584"><ele>541.0</ele><time>2026-03-29T08:19:49.999Z</time></trkpt><trkpt lat="43.213613464858376" lon="12.260064821939832"><ele>541.0</ele><time>2026-03-29T08:19:51.999Z</time></trkpt><trkpt lat="43.213512179931534" lon="12.260050488356786"><ele>541.0</ele><time>2026-03-29T08:19:54.999Z</time></trkpt><trkpt lat="43.21344429985575" lon="12.260040266685577"><ele>541.0</ele><time>2026-03-29T08:19:57.999Z</time></trkpt><trkpt lat="43.21336311521296" lon="12.26001914364073"><ele>541.0</ele><time>2026-03-29T08:19:59.999Z</time></trkpt><trkpt lat="43.21324489428911" lon="12.260024191515793"><ele>541.0</ele><time>2026-03-29T08:20:01.999Z</time></trkpt><trkpt lat="43.21316127832563" lon="12.260046133307402"><ele>546.0</ele><time>2026-03-29T08:20:04.999Z</time></trkpt><trkpt lat="43.21293250503966" lon="12.260038228711666"><ele>551.0</ele><time>2026-03-29T08:20:06.999Z</time></trkpt><trkpt lat="43.2128638037669" lon="12.260042917672584"><ele>556.0</ele><time>2026-03-29T08:20:08.999Z</time></trkpt><trkpt lat="43.212793641955955" lon="12.260067613491385"><ele>561.0</ele><time>2026-03-29T08:20:10.999Z</time></trkpt><trkpt lat="43.21267474508364" lon="12.260091577617919"><ele>561.0</ele><time>2026-03-29T08:20:12.999Z</time></trkpt><trkpt lat="43.21258144403929" lon="12.26011594013313"><ele>561.0</ele><time>2026-03-29T08:20:14.999Z</time></trkpt><trkpt lat="43.21250879405537" lon="12.260126372342757"><ele>561.0</ele><time>2026-03-29T08:20:16.999Z</time></trkpt><trkpt lat="43.212410799241496" lon="12.2600847692704"><ele>561.0</ele><time>2026-03-29T08:20:18.999Z</time></trkpt><trkpt lat="43.21238736078846" lon="12.259967666804151"><ele>561.0</ele><time>2026-03-29T08:20:21.999Z</time></trkpt><trkpt lat="43.21242341680984" lon="12.259870604761252"><ele>561.0</ele><time>2026-03-29T08:20:23.999Z</time></trkpt><trkpt lat="43.21251545790197" lon="12.259797712917589"><ele>564.8333333333334</ele><time>2026-03-29T08:20:25.999Z</time></trkpt><trkpt lat="43.21259108721441" lon="12.259756822023347"><ele>568.6666666666666</ele><time>2026-03-29T08:20:26.999Z</time></trkpt><trkpt lat="43.21264642988644" lon="12.259687574759003"><ele>572.5</ele><time>2026-03-29T08:20:27.999Z</time></trkpt><trkpt lat="43.21270285830705" lon="12.259609939600725"><ele>576.3333333333333</ele><time>2026-03-29T08:20:29.999Z</time></trkpt><trkpt lat="43.212746984412355" lon="12.259536475296796"><ele>580.1666666666666</ele><time>2026-03-29T08:20:30.999Z</time></trkpt><trkpt lat="43.212797249449686" lon="12.2594566213621"><ele>584.0</ele><time>2026-03-29T08:20:31.999Z</time></trkpt><trkpt lat="43.212849285629275" lon="12.259356555894627"><ele>584.0</ele><time>2026-03-29T08:20:32.999Z</time></trkpt><trkpt lat="43.21292301984797" lon="12.2592534947885"><ele>584.0</ele><time>2026-03-29T08:20:34.998Z</time></trkpt><trkpt lat="43.21296965367649" lon="12.259191240424169"><ele>584.0</ele><time>2026-03-29T08:20:35.998Z</time></trkpt><trkpt lat="43.21304152610238" lon="12.259089519793108"><ele>584.0</ele><time>2026-03-29T08:20:37.998Z</time></trkpt><trkpt lat="43.21300922463498" lon="12.258971352919419"><ele>584.0</ele><time>2026-03-29T08:20:40.998Z</time></trkpt><trkpt lat="43.212991241518026" lon="12.258790208441987"><ele>586.0</ele><time>2026-03-29T08:20:56Z</time></trkpt><trkpt lat="43.212989683369344" lon="12.258686597598357"><ele>588.0</ele><time>2026-03-29T08:20:57Z</time></trkpt><trkpt lat="43.21299085072137" lon="12.258592050526788"><ele>590.0</ele><time>2026-03-29T08:21:00Z</time></trkpt><trkpt lat="43.21298834731557" lon="12.25847181281672"><ele>592.0</ele><time>2026-03-29T08:21:03Z</time></trkpt><trkpt lat="43.212975144282254" lon="12.258320999399679"><ele>594.0</ele><time>2026-03-29T08:21:05Z</time></trkpt><trkpt lat="43.212959476593475" lon="12.258228288823165"><ele>596.0</ele><time>2026-03-29T08:21:07Z</time></trkpt><trkpt lat="43.21291814330849" lon="12.258096771246258"><ele>596.3333333333333</ele><time>2026-03-29T08:21:09Z</time></trkpt><trkpt lat="43.21285043108329" lon="12.257965696040618"><ele>596.6666666666666</ele><time>2026-03-29T08:21:11Z</time></trkpt><trkpt lat="43.21280156700633" lon="12.257872309001215"><ele>597.0</ele><time>2026-03-29T08:21:39.999Z</time></trkpt><trkpt lat="43.21272488029163" lon="12.257847565087204"><ele>597.3333333333334</ele><time>2026-03-29T08:21:42.999Z</time></trkpt><trkpt lat="43.21266213284246" lon="12.257912260466199"><ele>597.6666666666667</ele><time>2026-03-29T08:21:44.999Z</time></trkpt><trkpt lat="43.21259057278722" lon="12.257920206423613"><ele>598.0</ele><time>2026-03-29T08:21:48.999Z</time></trkpt><trkpt lat="43.212536047116075" lon="12.257830510715207"><ele>598.0</ele><time>2026-03-29T08:21:55.999Z</time></trkpt><trkpt lat="43.21255482208685" lon="12.257722955552161"><ele>598.0</ele><time>2026-03-29T08:21:57.999Z</time></trkpt><trkpt lat="43.21261774168912" lon="12.257643412688198"><ele>598.0</ele><time>2026-03-29T08:22:00.999Z</time></trkpt><trkpt lat="43.21268110971327" lon="12.257603297664838"><ele>598.0</ele><time>2026-03-29T08:22:02.999Z</time></trkpt><trkpt lat="43.21276878923143" lon="12.257538289185709"><ele>598.0</ele><time>2026-03-29T08:22:05.999Z</time></trkpt><trkpt lat="43.21283339882173" lon="12.257493918841176"><ele>598.0</ele><time>2026-03-29T08:22:07.999Z</time></trkpt><trkpt lat="43.21289428788168" lon="12.25745372704989"><ele>598.0</ele><time>2026-03-29T08:22:09.999Z</time></trkpt><trkpt lat="43.21296256716241" lon="12.257382529306774"><ele>598.0</ele><time>2026-03-29T08:22:11.999Z</time></trkpt><trkpt lat="43.21300346873255" lon="12.257298039347909"><ele>598.0</ele><time>2026-03-29T08:22:13.999Z</time></trkpt><trkpt lat="43.21303910576609" lon="12.257192547246312"><ele>598.0</ele><time>2026-03-29T08:22:15.999Z</time></trkpt><trkpt lat="43.21312864312298" lon="12.257120194958627"><ele>598.0</ele><time>2026-03-29T08:22:17.999Z</time></trkpt><trkpt lat="43.21321208289215" lon="12.257105153632843"><ele>598.0</ele><time>2026-03-29T08:22:19.999Z</time></trkpt><trkpt lat="43.21333112371911" lon="12.257088805805816"><ele>596.6666666666667</ele><time>2026-03-29T08:22:21.999Z</time></trkpt><trkpt lat="43.21339286775447" lon="12.25706267901709"><ele>595.3333333333334</ele><time>2026-03-29T08:22:22.999Z</time></trkpt><trkpt lat="43.213466237272286" lon="12.257033703921536"><ele>594.0</ele><time>2026-03-29T08:22:23.999Z</time></trkpt><trkpt lat="43.21353104759068" lon="12.25700658955749"><ele>592.6666666666666</ele><time>2026-03-29T08:22:24.999Z</time></trkpt><trkpt lat="43.21362542507547" lon="12.25694691920036"><ele>591.3333333333333</ele><time>2026-03-29T08:22:26.999Z</time></trkpt><trkpt lat="43.21368566264459" lon="12.25688476484054"><ele>590.0</ele><time>2026-03-29T08:22:28.999Z</time></trkpt><trkpt lat="43.213728839974756" lon="12.256815686658173"><ele>590.0</ele><time>2026-03-29T08:22:30.999Z</time></trkpt><trkpt lat="43.21378192523731" lon="12.256720506928659"><ele>590.0</ele><time>2026-03-29T08:22:33.998Z</time></trkpt><trkpt lat="43.21385572725035" lon="12.25667666696874"><ele>590.0</ele><time>2026-03-29T08:22:36.998Z</time></trkpt><trkpt lat="43.21393648150826" lon="12.256544530603312"><ele>590.0</ele><time>2026-03-29T08:24:16.999Z</time></trkpt><trkpt lat="43.21396289561069" lon="12.256458929538859"><ele>590.0</ele><time>2026-03-29T08:24:49.998Z</time></trkpt><trkpt lat="43.21395196864041" lon="12.256363914369913"><ele>590.0</ele><time>2026-03-29T08:24:51.998Z</time></trkpt><trkpt lat="43.21393318852052" lon="12.256246186092183"><ele>591.3333333333333</ele><time>2026-03-29T08:24:53.998Z</time></trkpt><trkpt lat="43.21390517861148" lon="12.256156082271225"><ele>592.6666666666666</ele><time>2026-03-29T08:24:55.998Z</time></trkpt><trkpt lat="43.21393253698277" lon="12.256056446526829"><ele>594.0</ele><time>2026-03-29T08:26:01.999Z</time></trkpt><trkpt lat="43.213953850143966" lon="12.255969951993329"><ele>595.3333333333334</ele><time>2026-03-29T08:26:03.999Z</time></trkpt><trkpt lat="43.21404988434319" lon="12.255912665385413"><ele>596.6666666666667</ele><time>2026-03-29T08:26:06.999Z</time></trkpt><trkpt lat="43.214123396978394" lon="12.255828674173745"><ele>598.0</ele><time>2026-03-29T08:26:08.999Z</time></trkpt><trkpt lat="43.21420680662421" lon="12.255811416217066"><ele>598.0</ele><time>2026-03-29T08:26:10.999Z</time></trkpt><trkpt lat="43.21424074541756" lon="12.25573437675179"><ele>598.0</ele><time>2026-03-29T08:26:13.999Z</time></trkpt><trkpt lat="43.21421219746437" lon="12.255645729812999"><ele>598.0</ele><time>2026-03-29T08:26:15.999Z</time></trkpt><trkpt lat="43.21419301586407" lon="12.255542622543292"><ele>598.0</ele><time>2026-03-29T08:26:17.999Z</time></trkpt><trkpt lat="43.214169408793126" lon="12.255434827464304"><ele>598.0</ele><time>2026-03-29T08:26:19.999Z</time></trkpt><trkpt lat="43.214126943009866" lon="12.255316956558628"><ele>598.0</ele><time>2026-03-29T08:26:21.999Z</time></trkpt><trkpt lat="43.21404215630274" lon="12.255247863850425"><ele>604.8333333333334</ele><time>2026-03-29T08:26:24.999Z</time></trkpt><trkpt lat="43.21398168446809" lon="12.255206029456186"><ele>611.6666666666667</ele><time>2026-03-29T08:26:27.999Z</time></trkpt><trkpt lat="43.21387587705984" lon="12.255101918931922"><ele>618.5</ele><time>2026-03-29T08:26:28.999Z</time></trkpt><trkpt lat="43.21378104956722" lon="12.255130479013651"><ele>625.3333333333334</ele><time>2026-03-29T08:26:30.999Z</time></trkpt><trkpt lat="43.21371750685716" lon="12.255161804484079"><ele>632.1666666666666</ele><time>2026-03-29T08:26:32.999Z</time></trkpt><trkpt lat="43.21363553216381" lon="12.255139944613946"><ele>639.0</ele><time>2026-03-29T08:26:35.999Z</time></trkpt><trkpt lat="43.213569916349876" lon="12.255147424216176"><ele>639.0</ele><time>2026-03-29T08:26:37.998Z</time></trkpt><trkpt lat="43.21349775720412" lon="12.255327473365858"><ele>639.0</ele><time>2026-03-29T08:26:46.998Z</time></trkpt><trkpt lat="43.21344426338225" lon="12.255404183783762"><ele>639.0</ele><time>2026-03-29T08:26:48.998Z</time></trkpt><trkpt lat="43.213346948196026" lon="12.25546709723609"><ele>639.0</ele><time>2026-03-29T08:28:06.999Z</time></trkpt><trkpt lat="43.213248368176785" lon="12.255522009620304"><ele>639.0</ele><time>2026-03-29T08:28:08.999Z</time></trkpt><trkpt lat="43.21319612663331" lon="12.255447521777013"><ele>639.0</ele><time>2026-03-29T08:28:10.999Z</time></trkpt><trkpt lat="43.213218611277135" lon="12.255283290924089"><ele>639.0</ele><time>2026-03-29T08:28:12.999Z</time></trkpt><trkpt lat="43.21324047384463" lon="12.25518652758509"><ele>639.0</ele><time>2026-03-29T08:28:13.999Z</time></trkpt><trkpt lat="43.213264827651315" lon="12.255104157714989"><ele>639.0</ele><time>2026-03-29T08:28:14.999Z</time></trkpt><trkpt lat="43.213228365883914" lon="12.255011611330143"><ele>639.0</ele><time>2026-03-29T08:28:17.999Z</time></trkpt><trkpt lat="43.21314971363965" lon="12.254964350828466"><ele>639.0</ele><time>2026-03-29T08:28:20.999Z</time></trkpt><trkpt lat="43.21313091018302" lon="12.254873014352336"><ele>640.25</ele><time>2026-03-29T08:28:22.999Z</time></trkpt><trkpt lat="43.21314910154593" lon="12.254766856654351"><ele>641.5</ele><time>2026-03-29T08:30:20.999Z</time></trkpt><trkpt lat="43.21318205910634" lon="12.254683687830944"><ele>642.75</ele><time>2026-03-29T08:30:21.999Z</time></trkpt><trkpt lat="43.213093903448424" lon="12.254427055481829"><ele>644.0</ele><time>2026-03-29T08:30:23.999Z</time></trkpt><trkpt lat="43.213148113624726" lon="12.254300776434556"><ele>644.3333333333333</ele><time>2026-03-29T08:30:25.999Z</time></trkpt><trkpt lat="43.213247147744816" lon="12.254210163136712"><ele>644.6666666666666</ele><time>2026-03-29T08:30:27.999Z</time></trkpt><trkpt lat="43.21329521933196" lon="12.254117989571462"><ele>645.0</ele><time>2026-03-29T08:30:28.999Z</time></trkpt><trkpt lat="43.21336354988341" lon="12.254045816118982"><ele>645.3333333333334</ele><time>2026-03-29T08:30:29.999Z</time></trkpt><trkpt lat="43.213421167568775" lon="12.253999000836655"><ele>645.6666666666667</ele><time>2026-03-29T08:30:30.999Z</time></trkpt><trkpt lat="43.213490352450506" lon="12.253943053570536"><ele>646.0</ele><time>2026-03-29T08:30:31.999Z</time></trkpt><trkpt lat="43.21355591837528" lon="12.25389285898631"><ele>648.0</ele><time>2026-03-29T08:30:32.999Z</time></trkpt><trkpt lat="43.21396270072495" lon="12.25432177672062"><ele>648.3333333333334</ele><time>2026-03-29T08:30:33.999Z</time></trkpt><trkpt lat="43.21404079972167" lon="12.254299593838594"><ele>648.6666666666666</ele><time>2026-03-29T08:30:34.999Z</time></trkpt><trkpt lat="43.21411996567734" lon="12.254258204402026"><ele>649.0</ele><time>2026-03-29T08:30:35.999Z</time></trkpt><trkpt lat="43.214198353073186" lon="12.254211703423895"><ele>649.3333333333333</ele><time>2026-03-29T08:30:36.999Z</time></trkpt><trkpt lat="43.21428425173054" lon="12.25417816352317"><ele>649.6666666666666</ele><time>2026-03-29T08:30:37.999Z</time></trkpt><trkpt lat="43.214351242500875" lon="12.254169777184364"><ele>650.0</ele><time>2026-03-29T08:30:38.999Z</time></trkpt><trkpt lat="43.21443400568998" lon="12.254143166124486"><ele>650.0</ele><time>2026-03-29T08:30:40.999Z</time></trkpt><trkpt lat="43.21449747283249" lon="12.254041320378468"><ele>650.0</ele><time>2026-03-29T08:30:42.999Z</time></trkpt><trkpt lat="43.214524744931154" lon="12.253960783637986"><ele>650.0</ele><time>2026-03-29T08:30:44.999Z</time></trkpt><trkpt lat="43.21457231317687" lon="12.253843667516438"><ele>650.0</ele><time>2026-03-29T08:30:46.998Z</time></trkpt><trkpt lat="43.214674952872734" lon="12.25377259204408"><ele>650.0</ele><time>2026-03-29T08:30:48.998Z</time></trkpt><trkpt lat="43.214753778514634" lon="12.253685084281173"><ele>650.6</ele><time>2026-03-29T08:30:50.998Z</time></trkpt><trkpt lat="43.21483246694168" lon="12.253595446605662"><ele>651.2</ele><time>2026-03-29T08:30:52.998Z</time></trkpt><trkpt lat="43.21492418914717" lon="12.253516182697828"><ele>651.8</ele><time>2026-03-29T08:30:54.998Z</time></trkpt><trkpt lat="43.215014141909535" lon="12.25350597481462"><ele>652.4</ele><time>2026-03-29T08:30:56.998Z</time></trkpt><trkpt lat="43.21509092266557" lon="12.253473825694133"><ele>653.0</ele><time>2026-03-29T08:30:59.998Z</time></trkpt><trkpt lat="43.21515764088536" lon="12.25337150045332"><ele>653.0</ele><time>2026-03-29T08:31:01.998Z</time></trkpt><trkpt lat="43.215194363150964" lon="12.253259461993585"><ele>653.0</ele><time>2026-03-29T08:31:03.998Z</time></trkpt><trkpt lat="43.21524976828095" lon="12.253208619708415"><ele>653.0</ele><time>2026-03-29T08:31:05.998Z</time></trkpt><trkpt lat="43.21528487968813" lon="12.253327546959278"><ele>653.0</ele><time>2026-03-29T08:31:09.998Z</time></trkpt><trkpt lat="43.21535365673579" lon="12.253430248396707"><ele>653.0</ele><time>2026-03-29T08:31:11.998Z</time></trkpt><trkpt lat="43.21541998778609" lon="12.253462079984319"><ele>653.0</ele><time>2026-03-29T08:31:15.998Z</time></trkpt><trkpt lat="43.21548024579074" lon="12.253508964127478"><ele>653.0</ele><time>2026-03-29T08:31:19Z</time></trkpt><trkpt lat="43.215547241241474" lon="12.25357304732062"><ele>653.0</ele><time>2026-03-29T08:31:22Z</time></trkpt><trkpt lat="43.215620589985825" lon="12.25365063101375"><ele>653.0</ele><time>2026-03-29T08:31:25Z</time></trkpt><trkpt lat="43.21566776805286" lon="12.25372089838694"><ele>653.0</ele><time>2026-03-29T08:31:28Z</time></trkpt><trkpt lat="43.21574381113488" lon="12.253813371949207"><ele>653.0</ele><time>2026-03-29T08:31:30Z</time></trkpt><trkpt lat="43.21582336397834" lon="12.253876256515088"><ele>653.0</ele><time>2026-03-29T08:31:32Z</time></trkpt><trkpt lat="43.215897223663404" lon="12.253964131290372"><ele>650.3333333333333</ele><time>2026-03-29T08:31:35Z</time></trkpt><trkpt lat="43.21595132374561" lon="12.254036554936063"><ele>647.6666666666666</ele><time>2026-03-29T08:31:37Z</time></trkpt><trkpt lat="43.2159865951288" lon="12.254141612658996"><ele>645.0</ele><time>2026-03-29T08:31:39Z</time></trkpt><trkpt lat="43.216050345234116" lon="12.254246841020647"><ele>642.3333333333334</ele><time>2026-03-29T08:31:41Z</time></trkpt><trkpt lat="43.216099877982096" lon="12.25436358610247"><ele>639.6666666666667</ele><time>2026-03-29T08:31:43Z</time></trkpt><trkpt lat="43.21612809200385" lon="12.254477302999884"><ele>637.0</ele><time>2026-03-29T08:31:45Z</time></trkpt><trkpt lat="43.21618069837792" lon="12.254527836404117"><ele>637.0</ele><time>2026-03-29T08:31:47Z</time></trkpt><trkpt lat="43.2162444243678" lon="12.254454076393133"><ele>637.0</ele><time>2026-03-29T08:31:50Z</time></trkpt><trkpt lat="43.21630935697325" lon="12.254268798498494"><ele>637.0</ele><time>2026-03-29T08:31:52.999Z</time></trkpt><trkpt lat="43.216344581674726" lon="12.254109331981379"><ele>637.0</ele><time>2026-03-29T08:31:54.999Z</time></trkpt><trkpt lat="43.21635310483597" lon="12.253963820762307"><ele>640.5</ele><time>2026-03-29T08:31:56.999Z</time></trkpt><trkpt lat="43.21643775628354" lon="12.253889029890585"><ele>644.0</ele><time>2026-03-29T08:31:59.999Z</time></trkpt><trkpt lat="43.21648983679137" lon="12.253820810484491"><ele>647.5</ele><time>2026-03-29T08:32:01.999Z</time></trkpt><trkpt lat="43.21654227795175" lon="12.253768208626378"><ele>651.0</ele><time>2026-03-29T08:32:03.999Z</time></trkpt><trkpt lat="43.21661618002185" lon="12.253721830820336"><ele>654.5</ele><time>2026-03-29T08:32:06.999Z</time></trkpt><trkpt lat="43.21671397209547" lon="12.253665344859305"><ele>658.0</ele><time>2026-03-29T08:32:09.999Z</time></trkpt><trkpt lat="43.21678345040236" lon="12.253634052462148"><ele>659.1666666666667</ele><time>2026-03-29T08:32:11.999Z</time></trkpt><trkpt lat="43.216851967965916" lon="12.25364763079213"><ele>660.3333333333334</ele><time>2026-03-29T08:32:13.999Z</time></trkpt><trkpt lat="43.21691993256244" lon="12.25365847803946"><ele>661.5</ele><time>2026-03-29T08:32:15.999Z</time></trkpt><trkpt lat="43.21698801954601" lon="12.25366362576855"><ele>662.6666666666666</ele><time>2026-03-29T08:32:18.999Z</time></trkpt><trkpt lat="43.2170928016727" lon="12.25364881079506"><ele>663.8333333333333</ele><time>2026-03-29T08:32:19.999Z</time></trkpt><trkpt lat="43.21718052438356" lon="12.253659474819957"><ele>665.0</ele><time>2026-03-29T08:32:21.999Z</time></trkpt><trkpt lat="43.217253016645934" lon="12.253680890749072"><ele>666.5</ele><time>2026-03-29T08:32:23.999Z</time></trkpt><trkpt lat="43.21732803013802" lon="12.253686690729346"><ele>668.0</ele><time>2026-03-29T08:32:25.999Z</time></trkpt><trkpt lat="43.217409807357754" lon="12.253678342732847"><ele>669.5</ele><time>2026-03-29T08:32:27.999Z</time></trkpt><trkpt lat="43.217506795860864" lon="12.253652870906286"><ele>671.0</ele><time>2026-03-29T08:32:29.999Z</time></trkpt><trkpt lat="43.217571075954616" lon="12.253625354017238"><ele>672.5</ele><time>2026-03-29T08:32:31.999Z</time></trkpt><trkpt lat="43.21765815373826" lon="12.253617777112165"><ele>674.0</ele><time>2026-03-29T08:32:33.999Z</time></trkpt><trkpt lat="43.21772307593087" lon="12.253585333641539"><ele>674.0</ele><time>2026-03-29T08:32:35.999Z</time></trkpt><trkpt lat="43.21780767813235" lon="12.253512000512943"><ele>674.0</ele><time>2026-03-29T08:32:38.999Z</time></trkpt><trkpt lat="43.21791218820544" lon="12.253576488772346"><ele>674.0</ele><time>2026-03-29T08:34:11.999Z</time></trkpt><trkpt lat="43.21797599802128" lon="12.253701257809583"><ele>674.0</ele><time>2026-03-29T08:34:13.999Z</time></trkpt><trkpt lat="43.21802779419179" lon="12.253787647511258"><ele>674.0</ele><time>2026-03-29T08:34:15.999Z</time></trkpt><trkpt lat="43.218079417350886" lon="12.253882059192627"><ele>671.6</ele><time>2026-03-29T08:34:17.999Z</time></trkpt><trkpt lat="43.2181653243777" lon="12.253988066413301"><ele>669.2</ele><time>2026-03-29T08:34:19.999Z</time></trkpt><trkpt lat="43.21825190147708" lon="12.254087850912661"><ele>666.8000000000001</ele><time>2026-03-29T08:34:21.999Z</time></trkpt><trkpt lat="43.21834823560246" lon="12.254165856516858"><ele>664.4000000000001</ele><time>2026-03-29T08:34:23.999Z</time></trkpt><trkpt lat="43.21841141914402" lon="12.254213435212412"><ele>662.0</ele><time>2026-03-29T08:34:24.999Z</time></trkpt><trkpt lat="43.21847355741454" lon="12.254288988004081"><ele>662.0</ele><time>2026-03-29T08:34:25.999Z</time></trkpt><trkpt lat="43.21852955831619" lon="12.254374860907593"><ele>662.0</ele><time>2026-03-29T08:34:26.999Z</time></trkpt><trkpt lat="43.21857449295043" lon="12.25444206144861"><ele>662.0</ele><time>2026-03-29T08:34:27.999Z</time></trkpt><trkpt lat="43.21866880855379" lon="12.254517206006847"><ele>662.0</ele><time>2026-03-29T08:34:29.999Z</time></trkpt><trkpt lat="43.218753074860274" lon="12.254520159458298"><ele>662.0</ele><time>2026-03-29T08:34:31.999Z</time></trkpt><trkpt lat="43.21886466449073" lon="12.254456745100489"><ele>662.0</ele><time>2026-03-29T08:34:33.999Z</time></trkpt><trkpt lat="43.21892385424247" lon="12.254417316436003"><ele>662.0</ele><time>2026-03-29T08:34:34.999Z</time></trkpt><trkpt lat="43.219048340407205" lon="12.254406964995628"><ele>662.0</ele><time>2026-03-29T08:34:36.999Z</time></trkpt><trkpt lat="43.219121612693286" lon="12.254518507537199"><ele>662.0</ele><time>2026-03-29T08:34:38.999Z</time></trkpt><trkpt lat="43.21919952863419" lon="12.254614737951808"><ele>662.0</ele><time>2026-03-29T08:34:40.999Z</time></trkpt><trkpt lat="43.219298816727864" lon="12.254673064013396"><ele>661.4000000000001</ele><time>2026-03-29T08:34:42.999Z</time></trkpt><trkpt lat="43.219355784057456" lon="12.254807792090752"><ele>660.8000000000001</ele><time>2026-03-29T08:34:44.999Z</time></trkpt><trkpt lat="43.21938543897856" lon="12.25488741011901"><ele>660.2</ele><time>2026-03-29T08:34:45.999Z</time></trkpt><trkpt lat="43.21942686523265" lon="12.254964271863528"><ele>659.6</ele><time>2026-03-29T08:34:46.999Z</time></trkpt><trkpt lat="43.21949994502056" lon="12.255076941013668"><ele>659.0</ele><time>2026-03-29T08:34:48.999Z</time></trkpt><trkpt lat="43.219563268789486" lon="12.255199370674807"><ele>659.0</ele><time>2026-03-29T08:34:50.999Z</time></trkpt><trkpt lat="43.21952399109409" lon="12.25534413907487"><ele>659.0</ele><time>2026-03-29T08:34:52.999Z</time></trkpt><trkpt lat="43.219513138198174" lon="12.255434171196892"><ele>659.0</ele><time>2026-03-29T08:34:53.999Z</time></trkpt><trkpt lat="43.219523572416165" lon="12.255543700746761"><ele>659.0</ele><time>2026-03-29T08:34:54.999Z</time></trkpt><trkpt lat="43.21953375238564" lon="12.255711933963317"><ele>659.0</ele><time>2026-03-29T08:34:56.999Z</time></trkpt><trkpt lat="43.21954623369233" lon="12.255865134069351"><ele>660.2</ele><time>2026-03-29T08:34:58.998Z</time></trkpt><trkpt lat="43.21957019724704" lon="12.255946661469965"><ele>661.4000000000001</ele><time>2026-03-29T08:35:00.998Z</time></trkpt><trkpt lat="43.2196637511374" lon="12.256051630707928"><ele>662.6</ele><time>2026-03-29T08:35:05.998Z</time></trkpt><trkpt lat="43.21980455327564" lon="12.25613389408437"><ele>663.8</ele><time>2026-03-29T08:35:08.998Z</time></trkpt><trkpt lat="43.219908199100644" lon="12.25615478333351"><ele>665.0</ele><time>2026-03-29T08:35:10.998Z</time></trkpt><trkpt lat="43.219976265908166" lon="12.256140024125171"><ele>665.0</ele><time>2026-03-29T08:35:11.998Z</time></trkpt><trkpt lat="43.22004462637454" lon="12.256119727484663"><ele>665.0</ele><time>2026-03-29T08:35:12.998Z</time></trkpt><trkpt lat="43.22014466112192" lon="12.256095317393518"><ele>665.0</ele><time>2026-03-29T08:35:14.998Z</time></trkpt><trkpt lat="43.22023920197926" lon="12.256080117169835"><ele>665.0</ele><time>2026-03-29T08:35:16.998Z</time></trkpt><trkpt lat="43.22032305611812" lon="12.256007990091446"><ele>665.0</ele><time>2026-03-29T08:35:18.998Z</time></trkpt><trkpt lat="43.22040774482005" lon="12.255952815363575"><ele>665.0</ele><time>2026-03-29T08:35:21.998Z</time></trkpt><trkpt lat="43.22047151852135" lon="12.255884397356025"><ele>665.0</ele><time>2026-03-29T08:35:24.998Z</time></trkpt><trkpt lat="43.22052587729397" lon="12.255831502854459"><ele>665.0</ele><time>2026-03-29T08:35:27.998Z</time></trkpt><trkpt lat="43.22057895451241" lon="12.255756823646834"><ele>665.0</ele><time>2026-03-29T08:35:29.998Z</time></trkpt><trkpt lat="43.22065845219816" lon="12.255669187325465"><ele>665.0</ele><time>2026-03-29T08:35:33Z</time></trkpt><trkpt lat="43.22071941454629" lon="12.255579258621195"><ele>665.0</ele><time>2026-03-29T08:35:35Z</time></trkpt><trkpt lat="43.22079808578416" lon="12.255458468877869"><ele>664.1666666666666</ele><time>2026-03-29T08:35:37Z</time></trkpt><trkpt lat="43.220876115851596" lon="12.255411274781517"><ele>663.3333333333333</ele><time>2026-03-29T08:35:39Z</time></trkpt><trkpt lat="43.22093281116217" lon="12.255351987683277"><ele>662.5</ele><time>2026-03-29T08:35:41Z</time></trkpt><trkpt lat="43.220984209162246" lon="12.255248043190536"><ele>661.6666666666666</ele><time>2026-03-29T08:35:44Z</time></trkpt><trkpt lat="43.221006419357884" lon="12.255150912702652"><ele>660.8333333333334</ele><time>2026-03-29T08:35:46Z</time></trkpt><trkpt lat="43.22102394599829" lon="12.255030256690466"><ele>660.0</ele><time>2026-03-29T08:35:48Z</time></trkpt><trkpt lat="43.22103096700175" lon="12.254902487551178"><ele>660.0</ele><time>2026-03-29T08:35:50Z</time></trkpt><trkpt lat="43.22109443657345" lon="12.254816439512558"><ele>660.0</ele><time>2026-03-29T08:35:52Z</time></trkpt><trkpt lat="43.221151543036626" lon="12.254775684761636"><ele>660.0</ele><time>2026-03-29T08:35:54Z</time></trkpt><trkpt lat="43.2212260335063" lon="12.254670602027081"><ele>660.0</ele><time>2026-03-29T08:35:57Z</time></trkpt><trkpt lat="43.221280419270016" lon="12.254548778120894"><ele>660.0</ele><time>2026-03-29T08:35:58.999Z</time></trkpt><trkpt lat="43.22133727481902" lon="12.25445776421559"><ele>660.0</ele><time>2026-03-29T08:36:00.999Z</time></trkpt><trkpt lat="43.2214076897273" lon="12.254463629465345"><ele>660.0</ele><time>2026-03-29T08:36:02.999Z</time></trkpt><trkpt lat="43.221503253833625" lon="12.2544971186266"><ele>660.0</ele><time>2026-03-29T08:36:04.999Z</time></trkpt><trkpt lat="43.221590065983065" lon="12.254554636496763"><ele>660.0</ele><time>2026-03-29T08:36:06.999Z</time></trkpt><trkpt lat="43.22166723936962" lon="12.254586502893236"><ele>660.0</ele><time>2026-03-29T08:36:09.999Z</time></trkpt><trkpt lat="43.2217484097237" lon="12.254592745151864"><ele>660.0</ele><time>2026-03-29T08:36:11.999Z</time></trkpt><trkpt lat="43.2218198605248" lon="12.254593982426362"><ele>660.0</ele><time>2026-03-29T08:36:14.999Z</time></trkpt><trkpt lat="43.221879431373765" lon="12.254669855036424"><ele>660.0</ele><time>2026-03-29T08:36:17.999Z</time></trkpt><trkpt lat="43.22193840416821" lon="12.25476450355637"><ele>660.0</ele><time>2026-03-29T08:36:19.999Z</time></trkpt><trkpt lat="43.22208503326749" lon="12.254892926063468"><ele>660.0</ele><time>2026-03-29T08:36:22.999Z</time></trkpt><trkpt lat="43.22217421173034" lon="12.254931799762476"><ele>660.0</ele><time>2026-03-29T08:36:24.999Z</time></trkpt><trkpt lat="43.22226702236216" lon="12.25491266766795"><ele>660.0</ele><time>2026-03-29T08:36:26.999Z</time></trkpt><trkpt lat="43.222373545826585" lon="12.254870255280014"><ele>660.0</ele><time>2026-03-29T08:36:28.999Z</time></trkpt><trkpt lat="43.22246484097037" lon="12.254815096607052"><ele>660.0</ele><time>2026-03-29T08:36:30.999Z</time></trkpt><trkpt lat="43.2225450475522" lon="12.25477735444391"><ele>660.0</ele><time>2026-03-29T08:36:32.999Z</time></trkpt><trkpt lat="43.222587472424046" lon="12.25485023936188"><ele>660.0</ele><time>2026-03-29T08:36:35.999Z</time></trkpt><trkpt lat="43.22264889716542" lon="12.254943352194719"><ele>654.2</ele><time>2026-03-29T08:36:37.999Z</time></trkpt><trkpt lat="43.22273751876837" lon="12.255021930861432"><ele>648.4</ele><time>2026-03-29T08:36:39.999Z</time></trkpt><trkpt lat="43.222803738837285" lon="12.255056139035089"><ele>642.6</ele><time>2026-03-29T08:36:40.999Z</time></trkpt><trkpt lat="43.22287479849254" lon="12.255161271739071"><ele>636.8</ele><time>2026-03-29T08:36:42.999Z</time></trkpt><trkpt lat="43.222916436782626" lon="12.255240737084291"><ele>631.0</ele><time>2026-03-29T08:36:45.999Z</time></trkpt><trkpt lat="43.2230032293504" lon="12.255323047489341"><ele>631.0</ele><time>2026-03-29T08:36:47.999Z</time></trkpt><trkpt lat="43.22306118620886" lon="12.255275726533677"><ele>631.0</ele><time>2026-03-29T08:36:49.999Z</time></trkpt><trkpt lat="43.22316453070866" lon="12.255228796670737"><ele>631.0</ele><time>2026-03-29T08:36:52.999Z</time></trkpt><trkpt lat="43.223228863393665" lon="12.25522181786849"><ele>631.0</ele><time>2026-03-29T08:36:53.999Z</time></trkpt><trkpt lat="43.22327991910072" lon="12.25514625935907"><ele>631.0</ele><time>2026-03-29T08:36:56.999Z</time></trkpt><trkpt lat="43.22333583747559" lon="12.255023807934723"><ele>631.0</ele><time>2026-03-29T08:36:57.999Z</time></trkpt><trkpt lat="43.22336433108627" lon="12.254908249111159"><ele>633.0</ele><time>2026-03-29T08:36:59.999Z</time></trkpt><trkpt lat="43.223438991657815" lon="12.25486243331042"><ele>635.0</ele><time>2026-03-29T08:37:01.998Z</time></trkpt><trkpt lat="43.22350853219362" lon="12.254842258810807"><ele>637.0</ele><time>2026-03-29T08:37:03.998Z</time></trkpt><trkpt lat="43.223590295788526" lon="12.254772690230897"><ele>639.0</ele><time>2026-03-29T08:37:17.998Z</time></trkpt><trkpt lat="43.223682730184" lon="12.254678739816676"><ele>641.0</ele><time>2026-03-29T08:37:19.998Z</time></trkpt><trkpt lat="43.223725793180876" lon="12.254583035849048"><ele>643.0</ele><time>2026-03-29T08:37:20.998Z</time></trkpt><trkpt lat="43.22377552959241" lon="12.254491009192973"><ele>647.5999999999999</ele><time>2026-03-29T08:37:21.998Z</time></trkpt><trkpt lat="43.22384292375287" lon="12.254434434046901"><ele>652.1999999999999</ele><time>2026-03-29T08:37:22.998Z</time></trkpt><trkpt lat="43.2239512592597" lon="12.254400414838159"><ele>656.8</ele><time>2026-03-29T08:37:24.998Z</time></trkpt><trkpt lat="43.22401210041611" lon="12.254337915202807"><ele>661.4</ele><time>2026-03-29T08:37:25.998Z</time></trkpt><trkpt lat="43.22412173478841" lon="12.25425076331646"><ele>666.0</ele><time>2026-03-29T08:37:27.998Z</time></trkpt><trkpt lat="43.224181140335716" lon="12.254193180537325"><ele>666.0</ele><time>2026-03-29T08:37:28.998Z</time></trkpt><trkpt lat="43.22423777766426" lon="12.254131508212188"><ele>666.0</ele><time>2026-03-29T08:37:29.998Z</time></trkpt><trkpt lat="43.224286966727206" lon="12.254071865302716"><ele>666.0</ele><time>2026-03-29T08:37:30.998Z</time></trkpt><trkpt lat="43.22437849293976" lon="12.253972064065143"><ele>666.0</ele><time>2026-03-29T08:37:32.998Z</time></trkpt><trkpt lat="43.224530476931584" lon="12.253927458221945"><ele>666.0</ele><time>2026-03-29T08:37:34.998Z</time></trkpt><trkpt lat="43.22461232182737" lon="12.253936914940555"><ele>666.6666666666666</ele><time>2026-03-29T08:37:35.998Z</time></trkpt><trkpt lat="43.22469867257786" lon="12.253950310018947"><ele>667.3333333333334</ele><time>2026-03-29T08:37:37Z</time></trkpt><trkpt lat="43.22477641841238" lon="12.253951036203883"><ele>668.0</ele><time>2026-03-29T08:37:38Z</time></trkpt><trkpt lat="43.224872584754074" lon="12.253963378119561"><ele>668.6666666666667</ele><time>2026-03-29T08:37:40Z</time></trkpt><trkpt lat="43.224947351339594" lon="12.253976304126919"><ele>669.3333333333334</ele><time>2026-03-29T08:37:41Z</time></trkpt><trkpt lat="43.225027725704884" lon="12.254015175278607"><ele>670.0</ele><time>2026-03-29T08:37:42Z</time></trkpt><trkpt lat="43.225088724390375" lon="12.254066025801498"><ele>670.0</ele><time>2026-03-29T08:37:43Z</time></trkpt><trkpt lat="43.22514226532777" lon="12.254126835048677"><ele>670.0</ele><time>2026-03-29T08:37:44Z</time></trkpt><trkpt lat="43.22523301011378" lon="12.254173783157313"><ele>670.0</ele><time>2026-03-29T08:37:46Z</time></trkpt><trkpt lat="43.22534679656224" lon="12.254171054297256"><ele>670.0</ele><time>2026-03-29T08:37:48Z</time></trkpt><trkpt lat="43.22543079642217" lon="12.254159878303906"><ele>670.0</ele><time>2026-03-29T08:37:49Z</time></trkpt><trkpt lat="43.22551254915773" lon="12.254167804406594"><ele>670.0</ele><time>2026-03-29T08:37:50Z</time></trkpt><trkpt lat="43.225619050298" lon="12.254223088479307"><ele>671.0</ele><time>2026-03-29T08:37:52Z</time></trkpt><trkpt lat="43.22568322511816" lon="12.254219000714007"><ele>672.0</ele><time>2026-03-29T08:37:53Z</time></trkpt><trkpt lat="43.225812078703605" lon="12.254132431744457"><ele>673.0</ele><time>2026-03-29T08:37:55Z</time></trkpt><trkpt lat="43.2258653135565" lon="12.254073026316917"><ele>674.0</ele><time>2026-03-29T08:37:56Z</time></trkpt><trkpt lat="43.22589791077183" lon="12.253997071175743"><ele>675.0</ele><time>2026-03-29T08:37:57Z</time></trkpt><trkpt lat="43.225924714393706" lon="12.253902683464212"><ele>676.0</ele><time>2026-03-29T08:37:58Z</time></trkpt><trkpt lat="43.22595007312653" lon="12.253783944568417"><ele>679.1666666666667</ele><time>2026-03-29T08:38:00Z</time></trkpt><trkpt lat="43.22595327527048" lon="12.25368771395213"><ele>682.3333333333334</ele><time>2026-03-29T08:38:01.999Z</time></trkpt><trkpt lat="43.22598389860032" lon="12.25357204993374"><ele>685.5</ele><time>2026-03-29T08:38:03.999Z</time></trkpt><trkpt lat="43.22602489594294" lon="12.253464937945479"><ele>688.6666666666666</ele><time>2026-03-29T08:38:05.999Z</time></trkpt><trkpt lat="43.226056138921365" lon="12.253340520787738"><ele>691.8333333333333</ele><time>2026-03-29T08:38:06.999Z</time></trkpt><trkpt lat="43.22607938081581" lon="12.253227905387611"><ele>695.0</ele><time>2026-03-29T08:38:07.999Z</time></trkpt><trkpt lat="43.22609304097647" lon="12.253117957027344"><ele>698.4</ele><time>2026-03-29T08:38:08.999Z</time></trkpt><trkpt lat="43.22610503356138" lon="12.25301920073806"><ele>701.8</ele><time>2026-03-29T08:38:09.999Z</time></trkpt><trkpt lat="43.22609763270219" lon="12.25289561760014"><ele>705.2</ele><time>2026-03-29T08:38:10.999Z</time></trkpt><trkpt lat="43.226124255084045" lon="12.252753240742736"><ele>708.6</ele><time>2026-03-29T08:38:11.999Z</time></trkpt><trkpt lat="43.22614067914647" lon="12.252641389199756"><ele>712.0</ele><time>2026-03-29T08:38:12.999Z</time></trkpt><trkpt lat="43.22612909134331" lon="12.252494120621579"><ele>712.0</ele><time>2026-03-29T08:38:14.999Z</time></trkpt><trkpt lat="43.2261395931216" lon="12.252405361451341"><ele>712.0</ele><time>2026-03-29T08:38:17.999Z</time></trkpt><trkpt lat="43.226174495565054" lon="12.252302569184646"><ele>712.0</ele><time>2026-03-29T08:43:28.998Z</time></trkpt><trkpt lat="43.226201670826846" lon="12.252207819776745"><ele>712.0</ele><time>2026-03-29T08:43:30.998Z</time></trkpt><trkpt lat="43.22628913364097" lon="12.252161008856545"><ele>712.0</ele><time>2026-03-29T08:43:33.998Z</time></trkpt><trkpt lat="43.22637107135738" lon="12.252173008564027"><ele>712.0</ele><time>2026-03-29T08:43:35.998Z</time></trkpt><trkpt lat="43.22646830382715" lon="12.252146532061195"><ele>714.0</ele><time>2026-03-29T08:43:37.998Z</time></trkpt><trkpt lat="43.226534747706594" lon="12.252127163284642"><ele>716.0</ele><time>2026-03-29T08:43:38.998Z</time></trkpt><trkpt lat="43.22660123278671" lon="12.252106644647654"><ele>718.0</ele><time>2026-03-29T08:43:39.998Z</time></trkpt><trkpt lat="43.226716677024726" lon="12.252054516986428"><ele>720.0</ele><time>2026-03-29T08:43:41.998Z</time></trkpt><trkpt lat="43.226826421213545" lon="12.252008197824347"><ele>722.0</ele><time>2026-03-29T08:43:43.998Z</time></trkpt><trkpt lat="43.22693567022802" lon="12.251913990106754"><ele>722.0</ele><time>2026-03-29T08:43:45.998Z</time></trkpt><trkpt lat="43.226999838474086" lon="12.251865154841214"><ele>722.0</ele><time>2026-03-29T08:43:46.998Z</time></trkpt><trkpt lat="43.227079237321206" lon="12.251810645823856"><ele>722.0</ele><time>2026-03-29T08:43:47.998Z</time></trkpt><trkpt lat="43.22714454737412" lon="12.251763813175103"><ele>722.0</ele><time>2026-03-29T08:43:48.998Z</time></trkpt><trkpt lat="43.2272062507615" lon="12.251710378346608"><ele>722.0</ele><time>2026-03-29T08:43:49.998Z</time></trkpt><trkpt lat="43.227265060878935" lon="12.251662668910946"><ele>722.0</ele><time>2026-03-29T08:43:50.998Z</time></trkpt><trkpt lat="43.22733839278007" lon="12.251622337745832"><ele>722.0</ele><time>2026-03-29T08:43:51.998Z</time></trkpt><trkpt lat="43.22740622608462" lon="12.251608146122214"><ele>722.0</ele><time>2026-03-29T08:43:52.998Z</time></trkpt><trkpt lat="43.22747951704753" lon="12.25160991150735"><ele>722.0</ele><time>2026-03-29T08:43:55Z</time></trkpt><trkpt lat="43.22759522740901" lon="12.251644676120597"><ele>722.0</ele><time>2026-03-29T08:43:57Z</time></trkpt><trkpt lat="43.22770200210842" lon="12.251675833755176"><ele>722.0</ele><time>2026-03-29T08:43:59Z</time></trkpt><trkpt lat="43.22777309783495" lon="12.251693031578434"><ele>722.0</ele><time>2026-03-29T08:44:00Z</time></trkpt><trkpt lat="43.22788761628866" lon="12.251709414160844"><ele>722.0</ele><time>2026-03-29T08:44:01Z</time></trkpt><trkpt lat="43.227988800310825" lon="12.251708182044565"><ele>722.0</ele><time>2026-03-29T08:44:02Z</time></trkpt><trkpt lat="43.22806983623433" lon="12.251711539347296"><ele>722.0</ele><time>2026-03-29T08:44:03Z</time></trkpt><trkpt lat="43.228147168268364" lon="12.251718280275828"><ele>722.0</ele><time>2026-03-29T08:44:04Z</time></trkpt><trkpt lat="43.22821855152939" lon="12.251720052910501"><ele>722.0</ele><time>2026-03-29T08:44:05Z</time></trkpt><trkpt lat="43.22833363582753" lon="12.251727357940684"><ele>722.0</ele><time>2026-03-29T08:44:07Z</time></trkpt><trkpt lat="43.22840877002385" lon="12.251746844267663"><ele>722.2</ele><time>2026-03-29T08:44:08Z</time></trkpt><trkpt lat="43.22849318588337" lon="12.251761990395492"><ele>722.4000000000001</ele><time>2026-03-29T08:44:09Z</time></trkpt><trkpt lat="43.22856225574925" lon="12.25176367258385"><ele>722.5999999999999</ele><time>2026-03-29T08:44:10Z</time></trkpt><trkpt lat="43.22869141612071" lon="12.251732778612004"><ele>722.8</ele><time>2026-03-29T08:44:12Z</time></trkpt><trkpt lat="43.22875627099663" lon="12.251672780128606"><ele>723.0</ele><time>2026-03-29T08:44:13Z</time></trkpt><trkpt lat="43.228806803476786" lon="12.251554611923765"><ele>725.2</ele><time>2026-03-29T08:44:14Z</time></trkpt><trkpt lat="43.228870720933365" lon="12.251456346280289"><ele>727.4</ele><time>2026-03-29T08:44:15Z</time></trkpt><trkpt lat="43.22894285724787" lon="12.25135332057782"><ele>729.6</ele><time>2026-03-29T08:44:15.999Z</time></trkpt><trkpt lat="43.22900993284036" lon="12.251260636030874"><ele>731.8000000000001</ele><time>2026-03-29T08:44:16.999Z</time></trkpt><trkpt lat="43.22905418271839" lon="12.251170790805416"><ele>734.0</ele><time>2026-03-29T08:44:17.999Z</time></trkpt><trkpt lat="43.229127848431304" lon="12.251114620667263"><ele>734.0</ele><time>2026-03-29T08:44:18.999Z</time></trkpt><trkpt lat="43.229196415406065" lon="12.251069115559211"><ele>734.0</ele><time>2026-03-29T08:44:19.999Z</time></trkpt><trkpt lat="43.22927866271464" lon="12.251021555639657"><ele>734.0</ele><time>2026-03-29T08:44:20.999Z</time></trkpt><trkpt lat="43.22935045758569" lon="12.250971912489494"><ele>734.0</ele><time>2026-03-29T08:44:21.999Z</time></trkpt><trkpt lat="43.229398041202565" lon="12.250913576878647"><ele>734.0</ele><time>2026-03-29T08:44:22.999Z</time></trkpt><trkpt lat="43.22949937726393" lon="12.250830536030735"><ele>734.0</ele><time>2026-03-29T08:44:24.999Z</time></trkpt><trkpt lat="43.22954001651061" lon="12.250745563389872"><ele>734.0</ele><time>2026-03-29T08:44:25.999Z</time></trkpt><trkpt lat="43.22957540910302" lon="12.250656541481998"><ele>734.0</ele><time>2026-03-29T08:44:26.999Z</time></trkpt><trkpt lat="43.229636038298366" lon="12.25052546559995"><ele>734.0</ele><time>2026-03-29T08:44:28.999Z</time></trkpt><trkpt lat="43.2297154736226" lon="12.250486654433235"><ele>734.0</ele><time>2026-03-29T08:44:29.999Z</time></trkpt><trkpt lat="43.229804402095965" lon="12.250456242223041"><ele>734.0</ele><time>2026-03-29T08:44:30.999Z</time></trkpt><trkpt lat="43.2299093324452" lon="12.250453900645523"><ele>736.1666666666666</ele><time>2026-03-29T08:44:31.999Z</time></trkpt><trkpt lat="43.23000490025268" lon="12.25045154883587"><ele>738.3333333333333</ele><time>2026-03-29T08:44:32.999Z</time></trkpt><trkpt lat="43.23008504088518" lon="12.250464797654141"><ele>740.5</ele><time>2026-03-29T08:44:33.999Z</time></trkpt><trkpt lat="43.23017762763276" lon="12.250498504119422"><ele>742.6666666666666</ele><time>2026-03-29T08:44:34.999Z</time></trkpt><trkpt lat="43.230268670195144" lon="12.250525995755723"><ele>744.8333333333334</ele><time>2026-03-29T08:44:35.999Z</time></trkpt><trkpt lat="43.230343514946604" lon="12.250550740499857"><ele>747.0</ele><time>2026-03-29T08:44:36.999Z</time></trkpt><trkpt lat="43.23041917744115" lon="12.250592792386042"><ele>747.0</ele><time>2026-03-29T08:44:37.999Z</time></trkpt><trkpt lat="43.2305181956639" lon="12.250601569038919"><ele>747.0</ele><time>2026-03-29T08:44:38.999Z</time></trkpt><trkpt lat="43.230628480863814" lon="12.250563314948264"><ele>747.0</ele><time>2026-03-29T08:44:39.999Z</time></trkpt><trkpt lat="43.23073214443591" lon="12.250527514009182"><ele>747.0</ele><time>2026-03-29T08:44:40.999Z</time></trkpt><trkpt lat="43.23082316484183" lon="12.250508459004976"><ele>747.0</ele><time>2026-03-29T08:44:41.999Z</time></trkpt><trkpt lat="43.230894343176224" lon="12.250476884111523"><ele>745.5</ele><time>2026-03-29T08:44:42.999Z</time></trkpt><trkpt lat="43.230968948916136" lon="12.250428843453216"><ele>744.0</ele><time>2026-03-29T08:44:43.999Z</time></trkpt><trkpt lat="43.23105592463896" lon="12.250356906043399"><ele>742.5</ele><time>2026-03-29T08:44:44.999Z</time></trkpt><trkpt lat="43.231131919123314" lon="12.250287117557876"><ele>741.0</ele><time>2026-03-29T08:44:45.999Z</time></trkpt><trkpt lat="43.2311922211501" lon="12.250235746765416"><ele>739.5</ele><time>2026-03-29T08:44:46.999Z</time></trkpt><trkpt lat="43.23126208211946" lon="12.250193950310655"><ele>738.0</ele><time>2026-03-29T08:44:47.999Z</time></trkpt><trkpt lat="43.23136406456578" lon="12.25015723389873"><ele>738.0</ele><time>2026-03-29T08:44:48.999Z</time></trkpt><trkpt lat="43.231471043183085" lon="12.25014117118714"><ele>738.0</ele><time>2026-03-29T08:44:49.999Z</time></trkpt><trkpt lat="43.231568605225746" lon="12.250118188837265"><ele>738.0</ele><time>2026-03-29T08:44:50.999Z</time></trkpt><trkpt lat="43.231646463732474" lon="12.250130715403678"><ele>738.0</ele><time>2026-03-29T08:44:51.999Z</time></trkpt><trkpt lat="43.23170741880023" lon="12.250182146280281"><ele>738.0</ele><time>2026-03-29T08:44:52.999Z</time></trkpt><trkpt lat="43.231775954591505" lon="12.250205377532742"><ele>738.0</ele><time>2026-03-29T08:44:53.999Z</time></trkpt><trkpt lat="43.23184099141295" lon="12.250213187570278"><ele>736.1666666666666</ele><time>2026-03-29T08:44:54.999Z</time></trkpt><trkpt lat="43.23190818027458" lon="12.250196097485551"><ele>734.3333333333334</ele><time>2026-03-29T08:44:55.999Z</time></trkpt><trkpt lat="43.23196660469177" lon="12.250138941122488"><ele>732.5</ele><time>2026-03-29T08:44:56.999Z</time></trkpt><trkpt lat="43.23203355438512" lon="12.250093947172397"><ele>730.6666666666667</ele><time>2026-03-29T08:44:57.999Z</time></trkpt><trkpt lat="43.23210795229687" lon="12.25003357768908"><ele>728.8333333333334</ele><time>2026-03-29T08:44:58.999Z</time></trkpt><trkpt lat="43.23218108486578" lon="12.249977773103007"><ele>727.0</ele><time>2026-03-29T08:44:59.999Z</time></trkpt><trkpt lat="43.23224622109155" lon="12.249930682531264"><ele>727.0</ele><time>2026-03-29T08:45:00.999Z</time></trkpt><trkpt lat="43.23230510260462" lon="12.249874951027168"><ele>727.0</ele><time>2026-03-29T08:45:01.999Z</time></trkpt><trkpt lat="43.232361044686535" lon="12.249797822912102"><ele>727.0</ele><time>2026-03-29T08:45:02.999Z</time></trkpt><trkpt lat="43.23242761585065" lon="12.249731473741216"><ele>727.0</ele><time>2026-03-29T08:45:03.999Z</time></trkpt><trkpt lat="43.23247683946266" lon="12.249640541051365"><ele>727.0</ele><time>2026-03-29T08:45:04.999Z</time></trkpt><trkpt lat="43.232521618207805" lon="12.249565226585805"><ele>727.0</ele><time>2026-03-29T08:45:05.999Z</time></trkpt><trkpt lat="43.23256870176544" lon="12.249507066312104"><ele>728.0</ele><time>2026-03-29T08:45:06.999Z</time></trkpt><trkpt lat="43.23262815577116" lon="12.249458476365342"><ele>729.0</ele><time>2026-03-29T08:45:07.999Z</time></trkpt><trkpt lat="43.232708853086336" lon="12.24940320854446"><ele>730.0</ele><time>2026-03-29T08:45:08.999Z</time></trkpt><trkpt lat="43.232816685123254" lon="12.249329963742353"><ele>731.0</ele><time>2026-03-29T08:45:09.999Z</time></trkpt><trkpt lat="43.232952035741626" lon="12.249292420753187"><ele>732.0</ele><time>2026-03-29T08:45:10.999Z</time></trkpt><trkpt lat="43.23306911074096" lon="12.249250020504773"><ele>729.6</ele><time>2026-03-29T08:45:11.999Z</time></trkpt><trkpt lat="43.23316898164185" lon="12.249217644389805"><ele>727.2</ele><time>2026-03-29T08:45:12.999Z</time></trkpt><trkpt lat="43.233269782907705" lon="12.249187105563355"><ele>724.8</ele><time>2026-03-29T08:45:13.999Z</time></trkpt><trkpt lat="43.23337159200311" lon="12.24915853121245"><ele>722.4</ele><time>2026-03-29T08:45:14.999Z</time></trkpt><trkpt lat="43.23346916551865" lon="12.249134598081675"><ele>720.0</ele><time>2026-03-29T08:45:15.998Z</time></trkpt><trkpt lat="43.23356050071667" lon="12.249114115825016"><ele>720.0</ele><time>2026-03-29T08:45:16.998Z</time></trkpt><trkpt lat="43.23366045277504" lon="12.249094856039664"><ele>720.0</ele><time>2026-03-29T08:45:17.998Z</time></trkpt><trkpt lat="43.23377661980209" lon="12.249080375597947"><ele>720.0</ele><time>2026-03-29T08:45:18.998Z</time></trkpt><trkpt lat="43.23390109030515" lon="12.249084722694267"><ele>720.0</ele><time>2026-03-29T08:45:19.998Z</time></trkpt><trkpt lat="43.23402376866237" lon="12.249116314840784"><ele>719.0</ele><time>2026-03-29T08:45:20.998Z</time></trkpt><trkpt lat="43.23414892191664" lon="12.249160618316457"><ele>718.0</ele><time>2026-03-29T08:45:21.998Z</time></trkpt><trkpt lat="43.23428271881525" lon="12.24919849353133"><ele>717.0</ele><time>2026-03-29T08:45:22.998Z</time></trkpt><trkpt lat="43.23439932674572" lon="12.249236420087827"><ele>716.0</ele><time>2026-03-29T08:45:23.998Z</time></trkpt><trkpt lat="43.23448333004438" lon="12.249298758388449"><ele>716.0</ele><time>2026-03-29T08:45:24.998Z</time></trkpt><trkpt lat="43.23456192223449" lon="12.249311540706799"><ele>716.0</ele><time>2026-03-29T08:45:25.998Z</time></trkpt><trkpt lat="43.23468818478825" lon="12.249282008141424"><ele>716.0</ele><time>2026-03-29T08:45:27.998Z</time></trkpt><trkpt lat="43.234755244758524" lon="12.249233291893185"><ele>716.0</ele><time>2026-03-29T08:45:28.998Z</time></trkpt><trkpt lat="43.2348115033498" lon="12.249135906353409"><ele>716.0</ele><time>2026-03-29T08:45:29.998Z</time></trkpt><trkpt lat="43.234841673091175" lon="12.249014542335484"><ele>717.3333333333333</ele><time>2026-03-29T08:45:30.998Z</time></trkpt><trkpt lat="43.23486957073525" lon="12.248872819764532"><ele>718.6666666666666</ele><time>2026-03-29T08:45:31.998Z</time></trkpt><trkpt lat="43.23489522473579" lon="12.24874983171815"><ele>720.0</ele><time>2026-03-29T08:45:32.998Z</time></trkpt><trkpt lat="43.23492151407452" lon="12.248661315415696"><ele>721.3333333333334</ele><time>2026-03-29T08:45:33.998Z</time></trkpt><trkpt lat="43.23495584007976" lon="12.248580446647049"><ele>722.6666666666667</ele><time>2026-03-29T08:45:34.998Z</time></trkpt><trkpt lat="43.2350091194639" lon="12.248493069991962"><ele>724.0</ele><time>2026-03-29T08:45:35.998Z</time></trkpt><trkpt lat="43.235079968425936" lon="12.248366848683101"><ele>724.0</ele><time>2026-03-29T08:45:36.998Z</time></trkpt><trkpt lat="43.23517851515167" lon="12.248288860436128"><ele>724.0</ele><time>2026-03-29T08:45:37.998Z</time></trkpt><trkpt lat="43.235249524061935" lon="12.248197327377392"><ele>724.0</ele><time>2026-03-29T08:45:38.998Z</time></trkpt><trkpt lat="43.235283980278716" lon="12.248104973990396"><ele>724.0</ele><time>2026-03-29T08:45:39.998Z</time></trkpt><trkpt lat="43.23535134504268" lon="12.247988164852249"><ele>724.0</ele><time>2026-03-29T08:45:41.998Z</time></trkpt><trkpt lat="43.23541257290313" lon="12.247903115511425"><ele>723.2</ele><time>2026-03-29T08:45:43.998Z</time></trkpt><trkpt lat="43.23548921883885" lon="12.247818888950015"><ele>722.4000000000001</ele><time>2026-03-29T08:45:45.998Z</time></trkpt><trkpt lat="43.23557162714093" lon="12.247737241529563"><ele>721.6</ele><time>2026-03-29T08:45:47.998Z</time></trkpt><trkpt lat="43.23563639715959" lon="12.24767370145009"><ele>720.8</ele><time>2026-03-29T08:45:48.998Z</time></trkpt><trkpt lat="43.235698497602684" lon="12.24759589804493"><ele>720.0</ele><time>2026-03-29T08:45:49.998Z</time></trkpt><trkpt lat="43.23577117905421" lon="12.247517614945954"><ele>720.0</ele><time>2026-03-29T08:45:50.998Z</time></trkpt><trkpt lat="43.235837369401494" lon="12.247412925386948"><ele>720.0</ele><time>2026-03-29T08:45:51.998Z</time></trkpt><trkpt lat="43.23591480298796" lon="12.247301529272569"><ele>720.0</ele><time>2026-03-29T08:45:52.998Z</time></trkpt><trkpt lat="43.23598444285586" lon="12.247186071456976"><ele>720.0</ele><time>2026-03-29T08:45:53.998Z</time></trkpt><trkpt lat="43.23605002756708" lon="12.24710174487176"><ele>720.0</ele><time>2026-03-29T08:45:54.998Z</time></trkpt><trkpt lat="43.23612552117024" lon="12.24704380311731"><ele>721.6666666666666</ele><time>2026-03-29T08:45:55.998Z</time></trkpt><trkpt lat="43.23619907928777" lon="12.246993185999427"><ele>723.3333333333334</ele><time>2026-03-29T08:45:56.998Z</time></trkpt><trkpt lat="43.2362672661251" lon="12.246966829918586"><ele>725.0</ele><time>2026-03-29T08:45:57.998Z</time></trkpt><trkpt lat="43.2363176658232" lon="12.24688651754124"><ele>726.6666666666667</ele><time>2026-03-29T08:45:59.998Z</time></trkpt><trkpt lat="43.23635262431526" lon="12.246778303227613"><ele>728.3333333333334</ele><time>2026-03-29T08:46:02Z</time></trkpt><trkpt lat="43.236401459133454" lon="12.246649243544109"><ele>730.0</ele><time>2026-03-29T08:46:04Z</time></trkpt><trkpt lat="43.23644150948904" lon="12.246490348537575"><ele>727.5</ele><time>2026-03-29T08:46:06Z</time></trkpt><trkpt lat="43.23647990132815" lon="12.246338033585339"><ele>725.0</ele><time>2026-03-29T08:46:07Z</time></trkpt><trkpt lat="43.236518184983375" lon="12.246157175379317"><ele>722.5</ele><time>2026-03-29T08:46:08Z</time></trkpt><trkpt lat="43.23653197748883" lon="12.245986639620442"><ele>720.0</ele><time>2026-03-29T08:46:09Z</time></trkpt><trkpt lat="43.23654981294896" lon="12.245868887199059"><ele>720.0</ele><time>2026-03-29T08:46:10Z</time></trkpt><trkpt lat="43.23658264025522" lon="12.245784292823753"><ele>720.0</ele><time>2026-03-29T08:46:11Z</time></trkpt><trkpt lat="43.236580814827505" lon="12.245658948964072"><ele>720.0</ele><time>2026-03-29T08:46:13Z</time></trkpt><trkpt lat="43.23659538170612" lon="12.24555903310387"><ele>720.0</ele><time>2026-03-29T08:46:16Z</time></trkpt><trkpt lat="43.23665922251243" lon="12.245437199792581"><ele>720.0</ele><time>2026-03-29T08:46:18Z</time></trkpt><trkpt lat="43.23672158154204" lon="12.24534923148059"><ele>720.0</ele><time>2026-03-29T08:46:19Z</time></trkpt><trkpt lat="43.23680927688967" lon="12.24528488387331"><ele>721.2</ele><time>2026-03-29T08:46:19.999Z</time></trkpt><trkpt lat="43.236896649356744" lon="12.24517635488041"><ele>722.4</ele><time>2026-03-29T08:46:20.999Z</time></trkpt><trkpt lat="43.23699548863786" lon="12.245091679526077"><ele>723.5999999999999</ele><time>2026-03-29T08:46:21.999Z</time></trkpt><trkpt lat="43.23708918615994" lon="12.245019419965548"><ele>724.8</ele><time>2026-03-29T08:46:22.999Z</time></trkpt><trkpt lat="43.23717365092803" lon="12.244955523027398"><ele>726.0</ele><time>2026-03-29T08:46:23.999Z</time></trkpt><trkpt lat="43.23726572774853" lon="12.244881735575557"><ele>723.8</ele><time>2026-03-29T08:46:24.999Z</time></trkpt><trkpt lat="43.23736575821302" lon="12.244800847036203"><ele>721.5999999999999</ele><time>2026-03-29T08:46:25.999Z</time></trkpt><trkpt lat="43.23746320028337" lon="12.244725905362454"><ele>719.4</ele><time>2026-03-29T08:46:26.999Z</time></trkpt><trkpt lat="43.23755679353371" lon="12.244655052052709"><ele>717.2</ele><time>2026-03-29T08:46:27.999Z</time></trkpt><trkpt lat="43.2376556848614" lon="12.244586543454071"><ele>715.0</ele><time>2026-03-29T08:46:28.999Z</time></trkpt><trkpt lat="43.23775776699719" lon="12.244510553471455"><ele>715.0</ele><time>2026-03-29T08:46:29.999Z</time></trkpt><trkpt lat="43.23786745185301" lon="12.24442589566024"><ele>715.0</ele><time>2026-03-29T08:46:30.999Z</time></trkpt><trkpt lat="43.23797814790725" lon="12.244339550605138"><ele>715.0</ele><time>2026-03-29T08:46:31.999Z</time></trkpt><trkpt lat="43.23807710061684" lon="12.244263765472061"><ele>715.0</ele><time>2026-03-29T08:46:32.999Z</time></trkpt><trkpt lat="43.238177942239425" lon="12.244198274987847"><ele>715.25</ele><time>2026-03-29T08:46:33.999Z</time></trkpt><trkpt lat="43.23829387820851" lon="12.244140556122096"><ele>715.5</ele><time>2026-03-29T08:46:34.999Z</time></trkpt><trkpt lat="43.23842081433605" lon="12.244102547743475"><ele>715.75</ele><time>2026-03-29T08:46:35.999Z</time></trkpt><trkpt lat="43.23854326142982" lon="12.244074803470784"><ele>716.0</ele><time>2026-03-29T08:46:36.999Z</time></trkpt><trkpt lat="43.23865445628261" lon="12.244042455142337"><ele>716.0</ele><time>2026-03-29T08:46:37.999Z</time></trkpt><trkpt lat="43.23876617231747" lon="12.243994026717031"><ele>716.0</ele><time>2026-03-29T08:46:38.999Z</time></trkpt><trkpt lat="43.23887923150004" lon="12.243912566067394"><ele>716.0</ele><time>2026-03-29T08:46:39.999Z</time></trkpt><trkpt lat="43.238989463008494" lon="12.243793491468303"><ele>716.0</ele><time>2026-03-29T08:46:40.999Z</time></trkpt><trkpt lat="43.239088584505666" lon="12.243670170323748"><ele>714.0</ele><time>2026-03-29T08:46:41.999Z</time></trkpt><trkpt lat="43.23918418016602" lon="12.243554763408044"><ele>712.0</ele><time>2026-03-29T08:46:42.999Z</time></trkpt><trkpt lat="43.23927968338278" lon="12.243443023474113"><ele>710.0</ele><time>2026-03-29T08:46:43.999Z</time></trkpt><trkpt lat="43.23937732968443" lon="12.243326174629743"><ele>708.0</ele><time>2026-03-29T08:46:44.999Z</time></trkpt><trkpt lat="43.23948368279764" lon="12.24321015954557"><ele>706.25</ele><time>2026-03-29T08:46:45.999Z</time></trkpt><trkpt lat="43.239600319985016" lon="12.243094611738599"><ele>704.5</ele><time>2026-03-29T08:46:46.999Z</time></trkpt><trkpt lat="43.23971501222646" lon="12.242982512319712"><ele>702.75</ele><time>2026-03-29T08:46:47.999Z</time></trkpt><trkpt lat="43.23982316497333" lon="12.242878526709395"><ele>701.0</ele><time>2026-03-29T08:46:48.999Z</time></trkpt><trkpt lat="43.239926178826124" lon="12.242780504574995"><ele>700.1999999999999</ele><time>2026-03-29T08:46:49.999Z</time></trkpt><trkpt lat="43.24002501749647" lon="12.242685264920672"><ele>699.4</ele><time>2026-03-29T08:46:50.999Z</time></trkpt><trkpt lat="43.24011867151213" lon="12.242592081880717"><ele>698.6</ele><time>2026-03-29T08:46:51.999Z</time></trkpt><trkpt lat="43.240206160049205" lon="12.242510860817509"><ele>697.8</ele><time>2026-03-29T08:46:52.999Z</time></trkpt><trkpt lat="43.24028852402459" lon="12.242440254756714"><ele>697.0</ele><time>2026-03-29T08:46:53.999Z</time></trkpt><trkpt lat="43.24036024503255" lon="12.242387166452941"><ele>697.0</ele><time>2026-03-29T08:46:54.999Z</time></trkpt><trkpt lat="43.240423639635615" lon="12.24235073352871"><ele>697.0</ele><time>2026-03-29T08:46:55.999Z</time></trkpt><trkpt lat="43.2404950320439" lon="12.242349813391542"><ele>697.0</ele><time>2026-03-29T08:46:56.999Z</time></trkpt><trkpt lat="43.24055588170268" lon="12.24222936380342"><ele>697.0</ele><time>2026-03-29T08:46:57.999Z</time></trkpt><trkpt lat="43.240634038502996" lon="12.242129132830062"><ele>697.0</ele><time>2026-03-29T08:46:58.999Z</time></trkpt><trkpt lat="43.24072232267895" lon="12.24202421582361"><ele>697.8</ele><time>2026-03-29T08:46:59.999Z</time></trkpt><trkpt lat="43.24080020604205" lon="12.24193117323735"><ele>698.6</ele><time>2026-03-29T08:47:00.999Z</time></trkpt><trkpt lat="43.24086984585644" lon="12.2418458571733"><ele>699.4</ele><time>2026-03-29T08:47:01.999Z</time></trkpt><trkpt lat="43.24094134018296" lon="12.241765315502557"><ele>700.1999999999999</ele><time>2026-03-29T08:47:02.999Z</time></trkpt><trkpt lat="43.2410285070553" lon="12.241699248527086"><ele>701.0</ele><time>2026-03-29T08:47:03.999Z</time></trkpt><trkpt lat="43.24113800663365" lon="12.241669585597338"><ele>701.0</ele><time>2026-03-29T08:47:04.999Z</time></trkpt><trkpt lat="43.24124975061562" lon="12.241620770524735"><ele>701.0</ele><time>2026-03-29T08:47:05.999Z</time></trkpt><trkpt lat="43.24136682417065" lon="12.241536337196465"><ele>701.0</ele><time>2026-03-29T08:47:06.999Z</time></trkpt><trkpt lat="43.24149360694768" lon="12.24145600830107"><ele>701.0</ele><time>2026-03-29T08:47:07.999Z</time></trkpt><trkpt lat="43.2416244274517" lon="12.24139053180084"><ele>702.4</ele><time>2026-03-29T08:47:08.999Z</time></trkpt><trkpt lat="43.24172861035257" lon="12.241317892908276"><ele>703.8</ele><time>2026-03-29T08:47:09.999Z</time></trkpt><trkpt lat="43.241828550367224" lon="12.241249659807924"><ele>705.1999999999999</ele><time>2026-03-29T08:47:10.999Z</time></trkpt><trkpt lat="43.24191051948641" lon="12.241180687275648"><ele>706.5999999999999</ele><time>2026-03-29T08:47:11.999Z</time></trkpt><trkpt lat="43.24199027218726" lon="12.241153455170403"><ele>708.0</ele><time>2026-03-29T08:47:12.999Z</time></trkpt><trkpt lat="43.24207611586627" lon="12.241144712187259"><ele>708.0</ele><time>2026-03-29T08:47:13.999Z</time></trkpt><trkpt lat="43.24216499540526" lon="12.241145660053958"><ele>708.0</ele><time>2026-03-29T08:47:14.999Z</time></trkpt><trkpt lat="43.24226349976307" lon="12.241165812428633"><ele>708.0</ele><time>2026-03-29T08:47:15.999Z</time></trkpt><trkpt lat="43.24236898434749" lon="12.241185623702597"><ele>708.0</ele><time>2026-03-29T08:47:16.999Z</time></trkpt><trkpt lat="43.24248447231478" lon="12.24121750011823"><ele>708.0</ele><time>2026-03-29T08:47:17.999Z</time></trkpt><trkpt lat="43.24260769883758" lon="12.2412419407188"><ele>708.5</ele><time>2026-03-29T08:47:18.999Z</time></trkpt><trkpt lat="43.24272535898908" lon="12.241262869684121"><ele>709.0</ele><time>2026-03-29T08:47:19.999Z</time></trkpt><trkpt lat="43.24283080931244" lon="12.241273719178722"><ele>709.5</ele><time>2026-03-29T08:47:20.999Z</time></trkpt><trkpt lat="43.24294081083621" lon="12.241285516049812"><ele>710.0</ele><time>2026-03-29T08:47:21.999Z</time></trkpt><trkpt lat="43.24306908213521" lon="12.24131901967357"><ele>708.75</ele><time>2026-03-29T08:47:22.998Z</time></trkpt><trkpt lat="43.243208589848386" lon="12.241355891650842"><ele>707.5</ele><time>2026-03-29T08:47:23.998Z</time></trkpt><trkpt lat="43.24334405780873" lon="12.241406174592075"><ele>706.25</ele><time>2026-03-29T08:47:24.998Z</time></trkpt><trkpt lat="43.24345486581813" lon="12.241493575993557"><ele>705.0</ele><time>2026-03-29T08:47:25.998Z</time></trkpt><trkpt lat="43.24355562176196" lon="12.241556861867874"><ele>706.5</ele><time>2026-03-29T08:47:26.998Z</time></trkpt><trkpt lat="43.24367125711479" lon="12.241611851097508"><ele>708.0</ele><time>2026-03-29T08:47:27.998Z</time></trkpt><trkpt lat="43.243774627513005" lon="12.241695926890378"><ele>709.5</ele><time>2026-03-29T08:47:28.998Z</time></trkpt><trkpt lat="43.2438785125082" lon="12.241785737571465"><ele>711.0</ele><time>2026-03-29T08:47:29.998Z</time></trkpt><trkpt lat="43.243973045526296" lon="12.24188931897977"><ele>711.0</ele><time>2026-03-29T08:47:30.998Z</time></trkpt><trkpt lat="43.244056650132556" lon="12.241987392251353"><ele>711.0</ele><time>2026-03-29T08:47:31.998Z</time></trkpt><trkpt lat="43.24414674002713" lon="12.242080003884416"><ele>711.0</ele><time>2026-03-29T08:47:32.998Z</time></trkpt><trkpt lat="43.244272689486294" lon="12.242169108835167"><ele>711.0</ele><time>2026-03-29T08:47:33.998Z</time></trkpt><trkpt lat="43.24440287418362" lon="12.242243153075936"><ele>713.3333333333334</ele><time>2026-03-29T08:47:34.998Z</time></trkpt><trkpt lat="43.244537696621954" lon="12.242323142805908"><ele>715.6666666666667</ele><time>2026-03-29T08:47:35.998Z</time></trkpt><trkpt lat="43.244683824839896" lon="12.242384366692324"><ele>718.0</ele><time>2026-03-29T08:47:36.998Z</time></trkpt><trkpt lat="43.24482677477006" lon="12.242463923891881"><ele>718.0</ele><time>2026-03-29T08:47:37.998Z</time></trkpt><trkpt lat="43.24495457205994" lon="12.242509647861427"><ele>718.0</ele><time>2026-03-29T08:47:38.998Z</time></trkpt><trkpt lat="43.24506604799236" lon="12.242547015730437"><ele>718.0</ele><time>2026-03-29T08:47:39.998Z</time></trkpt><trkpt lat="43.24517967754029" lon="12.242609812953775"><ele>718.0</ele><time>2026-03-29T08:47:40.998Z</time></trkpt><trkpt lat="43.24530442063461" lon="12.242697500448838"><ele>718.0</ele><time>2026-03-29T08:47:41.998Z</time></trkpt><trkpt lat="43.24543142977976" lon="12.242810176046065"><ele>718.0</ele><time>2026-03-29T08:47:42.998Z</time></trkpt><trkpt lat="43.24556888430667" lon="12.242934665412745"><ele>718.0</ele><time>2026-03-29T08:47:43.998Z</time></trkpt><trkpt lat="43.245700267384294" lon="12.243048895855127"><ele>718.25</ele><time>2026-03-29T08:47:44.998Z</time></trkpt><trkpt lat="43.245823501132435" lon="12.243119969124162"><ele>718.5</ele><time>2026-03-29T08:47:45.998Z</time></trkpt><trkpt lat="43.24593463566532" lon="12.243191117786713"><ele>718.75</ele><time>2026-03-29T08:47:46.998Z</time></trkpt><trkpt lat="43.246051021551054" lon="12.243274801269163"><ele>719.0</ele><time>2026-03-29T08:47:47.998Z</time></trkpt><trkpt lat="43.2461845542862" lon="12.243293663940278"><ele>720.3333333333333</ele><time>2026-03-29T08:47:48.998Z</time></trkpt><trkpt lat="43.246323031543554" lon="12.243330264764628"><ele>721.6666666666666</ele><time>2026-03-29T08:47:49.998Z</time></trkpt><trkpt lat="43.246474124258434" lon="12.243366297387027"><ele>723.0</ele><time>2026-03-29T08:47:50.998Z</time></trkpt><trkpt lat="43.24664303250217" lon="12.243409877050459"><ele>724.25</ele><time>2026-03-29T08:47:51.998Z</time></trkpt><trkpt lat="43.246792484001254" lon="12.243453369821973"><ele>725.5</ele><time>2026-03-29T08:47:52.998Z</time></trkpt><trkpt lat="43.2469158225595" lon="12.243489789151997"><ele>726.75</ele><time>2026-03-29T08:47:53.998Z</time></trkpt><trkpt lat="43.24703483730405" lon="12.243518487938523"><ele>728.0</ele><time>2026-03-29T08:47:54.998Z</time></trkpt><trkpt lat="43.247144560189774" lon="12.243542132399835"><ele>728.0</ele><time>2026-03-29T08:47:55.998Z</time></trkpt><trkpt lat="43.247248060143086" lon="12.243565876442158"><ele>728.0</ele><time>2026-03-29T08:47:56.998Z</time></trkpt><trkpt lat="43.24735170167444" lon="12.24361516389854"><ele>728.0</ele><time>2026-03-29T08:47:57.998Z</time></trkpt><trkpt lat="43.247447670426965" lon="12.243704090122542"><ele>728.0</ele><time>2026-03-29T08:47:58.998Z</time></trkpt><trkpt lat="43.247540731235915" lon="12.243819732715552"><ele>728.1666666666666</ele><time>2026-03-29T08:47:59.998Z</time></trkpt><trkpt lat="43.24762132196669" lon="12.243921513332264"><ele>728.3333333333333</ele><time>2026-03-29T08:48:00.998Z</time></trkpt><trkpt lat="43.2476878383308" lon="12.244004770926457"><ele>728.5</ele><time>2026-03-29T08:48:01.998Z</time></trkpt><trkpt lat="43.247747622219684" lon="12.244070130515254"><ele>728.6666666666666</ele><time>2026-03-29T08:48:02.998Z</time></trkpt><trkpt lat="43.247806341967134" lon="12.244107626643421"><ele>728.8333333333334</ele><time>2026-03-29T08:48:03.998Z</time></trkpt><trkpt lat="43.24790697775938" lon="12.244102565288115"><ele>729.0</ele><time>2026-03-29T08:48:05.998Z</time></trkpt><trkpt lat="43.24796305634454" lon="12.244029802944238"><ele>729.6666666666666</ele><time>2026-03-29T08:48:07Z</time></trkpt><trkpt lat="43.24797554387859" lon="12.2439130194428"><ele>730.3333333333334</ele><time>2026-03-29T08:48:08Z</time></trkpt><trkpt lat="43.24798718732643" lon="12.243820754439172"><ele>731.0</ele><time>2026-03-29T08:48:09Z</time></trkpt><trkpt lat="43.247997053424506" lon="12.243704998178751"><ele>731.6666666666667</ele><time>2026-03-29T08:48:10Z</time></trkpt><trkpt lat="43.248020342546155" lon="12.24356999452863"><ele>732.3333333333334</ele><time>2026-03-29T08:48:11Z</time></trkpt><trkpt lat="43.24805807888969" lon="12.243457834466895"><ele>733.0</ele><time>2026-03-29T08:48:12Z</time></trkpt><trkpt lat="43.2481219775295" lon="12.243363735092053"><ele>734.4</ele><time>2026-03-29T08:48:13Z</time></trkpt><trkpt lat="43.24820687353302" lon="12.243242954271567"><ele>735.8</ele><time>2026-03-29T08:48:14Z</time></trkpt><trkpt lat="43.24828710866617" lon="12.243139731900568"><ele>737.2</ele><time>2026-03-29T08:48:15Z</time></trkpt><trkpt lat="43.24833440913034" lon="12.243050691129065"><ele>738.6</ele><time>2026-03-29T08:48:16Z</time></trkpt><trkpt lat="43.248465362132094" lon="12.243001719535807"><ele>740.0</ele><time>2026-03-29T08:48:18Z</time></trkpt><trkpt lat="43.24856532350462" lon="12.243010091345294"><ele>740.0</ele><time>2026-03-29T08:48:19Z</time></trkpt><trkpt lat="43.248682286759184" lon="12.243064995380351"><ele>740.0</ele><time>2026-03-29T08:48:20Z</time></trkpt><trkpt lat="43.24879762589679" lon="12.243137381062215"><ele>740.0</ele><time>2026-03-29T08:48:21Z</time></trkpt><trkpt lat="43.2488923706895" lon="12.243241967586927"><ele>740.0</ele><time>2026-03-29T08:48:22Z</time></trkpt><trkpt lat="43.24894083183734" lon="12.243337465695573"><ele>743.8</ele><time>2026-03-29T08:48:23Z</time></trkpt><trkpt lat="43.248998889615486" lon="12.243390871711215"><ele>747.6</ele><time>2026-03-29T08:48:23.999Z</time></trkpt><trkpt lat="43.24909866202988" lon="12.243414313190705"><ele>751.4000000000001</ele><time>2026-03-29T08:48:24.999Z</time></trkpt><trkpt lat="43.24923387693204" lon="12.243422430552435"><ele>755.2</ele><time>2026-03-29T08:48:25.999Z</time></trkpt><trkpt lat="43.24937618814531" lon="12.243426508758557"><ele>759.0</ele><time>2026-03-29T08:48:26.999Z</time></trkpt><trkpt lat="43.24955202361431" lon="12.243375716342467"><ele>759.0</ele><time>2026-03-29T08:48:27.999Z</time></trkpt><trkpt lat="43.249755325537166" lon="12.24339725710393"><ele>759.0</ele><time>2026-03-29T08:48:28.999Z</time></trkpt><trkpt lat="43.24992250687997" lon="12.243408104305429"><ele>759.0</ele><time>2026-03-29T08:48:29.999Z</time></trkpt><trkpt lat="43.250065082676635" lon="12.243412516979616"><ele>759.4000000000001</ele><time>2026-03-29T08:48:30.999Z</time></trkpt><trkpt lat="43.2501898945134" lon="12.243438571014917"><ele>759.8</ele><time>2026-03-29T08:48:31.999Z</time></trkpt><trkpt lat="43.2502917950072" lon="12.243461466035903"><ele>760.2</ele><time>2026-03-29T08:48:32.999Z</time></trkpt><trkpt lat="43.2503684161077" lon="12.243465191081881"><ele>760.5999999999999</ele><time>2026-03-29T08:48:33.999Z</time></trkpt><trkpt lat="43.25043697541926" lon="12.243451576005352"><ele>761.0</ele><time>2026-03-29T08:48:34.999Z</time></trkpt><trkpt lat="43.25051075003865" lon="12.243490488753478"><ele>761.0</ele><time>2026-03-29T08:48:35.999Z</time></trkpt><trkpt lat="43.25060579170348" lon="12.24353126686993"><ele>761.0</ele><time>2026-03-29T08:48:36.999Z</time></trkpt><trkpt lat="43.250710817169036" lon="12.243577182702534"><ele>761.0</ele><time>2026-03-29T08:48:37.999Z</time></trkpt><trkpt lat="43.25080553454525" lon="12.243618592020157"><ele>761.0</ele><time>2026-03-29T08:48:38.999Z</time></trkpt><trkpt lat="43.25081570848221" lon="12.243754537344548"><ele>761.0</ele><time>2026-03-29T08:48:39.999Z</time></trkpt><trkpt lat="43.25092971064797" lon="12.243882596872401"><ele>768.0</ele><time>2026-03-29T08:48:40.999Z</time></trkpt><trkpt lat="43.2511054348131" lon="12.243989521998099"><ele>775.0</ele><time>2026-03-29T08:48:41.999Z</time></trkpt><trkpt lat="43.25125560837167" lon="12.244039613826295"><ele>782.0</ele><time>2026-03-29T08:48:42.999Z</time></trkpt><trkpt lat="43.25140776936879" lon="12.244073807323206"><ele>783.5</ele><time>2026-03-29T08:48:43.999Z</time></trkpt><trkpt lat="43.25153679785276" lon="12.24409584127788"><ele>785.0</ele><time>2026-03-29T08:48:44.999Z</time></trkpt><trkpt lat="43.2516737516411" lon="12.24411264046401"><ele>786.5</ele><time>2026-03-29T08:48:45.999Z</time></trkpt><trkpt lat="43.25183459130574" lon="12.244125831808491"><ele>788.0</ele><time>2026-03-29T08:48:46.999Z</time></trkpt><trkpt lat="43.251980711459765" lon="12.2441351924781"><ele>788.0</ele><time>2026-03-29T08:48:47.999Z</time></trkpt><trkpt lat="43.25209731339109" lon="12.24414038609138"><ele>788.0</ele><time>2026-03-29T08:48:48.999Z</time></trkpt><trkpt lat="43.25220574670923" lon="12.244145215866721"><ele>788.0</ele><time>2026-03-29T08:48:49.999Z</time></trkpt><trkpt lat="43.25230897476317" lon="12.244149813795767"><ele>788.0</ele><time>2026-03-29T08:48:50.999Z</time></trkpt><trkpt lat="43.252428103585" lon="12.244155119979325"><ele>788.0</ele><time>2026-03-29T08:48:51.999Z</time></trkpt><trkpt lat="43.25256319565808" lon="12.244160229883953"><ele>787.4</ele><time>2026-03-29T08:48:52.999Z</time></trkpt><trkpt lat="43.252683376300645" lon="12.244161002559819"><ele>786.8</ele><time>2026-03-29T08:48:53.999Z</time></trkpt><trkpt lat="43.252785509499326" lon="12.244162714375182"><ele>786.2</ele><time>2026-03-29T08:48:54.999Z</time></trkpt><trkpt lat="43.25286314304774" lon="12.244172157449208"><ele>785.6</ele><time>2026-03-29T08:48:55.999Z</time></trkpt><trkpt lat="43.252934579018316" lon="12.244191769996906"><ele>785.0</ele><time>2026-03-29T08:48:56.999Z</time></trkpt><trkpt lat="43.25303160251029" lon="12.24425007852503"><ele>785.0</ele><time>2026-03-29T08:48:58.999Z</time></trkpt><trkpt lat="43.253095695180804" lon="12.244296685628997"><ele>785.0</ele><time>2026-03-29T08:48:59.999Z</time></trkpt><trkpt lat="43.25316363100641" lon="12.244354507405564"><ele>785.0</ele><time>2026-03-29T08:49:00.999Z</time></trkpt><trkpt lat="43.25327385522691" lon="12.244447651724416"><ele>785.0</ele><time>2026-03-29T08:49:01.999Z</time></trkpt><trkpt lat="43.25337122215852" lon="12.24453526320605"><ele>785.0</ele><time>2026-03-29T08:49:02.999Z</time></trkpt><trkpt lat="43.25345336334547" lon="12.24461442617494"><ele>785.8</ele><time>2026-03-29T08:49:03.999Z</time></trkpt><trkpt lat="43.25353525820613" lon="12.244694159289644"><ele>786.6</ele><time>2026-03-29T08:49:04.999Z</time></trkpt><trkpt lat="43.25365860408968" lon="12.244744527575453"><ele>787.4000000000001</ele><time>2026-03-29T08:49:06.999Z</time></trkpt><trkpt lat="43.253722126049496" lon="12.244761634428171"><ele>788.2</ele><time>2026-03-29T08:49:07.999Z</time></trkpt><trkpt lat="43.25376432346751" lon="12.244881960278274"><ele>789.0</ele><time>2026-03-29T08:49:09.999Z</time></trkpt><trkpt lat="43.25379315017779" lon="12.244961304656563"><ele>789.0</ele><time>2026-03-29T08:49:10.999Z</time></trkpt><trkpt lat="43.25384763685048" lon="12.245038204348933"><ele>789.0</ele><time>2026-03-29T08:49:12.999Z</time></trkpt><trkpt lat="43.25391218077225" lon="12.245091048165676"><ele>789.0</ele><time>2026-03-29T08:49:13.999Z</time></trkpt><trkpt lat="43.2540051828724" lon="12.245147035381748"><ele>789.0</ele><time>2026-03-29T08:49:15.999Z</time></trkpt><trkpt lat="43.25459405718839" lon="12.24474139390786"><ele>783.1666666666666</ele><time>2026-03-29T08:49:16.999Z</time></trkpt><trkpt lat="43.25467623741829" lon="12.244720002116223"><ele>777.3333333333334</ele><time>2026-03-29T08:49:17.999Z</time></trkpt><trkpt lat="43.254802159350795" lon="12.24471814406078"><ele>771.5</ele><time>2026-03-29T08:49:19.999Z</time></trkpt><trkpt lat="43.25488521193322" lon="12.244736787958871"><ele>765.6666666666667</ele><time>2026-03-29T08:49:20.999Z</time></trkpt><trkpt lat="43.25495319729886" lon="12.244742536208623"><ele>759.8333333333334</ele><time>2026-03-29T08:49:21.999Z</time></trkpt><trkpt lat="43.25502929918607" lon="12.244732084952615"><ele>754.0</ele><time>2026-03-29T08:49:22.999Z</time></trkpt><trkpt lat="43.255093881463814" lon="12.24471823298841"><ele>754.6</ele><time>2026-03-29T08:49:23.999Z</time></trkpt><trkpt lat="43.255196207010236" lon="12.244720962192119"><ele>755.2</ele><time>2026-03-29T08:49:25.999Z</time></trkpt><trkpt lat="43.25529934244267" lon="12.244768725416298"><ele>755.8000000000001</ele><time>2026-03-29T08:49:27.998Z</time></trkpt><trkpt lat="43.255375451731425" lon="12.244840014184797"><ele>756.4000000000001</ele><time>2026-03-29T08:49:29.998Z</time></trkpt><trkpt lat="43.2554826220345" lon="12.244841056901347"><ele>757.0</ele><time>2026-03-29T08:49:31.998Z</time></trkpt><trkpt lat="43.25558481421752" lon="12.244745925910053"><ele>755.2</ele><time>2026-03-29T08:49:33.998Z</time></trkpt><trkpt lat="43.25570066867066" lon="12.244695821560075"><ele>753.4000000000001</ele><time>2026-03-29T08:49:35.998Z</time></trkpt><trkpt lat="43.25580948185058" lon="12.244734339375126"><ele>751.5999999999999</ele><time>2026-03-29T08:49:37.998Z</time></trkpt><trkpt lat="43.25587931287051" lon="12.244775269424018"><ele>749.8</ele><time>2026-03-29T08:49:39.998Z</time></trkpt><trkpt lat="43.25593915175797" lon="12.244899626214774"><ele>748.0</ele><time>2026-03-29T08:49:41.998Z</time></trkpt><trkpt lat="43.25600405761015" lon="12.245053804772876"><ele>748.0</ele><time>2026-03-29T08:49:43.998Z</time></trkpt><trkpt lat="43.25609047027349" lon="12.245147024727812"><ele>748.0</ele><time>2026-03-29T08:49:44.998Z</time></trkpt><trkpt lat="43.256163749469025" lon="12.245232693274122"><ele>748.0</ele><time>2026-03-29T08:49:45.998Z</time></trkpt><trkpt lat="43.25620820881361" lon="12.24531529870323"><ele>748.0</ele><time>2026-03-29T08:49:46.998Z</time></trkpt><trkpt lat="43.25623873350218" lon="12.245409244246941"><ele>748.0</ele><time>2026-03-29T08:49:48.998Z</time></trkpt><trkpt lat="43.25631186547321" lon="12.245353006220926"><ele>748.0</ele><time>2026-03-29T08:49:52.998Z</time></trkpt><trkpt lat="43.256474699128525" lon="12.24519477704304"><ele>745.8333333333334</ele><time>2026-03-29T08:49:54.998Z</time></trkpt><trkpt lat="43.25653588596696" lon="12.245110176178672"><ele>743.6666666666667</ele><time>2026-03-29T08:49:56.998Z</time></trkpt><trkpt lat="43.25658940431516" lon="12.245057576791186"><ele>741.5</ele><time>2026-03-29T08:50:00.998Z</time></trkpt><trkpt lat="43.25666340342437" lon="12.245016917293015"><ele>739.3333333333334</ele><time>2026-03-29T08:50:13Z</time></trkpt><trkpt lat="43.2567376168554" lon="12.244993224097064"><ele>737.1666666666666</ele><time>2026-03-29T08:50:15Z</time></trkpt><trkpt lat="43.25681825757466" lon="12.244918353452576"><ele>735.0</ele><time>2026-03-29T08:50:17Z</time></trkpt><trkpt lat="43.256893792903476" lon="12.244878332476343"><ele>735.0</ele><time>2026-03-29T08:50:19Z</time></trkpt><trkpt lat="43.2569580050491" lon="12.244803391697777"><ele>735.0</ele><time>2026-03-29T08:50:21Z</time></trkpt><trkpt lat="43.25702780845839" lon="12.244715849579388"><ele>735.0</ele><time>2026-03-29T08:50:23Z</time></trkpt><trkpt lat="43.25710394370971" lon="12.244650314097546"><ele>735.0</ele><time>2026-03-29T08:50:25Z</time></trkpt><trkpt lat="43.25717754026083" lon="12.244557387549838"><ele>735.0</ele><time>2026-03-29T08:50:27Z</time></trkpt><trkpt lat="43.257237814245244" lon="12.244442388377587"><ele>729.2</ele><time>2026-03-29T08:50:28.999Z</time></trkpt><trkpt lat="43.25730089686167" lon="12.24438650225263"><ele>723.4</ele><time>2026-03-29T08:50:30.999Z</time></trkpt><trkpt lat="43.25738337933418" lon="12.244311932004626"><ele>717.5999999999999</ele><time>2026-03-29T08:50:32.999Z</time></trkpt><trkpt lat="43.25745099332581" lon="12.244213471797282"><ele>711.8</ele><time>2026-03-29T08:50:34.999Z</time></trkpt><trkpt lat="43.25749479117216" lon="12.24414644340843"><ele>706.0</ele><time>2026-03-29T08:50:35.999Z</time></trkpt><trkpt lat="43.25757470166516" lon="12.24402659395615"><ele>704.8</ele><time>2026-03-29T08:50:37.999Z</time></trkpt><trkpt lat="43.25762179601284" lon="12.243960022502542"><ele>703.5999999999999</ele><time>2026-03-29T08:50:38.999Z</time></trkpt><trkpt lat="43.25766418404863" lon="12.243892293662164"><ele>702.4</ele><time>2026-03-29T08:50:39.999Z</time></trkpt><trkpt lat="43.25775521053297" lon="12.243795862015789"><ele>701.2</ele><time>2026-03-29T08:50:41.999Z</time></trkpt><trkpt lat="43.2578256148211" lon="12.24370428214926"><ele>700.0</ele><time>2026-03-29T08:50:43.999Z</time></trkpt><trkpt lat="43.257926794135756" lon="12.243647927131812"><ele>700.0</ele><time>2026-03-29T08:50:45.999Z</time></trkpt><trkpt lat="43.25801702654642" lon="12.243595441479263"><ele>700.0</ele><time>2026-03-29T08:50:47.999Z</time></trkpt><trkpt lat="43.2581034443708" lon="12.243534108250534"><ele>700.0</ele><time>2026-03-29T08:50:49.999Z</time></trkpt><trkpt lat="43.258179907778775" lon="12.24350633334944"><ele>700.0</ele><time>2026-03-29T08:50:51.999Z</time></trkpt><trkpt lat="43.258290088894064" lon="12.243543622512068"><ele>700.0</ele><time>2026-03-29T08:50:53.999Z</time></trkpt><trkpt lat="43.258373769784676" lon="12.243555622524514"><ele>697.2</ele><time>2026-03-29T08:50:55.999Z</time></trkpt><trkpt lat="43.25841873681477" lon="12.243490682738223"><ele>694.4</ele><time>2026-03-29T08:50:57.999Z</time></trkpt><trkpt lat="43.258424490781834" lon="12.24332026943154"><ele>691.5999999999999</ele><time>2026-03-29T08:50:59.999Z</time></trkpt><trkpt lat="43.258387919177444" lon="12.243192104049054"><ele>688.8</ele><time>2026-03-29T08:51:00.999Z</time></trkpt><trkpt lat="43.258389476081724" lon="12.243032012903788"><ele>686.0</ele><time>2026-03-29T08:51:02.999Z</time></trkpt><trkpt lat="43.25836438145138" lon="12.242910520746571"><ele>685.0</ele><time>2026-03-29T08:51:04.999Z</time></trkpt><trkpt lat="43.25833739144262" lon="12.24280608317983"><ele>684.0</ele><time>2026-03-29T08:51:06.999Z</time></trkpt><trkpt lat="43.2583505456009" lon="12.242697648456724"><ele>683.0</ele><time>2026-03-29T08:51:08.999Z</time></trkpt><trkpt lat="43.25839984490421" lon="12.242599639138126"><ele>682.0</ele><time>2026-03-29T08:51:10.999Z</time></trkpt><trkpt lat="43.25842843516508" lon="12.242472143300047"><ele>681.0</ele><time>2026-03-29T08:51:12.999Z</time></trkpt><trkpt lat="43.25844567995516" lon="12.24232790679835"><ele>679.0</ele><time>2026-03-29T08:51:14.999Z</time></trkpt><trkpt lat="43.258447725605876" lon="12.242196782522297"><ele>677.0</ele><time>2026-03-29T08:51:16.999Z</time></trkpt><trkpt lat="43.2584650684743" lon="12.242077344872882"><ele>675.0</ele><time>2026-03-29T08:51:18.999Z</time></trkpt><trkpt lat="43.25851201012307" lon="12.241998088263067"><ele>673.0</ele><time>2026-03-29T08:51:20.999Z</time></trkpt><trkpt lat="43.258545338505144" lon="12.2419162096253"><ele>671.0</ele><time>2026-03-29T08:51:24.999Z</time></trkpt><trkpt lat="43.25865091694461" lon="12.241856032499168"><ele>669.0</ele><time>2026-03-29T08:51:38.998Z</time></trkpt><trkpt lat="43.25871053365805" lon="12.241824162806736"><ele>669.0</ele><time>2026-03-29T08:51:39.998Z</time></trkpt><trkpt lat="43.258807914647626" lon="12.241756256091378"><ele>669.0</ele><time>2026-03-29T08:51:41.998Z</time></trkpt><trkpt lat="43.25887502263772" lon="12.241707676179344"><ele>669.0</ele><time>2026-03-29T08:51:43.998Z</time></trkpt><trkpt lat="43.25897951390734" lon="12.241733435996023"><ele>669.0</ele><time>2026-03-29T08:51:45.998Z</time></trkpt><trkpt lat="43.259070684229556" lon="12.241798720001862"><ele>669.0</ele><time>2026-03-29T08:51:47.998Z</time></trkpt><trkpt lat="43.25913039077727" lon="12.241835247144687"><ele>668.0</ele><time>2026-03-29T08:51:49.998Z</time></trkpt><trkpt lat="43.259248826123226" lon="12.241880340348564"><ele>667.0</ele><time>2026-03-29T08:51:51.998Z</time></trkpt><trkpt lat="43.25931591877701" lon="12.241961934805055"><ele>666.0</ele><time>2026-03-29T08:51:53.998Z</time></trkpt><trkpt lat="43.259368085179226" lon="12.242050930755633"><ele>665.0</ele><time>2026-03-29T08:51:55.998Z</time></trkpt><trkpt lat="43.259381857420685" lon="12.24215349464081"><ele>664.0</ele><time>2026-03-29T08:51:57.998Z</time></trkpt><trkpt lat="43.25937697822423" lon="12.242261114974465"><ele>664.8333333333334</ele><time>2026-03-29T08:51:59.998Z</time></trkpt><trkpt lat="43.25939443713873" lon="12.242351973493149"><ele>665.6666666666667</ele><time>2026-03-29T08:52:01.998Z</time></trkpt><trkpt lat="43.25943440991825" lon="12.24247506469386"><ele>666.5</ele><time>2026-03-29T08:52:04.998Z</time></trkpt><trkpt lat="43.25946932755832" lon="12.242558044149323"><ele>667.3333333333334</ele><time>2026-03-29T08:52:06.998Z</time></trkpt><trkpt lat="43.25952772722525" lon="12.242621809127355"><ele>668.1666666666666</ele><time>2026-03-29T08:52:09.998Z</time></trkpt><trkpt lat="43.25957900057424" lon="12.242685935624225"><ele>669.0</ele><time>2026-03-29T08:52:11.998Z</time></trkpt><trkpt lat="43.25962815657389" lon="12.242754012479493"><ele>669.0</ele><time>2026-03-29T08:52:13.998Z</time></trkpt><trkpt lat="43.259710322868905" lon="12.242830446264085"><ele>669.0</ele><time>2026-03-29T08:52:15.998Z</time></trkpt><trkpt lat="43.2597690788478" lon="12.242871914340814"><ele>669.0</ele><time>2026-03-29T08:52:16.998Z</time></trkpt><trkpt lat="43.25983544124301" lon="12.24289295696454"><ele>669.0</ele><time>2026-03-29T08:52:18Z</time></trkpt><trkpt lat="43.25990171458604" lon="12.242923731981014"><ele>669.0</ele><time>2026-03-29T08:52:19Z</time></trkpt><trkpt lat="43.259969121745996" lon="12.242967121583385"><ele>669.0</ele><time>2026-03-29T08:52:20Z</time></trkpt><trkpt lat="43.26004610913056" lon="12.24303951512258"><ele>666.0</ele><time>2026-03-29T08:52:21Z</time></trkpt><trkpt lat="43.26010549506557" lon="12.24309099008089"><ele>663.0</ele><time>2026-03-29T08:52:22Z</time></trkpt><trkpt lat="43.260177272038895" lon="12.243145551482755"><ele>660.0</ele><time>2026-03-29T08:52:23Z</time></trkpt><trkpt lat="43.26023664390687" lon="12.243178827509096"><ele>657.0</ele><time>2026-03-29T08:52:24Z</time></trkpt><trkpt lat="43.26032978769404" lon="12.243245238357163"><ele>654.0</ele><time>2026-03-29T08:52:25.999Z</time></trkpt><trkpt lat="43.26039531629488" lon="12.243349190017803"><ele>651.0</ele><time>2026-03-29T08:52:28Z</time></trkpt><trkpt lat="43.260507765762014" lon="12.243328508226696"><ele>650.8333333333334</ele><time>2026-03-29T08:52:31Z</time></trkpt><trkpt lat="43.2605813823598" lon="12.243331873250861"><ele>650.6666666666666</ele><time>2026-03-29T08:52:31.999Z</time></trkpt><trkpt lat="43.26064320750275" lon="12.24334920885819"><ele>650.5</ele><time>2026-03-29T08:52:32.999Z</time></trkpt><trkpt lat="43.26073344147999" lon="12.243342421488734"><ele>650.3333333333333</ele><time>2026-03-29T08:52:34.999Z</time></trkpt><trkpt lat="43.26083154128328" lon="12.24328180526411"><ele>650.1666666666666</ele><time>2026-03-29T08:52:36.999Z</time></trkpt><trkpt lat="43.26090438808382" lon="12.243296693859273"><ele>650.0</ele><time>2026-03-29T08:52:38.999Z</time></trkpt><trkpt lat="43.2609084031421" lon="12.243403594965375"><ele>648.2</ele><time>2026-03-29T08:52:40.999Z</time></trkpt><trkpt lat="43.26099139051767" lon="12.24351162118005"><ele>646.4</ele><time>2026-03-29T08:52:42.999Z</time></trkpt><trkpt lat="43.261100569375905" lon="12.243556911369032"><ele>644.5999999999999</ele><time>2026-03-29T08:52:44.999Z</time></trkpt><trkpt lat="43.261197374869965" lon="12.243585670730262"><ele>642.8</ele><time>2026-03-29T08:52:46.999Z</time></trkpt><trkpt lat="43.261297284240264" lon="12.243581435334846"><ele>641.0</ele><time>2026-03-29T08:52:48.999Z</time></trkpt><trkpt lat="43.26135973584761" lon="12.243560206722066"><ele>638.8</ele><time>2026-03-29T08:52:49.999Z</time></trkpt><trkpt lat="43.2614699640694" lon="12.243523083050814"><ele>636.5999999999999</ele><time>2026-03-29T08:52:51.999Z</time></trkpt><trkpt lat="43.26156542873816" lon="12.243493087321939"><ele>634.4</ele><time>2026-03-29T08:52:53.999Z</time></trkpt><trkpt lat="43.26167076455022" lon="12.243510292563155"><ele>632.2</ele><time>2026-03-29T08:52:55.999Z</time></trkpt><trkpt lat="43.261780276714916" lon="12.243509580040582"><ele>630.0</ele><time>2026-03-29T08:52:57.999Z</time></trkpt><trkpt lat="43.26189337851186" lon="12.243532236235549"><ele>630.0</ele><time>2026-03-29T08:52:59.999Z</time></trkpt><trkpt lat="43.26196739184465" lon="12.243577201309938"><ele>630.0</ele><time>2026-03-29T08:53:00.999Z</time></trkpt><trkpt lat="43.26203343581408" lon="12.243603330893125"><ele>630.0</ele><time>2026-03-29T08:53:01.999Z</time></trkpt><trkpt lat="43.262105068851206" lon="12.243615718624236"><ele>630.0</ele><time>2026-03-29T08:53:02.999Z</time></trkpt><trkpt lat="43.262192385661905" lon="12.243667433340441"><ele>630.0</ele><time>2026-03-29T08:53:04.999Z</time></trkpt><trkpt lat="43.26228996745201" lon="12.243753873326511"><ele>630.0</ele><time>2026-03-29T08:53:06.999Z</time></trkpt><trkpt lat="43.262394331658285" lon="12.24381992383047"><ele>628.3333333333334</ele><time>2026-03-29T08:53:08.999Z</time></trkpt><trkpt lat="43.262477039342215" lon="12.24391339657743"><ele>626.6666666666666</ele><time>2026-03-29T08:53:10.999Z</time></trkpt><trkpt lat="43.26256191352097" lon="12.24396462346909"><ele>625.0</ele><time>2026-03-29T08:53:12.999Z</time></trkpt><trkpt lat="43.262627378304515" lon="12.24401348877078"><ele>623.3333333333333</ele><time>2026-03-29T08:53:13.999Z</time></trkpt><trkpt lat="43.26269043130204" lon="12.244072237375947"><ele>621.6666666666666</ele><time>2026-03-29T08:53:14.999Z</time></trkpt><trkpt lat="43.26274566946235" lon="12.244117072640455"><ele>620.0</ele><time>2026-03-29T08:53:15.999Z</time></trkpt><trkpt lat="43.26282513852632" lon="12.244122019697029"><ele>620.0</ele><time>2026-03-29T08:53:17.999Z</time></trkpt><trkpt lat="43.26282738177983" lon="12.244025963216487"><ele>620.0</ele><time>2026-03-29T08:53:20.999Z</time></trkpt><trkpt lat="43.26288822912058" lon="12.243840211035115"><ele>620.0</ele><time>2026-03-29T08:53:22.999Z</time></trkpt><trkpt lat="43.26289433523122" lon="12.243748773185732"><ele>620.0</ele><time>2026-03-29T08:53:23.999Z</time></trkpt><trkpt lat="43.262878301648755" lon="12.243661170187721"><ele>620.0</ele><time>2026-03-29T08:53:24.999Z</time></trkpt><trkpt lat="43.2628733290541" lon="12.243557938095076"><ele>620.0</ele><time>2026-03-29T08:53:25.999Z</time></trkpt><trkpt lat="43.26287066485543" lon="12.243466158766081"><ele>620.0</ele><time>2026-03-29T08:53:26.999Z</time></trkpt><trkpt lat="43.26283018068497" lon="12.243281680166108"><ele>620.0</ele><time>2026-03-29T08:53:28.999Z</time></trkpt><trkpt lat="43.262810498844615" lon="12.243165731527068"><ele>620.0</ele><time>2026-03-29T08:53:29.999Z</time></trkpt><trkpt lat="43.262809094437415" lon="12.243000792418405"><ele>620.0</ele><time>2026-03-29T08:53:31.999Z</time></trkpt><trkpt lat="43.26282283617427" lon="12.242913727714033"><ele>620.0</ele><time>2026-03-29T08:53:32.999Z</time></trkpt><trkpt lat="43.262838570234216" lon="12.24281734791758"><ele>619.8333333333333</ele><time>2026-03-29T08:53:33.999Z</time></trkpt><trkpt lat="43.262841755782965" lon="12.242728972808797"><ele>619.6666666666666</ele><time>2026-03-29T08:53:34.999Z</time></trkpt><trkpt lat="43.26282334722877" lon="12.242630265010847"><ele>619.5</ele><time>2026-03-29T08:53:35.999Z</time></trkpt><trkpt lat="43.26280333080593" lon="12.242544286406106"><ele>619.3333333333334</ele><time>2026-03-29T08:53:36.998Z</time></trkpt><trkpt lat="43.26279023056945" lon="12.242453633378235"><ele>619.1666666666667</ele><time>2026-03-29T08:53:37.998Z</time></trkpt><trkpt lat="43.26283790640022" lon="12.242323286669695"><ele>619.0</ele><time>2026-03-29T08:53:39.998Z</time></trkpt><trkpt lat="43.262858086862735" lon="12.242179464282398"><ele>617.6</ele><time>2026-03-29T08:53:41.998Z</time></trkpt><trkpt lat="43.26290900863233" lon="12.24204177180632"><ele>616.2</ele><time>2026-03-29T08:53:43.998Z</time></trkpt><trkpt lat="43.26296924627034" lon="12.242001883282423"><ele>614.8000000000001</ele><time>2026-03-29T08:53:44.998Z</time></trkpt><trkpt lat="43.26302800988367" lon="12.241846883474379"><ele>613.4</ele><time>2026-03-29T08:53:46.998Z</time></trkpt><trkpt lat="43.26303529970837" lon="12.24173918293908"><ele>612.0</ele><time>2026-03-29T08:53:47.998Z</time></trkpt><trkpt lat="43.263022448515926" lon="12.24164159401941"><ele>612.0</ele><time>2026-03-29T08:53:48.998Z</time></trkpt><trkpt lat="43.262991965127895" lon="12.24154674805386"><ele>612.0</ele><time>2026-03-29T08:53:49.998Z</time></trkpt><trkpt lat="43.26294863718199" lon="12.241442763317197"><ele>612.0</ele><time>2026-03-29T08:53:50.998Z</time></trkpt><trkpt lat="43.26290053248817" lon="12.241361102356688"><ele>612.0</ele><time>2026-03-29T08:53:51.998Z</time></trkpt><trkpt lat="43.262830988727124" lon="12.241235434920984"><ele>612.0</ele><time>2026-03-29T08:53:53.998Z</time></trkpt><trkpt lat="43.262816327484096" lon="12.241088270914808"><ele>610.2</ele><time>2026-03-29T08:53:55.998Z</time></trkpt><trkpt lat="43.262755892000335" lon="12.241000145163303"><ele>608.4000000000001</ele><time>2026-03-29T08:53:57.998Z</time></trkpt><trkpt lat="43.26263968525299" lon="12.240997169495785"><ele>606.5999999999999</ele><time>2026-03-29T08:53:59.998Z</time></trkpt><trkpt lat="43.26252447501781" lon="12.241012270719645"><ele>604.8</ele><time>2026-03-29T08:54:01.998Z</time></trkpt><trkpt lat="43.26244068983593" lon="12.24102059599403"><ele>603.0</ele><time>2026-03-29T08:54:02.998Z</time></trkpt><trkpt lat="43.26236826788692" lon="12.241042383994653"><ele>603.0</ele><time>2026-03-29T08:54:03.998Z</time></trkpt><trkpt lat="43.26230787702195" lon="12.241073487204307"><ele>603.0</ele><time>2026-03-29T08:54:04.998Z</time></trkpt><trkpt lat="43.26223623823251" lon="12.24109203995912"><ele>603.0</ele><time>2026-03-29T08:54:06.998Z</time></trkpt><trkpt lat="43.26219838115406" lon="12.240992605542617"><ele>603.0</ele><time>2026-03-29T08:54:09.998Z</time></trkpt><trkpt lat="43.262190396441405" lon="12.240860888262082"><ele>603.0</ele><time>2026-03-29T08:54:11.998Z</time></trkpt><trkpt lat="43.26214052194522" lon="12.24060414876813"><ele>602.4</ele><time>2026-03-29T08:54:13.998Z</time></trkpt><trkpt lat="43.26211104912062" lon="12.24051181206492"><ele>601.8</ele><time>2026-03-29T08:54:14.998Z</time></trkpt><trkpt lat="43.26211664323647" lon="12.24037082817241"><ele>601.2</ele><time>2026-03-29T08:54:16.998Z</time></trkpt><trkpt lat="43.26213368107158" lon="12.240212313232357"><ele>600.6</ele><time>2026-03-29T08:54:18.998Z</time></trkpt><trkpt lat="43.26212133047753" lon="12.240076927649167"><ele>600.0</ele><time>2026-03-29T08:54:20.998Z</time></trkpt><trkpt lat="43.26211221205959" lon="12.239932855351515"><ele>600.0</ele><time>2026-03-29T08:54:22.998Z</time></trkpt><trkpt lat="43.26206897312894" lon="12.239818496380837"><ele>600.0</ele><time>2026-03-29T08:54:25Z</time></trkpt><trkpt lat="43.261977906345486" lon="12.239766560854134"><ele>600.0</ele><time>2026-03-29T08:54:27Z</time></trkpt><trkpt lat="43.26181802327173" lon="12.239773934714268"><ele>600.0</ele><time>2026-03-29T08:54:29Z</time></trkpt><trkpt lat="43.26173596792364" lon="12.239786605705854"><ele>600.0</ele><time>2026-03-29T08:54:30Z</time></trkpt><trkpt lat="43.26165446110542" lon="12.239812379132006"><ele>600.0</ele><time>2026-03-29T08:54:31Z</time></trkpt><trkpt lat="43.26158839444985" lon="12.239859662879237"><ele>600.0</ele><time>2026-03-29T08:54:32Z</time></trkpt><trkpt lat="43.261496545968406" lon="12.239925116306548"><ele>600.0</ele><time>2026-03-29T08:54:34Z</time></trkpt><trkpt lat="43.261468837912936" lon="12.239791639599606"><ele>600.0</ele><time>2026-03-29T08:54:38.999Z</time></trkpt><trkpt lat="43.26148351152419" lon="12.239689712059821"><ele>600.0</ele><time>2026-03-29T08:54:40.999Z</time></trkpt><trkpt lat="43.26142783805226" lon="12.23959993904584"><ele>600.0</ele><time>2026-03-29T08:54:43.999Z</time></trkpt><trkpt lat="43.261306134446414" lon="12.23937735914588"><ele>601.1666666666666</ele><time>2026-03-29T08:54:45.999Z</time></trkpt><trkpt lat="43.26125716113904" lon="12.239286156346878"><ele>602.3333333333334</ele><time>2026-03-29T08:54:46.999Z</time></trkpt><trkpt lat="43.26121011264925" lon="12.239214281914297"><ele>603.5</ele><time>2026-03-29T08:54:47.999Z</time></trkpt><trkpt lat="43.26116941723244" lon="12.23914762070757"><ele>604.6666666666667</ele><time>2026-03-29T08:54:48.999Z</time></trkpt><trkpt lat="43.26115011249424" lon="12.239058747016674"><ele>605.8333333333334</ele><time>2026-03-29T08:54:50.999Z</time></trkpt><trkpt lat="43.26115374130255" lon="12.238940361259049"><ele>607.0</ele><time>2026-03-29T08:54:52.999Z</time></trkpt><trkpt lat="43.26125046750144" lon="12.238821227859649"><ele>604.6666666666667</ele><time>2026-03-29T08:54:54.999Z</time></trkpt><trkpt lat="43.261266297728085" lon="12.238726348884304"><ele>602.3333333333334</ele><time>2026-03-29T08:54:56.999Z</time></trkpt><trkpt lat="43.26126543270871" lon="12.238576046476293"><ele>600.0</ele><time>2026-03-29T08:54:58.999Z</time></trkpt><trkpt lat="43.26121922893996" lon="12.238423959661986"><ele>597.6666666666666</ele><time>2026-03-29T08:55:00.999Z</time></trkpt><trkpt lat="43.26117237717199" lon="12.238352542548071"><ele>595.3333333333333</ele><time>2026-03-29T08:55:01.999Z</time></trkpt><trkpt lat="43.261127649282905" lon="12.238273734095143"><ele>593.0</ele><time>2026-03-29T08:55:02.999Z</time></trkpt><trkpt lat="43.26106032027805" lon="12.238219348086096"><ele>593.0</ele><time>2026-03-29T08:55:03.999Z</time></trkpt><trkpt lat="43.260994070583365" lon="12.238174440136023"><ele>593.0</ele><time>2026-03-29T08:55:04.999Z</time></trkpt><trkpt lat="43.26089489503371" lon="12.238151539343358"><ele>593.0</ele><time>2026-03-29T08:55:05.999Z</time></trkpt><trkpt lat="43.26081565774767" lon="12.238092708061279"><ele>593.0</ele><time>2026-03-29T08:55:07.999Z</time></trkpt><trkpt lat="43.260725089537814" lon="12.237981272237963"><ele>593.0</ele><time>2026-03-29T08:55:09.999Z</time></trkpt><trkpt lat="43.26066938337223" lon="12.237923447676806"><ele>591.8</ele><time>2026-03-29T08:55:10.999Z</time></trkpt><trkpt lat="43.26058283322536" lon="12.237830739704641"><ele>590.5999999999999</ele><time>2026-03-29T08:55:12.999Z</time></trkpt><trkpt lat="43.260481111826245" lon="12.237742118515724"><ele>589.4000000000001</ele><time>2026-03-29T08:55:14.999Z</time></trkpt><trkpt lat="43.26037597078321" lon="12.237718574291057"><ele>588.2</ele><time>2026-03-29T08:55:15.999Z</time></trkpt><trkpt lat="43.26027882824606" lon="12.237688640435726"><ele>587.0</ele><time>2026-03-29T08:55:16.999Z</time></trkpt><trkpt lat="43.260216130791484" lon="12.237651317402557"><ele>587.0</ele><time>2026-03-29T08:55:17.999Z</time></trkpt><trkpt lat="43.260157945725425" lon="12.237617020421398"><ele>587.0</ele><time>2026-03-29T08:55:18.999Z</time></trkpt><trkpt lat="43.26007845904818" lon="12.237547235816802"><ele>587.0</ele><time>2026-03-29T08:55:20.999Z</time></trkpt><trkpt lat="43.26003031047911" lon="12.237467665712032"><ele>587.0</ele><time>2026-03-29T08:55:21.999Z</time></trkpt><trkpt lat="43.26000902042693" lon="12.237371972791149"><ele>587.0</ele><time>2026-03-29T08:55:22.999Z</time></trkpt><trkpt lat="43.25999915588438" lon="12.237276398438638"><ele>587.0</ele><time>2026-03-29T08:55:23.999Z</time></trkpt><trkpt lat="43.259978374722465" lon="12.237192465729528"><ele>587.0</ele><time>2026-03-29T08:55:24.999Z</time></trkpt><trkpt lat="43.25993310181284" lon="12.237028843228474"><ele>585.0</ele><time>2026-03-29T08:55:26.999Z</time></trkpt><trkpt lat="43.259909382876934" lon="12.23689952657942"><ele>583.0</ele><time>2026-03-29T08:55:28.999Z</time></trkpt><trkpt lat="43.259899457176026" lon="12.236742606356003"><ele>581.0</ele><time>2026-03-29T08:55:31.999Z</time></trkpt><trkpt lat="43.25991763026081" lon="12.236654741192332"><ele>579.0</ele><time>2026-03-29T08:55:32.999Z</time></trkpt><trkpt lat="43.25998908180668" lon="12.236620268759909"><ele>577.0</ele><time>2026-03-29T08:55:34.999Z</time></trkpt><trkpt lat="43.26006458839145" lon="12.236651587968453"><ele>575.0</ele><time>2026-03-29T08:55:36.998Z</time></trkpt><trkpt lat="43.26017092991353" lon="12.236622465867859"><ele>575.0</ele><time>2026-03-29T08:55:38.998Z</time></trkpt><trkpt lat="43.260301168467535" lon="12.236554370254918"><ele>575.0</ele><time>2026-03-29T08:55:40.998Z</time></trkpt><trkpt lat="43.260365629756116" lon="12.236541526838044"><ele>575.0</ele><time>2026-03-29T08:55:41.998Z</time></trkpt><trkpt lat="43.26043893634974" lon="12.236487869195074"><ele>575.0</ele><time>2026-03-29T08:55:43.998Z</time></trkpt><trkpt lat="43.260434541892025" lon="12.236345815365581"><ele>575.0</ele><time>2026-03-29T08:55:45.998Z</time></trkpt><trkpt lat="43.26037771915885" lon="12.236195319936842"><ele>572.6666666666666</ele><time>2026-03-29T08:55:47.998Z</time></trkpt><trkpt lat="43.26041350990056" lon="12.236099710091707"><ele>570.3333333333333</ele><time>2026-03-29T08:55:48.998Z</time></trkpt><trkpt lat="43.26038363568961" lon="12.236016234752261"><ele>568.0</ele><time>2026-03-29T08:55:49.998Z</time></trkpt><trkpt lat="43.260342281232305" lon="12.235926934067475"><ele>565.6666666666666</ele><time>2026-03-29T08:55:50.998Z</time></trkpt><trkpt lat="43.260323089304514" lon="12.23576853966282"><ele>563.3333333333334</ele><time>2026-03-29T08:55:52.998Z</time></trkpt><trkpt lat="43.26027260080806" lon="12.235659246383296"><ele>561.0</ele><time>2026-03-29T08:55:54.998Z</time></trkpt><trkpt lat="43.26020161441768" lon="12.235657276233733"><ele>561.0</ele><time>2026-03-29T08:55:55.998Z</time></trkpt><trkpt lat="43.26006825182928" lon="12.235723602252445"><ele>561.0</ele><time>2026-03-29T08:55:56.998Z</time></trkpt><trkpt lat="43.25996341323372" lon="12.23575734893708"><ele>561.0</ele><time>2026-03-29T08:55:57.998Z</time></trkpt><trkpt lat="43.25989576056116" lon="12.235772116577957"><ele>561.0</ele><time>2026-03-29T08:55:58.998Z</time></trkpt><trkpt lat="43.259805667952406" lon="12.235744022527888"><ele>561.0</ele><time>2026-03-29T08:56:00.998Z</time></trkpt><trkpt lat="43.259737826961626" lon="12.235624681260235"><ele>557.8333333333334</ele><time>2026-03-29T08:56:02.998Z</time></trkpt><trkpt lat="43.25978848101759" lon="12.235491773992726"><ele>554.6666666666666</ele><time>2026-03-29T08:56:04.998Z</time></trkpt><trkpt lat="43.259851119428546" lon="12.235455311055967"><ele>551.5</ele><time>2026-03-29T08:56:05.998Z</time></trkpt><trkpt lat="43.25992013479261" lon="12.235397778775436"><ele>548.3333333333333</ele><time>2026-03-29T08:56:06.998Z</time></trkpt><trkpt lat="43.25998603250822" lon="12.235317941393536"><ele>545.1666666666666</ele><time>2026-03-29T08:56:07.998Z</time></trkpt><trkpt lat="43.26003727549812" lon="12.235252792915073"><ele>542.0</ele><time>2026-03-29T08:56:08.998Z</time></trkpt><trkpt lat="43.26011990763293" lon="12.235159679928312"><ele>542.0</ele><time>2026-03-29T08:56:10.998Z</time></trkpt><trkpt lat="43.26014092135953" lon="12.235065353876434"><ele>542.0</ele><time>2026-03-29T08:56:12.998Z</time></trkpt><trkpt lat="43.260158281803115" lon="12.234962187772116"><ele>542.0</ele><time>2026-03-29T08:56:14.998Z</time></trkpt><trkpt lat="43.26005002425326" lon="12.23484840933574"><ele>542.0</ele><time>2026-03-29T08:56:16.998Z</time></trkpt><trkpt lat="43.25996908357971" lon="12.234807357255699"><ele>542.0</ele><time>2026-03-29T08:56:17.998Z</time></trkpt><trkpt lat="43.25989193898945" lon="12.234798311031541"><ele>542.0</ele><time>2026-03-29T08:56:18.998Z</time></trkpt><trkpt lat="43.25982890664361" lon="12.234799696709263"><ele>541.8333333333333</ele><time>2026-03-29T08:56:19.998Z</time></trkpt><trkpt lat="43.25976152215244" lon="12.234840241845644"><ele>541.6666666666666</ele><time>2026-03-29T08:56:20.998Z</time></trkpt><trkpt lat="43.259685051130774" lon="12.234930983036373"><ele>541.5</ele><time>2026-03-29T08:56:21.998Z</time></trkpt><trkpt lat="43.2595876828593" lon="12.235001291949342"><ele>541.3333333333334</ele><time>2026-03-29T08:56:22.998Z</time></trkpt><trkpt lat="43.25949681026638" lon="12.23503610704979"><ele>541.1666666666667</ele><time>2026-03-29T08:56:23.998Z</time></trkpt><trkpt lat="43.25943168304322" lon="12.235069807719462"><ele>541.0</ele><time>2026-03-29T08:56:24.998Z</time></trkpt><trkpt lat="43.259350590007536" lon="12.235162873163095"><ele>541.0</ele><time>2026-03-29T08:56:25.998Z</time></trkpt><trkpt lat="43.25926601646429" lon="12.235233148846296"><ele>541.0</ele><time>2026-03-29T08:56:26.998Z</time></trkpt><trkpt lat="43.25915372992064" lon="12.235288917393877"><ele>541.0</ele><time>2026-03-29T08:56:27.998Z</time></trkpt><trkpt lat="43.25908375700725" lon="12.235315676221303"><ele>541.0</ele><time>2026-03-29T08:56:28.998Z</time></trkpt><trkpt lat="43.25902686679881" lon="12.235379462907082"><ele>541.0</ele><time>2026-03-29T08:56:31.999Z</time></trkpt><trkpt lat="43.2589548899632" lon="12.235308108693602"><ele>541.6666666666667</ele><time>2026-03-29T08:56:34.999Z</time></trkpt><trkpt lat="43.25892124887363" lon="12.235187509933946"><ele>542.3333333333334</ele><time>2026-03-29T08:56:36.999Z</time></trkpt><trkpt lat="43.258901595844385" lon="12.23509254623542"><ele>543.0</ele><time>2026-03-29T08:56:37.999Z</time></trkpt><trkpt lat="43.25887635231509" lon="12.234975661936806"><ele>543.6666666666666</ele><time>2026-03-29T08:56:38.999Z</time></trkpt><trkpt lat="43.25887499656535" lon="12.234879075189642"><ele>544.3333333333333</ele><time>2026-03-29T08:56:39.999Z</time></trkpt><trkpt lat="43.258815380313976" lon="12.234751239915969"><ele>545.0</ele><time>2026-03-29T08:56:42Z</time></trkpt><trkpt lat="43.2587647395284" lon="12.234640264661476"><ele>543.6666666666666</ele><time>2026-03-29T08:56:43Z</time></trkpt><trkpt lat="43.258714481242954" lon="12.23457833283175"><ele>542.3333333333333</ele><time>2026-03-29T08:56:44Z</time></trkpt><trkpt lat="43.25862860730232" lon="12.23452947040271"><ele>541.0</ele><time>2026-03-29T08:56:45Z</time></trkpt><trkpt lat="43.25854280159052" lon="12.234517172279043"><ele>539.6666666666666</ele><time>2026-03-29T08:56:46Z</time></trkpt><trkpt lat="43.258464424917044" lon="12.234507483206565"><ele>538.3333333333334</ele><time>2026-03-29T08:56:47Z</time></trkpt><trkpt lat="43.258388884646166" lon="12.234496822874014"><ele>537.0</ele><time>2026-03-29T08:56:48Z</time></trkpt><trkpt lat="43.25832535901096" lon="12.234494615945321"><ele>537.0</ele><time>2026-03-29T08:56:49Z</time></trkpt><trkpt lat="43.25822408235621" lon="12.234482503319652"><ele>537.0</ele><time>2026-03-29T08:56:51Z</time></trkpt><trkpt lat="43.25816409474367" lon="12.23445029802393"><ele>537.0</ele><time>2026-03-29T08:56:52Z</time></trkpt><trkpt lat="43.25807868401848" lon="12.234395416063315"><ele>537.0</ele><time>2026-03-29T08:56:53Z</time></trkpt><trkpt lat="43.25801473792426" lon="12.234350049629287"><ele>537.0</ele><time>2026-03-29T08:56:54Z</time></trkpt><trkpt lat="43.25792812828963" lon="12.23426434719096"><ele>537.0</ele><time>2026-03-29T08:56:56Z</time></trkpt><trkpt lat="43.25786876720028" lon="12.234115916270563"><ele>538.0</ele><time>2026-03-29T08:56:58Z</time></trkpt><trkpt lat="43.257825596175806" lon="12.234008128652244"><ele>539.0</ele><time>2026-03-29T08:57:00Z</time></trkpt><trkpt lat="43.257801899083994" lon="12.233901048699186"><ele>540.0</ele><time>2026-03-29T08:57:02Z</time></trkpt><trkpt lat="43.25777156455759" lon="12.233805643272417"><ele>541.0</ele><time>2026-03-29T08:57:04Z</time></trkpt><trkpt lat="43.257720979269116" lon="12.23372448263665"><ele>542.0</ele><time>2026-03-29T08:57:06Z</time></trkpt><trkpt lat="43.257640051278294" lon="12.233674945998146"><ele>543.0</ele><time>2026-03-29T08:57:08Z</time></trkpt><trkpt lat="43.25757153876951" lon="12.233677817152785"><ele>543.0</ele><time>2026-03-29T08:57:10Z</time></trkpt><trkpt lat="43.257465351221214" lon="12.233688708575336"><ele>543.0</ele><time>2026-03-29T08:57:12Z</time></trkpt><trkpt lat="43.257384608131844" lon="12.233581098229548"><ele>543.0</ele><time>2026-03-29T08:57:14Z</time></trkpt><trkpt lat="43.257354022814816" lon="12.233482520330158"><ele>543.0</ele><time>2026-03-29T08:57:15Z</time></trkpt><trkpt lat="43.25732672656901" lon="12.233391788785022"><ele>543.0</ele><time>2026-03-29T08:57:16Z</time></trkpt><trkpt lat="43.257308041604304" lon="12.233255027009687"><ele>543.0</ele><time>2026-03-29T08:57:18Z</time></trkpt><trkpt lat="43.25728740051306" lon="12.233142376306505"><ele>543.0</ele><time>2026-03-29T08:57:20Z</time></trkpt><trkpt lat="43.25719515587262" lon="12.233148906881462"><ele>543.0</ele><time>2026-03-29T08:57:24Z</time></trkpt><trkpt lat="43.25717233127053" lon="12.233263180374152"><ele>543.0</ele><time>2026-03-29T08:57:26Z</time></trkpt><trkpt lat="43.2571124428151" lon="12.233350160908122"><ele>543.0</ele><time>2026-03-29T08:57:28Z</time></trkpt><trkpt lat="43.25701274322567" lon="12.23344633411572"><ele>545.6666666666666</ele><time>2026-03-29T08:57:30Z</time></trkpt><trkpt lat="43.25694119593453" lon="12.233515945213897"><ele>548.3333333333334</ele><time>2026-03-29T08:57:32Z</time></trkpt><trkpt lat="43.2568966067714" lon="12.233579115568121"><ele>551.0</ele><time>2026-03-29T08:57:34Z</time></trkpt><trkpt lat="43.25683049163032" lon="12.233637786617413"><ele>553.6666666666667</ele><time>2026-03-29T08:57:38Z</time></trkpt><trkpt lat="43.25676288644155" lon="12.233678474561469"><ele>556.3333333333334</ele><time>2026-03-29T08:57:40Z</time></trkpt><trkpt lat="43.25667811686509" lon="12.233731047462767"><ele>559.0</ele><time>2026-03-29T08:57:43.999Z</time></trkpt><trkpt lat="43.25657972544805" lon="12.233792857036686"><ele>559.0</ele><time>2026-03-29T08:59:15Z</time></trkpt><trkpt lat="43.25653166560121" lon="12.23388218220229"><ele>559.0</ele><time>2026-03-29T08:59:19Z</time></trkpt><trkpt lat="43.25645365843765" lon="12.233956802646167"><ele>559.0</ele><time>2026-03-29T08:59:30Z</time></trkpt><trkpt lat="43.256381988515216" lon="12.233982085697843"><ele>559.0</ele><time>2026-03-29T08:59:32Z</time></trkpt><trkpt lat="43.25630627099915" lon="12.234016671893318"><ele>559.0</ele><time>2026-03-29T08:59:34Z</time></trkpt><trkpt lat="43.25623365806577" lon="12.234069915038978"><ele>559.0</ele><time>2026-03-29T08:59:36Z</time></trkpt><trkpt lat="43.25620693091727" lon="12.234194367415745"><ele>562.0</ele><time>2026-03-29T08:59:38Z</time></trkpt><trkpt lat="43.25623771703637" lon="12.234334225440495"><ele>565.0</ele><time>2026-03-29T08:59:40Z</time></trkpt><trkpt lat="43.256267721517176" lon="12.234443101585757"><ele>568.0</ele><time>2026-03-29T08:59:41Z</time></trkpt><trkpt lat="43.25630311799136" lon="12.23452988146339"><ele>571.0</ele><time>2026-03-29T08:59:42Z</time></trkpt><trkpt lat="43.25635379014547" lon="12.23463616964239"><ele>574.0</ele><time>2026-03-29T08:59:44Z</time></trkpt><trkpt lat="43.25631287882749" lon="12.234712350475334"><ele>577.0</ele><time>2026-03-29T08:59:46Z</time></trkpt><trkpt lat="43.256226268222626" lon="12.234796978382652"><ele>579.6</ele><time>2026-03-29T08:59:48.999Z</time></trkpt><trkpt lat="43.25624237956303" lon="12.234924288147232"><ele>582.2</ele><time>2026-03-29T08:59:50.999Z</time></trkpt><trkpt lat="43.256341212203395" lon="12.235019897921678"><ele>584.8</ele><time>2026-03-29T08:59:52.999Z</time></trkpt><trkpt lat="43.256400314433954" lon="12.235065715752759"><ele>587.4</ele><time>2026-03-29T08:59:53.999Z</time></trkpt><trkpt lat="43.25640055241268" lon="12.235179477206266"><ele>590.0</ele><time>2026-03-29T08:59:55.999Z</time></trkpt><trkpt lat="43.256356009123714" lon="12.23529097854285"><ele>590.0</ele><time>2026-03-29T08:59:57.999Z</time></trkpt><trkpt lat="43.25629624851319" lon="12.235420452288235"><ele>590.0</ele><time>2026-03-29T08:59:59.999Z</time></trkpt><trkpt lat="43.256314296424854" lon="12.235555752599472"><ele>590.0</ele><time>2026-03-29T09:00:02.999Z</time></trkpt><trkpt lat="43.25625564451605" lon="12.235631332073996"><ele>590.0</ele><time>2026-03-29T09:00:04.999Z</time></trkpt><trkpt lat="43.256172109983474" lon="12.235660499195856"><ele>590.0</ele><time>2026-03-29T09:00:06.999Z</time></trkpt><trkpt lat="43.25617533772133" lon="12.23580625627971"><ele>593.2</ele><time>2026-03-29T09:00:08.999Z</time></trkpt><trkpt lat="43.25616932460898" lon="12.235898070567183"><ele>596.4</ele><time>2026-03-29T09:00:09.999Z</time></trkpt><trkpt lat="43.25613921652899" lon="12.236036657533049"><ele>599.6</ele><time>2026-03-29T09:00:11.999Z</time></trkpt><trkpt lat="43.25609888129676" lon="12.236163496646261"><ele>602.8</ele><time>2026-03-29T09:00:13.999Z</time></trkpt><trkpt lat="43.25603792661257" lon="12.236295968612417"><ele>606.0</ele><time>2026-03-29T09:00:15.999Z</time></trkpt><trkpt lat="43.25594928917956" lon="12.236370746645173"><ele>606.0</ele><time>2026-03-29T09:00:17.999Z</time></trkpt><trkpt lat="43.25589505382433" lon="12.236423512239503"><ele>606.0</ele><time>2026-03-29T09:00:18.999Z</time></trkpt><trkpt lat="43.25579627488984" lon="12.236467184250673"><ele>606.0</ele><time>2026-03-29T09:00:20.999Z</time></trkpt><trkpt lat="43.25571261400246" lon="12.236411151667491"><ele>606.0</ele><time>2026-03-29T09:00:23.999Z</time></trkpt><trkpt lat="43.255566823722496" lon="12.236391887751605"><ele>606.0</ele><time>2026-03-29T09:00:25.999Z</time></trkpt><trkpt lat="43.25547388462445" lon="12.236339989238"><ele>607.5</ele><time>2026-03-29T09:00:27.999Z</time></trkpt><trkpt lat="43.25539071271497" lon="12.236378730439183"><ele>609.0</ele><time>2026-03-29T09:00:29.999Z</time></trkpt><trkpt lat="43.25535464739413" lon="12.236453137123885"><ele>610.5</ele><time>2026-03-29T09:00:30.999Z</time></trkpt><trkpt lat="43.255324085306476" lon="12.236537882538013"><ele>612.0</ele><time>2026-03-29T09:00:31.999Z</time></trkpt><trkpt lat="43.25530079186332" lon="12.236655204571933"><ele>613.5</ele><time>2026-03-29T09:00:32.999Z</time></trkpt><trkpt lat="43.25529408265407" lon="12.236757889165215"><ele>615.0</ele><time>2026-03-29T09:00:33.999Z</time></trkpt><trkpt lat="43.255298928586754" lon="12.236868316832298"><ele>616.4285714285714</ele><time>2026-03-29T09:00:34.999Z</time></trkpt><trkpt lat="43.2553082091914" lon="12.23698783112447"><ele>617.8571428571429</ele><time>2026-03-29T09:00:35.999Z</time></trkpt><trkpt lat="43.255311852511156" lon="12.237090628150478"><ele>619.2857142857143</ele><time>2026-03-29T09:00:36.999Z</time></trkpt><trkpt lat="43.255321003729065" lon="12.237177970050094"><ele>620.7142857142858</ele><time>2026-03-29T09:00:37.999Z</time></trkpt><trkpt lat="43.255349762525476" lon="12.237262226946504"><ele>622.1428571428571</ele><time>2026-03-29T09:00:38.999Z</time></trkpt><trkpt lat="43.25538947857052" lon="12.237355802882458"><ele>623.5714285714287</ele><time>2026-03-29T09:00:39.999Z</time></trkpt><trkpt lat="43.25542228521784" lon="12.237445458398678"><ele>625.0</ele><time>2026-03-29T09:00:41Z</time></trkpt><trkpt lat="43.255441736916886" lon="12.23752814896651"><ele>626.8</ele><time>2026-03-29T09:00:42Z</time></trkpt><trkpt lat="43.25542244385806" lon="12.237637217055202"><ele>628.6</ele><time>2026-03-29T09:00:44Z</time></trkpt><trkpt lat="43.255339100747996" lon="12.237562153181319"><ele>630.4</ele><time>2026-03-29T09:00:45Z</time></trkpt><trkpt lat="43.25521301464901" lon="12.237483001859648"><ele>632.2</ele><time>2026-03-29T09:00:47Z</time></trkpt><trkpt lat="43.25512977700861" lon="12.237481207981856"><ele>634.0</ele><time>2026-03-29T09:00:48Z</time></trkpt><trkpt lat="43.25505682636359" lon="12.237550645735489"><ele>634.0</ele><time>2026-03-29T09:00:50Z</time></trkpt><trkpt lat="43.254990477466436" lon="12.237713924640335"><ele>634.0</ele><time>2026-03-29T09:00:52Z</time></trkpt><trkpt lat="43.25497040763554" lon="12.237798871884788"><ele>634.0</ele><time>2026-03-29T09:00:53Z</time></trkpt><trkpt lat="43.254869816177816" lon="12.237882492403253"><ele>634.0</ele><time>2026-03-29T09:00:55Z</time></trkpt><trkpt lat="43.254805947258035" lon="12.237979628385142"><ele>634.0</ele><time>2026-03-29T09:00:57Z</time></trkpt><trkpt lat="43.2548035272345" lon="12.238069429319086"><ele>633.6666666666667</ele><time>2026-03-29T09:00:58Z</time></trkpt><trkpt lat="43.25477104055657" lon="12.238173958341006"><ele>633.3333333333334</ele><time>2026-03-29T09:00:59Z</time></trkpt><trkpt lat="43.25478036433229" lon="12.23828079947525"><ele>633.0</ele><time>2026-03-29T09:01:00Z</time></trkpt><trkpt lat="43.25478322236961" lon="12.23837161522514"><ele>632.6666666666666</ele><time>2026-03-29T09:01:01Z</time></trkpt><trkpt lat="43.25478386702917" lon="12.238464230288281"><ele>632.3333333333333</ele><time>2026-03-29T09:01:02Z</time></trkpt><trkpt lat="43.25477650630224" lon="12.23857350907362"><ele>632.0</ele><time>2026-03-29T09:01:03Z</time></trkpt><trkpt lat="43.25476245218432" lon="12.238682503417683"><ele>632.0</ele><time>2026-03-29T09:01:04Z</time></trkpt><trkpt lat="43.25474415508405" lon="12.238783661675622"><ele>632.0</ele><time>2026-03-29T09:01:05Z</time></trkpt><trkpt lat="43.25471764049507" lon="12.238877000563738"><ele>632.0</ele><time>2026-03-29T09:01:06Z</time></trkpt><trkpt lat="43.25465559140107" lon="12.239030607687978"><ele>632.0</ele><time>2026-03-29T09:01:08Z</time></trkpt><trkpt lat="43.254626555264416" lon="12.239109354476401"><ele>632.0</ele><time>2026-03-29T09:01:09Z</time></trkpt><trkpt lat="43.254613430954464" lon="12.239257408093398"><ele>633.4</ele><time>2026-03-29T09:01:11Z</time></trkpt><trkpt lat="43.25460594746736" lon="12.239368079365354"><ele>634.8000000000001</ele><time>2026-03-29T09:01:13Z</time></trkpt><trkpt lat="43.254542732944856" lon="12.239463797445572"><ele>636.2</ele><time>2026-03-29T09:01:15Z</time></trkpt><trkpt lat="43.254433160262984" lon="12.239509748006935"><ele>637.6</ele><time>2026-03-29T09:01:17Z</time></trkpt><trkpt lat="43.25436075126369" lon="12.239524358514458"><ele>639.0</ele><time>2026-03-29T09:01:19Z</time></trkpt><trkpt lat="43.25424131509853" lon="12.23952103532366"><ele>639.0</ele><time>2026-03-29T09:01:21Z</time></trkpt><trkpt lat="43.25416714337088" lon="12.23950090376034"><ele>639.0</ele><time>2026-03-29T09:01:23Z</time></trkpt><trkpt lat="43.2541038607179" lon="12.23952112153212"><ele>639.0</ele><time>2026-03-29T09:01:25Z</time></trkpt><trkpt lat="43.253993300892404" lon="12.23951304717478"><ele>639.0</ele><time>2026-03-29T09:01:27Z</time></trkpt><trkpt lat="43.25392058456483" lon="12.23949506529542"><ele>639.0</ele><time>2026-03-29T09:01:29Z</time></trkpt><trkpt lat="43.25388696476121" lon="12.23939612531125"><ele>639.0</ele><time>2026-03-29T09:01:31Z</time></trkpt><trkpt lat="43.25379740131686" lon="12.239330933405334"><ele>639.6</ele><time>2026-03-29T09:01:34Z</time></trkpt><trkpt lat="43.25370092350601" lon="12.239362126486652"><ele>640.2</ele><time>2026-03-29T09:01:36Z</time></trkpt><trkpt lat="43.25361212444641" lon="12.239416548921582"><ele>640.8000000000001</ele><time>2026-03-29T09:01:37Z</time></trkpt><trkpt lat="43.253541710179555" lon="12.239462172599335"><ele>641.4</ele><time>2026-03-29T09:01:38Z</time></trkpt><trkpt lat="43.25343205426727" lon="12.239531987768105"><ele>642.0</ele><time>2026-03-29T09:01:40Z</time></trkpt><trkpt lat="43.25333368546922" lon="12.239585027092458"><ele>642.0</ele><time>2026-03-29T09:01:42Z</time></trkpt><trkpt lat="43.253278900248944" lon="12.23962848357182"><ele>642.0</ele><time>2026-03-29T09:01:43Z</time></trkpt><trkpt lat="43.25319608024486" lon="12.239672142707363"><ele>642.0</ele><time>2026-03-29T09:01:45Z</time></trkpt><trkpt lat="43.25309548668691" lon="12.23965649218012"><ele>642.0</ele><time>2026-03-29T09:01:47Z</time></trkpt><trkpt lat="43.25303432716791" lon="12.239632127863217"><ele>642.0</ele><time>2026-03-29T09:01:48Z</time></trkpt><trkpt lat="43.252973835681935" lon="12.23960414131531"><ele>642.0</ele><time>2026-03-29T09:01:49Z</time></trkpt><trkpt lat="43.25288888604112" lon="12.239607506387726"><ele>641.6</ele><time>2026-03-29T09:01:51Z</time></trkpt><trkpt lat="43.25281948175939" lon="12.239612659387358"><ele>641.2</ele><time>2026-03-29T09:01:52Z</time></trkpt><trkpt lat="43.252749489634375" lon="12.239624940006099"><ele>640.8</ele><time>2026-03-29T09:01:53Z</time></trkpt><trkpt lat="43.25265087773999" lon="12.23964564449639"><ele>640.4</ele><time>2026-03-29T09:01:54.999Z</time></trkpt><trkpt lat="43.2525476928834" lon="12.239648313293685"><ele>640.0</ele><time>2026-03-29T09:01:56.999Z</time></trkpt><trkpt lat="43.252432877707015" lon="12.23961725156832"><ele>640.0</ele><time>2026-03-29T09:01:58.999Z</time></trkpt><trkpt lat="43.25236979178458" lon="12.239587161731983"><ele>640.0</ele><time>2026-03-29T09:01:59.999Z</time></trkpt><trkpt lat="43.25225797272851" lon="12.23954337668118"><ele>640.0</ele><time>2026-03-29T09:02:01.999Z</time></trkpt><trkpt lat="43.252161293650474" lon="12.239542048187694"><ele>640.0</ele><time>2026-03-29T09:02:03.999Z</time></trkpt><trkpt lat="43.25204440042877" lon="12.239514807035292"><ele>640.0</ele><time>2026-03-29T09:02:05.999Z</time></trkpt><trkpt lat="43.25197788824647" lon="12.239496396888873"><ele>641.6</ele><time>2026-03-29T09:02:06.999Z</time></trkpt><trkpt lat="43.25190608738644" lon="12.23947256778231"><ele>643.2</ele><time>2026-03-29T09:02:07.999Z</time></trkpt><trkpt lat="43.25179186717063" lon="12.239436552572604"><ele>644.8</ele><time>2026-03-29T09:02:09.999Z</time></trkpt><trkpt lat="43.25172427682147" lon="12.239423597602443"><ele>646.4</ele><time>2026-03-29T09:02:10.999Z</time></trkpt><trkpt lat="43.251611867940596" lon="12.23938560650768"><ele>648.0</ele><time>2026-03-29T09:02:12.999Z</time></trkpt><trkpt lat="43.25153561815818" lon="12.239251226395893"><ele>648.0</ele><time>2026-03-29T09:02:14.999Z</time></trkpt><trkpt lat="43.251482585349855" lon="12.239176053761968"><ele>648.0</ele><time>2026-03-29T09:02:15.999Z</time></trkpt><trkpt lat="43.251414676556664" lon="12.239100930407655"><ele>648.0</ele><time>2026-03-29T09:02:16.999Z</time></trkpt><trkpt lat="43.25139180059269" lon="12.239011232840156"><ele>648.0</ele><time>2026-03-29T09:02:18.999Z</time></trkpt><trkpt lat="43.25135922652286" lon="12.238825608767407"><ele>648.0</ele><time>2026-03-29T09:02:20.999Z</time></trkpt><trkpt lat="43.25133062824515" lon="12.238732531565836"><ele>648.0</ele><time>2026-03-29T09:02:21.999Z</time></trkpt><trkpt lat="43.25128276579584" lon="12.23866151088256"><ele>648.0</ele><time>2026-03-29T09:02:22.999Z</time></trkpt><trkpt lat="43.25116231272852" lon="12.238577918485282"><ele>648.0</ele><time>2026-03-29T09:02:24.999Z</time></trkpt><trkpt lat="43.25108418329742" lon="12.238536163970807"><ele>648.0</ele><time>2026-03-29T09:02:25.999Z</time></trkpt><trkpt lat="43.25101246559831" lon="12.238497773824939"><ele>648.0</ele><time>2026-03-29T09:02:26.999Z</time></trkpt><trkpt lat="43.25092954970202" lon="12.23845836654514"><ele>648.0</ele><time>2026-03-29T09:02:27.999Z</time></trkpt><trkpt lat="43.25083081379939" lon="12.23843316668777"><ele>648.0</ele><time>2026-03-29T09:02:28.999Z</time></trkpt><trkpt lat="43.25070607783509" lon="12.238437293254718"><ele>648.0</ele><time>2026-03-29T09:02:29.999Z</time></trkpt><trkpt lat="43.250588143373044" lon="12.238449363335176"><ele>648.0</ele><time>2026-03-29T09:02:30.999Z</time></trkpt><trkpt lat="43.25048695647101" lon="12.238453889674282"><ele>648.0</ele><time>2026-03-29T09:02:31.999Z</time></trkpt><trkpt lat="43.25035865379521" lon="12.238476561963848"><ele>648.2</ele><time>2026-03-29T09:02:32.999Z</time></trkpt><trkpt lat="43.25021691781452" lon="12.238496679760278"><ele>648.4</ele><time>2026-03-29T09:02:33.999Z</time></trkpt><trkpt lat="43.25010036697167" lon="12.238516851351955"><ele>648.6</ele><time>2026-03-29T09:02:34.999Z</time></trkpt><trkpt lat="43.25000404957763" lon="12.238516433579523"><ele>648.8000000000001</ele><time>2026-03-29T09:02:35.999Z</time></trkpt><trkpt lat="43.24992122465659" lon="12.238508467512537"><ele>649.0</ele><time>2026-03-29T09:02:36.999Z</time></trkpt><trkpt lat="43.249845852125496" lon="12.238486522840752"><ele>648.6666666666667</ele><time>2026-03-29T09:02:37.999Z</time></trkpt><trkpt lat="43.24976844796238" lon="12.238427985167181"><ele>648.3333333333334</ele><time>2026-03-29T09:02:38.999Z</time></trkpt><trkpt lat="43.24969414478554" lon="12.238366861981556"><ele>648.0</ele><time>2026-03-29T09:02:39.999Z</time></trkpt><trkpt lat="43.24962518512678" lon="12.238328322236505"><ele>647.6666666666666</ele><time>2026-03-29T09:02:40.999Z</time></trkpt><trkpt lat="43.249554739125216" lon="12.23825266223854"><ele>647.3333333333333</ele><time>2026-03-29T09:02:41.999Z</time></trkpt><trkpt lat="43.249490092837476" lon="12.238155455977735"><ele>647.0</ele><time>2026-03-29T09:02:42.999Z</time></trkpt><trkpt lat="43.24940351555852" lon="12.238088839542238"><ele>647.0</ele><time>2026-03-29T09:02:43.999Z</time></trkpt><trkpt lat="43.24932617604997" lon="12.237985993601338"><ele>647.0</ele><time>2026-03-29T09:02:46Z</time></trkpt><trkpt lat="43.249296905018205" lon="12.237865357664445"><ele>647.0</ele><time>2026-03-29T09:02:48Z</time></trkpt><trkpt lat="43.24922465619592" lon="12.237707962600343"><ele>647.0</ele><time>2026-03-29T09:03:00Z</time></trkpt><trkpt lat="43.24914743875544" lon="12.237600055548235"><ele>647.0</ele><time>2026-03-29T09:03:01Z</time></trkpt><trkpt lat="43.24907324055252" lon="12.23748657079956"><ele>647.0</ele><time>2026-03-29T09:03:02Z</time></trkpt><trkpt lat="43.249017243622355" lon="12.237358943936147"><ele>647.0</ele><time>2026-03-29T09:03:03Z</time></trkpt><trkpt lat="43.24897356499308" lon="12.237197238274291"><ele>647.0</ele><time>2026-03-29T09:03:04Z</time></trkpt><trkpt lat="43.248942791962996" lon="12.237032506101745"><ele>647.0</ele><time>2026-03-29T09:03:05Z</time></trkpt><trkpt lat="43.24893050041079" lon="12.236865125902094"><ele>648.5</ele><time>2026-03-29T09:03:06Z</time></trkpt><trkpt lat="43.248929414744126" lon="12.236702454328663"><ele>650.0</ele><time>2026-03-29T09:03:07Z</time></trkpt><trkpt lat="43.24891843736786" lon="12.236561592388597"><ele>651.5</ele><time>2026-03-29T09:03:08Z</time></trkpt><trkpt lat="43.2488800737894" lon="12.236436742828248"><ele>653.0</ele><time>2026-03-29T09:03:09Z</time></trkpt><trkpt lat="43.24881481894601" lon="12.236281847755158"><ele>650.4</ele><time>2026-03-29T09:03:10Z</time></trkpt><trkpt lat="43.24874823876968" lon="12.23612875482423"><ele>647.8</ele><time>2026-03-29T09:03:11Z</time></trkpt><trkpt lat="43.24869800076401" lon="12.23602284759699"><ele>645.2</ele><time>2026-03-29T09:03:12Z</time></trkpt><trkpt lat="43.24865547988576" lon="12.235932722291555"><ele>642.6</ele><time>2026-03-29T09:03:13Z</time></trkpt><trkpt lat="43.24860716656275" lon="12.235851325404713"><ele>640.0</ele><time>2026-03-29T09:03:14Z</time></trkpt><trkpt lat="43.24853093711353" lon="12.235786442795185"><ele>640.0</ele><time>2026-03-29T09:03:15Z</time></trkpt><trkpt lat="43.248450693234176" lon="12.235712799629772"><ele>640.0</ele><time>2026-03-29T09:03:16Z</time></trkpt><trkpt lat="43.24837934326508" lon="12.235650548876222"><ele>640.0</ele><time>2026-03-29T09:03:17Z</time></trkpt><trkpt lat="43.24831578293756" lon="12.235599316517666"><ele>640.0</ele><time>2026-03-29T09:03:18Z</time></trkpt><trkpt lat="43.24822028289821" lon="12.23546935240317"><ele>640.0</ele><time>2026-03-29T09:03:20Z</time></trkpt><trkpt lat="43.24815108607933" lon="12.2354265738695"><ele>637.8</ele><time>2026-03-29T09:03:21Z</time></trkpt><trkpt lat="43.248208022612815" lon="12.235218995335604"><ele>635.6</ele><time>2026-03-29T09:03:22Z</time></trkpt><trkpt lat="43.2482067337111" lon="12.235101476239615"><ele>633.4</ele><time>2026-03-29T09:03:23Z</time></trkpt><trkpt lat="43.248151233507606" lon="12.234975443381805"><ele>631.2</ele><time>2026-03-29T09:03:25Z</time></trkpt><trkpt lat="43.24809368018885" lon="12.234908428900264"><ele>629.0</ele><time>2026-03-29T09:03:26Z</time></trkpt><trkpt lat="43.24790609651907" lon="12.234715624742552"><ele>628.6</ele><time>2026-03-29T09:03:27Z</time></trkpt><trkpt lat="43.24784298390394" lon="12.234637469284316"><ele>628.2</ele><time>2026-03-29T09:03:28Z</time></trkpt><trkpt lat="43.24776766669426" lon="12.234569751426303"><ele>627.8000000000001</ele><time>2026-03-29T09:03:29Z</time></trkpt><trkpt lat="43.247685829592704" lon="12.234493473162436"><ele>627.4</ele><time>2026-03-29T09:03:30Z</time></trkpt><trkpt lat="43.24761694412188" lon="12.234392870040375"><ele>627.0</ele><time>2026-03-29T09:03:31Z</time></trkpt><trkpt lat="43.24755833225606" lon="12.234282955296957"><ele>627.0</ele><time>2026-03-29T09:03:32Z</time></trkpt><trkpt lat="43.24750438793846" lon="12.234184269862398"><ele>627.0</ele><time>2026-03-29T09:03:33Z</time></trkpt><trkpt lat="43.24745835809898" lon="12.234088320941979"><ele>627.0</ele><time>2026-03-29T09:03:34Z</time></trkpt><trkpt lat="43.24740941009135" lon="12.233979519153799"><ele>627.0</ele><time>2026-03-29T09:03:35Z</time></trkpt><trkpt lat="43.24738244437495" lon="12.233859282684172"><ele>627.0</ele><time>2026-03-29T09:03:36Z</time></trkpt><trkpt lat="43.24736217018463" lon="12.233749720729167"><ele>627.0</ele><time>2026-03-29T09:03:37Z</time></trkpt><trkpt lat="43.24733227638517" lon="12.233649591785081"><ele>627.8571428571429</ele><time>2026-03-29T09:03:38Z</time></trkpt><trkpt lat="43.24729882465764" lon="12.233556488609132"><ele>628.7142857142857</ele><time>2026-03-29T09:03:39Z</time></trkpt><trkpt lat="43.24727392558708" lon="12.233470364614774"><ele>629.5714285714286</ele><time>2026-03-29T09:03:40Z</time></trkpt><trkpt lat="43.24725926224383" lon="12.233377518079136"><ele>630.4285714285714</ele><time>2026-03-29T09:03:41Z</time></trkpt><trkpt lat="43.247251073554416" lon="12.233282437654209"><ele>631.2857142857143</ele><time>2026-03-29T09:03:42Z</time></trkpt><trkpt lat="43.24724274174519" lon="12.2331958523892"><ele>632.1428571428571</ele><time>2026-03-29T09:03:43Z</time></trkpt><trkpt lat="43.247228230511766" lon="12.233107523287114"><ele>633.0</ele><time>2026-03-29T09:03:44Z</time></trkpt><trkpt lat="43.24720411607341" lon="12.23302302670251"><ele>630.0</ele><time>2026-03-29T09:03:45Z</time></trkpt><trkpt lat="43.247169154445004" lon="12.232942334205333"><ele>627.0</ele><time>2026-03-29T09:03:46Z</time></trkpt><trkpt lat="43.247125062807775" lon="12.232864717553289"><ele>624.0</ele><time>2026-03-29T09:03:47Z</time></trkpt><trkpt lat="43.24707586254876" lon="12.232780650646642"><ele>621.0</ele><time>2026-03-29T09:03:48Z</time></trkpt><trkpt lat="43.2470285983688" lon="12.232696753156313"><ele>618.0</ele><time>2026-03-29T09:03:49Z</time></trkpt><trkpt lat="43.24698710736018" lon="12.232616509076687"><ele>615.0</ele><time>2026-03-29T09:03:50Z</time></trkpt><trkpt lat="43.24694975413446" lon="12.232531391982437"><ele>612.0</ele><time>2026-03-29T09:03:51Z</time></trkpt><trkpt lat="43.24691493544003" lon="12.232427393004745"><ele>612.0</ele><time>2026-03-29T09:03:52Z</time></trkpt><trkpt lat="43.246882053868546" lon="12.232321442582363"><ele>612.0</ele><time>2026-03-29T09:03:53Z</time></trkpt><trkpt lat="43.246852631304506" lon="12.232230532537217"><ele>612.0</ele><time>2026-03-29T09:03:54Z</time></trkpt><trkpt lat="43.24682296644835" lon="12.232148059242029"><ele>612.0</ele><time>2026-03-29T09:03:55Z</time></trkpt><trkpt lat="43.246764793471485" lon="12.2319972295048"><ele>612.0</ele><time>2026-03-29T09:03:57Z</time></trkpt><trkpt lat="43.246701653858054" lon="12.231853857887673"><ele>613.0</ele><time>2026-03-29T09:03:58.999Z</time></trkpt><trkpt lat="43.24663979983002" lon="12.231718144815014"><ele>614.0</ele><time>2026-03-29T09:04:00.999Z</time></trkpt><trkpt lat="43.24642664847674" lon="12.231680989334803"><ele>615.0</ele><time>2026-03-29T09:04:02.999Z</time></trkpt><trkpt lat="43.246377348601136" lon="12.231549476308402"><ele>616.0</ele><time>2026-03-29T09:04:04.999Z</time></trkpt><trkpt lat="43.246308557843406" lon="12.23140447106069"><ele>613.0</ele><time>2026-03-29T09:04:06.999Z</time></trkpt><trkpt lat="43.24625990160191" lon="12.231319152716434"><ele>610.0</ele><time>2026-03-29T09:04:07.999Z</time></trkpt><trkpt lat="43.2462067412952" lon="12.231241909004062"><ele>607.0</ele><time>2026-03-29T09:04:08.999Z</time></trkpt><trkpt lat="43.24617768030781" lon="12.231129936710701"><ele>604.0</ele><time>2026-03-29T09:04:09.999Z</time></trkpt><trkpt lat="43.24611381060948" lon="12.231062602263695"><ele>601.0</ele><time>2026-03-29T09:04:10.999Z</time></trkpt><trkpt lat="43.246028147628124" lon="12.231034497934784"><ele>598.0</ele><time>2026-03-29T09:04:11.999Z</time></trkpt><trkpt lat="43.24596646149016" lon="12.230968604559179"><ele>598.0</ele><time>2026-03-29T09:04:12.999Z</time></trkpt><trkpt lat="43.245912150183436" lon="12.230886130944267"><ele>598.0</ele><time>2026-03-29T09:04:13.999Z</time></trkpt><trkpt lat="43.24585098740604" lon="12.230833105298368"><ele>598.0</ele><time>2026-03-29T09:04:14.999Z</time></trkpt><trkpt lat="43.245728535183744" lon="12.230732826566376"><ele>598.0</ele><time>2026-03-29T09:04:16.999Z</time></trkpt><trkpt lat="43.24565416622541" lon="12.23065728092623"><ele>598.0</ele><time>2026-03-29T09:04:17.999Z</time></trkpt><trkpt lat="43.245563771533554" lon="12.230561467457257"><ele>595.75</ele><time>2026-03-29T09:04:18.999Z</time></trkpt><trkpt lat="43.2454643268468" lon="12.230461980399127"><ele>593.5</ele><time>2026-03-29T09:04:19.999Z</time></trkpt><trkpt lat="43.24534907299056" lon="12.230354123479163"><ele>591.25</ele><time>2026-03-29T09:04:20.999Z</time></trkpt><trkpt lat="43.2452030279835" lon="12.230224972212437"><ele>589.0</ele><time>2026-03-29T09:04:21.999Z</time></trkpt><trkpt lat="43.245056928944265" lon="12.230086937581168"><ele>589.0</ele><time>2026-03-29T09:04:22.999Z</time></trkpt><trkpt lat="43.24493008967461" lon="12.229952093975053"><ele>589.0</ele><time>2026-03-29T09:04:23.999Z</time></trkpt><trkpt lat="43.244810247969774" lon="12.22982667058481"><ele>589.0</ele><time>2026-03-29T09:04:24.999Z</time></trkpt><trkpt lat="43.2446905132702" lon="12.229707806671984"><ele>586.25</ele><time>2026-03-29T09:04:25.999Z</time></trkpt><trkpt lat="43.24457550408272" lon="12.229600059429622"><ele>583.5</ele><time>2026-03-29T09:04:26.999Z</time></trkpt><trkpt lat="43.24446768760006" lon="12.229486680259065"><ele>580.75</ele><time>2026-03-29T09:04:27.999Z</time></trkpt><trkpt lat="43.24436419544164" lon="12.229369665110635"><ele>578.0</ele><time>2026-03-29T09:04:28.999Z</time></trkpt><trkpt lat="43.244271634249706" lon="12.229246405056855"><ele>578.0</ele><time>2026-03-29T09:04:29.999Z</time></trkpt><trkpt lat="43.2442048329835" lon="12.22909913993291"><ele>578.0</ele><time>2026-03-29T09:04:30.999Z</time></trkpt><trkpt lat="43.244203942223834" lon="12.228933559575793"><ele>578.0</ele><time>2026-03-29T09:04:31.999Z</time></trkpt><trkpt lat="43.2442483826004" lon="12.228800459368474"><ele>578.0</ele><time>2026-03-29T09:04:32.999Z</time></trkpt><trkpt lat="43.24430414308389" lon="12.228667766827973"><ele>576.75</ele><time>2026-03-29T09:04:33.999Z</time></trkpt><trkpt lat="43.244391853048974" lon="12.228531869648037"><ele>575.5</ele><time>2026-03-29T09:04:34.999Z</time></trkpt><trkpt lat="43.24447465552019" lon="12.228357316276398"><ele>574.25</ele><time>2026-03-29T09:04:35.999Z</time></trkpt><trkpt lat="43.24455679551075" lon="12.228192890642635"><ele>573.0</ele><time>2026-03-29T09:04:36.999Z</time></trkpt><trkpt lat="43.244620785148406" lon="12.228037607375077"><ele>572.25</ele><time>2026-03-29T09:04:37.999Z</time></trkpt><trkpt lat="43.244674600673896" lon="12.227887209892177"><ele>571.5</ele><time>2026-03-29T09:04:38.999Z</time></trkpt><trkpt lat="43.244665644720335" lon="12.227713904856797"><ele>570.75</ele><time>2026-03-29T09:04:39.999Z</time></trkpt><trkpt lat="43.24463561973208" lon="12.227543962913668"><ele>570.0</ele><time>2026-03-29T09:04:40.999Z</time></trkpt><trkpt lat="43.24457473464524" lon="12.227390727013711"><ele>570.75</ele><time>2026-03-29T09:04:41.999Z</time></trkpt><trkpt lat="43.24450152566438" lon="12.227248977611822"><ele>571.5</ele><time>2026-03-29T09:04:42.999Z</time></trkpt><trkpt lat="43.24442052262853" lon="12.227097873968042"><ele>572.25</ele><time>2026-03-29T09:04:43.999Z</time></trkpt><trkpt lat="43.24432472667651" lon="12.226932904874364"><ele>573.0</ele><time>2026-03-29T09:04:44.999Z</time></trkpt><trkpt lat="43.244210343010046" lon="12.226752988909372"><ele>573.0</ele><time>2026-03-29T09:04:45.999Z</time></trkpt><trkpt lat="43.24410694830281" lon="12.226580843145754"><ele>573.0</ele><time>2026-03-29T09:04:46.999Z</time></trkpt><trkpt lat="43.244025056430786" lon="12.226429818149933"><ele>573.0</ele><time>2026-03-29T09:04:47.999Z</time></trkpt><trkpt lat="43.24395291161214" lon="12.226289829361207"><ele>573.0</ele><time>2026-03-29T09:04:48.999Z</time></trkpt><trkpt lat="43.24389857395258" lon="12.226152519359333"><ele>575.1999999999999</ele><time>2026-03-29T09:04:49.999Z</time></trkpt><trkpt lat="43.24386683538253" lon="12.226031314261029"><ele>577.4</ele><time>2026-03-29T09:04:50.999Z</time></trkpt><trkpt lat="43.243864706726846" lon="12.225933506579045"><ele>579.5999999999999</ele><time>2026-03-29T09:04:52Z</time></trkpt><trkpt lat="43.24375351989782" lon="12.225806711605433"><ele>581.8</ele><time>2026-03-29T09:04:54Z</time></trkpt><trkpt lat="43.24366393584234" lon="12.225785490406418"><ele>584.0</ele><time>2026-03-29T09:04:55Z</time></trkpt><trkpt lat="43.243565515422475" lon="12.225755075506703"><ele>584.0</ele><time>2026-03-29T09:04:56Z</time></trkpt><trkpt lat="43.243445772687004" lon="12.22573426813081"><ele>584.0</ele><time>2026-03-29T09:04:57Z</time></trkpt><trkpt lat="43.243321150425814" lon="12.225719682202174"><ele>584.0</ele><time>2026-03-29T09:04:58Z</time></trkpt><trkpt lat="43.24318203958374" lon="12.225678661018716"><ele>584.0</ele><time>2026-03-29T09:04:59Z</time></trkpt><trkpt lat="43.243049020846925" lon="12.22560600759639"><ele>590.75</ele><time>2026-03-29T09:05:00Z</time></trkpt><trkpt lat="43.242934789620215" lon="12.225541902194884"><ele>597.5</ele><time>2026-03-29T09:05:01Z</time></trkpt><trkpt lat="43.24282326816625" lon="12.225471704565882"><ele>604.25</ele><time>2026-03-29T09:05:02Z</time></trkpt><trkpt lat="43.24270562388174" lon="12.225383614180393"><ele>611.0</ele><time>2026-03-29T09:05:03Z</time></trkpt><trkpt lat="43.242579818872045" lon="12.225276557103372"><ele>611.0</ele><time>2026-03-29T09:05:04Z</time></trkpt><trkpt lat="43.242456325060836" lon="12.225163324326818"><ele>611.0</ele><time>2026-03-29T09:05:05Z</time></trkpt><trkpt lat="43.242365390060236" lon="12.225094171502258"><ele>611.0</ele><time>2026-03-29T09:05:06Z</time></trkpt><trkpt lat="43.242302619297725" lon="12.225049775781597"><ele>611.0</ele><time>2026-03-29T09:05:07Z</time></trkpt><trkpt lat="43.242226908206305" lon="12.224987459818802"><ele>611.0</ele><time>2026-03-29T09:05:09Z</time></trkpt><trkpt lat="43.242210622581425" lon="12.224898621126718"><ele>611.3333333333333</ele><time>2026-03-29T09:05:10Z</time></trkpt><trkpt lat="43.24218227925442" lon="12.224809984822647"><ele>611.6666666666666</ele><time>2026-03-29T09:05:11Z</time></trkpt><trkpt lat="43.242122052728696" lon="12.224752978144544"><ele>612.0</ele><time>2026-03-29T09:05:12Z</time></trkpt><trkpt lat="43.24205073792202" lon="12.224726994676695"><ele>612.3333333333334</ele><time>2026-03-29T09:05:13Z</time></trkpt><trkpt lat="43.24198539036827" lon="12.22469470164234"><ele>612.6666666666667</ele><time>2026-03-29T09:05:14Z</time></trkpt><trkpt lat="43.24192355726836" lon="12.22465113355858"><ele>613.0</ele><time>2026-03-29T09:05:15Z</time></trkpt><trkpt lat="43.2418379502065" lon="12.224586823185355"><ele>613.0</ele><time>2026-03-29T09:05:16Z</time></trkpt><trkpt lat="43.24178528060874" lon="12.224516937404982"><ele>613.0</ele><time>2026-03-29T09:05:17Z</time></trkpt><trkpt lat="43.24176946030417" lon="12.22440344156218"><ele>613.0</ele><time>2026-03-29T09:05:19Z</time></trkpt><trkpt lat="43.24179204574426" lon="12.224230981485546"><ele>613.0</ele><time>2026-03-29T09:05:24Z</time></trkpt><trkpt lat="43.24181190477484" lon="12.224102724016753"><ele>613.0</ele><time>2026-03-29T09:05:25Z</time></trkpt><trkpt lat="43.24184172163352" lon="12.223963143665271"><ele>615.0</ele><time>2026-03-29T09:05:26Z</time></trkpt><trkpt lat="43.241868690628436" lon="12.223845667560006"><ele>617.0</ele><time>2026-03-29T09:05:27Z</time></trkpt><trkpt lat="43.24186673365849" lon="12.22374141283425"><ele>619.0</ele><time>2026-03-29T09:05:28Z</time></trkpt><trkpt lat="43.24185278105071" lon="12.22364532268594"><ele>621.0</ele><time>2026-03-29T09:05:29Z</time></trkpt><trkpt lat="43.241833899489464" lon="12.223548392754392"><ele>623.0</ele><time>2026-03-29T09:05:30Z</time></trkpt><trkpt lat="43.241839829900385" lon="12.223451029579314"><ele>625.0</ele><time>2026-03-29T09:05:33Z</time></trkpt><trkpt lat="43.24178389824923" lon="12.22333596924374"><ele>625.0</ele><time>2026-03-29T09:05:35Z</time></trkpt><trkpt lat="43.241716746303666" lon="12.223267993589008"><ele>625.0</ele><time>2026-03-29T09:05:36Z</time></trkpt><trkpt lat="43.241642444751044" lon="12.223205212165704"><ele>625.0</ele><time>2026-03-29T09:05:37Z</time></trkpt><trkpt lat="43.241585224483465" lon="12.223163881928777"><ele>625.0</ele><time>2026-03-29T09:05:38Z</time></trkpt><trkpt lat="43.24154118030941" lon="12.223071860956637"><ele>625.0</ele><time>2026-03-29T09:05:40Z</time></trkpt><trkpt lat="43.24160028634676" lon="12.222967931596752"><ele>625.0</ele><time>2026-03-29T09:05:43Z</time></trkpt><trkpt lat="43.24152275090207" lon="12.22287169300193"><ele>621.4</ele><time>2026-03-29T09:05:46Z</time></trkpt><trkpt lat="43.24140798577768" lon="12.22288214486092"><ele>617.8</ele><time>2026-03-29T09:05:48Z</time></trkpt><trkpt lat="43.24131395141079" lon="12.222860088876555"><ele>614.2</ele><time>2026-03-29T09:05:50Z</time></trkpt><trkpt lat="43.24124724401527" lon="12.22279857177539"><ele>610.6</ele><time>2026-03-29T09:05:55Z</time></trkpt><trkpt lat="43.241202758511825" lon="12.222688601846876"><ele>607.0</ele><time>2026-03-29T09:05:57Z</time></trkpt><trkpt lat="43.24127036998992" lon="12.222633175523743"><ele>607.0</ele><time>2026-03-29T09:06:11.999Z</time></trkpt><trkpt lat="43.24126991559763" lon="12.222501699397872"><ele>607.0</ele><time>2026-03-29T09:06:13.999Z</time></trkpt><trkpt lat="43.2412907832593" lon="12.222381261066289"><ele>607.0</ele><time>2026-03-29T09:06:15.999Z</time></trkpt><trkpt lat="43.24126297572652" lon="12.222290697718961"><ele>607.0</ele><time>2026-03-29T09:06:17.999Z</time></trkpt><trkpt lat="43.24117375278119" lon="12.222260878505253"><ele>607.0</ele><time>2026-03-29T09:06:19.999Z</time></trkpt><trkpt lat="43.24106467445228" lon="12.222311506011382"><ele>607.0</ele><time>2026-03-29T09:06:21.999Z</time></trkpt><trkpt lat="43.24095474819912" lon="12.222346423996813"><ele>607.0</ele><time>2026-03-29T09:06:23.999Z</time></trkpt><trkpt lat="43.24089017053633" lon="12.222364931799335"><ele>607.0</ele><time>2026-03-29T09:06:24.999Z</time></trkpt><trkpt lat="43.24082019375431" lon="12.222397329819872"><ele>607.0</ele><time>2026-03-29T09:06:25.999Z</time></trkpt><trkpt lat="43.240752554027516" lon="12.222426070928027"><ele>607.0</ele><time>2026-03-29T09:06:26.999Z</time></trkpt><trkpt lat="43.24069134800976" lon="12.22246687605764"><ele>607.0</ele><time>2026-03-29T09:06:27.999Z</time></trkpt><trkpt lat="43.24062985553421" lon="12.222504213875068"><ele>605.5</ele><time>2026-03-29T09:06:28.999Z</time></trkpt><trkpt lat="43.24055979877482" lon="12.222535950972496"><ele>604.0</ele><time>2026-03-29T09:06:29.999Z</time></trkpt><trkpt lat="43.24047310116617" lon="12.222571590825183"><ele>602.5</ele><time>2026-03-29T09:06:30.999Z</time></trkpt><trkpt lat="43.240385433833936" lon="12.222590213928845"><ele>601.0</ele><time>2026-03-29T09:06:31.999Z</time></trkpt><trkpt lat="43.240309802064886" lon="12.222597486257834"><ele>599.5</ele><time>2026-03-29T09:06:32.999Z</time></trkpt><trkpt lat="43.24024071265522" lon="12.222607060983147"><ele>598.0</ele><time>2026-03-29T09:06:33.999Z</time></trkpt><trkpt lat="43.24017750817941" lon="12.222606261355883"><ele>598.0</ele><time>2026-03-29T09:06:34.999Z</time></trkpt><trkpt lat="43.240064038420364" lon="12.222584597002784"><ele>598.0</ele><time>2026-03-29T09:06:36.999Z</time></trkpt><trkpt lat="43.239985746166354" lon="12.222554899470207"><ele>598.0</ele><time>2026-03-29T09:06:38.999Z</time></trkpt><trkpt lat="43.239881651371746" lon="12.222497423869315"><ele>598.0</ele><time>2026-03-29T09:06:40.999Z</time></trkpt><trkpt lat="43.23978935335214" lon="12.222450141786155"><ele>598.0</ele><time>2026-03-29T09:06:41.999Z</time></trkpt><trkpt lat="43.23967687440583" lon="12.22237821741001"><ele>597.0</ele><time>2026-03-29T09:06:42.999Z</time></trkpt><trkpt lat="43.239541270406775" lon="12.222289779714878"><ele>596.0</ele><time>2026-03-29T09:06:43.999Z</time></trkpt><trkpt lat="43.23940118279243" lon="12.222203228421694"><ele>595.0</ele><time>2026-03-29T09:06:44.999Z</time></trkpt><trkpt lat="43.23927014551743" lon="12.222125454156721"><ele>594.0</ele><time>2026-03-29T09:06:45.999Z</time></trkpt><trkpt lat="43.23915490944153" lon="12.222055330169654"><ele>594.0</ele><time>2026-03-29T09:06:46.999Z</time></trkpt><trkpt lat="43.23903240341612" lon="12.221985335931365"><ele>594.0</ele><time>2026-03-29T09:06:47.999Z</time></trkpt><trkpt lat="43.23889205668909" lon="12.22191136341177"><ele>594.0</ele><time>2026-03-29T09:06:48.999Z</time></trkpt><trkpt lat="43.23874254686356" lon="12.22182728386501"><ele>594.0</ele><time>2026-03-29T09:06:49.999Z</time></trkpt><trkpt lat="43.23860025820997" lon="12.221743250668505"><ele>593.0</ele><time>2026-03-29T09:06:50.999Z</time></trkpt><trkpt lat="43.23847662434852" lon="12.221673513953311"><ele>592.0</ele><time>2026-03-29T09:06:51.999Z</time></trkpt><trkpt lat="43.2383657855112" lon="12.221605228055664"><ele>591.0</ele><time>2026-03-29T09:06:52.999Z</time></trkpt><trkpt lat="43.238252333726265" lon="12.221527434945173"><ele>590.0</ele><time>2026-03-29T09:06:53.999Z</time></trkpt><trkpt lat="43.238149028381194" lon="12.221452282575008"><ele>590.0</ele><time>2026-03-29T09:06:54.999Z</time></trkpt><trkpt lat="43.238052739410385" lon="12.221385330843903"><ele>590.0</ele><time>2026-03-29T09:06:55.999Z</time></trkpt><trkpt lat="43.23795854783783" lon="12.221315592519913"><ele>590.0</ele><time>2026-03-29T09:06:56.999Z</time></trkpt><trkpt lat="43.23785327572383" lon="12.221246562637173"><ele>590.0</ele><time>2026-03-29T09:06:58Z</time></trkpt><trkpt lat="43.23773254211385" lon="12.221195013012913"><ele>590.0</ele><time>2026-03-29T09:06:59Z</time></trkpt><trkpt lat="43.23760055579339" lon="12.22116756283779"><ele>590.0</ele><time>2026-03-29T09:07:00Z</time></trkpt><trkpt lat="43.23746458528029" lon="12.221155208252497"><ele>590.0</ele><time>2026-03-29T09:07:01Z</time></trkpt><trkpt lat="43.23733798812138" lon="12.221134209727287"><ele>590.0</ele><time>2026-03-29T09:07:02Z</time></trkpt><trkpt lat="43.23721185766682" lon="12.221111445260965"><ele>588.25</ele><time>2026-03-29T09:07:03Z</time></trkpt><trkpt lat="43.23708737100156" lon="12.221093687487626"><ele>586.5</ele><time>2026-03-29T09:07:04Z</time></trkpt><trkpt lat="43.23696738716892" lon="12.221078446199106"><ele>584.75</ele><time>2026-03-29T09:07:05Z</time></trkpt><trkpt lat="43.236862061865736" lon="12.221060820355257"><ele>583.0</ele><time>2026-03-29T09:07:06Z</time></trkpt><trkpt lat="43.23675647197305" lon="12.221035678709285"><ele>583.0</ele><time>2026-03-29T09:07:07Z</time></trkpt><trkpt lat="43.23665356543869" lon="12.22099310279845"><ele>583.0</ele><time>2026-03-29T09:07:08Z</time></trkpt><trkpt lat="43.23656004121881" lon="12.22092756160088"><ele>583.0</ele><time>2026-03-29T09:07:09Z</time></trkpt><trkpt lat="43.23648356212348" lon="12.220842396851426"><ele>583.0</ele><time>2026-03-29T09:07:10Z</time></trkpt><trkpt lat="43.23641514800701" lon="12.220738215326197"><ele>583.0</ele><time>2026-03-29T09:07:11Z</time></trkpt><trkpt lat="43.23635433823215" lon="12.220613514705235"><ele>579.0</ele><time>2026-03-29T09:07:12Z</time></trkpt><trkpt lat="43.23629964872864" lon="12.22044707420385"><ele>575.0</ele><time>2026-03-29T09:07:13Z</time></trkpt><trkpt lat="43.23624782199959" lon="12.220270652537874"><ele>571.0</ele><time>2026-03-29T09:07:14Z</time></trkpt><trkpt lat="43.23620598384778" lon="12.22010547812739"><ele>567.0</ele><time>2026-03-29T09:07:15Z</time></trkpt><trkpt lat="43.236171924073815" lon="12.21995025548236"><ele>567.0</ele><time>2026-03-29T09:07:16Z</time></trkpt><trkpt lat="43.23614311953332" lon="12.21979567253332"><ele>567.0</ele><time>2026-03-29T09:07:17Z</time></trkpt><trkpt lat="43.23611586169041" lon="12.21962853283055"><ele>567.0</ele><time>2026-03-29T09:07:18Z</time></trkpt><trkpt lat="43.23609496310905" lon="12.219479558054376"><ele>567.0</ele><time>2026-03-29T09:07:19Z</time></trkpt><trkpt lat="43.236081295575346" lon="12.219332360971778"><ele>567.0</ele><time>2026-03-29T09:07:20Z</time></trkpt><trkpt lat="43.23605856910891" lon="12.219186395594852"><ele>567.0</ele><time>2026-03-29T09:07:21Z</time></trkpt><trkpt lat="43.23603564988872" lon="12.219046743743641"><ele>567.0</ele><time>2026-03-29T09:07:22Z</time></trkpt><trkpt lat="43.23600079519142" lon="12.218921427148718"><ele>567.0</ele><time>2026-03-29T09:07:23Z</time></trkpt><trkpt lat="43.235940417352" lon="12.218799545924359"><ele>567.0</ele><time>2026-03-29T09:07:24Z</time></trkpt><trkpt lat="43.235853514659524" lon="12.218670574928966"><ele>567.25</ele><time>2026-03-29T09:07:25Z</time></trkpt><trkpt lat="43.235740989309875" lon="12.218548746682659"><ele>567.5</ele><time>2026-03-29T09:07:26Z</time></trkpt><trkpt lat="43.23560347262476" lon="12.218440405559035"><ele>567.75</ele><time>2026-03-29T09:07:27Z</time></trkpt><trkpt lat="43.23547495039031" lon="12.218366512847592"><ele>568.0</ele><time>2026-03-29T09:07:28Z</time></trkpt><trkpt lat="43.235362368513755" lon="12.218303595057156"><ele>567.1999999999999</ele><time>2026-03-29T09:07:29Z</time></trkpt><trkpt lat="43.235264081053295" lon="12.21824330914536"><ele>566.4</ele><time>2026-03-29T09:07:30Z</time></trkpt><trkpt lat="43.23517167069241" lon="12.218191633857016"><ele>565.5999999999999</ele><time>2026-03-29T09:07:31Z</time></trkpt><trkpt lat="43.23507406720104" lon="12.218133302531529"><ele>564.8</ele><time>2026-03-29T09:07:32Z</time></trkpt><trkpt lat="43.23497210882676" lon="12.21805357265293"><ele>564.0</ele><time>2026-03-29T09:07:33Z</time></trkpt><trkpt lat="43.23487905246717" lon="12.217970850298252"><ele>562.0</ele><time>2026-03-29T09:07:34Z</time></trkpt><trkpt lat="43.23479392023198" lon="12.217890741167308"><ele>560.0</ele><time>2026-03-29T09:07:35Z</time></trkpt><trkpt lat="43.234714257221626" lon="12.217806820440181"><ele>558.0</ele><time>2026-03-29T09:07:36Z</time></trkpt><trkpt lat="43.234639416607955" lon="12.217706642369624"><ele>556.0</ele><time>2026-03-29T09:07:37Z</time></trkpt><trkpt lat="43.23457206412652" lon="12.21759263418098"><ele>554.0</ele><time>2026-03-29T09:07:38Z</time></trkpt><trkpt lat="43.2345130843286" lon="12.21748737065022"><ele>554.0</ele><time>2026-03-29T09:07:39Z</time></trkpt><trkpt lat="43.23445843356098" lon="12.217392383202732"><ele>554.0</ele><time>2026-03-29T09:07:40Z</time></trkpt><trkpt lat="43.234406152197586" lon="12.21729485132211"><ele>554.0</ele><time>2026-03-29T09:07:41Z</time></trkpt><trkpt lat="43.234359115649184" lon="12.21718904900548"><ele>554.0</ele><time>2026-03-29T09:07:42Z</time></trkpt><trkpt lat="43.234316782976364" lon="12.217053600139932"><ele>554.0</ele><time>2026-03-29T09:07:43Z</time></trkpt><trkpt lat="43.234287692062345" lon="12.216910860024873"><ele>553.75</ele><time>2026-03-29T09:07:44Z</time></trkpt><trkpt lat="43.23425697232647" lon="12.216760578007134"><ele>553.5</ele><time>2026-03-29T09:07:45Z</time></trkpt><trkpt lat="43.2342333644378" lon="12.21658364899914"><ele>553.25</ele><time>2026-03-29T09:07:46Z</time></trkpt><trkpt lat="43.23418216872567" lon="12.2164151699475"><ele>553.0</ele><time>2026-03-29T09:07:47Z</time></trkpt><trkpt lat="43.23415170202749" lon="12.216257562017242"><ele>553.0</ele><time>2026-03-29T09:07:48Z</time></trkpt><trkpt lat="43.23411581417969" lon="12.21611361453894"><ele>553.0</ele><time>2026-03-29T09:07:49Z</time></trkpt><trkpt lat="43.234066954093414" lon="12.215988194252105"><ele>553.0</ele><time>2026-03-29T09:07:50Z</time></trkpt><trkpt lat="43.23399319698042" lon="12.215873631182934"><ele>553.0</ele><time>2026-03-29T09:07:51Z</time></trkpt><trkpt lat="43.233893969234835" lon="12.215767466167156"><ele>551.0</ele><time>2026-03-29T09:07:52Z</time></trkpt><trkpt lat="43.233786942869735" lon="12.215676340554738"><ele>549.0</ele><time>2026-03-29T09:07:53Z</time></trkpt><trkpt lat="43.233694544572074" lon="12.215589780176602"><ele>547.0</ele><time>2026-03-29T09:07:54Z</time></trkpt><trkpt lat="43.233619495385476" lon="12.2154744398349"><ele>545.0</ele><time>2026-03-29T09:07:55Z</time></trkpt><trkpt lat="43.23358064845005" lon="12.215334598160956"><ele>545.0</ele><time>2026-03-29T09:07:56Z</time></trkpt><trkpt lat="43.23355900414369" lon="12.215205645212224"><ele>545.0</ele><time>2026-03-29T09:07:57Z</time></trkpt><trkpt lat="43.23355178692841" lon="12.215078784853688"><ele>545.0</ele><time>2026-03-29T09:07:58Z</time></trkpt><trkpt lat="43.23358306312309" lon="12.214959969464772"><ele>545.0</ele><time>2026-03-29T09:07:59Z</time></trkpt><trkpt lat="43.23364317144737" lon="12.214855494922249"><ele>545.0</ele><time>2026-03-29T09:08:00Z</time></trkpt><trkpt lat="43.23373384633453" lon="12.214760371066115"><ele>544.6</ele><time>2026-03-29T09:08:01Z</time></trkpt><trkpt lat="43.233820373501594" lon="12.21465931904463"><ele>544.2</ele><time>2026-03-29T09:08:02Z</time></trkpt><trkpt lat="43.23388825423668" lon="12.214561608336394"><ele>543.8</ele><time>2026-03-29T09:08:03Z</time></trkpt><trkpt lat="43.233983025326076" lon="12.214531063695505"><ele>543.4</ele><time>2026-03-29T09:08:04Z</time></trkpt><trkpt lat="43.234079497626865" lon="12.214514889298805"><ele>543.0</ele><time>2026-03-29T09:08:05Z</time></trkpt><trkpt lat="43.23419531230405" lon="12.214494894697847"><ele>543.0</ele><time>2026-03-29T09:08:06Z</time></trkpt><trkpt lat="43.234312984328284" lon="12.214477754126234"><ele>543.0</ele><time>2026-03-29T09:08:07Z</time></trkpt><trkpt lat="43.23441752595932" lon="12.214439179308744"><ele>543.0</ele><time>2026-03-29T09:08:08Z</time></trkpt><trkpt lat="43.23451350907552" lon="12.214454973943742"><ele>543.0</ele><time>2026-03-29T09:08:09Z</time></trkpt><trkpt lat="43.23460324932336" lon="12.2144521212711"><ele>543.0</ele><time>2026-03-29T09:08:10Z</time></trkpt><trkpt lat="43.23467428569911" lon="12.214510242733203"><ele>543.0</ele><time>2026-03-29T09:08:11Z</time></trkpt><trkpt lat="43.23472596865032" lon="12.21461059000691"><ele>543.0</ele><time>2026-03-29T09:08:11.999Z</time></trkpt><trkpt lat="43.23476930775536" lon="12.214749718916433"><ele>543.0</ele><time>2026-03-29T09:08:12.999Z</time></trkpt><trkpt lat="43.23481702285353" lon="12.214911600435835"><ele>543.0</ele><time>2026-03-29T09:08:13.999Z</time></trkpt><trkpt lat="43.23485959723123" lon="12.215059462737463"><ele>543.0</ele><time>2026-03-29T09:08:14.999Z</time></trkpt><trkpt lat="43.23490543767347" lon="12.215186746343628"><ele>542.6666666666666</ele><time>2026-03-29T09:08:15.999Z</time></trkpt><trkpt lat="43.23494503544486" lon="12.215304053259636"><ele>542.3333333333334</ele><time>2026-03-29T09:08:16.999Z</time></trkpt><trkpt lat="43.234998049626476" lon="12.21539592550148"><ele>542.0</ele><time>2026-03-29T09:08:17.999Z</time></trkpt><trkpt lat="43.2350443256643" lon="12.215459086326769"><ele>541.6666666666667</ele><time>2026-03-29T09:08:18.999Z</time></trkpt><trkpt lat="43.235130137241015" lon="12.215482830768622"><ele>541.3333333333334</ele><time>2026-03-29T09:08:19.999Z</time></trkpt><trkpt lat="43.235207385519445" lon="12.215458790301028"><ele>541.0</ele><time>2026-03-29T09:08:20.999Z</time></trkpt><trkpt lat="43.235264088786714" lon="12.215383628983139"><ele>541.0</ele><time>2026-03-29T09:08:21.999Z</time></trkpt><trkpt lat="43.2353199812422" lon="12.215314857360124"><ele>541.0</ele><time>2026-03-29T09:08:22.999Z</time></trkpt><trkpt lat="43.235343340544055" lon="12.21520044593213"><ele>541.0</ele><time>2026-03-29T09:08:23.999Z</time></trkpt><trkpt lat="43.235325691282775" lon="12.215058943782935"><ele>541.0</ele><time>2026-03-29T09:08:24.999Z</time></trkpt><trkpt lat="43.235232780932094" lon="12.214910961231947"><ele>541.0</ele><time>2026-03-29T09:08:25.999Z</time></trkpt><trkpt lat="43.23516489741006" lon="12.214728603900454"><ele>538.3333333333334</ele><time>2026-03-29T09:08:26.999Z</time></trkpt><trkpt lat="43.23511586418825" lon="12.214543639516435"><ele>535.6666666666666</ele><time>2026-03-29T09:08:27.999Z</time></trkpt><trkpt lat="43.23507707069608" lon="12.21430132472381"><ele>533.0</ele><time>2026-03-29T09:08:28.999Z</time></trkpt><trkpt lat="43.23502999288655" lon="12.214036811016479"><ele>526.6666666666666</ele><time>2026-03-29T09:08:29.999Z</time></trkpt><trkpt lat="43.23498086277904" lon="12.213815079516696"><ele>520.3333333333334</ele><time>2026-03-29T09:08:30.999Z</time></trkpt><trkpt lat="43.23493314257131" lon="12.21361635939943"><ele>514.0</ele><time>2026-03-29T09:08:31.999Z</time></trkpt><trkpt lat="43.23490041905806" lon="12.213442149978205"><ele>514.0</ele><time>2026-03-29T09:08:32.999Z</time></trkpt><trkpt lat="43.2348799511136" lon="12.213308475771864"><ele>514.0</ele><time>2026-03-29T09:08:33.999Z</time></trkpt><trkpt lat="43.23487323927339" lon="12.21320233063431"><ele>514.0</ele><time>2026-03-29T09:08:34.999Z</time></trkpt><trkpt lat="43.234916441966305" lon="12.21306808170425"><ele>514.0</ele><time>2026-03-29T09:08:36.999Z</time></trkpt><trkpt lat="43.23505995000981" lon="12.212964559701815"><ele>514.0</ele><time>2026-03-29T09:08:38.999Z</time></trkpt><trkpt lat="43.23517959097334" lon="12.212911387219021"><ele>511.79999999999995</ele><time>2026-03-29T09:08:39.999Z</time></trkpt><trkpt lat="43.23529761390084" lon="12.212855520231447"><ele>509.59999999999997</ele><time>2026-03-29T09:08:40.999Z</time></trkpt><trkpt lat="43.23540158985243" lon="12.212804482574253"><ele>507.4</ele><time>2026-03-29T09:08:41.999Z</time></trkpt><trkpt lat="43.235479214639135" lon="12.212736514450555"><ele>505.2</ele><time>2026-03-29T09:08:42.999Z</time></trkpt><trkpt lat="43.2355518261833" lon="12.21270713100966"><ele>503.0</ele><time>2026-03-29T09:08:43.999Z</time></trkpt><trkpt lat="43.23558422756622" lon="12.212613072683581"><ele>502.99999999999994</ele><time>2026-03-29T09:08:44.999Z</time></trkpt><trkpt lat="43.2356114254391" lon="12.212522983537104"><ele>503.0</ele><time>2026-03-29T09:08:45.999Z</time></trkpt><trkpt lat="43.23559020003937" lon="12.212401258036214"><ele>503.0</ele><time>2026-03-29T09:08:46.999Z</time></trkpt><trkpt lat="43.235518980834044" lon="12.212314965356104"><ele>503.0</ele><time>2026-03-29T09:08:47.999Z</time></trkpt><trkpt lat="43.23544243174312" lon="12.212274048290048"><ele>502.99999999999994</ele><time>2026-03-29T09:08:48.999Z</time></trkpt><trkpt lat="43.23534466370962" lon="12.212281364586422"><ele>503.0</ele><time>2026-03-29T09:08:49.999Z</time></trkpt><trkpt lat="43.235220786781866" lon="12.212338944954492"><ele>503.0</ele><time>2026-03-29T09:08:50.999Z</time></trkpt><trkpt lat="43.23507527750926" lon="12.21241832760951"><ele>503.0</ele><time>2026-03-29T09:08:51.999Z</time></trkpt><trkpt lat="43.23491612163667" lon="12.212501086666565"><ele>503.0</ele><time>2026-03-29T09:08:52.999Z</time></trkpt><trkpt lat="43.23476299978517" lon="12.212573815112396"><ele>502.79999999999995</ele><time>2026-03-29T09:08:53.999Z</time></trkpt><trkpt lat="43.234630284870136" lon="12.212639161657828"><ele>502.59999999999997</ele><time>2026-03-29T09:08:54.999Z</time></trkpt><trkpt lat="43.23451480356092" lon="12.212689688284645"><ele>502.40000000000003</ele><time>2026-03-29T09:08:55.999Z</time></trkpt><trkpt lat="43.23442045998733" lon="12.212720268756497"><ele>502.20000000000005</ele><time>2026-03-29T09:08:56.999Z</time></trkpt><trkpt lat="43.23433747901186" lon="12.212721476759336"><ele>502.0</ele><time>2026-03-29T09:08:57.999Z</time></trkpt><trkpt lat="43.23425838400855" lon="12.212687784364443"><ele>502.0</ele><time>2026-03-29T09:08:58.999Z</time></trkpt><trkpt lat="43.23418921286263" lon="12.212606512474867"><ele>502.00000000000006</ele><time>2026-03-29T09:08:59.999Z</time></trkpt><trkpt lat="43.234161475769056" lon="12.212469786084878"><ele>502.00000000000006</ele><time>2026-03-29T09:09:00.999Z</time></trkpt><trkpt lat="43.234098425963595" lon="12.21237059827924"><ele>502.0</ele><time>2026-03-29T09:09:01.999Z</time></trkpt><trkpt lat="43.23403085594117" lon="12.212281822900103"><ele>502.0</ele><time>2026-03-29T09:09:02.999Z</time></trkpt><trkpt lat="43.23395027792238" lon="12.212232153007822"><ele>501.0</ele><time>2026-03-29T09:09:04Z</time></trkpt><trkpt lat="43.23385989214822" lon="12.212220863828634"><ele>500.00000000000006</ele><time>2026-03-29T09:09:05Z</time></trkpt><trkpt lat="43.2337707799867" lon="12.212243262449743"><ele>499.00000000000006</ele><time>2026-03-29T09:09:06Z</time></trkpt><trkpt lat="43.23368753054403" lon="12.212287311388685"><ele>498.0</ele><time>2026-03-29T09:09:07Z</time></trkpt><trkpt lat="43.23360089085857" lon="12.212361768145422"><ele>497.0</ele><time>2026-03-29T09:09:08Z</time></trkpt><trkpt lat="43.23350459935572" lon="12.212459343018585"><ele>496.99999999999994</ele><time>2026-03-29T09:09:09Z</time></trkpt><trkpt lat="43.233420887561" lon="12.212550352698766"><ele>497.0</ele><time>2026-03-29T09:09:10Z</time></trkpt><trkpt lat="43.23335969768759" lon="12.212618733588153"><ele>497.0</ele><time>2026-03-29T09:09:11Z</time></trkpt><trkpt lat="43.23330306108973" lon="12.212663841955088"><ele>497.0</ele><time>2026-03-29T09:09:12Z</time></trkpt><trkpt lat="43.23323300284735" lon="12.21268777800671"><ele>496.99999999999994</ele><time>2026-03-29T09:09:13Z</time></trkpt><trkpt lat="43.23316016925103" lon="12.212639900799504"><ele>497.0</ele><time>2026-03-29T09:09:14Z</time></trkpt><trkpt lat="43.23308743546576" lon="12.212533762381744"><ele>497.0</ele><time>2026-03-29T09:09:15Z</time></trkpt><trkpt lat="43.23302746369113" lon="12.212387357828867"><ele>497.00000000000006</ele><time>2026-03-29T09:09:16Z</time></trkpt><trkpt lat="43.23295590541387" lon="12.212251636374342"><ele>497.00000000000006</ele><time>2026-03-29T09:09:17Z</time></trkpt><trkpt lat="43.23289431822529" lon="12.212187969766115"><ele>497.0</ele><time>2026-03-29T09:09:18Z</time></trkpt><trkpt lat="43.23280899672991" lon="12.212150897578656"><ele>497.0</ele><time>2026-03-29T09:09:19Z</time></trkpt><trkpt lat="43.23271708184676" lon="12.212155292643796"><ele>493.16666666666663</ele><time>2026-03-29T09:09:20Z</time></trkpt><trkpt lat="43.23262399906206" lon="12.212188977059627"><ele>489.3333333333333</ele><time>2026-03-29T09:09:21Z</time></trkpt><trkpt lat="43.23253464898724" lon="12.212240878291485"><ele>485.5</ele><time>2026-03-29T09:09:22Z</time></trkpt><trkpt lat="43.232459170283484" lon="12.212290190670164"><ele>481.66666666666663</ele><time>2026-03-29T09:09:23Z</time></trkpt><trkpt lat="43.23238601880567" lon="12.212318746371226"><ele>477.8333333333333</ele><time>2026-03-29T09:09:24Z</time></trkpt><trkpt lat="43.23230753169439" lon="12.212315256314385"><ele>474.0</ele><time>2026-03-29T09:09:25Z</time></trkpt><trkpt lat="43.2322306676952" lon="12.212274200830423"><ele>474.0</ele><time>2026-03-29T09:09:26Z</time></trkpt><trkpt lat="43.23215445838926" lon="12.212186041901012"><ele>474.0</ele><time>2026-03-29T09:09:27Z</time></trkpt><trkpt lat="43.23207761402369" lon="12.212075405295412"><ele>474.0</ele><time>2026-03-29T09:09:28Z</time></trkpt><trkpt lat="43.23204154953214" lon="12.21196472216198"><ele>474.0</ele><time>2026-03-29T09:09:29Z</time></trkpt><trkpt lat="43.23198921944423" lon="12.211898282592301"><ele>474.0</ele><time>2026-03-29T09:09:30Z</time></trkpt><trkpt lat="43.231903420873074" lon="12.211888507196624"><ele>474.0</ele><time>2026-03-29T09:09:31Z</time></trkpt><trkpt lat="43.231804600596845" lon="12.211906765958439"><ele>474.0</ele><time>2026-03-29T09:09:32Z</time></trkpt><trkpt lat="43.23169050046947" lon="12.211946764484745"><ele>474.0</ele><time>2026-03-29T09:09:33Z</time></trkpt><trkpt lat="43.23156356395098" lon="12.211975337614133"><ele>474.0</ele><time>2026-03-29T09:09:34Z</time></trkpt><trkpt lat="43.23145686149017" lon="12.211994565583572"><ele>473.2</ele><time>2026-03-29T09:09:35Z</time></trkpt><trkpt lat="43.2313627879189" lon="12.212014026933716"><ele>472.4</ele><time>2026-03-29T09:09:36Z</time></trkpt><trkpt lat="43.231266733747916" lon="12.212023258329328"><ele>471.6</ele><time>2026-03-29T09:09:37Z</time></trkpt><trkpt lat="43.23117335486379" lon="12.212009283092838"><ele>470.8</ele><time>2026-03-29T09:09:38Z</time></trkpt><trkpt lat="43.231086066239996" lon="12.211969931905287"><ele>470.0</ele><time>2026-03-29T09:09:39Z</time></trkpt><trkpt lat="43.23100420614021" lon="12.211909327594801"><ele>470.0</ele><time>2026-03-29T09:09:40Z</time></trkpt><trkpt lat="43.23092666105506" lon="12.211823384479237"><ele>470.0</ele><time>2026-03-29T09:09:41Z</time></trkpt><trkpt lat="43.23085441932085" lon="12.211726110752132"><ele>470.0</ele><time>2026-03-29T09:09:42Z</time></trkpt><trkpt lat="43.230785103488664" lon="12.211636543900813"><ele>470.0</ele><time>2026-03-29T09:09:43Z</time></trkpt><trkpt lat="43.23071889977284" lon="12.211552373495465"><ele>470.0</ele><time>2026-03-29T09:09:44Z</time></trkpt><trkpt lat="43.23066766063623" lon="12.211468372496476"><ele>467.8</ele><time>2026-03-29T09:09:45Z</time></trkpt><trkpt lat="43.2306298016428" lon="12.21137110562544"><ele>465.6</ele><time>2026-03-29T09:09:46Z</time></trkpt><trkpt lat="43.23061120156008" lon="12.211262367800774"><ele>463.4</ele><time>2026-03-29T09:09:47Z</time></trkpt><trkpt lat="43.23061410372992" lon="12.211142718789237"><ele>461.2</ele><time>2026-03-29T09:09:48Z</time></trkpt><trkpt lat="43.23066656616355" lon="12.21101184101335"><ele>459.0</ele><time>2026-03-29T09:09:49Z</time></trkpt><trkpt lat="43.23070487314409" lon="12.210863737124633"><ele>459.0</ele><time>2026-03-29T09:09:50Z</time></trkpt><trkpt lat="43.23074076638336" lon="12.210724965421003"><ele>459.0</ele><time>2026-03-29T09:09:51Z</time></trkpt><trkpt lat="43.23076750495002" lon="12.210554268307332"><ele>459.0</ele><time>2026-03-29T09:09:52Z</time></trkpt><trkpt lat="43.23081423028583" lon="12.210370729467469"><ele>459.0</ele><time>2026-03-29T09:09:53Z</time></trkpt><trkpt lat="43.23086534311402" lon="12.21018276510255"><ele>456.66666666666663</ele><time>2026-03-29T09:09:54Z</time></trkpt><trkpt lat="43.230918078114236" lon="12.209981231069714"><ele>454.3333333333333</ele><time>2026-03-29T09:09:55Z</time></trkpt><trkpt lat="43.23096800830485" lon="12.209780152113133"><ele>452.0</ele><time>2026-03-29T09:09:56Z</time></trkpt><trkpt lat="43.23102027991718" lon="12.20957856164309"><ele>452.0</ele><time>2026-03-29T09:09:57Z</time></trkpt><trkpt lat="43.23106084381179" lon="12.20941955359925"><ele>452.00000000000006</ele><time>2026-03-29T09:09:58Z</time></trkpt><trkpt lat="43.23109978367193" lon="12.209276323068119"><ele>452.00000000000006</ele><time>2026-03-29T09:09:59Z</time></trkpt><trkpt lat="43.23114916055077" lon="12.209154063081861"><ele>452.0</ele><time>2026-03-29T09:10:00Z</time></trkpt><trkpt lat="43.23117931572488" lon="12.209025948535649"><ele>452.0</ele><time>2026-03-29T09:10:01Z</time></trkpt><trkpt lat="43.23118836954718" lon="12.20888851517601"><ele>451.0</ele><time>2026-03-29T09:10:02Z</time></trkpt><trkpt lat="43.23121295659639" lon="12.208743156187948"><ele>450.00000000000006</ele><time>2026-03-29T09:10:03Z</time></trkpt><trkpt lat="43.23123112138867" lon="12.208584106834236"><ele>449.00000000000006</ele><time>2026-03-29T09:10:04Z</time></trkpt><trkpt lat="43.231264846593675" lon="12.208441803520714"><ele>448.0</ele><time>2026-03-29T09:10:05Z</time></trkpt><trkpt lat="43.23128076415088" lon="12.208301331097687"><ele>447.0</ele><time>2026-03-29T09:10:06Z</time></trkpt><trkpt lat="43.23129946246816" lon="12.208168324770792"><ele>447.0</ele><time>2026-03-29T09:10:07Z</time></trkpt><trkpt lat="43.23132239407357" lon="12.208033861416451"><ele>447.00000000000006</ele><time>2026-03-29T09:10:08Z</time></trkpt><trkpt lat="43.23134415998897" lon="12.207902710671197"><ele>447.00000000000006</ele><time>2026-03-29T09:10:09Z</time></trkpt><trkpt lat="43.231362247186354" lon="12.207784922367996"><ele>447.0</ele><time>2026-03-29T09:10:10Z</time></trkpt><trkpt lat="43.23137880974104" lon="12.207677062917297"><ele>447.0</ele><time>2026-03-29T09:10:11Z</time></trkpt><trkpt lat="43.231407095043764" lon="12.207517074135902"><ele>447.0</ele><time>2026-03-29T09:10:13Z</time></trkpt><trkpt lat="43.23143719526998" lon="12.207366220214622"><ele>447.00000000000006</ele><time>2026-03-29T09:10:14.999Z</time></trkpt><trkpt lat="43.23146513761355" lon="12.207267287213279"><ele>447.00000000000006</ele><time>2026-03-29T09:10:16.999Z</time></trkpt><trkpt lat="43.231491990444006" lon="12.207172611452036"><ele>447.0</ele><time>2026-03-29T09:10:18.999Z</time></trkpt><trkpt lat="43.23134495539123" lon="12.207050303585483"><ele>447.0</ele><time>2026-03-29T09:10:30.999Z</time></trkpt><trkpt lat="43.231306323687335" lon="12.206942832658283"><ele>448.1666666666667</ele><time>2026-03-29T09:10:42.999Z</time></trkpt><trkpt lat="43.2312549893831" lon="12.2068763960325"><ele>449.33333333333337</ele><time>2026-03-29T09:10:44.999Z</time></trkpt><trkpt lat="43.23116484913161" lon="12.2068689595893"><ele>450.5</ele><time>2026-03-29T09:10:46.999Z</time></trkpt><trkpt lat="43.23108010828758" lon="12.206881587406055"><ele>451.6666666666667</ele><time>2026-03-29T09:10:49.999Z</time></trkpt><trkpt lat="43.231027803101874" lon="12.206937327696533"><ele>452.83333333333337</ele><time>2026-03-29T09:10:52.999Z</time></trkpt><trkpt lat="43.2309582100113" lon="12.207006260251333"><ele>454.0</ele><time>2026-03-29T09:10:54.999Z</time></trkpt><trkpt lat="43.23085565885939" lon="12.207055297365008"><ele>454.0</ele><time>2026-03-29T09:10:56.999Z</time></trkpt><trkpt lat="43.230762706109196" lon="12.207129557441824"><ele>454.0</ele><time>2026-03-29T09:10:58.999Z</time></trkpt><trkpt lat="43.230668678428685" lon="12.207179487781143"><ele>454.0</ele><time>2026-03-29T09:11:00.999Z</time></trkpt><trkpt lat="43.23061047717696" lon="12.207228464938924"><ele>454.0</ele><time>2026-03-29T09:11:01.999Z</time></trkpt><trkpt lat="43.23051087987965" lon="12.207299203124535"><ele>454.0</ele><time>2026-03-29T09:11:03.999Z</time></trkpt><trkpt lat="43.23042143225516" lon="12.207355603601535"><ele>452.83333333333337</ele><time>2026-03-29T09:11:05.999Z</time></trkpt><trkpt lat="43.230332411900804" lon="12.207416180898566"><ele>451.6666666666667</ele><time>2026-03-29T09:11:07.999Z</time></trkpt><trkpt lat="43.23027012031892" lon="12.20743872953874"><ele>450.5</ele><time>2026-03-29T09:11:10Z</time></trkpt><trkpt lat="43.23021035573834" lon="12.207482762495815"><ele>449.33333333333337</ele><time>2026-03-29T09:11:12Z</time></trkpt><trkpt lat="43.23012888559876" lon="12.207521749388006"><ele>448.1666666666667</ele><time>2026-03-29T09:11:15Z</time></trkpt><trkpt lat="43.2300659049922" lon="12.207553426550382"><ele>447.0</ele><time>2026-03-29T09:11:17Z</time></trkpt><trkpt lat="43.23000222814815" lon="12.207575586772672"><ele>447.0</ele><time>2026-03-29T09:11:20Z</time></trkpt><trkpt lat="43.22991297095389" lon="12.207618479989636"><ele>447.00000000000006</ele><time>2026-03-29T09:11:25Z</time></trkpt><trkpt lat="43.22983772863192" lon="12.207680732408626"><ele>447.00000000000006</ele><time>2026-03-29T09:11:27Z</time></trkpt><trkpt lat="43.229747721335" lon="12.207746399179419"><ele>447.0</ele><time>2026-03-29T09:11:29Z</time></trkpt><trkpt lat="43.22965858624656" lon="12.207794366866468"><ele>447.0</ele><time>2026-03-29T09:11:31Z</time></trkpt><trkpt lat="43.2295530971573" lon="12.207814800706746"><ele>446.6666666666667</ele><time>2026-03-29T09:11:33Z</time></trkpt><trkpt lat="43.22946430557258" lon="12.207839144875004"><ele>446.33333333333337</ele><time>2026-03-29T09:11:35Z</time></trkpt><trkpt lat="43.22939084243774" lon="12.207865505989034"><ele>446.0</ele><time>2026-03-29T09:11:37Z</time></trkpt><trkpt lat="43.22931091293091" lon="12.207867762355887"><ele>445.6666666666667</ele><time>2026-03-29T09:11:39Z</time></trkpt><trkpt lat="43.22922589999719" lon="12.20782389692035"><ele>445.33333333333337</ele><time>2026-03-29T09:11:41Z</time></trkpt><trkpt lat="43.2291495215597" lon="12.207784653661388"><ele>445.0</ele><time>2026-03-29T09:11:44Z</time></trkpt><trkpt lat="43.22908564495219" lon="12.207780916677837"><ele>445.0</ele><time>2026-03-29T09:11:46Z</time></trkpt><trkpt lat="43.228988879054896" lon="12.207777210923718"><ele>445.0</ele><time>2026-03-29T09:11:48Z</time></trkpt><trkpt lat="43.22892091649433" lon="12.207794465427227"><ele>445.0</ele><time>2026-03-29T09:11:49Z</time></trkpt><trkpt lat="43.22882980871971" lon="12.207826584062264"><ele>445.0</ele><time>2026-03-29T09:11:51Z</time></trkpt><trkpt lat="43.22874719158018" lon="12.207848198575686"><ele>445.0</ele><time>2026-03-29T09:11:53Z</time></trkpt><trkpt lat="43.22863713632265" lon="12.207884010952387"><ele>444.33333333333337</ele><time>2026-03-29T09:11:55Z</time></trkpt><trkpt lat="43.2285343412545" lon="12.20794347770173"><ele>443.6666666666667</ele><time>2026-03-29T09:11:57Z</time></trkpt><trkpt lat="43.228467044464956" lon="12.207952473384237"><ele>443.0</ele><time>2026-03-29T09:11:59Z</time></trkpt><trkpt lat="43.22840377262269" lon="12.20795432611864"><ele>442.33333333333337</ele><time>2026-03-29T09:12:06Z</time></trkpt><trkpt lat="43.22844406935039" lon="12.20806563621355"><ele>441.6666666666667</ele><time>2026-03-29T09:12:09Z</time></trkpt><trkpt lat="43.2285082710672" lon="12.208111168475066"><ele>441.0</ele><time>2026-03-29T09:12:11Z</time></trkpt><trkpt lat="43.22857422007628" lon="12.208150189158859"><ele>437.0</ele><time>2026-03-29T09:12:13Z</time></trkpt><trkpt lat="43.22862947215977" lon="12.208199851837751"><ele>433.0</ele><time>2026-03-29T09:12:14.999Z</time></trkpt><trkpt lat="43.22870661703236" lon="12.20825199265213"><ele>429.0</ele><time>2026-03-29T09:12:17.999Z</time></trkpt><trkpt lat="43.22875140132258" lon="12.208323910046275"><ele>425.0</ele><time>2026-03-29T09:12:19.999Z</time></trkpt><trkpt lat="43.22874704597866" lon="12.20845363111727"><ele>421.0</ele><time>2026-03-29T09:12:21.999Z</time></trkpt><trkpt lat="43.22869308922027" lon="12.208557437743094"><ele>417.0</ele><time>2026-03-29T09:12:23.999Z</time></trkpt><trkpt lat="43.22862070742744" lon="12.208608064475328"><ele>417.0</ele><time>2026-03-29T09:12:25.999Z</time></trkpt><trkpt lat="43.228545229366496" lon="12.208661743922512"><ele>417.0</ele><time>2026-03-29T09:12:27.999Z</time></trkpt><trkpt lat="43.228448579160236" lon="12.208660938594509"><ele>417.0</ele><time>2026-03-29T09:12:29.999Z</time></trkpt><trkpt lat="43.228370780168454" lon="12.208622947363926"><ele>417.0</ele><time>2026-03-29T09:12:31.999Z</time></trkpt><trkpt lat="43.228298930464334" lon="12.20860522041527"><ele>417.0</ele><time>2026-03-29T09:12:33.999Z</time></trkpt><trkpt lat="43.22821193044647" lon="12.208593504358637"><ele>417.0</ele><time>2026-03-29T09:12:35.999Z</time></trkpt><trkpt lat="43.22814189990168" lon="12.208590895816556"><ele>417.3333333333333</ele><time>2026-03-29T09:12:37.999Z</time></trkpt><trkpt lat="43.22811099304419" lon="12.208701814314578"><ele>417.66666666666663</ele><time>2026-03-29T09:12:40.999Z</time></trkpt><trkpt lat="43.22811668651496" lon="12.208823894425802"><ele>418.0</ele><time>2026-03-29T09:12:42.999Z</time></trkpt><trkpt lat="43.22803120725337" lon="12.208903342902975"><ele>418.3333333333333</ele><time>2026-03-29T09:12:45.999Z</time></trkpt><trkpt lat="43.227978170124764" lon="12.208955771935592"><ele>418.66666666666663</ele><time>2026-03-29T09:12:47.999Z</time></trkpt><trkpt lat="43.22793407461892" lon="12.209030417200003"><ele>419.0</ele><time>2026-03-29T09:12:49.999Z</time></trkpt><trkpt lat="43.227889258197344" lon="12.209103854513007"><ele>412.79999999999995</ele><time>2026-03-29T09:12:51.999Z</time></trkpt><trkpt lat="43.22781365447259" lon="12.209051021989731"><ele>406.59999999999997</ele><time>2026-03-29T09:12:55.999Z</time></trkpt><trkpt lat="43.22771686786815" lon="12.209062688907478"><ele>400.4</ele><time>2026-03-29T09:12:57.999Z</time></trkpt><trkpt lat="43.227640953046986" lon="12.209120838809891"><ele>394.2</ele><time>2026-03-29T09:12:58.999Z</time></trkpt><trkpt lat="43.227550931021206" lon="12.209163837744684"><ele>388.0</ele><time>2026-03-29T09:12:59.999Z</time></trkpt><trkpt lat="43.227466799638364" lon="12.209184917589008"><ele>388.00000000000006</ele><time>2026-03-29T09:13:00.999Z</time></trkpt><trkpt lat="43.22740285101837" lon="12.209196593489597"><ele>388.0</ele><time>2026-03-29T09:13:01.999Z</time></trkpt><trkpt lat="43.22734049135851" lon="12.209223062019815"><ele>388.0</ele><time>2026-03-29T09:13:02.999Z</time></trkpt><trkpt lat="43.22727088306396" lon="12.209247275095926"><ele>388.0</ele><time>2026-03-29T09:13:03.999Z</time></trkpt><trkpt lat="43.22713879623155" lon="12.209242218992147"><ele>388.00000000000006</ele><time>2026-03-29T09:13:05.999Z</time></trkpt><trkpt lat="43.2270644430063" lon="12.209244131873566"><ele>388.0</ele><time>2026-03-29T09:13:06.999Z</time></trkpt><trkpt lat="43.2270007155247" lon="12.20924338652214"><ele>388.75</ele><time>2026-03-29T09:13:07.999Z</time></trkpt><trkpt lat="43.22689870897044" lon="12.209218335681275"><ele>389.5</ele><time>2026-03-29T09:13:09.999Z</time></trkpt><trkpt lat="43.22680453394562" lon="12.209171346642385"><ele>390.25</ele><time>2026-03-29T09:13:11.999Z</time></trkpt><trkpt lat="43.2266982544235" lon="12.209178946332983"><ele>391.0</ele><time>2026-03-29T09:13:13.999Z</time></trkpt><trkpt lat="43.22652174881136" lon="12.20915096235402"><ele>393.8</ele><time>2026-03-29T09:13:17Z</time></trkpt><trkpt lat="43.226411815527975" lon="12.209140458742569"><ele>396.6</ele><time>2026-03-29T09:13:19Z</time></trkpt><trkpt lat="43.22630868900019" lon="12.209130667907347"><ele>399.4</ele><time>2026-03-29T09:13:21Z</time></trkpt><trkpt lat="43.22626133414129" lon="12.20926991510147"><ele>402.2</ele><time>2026-03-29T09:13:23Z</time></trkpt><trkpt lat="43.22623130167932" lon="12.20934939251969"><ele>405.0</ele><time>2026-03-29T09:13:24Z</time></trkpt><trkpt lat="43.2261748155148" lon="12.20947894308337"><ele>405.0</ele><time>2026-03-29T09:13:26Z</time></trkpt><trkpt lat="43.22611949624069" lon="12.209590104534673"><ele>405.0</ele><time>2026-03-29T09:13:28Z</time></trkpt><trkpt lat="43.2260605289009" lon="12.209675255462349"><ele>405.0</ele><time>2026-03-29T09:13:30Z</time></trkpt><trkpt lat="43.22599554107485" lon="12.209742825221412"><ele>405.0</ele><time>2026-03-29T09:13:32Z</time></trkpt><trkpt lat="43.22592682956815" lon="12.209810453726107"><ele>405.0</ele><time>2026-03-29T09:13:34Z</time></trkpt><trkpt lat="43.22588848222215" lon="12.209882213596378"><ele>405.0</ele><time>2026-03-29T09:13:36Z</time></trkpt><trkpt lat="43.22581891571199" lon="12.209991548593578"><ele>399.6666666666667</ele><time>2026-03-29T09:13:38Z</time></trkpt><trkpt lat="43.22577173863348" lon="12.210050910822313"><ele>394.3333333333333</ele><time>2026-03-29T09:13:40Z</time></trkpt><trkpt lat="43.22571136484455" lon="12.210113285221837"><ele>389.0</ele><time>2026-03-29T09:13:42Z</time></trkpt><trkpt lat="43.22564834637661" lon="12.210155930140242"><ele>383.66666666666663</ele><time>2026-03-29T09:13:44Z</time></trkpt><trkpt lat="43.22555786879224" lon="12.210230525594252"><ele>378.3333333333333</ele><time>2026-03-29T09:13:47Z</time></trkpt><trkpt lat="43.22549931856578" lon="12.210270128299136"><ele>373.0</ele><time>2026-03-29T09:13:49Z</time></trkpt><trkpt lat="43.225423949494285" lon="12.210337731155162"><ele>372.8333333333333</ele><time>2026-03-29T09:13:52Z</time></trkpt><trkpt lat="43.22535632797055" lon="12.210388631327529"><ele>372.66666666666663</ele><time>2026-03-29T09:13:54Z</time></trkpt><trkpt lat="43.225297056097" lon="12.210426754757183"><ele>372.5</ele><time>2026-03-29T09:13:56Z</time></trkpt><trkpt lat="43.22521286999895" lon="12.210474974761912"><ele>372.3333333333333</ele><time>2026-03-29T09:13:58Z</time></trkpt><trkpt lat="43.22513396410607" lon="12.210534721149001"><ele>372.1666666666667</ele><time>2026-03-29T09:14:01Z</time></trkpt><trkpt lat="43.225074335553224" lon="12.210572256304394"><ele>372.0</ele><time>2026-03-29T09:14:03Z</time></trkpt><trkpt lat="43.22500163519036" lon="12.21056324200692"><ele>372.0</ele><time>2026-03-29T09:14:05Z</time></trkpt><trkpt lat="43.22492261175315" lon="12.210571701046462"><ele>372.0</ele><time>2026-03-29T09:14:07Z</time></trkpt><trkpt lat="43.22485197674115" lon="12.210598426159782"><ele>372.0</ele><time>2026-03-29T09:14:09Z</time></trkpt><trkpt lat="43.2247703514353" lon="12.210621543390063"><ele>372.0</ele><time>2026-03-29T09:14:11Z</time></trkpt><trkpt lat="43.22468736793709" lon="12.21062144683338"><ele>372.0</ele><time>2026-03-29T09:14:13Z</time></trkpt><trkpt lat="43.22459868710513" lon="12.210633498779785"><ele>372.0</ele><time>2026-03-29T09:14:15Z</time></trkpt><trkpt lat="43.22451348175526" lon="12.210646577040295"><ele>370.0</ele><time>2026-03-29T09:14:17Z</time></trkpt><trkpt lat="43.22442012701371" lon="12.210662948157259"><ele>368.0</ele><time>2026-03-29T09:14:19Z</time></trkpt><trkpt lat="43.22435479386084" lon="12.210650201387898"><ele>366.0</ele><time>2026-03-29T09:14:21Z</time></trkpt><trkpt lat="43.22427811832355" lon="12.210627171320217"><ele>364.0</ele><time>2026-03-29T09:14:23.999Z</time></trkpt><trkpt lat="43.2241997611234" lon="12.210539988162129"><ele>362.0</ele><time>2026-03-29T09:14:25.999Z</time></trkpt><trkpt lat="43.22409087305418" lon="12.210512919259804"><ele>362.0</ele><time>2026-03-29T09:14:27.999Z</time></trkpt><trkpt lat="43.22400153458436" lon="12.21051131952815"><ele>362.0</ele><time>2026-03-29T09:14:29.999Z</time></trkpt><trkpt lat="43.223913082798624" lon="12.210477088901994"><ele>362.0</ele><time>2026-03-29T09:14:31.999Z</time></trkpt><trkpt lat="43.22383406973269" lon="12.210427614394447"><ele>362.0</ele><time>2026-03-29T09:14:33.999Z</time></trkpt><trkpt lat="43.223783412757996" lon="12.210375238369387"><ele>362.0</ele><time>2026-03-29T09:14:34.999Z</time></trkpt><trkpt lat="43.223685529398665" lon="12.210290669868696"><ele>362.0</ele><time>2026-03-29T09:14:36.999Z</time></trkpt><trkpt lat="43.22359427315601" lon="12.210220108104911"><ele>361.8</ele><time>2026-03-29T09:14:38.999Z</time></trkpt><trkpt lat="43.22353630606204" lon="12.210124738773477"><ele>361.6</ele><time>2026-03-29T09:14:40.999Z</time></trkpt><trkpt lat="43.2234748336997" lon="12.21006305513709"><ele>361.40000000000003</ele><time>2026-03-29T09:14:42.999Z</time></trkpt><trkpt lat="43.223381047148145" lon="12.209963867217327"><ele>361.20000000000005</ele><time>2026-03-29T09:14:44.999Z</time></trkpt><trkpt lat="43.223325917553076" lon="12.209901826735091"><ele>361.0</ele><time>2026-03-29T09:14:45.999Z</time></trkpt><trkpt lat="43.22324912558647" lon="12.209810886788425"><ele>361.0</ele><time>2026-03-29T09:14:47.999Z</time></trkpt><trkpt lat="43.22317452346525" lon="12.209726059473413"><ele>361.0</ele><time>2026-03-29T09:14:49.999Z</time></trkpt><trkpt lat="43.22305614287792" lon="12.209656553573222"><ele>361.0</ele><time>2026-03-29T09:14:51.999Z</time></trkpt><trkpt lat="43.22299544829292" lon="12.20962371229505"><ele>361.0</ele><time>2026-03-29T09:14:52.999Z</time></trkpt><trkpt lat="43.22287672893741" lon="12.20955159706313"><ele>361.0</ele><time>2026-03-29T09:14:54.999Z</time></trkpt><trkpt lat="43.222772682031305" lon="12.209481587373036"><ele>357.16666666666663</ele><time>2026-03-29T09:14:56.999Z</time></trkpt><trkpt lat="43.22271071871551" lon="12.20944890236161"><ele>353.3333333333333</ele><time>2026-03-29T09:14:57.999Z</time></trkpt><trkpt lat="43.22261788878705" lon="12.209377542805578"><ele>349.5</ele><time>2026-03-29T09:14:59.999Z</time></trkpt><trkpt lat="43.22254536328383" lon="12.209266974733312"><ele>345.6666666666667</ele><time>2026-03-29T09:15:01.999Z</time></trkpt><trkpt lat="43.222493896875335" lon="12.209205704737593"><ele>341.83333333333337</ele><time>2026-03-29T09:15:02.999Z</time></trkpt><trkpt lat="43.22243544413935" lon="12.209152977584528"><ele>338.0</ele><time>2026-03-29T09:15:03.999Z</time></trkpt><trkpt lat="43.222381428225944" lon="12.209097195647175"><ele>338.0</ele><time>2026-03-29T09:15:04.999Z</time></trkpt><trkpt lat="43.22232301014217" lon="12.209031729087856"><ele>338.0</ele><time>2026-03-29T09:15:05.999Z</time></trkpt><trkpt lat="43.22225584166177" lon="12.208957338985453"><ele>338.0</ele><time>2026-03-29T09:15:06.999Z</time></trkpt><trkpt lat="43.222207331393044" lon="12.208875505417959"><ele>338.0</ele><time>2026-03-29T09:15:07.999Z</time></trkpt><trkpt lat="43.2221675342744" lon="12.208803844186882"><ele>338.0</ele><time>2026-03-29T09:15:08.999Z</time></trkpt><trkpt lat="43.22206917772252" lon="12.208694260588024"><ele>338.0</ele><time>2026-03-29T09:15:10.999Z</time></trkpt><trkpt lat="43.22197221429899" lon="12.208614945455214"><ele>337.0</ele><time>2026-03-29T09:15:12.999Z</time></trkpt><trkpt lat="43.221930773975735" lon="12.208549785560407"><ele>336.0</ele><time>2026-03-29T09:15:13.999Z</time></trkpt><trkpt lat="43.221887122279504" lon="12.208482475679364"><ele>335.0</ele><time>2026-03-29T09:15:14.999Z</time></trkpt><trkpt lat="43.221827918518564" lon="12.208423290647174"><ele>334.0</ele><time>2026-03-29T09:15:15.999Z</time></trkpt><trkpt lat="43.22176015344953" lon="12.208355045471361"><ele>333.0</ele><time>2026-03-29T09:15:16.999Z</time></trkpt><trkpt lat="43.22167650344733" lon="12.208263603832973"><ele>332.0</ele><time>2026-03-29T09:15:17.999Z</time></trkpt><trkpt lat="43.22159777004724" lon="12.208175344733577"><ele>332.6666666666667</ele><time>2026-03-29T09:15:18.999Z</time></trkpt><trkpt lat="43.22152576363542" lon="12.20810421335077"><ele>333.33333333333337</ele><time>2026-03-29T09:15:19.999Z</time></trkpt><trkpt lat="43.221460142936266" lon="12.208054653434623"><ele>334.0</ele><time>2026-03-29T09:15:20.999Z</time></trkpt><trkpt lat="43.22138811889916" lon="12.208001891946173"><ele>334.6666666666667</ele><time>2026-03-29T09:15:22Z</time></trkpt><trkpt lat="43.221317154153994" lon="12.207967871909501"><ele>335.3333333333333</ele><time>2026-03-29T09:15:23Z</time></trkpt><trkpt lat="43.22125446626355" lon="12.207929413434776"><ele>336.0</ele><time>2026-03-29T09:15:24Z</time></trkpt><trkpt lat="43.22119402117956" lon="12.207903640742071"><ele>336.0</ele><time>2026-03-29T09:15:25Z</time></trkpt><trkpt lat="43.22106201343866" lon="12.207897311512806"><ele>336.0</ele><time>2026-03-29T09:15:27Z</time></trkpt><trkpt lat="43.22099806741764" lon="12.207890948967977"><ele>336.0</ele><time>2026-03-29T09:15:28Z</time></trkpt><trkpt lat="43.22089679326605" lon="12.207892357994428"><ele>336.0</ele><time>2026-03-29T09:15:30Z</time></trkpt><trkpt lat="43.22082045685831" lon="12.207880108550137"><ele>336.0</ele><time>2026-03-29T09:15:31Z</time></trkpt><trkpt lat="43.22075575721222" lon="12.207864308525938"><ele>336.0</ele><time>2026-03-29T09:15:32Z</time></trkpt><trkpt lat="43.22063815548189" lon="12.207838196867113"><ele>333.6</ele><time>2026-03-29T09:15:34Z</time></trkpt><trkpt lat="43.22052598766482" lon="12.207851860726525"><ele>331.20000000000005</ele><time>2026-03-29T09:15:36Z</time></trkpt><trkpt lat="43.220400692600116" lon="12.207890196847963"><ele>328.79999999999995</ele><time>2026-03-29T09:15:38Z</time></trkpt><trkpt lat="43.22033713174572" lon="12.207914038460888"><ele>326.4</ele><time>2026-03-29T09:15:39Z</time></trkpt><trkpt lat="43.220251264367" lon="12.207927026252692"><ele>324.0</ele><time>2026-03-29T09:15:40Z</time></trkpt><trkpt lat="43.22015929222128" lon="12.207928352992306"><ele>324.0</ele><time>2026-03-29T09:15:41Z</time></trkpt><trkpt lat="43.220080124222505" lon="12.207902547414758"><ele>324.0</ele><time>2026-03-29T09:15:42Z</time></trkpt><trkpt lat="43.22001764551879" lon="12.207835220208299"><ele>324.0</ele><time>2026-03-29T09:15:43Z</time></trkpt><trkpt lat="43.21997120996549" lon="12.20773519342862"><ele>324.0</ele><time>2026-03-29T09:15:44Z</time></trkpt><trkpt lat="43.21992152966878" lon="12.207585497416733"><ele>324.0</ele><time>2026-03-29T09:15:45Z</time></trkpt><trkpt lat="43.21986368753192" lon="12.207398833820255"><ele>323.0</ele><time>2026-03-29T09:15:46Z</time></trkpt><trkpt lat="43.21980478422992" lon="12.207199408602458"><ele>322.0</ele><time>2026-03-29T09:15:47Z</time></trkpt><trkpt lat="43.21973943800407" lon="12.207007621686389"><ele>321.0</ele><time>2026-03-29T09:15:48Z</time></trkpt><trkpt lat="43.21966678694566" lon="12.206807198899197"><ele>321.0</ele><time>2026-03-29T09:15:49Z</time></trkpt><trkpt lat="43.21958516037004" lon="12.206604701717392"><ele>321.0</ele><time>2026-03-29T09:15:50Z</time></trkpt><trkpt lat="43.2195024344829" lon="12.206411110209109"><ele>321.0</ele><time>2026-03-29T09:15:51Z</time></trkpt><trkpt lat="43.21943504936498" lon="12.206234712225628"><ele>320.75</ele><time>2026-03-29T09:15:52Z</time></trkpt><trkpt lat="43.2193817040133" lon="12.206064919563469"><ele>320.5</ele><time>2026-03-29T09:15:53Z</time></trkpt><trkpt lat="43.21933804749461" lon="12.205888120063449"><ele>320.25</ele><time>2026-03-29T09:15:54Z</time></trkpt><trkpt lat="43.21929255721966" lon="12.205707588768561"><ele>320.0</ele><time>2026-03-29T09:15:55Z</time></trkpt><trkpt lat="43.21925159719242" lon="12.205543423962501"><ele>320.0</ele><time>2026-03-29T09:15:56Z</time></trkpt><trkpt lat="43.219224952527824" lon="12.205382033771357"><ele>320.0</ele><time>2026-03-29T09:15:57Z</time></trkpt><trkpt lat="43.21920057147134" lon="12.20520171217501"><ele>320.0</ele><time>2026-03-29T09:15:58Z</time></trkpt><trkpt lat="43.21918462999721" lon="12.20503275389284"><ele>320.0</ele><time>2026-03-29T09:15:59Z</time></trkpt><trkpt lat="43.21918013481019" lon="12.204860844368106"><ele>320.2</ele><time>2026-03-29T09:16:00Z</time></trkpt><trkpt lat="43.21918793398996" lon="12.204689322258599"><ele>320.4</ele><time>2026-03-29T09:16:01Z</time></trkpt><trkpt lat="43.219212254039796" lon="12.20452627177386"><ele>320.6</ele><time>2026-03-29T09:16:02Z</time></trkpt><trkpt lat="43.21925558430079" lon="12.204391066826497"><ele>320.8</ele><time>2026-03-29T09:16:03Z</time></trkpt><trkpt lat="43.219302028701485" lon="12.20430255256766"><ele>321.0</ele><time>2026-03-29T09:16:04Z</time></trkpt><trkpt lat="43.219351851484085" lon="12.204199555518548"><ele>321.0</ele><time>2026-03-29T09:16:06Z</time></trkpt><trkpt lat="43.219373517524104" lon="12.204098930940164"><ele>321.0</ele><time>2026-03-29T09:16:07Z</time></trkpt><trkpt lat="43.21939678256457" lon="12.20396674362221"><ele>321.0</ele><time>2026-03-29T09:16:08Z</time></trkpt><trkpt lat="43.21942310893592" lon="12.203810771547376"><ele>321.0</ele><time>2026-03-29T09:16:09Z</time></trkpt><trkpt lat="43.219450671555244" lon="12.203653428955235"><ele>321.0</ele><time>2026-03-29T09:16:10Z</time></trkpt><trkpt lat="43.21948116508867" lon="12.203489597843674"><ele>320.25</ele><time>2026-03-29T09:16:11Z</time></trkpt><trkpt lat="43.21952317036444" lon="12.203321818502989"><ele>319.5</ele><time>2026-03-29T09:16:12Z</time></trkpt><trkpt lat="43.2195778199933" lon="12.203173265078977"><ele>318.75</ele><time>2026-03-29T09:16:13Z</time></trkpt><trkpt lat="43.219631519873666" lon="12.203048353332019"><ele>318.0</ele><time>2026-03-29T09:16:14Z</time></trkpt><trkpt lat="43.21969278242262" lon="12.202910895450323"><ele>318.0</ele><time>2026-03-29T09:16:15Z</time></trkpt><trkpt lat="43.219762846895385" lon="12.202753478824663"><ele>318.0</ele><time>2026-03-29T09:16:16Z</time></trkpt><trkpt lat="43.21983834298761" lon="12.202585671534765"><ele>318.0</ele><time>2026-03-29T09:16:17Z</time></trkpt><trkpt lat="43.219899632506134" lon="12.20242524928762"><ele>318.0</ele><time>2026-03-29T09:16:18Z</time></trkpt><trkpt lat="43.21994680247276" lon="12.202277079076033"><ele>318.0</ele><time>2026-03-29T09:16:19Z</time></trkpt><trkpt lat="43.21997610252664" lon="12.202151013321222"><ele>318.0</ele><time>2026-03-29T09:16:20Z</time></trkpt><trkpt lat="43.21998145791726" lon="12.202044645503344"><ele>318.0</ele><time>2026-03-29T09:16:21Z</time></trkpt><trkpt lat="43.21996422874981" lon="12.201946923873141"><ele>318.0</ele><time>2026-03-29T09:16:21.999Z</time></trkpt><trkpt lat="43.21992055191114" lon="12.201860736106278"><ele>318.0</ele><time>2026-03-29T09:16:22.999Z</time></trkpt><trkpt lat="43.21985607235524" lon="12.201801434495605"><ele>318.0</ele><time>2026-03-29T09:16:23.999Z</time></trkpt><trkpt lat="43.219787222147026" lon="12.201750537398231"><ele>317.4</ele><time>2026-03-29T09:16:24.999Z</time></trkpt><trkpt lat="43.21969834787975" lon="12.201647286053944"><ele>316.8</ele><time>2026-03-29T09:16:26.999Z</time></trkpt><trkpt lat="43.2196163378473" lon="12.201543237401797"><ele>316.2</ele><time>2026-03-29T09:16:28.999Z</time></trkpt><trkpt lat="43.2195381043682" lon="12.201530287459217"><ele>315.6</ele><time>2026-03-29T09:16:29.999Z</time></trkpt><trkpt lat="43.21943104427661" lon="12.201566242187923"><ele>315.0</ele><time>2026-03-29T09:16:30.999Z</time></trkpt><trkpt lat="43.21931495671472" lon="12.201644874140118"><ele>315.0</ele><time>2026-03-29T09:16:31.999Z</time></trkpt><trkpt lat="43.219201776709575" lon="12.201732393454296"><ele>315.0</ele><time>2026-03-29T09:16:32.999Z</time></trkpt><trkpt lat="43.21908699922377" lon="12.20182285480807"><ele>315.0</ele><time>2026-03-29T09:16:33.999Z</time></trkpt><trkpt lat="43.2189871137839" lon="12.201896805175686"><ele>315.0</ele><time>2026-03-29T09:16:34.999Z</time></trkpt><trkpt lat="43.21890105680061" lon="12.201961048431913"><ele>314.8333333333333</ele><time>2026-03-29T09:16:35.999Z</time></trkpt><trkpt lat="43.218833310007746" lon="12.202003665939948"><ele>314.6666666666667</ele><time>2026-03-29T09:16:36.999Z</time></trkpt><trkpt lat="43.218738966266685" lon="12.20196490726807"><ele>314.5</ele><time>2026-03-29T09:16:38.999Z</time></trkpt><trkpt lat="43.21869878460937" lon="12.201894269394373"><ele>314.33333333333337</ele><time>2026-03-29T09:16:39.999Z</time></trkpt><trkpt lat="43.2186686175187" lon="12.201807790739739"><ele>314.1666666666667</ele><time>2026-03-29T09:16:40.999Z</time></trkpt><trkpt lat="43.2186399026135" lon="12.201713713748129"><ele>314.0</ele><time>2026-03-29T09:16:42.999Z</time></trkpt><trkpt lat="43.21861204632503" lon="12.201621624880719"><ele>314.0</ele><time>2026-03-29T09:16:47.999Z</time></trkpt><trkpt lat="43.21857418911806" lon="12.201541153103802"><ele>314.0</ele><time>2026-03-29T09:17:43Z</time></trkpt><trkpt lat="43.21858191290486" lon="12.201634298927951"><ele>314.0</ele><time>2026-03-29T09:17:46Z</time></trkpt><trkpt lat="43.218635265239605" lon="12.201743318262757"><ele>314.0</ele><time>2026-03-29T09:17:47Z</time></trkpt><trkpt lat="43.21868234085379" lon="12.201844929753245"><ele>314.0</ele><time>2026-03-29T09:17:48Z</time></trkpt><trkpt lat="43.218711200772795" lon="12.201978923187774"><ele>314.0</ele><time>2026-03-29T09:17:50Z</time></trkpt><trkpt lat="43.218673783290605" lon="12.201765321148745"><ele>314.0</ele><time>2026-03-29T09:17:59Z</time></trkpt><trkpt lat="43.218610823682205" lon="12.201613688177664"><ele>314.0</ele><time>2026-03-29T09:18:00Z</time></trkpt><trkpt lat="43.21854382237377" lon="12.201432249471324"><ele>314.0</ele><time>2026-03-29T09:18:01Z</time></trkpt><trkpt lat="43.21846756192992" lon="12.201222235156655"><ele>314.0</ele><time>2026-03-29T09:18:02Z</time></trkpt><trkpt lat="43.21838573755122" lon="12.201001495656984"><ele>313.5</ele><time>2026-03-29T09:18:03Z</time></trkpt><trkpt lat="43.218312331021814" lon="12.200806205764124"><ele>313.0</ele><time>2026-03-29T09:18:04Z</time></trkpt><trkpt lat="43.218245544114104" lon="12.20062822378889"><ele>312.5</ele><time>2026-03-29T09:18:05Z</time></trkpt><trkpt lat="43.2181792840415" lon="12.200457305438421"><ele>312.0</ele><time>2026-03-29T09:18:06Z</time></trkpt><trkpt lat="43.21811020157069" lon="12.200293880544226"><ele>311.6666666666667</ele><time>2026-03-29T09:18:07Z</time></trkpt><trkpt lat="43.21803650608795" lon="12.200131681392326"><ele>311.33333333333337</ele><time>2026-03-29T09:18:08Z</time></trkpt><trkpt lat="43.21795631506162" lon="12.19994661673714"><ele>311.0</ele><time>2026-03-29T09:18:09Z</time></trkpt><trkpt lat="43.217873315519185" lon="12.199738217047969"><ele>310.6666666666667</ele><time>2026-03-29T09:18:10Z</time></trkpt><trkpt lat="43.217793306414706" lon="12.199529376611974"><ele>310.3333333333333</ele><time>2026-03-29T09:18:11Z</time></trkpt><trkpt lat="43.217721810053476" lon="12.199347393510282"><ele>310.0</ele><time>2026-03-29T09:18:12Z</time></trkpt><trkpt lat="43.21765358826564" lon="12.19917923609983"><ele>310.0</ele><time>2026-03-29T09:18:13Z</time></trkpt><trkpt lat="43.21758411992167" lon="12.199017036550286"><ele>310.0</ele><time>2026-03-29T09:18:14Z</time></trkpt><trkpt lat="43.217521125420866" lon="12.19886794156798"><ele>310.0</ele><time>2026-03-29T09:18:15Z</time></trkpt><trkpt lat="43.21746296040639" lon="12.198728445134893"><ele>310.0</ele><time>2026-03-29T09:18:16Z</time></trkpt><trkpt lat="43.21740806439732" lon="12.19859205011757"><ele>310.0</ele><time>2026-03-29T09:18:17Z</time></trkpt><trkpt lat="43.21736962751382" lon="12.19847499546291"><ele>310.0</ele><time>2026-03-29T09:18:18Z</time></trkpt><trkpt lat="43.21734559267426" lon="12.198378866277947"><ele>310.0</ele><time>2026-03-29T09:18:19Z</time></trkpt><trkpt lat="43.217327103599594" lon="12.198293549079645"><ele>310.0</ele><time>2026-03-29T09:18:20Z</time></trkpt><trkpt lat="43.2173122710772" lon="12.198176722360397"><ele>310.0</ele><time>2026-03-29T09:18:22Z</time></trkpt><trkpt lat="43.21730600372758" lon="12.19808663070414"><ele>310.0</ele><time>2026-03-29T09:18:25Z</time></trkpt><trkpt lat="43.21730876363108" lon="12.197928568295456"><ele>310.25</ele><time>2026-03-29T09:18:28Z</time></trkpt><trkpt lat="43.21730223433472" lon="12.197810826694393"><ele>310.5</ele><time>2026-03-29T09:18:29Z</time></trkpt><trkpt lat="43.21728680726475" lon="12.197659797028424"><ele>310.75</ele><time>2026-03-29T09:18:30Z</time></trkpt><trkpt lat="43.21726617768546" lon="12.19748872215085"><ele>311.0</ele><time>2026-03-29T09:18:31Z</time></trkpt><trkpt lat="43.2172373869667" lon="12.197298060263321"><ele>311.0</ele><time>2026-03-29T09:18:31.999Z</time></trkpt><trkpt lat="43.21720612982197" lon="12.19710277413242"><ele>311.0</ele><time>2026-03-29T09:18:32.999Z</time></trkpt><trkpt lat="43.21717574985367" lon="12.196884051032852"><ele>311.0</ele><time>2026-03-29T09:18:33.999Z</time></trkpt><trkpt lat="43.21715466518898" lon="12.196686499697776"><ele>311.0</ele><time>2026-03-29T09:18:34.999Z</time></trkpt><trkpt lat="43.21714355603908" lon="12.196510718113837"><ele>311.0</ele><time>2026-03-29T09:18:35.999Z</time></trkpt><trkpt lat="43.21713883627897" lon="12.19634422632487"><ele>311.0</ele><time>2026-03-29T09:18:36.999Z</time></trkpt><trkpt lat="43.217157170296645" lon="12.196170147170111"><ele>311.0</ele><time>2026-03-29T09:18:37.999Z</time></trkpt><trkpt lat="43.217196781966976" lon="12.195980079639707"><ele>311.33333333333337</ele><time>2026-03-29T09:18:38.999Z</time></trkpt><trkpt lat="43.2172536021503" lon="12.19576808030683"><ele>311.6666666666667</ele><time>2026-03-29T09:18:39.999Z</time></trkpt><trkpt lat="43.217312079486064" lon="12.195539132616455"><ele>312.0</ele><time>2026-03-29T09:18:40.999Z</time></trkpt><trkpt lat="43.2173677876133" lon="12.195322220272857"><ele>312.0</ele><time>2026-03-29T09:18:41.999Z</time></trkpt><trkpt lat="43.21741564045152" lon="12.195136689686658"><ele>312.0</ele><time>2026-03-29T09:18:42.999Z</time></trkpt><trkpt lat="43.217451571207725" lon="12.194984719509566"><ele>312.0</ele><time>2026-03-29T09:18:43.999Z</time></trkpt><trkpt lat="43.21747385253792" lon="12.194878802312001"><ele>312.0</ele><time>2026-03-29T09:18:44.999Z</time></trkpt><trkpt lat="43.21748820801732" lon="12.194790739741597"><ele>312.0</ele><time>2026-03-29T09:18:45.999Z</time></trkpt><trkpt lat="43.21747966280101" lon="12.194692754254266"><ele>312.0</ele><time>2026-03-29T09:18:46.999Z</time></trkpt><trkpt lat="43.21743273313197" lon="12.19454983169152"><ele>312.0</ele><time>2026-03-29T09:18:47.999Z</time></trkpt><trkpt lat="43.21735241394622" lon="12.194380670260257"><ele>312.0</ele><time>2026-03-29T09:18:48.999Z</time></trkpt><trkpt lat="43.21724881209315" lon="12.194194512773361"><ele>312.0</ele><time>2026-03-29T09:18:49.999Z</time></trkpt><trkpt lat="43.217148160586895" lon="12.193975556334175"><ele>312.6666666666667</ele><time>2026-03-29T09:18:50.999Z</time></trkpt><trkpt lat="43.217055093057446" lon="12.193747799362518"><ele>313.33333333333337</ele><time>2026-03-29T09:18:51.999Z</time></trkpt><trkpt lat="43.21696811579089" lon="12.193525678545132"><ele>314.0</ele><time>2026-03-29T09:18:52.999Z</time></trkpt><trkpt lat="43.21687891455373" lon="12.193299953777439"><ele>313.6666666666667</ele><time>2026-03-29T09:18:53.999Z</time></trkpt><trkpt lat="43.21678798067213" lon="12.193082421626734"><ele>313.3333333333333</ele><time>2026-03-29T09:18:54.999Z</time></trkpt><trkpt lat="43.21669527763374" lon="12.192876573718038"><ele>313.0</ele><time>2026-03-29T09:18:55.999Z</time></trkpt><trkpt lat="43.21661187722177" lon="12.192693342506761"><ele>313.0</ele><time>2026-03-29T09:18:56.999Z</time></trkpt><trkpt lat="43.21653956822694" lon="12.192524676628823"><ele>313.0</ele><time>2026-03-29T09:18:57.999Z</time></trkpt><trkpt lat="43.216489085792745" lon="12.192368424338673"><ele>313.0</ele><time>2026-03-29T09:18:58.999Z</time></trkpt><trkpt lat="43.21645700462879" lon="12.192223991921692"><ele>313.0</ele><time>2026-03-29T09:18:59.999Z</time></trkpt><trkpt lat="43.21644016345326" lon="12.19209317400852"><ele>313.0</ele><time>2026-03-29T09:19:00.999Z</time></trkpt><trkpt lat="43.216435174927746" lon="12.191994856802191"><ele>313.0</ele><time>2026-03-29T09:19:01.999Z</time></trkpt><trkpt lat="43.216435209760625" lon="12.191896223719237"><ele>313.0</ele><time>2026-03-29T09:19:03.999Z</time></trkpt><trkpt lat="43.21651021892491" lon="12.19182559103608"><ele>313.0</ele><time>2026-03-29T09:19:07.999Z</time></trkpt><trkpt lat="43.21668715017952" lon="12.191837975180134"><ele>313.0</ele><time>2026-03-29T09:19:09.999Z</time></trkpt><trkpt lat="43.216836915660025" lon="12.19182658188313"><ele>313.0</ele><time>2026-03-29T09:19:10.999Z</time></trkpt><trkpt lat="43.21701523575499" lon="12.191809362568463"><ele>313.0</ele><time>2026-03-29T09:19:11.999Z</time></trkpt><trkpt lat="43.217260972481895" lon="12.191786611098044"><ele>313.0</ele><time>2026-03-29T09:19:12.999Z</time></trkpt><trkpt lat="43.217512200172145" lon="12.191753195380844"><ele>312.5</ele><time>2026-03-29T09:19:13.999Z</time></trkpt><trkpt lat="43.21775624027101" lon="12.191727135623655"><ele>312.0</ele><time>2026-03-29T09:19:14.999Z</time></trkpt><trkpt lat="43.218029878435544" lon="12.19170394716809"><ele>312.0</ele><time>2026-03-29T09:19:15.999Z</time></trkpt><trkpt lat="43.218289576876764" lon="12.191677695010087"><ele>312.0</ele><time>2026-03-29T09:19:16.999Z</time></trkpt><trkpt lat="43.21846861854908" lon="12.191651653545039"><ele>312.0</ele><time>2026-03-29T09:19:17.999Z</time></trkpt><trkpt lat="43.21864166785734" lon="12.191624599518743"><ele>312.0</ele><time>2026-03-29T09:19:18.999Z</time></trkpt><trkpt lat="43.21870815719141" lon="12.191609277678035"><ele>312.0</ele><time>2026-03-29T09:19:19.999Z</time></trkpt><trkpt lat="43.21878649040347" lon="12.191574764935478"><ele>312.0</ele><time>2026-03-29T09:19:21.999Z</time></trkpt><trkpt lat="43.21888871236566" lon="12.191525491287985"><ele>312.0</ele><time>2026-03-29T09:19:22.999Z</time></trkpt><trkpt lat="43.21899301853352" lon="12.191471426086602"><ele>312.0</ele><time>2026-03-29T09:19:23.999Z</time></trkpt><trkpt lat="43.219080447335536" lon="12.1914177563762"><ele>313.0</ele><time>2026-03-29T09:19:24.999Z</time></trkpt><trkpt lat="43.2191600138497" lon="12.191345186315164"><ele>314.0</ele><time>2026-03-29T09:19:25.999Z</time></trkpt><trkpt lat="43.21922239818059" lon="12.191216794719367"><ele>315.0</ele><time>2026-03-29T09:19:26.999Z</time></trkpt><trkpt lat="43.21931080131705" lon="12.19101345724772"><ele>316.0</ele><time>2026-03-29T09:19:27.999Z</time></trkpt><trkpt lat="43.21939276575255" lon="12.190846086632178"><ele>315.66666666666663</ele><time>2026-03-29T09:19:28.999Z</time></trkpt><trkpt lat="43.21951304022397" lon="12.190644516043424"><ele>315.3333333333333</ele><time>2026-03-29T09:19:29.999Z</time></trkpt><trkpt lat="43.219623693023166" lon="12.190463989810146"><ele>315.0</ele><time>2026-03-29T09:19:30.999Z</time></trkpt><trkpt lat="43.21972986401597" lon="12.19030448244667"><ele>315.6666666666667</ele><time>2026-03-29T09:19:31.999Z</time></trkpt><trkpt lat="43.219828791449196" lon="12.190145771095175"><ele>316.33333333333337</ele><time>2026-03-29T09:19:32.999Z</time></trkpt><trkpt lat="43.21993754570417" lon="12.18995886762422"><ele>317.0</ele><time>2026-03-29T09:19:34Z</time></trkpt><trkpt lat="43.220085954998574" lon="12.189760037268272"><ele>317.0</ele><time>2026-03-29T09:19:35Z</time></trkpt><trkpt lat="43.22019866617197" lon="12.18957428367733"><ele>317.0</ele><time>2026-03-29T09:19:36Z</time></trkpt><trkpt lat="43.22030649115482" lon="12.189415524019388"><ele>317.0</ele><time>2026-03-29T09:19:37Z</time></trkpt><trkpt lat="43.22040937225911" lon="12.189266377084792"><ele>317.0</ele><time>2026-03-29T09:19:38Z</time></trkpt><trkpt lat="43.22049942821067" lon="12.189124321342778"><ele>317.0</ele><time>2026-03-29T09:19:39Z</time></trkpt><trkpt lat="43.220579172510476" lon="12.188989671447562"><ele>317.0</ele><time>2026-03-29T09:19:40Z</time></trkpt><trkpt lat="43.22064749274087" lon="12.188839639253109"><ele>317.0</ele><time>2026-03-29T09:19:41Z</time></trkpt><trkpt lat="43.22070857368442" lon="12.1886518316092"><ele>316.6666666666667</ele><time>2026-03-29T09:19:42Z</time></trkpt><trkpt lat="43.22076288883708" lon="12.188413266981533"><ele>316.3333333333333</ele><time>2026-03-29T09:19:43Z</time></trkpt><trkpt lat="43.22079804170305" lon="12.188155235823958"><ele>316.0</ele><time>2026-03-29T09:19:44Z</time></trkpt><trkpt lat="43.22082404278681" lon="12.187874222502783"><ele>317.3333333333333</ele><time>2026-03-29T09:19:45Z</time></trkpt><trkpt lat="43.22084486215686" lon="12.187610019206094"><ele>318.6666666666667</ele><time>2026-03-29T09:19:46Z</time></trkpt><trkpt lat="43.220865576324464" lon="12.187377659187765"><ele>320.0</ele><time>2026-03-29T09:19:47Z</time></trkpt><trkpt lat="43.220880726526616" lon="12.187172599217838"><ele>320.6</ele><time>2026-03-29T09:19:48Z</time></trkpt><trkpt lat="43.22089256907347" lon="12.186989043819649"><ele>321.2</ele><time>2026-03-29T09:19:49Z</time></trkpt><trkpt lat="43.22090453004382" lon="12.18684067384736"><ele>321.79999999999995</ele><time>2026-03-29T09:19:50Z</time></trkpt><trkpt lat="43.22091688868969" lon="12.186710337834624"><ele>322.4</ele><time>2026-03-29T09:19:51Z</time></trkpt><trkpt lat="43.220941505748286" lon="12.186586007158123"><ele>323.0</ele><time>2026-03-29T09:19:52Z</time></trkpt><trkpt lat="43.22098271678474" lon="12.18645756117086"><ele>323.0</ele><time>2026-03-29T09:19:53Z</time></trkpt><trkpt lat="43.22102582524115" lon="12.186328308351165"><ele>323.0</ele><time>2026-03-29T09:19:54Z</time></trkpt><trkpt lat="43.2210836184304" lon="12.186200603018918"><ele>323.0</ele><time>2026-03-29T09:19:55Z</time></trkpt><trkpt lat="43.221167803191484" lon="12.186067413660354"><ele>323.0</ele><time>2026-03-29T09:19:56Z</time></trkpt><trkpt lat="43.221281097896544" lon="12.185943994159357"><ele>323.0</ele><time>2026-03-29T09:19:57Z</time></trkpt><trkpt lat="43.22141378694121" lon="12.185826561511918"><ele>323.0</ele><time>2026-03-29T09:19:58Z</time></trkpt><trkpt lat="43.221562466736415" lon="12.185693237750115"><ele>323.0</ele><time>2026-03-29T09:19:59Z</time></trkpt><trkpt lat="43.22169406860733" lon="12.185574111601053"><ele>325.0</ele><time>2026-03-29T09:20:00Z</time></trkpt><trkpt lat="43.22179713630043" lon="12.185486730083545"><ele>327.0</ele><time>2026-03-29T09:20:01Z</time></trkpt><trkpt lat="43.2218798000911" lon="12.185430168304665"><ele>329.0</ele><time>2026-03-29T09:20:02Z</time></trkpt><trkpt lat="43.221952946044084" lon="12.18541841263945"><ele>331.0</ele><time>2026-03-29T09:20:03Z</time></trkpt><trkpt lat="43.222026093949715" lon="12.185464727887723"><ele>333.0</ele><time>2026-03-29T09:20:04Z</time></trkpt><trkpt lat="43.222099480724246" lon="12.185561952787543"><ele>333.25</ele><time>2026-03-29T09:20:05Z</time></trkpt><trkpt lat="43.22218311138043" lon="12.185700493482686"><ele>333.5</ele><time>2026-03-29T09:20:06Z</time></trkpt><trkpt lat="43.222277297931875" lon="12.18585906812378"><ele>333.75</ele><time>2026-03-29T09:20:07Z</time></trkpt><trkpt lat="43.22238239836263" lon="12.186016702368397"><ele>334.0</ele><time>2026-03-29T09:20:08Z</time></trkpt><trkpt lat="43.22247610572131" lon="12.186204161983097"><ele>337.2</ele><time>2026-03-29T09:20:09Z</time></trkpt><trkpt lat="43.222541519826756" lon="12.186391933170842"><ele>340.4</ele><time>2026-03-29T09:20:10Z</time></trkpt><trkpt lat="43.222580958859034" lon="12.186553149799416"><ele>343.6</ele><time>2026-03-29T09:20:11Z</time></trkpt><trkpt lat="43.22261510023635" lon="12.186667197661338"><ele>346.8</ele><time>2026-03-29T09:20:12Z</time></trkpt><trkpt lat="43.22266999155775" lon="12.186734415204812"><ele>350.0</ele><time>2026-03-29T09:20:13Z</time></trkpt><trkpt lat="43.222765461946054" lon="12.18677744962886"><ele>350.0</ele><time>2026-03-29T09:20:14Z</time></trkpt><trkpt lat="43.22289586567899" lon="12.18681229013618"><ele>350.0</ele><time>2026-03-29T09:20:15Z</time></trkpt><trkpt lat="43.223047390208855" lon="12.186850599314889"><ele>350.0</ele><time>2026-03-29T09:20:16Z</time></trkpt><trkpt lat="43.22317125404236" lon="12.186883122947458"><ele>350.0</ele><time>2026-03-29T09:20:17Z</time></trkpt><trkpt lat="43.22325210248673" lon="12.186898558538273"><ele>353.75</ele><time>2026-03-29T09:20:18Z</time></trkpt><trkpt lat="43.223388719342466" lon="12.186814729224169"><ele>357.5</ele><time>2026-03-29T09:20:20Z</time></trkpt><trkpt lat="43.22350208125704" lon="12.186748441060342"><ele>361.25</ele><time>2026-03-29T09:20:21Z</time></trkpt><trkpt lat="43.22361414035601" lon="12.186703449826021"><ele>365.0</ele><time>2026-03-29T09:20:22Z</time></trkpt><trkpt lat="43.223719315092374" lon="12.18666168698359"><ele>365.0</ele><time>2026-03-29T09:20:23Z</time></trkpt><trkpt lat="43.22384103673351" lon="12.186598882417288"><ele>365.0</ele><time>2026-03-29T09:20:24Z</time></trkpt><trkpt lat="43.223974230021" lon="12.18651447160592"><ele>365.0</ele><time>2026-03-29T09:20:25Z</time></trkpt><trkpt lat="43.224102473949095" lon="12.186441711190051"><ele>365.0</ele><time>2026-03-29T09:20:26Z</time></trkpt><trkpt lat="43.22421013320203" lon="12.186375694493679"><ele>367.2</ele><time>2026-03-29T09:20:27Z</time></trkpt><trkpt lat="43.22431162735056" lon="12.186317545019097"><ele>369.4</ele><time>2026-03-29T09:20:28Z</time></trkpt><trkpt lat="43.22438761720335" lon="12.186280134648252"><ele>371.6</ele><time>2026-03-29T09:20:29Z</time></trkpt><trkpt lat="43.224445033484" lon="12.186240066779837"><ele>373.8</ele><time>2026-03-29T09:20:30Z</time></trkpt><trkpt lat="43.22448035565014" lon="12.186086202084061"><ele>376.0</ele><time>2026-03-29T09:20:32Z</time></trkpt><trkpt lat="43.224410651712375" lon="12.185929213552983"><ele>376.0</ele><time>2026-03-29T09:20:33.999Z</time></trkpt><trkpt lat="43.224325854344045" lon="12.18583879114199"><ele>376.0</ele><time>2026-03-29T09:20:34.999Z</time></trkpt><trkpt lat="43.224268257595156" lon="12.18571549263035"><ele>376.0</ele><time>2026-03-29T09:20:35.999Z</time></trkpt><trkpt lat="43.22422281713646" lon="12.185605218316079"><ele>376.0</ele><time>2026-03-29T09:20:36.999Z</time></trkpt><trkpt lat="43.22418437306903" lon="12.185526642342477"><ele>376.0</ele><time>2026-03-29T09:20:37.999Z</time></trkpt><trkpt lat="43.22415425991757" lon="12.185440779540324"><ele>376.0</ele><time>2026-03-29T09:20:38.999Z</time></trkpt><trkpt lat="43.22414369943198" lon="12.185341550732614"><ele>375.5</ele><time>2026-03-29T09:20:39.999Z</time></trkpt><trkpt lat="43.22415064553647" lon="12.185235928725444"><ele>375.0</ele><time>2026-03-29T09:20:40.999Z</time></trkpt><trkpt lat="43.22418090578294" lon="12.185114292310685"><ele>374.5</ele><time>2026-03-29T09:20:41.999Z</time></trkpt><trkpt lat="43.2242197810032" lon="12.18494027352728"><ele>374.0</ele><time>2026-03-29T09:20:42.999Z</time></trkpt><trkpt lat="43.22425541550822" lon="12.184746032313715"><ele>373.79999999999995</ele><time>2026-03-29T09:20:43.999Z</time></trkpt><trkpt lat="43.2242831491633" lon="12.184575419553852"><ele>373.59999999999997</ele><time>2026-03-29T09:20:44.999Z</time></trkpt><trkpt lat="43.22431359395046" lon="12.184427397330499"><ele>373.4</ele><time>2026-03-29T09:20:45.999Z</time></trkpt><trkpt lat="43.22432968880862" lon="12.18429963824054"><ele>373.2</ele><time>2026-03-29T09:20:46.999Z</time></trkpt><trkpt lat="43.22432155037728" lon="12.184180296049954"><ele>373.0</ele><time>2026-03-29T09:20:47.999Z</time></trkpt><trkpt lat="43.224291346905275" lon="12.184020498225625"><ele>373.75</ele><time>2026-03-29T09:20:48.999Z</time></trkpt><trkpt lat="43.22426011459377" lon="12.183809919822599"><ele>374.5</ele><time>2026-03-29T09:20:49.999Z</time></trkpt><trkpt lat="43.224243537407716" lon="12.183613164675284"><ele>375.25</ele><time>2026-03-29T09:20:50.999Z</time></trkpt><trkpt lat="43.22423129393418" lon="12.18344766770633"><ele>376.0</ele><time>2026-03-29T09:20:51.999Z</time></trkpt><trkpt lat="43.22421341048241" lon="12.183303681384729"><ele>376.0</ele><time>2026-03-29T09:20:52.999Z</time></trkpt><trkpt lat="43.224179091508965" lon="12.183182068795475"><ele>376.0</ele><time>2026-03-29T09:20:53.999Z</time></trkpt><trkpt lat="43.22410754006776" lon="12.183077563276607"><ele>376.0</ele><time>2026-03-29T09:20:54.999Z</time></trkpt><trkpt lat="43.223994402673554" lon="12.182960226059757"><ele>376.0</ele><time>2026-03-29T09:20:55.999Z</time></trkpt><trkpt lat="43.223859097064505" lon="12.182841356615205"><ele>377.5</ele><time>2026-03-29T09:20:56.999Z</time></trkpt><trkpt lat="43.22369548806702" lon="12.18272420206025"><ele>379.0</ele><time>2026-03-29T09:20:57.999Z</time></trkpt><trkpt lat="43.22356136937839" lon="12.182646018536602"><ele>380.5</ele><time>2026-03-29T09:20:58.999Z</time></trkpt><trkpt lat="43.22347592690936" lon="12.182592474192893"><ele>382.0</ele><time>2026-03-29T09:20:59.999Z</time></trkpt><trkpt lat="43.22339192376868" lon="12.182525379347068"><ele>382.0</ele><time>2026-03-29T09:21:00.999Z</time></trkpt><trkpt lat="43.22333207662546" lon="12.182433592276844"><ele>382.0</ele><time>2026-03-29T09:21:01.999Z</time></trkpt><trkpt lat="43.223269787974026" lon="12.182282428347895"><ele>382.0</ele><time>2026-03-29T09:21:02.999Z</time></trkpt><trkpt lat="43.22320107984308" lon="12.182084891247028"><ele>382.0</ele><time>2026-03-29T09:21:03.999Z</time></trkpt><trkpt lat="43.22313321611864" lon="12.1819179757412"><ele>382.75</ele><time>2026-03-29T09:21:04.999Z</time></trkpt><trkpt lat="43.22305857146978" lon="12.181783289045162"><ele>383.5</ele><time>2026-03-29T09:21:05.999Z</time></trkpt><trkpt lat="43.222970785549094" lon="12.18167626789309"><ele>384.25</ele><time>2026-03-29T09:21:06.999Z</time></trkpt><trkpt lat="43.2228638521086" lon="12.181555645757467"><ele>385.0</ele><time>2026-03-29T09:21:07.999Z</time></trkpt><trkpt lat="43.22277759299851" lon="12.181437085767326"><ele>386.33333333333337</ele><time>2026-03-29T09:21:08.999Z</time></trkpt><trkpt lat="43.22271496705072" lon="12.181305945712799"><ele>387.6666666666667</ele><time>2026-03-29T09:21:09.999Z</time></trkpt><trkpt lat="43.222686307341576" lon="12.181213146328437"><ele>389.0</ele><time>2026-03-29T09:21:10.999Z</time></trkpt><trkpt lat="43.22270842981981" lon="12.18108662099046"><ele>390.33333333333337</ele><time>2026-03-29T09:21:13.999Z</time></trkpt><trkpt lat="43.22273338156904" lon="12.180986616384148"><ele>391.6666666666667</ele><time>2026-03-29T09:21:14.999Z</time></trkpt><trkpt lat="43.22277110741563" lon="12.180904673200153"><ele>393.0</ele><time>2026-03-29T09:21:15.999Z</time></trkpt><trkpt lat="43.22282375449339" lon="12.180849831511551"><ele>393.0</ele><time>2026-03-29T09:21:16.999Z</time></trkpt><trkpt lat="43.22289954070028" lon="12.180839104354972"><ele>393.0</ele><time>2026-03-29T09:21:17.999Z</time></trkpt><trkpt lat="43.22297796971762" lon="12.180866406801286"><ele>393.0</ele><time>2026-03-29T09:21:18.999Z</time></trkpt><trkpt lat="43.223029226761646" lon="12.180921407059877"><ele>393.0</ele><time>2026-03-29T09:21:19.999Z</time></trkpt><trkpt lat="43.22305323634315" lon="12.181004056622216"><ele>393.0</ele><time>2026-03-29T09:21:20.999Z</time></trkpt><trkpt lat="43.22313407624046" lon="12.18110111471259"><ele>393.0</ele><time>2026-03-29T09:21:22.999Z</time></trkpt><trkpt lat="43.223198936327236" lon="12.181086175202458"><ele>395.8333333333333</ele><time>2026-03-29T09:21:23.999Z</time></trkpt><trkpt lat="43.22328032479185" lon="12.181043252166166"><ele>398.66666666666663</ele><time>2026-03-29T09:21:24.999Z</time></trkpt><trkpt lat="43.2233594442989" lon="12.181022776839203"><ele>401.5</ele><time>2026-03-29T09:21:25.999Z</time></trkpt><trkpt lat="43.223454714873384" lon="12.181041755571917"><ele>404.3333333333333</ele><time>2026-03-29T09:21:26.999Z</time></trkpt><trkpt lat="43.22356156661003" lon="12.181052249089795"><ele>407.16666666666663</ele><time>2026-03-29T09:21:27.999Z</time></trkpt><trkpt lat="43.22363747115167" lon="12.18106355789143"><ele>410.0</ele><time>2026-03-29T09:21:28.999Z</time></trkpt><trkpt lat="43.22371346197296" lon="12.181105321009076"><ele>410.0</ele><time>2026-03-29T09:21:29.999Z</time></trkpt><trkpt lat="43.22380374416551" lon="12.18117366677276"><ele>410.0</ele><time>2026-03-29T09:21:30.999Z</time></trkpt><trkpt lat="43.22389697190335" lon="12.18121656523806"><ele>410.0</ele><time>2026-03-29T09:21:31.999Z</time></trkpt><trkpt lat="43.223986076312855" lon="12.181226467098917"><ele>410.0</ele><time>2026-03-29T09:21:32.999Z</time></trkpt><trkpt lat="43.22408396298171" lon="12.181210671311089"><ele>410.0</ele><time>2026-03-29T09:21:33.999Z</time></trkpt><trkpt lat="43.2241918665051" lon="12.181179647377549"><ele>412.3333333333333</ele><time>2026-03-29T09:21:34.998Z</time></trkpt><trkpt lat="43.22429142417102" lon="12.181150961617613"><ele>414.66666666666663</ele><time>2026-03-29T09:21:35.998Z</time></trkpt><trkpt lat="43.22436659420085" lon="12.181140298486971"><ele>417.0</ele><time>2026-03-29T09:21:36.998Z</time></trkpt><trkpt lat="43.22443931880367" lon="12.181121037519617"><ele>419.33333333333337</ele><time>2026-03-29T09:21:37.998Z</time></trkpt><trkpt lat="43.22451808575508" lon="12.181112708549136"><ele>421.6666666666667</ele><time>2026-03-29T09:21:38.998Z</time></trkpt><trkpt lat="43.224618639232425" lon="12.181131916430662"><ele>424.0</ele><time>2026-03-29T09:21:41Z</time></trkpt><trkpt lat="43.224685874259166" lon="12.181106842564022"><ele>424.00000000000006</ele><time>2026-03-29T09:21:43Z</time></trkpt><trkpt lat="43.22476953302027" lon="12.181109610751056"><ele>424.0</ele><time>2026-03-29T09:21:44Z</time></trkpt><trkpt lat="43.224843001605414" lon="12.18111490944945"><ele>424.0</ele><time>2026-03-29T09:21:45Z</time></trkpt><trkpt lat="43.224959136547994" lon="12.18115721722586"><ele>424.0</ele><time>2026-03-29T09:21:47Z</time></trkpt><trkpt lat="43.225024994251946" lon="12.181152594448792"><ele>424.00000000000006</ele><time>2026-03-29T09:21:48Z</time></trkpt><trkpt lat="43.22510059570783" lon="12.181149751008373"><ele>424.0</ele><time>2026-03-29T09:21:49Z</time></trkpt><trkpt lat="43.225183280125506" lon="12.181154221951036"><ele>425.6</ele><time>2026-03-29T09:21:50Z</time></trkpt><trkpt lat="43.22527481874436" lon="12.181172321163816"><ele>427.2</ele><time>2026-03-29T09:21:52Z</time></trkpt><trkpt lat="43.22533702692141" lon="12.181079938662872"><ele>428.80000000000007</ele><time>2026-03-29T09:21:54Z</time></trkpt><trkpt lat="43.22531792788579" lon="12.180969496235933"><ele>430.40000000000003</ele><time>2026-03-29T09:21:56Z</time></trkpt><trkpt lat="43.225363625429736" lon="12.18081834020052"><ele>432.0</ele><time>2026-03-29T09:21:57Z</time></trkpt><trkpt lat="43.22532873371136" lon="12.180699477442406"><ele>434.6</ele><time>2026-03-29T09:21:58Z</time></trkpt><trkpt lat="43.225280566042066" lon="12.18058334697504"><ele>437.20000000000005</ele><time>2026-03-29T09:21:59Z</time></trkpt><trkpt lat="43.22522730870366" lon="12.180469584289883"><ele>439.8</ele><time>2026-03-29T09:22:00Z</time></trkpt><trkpt lat="43.225160171930085" lon="12.180399060687924"><ele>442.4</ele><time>2026-03-29T09:22:01Z</time></trkpt><trkpt lat="43.22509867325628" lon="12.180352066290428"><ele>445.0</ele><time>2026-03-29T09:22:02Z</time></trkpt><trkpt lat="43.22501582139124" lon="12.180256930053707"><ele>445.00000000000006</ele><time>2026-03-29T09:22:04Z</time></trkpt><trkpt lat="43.22496611123364" lon="12.180202901940858"><ele>445.0</ele><time>2026-03-29T09:22:05Z</time></trkpt><trkpt lat="43.224859321265065" lon="12.180141977119336"><ele>445.0</ele><time>2026-03-29T09:22:07Z</time></trkpt><trkpt lat="43.224758584440664" lon="12.180130317551953"><ele>445.0</ele><time>2026-03-29T09:22:09Z</time></trkpt><trkpt lat="43.22468794532322" lon="12.180056449854307"><ele>445.00000000000006</ele><time>2026-03-29T09:22:11Z</time></trkpt><trkpt lat="43.22472071318513" lon="12.179978180849755"><ele>445.0</ele><time>2026-03-29T09:22:13Z</time></trkpt><trkpt lat="43.224786085940515" lon="12.17987532670064"><ele>444.8</ele><time>2026-03-29T09:22:15Z</time></trkpt><trkpt lat="43.22482274657911" lon="12.179737464330605"><ele>444.6</ele><time>2026-03-29T09:22:17Z</time></trkpt><trkpt lat="43.22491329637205" lon="12.179658661965828"><ele>444.4</ele><time>2026-03-29T09:22:20Z</time></trkpt><trkpt lat="43.22501421306032" lon="12.179634655375287"><ele>444.2</ele><time>2026-03-29T09:22:22Z</time></trkpt><trkpt lat="43.225129719300334" lon="12.179583694498918"><ele>444.0</ele><time>2026-03-29T09:22:23Z</time></trkpt><trkpt lat="43.22519451866332" lon="12.179555505475022"><ele>444.0</ele><time>2026-03-29T09:22:24Z</time></trkpt><trkpt lat="43.225312193799034" lon="12.179489293031214"><ele>444.0</ele><time>2026-03-29T09:22:26Z</time></trkpt><trkpt lat="43.22537769071851" lon="12.179455236154023"><ele>444.0</ele><time>2026-03-29T09:22:27Z</time></trkpt><trkpt lat="43.225471219515015" lon="12.179365294675922"><ele>444.0</ele><time>2026-03-29T09:22:29Z</time></trkpt><trkpt lat="43.225493614282676" lon="12.179244309211537"><ele>444.0</ele><time>2026-03-29T09:22:31Z</time></trkpt><trkpt lat="43.22551203741821" lon="12.179143627155215"><ele>444.0</ele><time>2026-03-29T09:22:33Z</time></trkpt><trkpt lat="43.22556432567087" lon="12.179095437078836"><ele>444.0</ele><time>2026-03-29T09:22:35Z</time></trkpt><trkpt lat="43.22562961230591" lon="12.17901209510515"><ele>444.0</ele><time>2026-03-29T09:22:37Z</time></trkpt><trkpt lat="43.22562696971365" lon="12.17891169283571"><ele>444.0</ele><time>2026-03-29T09:22:39Z</time></trkpt><trkpt lat="43.22557359905426" lon="12.178794806013887"><ele>444.0</ele><time>2026-03-29T09:22:41Z</time></trkpt><trkpt lat="43.22551666682925" lon="12.178711062517424"><ele>444.0</ele><time>2026-03-29T09:22:42.999Z</time></trkpt><trkpt lat="43.225541480564196" lon="12.178623504150945"><ele>445.4</ele><time>2026-03-29T09:22:44.999Z</time></trkpt><trkpt lat="43.225615190505984" lon="12.178574468033933"><ele>446.79999999999995</ele><time>2026-03-29T09:22:46.999Z</time></trkpt><trkpt lat="43.22569070267725" lon="12.178521536996247"><ele>448.20000000000005</ele><time>2026-03-29T09:22:48.999Z</time></trkpt><trkpt lat="43.22571875898186" lon="12.178428261205243"><ele>449.6</ele><time>2026-03-29T09:22:50.999Z</time></trkpt><trkpt lat="43.225773598651884" lon="12.178233148813598"><ele>451.0</ele><time>2026-03-29T09:22:52.999Z</time></trkpt><trkpt lat="43.22578597130297" lon="12.1780790615571"><ele>452.6666666666667</ele><time>2026-03-29T09:22:54.999Z</time></trkpt><trkpt lat="43.225764120212" lon="12.177911834085497"><ele>454.33333333333337</ele><time>2026-03-29T09:22:56.999Z</time></trkpt><trkpt lat="43.225747689083946" lon="12.17782364223433"><ele>456.0</ele><time>2026-03-29T09:22:57.999Z</time></trkpt><trkpt lat="43.22572584301359" lon="12.177720371864016"><ele>457.66666666666663</ele><time>2026-03-29T09:22:58.999Z</time></trkpt><trkpt lat="43.225712943834935" lon="12.17763089533476"><ele>459.3333333333333</ele><time>2026-03-29T09:22:59.999Z</time></trkpt><trkpt lat="43.22571398583233" lon="12.177477626002938"><ele>461.0</ele><time>2026-03-29T09:23:01.999Z</time></trkpt><trkpt lat="43.225717729731095" lon="12.17734219750061"><ele>461.8</ele><time>2026-03-29T09:23:03.999Z</time></trkpt><trkpt lat="43.22573300202733" lon="12.17714590931166"><ele>462.6</ele><time>2026-03-29T09:23:05.999Z</time></trkpt><trkpt lat="43.22574841259561" lon="12.177007498807718"><ele>463.4</ele><time>2026-03-29T09:23:06.999Z</time></trkpt><trkpt lat="43.2257642421962" lon="12.176889201015875"><ele>464.2</ele><time>2026-03-29T09:23:07.999Z</time></trkpt><trkpt lat="43.225803926201046" lon="12.176748287060988"><ele>465.0</ele><time>2026-03-29T09:23:09.999Z</time></trkpt><trkpt lat="43.225896382328116" lon="12.17662160663452"><ele>466.6</ele><time>2026-03-29T09:23:12.999Z</time></trkpt><trkpt lat="43.22596683757477" lon="12.176517873496923"><ele>468.2</ele><time>2026-03-29T09:23:14.999Z</time></trkpt><trkpt lat="43.22603726948451" lon="12.176374237525126"><ele>469.79999999999995</ele><time>2026-03-29T09:23:16.999Z</time></trkpt><trkpt lat="43.22609057653485" lon="12.176221176764683"><ele>471.4</ele><time>2026-03-29T09:23:18.999Z</time></trkpt><trkpt lat="43.22611620075901" lon="12.176135303674647"><ele>473.0</ele><time>2026-03-29T09:23:19.999Z</time></trkpt><trkpt lat="43.22616892614632" lon="12.176032802172797"><ele>473.0</ele><time>2026-03-29T09:23:21.999Z</time></trkpt><trkpt lat="43.22616918673284" lon="12.175914890128487"><ele>472.99999999999994</ele><time>2026-03-29T09:23:23.999Z</time></trkpt><trkpt lat="43.2261565172731" lon="12.175769649286803"><ele>472.99999999999994</ele><time>2026-03-29T09:23:25.999Z</time></trkpt><trkpt lat="43.226208555825764" lon="12.17564272812317"><ele>473.0</ele><time>2026-03-29T09:23:27.999Z</time></trkpt><trkpt lat="43.22624634253604" lon="12.175545042111947"><ele>473.0</ele><time>2026-03-29T09:23:29.999Z</time></trkpt><trkpt lat="43.22623249549826" lon="12.175407771855843"><ele>474.8571428571429</ele><time>2026-03-29T09:23:31.999Z</time></trkpt><trkpt lat="43.22619870294967" lon="12.175317811816258"><ele>476.71428571428567</ele><time>2026-03-29T09:23:34.999Z</time></trkpt><trkpt lat="43.226225387517324" lon="12.175235808212447"><ele>478.57142857142856</ele><time>2026-03-29T09:23:47Z</time></trkpt><trkpt lat="43.22622388853679" lon="12.175126217569977"><ele>480.42857142857144</ele><time>2026-03-29T09:23:58Z</time></trkpt><trkpt lat="43.22622820887353" lon="12.17503919590651"><ele>482.28571428571433</ele><time>2026-03-29T09:24:08Z</time></trkpt><trkpt lat="43.22618665563487" lon="12.174943743536133"><ele>484.1428571428571</ele><time>2026-03-29T09:24:24Z</time></trkpt><trkpt lat="43.226148202741584" lon="12.174842102357282"><ele>486.0</ele><time>2026-03-29T09:24:26Z</time></trkpt><trkpt lat="43.226091478478175" lon="12.174734456795402"><ele>488.0</ele><time>2026-03-29T09:24:28Z</time></trkpt><trkpt lat="43.22602159039308" lon="12.174622821781329"><ele>490.0</ele><time>2026-03-29T09:24:31Z</time></trkpt><trkpt lat="43.22596378818617" lon="12.174504250898291"><ele>492.0</ele><time>2026-03-29T09:24:33Z</time></trkpt><trkpt lat="43.22593032101532" lon="12.174424755095094"><ele>494.0</ele><time>2026-03-29T09:24:35Z</time></trkpt><trkpt lat="43.22598220569827" lon="12.174347828409736"><ele>496.0</ele><time>2026-03-29T09:24:38Z</time></trkpt><trkpt lat="43.226075802622" lon="12.174334255278627"><ele>498.0</ele><time>2026-03-29T09:24:40Z</time></trkpt><trkpt lat="43.226147426998665" lon="12.174300557157013"><ele>498.0</ele><time>2026-03-29T09:24:42Z</time></trkpt><trkpt lat="43.22623743243628" lon="12.174224354923796"><ele>498.0</ele><time>2026-03-29T09:24:44Z</time></trkpt><trkpt lat="43.22630759228319" lon="12.174200044081065"><ele>498.0</ele><time>2026-03-29T09:24:45.999Z</time></trkpt><trkpt lat="43.22636653751692" lon="12.174169602926357"><ele>498.0</ele><time>2026-03-29T09:24:47.999Z</time></trkpt><trkpt lat="43.226440279260785" lon="12.17412013092399"><ele>498.0</ele><time>2026-03-29T09:24:50.999Z</time></trkpt><trkpt lat="43.2265301903511" lon="12.174077527616658"><ele>498.0</ele><time>2026-03-29T09:24:52.999Z</time></trkpt><trkpt lat="43.22661108880797" lon="12.174065482380282"><ele>503.0</ele><time>2026-03-29T09:24:53.999Z</time></trkpt><trkpt lat="43.2267034090358" lon="12.173991840136846"><ele>507.99999999999994</ele><time>2026-03-29T09:25:46.999Z</time></trkpt><trkpt lat="43.22678189486417" lon="12.174013543299997"><ele>513.0</ele><time>2026-03-29T09:25:48.998Z</time></trkpt><trkpt lat="43.22688397504209" lon="12.173993956097759"><ele>518.0</ele><time>2026-03-29T09:25:50.998Z</time></trkpt><trkpt lat="43.226955238346875" lon="12.173924621822326"><ele>523.0</ele><time>2026-03-29T09:25:53Z</time></trkpt><trkpt lat="43.22698423199952" lon="12.17383230736372"><ele>523.0</ele><time>2026-03-29T09:25:55Z</time></trkpt><trkpt lat="43.22689513720041" lon="12.17378335712338"><ele>523.0</ele><time>2026-03-29T09:25:58Z</time></trkpt><trkpt lat="43.22686340006497" lon="12.173690942881844"><ele>523.0</ele><time>2026-03-29T09:26:01Z</time></trkpt><trkpt lat="43.226832189430866" lon="12.173582979322259"><ele>523.0</ele><time>2026-03-29T09:26:03Z</time></trkpt><trkpt lat="43.22676071024236" lon="12.173511940621287"><ele>523.0</ele><time>2026-03-29T09:26:05Z</time></trkpt><trkpt lat="43.226737164209325" lon="12.173409826687323"><ele>523.0</ele><time>2026-03-29T09:26:07Z</time></trkpt><trkpt lat="43.226720337036916" lon="12.173324265665231"><ele>523.0</ele><time>2026-03-29T09:26:08Z</time></trkpt><trkpt lat="43.22674635470046" lon="12.173210792283514"><ele>523.0</ele><time>2026-03-29T09:26:11Z</time></trkpt><trkpt lat="43.22681118471863" lon="12.173138845526056"><ele>523.0</ele><time>2026-03-29T09:26:13Z</time></trkpt><trkpt lat="43.226886573561885" lon="12.173144283743069"><ele>523.0</ele><time>2026-03-29T09:26:16Z</time></trkpt><trkpt lat="43.22693577999481" lon="12.173038156565987"><ele>523.0</ele><time>2026-03-29T09:27:55.998Z</time></trkpt><trkpt lat="43.22688637428358" lon="12.17292596507012"><ele>523.0</ele><time>2026-03-29T09:27:59Z</time></trkpt><trkpt lat="43.22688071183279" lon="12.172815188277509"><ele>525.0</ele><time>2026-03-29T09:28:01Z</time></trkpt><trkpt lat="43.22688924443394" lon="12.172715268178397"><ele>527.0</ele><time>2026-03-29T09:28:03Z</time></trkpt><trkpt lat="43.226915271947284" lon="12.172631661338901"><ele>529.0</ele><time>2026-03-29T09:28:05Z</time></trkpt><trkpt lat="43.22695318859148" lon="12.172499600811284"><ele>531.0</ele><time>2026-03-29T09:28:08Z</time></trkpt><trkpt lat="43.226940583897715" lon="12.172363984595696"><ele>533.0</ele><time>2026-03-29T09:28:10Z</time></trkpt><trkpt lat="43.226912085616206" lon="12.172254420477126"><ele>535.0</ele><time>2026-03-29T09:28:12Z</time></trkpt><trkpt lat="43.22685248452033" lon="12.172112613657083"><ele>537.5</ele><time>2026-03-29T09:28:14Z</time></trkpt><trkpt lat="43.226806767424456" lon="12.172045020310804"><ele>540.0</ele><time>2026-03-29T09:28:15Z</time></trkpt><trkpt lat="43.22676598749177" lon="12.17194493775932"><ele>542.5</ele><time>2026-03-29T09:28:17Z</time></trkpt><trkpt lat="43.226693631769116" lon="12.171859000879476"><ele>545.0</ele><time>2026-03-29T09:28:20Z</time></trkpt><trkpt lat="43.22664359233358" lon="12.171765728356364"><ele>547.5</ele><time>2026-03-29T09:28:22Z</time></trkpt><trkpt lat="43.226605891717064" lon="12.171685344889424"><ele>550.0</ele><time>2026-03-29T09:28:23Z</time></trkpt><trkpt lat="43.226615145357535" lon="12.171599796510105"><ele>552.0</ele><time>2026-03-29T09:28:25Z</time></trkpt><trkpt lat="43.22669985064668" lon="12.17150798883148"><ele>554.0</ele><time>2026-03-29T09:28:27Z</time></trkpt><trkpt lat="43.22681053505612" lon="12.171479102758727"><ele>556.0</ele><time>2026-03-29T09:28:30Z</time></trkpt><trkpt lat="43.22690831729756" lon="12.17147051393774"><ele>558.0</ele><time>2026-03-29T09:28:31Z</time></trkpt><trkpt lat="43.226977347039266" lon="12.171466877627445"><ele>560.0</ele><time>2026-03-29T09:28:32Z</time></trkpt><trkpt lat="43.22706851981185" lon="12.17143224123863"><ele>560.0</ele><time>2026-03-29T09:28:34Z</time></trkpt><trkpt lat="43.22709633413521" lon="12.171326623030588"><ele>560.0</ele><time>2026-03-29T09:28:36Z</time></trkpt><trkpt lat="43.22703772021689" lon="12.171177444083273"><ele>560.0</ele><time>2026-03-29T09:28:38Z</time></trkpt><trkpt lat="43.226990098887555" lon="12.17109319799017"><ele>560.0</ele><time>2026-03-29T09:28:39Z</time></trkpt><trkpt lat="43.22693857895233" lon="12.171030950573185"><ele>560.0</ele><time>2026-03-29T09:28:40Z</time></trkpt><trkpt lat="43.22688080328786" lon="12.170986377160279"><ele>560.0</ele><time>2026-03-29T09:28:41Z</time></trkpt><trkpt lat="43.22682325674922" lon="12.170948195867052"><ele>560.0</ele><time>2026-03-29T09:28:42Z</time></trkpt><trkpt lat="43.22674384812551" lon="12.17085048807792"><ele>560.0</ele><time>2026-03-29T09:28:44Z</time></trkpt><trkpt lat="43.22675666308586" lon="12.170720956598887"><ele>560.0</ele><time>2026-03-29T09:28:46Z</time></trkpt><trkpt lat="43.22676831231475" lon="12.170577284974609"><ele>560.0</ele><time>2026-03-29T09:28:48Z</time></trkpt><trkpt lat="43.226822519877494" lon="12.170489845560764"><ele>560.0</ele><time>2026-03-29T09:28:50Z</time></trkpt><trkpt lat="43.22691203533038" lon="12.170565458108529"><ele>560.0</ele><time>2026-03-29T09:28:51Z</time></trkpt><trkpt lat="43.226982294847886" lon="12.170613169093881"><ele>560.0</ele><time>2026-03-29T09:28:52Z</time></trkpt><trkpt lat="43.22704999572555" lon="12.170655221420628"><ele>560.0</ele><time>2026-03-29T09:28:53Z</time></trkpt><trkpt lat="43.22713811714042" lon="12.170678650970043"><ele>560.0</ele><time>2026-03-29T09:28:54Z</time></trkpt><trkpt lat="43.227245478215345" lon="12.170720090778447"><ele>560.0</ele><time>2026-03-29T09:28:55Z</time></trkpt><trkpt lat="43.227314987181884" lon="12.170744057789857"><ele>560.0</ele><time>2026-03-29T09:28:55.999Z</time></trkpt><trkpt lat="43.22739579486777" lon="12.170716566814251"><ele>562.0</ele><time>2026-03-29T09:28:57.999Z</time></trkpt><trkpt lat="43.22747143955056" lon="12.170716377962568"><ele>564.0</ele><time>2026-03-29T09:29:01.999Z</time></trkpt><trkpt lat="43.22759047290113" lon="12.170777287691546"><ele>566.0</ele><time>2026-03-29T09:29:03.999Z</time></trkpt><trkpt lat="43.227669812383766" lon="12.170846229922981"><ele>568.0</ele><time>2026-03-29T09:29:05.999Z</time></trkpt><trkpt lat="43.22776077520686" lon="12.170890115411263"><ele>570.0</ele><time>2026-03-29T09:29:07.999Z</time></trkpt><trkpt lat="43.22784323437856" lon="12.170919143294373"><ele>570.0</ele><time>2026-03-29T09:29:09.999Z</time></trkpt><trkpt lat="43.227960158864384" lon="12.170929949085426"><ele>570.0</ele><time>2026-03-29T09:29:11.999Z</time></trkpt><trkpt lat="43.22802267031002" lon="12.170914976849224"><ele>570.0</ele><time>2026-03-29T09:29:12.999Z</time></trkpt><trkpt lat="43.228079522135076" lon="12.170869598892645"><ele>570.0</ele><time>2026-03-29T09:29:13.999Z</time></trkpt><trkpt lat="43.22818652462376" lon="12.170831004932033"><ele>570.0</ele><time>2026-03-29T09:29:15.999Z</time></trkpt><trkpt lat="43.228291132465124" lon="12.170877506103315"><ele>570.4</ele><time>2026-03-29T09:29:17.999Z</time></trkpt><trkpt lat="43.22836513857808" lon="12.170998508095648"><ele>570.8</ele><time>2026-03-29T09:29:19.999Z</time></trkpt><trkpt lat="43.22841194943909" lon="12.171135001474076"><ele>571.2</ele><time>2026-03-29T09:29:21.999Z</time></trkpt><trkpt lat="43.2284523598184" lon="12.171211794346611"><ele>571.6</ele><time>2026-03-29T09:29:23.999Z</time></trkpt><trkpt lat="43.22853568860789" lon="12.171213917312171"><ele>572.0</ele><time>2026-03-29T09:29:25.999Z</time></trkpt><trkpt lat="43.22865254427389" lon="12.171255439438237"><ele>572.0</ele><time>2026-03-29T09:29:27.999Z</time></trkpt><trkpt lat="43.22875605090666" lon="12.17132305175595"><ele>572.0</ele><time>2026-03-29T09:29:29.999Z</time></trkpt><trkpt lat="43.228837856919256" lon="12.171379348855918"><ele>572.0</ele><time>2026-03-29T09:29:31.999Z</time></trkpt><trkpt lat="43.22896405483517" lon="12.171430872898256"><ele>572.0</ele><time>2026-03-29T09:29:33.999Z</time></trkpt><trkpt lat="43.22908323022133" lon="12.17146267856713"><ele>569.2</ele><time>2026-03-29T09:29:35.999Z</time></trkpt><trkpt lat="43.22919468994721" lon="12.17154013311763"><ele>566.4000000000001</ele><time>2026-03-29T09:29:37.999Z</time></trkpt><trkpt lat="43.22925703965805" lon="12.171602853016221"><ele>563.5999999999999</ele><time>2026-03-29T09:29:38.999Z</time></trkpt><trkpt lat="43.22933248644133" lon="12.171680513918153"><ele>560.8</ele><time>2026-03-29T09:29:39.999Z</time></trkpt><trkpt lat="43.229402196908026" lon="12.171741928441232"><ele>558.0</ele><time>2026-03-29T09:29:40.999Z</time></trkpt><trkpt lat="43.22948187927542" lon="12.171835172871049"><ele>558.0</ele><time>2026-03-29T09:29:42.999Z</time></trkpt><trkpt lat="43.22955280555304" lon="12.171920007633108"><ele>558.0</ele><time>2026-03-29T09:29:44.999Z</time></trkpt><trkpt lat="43.229647007720665" lon="12.172011518936038"><ele>558.0</ele><time>2026-03-29T09:29:46.999Z</time></trkpt><trkpt lat="43.229782413580125" lon="12.17205583214784"><ele>558.0</ele><time>2026-03-29T09:29:48.999Z</time></trkpt><trkpt lat="43.22985365260424" lon="12.172082037902097"><ele>558.0</ele><time>2026-03-29T09:29:49.999Z</time></trkpt><trkpt lat="43.229972294427284" lon="12.1721098382362"><ele>559.1666666666666</ele><time>2026-03-29T09:29:51.999Z</time></trkpt><trkpt lat="43.23003644343632" lon="12.172127884878673"><ele>560.3333333333334</ele><time>2026-03-29T09:29:52.999Z</time></trkpt><trkpt lat="43.23009754604422" lon="12.172152432380145"><ele>561.5</ele><time>2026-03-29T09:29:53.999Z</time></trkpt><trkpt lat="43.230210063559035" lon="12.17213814730963"><ele>562.6666666666667</ele><time>2026-03-29T09:29:55.999Z</time></trkpt><trkpt lat="43.230329917314286" lon="12.172070274130304"><ele>563.8333333333334</ele><time>2026-03-29T09:29:57.998Z</time></trkpt><trkpt lat="43.230392623873506" lon="12.172048612758358"><ele>565.0</ele><time>2026-03-29T09:29:58.998Z</time></trkpt><trkpt lat="43.2304550652054" lon="12.172025637356391"><ele>565.0</ele><time>2026-03-29T09:29:59.998Z</time></trkpt><trkpt lat="43.230514930539385" lon="12.171992615105573"><ele>565.0</ele><time>2026-03-29T09:30:00.998Z</time></trkpt><trkpt lat="43.230611069412156" lon="12.171901995441303"><ele>565.0</ele><time>2026-03-29T09:30:02.998Z</time></trkpt><trkpt lat="43.23070216866909" lon="12.171813728860567"><ele>565.0</ele><time>2026-03-29T09:30:05Z</time></trkpt><trkpt lat="43.23075274972659" lon="12.17171710685031"><ele>565.0</ele><time>2026-03-29T09:30:07Z</time></trkpt><trkpt lat="43.23077105920157" lon="12.171607564352621"><ele>563.2</ele><time>2026-03-29T09:30:09Z</time></trkpt><trkpt lat="43.2308128300913" lon="12.171455785356265"><ele>561.4</ele><time>2026-03-29T09:30:11Z</time></trkpt><trkpt lat="43.230869316466844" lon="12.171327345564443"><ele>559.6</ele><time>2026-03-29T09:30:13Z</time></trkpt><trkpt lat="43.23095250466829" lon="12.171198894104263"><ele>557.8</ele><time>2026-03-29T09:30:15Z</time></trkpt><trkpt lat="43.230980944486916" lon="12.171114540971248"><ele>556.0</ele><time>2026-03-29T09:30:16Z</time></trkpt><trkpt lat="43.23100240336542" lon="12.170994894048446"><ele>556.0</ele><time>2026-03-29T09:30:18Z</time></trkpt><trkpt lat="43.231024157756394" lon="12.170886093160242"><ele>556.0</ele><time>2026-03-29T09:30:20Z</time></trkpt><trkpt lat="43.23107527039615" lon="12.170805941428743"><ele>556.0</ele><time>2026-03-29T09:30:22Z</time></trkpt><trkpt lat="43.231166212247395" lon="12.17077903745624"><ele>556.0</ele><time>2026-03-29T09:30:24Z</time></trkpt><trkpt lat="43.23127764898592" lon="12.170718601488177"><ele>556.0</ele><time>2026-03-29T09:30:26Z</time></trkpt><trkpt lat="43.23132128558967" lon="12.170653055540614"><ele>556.0</ele><time>2026-03-29T09:30:27Z</time></trkpt><trkpt lat="43.231374286994374" lon="12.170519041231062"><ele>557.0</ele><time>2026-03-29T09:30:29Z</time></trkpt><trkpt lat="43.23140593249151" lon="12.170359813711002"><ele>558.0</ele><time>2026-03-29T09:30:31Z</time></trkpt><trkpt lat="43.23147433077459" lon="12.170274108680626"><ele>559.0</ele><time>2026-03-29T09:30:33Z</time></trkpt><trkpt lat="43.231545191093474" lon="12.170243274655363"><ele>560.0</ele><time>2026-03-29T09:30:34Z</time></trkpt><trkpt lat="43.23164682398156" lon="12.17021769129919"><ele>561.0</ele><time>2026-03-29T09:30:35Z</time></trkpt><trkpt lat="43.23172296273825" lon="12.170199572984625"><ele>561.0</ele><time>2026-03-29T09:30:36Z</time></trkpt><trkpt lat="43.231793530313126" lon="12.170181565315705"><ele>561.0</ele><time>2026-03-29T09:30:37Z</time></trkpt><trkpt lat="43.23185637038376" lon="12.17014307528637"><ele>561.0</ele><time>2026-03-29T09:30:38Z</time></trkpt><trkpt lat="43.231919114654" lon="12.170085407187372"><ele>561.0</ele><time>2026-03-29T09:30:39Z</time></trkpt><trkpt lat="43.23198071741903" lon="12.170025519745998"><ele>561.0</ele><time>2026-03-29T09:30:40Z</time></trkpt><trkpt lat="43.23204934712631" lon="12.16997677584145"><ele>561.0</ele><time>2026-03-29T09:30:41Z</time></trkpt><trkpt lat="43.23211875106579" lon="12.169940923622063"><ele>561.0</ele><time>2026-03-29T09:30:42Z</time></trkpt><trkpt lat="43.23223210826444" lon="12.169840652565835"><ele>562.0</ele><time>2026-03-29T09:30:44Z</time></trkpt><trkpt lat="43.232281808062986" lon="12.169742811235224"><ele>563.0</ele><time>2026-03-29T09:30:45Z</time></trkpt><trkpt lat="43.2323186339541" lon="12.169642081344746"><ele>564.0</ele><time>2026-03-29T09:30:46Z</time></trkpt><trkpt lat="43.232373885886346" lon="12.169482499084054"><ele>565.0</ele><time>2026-03-29T09:30:48Z</time></trkpt><trkpt lat="43.232421624095416" lon="12.169409603110585"><ele>566.0</ele><time>2026-03-29T09:30:49Z</time></trkpt><trkpt lat="43.23247709700903" lon="12.169359850071634"><ele>567.0</ele><time>2026-03-29T09:30:50Z</time></trkpt><trkpt lat="43.23254042013836" lon="12.169307322170363"><ele>567.0</ele><time>2026-03-29T09:30:51Z</time></trkpt><trkpt lat="43.232599378664275" lon="12.169229415740283"><ele>567.0</ele><time>2026-03-29T09:30:52Z</time></trkpt><trkpt lat="43.23265028602003" lon="12.169146830098185"><ele>567.0</ele><time>2026-03-29T09:30:53Z</time></trkpt><trkpt lat="43.2327009739067" lon="12.169063286847292"><ele>567.0</ele><time>2026-03-29T09:30:53.999Z</time></trkpt><trkpt lat="43.232756353493976" lon="12.16900759106569"><ele>567.0</ele><time>2026-03-29T09:30:54.999Z</time></trkpt><trkpt lat="43.232811015788215" lon="12.168949287167473"><ele>567.0</ele><time>2026-03-29T09:30:55.999Z</time></trkpt><trkpt lat="43.23286744622484" lon="12.168888691324065"><ele>567.0</ele><time>2026-03-29T09:30:56.999Z</time></trkpt><trkpt lat="43.232927359204474" lon="12.168833226961231"><ele>568.8000000000001</ele><time>2026-03-29T09:30:57.999Z</time></trkpt><trkpt lat="43.23298940637729" lon="12.168803249974975"><ele>570.6</ele><time>2026-03-29T09:30:58.999Z</time></trkpt><trkpt lat="43.2330911578979" lon="12.168791665297784"><ele>572.4000000000001</ele><time>2026-03-29T09:31:00.999Z</time></trkpt><trkpt lat="43.23319394465898" lon="12.168808830000174"><ele>574.2</ele><time>2026-03-29T09:31:03.999Z</time></trkpt><trkpt lat="43.233323108433204" lon="12.16883946630546"><ele>576.0</ele><time>2026-03-29T09:31:05.999Z</time></trkpt><trkpt lat="43.23343086626087" lon="12.168841306806398"><ele>576.0</ele><time>2026-03-29T09:31:07.999Z</time></trkpt><trkpt lat="43.233499791224716" lon="12.168789764496829"><ele>576.0</ele><time>2026-03-29T09:31:09.999Z</time></trkpt><trkpt lat="43.23346645050225" lon="12.168658296588605"><ele>576.0</ele><time>2026-03-29T09:31:11.999Z</time></trkpt><trkpt lat="43.23336218081384" lon="12.16865449841171"><ele>576.0</ele><time>2026-03-29T09:31:13.999Z</time></trkpt><trkpt lat="43.233299069451945" lon="12.168591851581063"><ele>576.0</ele><time>2026-03-29T09:31:15.999Z</time></trkpt><trkpt lat="43.23329775579247" lon="12.168480846650562"><ele>576.0</ele><time>2026-03-29T09:31:18.999Z</time></trkpt><trkpt lat="43.233339095612315" lon="12.168335318718375"><ele>576.0</ele><time>2026-03-29T09:31:19.999Z</time></trkpt><trkpt lat="43.23337986240075" lon="12.168232284798638"><ele>576.0</ele><time>2026-03-29T09:31:21.999Z</time></trkpt><trkpt lat="43.233394759318166" lon="12.168060392873844"><ele>576.0</ele><time>2026-03-29T09:31:23.999Z</time></trkpt><trkpt lat="43.233393452994186" lon="12.167938788575977"><ele>576.0</ele><time>2026-03-29T09:31:24.999Z</time></trkpt><trkpt lat="43.233375559249744" lon="12.167854161357251"><ele>576.0</ele><time>2026-03-29T09:31:25.999Z</time></trkpt><trkpt lat="43.23333890647858" lon="12.167689656367344"><ele>577.0</ele><time>2026-03-29T09:31:27.999Z</time></trkpt><trkpt lat="43.233323861289065" lon="12.167601346505538"><ele>578.0</ele><time>2026-03-29T09:31:28.999Z</time></trkpt><trkpt lat="43.233308990270956" lon="12.167429577895366"><ele>579.0</ele><time>2026-03-29T09:31:30.999Z</time></trkpt><trkpt lat="43.23329843199386" lon="12.167301872730391"><ele>580.0</ele><time>2026-03-29T09:31:32.999Z</time></trkpt><trkpt lat="43.233306887954946" lon="12.167178021337465"><ele>581.0</ele><time>2026-03-29T09:31:34.999Z</time></trkpt><trkpt lat="43.233330905232755" lon="12.167059859262494"><ele>581.4</ele><time>2026-03-29T09:31:36.999Z</time></trkpt><trkpt lat="43.233355165978395" lon="12.166890051132873"><ele>581.8</ele><time>2026-03-29T09:31:38.999Z</time></trkpt><trkpt lat="43.233338599825785" lon="12.166770574421523"><ele>582.1999999999999</ele><time>2026-03-29T09:31:40.999Z</time></trkpt><trkpt lat="43.23333298409293" lon="12.166656422579118"><ele>582.6</ele><time>2026-03-29T09:31:42.999Z</time></trkpt><trkpt lat="43.23343048748295" lon="12.16665373841123"><ele>583.0</ele><time>2026-03-29T09:31:46.999Z</time></trkpt><trkpt lat="43.233521860230965" lon="12.166659435648741"><ele>583.0</ele><time>2026-03-29T09:31:48.999Z</time></trkpt><trkpt lat="43.23360187914282" lon="12.166684641826986"><ele>583.0</ele><time>2026-03-29T09:31:49.999Z</time></trkpt><trkpt lat="43.233696167997685" lon="12.166679266634485"><ele>583.0</ele><time>2026-03-29T09:31:51.999Z</time></trkpt><trkpt lat="43.23375966815799" lon="12.166638357390461"><ele>583.0</ele><time>2026-03-29T09:31:52.999Z</time></trkpt><trkpt lat="43.23384199273227" lon="12.166578559359767"><ele>583.0</ele><time>2026-03-29T09:31:53.999Z</time></trkpt><trkpt lat="43.2339138647055" lon="12.1665217454336"><ele>583.0</ele><time>2026-03-29T09:31:54.999Z</time></trkpt><trkpt lat="43.23397285411307" lon="12.166481554540248"><ele>582.5714285714287</ele><time>2026-03-29T09:31:55.998Z</time></trkpt><trkpt lat="43.23403244845373" lon="12.166446212181176"><ele>582.1428571428571</ele><time>2026-03-29T09:31:56.998Z</time></trkpt><trkpt lat="43.23409750081686" lon="12.166423004253133"><ele>581.7142857142858</ele><time>2026-03-29T09:31:57.998Z</time></trkpt><trkpt lat="43.234164934898786" lon="12.166387911802257"><ele>581.2857142857143</ele><time>2026-03-29T09:31:58.998Z</time></trkpt><trkpt lat="43.23422914381991" lon="12.166350749964757"><ele>580.8571428571429</ele><time>2026-03-29T09:31:59.998Z</time></trkpt><trkpt lat="43.234321444882596" lon="12.166299755088684"><ele>580.4285714285714</ele><time>2026-03-29T09:32:01.998Z</time></trkpt><trkpt lat="43.23438421756684" lon="12.166343956505123"><ele>580.0</ele><time>2026-03-29T09:32:03.998Z</time></trkpt><trkpt lat="43.234475241562954" lon="12.166438548579926"><ele>580.0</ele><time>2026-03-29T09:32:05.998Z</time></trkpt><trkpt lat="43.234536237459295" lon="12.166465614495946"><ele>580.0</ele><time>2026-03-29T09:32:06.998Z</time></trkpt><trkpt lat="43.23460172577311" lon="12.166476909339549"><ele>580.0</ele><time>2026-03-29T09:32:07.998Z</time></trkpt><trkpt lat="43.234673733017466" lon="12.166483252498011"><ele>580.0</ele><time>2026-03-29T09:32:08.998Z</time></trkpt><trkpt lat="43.23474012551708" lon="12.166501565313974"><ele>580.0</ele><time>2026-03-29T09:32:10Z</time></trkpt><trkpt lat="43.234856883531236" lon="12.1665239199997"><ele>580.0</ele><time>2026-03-29T09:32:12Z</time></trkpt><trkpt lat="43.234920055259956" lon="12.1665326599012"><ele>576.8</ele><time>2026-03-29T09:32:13Z</time></trkpt><trkpt lat="43.234982999084174" lon="12.16656267418803"><ele>573.6</ele><time>2026-03-29T09:32:14Z</time></trkpt><trkpt lat="43.23508251068822" lon="12.16663903575748"><ele>570.4</ele><time>2026-03-29T09:32:16Z</time></trkpt><trkpt lat="43.235178059172526" lon="12.166724314606197"><ele>567.2</ele><time>2026-03-29T09:32:18Z</time></trkpt><trkpt lat="43.23526784505392" lon="12.166821307129279"><ele>564.0</ele><time>2026-03-29T09:32:20Z</time></trkpt><trkpt lat="43.235336083824464" lon="12.166895590626078"><ele>564.0</ele><time>2026-03-29T09:32:22Z</time></trkpt><trkpt lat="43.23541409386665" lon="12.166997399492551"><ele>564.0</ele><time>2026-03-29T09:32:24Z</time></trkpt><trkpt lat="43.23558283884946" lon="12.167080229323135"><ele>564.0</ele><time>2026-03-29T09:32:27Z</time></trkpt><trkpt lat="43.23567479066284" lon="12.167157109574335"><ele>564.0</ele><time>2026-03-29T09:32:29Z</time></trkpt><trkpt lat="43.23572993048388" lon="12.16724411801126"><ele>564.6666666666666</ele><time>2026-03-29T09:32:31Z</time></trkpt><trkpt lat="43.23577253324987" lon="12.167314871353978"><ele>565.3333333333334</ele><time>2026-03-29T09:32:33Z</time></trkpt><trkpt lat="43.23581424864343" lon="12.167385477945329"><ele>566.0</ele><time>2026-03-29T09:32:35Z</time></trkpt><trkpt lat="43.235894039194896" lon="12.167439180700049"><ele>566.6666666666667</ele><time>2026-03-29T09:32:37Z</time></trkpt><trkpt lat="43.2359598203639" lon="12.167374565387382"><ele>567.3333333333334</ele><time>2026-03-29T09:32:39Z</time></trkpt><trkpt lat="43.236012927584255" lon="12.167262164598219"><ele>568.0</ele><time>2026-03-29T09:32:41Z</time></trkpt><trkpt lat="43.236053860958265" lon="12.167133166056406"><ele>568.0</ele><time>2026-03-29T09:32:43Z</time></trkpt><trkpt lat="43.23609420270143" lon="12.167002989191868"><ele>568.0</ele><time>2026-03-29T09:32:45Z</time></trkpt><trkpt lat="43.23612127257185" lon="12.166897498018315"><ele>568.0</ele><time>2026-03-29T09:32:47Z</time></trkpt><trkpt lat="43.236154434441445" lon="12.166823650960053"><ele>568.0</ele><time>2026-03-29T09:32:48Z</time></trkpt><trkpt lat="43.23621228430339" lon="12.166762418871748"><ele>568.0</ele><time>2026-03-29T09:32:50Z</time></trkpt><trkpt lat="43.23631671443408" lon="12.166754078182883"><ele>568.0</ele><time>2026-03-29T09:32:52Z</time></trkpt><trkpt lat="43.23638515626399" lon="12.16677926753047"><ele>565.0</ele><time>2026-03-29T09:32:55Z</time></trkpt><trkpt lat="43.23654010489707" lon="12.166845268047902"><ele>562.0</ele><time>2026-03-29T09:32:57Z</time></trkpt><trkpt lat="43.23661204363378" lon="12.166872193845887"><ele>559.0</ele><time>2026-03-29T09:32:58Z</time></trkpt><trkpt lat="43.23668308261992" lon="12.166907789763826"><ele>556.0</ele><time>2026-03-29T09:32:59Z</time></trkpt><trkpt lat="43.236748469929964" lon="12.16694380736891"><ele>553.0</ele><time>2026-03-29T09:33:00Z</time></trkpt><trkpt lat="43.23684305640247" lon="12.167051260541314"><ele>553.0</ele><time>2026-03-29T09:33:01.999Z</time></trkpt><trkpt lat="43.23692446814814" lon="12.167152936371206"><ele>553.0</ele><time>2026-03-29T09:33:03.999Z</time></trkpt><trkpt lat="43.23702326745172" lon="12.167156944659457"><ele>553.0</ele><time>2026-03-29T09:33:05.999Z</time></trkpt><trkpt lat="43.237127371936616" lon="12.167121684352635"><ele>553.0</ele><time>2026-03-29T09:33:07.999Z</time></trkpt><trkpt lat="43.237248908069624" lon="12.167083848353522"><ele>553.0</ele><time>2026-03-29T09:33:09.999Z</time></trkpt><trkpt lat="43.237364787732496" lon="12.167020971118212"><ele>551.6666666666667</ele><time>2026-03-29T09:33:11.999Z</time></trkpt><trkpt lat="43.23742845426764" lon="12.166999094013132"><ele>550.3333333333334</ele><time>2026-03-29T09:33:12.999Z</time></trkpt><trkpt lat="43.23751675653907" lon="12.166995178637766"><ele>549.0</ele><time>2026-03-29T09:33:14.999Z</time></trkpt><trkpt lat="43.237601385694425" lon="12.166953669907448"><ele>547.6666666666666</ele><time>2026-03-29T09:33:15.999Z</time></trkpt><trkpt lat="43.23767524914473" lon="12.166953214112208"><ele>546.3333333333333</ele><time>2026-03-29T09:33:16.999Z</time></trkpt><trkpt lat="43.237742625641296" lon="12.166975901807968"><ele>545.0</ele><time>2026-03-29T09:33:17.999Z</time></trkpt><trkpt lat="43.23784542137804" lon="12.167041131401579"><ele>545.0</ele><time>2026-03-29T09:33:19.999Z</time></trkpt><trkpt lat="43.23796352660063" lon="12.167075582477391"><ele>545.0</ele><time>2026-03-29T09:33:21.999Z</time></trkpt><trkpt lat="43.2380335618128" lon="12.167079067264698"><ele>545.0</ele><time>2026-03-29T09:33:22.999Z</time></trkpt><trkpt lat="43.238108366624694" lon="12.167069373406823"><ele>545.0</ele><time>2026-03-29T09:33:23.999Z</time></trkpt><trkpt lat="43.23817733166844" lon="12.16706060095904"><ele>545.0</ele><time>2026-03-29T09:33:24.999Z</time></trkpt><trkpt lat="43.23824002599346" lon="12.167041041417132"><ele>545.0</ele><time>2026-03-29T09:33:25.999Z</time></trkpt><trkpt lat="43.238341903743866" lon="12.167025332284684"><ele>542.1666666666666</ele><time>2026-03-29T09:33:27.999Z</time></trkpt><trkpt lat="43.23846263051313" lon="12.167088713640405"><ele>539.3333333333333</ele><time>2026-03-29T09:33:29.999Z</time></trkpt><trkpt lat="43.23853430156661" lon="12.167122243226723"><ele>536.5</ele><time>2026-03-29T09:33:30.999Z</time></trkpt><trkpt lat="43.23859931612432" lon="12.167139475645431"><ele>533.6666666666666</ele><time>2026-03-29T09:33:31.999Z</time></trkpt><trkpt lat="43.238681136326555" lon="12.16715406747607"><ele>530.8333333333334</ele><time>2026-03-29T09:33:33.999Z</time></trkpt><trkpt lat="43.238724724664614" lon="12.167064976721575"><ele>528.0</ele><time>2026-03-29T09:33:37.999Z</time></trkpt><trkpt lat="43.23870600539244" lon="12.166794338632744"><ele>529.3333333333334</ele><time>2026-03-29T09:33:39.999Z</time></trkpt><trkpt lat="43.23865227149933" lon="12.166488335065708"><ele>530.6666666666667</ele><time>2026-03-29T09:33:40.999Z</time></trkpt><trkpt lat="43.23859422679371" lon="12.16622013189318"><ele>532.0</ele><time>2026-03-29T09:33:41.999Z</time></trkpt><trkpt lat="43.238535459622945" lon="12.165950652213937"><ele>532.3333333333334</ele><time>2026-03-29T09:33:42.999Z</time></trkpt><trkpt lat="43.238474436410094" lon="12.165655428690128"><ele>532.6666666666666</ele><time>2026-03-29T09:33:43.999Z</time></trkpt><trkpt lat="43.23843417203405" lon="12.165393970444097"><ele>533.0</ele><time>2026-03-29T09:33:44.999Z</time></trkpt><trkpt lat="43.23841293461508" lon="12.165191903403889"><ele>533.0</ele><time>2026-03-29T09:33:45.999Z</time></trkpt><trkpt lat="43.23839713303599" lon="12.164984219395281"><ele>533.0</ele><time>2026-03-29T09:33:46.999Z</time></trkpt><trkpt lat="43.23835798560717" lon="12.16480991978468"><ele>533.0</ele><time>2026-03-29T09:33:47.999Z</time></trkpt><trkpt lat="43.2382842464465" lon="12.164648557197715"><ele>533.0</ele><time>2026-03-29T09:33:48.999Z</time></trkpt><trkpt lat="43.23821963463902" lon="12.164457995127979"><ele>532.8</ele><time>2026-03-29T09:33:49.999Z</time></trkpt><trkpt lat="43.238197714548065" lon="12.16425435131891"><ele>532.5999999999999</ele><time>2026-03-29T09:33:50.999Z</time></trkpt><trkpt lat="43.23822494413026" lon="12.164092020248741"><ele>532.4000000000001</ele><time>2026-03-29T09:33:51.999Z</time></trkpt><trkpt lat="43.23828377726677" lon="12.164009313467918"><ele>532.2</ele><time>2026-03-29T09:33:52.999Z</time></trkpt><trkpt lat="43.23828349787764" lon="12.163907967551804"><ele>532.0</ele><time>2026-03-29T09:33:53.999Z</time></trkpt><trkpt lat="43.23827409079148" lon="12.163758156610049"><ele>531.5</ele><time>2026-03-29T09:33:54.999Z</time></trkpt><trkpt lat="43.238239865259025" lon="12.16358698321266"><ele>531.0</ele><time>2026-03-29T09:33:55.999Z</time></trkpt><trkpt lat="43.23819399967482" lon="12.163422671130974"><ele>530.5</ele><time>2026-03-29T09:33:56.999Z</time></trkpt><trkpt lat="43.23813088329761" lon="12.16329134041358"><ele>530.0</ele><time>2026-03-29T09:33:57.999Z</time></trkpt><trkpt lat="43.23804417987993" lon="12.163201697176058"><ele>534.5</ele><time>2026-03-29T09:33:58.999Z</time></trkpt><trkpt lat="43.237938231609085" lon="12.163137513382015"><ele>539.0</ele><time>2026-03-29T09:33:59.999Z</time></trkpt><trkpt lat="43.237786909213" lon="12.16308745894705"><ele>543.5</ele><time>2026-03-29T09:34:00.999Z</time></trkpt><trkpt lat="43.23767797704403" lon="12.163034234689084"><ele>548.0</ele><time>2026-03-29T09:34:01.999Z</time></trkpt><trkpt lat="43.23760497868811" lon="12.162950917312983"><ele>548.0</ele><time>2026-03-29T09:34:02.999Z</time></trkpt><trkpt lat="43.237606121226996" lon="12.162774580446"><ele>548.0</ele><time>2026-03-29T09:34:03.998Z</time></trkpt><trkpt lat="43.237540753504156" lon="12.162644349019292"><ele>548.0</ele><time>2026-03-29T09:34:04.998Z</time></trkpt><trkpt lat="43.2374759042063" lon="12.162520284629178"><ele>548.0</ele><time>2026-03-29T09:34:05.998Z</time></trkpt><trkpt lat="43.237355601502294" lon="12.162407638781536"><ele>552.4</ele><time>2026-03-29T09:34:06.998Z</time></trkpt><trkpt lat="43.23723859086588" lon="12.162334198881913"><ele>556.8</ele><time>2026-03-29T09:34:07.998Z</time></trkpt><trkpt lat="43.237146911882476" lon="12.16231176791301"><ele>561.2</ele><time>2026-03-29T09:34:08.998Z</time></trkpt><trkpt lat="43.23707710295991" lon="12.162326747612132"><ele>565.6</ele><time>2026-03-29T09:34:09.998Z</time></trkpt><trkpt lat="43.23698472663966" lon="12.162205340302677"><ele>570.0</ele><time>2026-03-29T09:34:11.998Z</time></trkpt><trkpt lat="43.23699270328215" lon="12.162058456310154"><ele>570.0</ele><time>2026-03-29T09:34:12.998Z</time></trkpt><trkpt lat="43.23696450944619" lon="12.161905118330598"><ele>570.0</ele><time>2026-03-29T09:34:13.998Z</time></trkpt><trkpt lat="43.23692927455096" lon="12.161775346903273"><ele>570.0</ele><time>2026-03-29T09:34:14.998Z</time></trkpt><trkpt lat="43.23687627495585" lon="12.161686855688576"><ele>570.0</ele><time>2026-03-29T09:34:16Z</time></trkpt><trkpt lat="43.23682771953755" lon="12.161609618269527"><ele>570.0</ele><time>2026-03-29T09:34:17Z</time></trkpt><trkpt lat="43.236721036887744" lon="12.161564071120878"><ele>570.0</ele><time>2026-03-29T09:34:18Z</time></trkpt><trkpt lat="43.23660269399903" lon="12.161537740678074"><ele>570.0</ele><time>2026-03-29T09:34:19Z</time></trkpt><trkpt lat="43.236502957713604" lon="12.161520010871678"><ele>570.0</ele><time>2026-03-29T09:34:20Z</time></trkpt><trkpt lat="43.236435979438816" lon="12.161506179804622"><ele>570.0</ele><time>2026-03-29T09:34:21Z</time></trkpt><trkpt lat="43.23636778192048" lon="12.161386331931231"><ele>570.0</ele><time>2026-03-29T09:34:23Z</time></trkpt><trkpt lat="43.236381463313045" lon="12.161266754533088"><ele>568.75</ele><time>2026-03-29T09:34:24Z</time></trkpt><trkpt lat="43.23643146515752" lon="12.161129370896276"><ele>567.5</ele><time>2026-03-29T09:34:25Z</time></trkpt><trkpt lat="43.23649753890029" lon="12.161004030699997"><ele>566.25</ele><time>2026-03-29T09:34:26Z</time></trkpt><trkpt lat="43.23651889983873" lon="12.160855518278483"><ele>565.0</ele><time>2026-03-29T09:34:27Z</time></trkpt><trkpt lat="43.2365046506086" lon="12.160675383448572"><ele>564.0</ele><time>2026-03-29T09:34:28Z</time></trkpt><trkpt lat="43.236483400218226" lon="12.160453347182864"><ele>563.0</ele><time>2026-03-29T09:34:29Z</time></trkpt><trkpt lat="43.236442406435096" lon="12.160236532932728"><ele>562.0</ele><time>2026-03-29T09:34:30Z</time></trkpt><trkpt lat="43.23641295774883" lon="12.160067876262348"><ele>563.5</ele><time>2026-03-29T09:34:31Z</time></trkpt><trkpt lat="43.23638505049433" lon="12.159947194900647"><ele>565.0</ele><time>2026-03-29T09:34:32Z</time></trkpt><trkpt lat="43.23633833636508" lon="12.159858905826944"><ele>566.5</ele><time>2026-03-29T09:34:33Z</time></trkpt><trkpt lat="43.23625986578472" lon="12.159799351779794"><ele>568.0</ele><time>2026-03-29T09:34:34Z</time></trkpt><trkpt lat="43.23617321454807" lon="12.159757832090285"><ele>569.5</ele><time>2026-03-29T09:34:35Z</time></trkpt><trkpt lat="43.236093684702205" lon="12.159761818960465"><ele>571.0</ele><time>2026-03-29T09:34:36Z</time></trkpt><trkpt lat="43.235993487534735" lon="12.159769075603107"><ele>571.0</ele><time>2026-03-29T09:34:37Z</time></trkpt><trkpt lat="43.235887571180406" lon="12.159852922605738"><ele>571.0</ele><time>2026-03-29T09:34:38Z</time></trkpt><trkpt lat="43.23578422786694" lon="12.159940504638618"><ele>571.0</ele><time>2026-03-29T09:34:39Z</time></trkpt><trkpt lat="43.235682339244924" lon="12.16004993790944"><ele>571.0</ele><time>2026-03-29T09:34:40Z</time></trkpt><trkpt lat="43.235611312717495" lon="12.160162281560066"><ele>575.6</ele><time>2026-03-29T09:34:41Z</time></trkpt><trkpt lat="43.23551543135438" lon="12.16021925053905"><ele>580.2</ele><time>2026-03-29T09:34:42Z</time></trkpt><trkpt lat="43.23542767777588" lon="12.160289976193425"><ele>584.8</ele><time>2026-03-29T09:34:43Z</time></trkpt><trkpt lat="43.23533151199091" lon="12.160257322909002"><ele>589.4</ele><time>2026-03-29T09:34:44Z</time></trkpt><trkpt lat="43.23524080527916" lon="12.160230681568644"><ele>594.0</ele><time>2026-03-29T09:34:45Z</time></trkpt><trkpt lat="43.23513842912068" lon="12.16017475144866"><ele>594.0</ele><time>2026-03-29T09:34:46Z</time></trkpt><trkpt lat="43.23501434334151" lon="12.160132171551284"><ele>594.0</ele><time>2026-03-29T09:34:47Z</time></trkpt><trkpt lat="43.234893983836066" lon="12.160148228275691"><ele>594.0</ele><time>2026-03-29T09:34:48Z</time></trkpt><trkpt lat="43.23478028779318" lon="12.160139582592478"><ele>594.0</ele><time>2026-03-29T09:34:49Z</time></trkpt><trkpt lat="43.23467153959325" lon="12.160134133435891"><ele>596.4</ele><time>2026-03-29T09:34:50Z</time></trkpt><trkpt lat="43.234560480418494" lon="12.160136118974311"><ele>598.8</ele><time>2026-03-29T09:34:51Z</time></trkpt><trkpt lat="43.234444388825565" lon="12.160137483615737"><ele>601.2</ele><time>2026-03-29T09:34:52Z</time></trkpt><trkpt lat="43.23433880116647" lon="12.160120230872334"><ele>603.6</ele><time>2026-03-29T09:34:53Z</time></trkpt><trkpt lat="43.234244081263" lon="12.160075286719723"><ele>606.0</ele><time>2026-03-29T09:34:54Z</time></trkpt><trkpt lat="43.23416642864655" lon="12.159980531212891"><ele>606.0</ele><time>2026-03-29T09:34:55Z</time></trkpt><trkpt lat="43.23408469785909" lon="12.159918310739917"><ele>606.0</ele><time>2026-03-29T09:34:56Z</time></trkpt><trkpt lat="43.23400658394262" lon="12.159842654061977"><ele>606.0</ele><time>2026-03-29T09:34:57Z</time></trkpt><trkpt lat="43.23389217142869" lon="12.159806828852593"><ele>606.0</ele><time>2026-03-29T09:34:58Z</time></trkpt><trkpt lat="43.23375695437898" lon="12.15978108678539"><ele>606.0</ele><time>2026-03-29T09:34:59Z</time></trkpt><trkpt lat="43.23362957444105" lon="12.159766214848506"><ele>606.0</ele><time>2026-03-29T09:35:00Z</time></trkpt><trkpt lat="43.233523063649535" lon="12.15975732926532"><ele>606.0</ele><time>2026-03-29T09:35:01Z</time></trkpt><trkpt lat="43.23340722892371" lon="12.159748854676751"><ele>606.0</ele><time>2026-03-29T09:35:02Z</time></trkpt><trkpt lat="43.233305305698174" lon="12.159734931554917"><ele>606.0</ele><time>2026-03-29T09:35:03Z</time></trkpt><trkpt lat="43.23319550815698" lon="12.159687406818827"><ele>606.0</ele><time>2026-03-29T09:35:04Z</time></trkpt><trkpt lat="43.23309814061838" lon="12.159613339826146"><ele>606.0</ele><time>2026-03-29T09:35:04.999Z</time></trkpt><trkpt lat="43.233011499972264" lon="12.159529609849304"><ele>606.0</ele><time>2026-03-29T09:35:05.999Z</time></trkpt><trkpt lat="43.23292678799539" lon="12.159472545233715"><ele>606.0</ele><time>2026-03-29T09:35:06.999Z</time></trkpt><trkpt lat="43.23284211429831" lon="12.159449309520948"><ele>606.0</ele><time>2026-03-29T09:35:07.999Z</time></trkpt><trkpt lat="43.23275330773184" lon="12.159466838080053"><ele>606.0</ele><time>2026-03-29T09:35:08.999Z</time></trkpt><trkpt lat="43.23265777452605" lon="12.159523474327168"><ele>606.0</ele><time>2026-03-29T09:35:09.999Z</time></trkpt><trkpt lat="43.232557477509914" lon="12.159591042525177"><ele>606.0</ele><time>2026-03-29T09:35:10.999Z</time></trkpt><trkpt lat="43.23245053064062" lon="12.159623529192341"><ele>606.0</ele><time>2026-03-29T09:35:11.999Z</time></trkpt><trkpt lat="43.232328058293874" lon="12.159577677420844"><ele>606.0</ele><time>2026-03-29T09:35:12.999Z</time></trkpt><trkpt lat="43.232190621083" lon="12.15953869951664"><ele>611.0</ele><time>2026-03-29T09:35:13.999Z</time></trkpt><trkpt lat="43.232040637280726" lon="12.159440361690477"><ele>616.0</ele><time>2026-03-29T09:35:14.999Z</time></trkpt><trkpt lat="43.23187270466723" lon="12.159349554005185"><ele>621.0</ele><time>2026-03-29T09:35:15.999Z</time></trkpt><trkpt lat="43.23170277935236" lon="12.159294052657241"><ele>621.0</ele><time>2026-03-29T09:35:16.999Z</time></trkpt><trkpt lat="43.23156102045427" lon="12.159245382709388"><ele>621.0</ele><time>2026-03-29T09:35:17.999Z</time></trkpt><trkpt lat="43.23145684300003" lon="12.159174013227686"><ele>621.0</ele><time>2026-03-29T09:35:18.999Z</time></trkpt><trkpt lat="43.231353661462016" lon="12.159116097847953"><ele>621.0</ele><time>2026-03-29T09:35:19.999Z</time></trkpt><trkpt lat="43.231216927834424" lon="12.1590920400419"><ele>626.3333333333334</ele><time>2026-03-29T09:35:20.999Z</time></trkpt><trkpt lat="43.23105144914599" lon="12.159084556922428"><ele>631.6666666666667</ele><time>2026-03-29T09:35:21.999Z</time></trkpt><trkpt lat="43.23088122793246" lon="12.159081877558997"><ele>637.0</ele><time>2026-03-29T09:35:22.999Z</time></trkpt><trkpt lat="43.230720788159346" lon="12.159089332151135"><ele>638.6666666666667</ele><time>2026-03-29T09:35:23.999Z</time></trkpt><trkpt lat="43.230564789549916" lon="12.159099157345468"><ele>640.3333333333334</ele><time>2026-03-29T09:35:24.999Z</time></trkpt><trkpt lat="43.23040563169041" lon="12.159097240794743"><ele>642.0</ele><time>2026-03-29T09:35:25.999Z</time></trkpt><trkpt lat="43.23023768786207" lon="12.15907305036021"><ele>642.0</ele><time>2026-03-29T09:35:26.999Z</time></trkpt><trkpt lat="43.2300681373483" lon="12.159068116904802"><ele>642.0</ele><time>2026-03-29T09:35:27.999Z</time></trkpt><trkpt lat="43.22993106879137" lon="12.15906904447329"><ele>642.0</ele><time>2026-03-29T09:35:28.999Z</time></trkpt><trkpt lat="43.2298402268974" lon="12.15905919242583"><ele>642.0</ele><time>2026-03-29T09:35:29.999Z</time></trkpt><trkpt lat="43.229771262109914" lon="12.159021506745121"><ele>640.4</ele><time>2026-03-29T09:35:30.999Z</time></trkpt><trkpt lat="43.229690665281005" lon="12.15893710675013"><ele>638.8000000000001</ele><time>2026-03-29T09:35:31.999Z</time></trkpt><trkpt lat="43.22961465764824" lon="12.158846554122462"><ele>637.2</ele><time>2026-03-29T09:35:32.999Z</time></trkpt><trkpt lat="43.22953589290538" lon="12.158799993166854"><ele>635.6</ele><time>2026-03-29T09:35:34.999Z</time></trkpt><trkpt lat="43.229610195780516" lon="12.158688697701573"><ele>634.0</ele><time>2026-03-29T09:35:48.999Z</time></trkpt><trkpt lat="43.22970576520158" lon="12.158584330898075"><ele>634.0</ele><time>2026-03-29T09:35:50.999Z</time></trkpt><trkpt lat="43.22976090381812" lon="12.158496979331687"><ele>634.0</ele><time>2026-03-29T09:35:51.999Z</time></trkpt><trkpt lat="43.2298101446716" lon="12.158393174715735"><ele>634.0</ele><time>2026-03-29T09:35:52.999Z</time></trkpt><trkpt lat="43.229852853305445" lon="12.15826974366304"><ele>634.0</ele><time>2026-03-29T09:35:53.999Z</time></trkpt><trkpt lat="43.22989062918" lon="12.158142729569413"><ele>634.0</ele><time>2026-03-29T09:35:54.999Z</time></trkpt><trkpt lat="43.22991759749986" lon="12.158035853762655"><ele>635.8333333333334</ele><time>2026-03-29T09:35:55.999Z</time></trkpt><trkpt lat="43.22994082499018" lon="12.157899107106308"><ele>637.6666666666667</ele><time>2026-03-29T09:35:57.999Z</time></trkpt><trkpt lat="43.22991136925619" lon="12.15780758194898"><ele>639.5</ele><time>2026-03-29T09:36:01.999Z</time></trkpt><trkpt lat="43.22995581984768" lon="12.15770143151245"><ele>641.3333333333334</ele><time>2026-03-29T09:36:33Z</time></trkpt><trkpt lat="43.22998139369758" lon="12.157567468061162"><ele>643.1666666666666</ele><time>2026-03-29T09:36:35Z</time></trkpt><trkpt lat="43.22997782894281" lon="12.15745987898857"><ele>645.0</ele><time>2026-03-29T09:36:36Z</time></trkpt><trkpt lat="43.22998843920742" lon="12.15734859484139"><ele>647.4</ele><time>2026-03-29T09:36:37Z</time></trkpt><trkpt lat="43.22999728587735" lon="12.157256219257691"><ele>649.8</ele><time>2026-03-29T09:36:38Z</time></trkpt><trkpt lat="43.229993070287755" lon="12.157135893322156"><ele>652.2</ele><time>2026-03-29T09:36:39Z</time></trkpt><trkpt lat="43.22982749871534" lon="12.157063207182437"><ele>654.6</ele><time>2026-03-29T09:36:40Z</time></trkpt><trkpt lat="43.229821600746284" lon="12.156960150252846"><ele>657.0</ele><time>2026-03-29T09:36:41Z</time></trkpt><trkpt lat="43.22982845608265" lon="12.156851779159414"><ele>657.0</ele><time>2026-03-29T09:36:42Z</time></trkpt><trkpt lat="43.229846225648316" lon="12.1567449694372"><ele>657.0</ele><time>2026-03-29T09:36:43Z</time></trkpt><trkpt lat="43.229898104991356" lon="12.15663418126611"><ele>657.0</ele><time>2026-03-29T09:36:44Z</time></trkpt><trkpt lat="43.229941152317885" lon="12.156507284152521"><ele>657.0</ele><time>2026-03-29T09:36:46Z</time></trkpt><trkpt lat="43.230054353588834" lon="12.156400661501886"><ele>657.0</ele><time>2026-03-29T09:36:48Z</time></trkpt><trkpt lat="43.23002608757732" lon="12.156198964618577"><ele>656.8333333333334</ele><time>2026-03-29T09:36:50Z</time></trkpt><trkpt lat="43.230049879442575" lon="12.156113123064166"><ele>656.6666666666666</ele><time>2026-03-29T09:36:51Z</time></trkpt><trkpt lat="43.230079400508615" lon="12.156006610472007"><ele>656.5</ele><time>2026-03-29T09:36:52Z</time></trkpt><trkpt lat="43.23010506719039" lon="12.155914725129568"><ele>656.3333333333333</ele><time>2026-03-29T09:36:53Z</time></trkpt><trkpt lat="43.23013553600106" lon="12.15580662845603"><ele>656.1666666666666</ele><time>2026-03-29T09:36:54Z</time></trkpt><trkpt lat="43.23016940446008" lon="12.155692228656644"><ele>656.0</ele><time>2026-03-29T09:36:55Z</time></trkpt><trkpt lat="43.230206717272985" lon="12.155571833646784"><ele>655.1999999999999</ele><time>2026-03-29T09:36:56Z</time></trkpt><trkpt lat="43.23024556738438" lon="12.155448240540762"><ele>654.4</ele><time>2026-03-29T09:36:57Z</time></trkpt><trkpt lat="43.230283869698745" lon="12.155314231371525"><ele>653.6</ele><time>2026-03-29T09:36:58Z</time></trkpt><trkpt lat="43.230312368724405" lon="12.155202608301966"><ele>652.8</ele><time>2026-03-29T09:36:59Z</time></trkpt><trkpt lat="43.2303522902558" lon="12.155103255139572"><ele>652.0</ele><time>2026-03-29T09:37:00Z</time></trkpt><trkpt lat="43.23037973057938" lon="12.154959943793537"><ele>653.4000000000001</ele><time>2026-03-29T09:37:02Z</time></trkpt><trkpt lat="43.230395251211036" lon="12.154813868647192"><ele>654.8000000000001</ele><time>2026-03-29T09:37:04Z</time></trkpt><trkpt lat="43.23044502276931" lon="12.154681923282547"><ele>656.2</ele><time>2026-03-29T09:37:05Z</time></trkpt><trkpt lat="43.230497685349114" lon="12.154592558030656"><ele>657.6</ele><time>2026-03-29T09:37:06Z</time></trkpt><trkpt lat="43.23057693095088" lon="12.154497952373758"><ele>659.0</ele><time>2026-03-29T09:37:08Z</time></trkpt><trkpt lat="43.23097394406731" lon="12.154841567554364"><ele>658.5</ele><time>2026-03-29T09:37:09.999Z</time></trkpt><trkpt lat="43.23105779631938" lon="12.154860019548117"><ele>658.0</ele><time>2026-03-29T09:37:10.999Z</time></trkpt><trkpt lat="43.23114713610759" lon="12.154881553252274"><ele>657.5</ele><time>2026-03-29T09:37:11.999Z</time></trkpt><trkpt lat="43.23124304385763" lon="12.154899041828928"><ele>657.0</ele><time>2026-03-29T09:37:12.999Z</time></trkpt><trkpt lat="43.23132016107005" lon="12.154905811589435"><ele>656.5</ele><time>2026-03-29T09:37:13.999Z</time></trkpt><trkpt lat="43.23138597530696" lon="12.154894223639543"><ele>656.0</ele><time>2026-03-29T09:37:14.999Z</time></trkpt><trkpt lat="43.23148885970039" lon="12.154839723805809"><ele>656.0</ele><time>2026-03-29T09:37:16.999Z</time></trkpt><trkpt lat="43.23155559136966" lon="12.154717821950314"><ele>656.0</ele><time>2026-03-29T09:37:18.999Z</time></trkpt><trkpt lat="43.23158640010144" lon="12.154618437152351"><ele>656.0</ele><time>2026-03-29T09:37:19.999Z</time></trkpt><trkpt lat="43.23161628030474" lon="12.154515900803396"><ele>656.0</ele><time>2026-03-29T09:37:20.999Z</time></trkpt><trkpt lat="43.23164821580453" lon="12.154405587457374"><ele>656.0</ele><time>2026-03-29T09:37:22.999Z</time></trkpt><trkpt lat="43.23173682876439" lon="12.154390467357878"><ele>656.0</ele><time>2026-03-29T09:37:24.999Z</time></trkpt><trkpt lat="43.231807215186905" lon="12.154357919012947"><ele>656.0</ele><time>2026-03-29T09:37:26.999Z</time></trkpt><trkpt lat="43.231805424219885" lon="12.154258380231791"><ele>656.0</ele><time>2026-03-29T09:37:28.999Z</time></trkpt><trkpt lat="43.23172904900669" lon="12.154129104362239"><ele>656.0</ele><time>2026-03-29T09:37:30.999Z</time></trkpt><trkpt lat="43.23167572028376" lon="12.15400290277085"><ele>656.0</ele><time>2026-03-29T09:37:32.999Z</time></trkpt><trkpt lat="43.231700494696035" lon="12.153893387768836"><ele>656.0</ele><time>2026-03-29T09:37:35.999Z</time></trkpt><trkpt lat="43.23175425385932" lon="12.153723570996146"><ele>655.5999999999999</ele><time>2026-03-29T09:37:36.999Z</time></trkpt><trkpt lat="43.2317502094951" lon="12.153596016637383"><ele>655.2</ele><time>2026-03-29T09:37:38.999Z</time></trkpt><trkpt lat="43.231678268691645" lon="12.153429158172486"><ele>654.8</ele><time>2026-03-29T09:37:40.999Z</time></trkpt><trkpt lat="43.23162016732342" lon="12.153289907898886"><ele>654.4000000000001</ele><time>2026-03-29T09:37:42.999Z</time></trkpt><trkpt lat="43.23159971599446" lon="12.153178136536223"><ele>654.0</ele><time>2026-03-29T09:37:44.999Z</time></trkpt><trkpt lat="43.23158517825504" lon="12.153060068019865"><ele>654.0</ele><time>2026-03-29T09:37:46.999Z</time></trkpt><trkpt lat="43.23161769981178" lon="12.152971431545334"><ele>654.0</ele><time>2026-03-29T09:37:48.999Z</time></trkpt><trkpt lat="43.231683670356354" lon="12.152912525808013"><ele>654.0</ele><time>2026-03-29T09:37:50.999Z</time></trkpt><trkpt lat="43.23173962671022" lon="12.152864570005907"><ele>654.0</ele><time>2026-03-29T09:37:51.999Z</time></trkpt><trkpt lat="43.231772588275376" lon="12.15275348339782"><ele>654.0</ele><time>2026-03-29T09:37:53.999Z</time></trkpt><trkpt lat="43.2317650616084" lon="12.152657348880444"><ele>654.0</ele><time>2026-03-29T09:37:55.999Z</time></trkpt><trkpt lat="43.23184831338705" lon="12.15262756215996"><ele>654.0</ele><time>2026-03-29T09:37:57.999Z</time></trkpt><trkpt lat="43.231930828597825" lon="12.152627919723269"><ele>654.0</ele><time>2026-03-29T09:37:58.999Z</time></trkpt><trkpt lat="43.23200389883762" lon="12.152643329962387"><ele>654.0</ele><time>2026-03-29T09:37:59.999Z</time></trkpt><trkpt lat="43.23206045823191" lon="12.152603544027198"><ele>654.0</ele><time>2026-03-29T09:38:00.999Z</time></trkpt><trkpt lat="43.232125546303315" lon="12.15251019154074"><ele>654.0</ele><time>2026-03-29T09:38:01.999Z</time></trkpt><trkpt lat="43.23218923795344" lon="12.152448755945711"><ele>654.0</ele><time>2026-03-29T09:38:02.999Z</time></trkpt><trkpt lat="43.232259512609424" lon="12.152379989563695"><ele>651.6666666666666</ele><time>2026-03-29T09:38:03.999Z</time></trkpt><trkpt lat="43.23231925406291" lon="12.15230638892545"><ele>649.3333333333334</ele><time>2026-03-29T09:38:04.999Z</time></trkpt><trkpt lat="43.2323733392115" lon="12.152257467162539"><ele>647.0</ele><time>2026-03-29T09:38:05.999Z</time></trkpt><trkpt lat="43.232424708093085" lon="12.152201756412202"><ele>644.6666666666667</ele><time>2026-03-29T09:38:06.999Z</time></trkpt><trkpt lat="43.23247603097832" lon="12.152117559737977"><ele>642.3333333333334</ele><time>2026-03-29T09:38:08.999Z</time></trkpt><trkpt lat="43.23252189359801" lon="12.15198308717655"><ele>640.0</ele><time>2026-03-29T09:38:10.999Z</time></trkpt><trkpt lat="43.232539007169166" lon="12.151861186652193"><ele>640.0</ele><time>2026-03-29T09:38:12.998Z</time></trkpt><trkpt lat="43.23252179490764" lon="12.15170143825691"><ele>640.0</ele><time>2026-03-29T09:38:14.998Z</time></trkpt><trkpt lat="43.23249956289099" lon="12.15153470909704"><ele>640.0</ele><time>2026-03-29T09:38:16.998Z</time></trkpt><trkpt lat="43.23243955266666" lon="12.151388599083159"><ele>640.0</ele><time>2026-03-29T09:38:18.998Z</time></trkpt><trkpt lat="43.2324016953926" lon="12.151301919273147"><ele>640.0</ele><time>2026-03-29T09:38:20.998Z</time></trkpt><trkpt lat="43.23239328164893" lon="12.151195143682862"><ele>641.2</ele><time>2026-03-29T09:38:22.998Z</time></trkpt><trkpt lat="43.23249978087452" lon="12.151155366363383"><ele>642.4</ele><time>2026-03-29T09:38:25.998Z</time></trkpt><trkpt lat="43.23255894963251" lon="12.151113952055036"><ele>643.5999999999999</ele><time>2026-03-29T09:38:26.998Z</time></trkpt><trkpt lat="43.23265044918866" lon="12.150950354592556"><ele>644.8</ele><time>2026-03-29T09:38:29Z</time></trkpt><trkpt lat="43.23272993921132" lon="12.150871872370454"><ele>646.0</ele><time>2026-03-29T09:38:31Z</time></trkpt><trkpt lat="43.23282390031152" lon="12.150771566000781"><ele>646.0</ele><time>2026-03-29T09:38:33Z</time></trkpt><trkpt lat="43.23292110888225" lon="12.15074763131811"><ele>646.0</ele><time>2026-03-29T09:38:35Z</time></trkpt><trkpt lat="43.23301879105503" lon="12.150750889314816"><ele>646.0</ele><time>2026-03-29T09:38:37Z</time></trkpt><trkpt lat="43.233086611102834" lon="12.15068545041204"><ele>646.0</ele><time>2026-03-29T09:38:39Z</time></trkpt><trkpt lat="43.23311728077425" lon="12.150602875356986"><ele>646.0</ele><time>2026-03-29T09:38:40Z</time></trkpt><trkpt lat="43.23315620177271" lon="12.150464480325905"><ele>642.8333333333334</ele><time>2026-03-29T09:38:42Z</time></trkpt><trkpt lat="43.233200456244425" lon="12.150382090998482"><ele>639.6666666666667</ele><time>2026-03-29T09:38:43Z</time></trkpt><trkpt lat="43.233265218181806" lon="12.150306683540624"><ele>636.5</ele><time>2026-03-29T09:38:44Z</time></trkpt><trkpt lat="43.23333255263014" lon="12.150239515046126"><ele>633.3333333333334</ele><time>2026-03-29T09:38:45Z</time></trkpt><trkpt lat="43.233403875912536" lon="12.150191252801791"><ele>630.1666666666666</ele><time>2026-03-29T09:38:46Z</time></trkpt><trkpt lat="43.233475754399926" lon="12.150145250407117"><ele>627.0</ele><time>2026-03-29T09:38:47Z</time></trkpt><trkpt lat="43.233566002322675" lon="12.150035415299575"><ele>627.0</ele><time>2026-03-29T09:38:49Z</time></trkpt><trkpt lat="43.233614817679964" lon="12.149960323840725"><ele>627.0</ele><time>2026-03-29T09:38:50Z</time></trkpt><trkpt lat="43.23365494840298" lon="12.149881847182098"><ele>627.0</ele><time>2026-03-29T09:38:51Z</time></trkpt><trkpt lat="43.23370131495365" lon="12.149796104317293"><ele>627.0</ele><time>2026-03-29T09:38:52Z</time></trkpt><trkpt lat="43.233731489739014" lon="12.149654937242193"><ele>627.0</ele><time>2026-03-29T09:38:54Z</time></trkpt><trkpt lat="43.23381980537191" lon="12.14957673783622"><ele>627.0</ele><time>2026-03-29T09:38:56Z</time></trkpt><trkpt lat="43.23389060386999" lon="12.149508939779459"><ele>626.3333333333334</ele><time>2026-03-29T09:38:57Z</time></trkpt><trkpt lat="43.23396257844518" lon="12.149454178207385"><ele>625.6666666666666</ele><time>2026-03-29T09:38:58Z</time></trkpt><trkpt lat="43.23402280992327" lon="12.149408786429916"><ele>625.0</ele><time>2026-03-29T09:38:59Z</time></trkpt><trkpt lat="43.23410265402797" lon="12.14935586979399"><ele>624.3333333333333</ele><time>2026-03-29T09:39:00Z</time></trkpt><trkpt lat="43.234178446476406" lon="12.149311156707462"><ele>623.6666666666666</ele><time>2026-03-29T09:39:01Z</time></trkpt><trkpt lat="43.23429090974055" lon="12.149249147853544"><ele>623.0</ele><time>2026-03-29T09:39:03Z</time></trkpt><trkpt lat="43.23435270356935" lon="12.149226322144717"><ele>618.6666666666666</ele><time>2026-03-29T09:39:04Z</time></trkpt><trkpt lat="43.23441808071932" lon="12.149205569847494"><ele>614.3333333333334</ele><time>2026-03-29T09:39:05Z</time></trkpt><trkpt lat="43.234517761709824" lon="12.149185084490828"><ele>610.0</ele><time>2026-03-29T09:39:07Z</time></trkpt><trkpt lat="43.23478417080086" lon="12.149699296474887"><ele>609.0</ele><time>2026-03-29T09:39:10Z</time></trkpt><trkpt lat="43.23487990338163" lon="12.149706444828622"><ele>608.0</ele><time>2026-03-29T09:39:12Z</time></trkpt><trkpt lat="43.23498204861974" lon="12.149763227324875"><ele>607.0</ele><time>2026-03-29T09:39:14Z</time></trkpt><trkpt lat="43.23507610947857" lon="12.149880690528887"><ele>606.0</ele><time>2026-03-29T09:39:15.999Z</time></trkpt><trkpt lat="43.23518222793438" lon="12.149954894721294"><ele>606.0</ele><time>2026-03-29T09:39:17.999Z</time></trkpt><trkpt lat="43.23528956576571" lon="12.149994014449527"><ele>606.0</ele><time>2026-03-29T09:39:19.999Z</time></trkpt><trkpt lat="43.23537795478871" lon="12.150050015975943"><ele>606.0</ele><time>2026-03-29T09:39:22.999Z</time></trkpt><trkpt lat="43.23545815351" lon="12.150171856772465"><ele>606.0</ele><time>2026-03-29T09:39:24.999Z</time></trkpt><trkpt lat="43.23552334366348" lon="12.150281084851166"><ele>606.0</ele><time>2026-03-29T09:39:26.999Z</time></trkpt><trkpt lat="43.23560442420825" lon="12.1503416156838"><ele>601.2</ele><time>2026-03-29T09:39:28.999Z</time></trkpt><trkpt lat="43.2357242472458" lon="12.150349541158942"><ele>596.4000000000001</ele><time>2026-03-29T09:39:30.999Z</time></trkpt><trkpt lat="43.235834144127935" lon="12.150385592866822"><ele>591.6</ele><time>2026-03-29T09:39:32.999Z</time></trkpt><trkpt lat="43.235920797210575" lon="12.150454921290104"><ele>586.8000000000001</ele><time>2026-03-29T09:39:34.999Z</time></trkpt><trkpt lat="43.23600269733033" lon="12.150494910174091"><ele>582.0</ele><time>2026-03-29T09:39:36.999Z</time></trkpt><trkpt lat="43.23609106826381" lon="12.15048520632559"><ele>582.0</ele><time>2026-03-29T09:39:38.999Z</time></trkpt><trkpt lat="43.2361564904259" lon="12.15039878824168"><ele>582.0</ele><time>2026-03-29T09:39:40.999Z</time></trkpt><trkpt lat="43.23623404099749" lon="12.150389158262634"><ele>582.0</ele><time>2026-03-29T09:39:42.999Z</time></trkpt><trkpt lat="43.23629931077941" lon="12.150410905434864"><ele>582.0</ele><time>2026-03-29T09:39:43.999Z</time></trkpt><trkpt lat="43.23637164820449" lon="12.150409792121385"><ele>582.0</ele><time>2026-03-29T09:39:44.999Z</time></trkpt><trkpt lat="43.236443619147266" lon="12.150400688441486"><ele>582.0</ele><time>2026-03-29T09:39:45.999Z</time></trkpt><trkpt lat="43.23650505359875" lon="12.150425413816526"><ele>582.0</ele><time>2026-03-29T09:39:46.999Z</time></trkpt><trkpt lat="43.23656667864395" lon="12.150448203640154"><ele>577.2</ele><time>2026-03-29T09:39:47.999Z</time></trkpt><trkpt lat="43.236670161060516" lon="12.150501634594974"><ele>572.4000000000001</ele><time>2026-03-29T09:39:49.999Z</time></trkpt><trkpt lat="43.23675342650183" lon="12.150546793313378"><ele>567.5999999999999</ele><time>2026-03-29T09:39:51.999Z</time></trkpt><trkpt lat="43.23686476267421" lon="12.150560909181488"><ele>562.8</ele><time>2026-03-29T09:39:53.999Z</time></trkpt><trkpt lat="43.236953526744664" lon="12.15055099371855"><ele>558.0</ele><time>2026-03-29T09:39:55.999Z</time></trkpt><trkpt lat="43.237039801722645" lon="12.150489418492946"><ele>558.0</ele><time>2026-03-29T09:39:57.999Z</time></trkpt><trkpt lat="43.23711882723342" lon="12.15043304698356"><ele>558.0</ele><time>2026-03-29T09:39:59.999Z</time></trkpt><trkpt lat="43.23719661059377" lon="12.150407869023914"><ele>558.0</ele><time>2026-03-29T09:40:01.999Z</time></trkpt><trkpt lat="43.237302584994" lon="12.150413414948517"><ele>558.0</ele><time>2026-03-29T09:40:03.999Z</time></trkpt><trkpt lat="43.23739371433783" lon="12.150428525325209"><ele>558.0</ele><time>2026-03-29T09:40:07.999Z</time></trkpt><trkpt lat="43.237583406376835" lon="12.150352803731415"><ele>553.0</ele><time>2026-03-29T09:40:09.999Z</time></trkpt><trkpt lat="43.237647801354846" lon="12.150354443908391"><ele>548.0</ele><time>2026-03-29T09:40:11.999Z</time></trkpt><trkpt lat="43.23775086815921" lon="12.150396797245051"><ele>543.0</ele><time>2026-03-29T09:40:13.999Z</time></trkpt><trkpt lat="43.23783378643734" lon="12.150455615974831"><ele>538.0</ele><time>2026-03-29T09:40:15.999Z</time></trkpt><trkpt lat="43.237949286920404" lon="12.150449604329545"><ele>533.0</ele><time>2026-03-29T09:40:17.999Z</time></trkpt><trkpt lat="43.238061476226484" lon="12.150454550915725"><ele>529.6</ele><time>2026-03-29T09:40:19.998Z</time></trkpt><trkpt lat="43.23817608322837" lon="12.150457519354372"><ele>526.1999999999999</ele><time>2026-03-29T09:40:21.998Z</time></trkpt><trkpt lat="43.23825635776099" lon="12.15042693966825"><ele>522.8</ele><time>2026-03-29T09:40:23.998Z</time></trkpt><trkpt lat="43.23836435584616" lon="12.150395607862823"><ele>519.4</ele><time>2026-03-29T09:40:26.998Z</time></trkpt><trkpt lat="43.238427756266866" lon="12.150384051462849"><ele>516.0</ele><time>2026-03-29T09:40:27.998Z</time></trkpt><trkpt lat="43.23853006442104" lon="12.150342857854298"><ele>516.0</ele><time>2026-03-29T09:40:29.998Z</time></trkpt><trkpt lat="43.23860123043947" lon="12.150360926711151"><ele>516.0</ele><time>2026-03-29T09:40:31.998Z</time></trkpt><trkpt lat="43.23868608009734" lon="12.150341949891448"><ele>516.0</ele><time>2026-03-29T09:40:34Z</time></trkpt><trkpt lat="43.238790710924704" lon="12.150319521515486"><ele>516.0</ele><time>2026-03-29T09:40:36Z</time></trkpt><trkpt lat="43.23887937270195" lon="12.150281824097034"><ele>516.0</ele><time>2026-03-29T09:40:38Z</time></trkpt><trkpt lat="43.23894314120208" lon="12.150183664296984"><ele>514.1666666666666</ele><time>2026-03-29T09:40:40Z</time></trkpt><trkpt lat="43.23901635324314" lon="12.150113515241928"><ele>512.3333333333334</ele><time>2026-03-29T09:40:42Z</time></trkpt><trkpt lat="43.23907461966381" lon="12.150039297378315"><ele>510.5</ele><time>2026-03-29T09:40:44Z</time></trkpt><trkpt lat="43.23914872208084" lon="12.149967609455198"><ele>508.6666666666667</ele><time>2026-03-29T09:40:46Z</time></trkpt><trkpt lat="43.23915367975394" lon="12.149867880197682"><ele>506.83333333333337</ele><time>2026-03-29T09:40:49Z</time></trkpt><trkpt lat="43.23921958938115" lon="12.149820647289149"><ele>505.0</ele><time>2026-03-29T09:40:51Z</time></trkpt><trkpt lat="43.23929442256356" lon="12.149834175537265"><ele>502.6</ele><time>2026-03-29T09:40:53Z</time></trkpt><trkpt lat="43.239385007540655" lon="12.149796435070021"><ele>500.2</ele><time>2026-03-29T09:40:55Z</time></trkpt><trkpt lat="43.23948275402438" lon="12.14973582822759"><ele>497.79999999999995</ele><time>2026-03-29T09:40:57Z</time></trkpt><trkpt lat="43.23958819755575" lon="12.149654829458887"><ele>495.4</ele><time>2026-03-29T09:40:59Z</time></trkpt><trkpt lat="43.2396834875372" lon="12.149564170478865"><ele>493.0</ele><time>2026-03-29T09:41:01Z</time></trkpt><trkpt lat="43.23976375458101" lon="12.149452351814091"><ele>491.59999999999997</ele><time>2026-03-29T09:41:03Z</time></trkpt><trkpt lat="43.239816078425775" lon="12.149342825804117"><ele>490.19999999999993</ele><time>2026-03-29T09:41:05Z</time></trkpt><trkpt lat="43.23988151066274" lon="12.149231306528982"><ele>488.8</ele><time>2026-03-29T09:41:07Z</time></trkpt><trkpt lat="43.23995722662154" lon="12.149116521400474"><ele>487.4</ele><time>2026-03-29T09:41:09Z</time></trkpt><trkpt lat="43.240035453431204" lon="12.149002331147807"><ele>486.0</ele><time>2026-03-29T09:41:11Z</time></trkpt><trkpt lat="43.240125279401276" lon="12.14890274190425"><ele>484.4</ele><time>2026-03-29T09:41:13Z</time></trkpt><trkpt lat="43.24015635572594" lon="12.1487878932031"><ele>482.8</ele><time>2026-03-29T09:41:15Z</time></trkpt><trkpt lat="43.240093521118986" lon="12.148712950339164"><ele>481.19999999999993</ele><time>2026-03-29T09:41:17Z</time></trkpt><trkpt lat="43.23999680398811" lon="12.148687546880026"><ele>479.59999999999997</ele><time>2026-03-29T09:41:19Z</time></trkpt><trkpt lat="43.23988191489441" lon="12.148702863573163"><ele>478.0</ele><time>2026-03-29T09:41:21Z</time></trkpt><trkpt lat="43.23976356695391" lon="12.148723034386057"><ele>478.0</ele><time>2026-03-29T09:41:22.999Z</time></trkpt><trkpt lat="43.239644222411535" lon="12.148714648414657"><ele>477.99999999999994</ele><time>2026-03-29T09:41:24.999Z</time></trkpt><trkpt lat="43.23953067107807" lon="12.14869745772258"><ele>477.99999999999994</ele><time>2026-03-29T09:41:26.999Z</time></trkpt><trkpt lat="43.23946225862742" lon="12.148621864650025"><ele>478.0</ele><time>2026-03-29T09:41:28.999Z</time></trkpt><trkpt lat="43.23943950977617" lon="12.14849236795417"><ele>478.0</ele><time>2026-03-29T09:41:30.999Z</time></trkpt><trkpt lat="43.239448162068335" lon="12.14834267724478"><ele>475.4</ele><time>2026-03-29T09:41:32.999Z</time></trkpt><trkpt lat="43.239442198221546" lon="12.148186779046625"><ele>472.79999999999995</ele><time>2026-03-29T09:41:34.999Z</time></trkpt><trkpt lat="43.23941075263885" lon="12.14805777560423"><ele>470.2</ele><time>2026-03-29T09:41:36.999Z</time></trkpt><trkpt lat="43.239386238345666" lon="12.147957646448527"><ele>467.6</ele><time>2026-03-29T09:41:40.999Z</time></trkpt><trkpt lat="43.23938945454614" lon="12.147795753221697"><ele>465.0</ele><time>2026-03-29T09:41:41.999Z</time></trkpt><trkpt lat="43.2393780579601" lon="12.147662309125812"><ele>465.0</ele><time>2026-03-29T09:41:43.999Z</time></trkpt><trkpt lat="43.23932504728249" lon="12.147614668841674"><ele>465.0</ele><time>2026-03-29T09:41:44.999Z</time></trkpt><trkpt lat="43.23922102757304" lon="12.14759145116574"><ele>465.0</ele><time>2026-03-29T09:41:46.999Z</time></trkpt><trkpt lat="43.23915472940416" lon="12.147499269057459"><ele>465.0</ele><time>2026-03-29T09:41:48.999Z</time></trkpt><trkpt lat="43.23907952771315" lon="12.147389408490032"><ele>465.0</ele><time>2026-03-29T09:41:50.999Z</time></trkpt><trkpt lat="43.239065890302314" lon="12.147249176383497"><ele>465.6666666666667</ele><time>2026-03-29T09:41:52.999Z</time></trkpt><trkpt lat="43.23901728309797" lon="12.147125522633099"><ele>466.33333333333337</ele><time>2026-03-29T09:41:54.999Z</time></trkpt><trkpt lat="43.23900059322519" lon="12.147034251332022"><ele>467.0</ele><time>2026-03-29T09:41:56.999Z</time></trkpt><trkpt lat="43.23899628111029" lon="12.146934829893846"><ele>467.6666666666667</ele><time>2026-03-29T09:41:58.999Z</time></trkpt><trkpt lat="43.23895374113341" lon="12.146839083664005"><ele>468.33333333333337</ele><time>2026-03-29T09:42:00.999Z</time></trkpt><trkpt lat="43.238882365372284" lon="12.14672070314742"><ele>469.0</ele><time>2026-03-29T09:42:02.999Z</time></trkpt><trkpt lat="43.238844823459566" lon="12.146594931922353"><ele>467.0</ele><time>2026-03-29T09:42:04.999Z</time></trkpt><trkpt lat="43.238772641094265" lon="12.146485899851385"><ele>465.0</ele><time>2026-03-29T09:42:06.999Z</time></trkpt><trkpt lat="43.23874999740295" lon="12.14635921186709"><ele>463.0</ele><time>2026-03-29T09:42:09.999Z</time></trkpt><trkpt lat="43.238731927156664" lon="12.146257710561798"><ele>461.0</ele><time>2026-03-29T09:42:11.999Z</time></trkpt><trkpt lat="43.23869145027702" lon="12.146124923509577"><ele>459.0</ele><time>2026-03-29T09:42:13.999Z</time></trkpt><trkpt lat="43.23865273362914" lon="12.146014502244906"><ele>459.0</ele><time>2026-03-29T09:42:15.999Z</time></trkpt><trkpt lat="43.238623896939" lon="12.145930405920415"><ele>459.0</ele><time>2026-03-29T09:42:17.999Z</time></trkpt><trkpt lat="43.23858270907923" lon="12.145825951944296"><ele>459.0</ele><time>2026-03-29T09:42:20.999Z</time></trkpt><trkpt lat="43.23849981807607" lon="12.14568338953167"><ele>459.0</ele><time>2026-03-29T09:42:23.999Z</time></trkpt><trkpt lat="43.238323886039126" lon="12.145355676349622"><ele>457.2</ele><time>2026-03-29T09:42:25.998Z</time></trkpt><trkpt lat="43.23826193502594" lon="12.145211346605521"><ele>455.4</ele><time>2026-03-29T09:42:27.998Z</time></trkpt><trkpt lat="43.23823052979984" lon="12.145129242215864"><ele>453.6</ele><time>2026-03-29T09:42:29.998Z</time></trkpt><trkpt lat="43.238223306152065" lon="12.144993486602072"><ele>451.8</ele><time>2026-03-29T09:42:31.998Z</time></trkpt><trkpt lat="43.23826139139369" lon="12.14487557329942"><ele>450.0</ele><time>2026-03-29T09:42:33.998Z</time></trkpt><trkpt lat="43.238317716206986" lon="12.144773123666782"><ele>449.8333333333333</ele><time>2026-03-29T09:42:35.998Z</time></trkpt><trkpt lat="43.23835730830976" lon="12.144628973116482"><ele>449.66666666666663</ele><time>2026-03-29T09:42:37.998Z</time></trkpt><trkpt lat="43.238378009956946" lon="12.144523183894183"><ele>449.5</ele><time>2026-03-29T09:42:40Z</time></trkpt><trkpt lat="43.23841378948694" lon="12.14441856574996"><ele>449.3333333333333</ele><time>2026-03-29T09:42:42Z</time></trkpt><trkpt lat="43.23846147039167" lon="12.144360873847512"><ele>449.16666666666663</ele><time>2026-03-29T09:42:44Z</time></trkpt><trkpt lat="43.23851933900414" lon="12.144309215995184"><ele>449.0</ele><time>2026-03-29T09:42:46Z</time></trkpt><trkpt lat="43.23858995207929" lon="12.144284991753864"><ele>448.99999999999994</ele><time>2026-03-29T09:42:48Z</time></trkpt><trkpt lat="43.23865085785746" lon="12.144243618181408"><ele>449.0</ele><time>2026-03-29T09:42:50Z</time></trkpt><trkpt lat="43.23874688165033" lon="12.144174695530927"><ele>449.0</ele><time>2026-03-29T09:42:52Z</time></trkpt><trkpt lat="43.23880988922607" lon="12.14415098777729"><ele>449.0</ele><time>2026-03-29T09:42:53Z</time></trkpt><trkpt lat="43.23888447020266" lon="12.144143475268368"><ele>448.99999999999994</ele><time>2026-03-29T09:42:54Z</time></trkpt><trkpt lat="43.23895421586675" lon="12.144143765358871"><ele>449.0</ele><time>2026-03-29T09:42:55Z</time></trkpt><trkpt lat="43.239025356004404" lon="12.144140655983385"><ele>445.3333333333333</ele><time>2026-03-29T09:42:56Z</time></trkpt><trkpt lat="43.239088451682036" lon="12.144107977727469"><ele>441.66666666666663</ele><time>2026-03-29T09:42:57Z</time></trkpt><trkpt lat="43.23914218759989" lon="12.144045176491884"><ele>438.0</ele><time>2026-03-29T09:42:58Z</time></trkpt><trkpt lat="43.239190738297914" lon="12.143959219870592"><ele>434.33333333333337</ele><time>2026-03-29T09:42:59Z</time></trkpt><trkpt lat="43.23922795249748" lon="12.143876095248995"><ele>430.6666666666667</ele><time>2026-03-29T09:43:00Z</time></trkpt><trkpt lat="43.239259886859905" lon="12.143795445421182"><ele>427.0</ele><time>2026-03-29T09:43:01Z</time></trkpt><trkpt lat="43.23935942324703" lon="12.143700178269036"><ele>427.00000000000006</ele><time>2026-03-29T09:43:03Z</time></trkpt><trkpt lat="43.23942571162804" lon="12.143679879091648"><ele>427.0</ele><time>2026-03-29T09:43:04Z</time></trkpt><trkpt lat="43.2395003829152" lon="12.143679544892722"><ele>427.0</ele><time>2026-03-29T09:43:05Z</time></trkpt><trkpt lat="43.239578470689686" lon="12.14368002880634"><ele>427.0</ele><time>2026-03-29T09:43:06Z</time></trkpt><trkpt lat="43.2396591019071" lon="12.14369806057306"><ele>427.00000000000006</ele><time>2026-03-29T09:43:07Z</time></trkpt><trkpt lat="43.23973158384832" lon="12.143739757015915"><ele>427.0</ele><time>2026-03-29T09:43:08Z</time></trkpt><trkpt lat="43.23980048588204" lon="12.143725937789448"><ele>421.40000000000003</ele><time>2026-03-29T09:43:09Z</time></trkpt><trkpt lat="43.23988112240925" lon="12.14372476682706"><ele>415.80000000000007</ele><time>2026-03-29T09:43:10Z</time></trkpt><trkpt lat="43.23997962107672" lon="12.143725073690398"><ele>410.2</ele><time>2026-03-29T09:43:11Z</time></trkpt><trkpt lat="43.240074007697864" lon="12.143696391434013"><ele>404.6</ele><time>2026-03-29T09:43:12Z</time></trkpt><trkpt lat="43.24015205790995" lon="12.143682747240012"><ele>399.0</ele><time>2026-03-29T09:43:13Z</time></trkpt><trkpt lat="43.2402678594992" lon="12.143708587802111"><ele>399.0</ele><time>2026-03-29T09:43:15Z</time></trkpt><trkpt lat="43.24036675368926" lon="12.14363336347891"><ele>399.0</ele><time>2026-03-29T09:43:17Z</time></trkpt><trkpt lat="43.24035165365171" lon="12.143510283437701"><ele>399.0</ele><time>2026-03-29T09:43:18Z</time></trkpt><trkpt lat="43.240338724822635" lon="12.143416829697916"><ele>399.0</ele><time>2026-03-29T09:43:19Z</time></trkpt><trkpt lat="43.240321970302524" lon="12.143331097085808"><ele>399.0</ele><time>2026-03-29T09:43:20Z</time></trkpt><trkpt lat="43.240356132518635" lon="12.143217558973832"><ele>399.0</ele><time>2026-03-29T09:43:22Z</time></trkpt><trkpt lat="43.24047197636657" lon="12.143164182733441"><ele>397.2</ele><time>2026-03-29T09:43:24Z</time></trkpt><trkpt lat="43.24055314856061" lon="12.143073141671925"><ele>395.4</ele><time>2026-03-29T09:43:26Z</time></trkpt><trkpt lat="43.240547084027234" lon="12.142913501085813"><ele>393.6</ele><time>2026-03-29T09:43:27.999Z</time></trkpt><trkpt lat="43.240472984019945" lon="12.14286002132017"><ele>391.8</ele><time>2026-03-29T09:43:28.999Z</time></trkpt><trkpt lat="43.24039650163469" lon="12.142890139962102"><ele>390.0</ele><time>2026-03-29T09:43:29.999Z</time></trkpt><trkpt lat="43.24031943647119" lon="12.14284179071416"><ele>390.0</ele><time>2026-03-29T09:43:31.999Z</time></trkpt><trkpt lat="43.24031234412742" lon="12.142709507603572"><ele>390.0</ele><time>2026-03-29T09:43:33.999Z</time></trkpt><trkpt lat="43.24037504561301" lon="12.142642719997975"><ele>390.0</ele><time>2026-03-29T09:43:34.999Z</time></trkpt><trkpt lat="43.24043251824002" lon="12.142573382976497"><ele>390.0</ele><time>2026-03-29T09:43:35.999Z</time></trkpt><trkpt lat="43.24049792097254" lon="12.142503081229984"><ele>390.0</ele><time>2026-03-29T09:43:36.999Z</time></trkpt><trkpt lat="43.24057211971677" lon="12.142433259766879"><ele>390.0</ele><time>2026-03-29T09:43:37.999Z</time></trkpt><trkpt lat="43.240617656711066" lon="12.142372676572231"><ele>385.6</ele><time>2026-03-29T09:43:38.999Z</time></trkpt><trkpt lat="43.240705143677154" lon="12.142396211718555"><ele>381.2</ele><time>2026-03-29T09:43:40.999Z</time></trkpt><trkpt lat="43.24072842118662" lon="12.142554910082787"><ele>376.79999999999995</ele><time>2026-03-29T09:43:42.999Z</time></trkpt><trkpt lat="43.24078312145623" lon="12.14263676056783"><ele>372.4</ele><time>2026-03-29T09:43:43.999Z</time></trkpt><trkpt lat="43.24088804773709" lon="12.142656093069402"><ele>368.0</ele><time>2026-03-29T09:43:44.999Z</time></trkpt><trkpt lat="43.24099318233195" lon="12.142634132107675"><ele>368.0</ele><time>2026-03-29T09:43:45.999Z</time></trkpt><trkpt lat="43.24108547489189" lon="12.142611374382197"><ele>368.0</ele><time>2026-03-29T09:43:46.999Z</time></trkpt><trkpt lat="43.24116623952587" lon="12.142608394165903"><ele>368.0</ele><time>2026-03-29T09:43:47.999Z</time></trkpt><trkpt lat="43.241239880697435" lon="12.14265003337083"><ele>368.0</ele><time>2026-03-29T09:43:48.999Z</time></trkpt><trkpt lat="43.241286270487194" lon="12.142751228796492"><ele>368.0</ele><time>2026-03-29T09:43:49.999Z</time></trkpt><trkpt lat="43.241352439641624" lon="12.14284113828427"><ele>368.0</ele><time>2026-03-29T09:43:50.999Z</time></trkpt><trkpt lat="43.24140765159051" lon="12.14292689082988"><ele>367.0</ele><time>2026-03-29T09:43:51.999Z</time></trkpt><trkpt lat="43.24152314108191" lon="12.14297761410986"><ele>366.0</ele><time>2026-03-29T09:43:53.999Z</time></trkpt><trkpt lat="43.24161546485638" lon="12.142910826047789"><ele>365.0</ele><time>2026-03-29T09:43:54.999Z</time></trkpt><trkpt lat="43.241724605768454" lon="12.14285480059129"><ele>364.0</ele><time>2026-03-29T09:43:55.999Z</time></trkpt><trkpt lat="43.241823741416475" lon="12.142809517800742"><ele>363.0</ele><time>2026-03-29T09:43:56.999Z</time></trkpt><trkpt lat="43.24191248193536" lon="12.142736093197671"><ele>363.0</ele><time>2026-03-29T09:43:57.999Z</time></trkpt><trkpt lat="43.242017692863904" lon="12.142624100770348"><ele>363.0</ele><time>2026-03-29T09:43:58.999Z</time></trkpt><trkpt lat="43.24213627395194" lon="12.142529016520553"><ele>363.0</ele><time>2026-03-29T09:43:59.999Z</time></trkpt><trkpt lat="43.24227823063605" lon="12.14243647163137"><ele>363.0</ele><time>2026-03-29T09:44:00.999Z</time></trkpt><trkpt lat="43.24239679720219" lon="12.142359434429187"><ele>362.2</ele><time>2026-03-29T09:44:01.999Z</time></trkpt><trkpt lat="43.24248876470746" lon="12.14228084710337"><ele>361.4</ele><time>2026-03-29T09:44:02.999Z</time></trkpt><trkpt lat="43.24255969147286" lon="12.142206436807928"><ele>360.59999999999997</ele><time>2026-03-29T09:44:03.999Z</time></trkpt><trkpt lat="43.24262050653646" lon="12.142160755153748"><ele>359.79999999999995</ele><time>2026-03-29T09:44:04.999Z</time></trkpt><trkpt lat="43.24270640987783" lon="12.142183946771404"><ele>359.0</ele><time>2026-03-29T09:44:05.999Z</time></trkpt><trkpt lat="43.24281387608558" lon="12.142190890501794"><ele>359.0</ele><time>2026-03-29T09:44:06.999Z</time></trkpt><trkpt lat="43.24296788143671" lon="12.14220971961981"><ele>359.0</ele><time>2026-03-29T09:44:07.999Z</time></trkpt><trkpt lat="43.24314993778455" lon="12.142198884674198"><ele>359.0</ele><time>2026-03-29T09:44:08.999Z</time></trkpt><trkpt lat="43.24332992749834" lon="12.142202188658505"><ele>355.33333333333337</ele><time>2026-03-29T09:44:09.999Z</time></trkpt><trkpt lat="43.243494550914015" lon="12.142206952939606"><ele>351.6666666666667</ele><time>2026-03-29T09:44:10.999Z</time></trkpt><trkpt lat="43.24364509816636" lon="12.142195472433045"><ele>348.0</ele><time>2026-03-29T09:44:11.999Z</time></trkpt><trkpt lat="43.243782307190614" lon="12.142184192109337"><ele>348.0</ele><time>2026-03-29T09:44:12.999Z</time></trkpt><trkpt lat="43.243895170374216" lon="12.142174373914754"><ele>348.0</ele><time>2026-03-29T09:44:13.999Z</time></trkpt><trkpt lat="43.24399781638945" lon="12.142171861652553"><ele>348.0</ele><time>2026-03-29T09:44:14.999Z</time></trkpt><trkpt lat="43.244101039345026" lon="12.14216910492661"><ele>348.0</ele><time>2026-03-29T09:44:15.999Z</time></trkpt><trkpt lat="43.24420253860845" lon="12.14217307721897"><ele>348.0</ele><time>2026-03-29T09:44:16.999Z</time></trkpt><trkpt lat="43.2442987498464" lon="12.142200845787453"><ele>345.4</ele><time>2026-03-29T09:44:17.999Z</time></trkpt><trkpt lat="43.2443875444021" lon="12.14223834920977"><ele>342.79999999999995</ele><time>2026-03-29T09:44:18.999Z</time></trkpt><trkpt lat="43.24447240313723" lon="12.142282636567181"><ele>340.2</ele><time>2026-03-29T09:44:19.999Z</time></trkpt><trkpt lat="43.24455305764136" lon="12.142340611494877"><ele>337.6</ele><time>2026-03-29T09:44:20.999Z</time></trkpt><trkpt lat="43.244638755773764" lon="12.14240125820223"><ele>335.0</ele><time>2026-03-29T09:44:21.999Z</time></trkpt><trkpt lat="43.24471754773299" lon="12.142458183447799"><ele>333.0</ele><time>2026-03-29T09:44:22.999Z</time></trkpt><trkpt lat="43.24480115584472" lon="12.142512073752066"><ele>331.0</ele><time>2026-03-29T09:44:23.999Z</time></trkpt><trkpt lat="43.2448884254545" lon="12.14257627676626"><ele>329.0</ele><time>2026-03-29T09:44:24.999Z</time></trkpt><trkpt lat="43.24498037699052" lon="12.14263896319379"><ele>327.0</ele><time>2026-03-29T09:44:25.999Z</time></trkpt><trkpt lat="43.24505897994993" lon="12.142702155133039"><ele>325.0</ele><time>2026-03-29T09:44:26.999Z</time></trkpt><trkpt lat="43.2451452772928" lon="12.142756797297581"><ele>325.0</ele><time>2026-03-29T09:44:27.999Z</time></trkpt><trkpt lat="43.24526514143942" lon="12.142787630943547"><ele>325.0</ele><time>2026-03-29T09:44:28.998Z</time></trkpt><trkpt lat="43.24539892196417" lon="12.142799800327527"><ele>325.0</ele><time>2026-03-29T09:44:29.998Z</time></trkpt><trkpt lat="43.245511617203796" lon="12.142819191889423"><ele>325.0</ele><time>2026-03-29T09:44:30.998Z</time></trkpt><trkpt lat="43.245606510292795" lon="12.142839561369396"><ele>324.0</ele><time>2026-03-29T09:44:31.998Z</time></trkpt><trkpt lat="43.24568787560593" lon="12.142856193715051"><ele>323.0</ele><time>2026-03-29T09:44:32.998Z</time></trkpt><trkpt lat="43.24576420590401" lon="12.142866859110336"><ele>322.0</ele><time>2026-03-29T09:44:33.998Z</time></trkpt><trkpt lat="43.24584061749674" lon="12.142884067276027"><ele>321.0</ele><time>2026-03-29T09:44:34.998Z</time></trkpt><trkpt lat="43.245911642095045" lon="12.142912090099765"><ele>320.0</ele><time>2026-03-29T09:44:35.998Z</time></trkpt><trkpt lat="43.245980648043606" lon="12.142937650799269"><ele>319.0</ele><time>2026-03-29T09:44:36.998Z</time></trkpt><trkpt lat="43.24605821396012" lon="12.142972969702772"><ele>319.0</ele><time>2026-03-29T09:44:37.998Z</time></trkpt><trkpt lat="43.246149230125965" lon="12.14301754754822"><ele>319.0</ele><time>2026-03-29T09:44:38.998Z</time></trkpt><trkpt lat="43.24622417607807" lon="12.143062440106787"><ele>319.0</ele><time>2026-03-29T09:44:39.998Z</time></trkpt><trkpt lat="43.24628129273568" lon="12.143117985458934"><ele>319.0</ele><time>2026-03-29T09:44:40.998Z</time></trkpt><trkpt lat="43.24635002033972" lon="12.143255669959117"><ele>319.0</ele><time>2026-03-29T09:44:42.998Z</time></trkpt><trkpt lat="43.246367410892226" lon="12.143406285535516"><ele>319.0</ele><time>2026-03-29T09:44:44.998Z</time></trkpt><trkpt lat="43.24628201646016" lon="12.143490362940751"><ele>319.0</ele><time>2026-03-29T09:44:46Z</time></trkpt><trkpt lat="43.24622367156838" lon="12.143607304838586"><ele>319.0</ele><time>2026-03-29T09:44:47Z</time></trkpt><trkpt lat="43.24615541497672" lon="12.14373318418048"><ele>319.0</ele><time>2026-03-29T09:44:48Z</time></trkpt><trkpt lat="43.24610696368891" lon="12.143845632227157"><ele>319.0</ele><time>2026-03-29T09:44:49Z</time></trkpt><trkpt lat="43.24606455424909" lon="12.143917455144194"><ele>319.0</ele><time>2026-03-29T09:44:50Z</time></trkpt><trkpt lat="43.24600914235452" lon="12.144017275181998"><ele>319.0</ele><time>2026-03-29T09:44:52Z</time></trkpt><trkpt lat="43.24612093576851" lon="12.144154490257476"><ele>319.0</ele><time>2026-03-29T09:44:53Z</time></trkpt><trkpt lat="43.24619070473347" lon="12.1442211850514"><ele>319.0</ele><time>2026-03-29T09:44:54Z</time></trkpt><trkpt lat="43.24624509319814" lon="12.144303873137428"><ele>319.0</ele><time>2026-03-29T09:44:55Z</time></trkpt><trkpt lat="43.24631347834242" lon="12.144352911199766"><ele>319.14285714285717</ele><time>2026-03-29T09:44:56Z</time></trkpt><trkpt lat="43.24636708119923" lon="12.144412806121213"><ele>319.2857142857143</ele><time>2026-03-29T09:44:57Z</time></trkpt><trkpt lat="43.246426828973576" lon="12.14447777678001"><ele>319.42857142857144</ele><time>2026-03-29T09:44:59Z</time></trkpt><trkpt lat="43.24635564860278" lon="12.144546644778998"><ele>319.57142857142856</ele><time>2026-03-29T09:50:34.999Z</time></trkpt><trkpt lat="43.2464209506097" lon="12.144498819217617"><ele>319.7142857142857</ele><time>2026-03-29T09:50:36.999Z</time></trkpt><trkpt lat="43.246484473554474" lon="12.144476843969434"><ele>319.85714285714283</ele><time>2026-03-29T09:50:47.998Z</time></trkpt><trkpt lat="43.24654143091536" lon="12.14452745365614"><ele>320.0</ele><time>2026-03-29T09:50:53.998Z</time></trkpt><trkpt lat="43.2465975807556" lon="12.144573329791674"><ele>320.0</ele><time>2026-03-29T09:51:01.998Z</time></trkpt><trkpt lat="43.24665372031029" lon="12.144533942902706"><ele>320.0</ele><time>2026-03-29T09:51:22Z</time></trkpt><trkpt lat="43.2467004745044" lon="12.14446973654194"><ele>320.0</ele><time>2026-03-29T09:51:32Z</time></trkpt><trkpt lat="43.24665734213947" lon="12.144546655029792"><ele>320.0</ele><time>2026-03-29T10:10:35.999Z</time></trkpt><trkpt lat="43.24658405017778" lon="12.144561008801407"><ele>320.0</ele><time>2026-03-29T10:10:45.998Z</time></trkpt><trkpt lat="43.24653899784377" lon="12.144500141547486"><ele>320.0</ele><time>2026-03-29T10:10:52.998Z</time></trkpt><trkpt lat="43.24648767985481" lon="12.14444698921819"><ele>320.0</ele><time>2026-03-29T10:10:59.998Z</time></trkpt><trkpt lat="43.24642714499777" lon="12.1444228444472"><ele>318.0</ele><time>2026-03-29T10:11:08.998Z</time></trkpt><trkpt lat="43.24652494340498" lon="12.144512841919669"><ele>316.0</ele><time>2026-03-29T10:14:40Z</time></trkpt><trkpt lat="43.246582789156854" lon="12.14455046319841"><ele>314.0</ele><time>2026-03-29T10:14:44Z</time></trkpt><trkpt lat="43.24664574049017" lon="12.144554316286628"><ele>312.0</ele><time>2026-03-29T10:14:49Z</time></trkpt><trkpt lat="43.24668912642236" lon="12.144474115471226"><ele>310.0</ele><time>2026-03-29T10:14:54Z</time></trkpt><trkpt lat="43.24665001960723" lon="12.144561601630496"><ele>308.0</ele><time>2026-03-29T10:15:02.999Z</time></trkpt><trkpt lat="43.24658200841131" lon="12.144541545371998"><ele>308.0</ele><time>2026-03-29T10:15:08.999Z</time></trkpt><trkpt lat="43.2465226634125" lon="12.14449864642538"><ele>308.0</ele><time>2026-03-29T10:15:13.999Z</time></trkpt><trkpt lat="43.24646073068038" lon="12.144473907735634"><ele>308.0</ele><time>2026-03-29T10:15:18.999Z</time></trkpt><trkpt lat="43.246520567469396" lon="12.144520816153891"><ele>308.0</ele><time>2026-03-29T10:17:10.999Z</time></trkpt><trkpt lat="43.24656740899794" lon="12.144591096702905"><ele>308.0</ele><time>2026-03-29T10:17:17.999Z</time></trkpt><trkpt lat="43.24663001560849" lon="12.144578050819868"><ele>308.0</ele><time>2026-03-29T10:17:23.999Z</time></trkpt><trkpt lat="43.24669207194186" lon="12.144687052086477"><ele>308.0</ele><time>2026-03-29T10:17:43.999Z</time></trkpt><trkpt lat="43.246769994729235" lon="12.144747713526934"><ele>308.0</ele><time>2026-03-29T10:17:44.999Z</time></trkpt><trkpt lat="43.246838628689936" lon="12.144807445626455"><ele>308.0</ele><time>2026-03-29T10:17:45.999Z</time></trkpt><trkpt lat="43.24691553119741" lon="12.144865604020335"><ele>308.0</ele><time>2026-03-29T10:17:46.999Z</time></trkpt><trkpt lat="43.246984318954404" lon="12.144911179284511"><ele>308.0</ele><time>2026-03-29T10:17:47.999Z</time></trkpt><trkpt lat="43.24705043613552" lon="12.14494096004101"><ele>308.0</ele><time>2026-03-29T10:17:48.999Z</time></trkpt><trkpt lat="43.247121734701146" lon="12.144964822300244"><ele>308.0</ele><time>2026-03-29T10:17:50.999Z</time></trkpt><trkpt lat="43.247184716661884" lon="12.145069234609227"><ele>307.5</ele><time>2026-03-29T10:17:53.999Z</time></trkpt><trkpt lat="43.24723277120352" lon="12.145151282330007"><ele>307.0</ele><time>2026-03-29T10:17:55.999Z</time></trkpt><trkpt lat="43.2472251644211" lon="12.145240629774575"><ele>306.5</ele><time>2026-03-29T10:17:57.999Z</time></trkpt><trkpt lat="43.24721486290239" lon="12.14510011978515"><ele>306.0</ele><time>2026-03-29T10:18:14.999Z</time></trkpt><trkpt lat="43.247144892283075" lon="12.14501618983182"><ele>305.5</ele><time>2026-03-29T10:18:16.999Z</time></trkpt><trkpt lat="43.24717358211607" lon="12.144922700727232"><ele>305.0</ele><time>2026-03-29T10:18:19Z</time></trkpt><trkpt lat="43.24723488679616" lon="12.144898621398456"><ele>304.4</ele><time>2026-03-29T10:18:20Z</time></trkpt><trkpt lat="43.24732480679372" lon="12.144882301477098"><ele>303.8</ele><time>2026-03-29T10:18:21Z</time></trkpt><trkpt lat="43.24739857714113" lon="12.144866495288786"><ele>303.2</ele><time>2026-03-29T10:18:22Z</time></trkpt><trkpt lat="43.247456763593746" lon="12.144812256408446"><ele>302.6</ele><time>2026-03-29T10:18:24Z</time></trkpt><trkpt lat="43.24745363756885" lon="12.14463540507368"><ele>302.0</ele><time>2026-03-29T10:18:26Z</time></trkpt><trkpt lat="43.24744472389616" lon="12.144480986235864"><ele>302.0</ele><time>2026-03-29T10:18:27Z</time></trkpt><trkpt lat="43.24744586264379" lon="12.144302384230077"><ele>302.0</ele><time>2026-03-29T10:18:28Z</time></trkpt><trkpt lat="43.24744821598893" lon="12.144108573390444"><ele>302.0</ele><time>2026-03-29T10:18:29Z</time></trkpt><trkpt lat="43.24744886617214" lon="12.143915882764706"><ele>302.0</ele><time>2026-03-29T10:18:30Z</time></trkpt><trkpt lat="43.247444243844754" lon="12.143748368641754"><ele>302.0</ele><time>2026-03-29T10:18:31Z</time></trkpt><trkpt lat="43.24743864319734" lon="12.143599187536267"><ele>302.0</ele><time>2026-03-29T10:18:32Z</time></trkpt><trkpt lat="43.24743373793037" lon="12.14345533379772"><ele>302.0</ele><time>2026-03-29T10:18:33Z</time></trkpt><trkpt lat="43.247428567232944" lon="12.143312254288302"><ele>302.0</ele><time>2026-03-29T10:18:34Z</time></trkpt><trkpt lat="43.247412112992905" lon="12.14315336970338"><ele>302.0</ele><time>2026-03-29T10:18:35Z</time></trkpt><trkpt lat="43.24737774566417" lon="12.142977369421656"><ele>302.75</ele><time>2026-03-29T10:18:36Z</time></trkpt><trkpt lat="43.24733066300026" lon="12.142796636263139"><ele>303.5</ele><time>2026-03-29T10:18:37Z</time></trkpt><trkpt lat="43.247273593497695" lon="12.142621845136315"><ele>304.25</ele><time>2026-03-29T10:18:38Z</time></trkpt><trkpt lat="43.24722402690794" lon="12.142467161988073"><ele>305.0</ele><time>2026-03-29T10:18:39Z</time></trkpt><trkpt lat="43.247200148766765" lon="12.142330054577359"><ele>305.1666666666667</ele><time>2026-03-29T10:18:40Z</time></trkpt><trkpt lat="43.24719062681817" lon="12.142208715675283"><ele>305.33333333333337</ele><time>2026-03-29T10:18:41Z</time></trkpt><trkpt lat="43.247200403924396" lon="12.142112213361685"><ele>305.5</ele><time>2026-03-29T10:18:42Z</time></trkpt><trkpt lat="43.24721598921816" lon="12.142017297419603"><ele>305.6666666666667</ele><time>2026-03-29T10:18:43Z</time></trkpt><trkpt lat="43.24723475005785" lon="12.141930763929683"><ele>305.8333333333333</ele><time>2026-03-29T10:18:44Z</time></trkpt><trkpt lat="43.24726696053233" lon="12.14183711500338"><ele>306.0</ele><time>2026-03-29T10:18:45Z</time></trkpt><trkpt lat="43.24731753681921" lon="12.141741709932512"><ele>306.0</ele><time>2026-03-29T10:18:46Z</time></trkpt><trkpt lat="43.24739153886531" lon="12.141629913152206"><ele>306.0</ele><time>2026-03-29T10:18:47Z</time></trkpt><trkpt lat="43.24748148063458" lon="12.141512668906946"><ele>306.0</ele><time>2026-03-29T10:18:48Z</time></trkpt><trkpt lat="43.247591939013795" lon="12.141376372383876"><ele>306.0</ele><time>2026-03-29T10:18:49Z</time></trkpt><trkpt lat="43.24771374507688" lon="12.141219718355321"><ele>308.3333333333333</ele><time>2026-03-29T10:18:50Z</time></trkpt><trkpt lat="43.247843776640096" lon="12.141047979874399"><ele>310.66666666666663</ele><time>2026-03-29T10:18:51Z</time></trkpt><trkpt lat="43.24797502792683" lon="12.140874791388898"><ele>313.0</ele><time>2026-03-29T10:18:52Z</time></trkpt><trkpt lat="43.248095967921294" lon="12.140720884899258"><ele>311.75</ele><time>2026-03-29T10:18:53Z</time></trkpt><trkpt lat="43.248204744780395" lon="12.140584783504965"><ele>310.5</ele><time>2026-03-29T10:18:54Z</time></trkpt><trkpt lat="43.24830926392471" lon="12.140450841597838"><ele>309.25</ele><time>2026-03-29T10:18:55Z</time></trkpt><trkpt lat="43.24842830976144" lon="12.1403057482524"><ele>308.0</ele><time>2026-03-29T10:18:56Z</time></trkpt><trkpt lat="43.248547258019784" lon="12.140152672619102"><ele>308.0</ele><time>2026-03-29T10:18:57Z</time></trkpt><trkpt lat="43.24867073755285" lon="12.13999379315989"><ele>308.0</ele><time>2026-03-29T10:18:58Z</time></trkpt><trkpt lat="43.248792241175366" lon="12.139837909860004"><ele>308.0</ele><time>2026-03-29T10:18:59Z</time></trkpt><trkpt lat="43.24891591979384" lon="12.139680347053917"><ele>307.6666666666667</ele><time>2026-03-29T10:19:00Z</time></trkpt><trkpt lat="43.24904554660291" lon="12.139514325710591"><ele>307.3333333333333</ele><time>2026-03-29T10:19:01Z</time></trkpt><trkpt lat="43.24915605261222" lon="12.139372388874191"><ele>307.0</ele><time>2026-03-29T10:19:02Z</time></trkpt><trkpt lat="43.24925672716304" lon="12.1392440050822"><ele>307.0</ele><time>2026-03-29T10:19:03Z</time></trkpt><trkpt lat="43.24934277898761" lon="12.139137212422014"><ele>307.0</ele><time>2026-03-29T10:19:04Z</time></trkpt><trkpt lat="43.249418991142285" lon="12.139043187858363"><ele>307.0</ele><time>2026-03-29T10:19:05Z</time></trkpt><trkpt lat="43.24948478452358" lon="12.138967716486277"><ele>307.0</ele><time>2026-03-29T10:19:06Z</time></trkpt><trkpt lat="43.249545649145816" lon="12.138921043683544"><ele>307.0</ele><time>2026-03-29T10:19:07Z</time></trkpt><trkpt lat="43.249622566716496" lon="12.138871425239419"><ele>310.8</ele><time>2026-03-29T10:19:09Z</time></trkpt><trkpt lat="43.249645829887534" lon="12.138791063805003"><ele>314.6</ele><time>2026-03-29T10:19:11Z</time></trkpt><trkpt lat="43.24965524602956" lon="12.138700165869356"><ele>318.40000000000003</ele><time>2026-03-29T10:19:12Z</time></trkpt><trkpt lat="43.24966607862341" lon="12.138579954352664"><ele>322.2</ele><time>2026-03-29T10:19:13Z</time></trkpt><trkpt lat="43.24970682212791" lon="12.138444610403292"><ele>326.0</ele><time>2026-03-29T10:19:14Z</time></trkpt><trkpt lat="43.24975596351332" lon="12.138281151268531"><ele>319.0</ele><time>2026-03-29T10:19:15Z</time></trkpt><trkpt lat="43.24979494019688" lon="12.138092929886072"><ele>312.0</ele><time>2026-03-29T10:19:15.999Z</time></trkpt><trkpt lat="43.24985519016172" lon="12.137893116346484"><ele>305.0</ele><time>2026-03-29T10:19:16.999Z</time></trkpt><trkpt lat="43.24993104363486" lon="12.137692280213596"><ele>305.0</ele><time>2026-03-29T10:19:17.999Z</time></trkpt><trkpt lat="43.24999802698206" lon="12.13746509070904"><ele>305.0</ele><time>2026-03-29T10:19:18.999Z</time></trkpt><trkpt lat="43.25007537385526" lon="12.137239891681627"><ele>305.0</ele><time>2026-03-29T10:19:19.999Z</time></trkpt><trkpt lat="43.250178433034286" lon="12.137033270671827"><ele>306.6666666666667</ele><time>2026-03-29T10:19:20.999Z</time></trkpt><trkpt lat="43.25028206305397" lon="12.136816360038658"><ele>308.3333333333333</ele><time>2026-03-29T10:19:21.999Z</time></trkpt><trkpt lat="43.250404025420785" lon="12.136625412091067"><ele>310.0</ele><time>2026-03-29T10:19:22.999Z</time></trkpt><trkpt lat="43.2505139658554" lon="12.136420978773526"><ele>308.66666666666663</ele><time>2026-03-29T10:19:23.999Z</time></trkpt><trkpt lat="43.25061183579434" lon="12.136190766553351"><ele>307.3333333333333</ele><time>2026-03-29T10:19:24.999Z</time></trkpt><trkpt lat="43.25069933654345" lon="12.135942655049023"><ele>306.0</ele><time>2026-03-29T10:19:25.999Z</time></trkpt><trkpt lat="43.25078483979979" lon="12.135681413890037"><ele>309.6666666666667</ele><time>2026-03-29T10:19:26.999Z</time></trkpt><trkpt lat="43.25087208607863" lon="12.135423131488535"><ele>313.33333333333337</ele><time>2026-03-29T10:19:27.999Z</time></trkpt><trkpt lat="43.250954267873034" lon="12.135181855971863"><ele>317.0</ele><time>2026-03-29T10:19:28.999Z</time></trkpt><trkpt lat="43.25102346081573" lon="12.134964290328835"><ele>322.0</ele><time>2026-03-29T10:19:29.999Z</time></trkpt><trkpt lat="43.2510851281592" lon="12.134766014615556"><ele>327.0</ele><time>2026-03-29T10:19:30.999Z</time></trkpt><trkpt lat="43.25116634712026" lon="12.134579745984153"><ele>332.0</ele><time>2026-03-29T10:19:31.999Z</time></trkpt><trkpt lat="43.25128805123526" lon="12.134425668677729"><ele>332.0</ele><time>2026-03-29T10:19:32.999Z</time></trkpt><trkpt lat="43.25144715999578" lon="12.134314786133729"><ele>332.0</ele><time>2026-03-29T10:19:33.999Z</time></trkpt><trkpt lat="43.25156728259704" lon="12.134156774634823"><ele>332.0</ele><time>2026-03-29T10:19:34.999Z</time></trkpt><trkpt lat="43.25166913280858" lon="12.133946774006608"><ele>330.33333333333337</ele><time>2026-03-29T10:19:35.999Z</time></trkpt><trkpt lat="43.25176824818365" lon="12.133714664161975"><ele>328.6666666666667</ele><time>2026-03-29T10:19:36.999Z</time></trkpt><trkpt lat="43.25188178371531" lon="12.133484638714123"><ele>327.0</ele><time>2026-03-29T10:19:37.999Z</time></trkpt><trkpt lat="43.25201709415974" lon="12.133292241300573"><ele>328.5</ele><time>2026-03-29T10:19:38.999Z</time></trkpt><trkpt lat="43.252147432555404" lon="12.133149101530236"><ele>330.0</ele><time>2026-03-29T10:19:39.999Z</time></trkpt><trkpt lat="43.25225331780673" lon="12.133005724568294"><ele>331.5</ele><time>2026-03-29T10:19:40.999Z</time></trkpt><trkpt lat="43.25232556675267" lon="12.132869906649084"><ele>333.0</ele><time>2026-03-29T10:19:41.999Z</time></trkpt><trkpt lat="43.25236720699639" lon="12.132722200727182"><ele>331.0</ele><time>2026-03-29T10:19:42.999Z</time></trkpt><trkpt lat="43.25235935319773" lon="12.132567899193864"><ele>329.0</ele><time>2026-03-29T10:19:43.999Z</time></trkpt><trkpt lat="43.252313638085425" lon="12.132392569444084"><ele>327.0</ele><time>2026-03-29T10:19:44.999Z</time></trkpt><trkpt lat="43.25226129150003" lon="12.13221423424853"><ele>325.0</ele><time>2026-03-29T10:19:45.999Z</time></trkpt><trkpt lat="43.25222857312983" lon="12.132054174097973"><ele>325.0</ele><time>2026-03-29T10:19:46.999Z</time></trkpt><trkpt lat="43.25219950820142" lon="12.131927930806164"><ele>325.0</ele><time>2026-03-29T10:19:47.999Z</time></trkpt><trkpt lat="43.25215949692609" lon="12.131838114133254"><ele>325.0</ele><time>2026-03-29T10:19:48.999Z</time></trkpt><trkpt lat="43.25210425086501" lon="12.131783381644844"><ele>325.0</ele><time>2026-03-29T10:19:49.999Z</time></trkpt><trkpt lat="43.25202125787532" lon="12.131750269747716"><ele>325.0</ele><time>2026-03-29T10:19:50.999Z</time></trkpt><trkpt lat="43.251925643737245" lon="12.131743482655795"><ele>325.0</ele><time>2026-03-29T10:19:51.999Z</time></trkpt><trkpt lat="43.25185731286018" lon="12.131893524752135"><ele>325.0</ele><time>2026-03-29T10:19:55.999Z</time></trkpt><trkpt lat="43.25181478014518" lon="12.13196082301555"><ele>325.0</ele><time>2026-03-29T10:19:57.999Z</time></trkpt><trkpt lat="43.25171657428503" lon="12.131699300233468"><ele>325.0</ele><time>2026-03-29T10:19:59.999Z</time></trkpt><trkpt lat="43.25160679333515" lon="12.132019668518609"><ele>325.0</ele><time>2026-03-29T10:20:01.999Z</time></trkpt><trkpt lat="43.25158187711118" lon="12.13211736198424"><ele>325.0</ele><time>2026-03-29T10:20:02.999Z</time></trkpt><trkpt lat="43.25157010907756" lon="12.132226415979057"><ele>325.0</ele><time>2026-03-29T10:20:03.999Z</time></trkpt><trkpt lat="43.251574769745446" lon="12.13234044377432"><ele>325.0</ele><time>2026-03-29T10:20:04.999Z</time></trkpt><trkpt lat="43.25158441485344" lon="12.132462030474708"><ele>325.0</ele><time>2026-03-29T10:20:05.999Z</time></trkpt><trkpt lat="43.251586415614035" lon="12.132590925891243"><ele>325.0</ele><time>2026-03-29T10:20:06.999Z</time></trkpt><trkpt lat="43.2515752268927" lon="12.132723802098788"><ele>326.6</ele><time>2026-03-29T10:20:07.999Z</time></trkpt><trkpt lat="43.251509061008946" lon="12.132827645280164"><ele>328.2</ele><time>2026-03-29T10:20:09.999Z</time></trkpt><trkpt lat="43.25141034147307" lon="12.132883138311335"><ele>329.79999999999995</ele><time>2026-03-29T10:20:11.999Z</time></trkpt><trkpt lat="43.25129328299458" lon="12.132943281251064"><ele>331.4</ele><time>2026-03-29T10:20:13.999Z</time></trkpt><trkpt lat="43.25119668788007" lon="12.132895971481698"><ele>333.0</ele><time>2026-03-29T10:20:16.999Z</time></trkpt><trkpt lat="43.25112617517583" lon="12.132873774057435"><ele>336.6666666666667</ele><time>2026-03-29T10:20:18.999Z</time></trkpt><trkpt lat="43.25104415806264" lon="12.132782212992472"><ele>340.3333333333333</ele><time>2026-03-29T10:20:20.999Z</time></trkpt><trkpt lat="43.25097023165369" lon="12.132849517513737"><ele>344.0</ele><time>2026-03-29T10:20:23.999Z</time></trkpt><trkpt lat="43.25095120216177" lon="12.132964838036996"><ele>347.66666666666663</ele><time>2026-03-29T10:20:26Z</time></trkpt><trkpt lat="43.250888557155164" lon="12.132974391785185"><ele>351.3333333333333</ele><time>2026-03-29T10:20:28Z</time></trkpt><trkpt lat="43.250830592537845" lon="12.132904963842648"><ele>355.0</ele><time>2026-03-29T10:20:30Z</time></trkpt><trkpt lat="43.2507688425878" lon="12.13288298287129"><ele>355.0</ele><time>2026-03-29T10:20:32Z</time></trkpt><trkpt lat="43.25070407054571" lon="12.132895811166069"><ele>355.0</ele><time>2026-03-29T10:20:34Z</time></trkpt><trkpt lat="43.25062080624965" lon="12.132890784871666"><ele>355.0</ele><time>2026-03-29T10:20:39Z</time></trkpt><trkpt lat="43.250502084989655" lon="12.13287097252289"><ele>355.0</ele><time>2026-03-29T10:20:41Z</time></trkpt><trkpt lat="43.25041032821884" lon="12.13288799980124"><ele>355.0</ele><time>2026-03-29T10:20:42Z</time></trkpt><trkpt lat="43.25033046679896" lon="12.132902925115381"><ele>355.0</ele><time>2026-03-29T10:20:43Z</time></trkpt><trkpt lat="43.25021721171303" lon="12.132924767906324"><ele>357.0</ele><time>2026-03-29T10:20:45Z</time></trkpt><trkpt lat="43.250138974699304" lon="12.13288181373315"><ele>359.0</ele><time>2026-03-29T10:20:47Z</time></trkpt><trkpt lat="43.25002985298231" lon="12.132882149447989"><ele>361.0</ele><time>2026-03-29T10:20:49Z</time></trkpt><trkpt lat="43.24993547593037" lon="12.132940669942151"><ele>363.0</ele><time>2026-03-29T10:20:51Z</time></trkpt><trkpt lat="43.249816911151726" lon="12.132939714782559"><ele>365.0</ele><time>2026-03-29T10:20:53Z</time></trkpt><trkpt lat="43.249731939206356" lon="12.132901153683965"><ele>366.33333333333337</ele><time>2026-03-29T10:20:55Z</time></trkpt><trkpt lat="43.2496453026488" lon="12.132897428605894"><ele>367.6666666666667</ele><time>2026-03-29T10:20:57Z</time></trkpt><trkpt lat="43.24957011090153" lon="12.132932249234837"><ele>369.0</ele><time>2026-03-29T10:20:59Z</time></trkpt><trkpt lat="43.24948497497864" lon="12.132990883777515"><ele>370.3333333333333</ele><time>2026-03-29T10:21:01Z</time></trkpt><trkpt lat="43.2494007228408" lon="12.133069110974194"><ele>371.66666666666663</ele><time>2026-03-29T10:21:03Z</time></trkpt><trkpt lat="43.249320178068636" lon="12.13310933615169"><ele>373.0</ele><time>2026-03-29T10:21:04Z</time></trkpt><trkpt lat="43.24920575917705" lon="12.133157018598133"><ele>373.0</ele><time>2026-03-29T10:21:06Z</time></trkpt><trkpt lat="43.249109009466444" lon="12.133216156077431"><ele>373.0</ele><time>2026-03-29T10:21:08Z</time></trkpt><trkpt lat="43.24899236521987" lon="12.133212008894425"><ele>373.0</ele><time>2026-03-29T10:21:10Z</time></trkpt><trkpt lat="43.24891973488743" lon="12.133228073342535"><ele>373.0</ele><time>2026-03-29T10:21:12Z</time></trkpt><trkpt lat="43.24882800000035" lon="12.13324139604838"><ele>373.0</ele><time>2026-03-29T10:21:15Z</time></trkpt><trkpt lat="43.24876921012915" lon="12.133290977047764"><ele>378.25</ele><time>2026-03-29T10:21:16.999Z</time></trkpt><trkpt lat="43.248633370246" lon="12.133331375855485"><ele>383.5</ele><time>2026-03-29T10:21:18.999Z</time></trkpt><trkpt lat="43.248547925448214" lon="12.13337158768342"><ele>388.75</ele><time>2026-03-29T10:21:20.999Z</time></trkpt><trkpt lat="43.24842643003422" lon="12.133403984582692"><ele>394.0</ele><time>2026-03-29T10:21:22.999Z</time></trkpt><trkpt lat="43.24832172686654" lon="12.13338649114001"><ele>394.0</ele><time>2026-03-29T10:21:24.999Z</time></trkpt><trkpt lat="43.248212569732004" lon="12.133361251372955"><ele>394.0</ele><time>2026-03-29T10:21:26.999Z</time></trkpt><trkpt lat="43.248103562155244" lon="12.133338446192337"><ele>394.0</ele><time>2026-03-29T10:21:28.999Z</time></trkpt><trkpt lat="43.248011567877334" lon="12.133298311542793"><ele>394.0</ele><time>2026-03-29T10:21:30.999Z</time></trkpt><trkpt lat="43.24790666018926" lon="12.133247633696692"><ele>394.0</ele><time>2026-03-29T10:21:32.999Z</time></trkpt><trkpt lat="43.24783847270807" lon="12.133214033570523"><ele>394.33333333333337</ele><time>2026-03-29T10:21:33.999Z</time></trkpt><trkpt lat="43.24777324631718" lon="12.133178755618815"><ele>394.6666666666667</ele><time>2026-03-29T10:21:34.999Z</time></trkpt><trkpt lat="43.2477056090557" lon="12.133116947442721"><ele>395.0</ele><time>2026-03-29T10:21:35.999Z</time></trkpt><trkpt lat="43.24762925237903" lon="12.133061768500355"><ele>395.33333333333337</ele><time>2026-03-29T10:21:36.999Z</time></trkpt><trkpt lat="43.247565142886934" lon="12.13300685006521"><ele>395.6666666666667</ele><time>2026-03-29T10:21:37.999Z</time></trkpt><trkpt lat="43.2475041399093" lon="12.132957942606733"><ele>396.0</ele><time>2026-03-29T10:21:38.999Z</time></trkpt><trkpt lat="43.24743810675223" lon="12.13291073922775"><ele>396.0</ele><time>2026-03-29T10:21:39.999Z</time></trkpt><trkpt lat="43.24734734889489" lon="12.132794835680558"><ele>396.0</ele><time>2026-03-29T10:21:41.999Z</time></trkpt><trkpt lat="43.247291535493495" lon="12.132704354724545"><ele>396.0</ele><time>2026-03-29T10:21:43.999Z</time></trkpt><trkpt lat="43.247272130115846" lon="12.132591607257282"><ele>396.0</ele><time>2026-03-29T10:21:45.999Z</time></trkpt><trkpt lat="43.24711621687317" lon="12.132634567774394"><ele>398.8</ele><time>2026-03-29T10:21:46.999Z</time></trkpt><trkpt lat="43.24703970673352" lon="12.132670561912816"><ele>401.6</ele><time>2026-03-29T10:21:48.999Z</time></trkpt><trkpt lat="43.24699588839015" lon="12.13280213704271"><ele>404.4</ele><time>2026-03-29T10:21:50.999Z</time></trkpt><trkpt lat="43.246890035339895" lon="12.132855641331204"><ele>407.2</ele><time>2026-03-29T10:21:52.999Z</time></trkpt><trkpt lat="43.24678242654354" lon="12.1328713510966"><ele>410.0</ele><time>2026-03-29T10:21:54.999Z</time></trkpt><trkpt lat="43.246706064711915" lon="12.13288856713024"><ele>410.0</ele><time>2026-03-29T10:21:56.999Z</time></trkpt><trkpt lat="43.24666517575428" lon="12.132993560920196"><ele>410.0</ele><time>2026-03-29T10:21:59.999Z</time></trkpt><trkpt lat="43.246691277504674" lon="12.133130398000825"><ele>410.0</ele><time>2026-03-29T10:22:01.999Z</time></trkpt><trkpt lat="43.24671445167684" lon="12.133271199577987"><ele>410.0</ele><time>2026-03-29T10:22:03.999Z</time></trkpt><trkpt lat="43.24673381252168" lon="12.133381067132433"><ele>410.0</ele><time>2026-03-29T10:22:05.999Z</time></trkpt><trkpt lat="43.24671916384748" lon="12.13352829350275"><ele>413.4</ele><time>2026-03-29T10:22:07.999Z</time></trkpt><trkpt lat="43.24669673177221" lon="12.133671577529464"><ele>416.8</ele><time>2026-03-29T10:22:09.999Z</time></trkpt><trkpt lat="43.24671424527212" lon="12.13378601694727"><ele>420.20000000000005</ele><time>2026-03-29T10:22:11.999Z</time></trkpt><trkpt lat="43.24663065413435" lon="12.133971636207686"><ele>423.6</ele><time>2026-03-29T10:22:34Z</time></trkpt><trkpt lat="43.24659970570204" lon="12.134061554579562"><ele>427.0</ele><time>2026-03-29T10:22:36Z</time></trkpt><trkpt lat="43.24655211931003" lon="12.134171329492041"><ele>429.00000000000006</ele><time>2026-03-29T10:22:38Z</time></trkpt><trkpt lat="43.24648681783931" lon="12.134199122934582"><ele>431.0</ele><time>2026-03-29T10:22:40Z</time></trkpt><trkpt lat="43.246499478945715" lon="12.13432295988495"><ele>433.0</ele><time>2026-03-29T10:22:42Z</time></trkpt><trkpt lat="43.24652078430269" lon="12.134426643207316"><ele>435.0</ele><time>2026-03-29T10:22:44Z</time></trkpt><trkpt lat="43.24645284352434" lon="12.134496448179213"><ele>437.00000000000006</ele><time>2026-03-29T10:22:46Z</time></trkpt><trkpt lat="43.24640084971189" lon="12.134596437902209"><ele>439.0</ele><time>2026-03-29T10:22:48Z</time></trkpt><trkpt lat="43.24633529062531" lon="12.134595283170437"><ele>442.6666666666667</ele><time>2026-03-29T10:22:51Z</time></trkpt><trkpt lat="43.24628060360415" lon="12.134529189151678"><ele>446.33333333333337</ele><time>2026-03-29T10:22:52Z</time></trkpt><trkpt lat="43.24620442420065" lon="12.134503047175807"><ele>450.0</ele><time>2026-03-29T10:22:53Z</time></trkpt><trkpt lat="43.24612172534262" lon="12.134498087596915"><ele>453.66666666666663</ele><time>2026-03-29T10:22:54Z</time></trkpt><trkpt lat="43.24599971621287" lon="12.134531365536965"><ele>457.3333333333333</ele><time>2026-03-29T10:22:56Z</time></trkpt><trkpt lat="43.245917601825774" lon="12.13453064712339"><ele>461.0</ele><time>2026-03-29T10:22:57Z</time></trkpt><trkpt lat="43.24583139019134" lon="12.134537180867271"><ele>460.99999999999994</ele><time>2026-03-29T10:22:58Z</time></trkpt><trkpt lat="43.245733007253484" lon="12.134544907579778"><ele>461.0</ele><time>2026-03-29T10:22:59Z</time></trkpt><trkpt lat="43.24566338624699" lon="12.13453324073101"><ele>461.0</ele><time>2026-03-29T10:23:00Z</time></trkpt><trkpt lat="43.245600569851476" lon="12.13450326156972"><ele>461.0</ele><time>2026-03-29T10:23:01Z</time></trkpt><trkpt lat="43.245538494069294" lon="12.134472512352513"><ele>460.99999999999994</ele><time>2026-03-29T10:23:02Z</time></trkpt><trkpt lat="43.24543376308619" lon="12.134494811048697"><ele>461.0</ele><time>2026-03-29T10:23:04Z</time></trkpt><trkpt lat="43.24536904515235" lon="12.134532253250377"><ele>465.4</ele><time>2026-03-29T10:23:05Z</time></trkpt><trkpt lat="43.245290141141695" lon="12.134554376677162"><ele>469.8</ele><time>2026-03-29T10:23:06Z</time></trkpt><trkpt lat="43.24522176324856" lon="12.134556183361012"><ele>474.19999999999993</ele><time>2026-03-29T10:23:07Z</time></trkpt><trkpt lat="43.245104306573985" lon="12.13455865688351"><ele>478.59999999999997</ele><time>2026-03-29T10:23:09Z</time></trkpt><trkpt lat="43.24500464723853" lon="12.134596393137596"><ele>483.0</ele><time>2026-03-29T10:23:10.999Z</time></trkpt><trkpt lat="43.24489796098581" lon="12.134613932932698"><ele>486.8333333333333</ele><time>2026-03-29T10:23:12.999Z</time></trkpt><trkpt lat="43.244775026469824" lon="12.134637371707807"><ele>490.66666666666663</ele><time>2026-03-29T10:23:14.999Z</time></trkpt><trkpt lat="43.24471232987158" lon="12.134659492237603"><ele>494.5</ele><time>2026-03-29T10:23:15.999Z</time></trkpt><trkpt lat="43.24464967626779" lon="12.134638390874795"><ele>498.3333333333333</ele><time>2026-03-29T10:23:17.999Z</time></trkpt><trkpt lat="43.244661284328615" lon="12.134534966490996"><ele>502.16666666666663</ele><time>2026-03-29T10:25:22.999Z</time></trkpt><trkpt lat="43.24461949493307" lon="12.134457882972239"><ele>506.0</ele><time>2026-03-29T10:25:24.999Z</time></trkpt><trkpt lat="43.244532905434" lon="12.13444492677373"><ele>506.0</ele><time>2026-03-29T10:25:26.999Z</time></trkpt><trkpt lat="43.24441642390037" lon="12.134415890095024"><ele>506.0</ele><time>2026-03-29T10:25:28.999Z</time></trkpt><trkpt lat="43.24436171394722" lon="12.134298371225439"><ele>506.0</ele><time>2026-03-29T10:25:30.999Z</time></trkpt><trkpt lat="43.244295666906034" lon="12.134230735875978"><ele>506.0</ele><time>2026-03-29T10:25:31.999Z</time></trkpt><trkpt lat="43.24420386251819" lon="12.134159920737677"><ele>506.0</ele><time>2026-03-29T10:25:32.999Z</time></trkpt><trkpt lat="43.24411446687514" lon="12.134094875801745"><ele>505.99999999999994</ele><time>2026-03-29T10:25:33.999Z</time></trkpt><trkpt lat="43.24404733642506" lon="12.13407145501641"><ele>506.0</ele><time>2026-03-29T10:25:34.999Z</time></trkpt><trkpt lat="43.24398376972938" lon="12.134047187485983"><ele>506.0</ele><time>2026-03-29T10:25:35.999Z</time></trkpt><trkpt lat="43.24393188754413" lon="12.133961928217769"><ele>506.0</ele><time>2026-03-29T10:25:37.999Z</time></trkpt><trkpt lat="43.24390220132425" lon="12.133844031535777"><ele>505.99999999999994</ele><time>2026-03-29T10:25:39.999Z</time></trkpt><trkpt lat="43.24385687315732" lon="12.133720908401694"><ele>506.0</ele><time>2026-03-29T10:25:41.999Z</time></trkpt><trkpt lat="43.243808038696685" lon="12.133665030792525"><ele>509.16666666666663</ele><time>2026-03-29T10:25:42.999Z</time></trkpt><trkpt lat="43.24374867856947" lon="12.133616371203154"><ele>512.3333333333333</ele><time>2026-03-29T10:25:43.999Z</time></trkpt><trkpt lat="43.24369226450675" lon="12.133577636051362"><ele>515.5</ele><time>2026-03-29T10:25:44.999Z</time></trkpt><trkpt lat="43.24360724532594" lon="12.1335212547218"><ele>518.6666666666666</ele><time>2026-03-29T10:25:45.999Z</time></trkpt><trkpt lat="43.243543411469695" lon="12.13344445658145"><ele>521.8333333333334</ele><time>2026-03-29T10:25:46.999Z</time></trkpt><trkpt lat="43.243500166900425" lon="12.133358919247742"><ele>525.0</ele><time>2026-03-29T10:25:47.999Z</time></trkpt><trkpt lat="43.24342050200931" lon="12.133228305012294"><ele>521.4</ele><time>2026-03-29T10:25:49.999Z</time></trkpt><trkpt lat="43.243378921768176" lon="12.133147408957225"><ele>517.8</ele><time>2026-03-29T10:25:50.999Z</time></trkpt><trkpt lat="43.243341553098624" lon="12.133045003456486"><ele>514.2</ele><time>2026-03-29T10:25:51.999Z</time></trkpt><trkpt lat="43.243299907211814" lon="12.132892645941876"><ele>510.6</ele><time>2026-03-29T10:25:53.999Z</time></trkpt><trkpt lat="43.24325015075437" lon="12.132773619950507"><ele>507.0</ele><time>2026-03-29T10:25:55.999Z</time></trkpt><trkpt lat="43.24319088078009" lon="12.132662159135284"><ele>507.0</ele><time>2026-03-29T10:25:57.999Z</time></trkpt><trkpt lat="43.24312127981628" lon="12.132571327844069"><ele>507.0</ele><time>2026-03-29T10:25:59.999Z</time></trkpt><trkpt lat="43.243061633022485" lon="12.132497522438982"><ele>507.0</ele><time>2026-03-29T10:26:01.999Z</time></trkpt><trkpt lat="43.24299874415724" lon="12.132453958564748"><ele>507.0</ele><time>2026-03-29T10:26:51Z</time></trkpt><trkpt lat="43.24300197265034" lon="12.132543292276468"><ele>507.0</ele><time>2026-03-29T10:26:54Z</time></trkpt><trkpt lat="43.24308993555944" lon="12.132642199909611"><ele>507.0</ele><time>2026-03-29T10:26:56Z</time></trkpt><trkpt lat="43.24314478455063" lon="12.132721888736304"><ele>507.0</ele><time>2026-03-29T10:26:57Z</time></trkpt><trkpt lat="43.243181715725264" lon="12.13281787286417"><ele>507.00000000000006</ele><time>2026-03-29T10:26:58Z</time></trkpt><trkpt lat="43.24316738691392" lon="12.132972550892086"><ele>507.00000000000006</ele><time>2026-03-29T10:27:00Z</time></trkpt><trkpt lat="43.2431152333902" lon="12.133103294888095"><ele>507.0</ele><time>2026-03-29T10:27:02Z</time></trkpt><trkpt lat="43.24304723074962" lon="12.133113588961937"><ele>507.0</ele><time>2026-03-29T10:27:05Z</time></trkpt><trkpt lat="43.242948035051064" lon="12.133128308076067"><ele>510.6666666666667</ele><time>2026-03-29T10:27:07Z</time></trkpt><trkpt lat="43.24285802558622" lon="12.133150767861252"><ele>514.3333333333334</ele><time>2026-03-29T10:27:09Z</time></trkpt><trkpt lat="43.242799339143595" lon="12.133200973153361"><ele>518.0</ele><time>2026-03-29T10:27:12Z</time></trkpt><trkpt lat="43.242794020594914" lon="12.1333540884573"><ele>521.6666666666667</ele><time>2026-03-29T10:27:14Z</time></trkpt><trkpt lat="43.24282496189859" lon="12.133448104665197"><ele>525.3333333333334</ele><time>2026-03-29T10:27:15Z</time></trkpt><trkpt lat="43.24285907006605" lon="12.133569635777167"><ele>529.0</ele><time>2026-03-29T10:27:16.999Z</time></trkpt><trkpt lat="43.24284928505449" lon="12.133680868824865"><ele>533.6</ele><time>2026-03-29T10:27:18.999Z</time></trkpt><trkpt lat="43.24288642216451" lon="12.13384638639679"><ele>538.2</ele><time>2026-03-29T10:27:20.999Z</time></trkpt><trkpt lat="43.24288650446663" lon="12.133991668830763"><ele>542.8000000000001</ele><time>2026-03-29T10:27:22.999Z</time></trkpt><trkpt lat="43.242840037888705" lon="12.134137451130893"><ele>547.4</ele><time>2026-03-29T10:27:24.999Z</time></trkpt><trkpt lat="43.24279958060242" lon="12.134219187175706"><ele>552.0</ele><time>2026-03-29T10:27:25.999Z</time></trkpt><trkpt lat="43.24274054082249" lon="12.134311340231433"><ele>553.1666666666666</ele><time>2026-03-29T10:27:27.999Z</time></trkpt><trkpt lat="43.24265054608211" lon="12.134284015346378"><ele>554.3333333333334</ele><time>2026-03-29T10:27:30.999Z</time></trkpt><trkpt lat="43.242562002301796" lon="12.134227031328063"><ele>555.5</ele><time>2026-03-29T10:27:32.999Z</time></trkpt><trkpt lat="43.24250992282271" lon="12.134176692983434"><ele>556.6666666666667</ele><time>2026-03-29T10:27:33.999Z</time></trkpt><trkpt lat="43.24244778615955" lon="12.134128179654205"><ele>557.8333333333334</ele><time>2026-03-29T10:27:34.999Z</time></trkpt><trkpt lat="43.24236545622912" lon="12.134082364980227"><ele>559.0</ele><time>2026-03-29T10:27:35.999Z</time></trkpt><trkpt lat="43.24228948119631" lon="12.134052798898722"><ele>562.2</ele><time>2026-03-29T10:27:36.999Z</time></trkpt><trkpt lat="43.242219756842864" lon="12.134031042284"><ele>565.4</ele><time>2026-03-29T10:27:37.999Z</time></trkpt><trkpt lat="43.24215377743637" lon="12.134005361581439"><ele>568.6</ele><time>2026-03-29T10:27:38.999Z</time></trkpt><trkpt lat="43.2420826190106" lon="12.13397052918528"><ele>571.8</ele><time>2026-03-29T10:27:39.999Z</time></trkpt><trkpt lat="43.24195582829783" lon="12.133916860390128"><ele>575.0</ele><time>2026-03-29T10:27:40.999Z</time></trkpt><trkpt lat="43.24185344910737" lon="12.133839803721347"><ele>575.0</ele><time>2026-03-29T10:27:42.999Z</time></trkpt><trkpt lat="43.2417893611098" lon="12.133823055238102"><ele>575.0</ele><time>2026-03-29T10:27:43.999Z</time></trkpt><trkpt lat="43.241710152751445" lon="12.133808602672884"><ele>575.0</ele><time>2026-03-29T10:27:44.999Z</time></trkpt><trkpt lat="43.24163577860677" lon="12.133778691139494"><ele>575.0</ele><time>2026-03-29T10:27:45.999Z</time></trkpt><trkpt lat="43.24156411655608" lon="12.13374092223981"><ele>575.0</ele><time>2026-03-29T10:27:46.999Z</time></trkpt><trkpt lat="43.241504753937136" lon="12.133709141446149"><ele>575.0</ele><time>2026-03-29T10:27:47.999Z</time></trkpt><trkpt lat="43.24137767313574" lon="12.133654211782595"><ele>580.4</ele><time>2026-03-29T10:27:49.999Z</time></trkpt><trkpt lat="43.241307276329835" lon="12.13363681343032"><ele>585.8</ele><time>2026-03-29T10:27:50.999Z</time></trkpt><trkpt lat="43.24124467659685" lon="12.133626487421969"><ele>591.2</ele><time>2026-03-29T10:27:51.999Z</time></trkpt><trkpt lat="43.2411274951543" lon="12.133642850950658"><ele>596.6</ele><time>2026-03-29T10:27:53.999Z</time></trkpt><trkpt lat="43.24102468938498" lon="12.1336514808618"><ele>602.0</ele><time>2026-03-29T10:27:55.999Z</time></trkpt><trkpt lat="43.240900139725916" lon="12.13367499827798"><ele>602.0</ele><time>2026-03-29T10:27:57.999Z</time></trkpt><trkpt lat="43.24080402242337" lon="12.133620481246957"><ele>602.0</ele><time>2026-03-29T10:27:59.999Z</time></trkpt><trkpt lat="43.24072788491323" lon="12.133591161298062"><ele>602.0</ele><time>2026-03-29T10:28:01.999Z</time></trkpt><trkpt lat="43.24064642849536" lon="12.133569622129706"><ele>602.0</ele><time>2026-03-29T10:28:05.999Z</time></trkpt><trkpt lat="43.24057391580422" lon="12.133536067259099"><ele>602.0</ele><time>2026-03-29T10:28:07.999Z</time></trkpt><trkpt lat="43.24045891362282" lon="12.133496445610847"><ele>607.2</ele><time>2026-03-29T10:28:09.999Z</time></trkpt><trkpt lat="43.240395411943496" lon="12.133473640934975"><ele>612.4000000000001</ele><time>2026-03-29T10:28:10.999Z</time></trkpt><trkpt lat="43.24028805272125" lon="12.133441986624735"><ele>617.5999999999999</ele><time>2026-03-29T10:28:12.999Z</time></trkpt><trkpt lat="43.24017960245427" lon="12.133417298141099"><ele>622.8</ele><time>2026-03-29T10:28:14.999Z</time></trkpt><trkpt lat="43.24007175228112" lon="12.133400498627589"><ele>628.0</ele><time>2026-03-29T10:28:16.999Z</time></trkpt><trkpt lat="43.23996979448317" lon="12.13331604408658"><ele>628.0</ele><time>2026-03-29T10:28:18.999Z</time></trkpt><trkpt lat="43.239913131339385" lon="12.133270566297002"><ele>628.0</ele><time>2026-03-29T10:28:19.998Z</time></trkpt><trkpt lat="43.23980799843767" lon="12.133191168901293"><ele>628.0</ele><time>2026-03-29T10:28:21.998Z</time></trkpt><trkpt lat="43.23970774499312" lon="12.133145259392009"><ele>628.0</ele><time>2026-03-29T10:28:23.998Z</time></trkpt><trkpt lat="43.23959932989139" lon="12.133096037788137"><ele>628.0</ele><time>2026-03-29T10:28:25.998Z</time></trkpt><trkpt lat="43.23951400922884" lon="12.133033421090106"><ele>631.8333333333334</ele><time>2026-03-29T10:28:27.998Z</time></trkpt><trkpt lat="43.23943592898597" lon="12.132987812251242"><ele>635.6666666666667</ele><time>2026-03-29T10:28:30.998Z</time></trkpt><trkpt lat="43.239380638059174" lon="12.13303540518661"><ele>639.5</ele><time>2026-03-29T10:28:56Z</time></trkpt><trkpt lat="43.239325138512726" lon="12.13308022518491"><ele>643.3333333333334</ele><time>2026-03-29T10:28:57Z</time></trkpt><trkpt lat="43.23920900727362" lon="12.133112945627857"><ele>647.1666666666666</ele><time>2026-03-29T10:28:59Z</time></trkpt><trkpt lat="43.239123336415005" lon="12.133102522113395"><ele>651.0</ele><time>2026-03-29T10:29:00Z</time></trkpt><trkpt lat="43.23902189387501" lon="12.13308311176792"><ele>651.8333333333334</ele><time>2026-03-29T10:29:01Z</time></trkpt><trkpt lat="43.238948894830884" lon="12.133069375267068"><ele>652.6666666666666</ele><time>2026-03-29T10:29:02Z</time></trkpt><trkpt lat="43.23891548306376" lon="12.132935882480343"><ele>653.5</ele><time>2026-03-29T10:29:04Z</time></trkpt><trkpt lat="43.23890765346467" lon="12.13281595037169"><ele>654.3333333333333</ele><time>2026-03-29T10:29:05Z</time></trkpt><trkpt lat="43.23888223712791" lon="12.13270494965725"><ele>655.1666666666666</ele><time>2026-03-29T10:29:06Z</time></trkpt><trkpt lat="43.23883904247733" lon="12.13263151174038"><ele>656.0</ele><time>2026-03-29T10:29:07Z</time></trkpt><trkpt lat="43.238750928592715" lon="12.132531746449892"><ele>656.0</ele><time>2026-03-29T10:29:09Z</time></trkpt><trkpt lat="43.23864370562227" lon="12.13247525593293"><ele>656.0</ele><time>2026-03-29T10:29:11Z</time></trkpt><trkpt lat="43.238568542067334" lon="12.132435785561329"><ele>656.0</ele><time>2026-03-29T10:29:12Z</time></trkpt><trkpt lat="43.23849751011668" lon="12.132392829300569"><ele>656.0</ele><time>2026-03-29T10:29:13Z</time></trkpt><trkpt lat="43.23842779467762" lon="12.132344494954495"><ele>656.0</ele><time>2026-03-29T10:29:14Z</time></trkpt><trkpt lat="43.23835511221138" lon="12.132308456631884"><ele>656.0</ele><time>2026-03-29T10:29:15Z</time></trkpt><trkpt lat="43.23828339984402" lon="12.132284836138165"><ele>659.1666666666666</ele><time>2026-03-29T10:29:16Z</time></trkpt><trkpt lat="43.23821246776095" lon="12.132271368958728"><ele>662.3333333333333</ele><time>2026-03-29T10:29:16.999Z</time></trkpt><trkpt lat="43.23813087809256" lon="12.1322621612761"><ele>665.5</ele><time>2026-03-29T10:29:17.999Z</time></trkpt><trkpt lat="43.23804744027912" lon="12.132259122476961"><ele>668.6666666666666</ele><time>2026-03-29T10:29:18.999Z</time></trkpt><trkpt lat="43.237966106813104" lon="12.132261237302979"><ele>671.8333333333334</ele><time>2026-03-29T10:29:19.999Z</time></trkpt><trkpt lat="43.23789765968368" lon="12.132264128707018"><ele>675.0</ele><time>2026-03-29T10:29:20.999Z</time></trkpt><trkpt lat="43.237827607944176" lon="12.13226974159953"><ele>675.6666666666666</ele><time>2026-03-29T10:29:21.999Z</time></trkpt><trkpt lat="43.237753581482636" lon="12.132273819069177"><ele>676.3333333333334</ele><time>2026-03-29T10:29:22.999Z</time></trkpt><trkpt lat="43.2376654386363" lon="12.13226843062462"><ele>677.0</ele><time>2026-03-29T10:29:23.999Z</time></trkpt><trkpt lat="43.23758058626513" lon="12.132283469595738"><ele>677.6666666666667</ele><time>2026-03-29T10:29:24.999Z</time></trkpt><trkpt lat="43.23751506148047" lon="12.132301505884767"><ele>678.3333333333334</ele><time>2026-03-29T10:29:25.999Z</time></trkpt><trkpt lat="43.23740996344303" lon="12.132331629598196"><ele>679.0</ele><time>2026-03-29T10:29:26.999Z</time></trkpt><trkpt lat="43.237311661369546" lon="12.132380954101698"><ele>674.8000000000001</ele><time>2026-03-29T10:29:27.999Z</time></trkpt><trkpt lat="43.23722096981958" lon="12.132437913976762"><ele>670.6</ele><time>2026-03-29T10:29:28.999Z</time></trkpt><trkpt lat="43.237134451630176" lon="12.132500674168117"><ele>666.4</ele><time>2026-03-29T10:29:29.999Z</time></trkpt><trkpt lat="43.23706677045427" lon="12.132558777931044"><ele>662.2</ele><time>2026-03-29T10:29:30.999Z</time></trkpt><trkpt lat="43.237001588795884" lon="12.13260515706231"><ele>658.0</ele><time>2026-03-29T10:29:31.999Z</time></trkpt><trkpt lat="43.236884560611294" lon="12.13261246739391"><ele>658.0</ele><time>2026-03-29T10:29:33.999Z</time></trkpt><trkpt lat="43.23678818163913" lon="12.132515918363742"><ele>658.0</ele><time>2026-03-29T10:29:35.999Z</time></trkpt><trkpt lat="43.23672123692144" lon="12.132424045046367"><ele>658.0</ele><time>2026-03-29T10:29:36.999Z</time></trkpt><trkpt lat="43.23664650096279" lon="12.132323183028296"><ele>658.0</ele><time>2026-03-29T10:29:37.999Z</time></trkpt><trkpt lat="43.236562225047315" lon="12.13222545627722"><ele>658.0</ele><time>2026-03-29T10:29:38.999Z</time></trkpt><trkpt lat="43.23647015653101" lon="12.132159946963995"><ele>663.5</ele><time>2026-03-29T10:29:39.999Z</time></trkpt><trkpt lat="43.236352453510946" lon="12.132093027933601"><ele>669.0</ele><time>2026-03-29T10:29:40.999Z</time></trkpt><trkpt lat="43.236218701019965" lon="12.132017534731423"><ele>674.5</ele><time>2026-03-29T10:29:41.999Z</time></trkpt><trkpt lat="43.236085971465776" lon="12.13192903213784"><ele>680.0</ele><time>2026-03-29T10:29:42.999Z</time></trkpt><trkpt lat="43.23597610230541" lon="12.131829449815829"><ele>680.0</ele><time>2026-03-29T10:29:43.999Z</time></trkpt><trkpt lat="43.23590157113966" lon="12.131764098447741"><ele>680.0</ele><time>2026-03-29T10:29:44.999Z</time></trkpt><trkpt lat="43.23582821225514" lon="12.13175260376439"><ele>680.0</ele><time>2026-03-29T10:29:45.999Z</time></trkpt><trkpt lat="43.23574837477513" lon="12.13177458825246"><ele>680.0</ele><time>2026-03-29T10:29:46.999Z</time></trkpt><trkpt lat="43.235673822162816" lon="12.131846094367187"><ele>680.0</ele><time>2026-03-29T10:29:47.999Z</time></trkpt><trkpt lat="43.2355937052287" lon="12.131972374841888"><ele>684.4</ele><time>2026-03-29T10:29:48.999Z</time></trkpt><trkpt lat="43.23551861683041" lon="12.132062172551493"><ele>688.8</ele><time>2026-03-29T10:29:49.999Z</time></trkpt><trkpt lat="43.23545452286221" lon="12.132093803370365"><ele>693.2</ele><time>2026-03-29T10:29:50.999Z</time></trkpt><trkpt lat="43.23537236878729" lon="12.132094642336396"><ele>697.6</ele><time>2026-03-29T10:29:51.999Z</time></trkpt><trkpt lat="43.23523996672601" lon="12.132063040808717"><ele>702.0</ele><time>2026-03-29T10:29:52.999Z</time></trkpt><trkpt lat="43.2350780784115" lon="12.132034896026665"><ele>702.0</ele><time>2026-03-29T10:29:53.999Z</time></trkpt><trkpt lat="43.23491043267123" lon="12.132018250468041"><ele>702.0</ele><time>2026-03-29T10:29:54.999Z</time></trkpt><trkpt lat="43.23475785834029" lon="12.132044519665229"><ele>702.0</ele><time>2026-03-29T10:29:55.999Z</time></trkpt><trkpt lat="43.23461041877806" lon="12.132096883769234"><ele>704.2</ele><time>2026-03-29T10:29:56.999Z</time></trkpt><trkpt lat="43.23447294217975" lon="12.1321582005496"><ele>706.4000000000001</ele><time>2026-03-29T10:29:57.999Z</time></trkpt><trkpt lat="43.23437047750949" lon="12.132191365000585"><ele>708.5999999999999</ele><time>2026-03-29T10:29:58.999Z</time></trkpt><trkpt lat="43.23427891807495" lon="12.132151214750149"><ele>710.8</ele><time>2026-03-29T10:29:59.999Z</time></trkpt><trkpt lat="43.23419584208528" lon="12.132135714995039"><ele>713.0</ele><time>2026-03-29T10:30:00.999Z</time></trkpt><trkpt lat="43.23410981594806" lon="12.132055887122986"><ele>713.0</ele><time>2026-03-29T10:30:01.999Z</time></trkpt><trkpt lat="43.234007299729384" lon="12.13196696560697"><ele>713.0</ele><time>2026-03-29T10:30:02.999Z</time></trkpt><trkpt lat="43.233888166039556" lon="12.131862446881687"><ele>713.0</ele><time>2026-03-29T10:30:03.999Z</time></trkpt><trkpt lat="43.233759912876415" lon="12.13175164043202"><ele>713.0</ele><time>2026-03-29T10:30:04.999Z</time></trkpt><trkpt lat="43.23364274679456" lon="12.131652755212938"><ele>714.0</ele><time>2026-03-29T10:30:05.999Z</time></trkpt><trkpt lat="43.23356070511692" lon="12.131591779482955"><ele>715.0</ele><time>2026-03-29T10:30:06.999Z</time></trkpt><trkpt lat="43.23345361261034" lon="12.13154368535644"><ele>716.0</ele><time>2026-03-29T10:30:08.999Z</time></trkpt><trkpt lat="43.23335917197903" lon="12.131591843290963"><ele>717.0</ele><time>2026-03-29T10:30:09.999Z</time></trkpt><trkpt lat="43.2333150490111" lon="12.131784697913092"><ele>717.0</ele><time>2026-03-29T10:30:10.999Z</time></trkpt><trkpt lat="43.233275696298335" lon="12.131924276260124"><ele>717.0</ele><time>2026-03-29T10:30:11.999Z</time></trkpt><trkpt lat="43.23322784160946" lon="12.132051978087281"><ele>717.0</ele><time>2026-03-29T10:30:12.999Z</time></trkpt><trkpt lat="43.233173700084585" lon="12.13214114698169"><ele>717.0</ele><time>2026-03-29T10:30:13.999Z</time></trkpt><trkpt lat="43.233101754491834" lon="12.132209491585199"><ele>717.0</ele><time>2026-03-29T10:30:14.999Z</time></trkpt><trkpt lat="43.233014384702166" lon="12.132255003978377"><ele>719.75</ele><time>2026-03-29T10:30:15.999Z</time></trkpt><trkpt lat="43.232914000281845" lon="12.13226648977238"><ele>722.5</ele><time>2026-03-29T10:30:16.999Z</time></trkpt><trkpt lat="43.232781957642835" lon="12.132255323589131"><ele>725.25</ele><time>2026-03-29T10:30:17.998Z</time></trkpt><trkpt lat="43.23262726068385" lon="12.132244189694266"><ele>728.0</ele><time>2026-03-29T10:30:18.998Z</time></trkpt><trkpt lat="43.2324761644124" lon="12.13223384341568"><ele>728.0</ele><time>2026-03-29T10:30:19.998Z</time></trkpt><trkpt lat="43.23235530193928" lon="12.132237781668291"><ele>728.0</ele><time>2026-03-29T10:30:20.998Z</time></trkpt><trkpt lat="43.23221522602738" lon="12.13228756901558"><ele>728.0</ele><time>2026-03-29T10:30:21.998Z</time></trkpt><trkpt lat="43.23206559120887" lon="12.13238502203629"><ele>728.0</ele><time>2026-03-29T10:30:22.998Z</time></trkpt><trkpt lat="43.23192025625174" lon="12.132481164494116"><ele>727.2</ele><time>2026-03-29T10:30:23.998Z</time></trkpt><trkpt lat="43.231808518726" lon="12.13255160535204"><ele>726.4</ele><time>2026-03-29T10:30:24.998Z</time></trkpt><trkpt lat="43.23172274137401" lon="12.1325878820861"><ele>725.6</ele><time>2026-03-29T10:30:25.998Z</time></trkpt><trkpt lat="43.23164286298265" lon="12.13259866922914"><ele>724.8000000000001</ele><time>2026-03-29T10:30:26.998Z</time></trkpt><trkpt lat="43.23155804909237" lon="12.13259023769229"><ele>724.0</ele><time>2026-03-29T10:30:27.998Z</time></trkpt><trkpt lat="43.23146913624487" lon="12.132539209373178"><ele>724.0</ele><time>2026-03-29T10:30:28.998Z</time></trkpt><trkpt lat="43.231382554855614" lon="12.132468362011881"><ele>724.0</ele><time>2026-03-29T10:30:29.998Z</time></trkpt><trkpt lat="43.23132315278496" lon="12.132406992908823"><ele>724.0</ele><time>2026-03-29T10:30:30.998Z</time></trkpt><trkpt lat="43.23124542286647" lon="12.132299400776471"><ele>724.0</ele><time>2026-03-29T10:30:32.998Z</time></trkpt><trkpt lat="43.23116547535136" lon="12.132302443245715"><ele>724.0</ele><time>2026-03-29T10:30:33.998Z</time></trkpt><trkpt lat="43.23107566986772" lon="12.13232546931048"><ele>724.0</ele><time>2026-03-29T10:30:35.998Z</time></trkpt><trkpt lat="43.23106370103986" lon="12.132604573754406"><ele>724.0</ele><time>2026-03-29T10:30:36.998Z</time></trkpt><trkpt lat="43.231024917867124" lon="12.132726527357564"><ele>724.0</ele><time>2026-03-29T10:30:38.998Z</time></trkpt><trkpt lat="43.230983118641916" lon="12.132871602277474"><ele>724.0</ele><time>2026-03-29T10:30:40.998Z</time></trkpt><trkpt lat="43.230951257388895" lon="12.132982184213702"><ele>724.0</ele><time>2026-03-29T10:30:41.998Z</time></trkpt><trkpt lat="43.230932714782746" lon="12.133099210557642"><ele>724.0</ele><time>2026-03-29T10:30:42.998Z</time></trkpt><trkpt lat="43.2309552964093" lon="12.133209060835956"><ele>724.0</ele><time>2026-03-29T10:30:43.998Z</time></trkpt><trkpt lat="43.230953106404996" lon="12.133397008230483"><ele>724.0</ele><time>2026-03-29T10:30:45.998Z</time></trkpt><trkpt lat="43.23096280300425" lon="12.133508035954277"><ele>724.0</ele><time>2026-03-29T10:30:46.998Z</time></trkpt><trkpt lat="43.23097619562787" lon="12.133630471998776"><ele>724.1666666666667</ele><time>2026-03-29T10:30:47.998Z</time></trkpt><trkpt lat="43.23099473830858" lon="12.133778225413447"><ele>724.3333333333334</ele><time>2026-03-29T10:30:48.998Z</time></trkpt><trkpt lat="43.2310256752373" lon="12.133899814344836"><ele>724.5</ele><time>2026-03-29T10:30:49.998Z</time></trkpt><trkpt lat="43.231021381972326" lon="12.133989108501591"><ele>724.6666666666666</ele><time>2026-03-29T10:30:50.998Z</time></trkpt><trkpt lat="43.23105919730936" lon="12.134072805020548"><ele>724.8333333333333</ele><time>2026-03-29T10:30:51.998Z</time></trkpt><trkpt lat="43.23106691871889" lon="12.134187936515122"><ele>725.0</ele><time>2026-03-29T10:30:52.998Z</time></trkpt><trkpt lat="43.23107714433224" lon="12.134303676215282"><ele>725.3333333333333</ele><time>2026-03-29T10:30:53.998Z</time></trkpt><trkpt lat="43.23108264795025" lon="12.134415406660723"><ele>725.6666666666666</ele><time>2026-03-29T10:30:55Z</time></trkpt><trkpt lat="43.23107991033617" lon="12.134544302349434"><ele>726.0</ele><time>2026-03-29T10:30:56Z</time></trkpt><trkpt lat="43.23106609389848" lon="12.134672191066771"><ele>726.3333333333334</ele><time>2026-03-29T10:30:57Z</time></trkpt><trkpt lat="43.23106855082113" lon="12.134791474175058"><ele>726.6666666666667</ele><time>2026-03-29T10:30:58Z</time></trkpt><trkpt lat="43.23106753366204" lon="12.134909299937833"><ele>727.0</ele><time>2026-03-29T10:30:59Z</time></trkpt><trkpt lat="43.23106634214952" lon="12.135021493511392"><ele>726.0</ele><time>2026-03-29T10:31:00Z</time></trkpt><trkpt lat="43.2310570443076" lon="12.135130946895393"><ele>725.0</ele><time>2026-03-29T10:31:01Z</time></trkpt><trkpt lat="43.23105496381972" lon="12.135231969224357"><ele>724.0</ele><time>2026-03-29T10:31:02Z</time></trkpt><trkpt lat="43.23104288716356" lon="12.135323584423247"><ele>723.0</ele><time>2026-03-29T10:31:03Z</time></trkpt><trkpt lat="43.231010290178006" lon="12.135416344347506"><ele>722.0</ele><time>2026-03-29T10:31:04Z</time></trkpt><trkpt lat="43.23096739074643" lon="12.135495198810238"><ele>721.0</ele><time>2026-03-29T10:31:05Z</time></trkpt><trkpt lat="43.23091292171648" lon="12.135562053530709"><ele>720.0</ele><time>2026-03-29T10:31:06Z</time></trkpt><trkpt lat="43.230830181425446" lon="12.135617949191824"><ele>720.0</ele><time>2026-03-29T10:31:07Z</time></trkpt><trkpt lat="43.230754924575905" lon="12.135621921775208"><ele>720.0</ele><time>2026-03-29T10:31:08Z</time></trkpt><trkpt lat="43.23068330889977" lon="12.13565693622365"><ele>720.0</ele><time>2026-03-29T10:31:09Z</time></trkpt><trkpt lat="43.230589954155754" lon="12.13568124793733"><ele>720.0</ele><time>2026-03-29T10:31:10Z</time></trkpt><trkpt lat="43.23048622787648" lon="12.135730108869293"><ele>720.0</ele><time>2026-03-29T10:31:11Z</time></trkpt><trkpt lat="43.23040223259194" lon="12.135803034059856"><ele>719.0</ele><time>2026-03-29T10:31:12Z</time></trkpt><trkpt lat="43.23031244615436" lon="12.135823256027187"><ele>718.0</ele><time>2026-03-29T10:31:13Z</time></trkpt><trkpt lat="43.23024253325042" lon="12.135870919521023"><ele>717.0</ele><time>2026-03-29T10:31:14Z</time></trkpt><trkpt lat="43.2301403770426" lon="12.135933645794346"><ele>716.0</ele><time>2026-03-29T10:31:16Z</time></trkpt><trkpt lat="43.230078819164284" lon="12.13597163113299"><ele>715.0</ele><time>2026-03-29T10:31:17Z</time></trkpt><trkpt lat="43.230001662473875" lon="12.136025650564426"><ele>714.0</ele><time>2026-03-29T10:31:18Z</time></trkpt><trkpt lat="43.22993562907425" lon="12.136089484618145"><ele>714.0</ele><time>2026-03-29T10:31:19Z</time></trkpt><trkpt lat="43.22988244404258" lon="12.136158718871934"><ele>714.0</ele><time>2026-03-29T10:31:20Z</time></trkpt><trkpt lat="43.2298350968975" lon="12.136259899467632"><ele>714.0</ele><time>2026-03-29T10:31:20.999Z</time></trkpt><trkpt lat="43.22975498300197" lon="12.136352659901949"><ele>714.0</ele><time>2026-03-29T10:31:21.999Z</time></trkpt><trkpt lat="43.2296967609778" lon="12.13647812565096"><ele>714.0</ele><time>2026-03-29T10:31:22.999Z</time></trkpt><trkpt lat="43.229653125077135" lon="12.13660867897646"><ele>715.6666666666666</ele><time>2026-03-29T10:31:23.999Z</time></trkpt><trkpt lat="43.22964381272514" lon="12.136743865645348"><ele>717.3333333333334</ele><time>2026-03-29T10:31:24.999Z</time></trkpt><trkpt lat="43.22962995032715" lon="12.136849979540235"><ele>719.0</ele><time>2026-03-29T10:31:25.999Z</time></trkpt><trkpt lat="43.22962597514409" lon="12.136958684070661"><ele>720.6666666666667</ele><time>2026-03-29T10:31:26.999Z</time></trkpt><trkpt lat="43.229611165833305" lon="12.137078497284815"><ele>722.3333333333334</ele><time>2026-03-29T10:31:27.999Z</time></trkpt><trkpt lat="43.229600725971856" lon="12.137192279223152"><ele>724.0</ele><time>2026-03-29T10:31:28.999Z</time></trkpt><trkpt lat="43.22958282421197" lon="12.137300713412001"><ele>721.2</ele><time>2026-03-29T10:31:29.999Z</time></trkpt><trkpt lat="43.229589783244485" lon="12.137408268954909"><ele>718.4000000000001</ele><time>2026-03-29T10:31:30.999Z</time></trkpt><trkpt lat="43.2295351119604" lon="12.137577344875083"><ele>715.6</ele><time>2026-03-29T10:31:32.999Z</time></trkpt><trkpt lat="43.22949481458783" lon="12.137720614546328"><ele>712.8</ele><time>2026-03-29T10:31:33.999Z</time></trkpt><trkpt lat="43.22946577997144" lon="12.137866606817749"><ele>710.0</ele><time>2026-03-29T10:31:34.999Z</time></trkpt><trkpt lat="43.22945215224418" lon="12.137973412268193"><ele>710.0</ele><time>2026-03-29T10:31:35.999Z</time></trkpt><trkpt lat="43.22945453317462" lon="12.138085394672013"><ele>710.0</ele><time>2026-03-29T10:31:36.999Z</time></trkpt><trkpt lat="43.22945113271123" lon="12.138196244750532"><ele>710.0</ele><time>2026-03-29T10:31:37.999Z</time></trkpt><trkpt lat="43.2294392913426" lon="12.138287575764219"><ele>710.0</ele><time>2026-03-29T10:31:38.999Z</time></trkpt><trkpt lat="43.2294601201165" lon="12.138438818543715"><ele>710.0</ele><time>2026-03-29T10:31:40.999Z</time></trkpt><trkpt lat="43.229485480968265" lon="12.13852060466015"><ele>710.0</ele><time>2026-03-29T10:31:41.999Z</time></trkpt><trkpt lat="43.229508618989996" lon="12.138619332641696"><ele>710.0</ele><time>2026-03-29T10:31:42.999Z</time></trkpt><trkpt lat="43.22955993246605" lon="12.138745061891896"><ele>710.0</ele><time>2026-03-29T10:31:43.999Z</time></trkpt><trkpt lat="43.229609583821315" lon="12.138853947512397"><ele>710.0</ele><time>2026-03-29T10:31:44.999Z</time></trkpt><trkpt lat="43.22965724391656" lon="12.138957985180161"><ele>710.0</ele><time>2026-03-29T10:31:45.999Z</time></trkpt><trkpt lat="43.22970877686463" lon="12.139064094090557"><ele>710.0</ele><time>2026-03-29T10:31:46.999Z</time></trkpt><trkpt lat="43.22975171575542" lon="12.139163793132315"><ele>709.6</ele><time>2026-03-29T10:31:47.999Z</time></trkpt><trkpt lat="43.22982527499836" lon="12.139251371265344"><ele>709.2</ele><time>2026-03-29T10:31:49.999Z</time></trkpt><trkpt lat="43.229915590867336" lon="12.139295778187291"><ele>708.8</ele><time>2026-03-29T10:31:51.999Z</time></trkpt><trkpt lat="43.22999409526712" lon="12.13946533793453"><ele>708.4</ele><time>2026-03-29T10:31:53.999Z</time></trkpt><trkpt lat="43.2300390565558" lon="12.13959316285878"><ele>708.0</ele><time>2026-03-29T10:31:54.999Z</time></trkpt><trkpt lat="43.2300832352019" lon="12.139717579287938"><ele>708.0</ele><time>2026-03-29T10:31:55.999Z</time></trkpt><trkpt lat="43.23011904141359" lon="12.139817286310132"><ele>708.0</ele><time>2026-03-29T10:31:56.999Z</time></trkpt><trkpt lat="43.23014947454785" lon="12.13990164029095"><ele>708.0</ele><time>2026-03-29T10:31:57.999Z</time></trkpt><trkpt lat="43.23021196453314" lon="12.14003122108848"><ele>708.0</ele><time>2026-03-29T10:31:59.999Z</time></trkpt><trkpt lat="43.23024741867773" lon="12.14010433053424"><ele>708.0</ele><time>2026-03-29T10:32:00.999Z</time></trkpt><trkpt lat="43.23028104528248" lon="12.140195577986729"><ele>708.0</ele><time>2026-03-29T10:32:02.999Z</time></trkpt><trkpt lat="43.23034185073222" lon="12.140279498080213"><ele>708.1666666666666</ele><time>2026-03-29T10:32:04.999Z</time></trkpt><trkpt lat="43.23039016796482" lon="12.140389138417646"><ele>708.3333333333334</ele><time>2026-03-29T10:32:06.999Z</time></trkpt><trkpt lat="43.23040616180436" lon="12.140526763928964"><ele>708.5</ele><time>2026-03-29T10:32:08.999Z</time></trkpt><trkpt lat="43.23041238625309" lon="12.140617479447062"><ele>708.6666666666667</ele><time>2026-03-29T10:32:10.999Z</time></trkpt><trkpt lat="43.23039274427698" lon="12.140705082088017"><ele>708.8333333333334</ele><time>2026-03-29T10:32:12.999Z</time></trkpt><trkpt lat="43.23038562815497" lon="12.140817260774812"><ele>709.0</ele><time>2026-03-29T10:33:24Z</time></trkpt><trkpt lat="43.23037939752533" lon="12.140922972308807"><ele>706.1666666666667</ele><time>2026-03-29T10:33:26.999Z</time></trkpt><trkpt lat="43.230347239208314" lon="12.141032656657577"><ele>703.3333333333334</ele><time>2026-03-29T10:33:28.999Z</time></trkpt><trkpt lat="43.23028723940452" lon="12.141154662605771"><ele>700.5</ele><time>2026-03-29T10:33:30.999Z</time></trkpt><trkpt lat="43.23023896494833" lon="12.141292196671854"><ele>697.6666666666666</ele><time>2026-03-29T10:33:32.999Z</time></trkpt><trkpt lat="43.2302131147468" lon="12.141376871294149"><ele>694.8333333333333</ele><time>2026-03-29T10:33:33.999Z</time></trkpt><trkpt lat="43.23018916759923" lon="12.141476138780307"><ele>692.0</ele><time>2026-03-29T10:33:34.999Z</time></trkpt><trkpt lat="43.23017354169079" lon="12.141575485629618"><ele>690.5</ele><time>2026-03-29T10:33:35.999Z</time></trkpt><trkpt lat="43.2301588688611" lon="12.141670128849539"><ele>689.0</ele><time>2026-03-29T10:33:36.999Z</time></trkpt><trkpt lat="43.23014908149227" lon="12.141755891352618"><ele>687.5</ele><time>2026-03-29T10:33:37.999Z</time></trkpt><trkpt lat="43.23012294160095" lon="12.14191538379712"><ele>686.0</ele><time>2026-03-29T10:33:39.999Z</time></trkpt><trkpt lat="43.23008501369372" lon="12.142069005201208"><ele>684.5</ele><time>2026-03-29T10:33:41.999Z</time></trkpt><trkpt lat="43.23005881905427" lon="12.142153392770647"><ele>683.0</ele><time>2026-03-29T10:33:42.999Z</time></trkpt><trkpt lat="43.230017184922936" lon="12.142234621003958"><ele>683.0</ele><time>2026-03-29T10:33:43.999Z</time></trkpt><trkpt lat="43.229973382529494" lon="12.142314676552425"><ele>683.0</ele><time>2026-03-29T10:33:44.999Z</time></trkpt><trkpt lat="43.22993933938919" lon="12.142423683539603"><ele>683.0</ele><time>2026-03-29T10:33:45.999Z</time></trkpt><trkpt lat="43.22991556330754" lon="12.142557329010577"><ele>683.0</ele><time>2026-03-29T10:33:46.999Z</time></trkpt><trkpt lat="43.22989953079776" lon="12.14269295917101"><ele>683.0</ele><time>2026-03-29T10:33:47.999Z</time></trkpt><trkpt lat="43.22988001647493" lon="12.142813378121792"><ele>681.5999999999999</ele><time>2026-03-29T10:33:48.999Z</time></trkpt><trkpt lat="43.22983983889507" lon="12.142909471151603"><ele>680.1999999999999</ele><time>2026-03-29T10:33:49.999Z</time></trkpt><trkpt lat="43.22978658360725" lon="12.142989268668837"><ele>678.8</ele><time>2026-03-29T10:33:50.999Z</time></trkpt><trkpt lat="43.22973468711629" lon="12.143088740778666"><ele>677.4</ele><time>2026-03-29T10:33:51.999Z</time></trkpt><trkpt lat="43.22967493832653" lon="12.143204894543425"><ele>676.0</ele><time>2026-03-29T10:33:52.999Z</time></trkpt><trkpt lat="43.22962505137076" lon="12.143320244762613"><ele>675.4</ele><time>2026-03-29T10:33:53.999Z</time></trkpt><trkpt lat="43.22959757620078" lon="12.143484800151624"><ele>674.8</ele><time>2026-03-29T10:33:54.999Z</time></trkpt><trkpt lat="43.22954694036624" lon="12.143620554810477"><ele>674.1999999999999</ele><time>2026-03-29T10:33:55.999Z</time></trkpt><trkpt lat="43.22951713616604" lon="12.143726259416784"><ele>673.5999999999999</ele><time>2026-03-29T10:33:56.999Z</time></trkpt><trkpt lat="43.22946747014907" lon="12.143864176562385"><ele>673.0</ele><time>2026-03-29T10:33:58.999Z</time></trkpt><trkpt lat="43.22948997414771" lon="12.144008348173598"><ele>674.8</ele><time>2026-03-29T10:34:00.999Z</time></trkpt><trkpt lat="43.22956651278736" lon="12.14414019145066"><ele>676.5999999999999</ele><time>2026-03-29T10:34:02.999Z</time></trkpt><trkpt lat="43.22960477683353" lon="12.14426050846319"><ele>678.4000000000001</ele><time>2026-03-29T10:34:04.999Z</time></trkpt><trkpt lat="43.22956219400317" lon="12.144409746460473"><ele>680.2</ele><time>2026-03-29T10:34:06.999Z</time></trkpt><trkpt lat="43.22952659100024" lon="12.144543267377134"><ele>682.0</ele><time>2026-03-29T10:34:08.999Z</time></trkpt><trkpt lat="43.2295444544813" lon="12.144727308700658"><ele>682.0</ele><time>2026-03-29T10:34:10.999Z</time></trkpt><trkpt lat="43.229514000137776" lon="12.144815232823634"><ele>682.0</ele><time>2026-03-29T10:34:11.999Z</time></trkpt><trkpt lat="43.22948525734957" lon="12.144910430239463"><ele>682.0</ele><time>2026-03-29T10:34:12.999Z</time></trkpt><trkpt lat="43.22950650712755" lon="12.145055135545972"><ele>682.0</ele><time>2026-03-29T10:34:14.999Z</time></trkpt><trkpt lat="43.22953693951422" lon="12.145139554981895"><ele>682.0</ele><time>2026-03-29T10:34:15.999Z</time></trkpt><trkpt lat="43.22956014306277" lon="12.145224469513114"><ele>682.0</ele><time>2026-03-29T10:34:16.999Z</time></trkpt><trkpt lat="43.22954235065681" lon="12.145367633677973"><ele>685.0</ele><time>2026-03-29T10:34:18.999Z</time></trkpt><trkpt lat="43.229555107042" lon="12.145546848440508"><ele>688.0</ele><time>2026-03-29T10:34:20.999Z</time></trkpt><trkpt lat="43.22957302353671" lon="12.145681786643314"><ele>691.0</ele><time>2026-03-29T10:34:21.999Z</time></trkpt><trkpt lat="43.229578886858725" lon="12.145838376575618"><ele>694.0</ele><time>2026-03-29T10:34:22.999Z</time></trkpt><trkpt lat="43.22958371995328" lon="12.14598315541813"><ele>694.3333333333334</ele><time>2026-03-29T10:34:23.999Z</time></trkpt><trkpt lat="43.22959230459847" lon="12.146118706976011"><ele>694.6666666666667</ele><time>2026-03-29T10:34:24.999Z</time></trkpt><trkpt lat="43.22960068686309" lon="12.14623257331812"><ele>695.0</ele><time>2026-03-29T10:34:25.999Z</time></trkpt><trkpt lat="43.22961059414507" lon="12.146340161652068"><ele>695.3333333333334</ele><time>2026-03-29T10:34:26.999Z</time></trkpt><trkpt lat="43.22962564905394" lon="12.146447781390995"><ele>695.6666666666666</ele><time>2026-03-29T10:34:27.999Z</time></trkpt><trkpt lat="43.229645284712134" lon="12.146550218320034"><ele>696.0</ele><time>2026-03-29T10:34:28.999Z</time></trkpt><trkpt lat="43.22968473878707" lon="12.146660423506207"><ele>695.1666666666666</ele><time>2026-03-29T10:34:30.999Z</time></trkpt><trkpt lat="43.229722237168716" lon="12.146756126278374"><ele>694.3333333333334</ele><time>2026-03-29T10:34:32.998Z</time></trkpt><trkpt lat="43.22972960918283" lon="12.146852855549469"><ele>693.5</ele><time>2026-03-29T10:34:34.998Z</time></trkpt><trkpt lat="43.22972695029102" lon="12.146958035672668"><ele>692.6666666666667</ele><time>2026-03-29T10:34:35.998Z</time></trkpt><trkpt lat="43.22973973407548" lon="12.147090153643301"><ele>691.8333333333334</ele><time>2026-03-29T10:34:36.998Z</time></trkpt><trkpt lat="43.2297668332508" lon="12.147201944803168"><ele>691.0</ele><time>2026-03-29T10:34:37.998Z</time></trkpt><trkpt lat="43.229807920801896" lon="12.147341378413723"><ele>691.6666666666667</ele><time>2026-03-29T10:34:39.998Z</time></trkpt><trkpt lat="43.22984048459558" lon="12.147474497064426"><ele>692.3333333333334</ele><time>2026-03-29T10:34:41.998Z</time></trkpt><trkpt lat="43.229857197365014" lon="12.147578146728923"><ele>693.0</ele><time>2026-03-29T10:34:42.998Z</time></trkpt><trkpt lat="43.22987556076607" lon="12.147671428936109"><ele>693.6666666666666</ele><time>2026-03-29T10:34:43.998Z</time></trkpt><trkpt lat="43.229912495076654" lon="12.147775321356667"><ele>694.3333333333333</ele><time>2026-03-29T10:34:44.998Z</time></trkpt><trkpt lat="43.22996451897014" lon="12.1478891406796"><ele>695.0</ele><time>2026-03-29T10:34:45.998Z</time></trkpt><trkpt lat="43.230022569024435" lon="12.148015793451039"><ele>695.0</ele><time>2026-03-29T10:34:46.998Z</time></trkpt><trkpt lat="43.230080411194656" lon="12.148155016087022"><ele>695.0</ele><time>2026-03-29T10:34:47.998Z</time></trkpt><trkpt lat="43.23013602119355" lon="12.148296487692344"><ele>695.0</ele><time>2026-03-29T10:34:48.998Z</time></trkpt><trkpt lat="43.2301914276285" lon="12.148449496248393"><ele>695.0</ele><time>2026-03-29T10:34:49.998Z</time></trkpt><trkpt lat="43.23025369098109" lon="12.148609126803352"><ele>695.0</ele><time>2026-03-29T10:34:50.998Z</time></trkpt><trkpt lat="43.230311154357764" lon="12.148749848973164"><ele>695.0</ele><time>2026-03-29T10:34:51.998Z</time></trkpt><trkpt lat="43.23036820202481" lon="12.148899747512697"><ele>695.0</ele><time>2026-03-29T10:34:52.998Z</time></trkpt><trkpt lat="43.23042301861459" lon="12.149056280474115"><ele>695.0</ele><time>2026-03-29T10:34:53.998Z</time></trkpt><trkpt lat="43.23048892540991" lon="12.149207861586177"><ele>695.0</ele><time>2026-03-29T10:34:54.998Z</time></trkpt><trkpt lat="43.23056304509233" lon="12.149367730024203"><ele>695.0</ele><time>2026-03-29T10:34:55.998Z</time></trkpt><trkpt lat="43.23064771350603" lon="12.149521363487827"><ele>695.0</ele><time>2026-03-29T10:34:56.998Z</time></trkpt><trkpt lat="43.23072160054875" lon="12.149661801539466"><ele>695.0</ele><time>2026-03-29T10:34:57.998Z</time></trkpt><trkpt lat="43.23078880677" lon="12.14982261862579"><ele>694.5</ele><time>2026-03-29T10:34:58.998Z</time></trkpt><trkpt lat="43.23084048054672" lon="12.149983825353141"><ele>694.0</ele><time>2026-03-29T10:34:59.998Z</time></trkpt><trkpt lat="43.230894784717655" lon="12.150118099892367"><ele>693.5</ele><time>2026-03-29T10:35:00.998Z</time></trkpt><trkpt lat="43.23096306602985" lon="12.150226739845525"><ele>693.0</ele><time>2026-03-29T10:35:01.998Z</time></trkpt><trkpt lat="43.231034159078234" lon="12.150332741983405"><ele>693.0</ele><time>2026-03-29T10:35:02.998Z</time></trkpt><trkpt lat="43.231099883820455" lon="12.15044496973074"><ele>693.0</ele><time>2026-03-29T10:35:03.998Z</time></trkpt><trkpt lat="43.231146618422436" lon="12.150549745697957"><ele>693.0</ele><time>2026-03-29T10:35:04.998Z</time></trkpt><trkpt lat="43.23117331527066" lon="12.150658760093485"><ele>693.0</ele><time>2026-03-29T10:35:05.998Z</time></trkpt><trkpt lat="43.23116899028676" lon="12.150761263572623"><ele>693.0</ele><time>2026-03-29T10:35:07Z</time></trkpt><trkpt lat="43.23113516190246" lon="12.15086222792223"><ele>693.0</ele><time>2026-03-29T10:35:08Z</time></trkpt><trkpt lat="43.231084092052896" lon="12.150954248234122"><ele>692.3333333333334</ele><time>2026-03-29T10:35:09Z</time></trkpt><trkpt lat="43.23100222325539" lon="12.15101928949501"><ele>691.6666666666666</ele><time>2026-03-29T10:35:10Z</time></trkpt><trkpt lat="43.230917104502744" lon="12.151055197105599"><ele>691.0</ele><time>2026-03-29T10:35:11Z</time></trkpt><trkpt lat="43.230833681440494" lon="12.151085832716653"><ele>690.3333333333333</ele><time>2026-03-29T10:35:12Z</time></trkpt><trkpt lat="43.23076095316117" lon="12.151110672545732"><ele>689.6666666666666</ele><time>2026-03-29T10:35:13Z</time></trkpt><trkpt lat="43.23069613808555" lon="12.15111866096386"><ele>689.0</ele><time>2026-03-29T10:35:14Z</time></trkpt><trkpt lat="43.230589943627166" lon="12.15115765650719"><ele>687.1666666666666</ele><time>2026-03-29T10:35:16Z</time></trkpt><trkpt lat="43.23053654084373" lon="12.15130030534594"><ele>685.3333333333333</ele><time>2026-03-29T10:35:18Z</time></trkpt><trkpt lat="43.23054156684254" lon="12.151396751529669"><ele>683.5</ele><time>2026-03-29T10:35:19Z</time></trkpt><trkpt lat="43.230562950306805" lon="12.151498801437542"><ele>681.6666666666666</ele><time>2026-03-29T10:35:20Z</time></trkpt><trkpt lat="43.23058769613977" lon="12.151613905694994"><ele>679.8333333333334</ele><time>2026-03-29T10:35:21Z</time></trkpt><trkpt lat="43.23060457156875" lon="12.151740541449575"><ele>678.0</ele><time>2026-03-29T10:35:22Z</time></trkpt><trkpt lat="43.230600402416904" lon="12.151859538299922"><ele>675.75</ele><time>2026-03-29T10:35:23Z</time></trkpt><trkpt lat="43.230572266880614" lon="12.151977877918931"><ele>673.5</ele><time>2026-03-29T10:35:24Z</time></trkpt><trkpt lat="43.23053654223378" lon="12.152129401179838"><ele>671.25</ele><time>2026-03-29T10:35:25Z</time></trkpt><trkpt lat="43.23053312924598" lon="12.152331002371026"><ele>669.0</ele><time>2026-03-29T10:35:26Z</time></trkpt><trkpt lat="43.230552275272586" lon="12.152553724420725"><ele>669.0</ele><time>2026-03-29T10:35:27Z</time></trkpt><trkpt lat="43.230573036948215" lon="12.152765650857448"><ele>669.0</ele><time>2026-03-29T10:35:28Z</time></trkpt><trkpt lat="43.23059523962427" lon="12.152994564424459"><ele>669.0</ele><time>2026-03-29T10:35:29Z</time></trkpt><trkpt lat="43.23062160882548" lon="12.153215854364769"><ele>668.4000000000001</ele><time>2026-03-29T10:35:29.999Z</time></trkpt><trkpt lat="43.23064886900413" lon="12.153388658447481"><ele>667.8</ele><time>2026-03-29T10:35:30.999Z</time></trkpt><trkpt lat="43.2306660926934" lon="12.153543006986336"><ele>667.2</ele><time>2026-03-29T10:35:31.999Z</time></trkpt><trkpt lat="43.23068002707758" lon="12.153690565857374"><ele>666.5999999999999</ele><time>2026-03-29T10:35:32.999Z</time></trkpt><trkpt lat="43.23069570259336" lon="12.153819178736669"><ele>666.0</ele><time>2026-03-29T10:35:33.999Z</time></trkpt><trkpt lat="43.23071136351798" lon="12.153935256442418"><ele>666.0</ele><time>2026-03-29T10:35:34.999Z</time></trkpt><trkpt lat="43.23072193567486" lon="12.154031585979592"><ele>666.0</ele><time>2026-03-29T10:35:35.999Z</time></trkpt><trkpt lat="43.23070432563958" lon="12.15419816230154"><ele>666.0</ele><time>2026-03-29T10:35:37.999Z</time></trkpt><trkpt lat="43.23066808010462" lon="12.154284485236898"><ele>666.0</ele><time>2026-03-29T10:35:38.999Z</time></trkpt><trkpt lat="43.23059386879095" lon="12.154364239492274"><ele>666.0</ele><time>2026-03-29T10:35:39.999Z</time></trkpt><trkpt lat="43.230508458529705" lon="12.15447822749211"><ele>664.25</ele><time>2026-03-29T10:35:40.999Z</time></trkpt><trkpt lat="43.230431584374564" lon="12.154598992344324"><ele>662.5</ele><time>2026-03-29T10:35:41.999Z</time></trkpt><trkpt lat="43.23037370044108" lon="12.154739709118237"><ele>660.75</ele><time>2026-03-29T10:35:42.999Z</time></trkpt><trkpt lat="43.23034150199862" lon="12.154923133418695"><ele>659.0</ele><time>2026-03-29T10:35:43.999Z</time></trkpt><trkpt lat="43.23027529602003" lon="12.155138995480751"><ele>658.0</ele><time>2026-03-29T10:35:44.999Z</time></trkpt><trkpt lat="43.23021206121772" lon="12.155377826491467"><ele>657.0</ele><time>2026-03-29T10:35:45.999Z</time></trkpt><trkpt lat="43.230150523233675" lon="12.15557809698763"><ele>656.0</ele><time>2026-03-29T10:35:46.999Z</time></trkpt><trkpt lat="43.230091029305406" lon="12.155774601423056"><ele>656.0</ele><time>2026-03-29T10:35:47.999Z</time></trkpt><trkpt lat="43.2300419433925" lon="12.155949018808872"><ele>656.0</ele><time>2026-03-29T10:35:48.999Z</time></trkpt><trkpt lat="43.22999511012739" lon="12.156117994301955"><ele>656.0</ele><time>2026-03-29T10:35:49.999Z</time></trkpt><trkpt lat="43.22996639101872" lon="12.156273361356211"><ele>656.0</ele><time>2026-03-29T10:35:50.999Z</time></trkpt><trkpt lat="43.22993205696414" lon="12.156409075912507"><ele>656.0</ele><time>2026-03-29T10:35:51.999Z</time></trkpt><trkpt lat="43.22988429729359" lon="12.156513613547677"><ele>656.0</ele><time>2026-03-29T10:35:52.999Z</time></trkpt><trkpt lat="43.229852605467656" lon="12.156605970317324"><ele>656.0</ele><time>2026-03-29T10:35:53.999Z</time></trkpt><trkpt lat="43.229816160834716" lon="12.15667839326536"><ele>656.0</ele><time>2026-03-29T10:35:54.999Z</time></trkpt><trkpt lat="43.22979508380354" lon="12.156796671107543"><ele>656.0</ele><time>2026-03-29T10:35:55.999Z</time></trkpt><trkpt lat="43.22977250122953" lon="12.156904386514864"><ele>656.0</ele><time>2026-03-29T10:35:56.999Z</time></trkpt><trkpt lat="43.22977307120816" lon="12.157032689649334"><ele>656.25</ele><time>2026-03-29T10:35:57.999Z</time></trkpt><trkpt lat="43.22980001563674" lon="12.157190134543205"><ele>656.5</ele><time>2026-03-29T10:35:58.999Z</time></trkpt><trkpt lat="43.229845209647216" lon="12.157359339841838"><ele>656.75</ele><time>2026-03-29T10:35:59.999Z</time></trkpt><trkpt lat="43.22988315528757" lon="12.157506988829459"><ele>657.0</ele><time>2026-03-29T10:36:00.999Z</time></trkpt><trkpt lat="43.229909001858104" lon="12.157641082760154"><ele>654.6</ele><time>2026-03-29T10:36:01.999Z</time></trkpt><trkpt lat="43.22991522030558" lon="12.157761600580603"><ele>652.2</ele><time>2026-03-29T10:36:02.999Z</time></trkpt><trkpt lat="43.22990872571364" lon="12.157885088985003"><ele>649.8</ele><time>2026-03-29T10:36:03.999Z</time></trkpt><trkpt lat="43.22988854362807" lon="12.158007528112268"><ele>647.4</ele><time>2026-03-29T10:36:04.999Z</time></trkpt><trkpt lat="43.22985531064376" lon="12.15814816444114"><ele>645.0</ele><time>2026-03-29T10:36:05.999Z</time></trkpt><trkpt lat="43.22980098566726" lon="12.158313002946707"><ele>642.8</ele><time>2026-03-29T10:36:06.999Z</time></trkpt><trkpt lat="43.22973799528303" lon="12.158469088734746"><ele>640.6</ele><time>2026-03-29T10:36:07.999Z</time></trkpt><trkpt lat="43.22966427981248" lon="12.158577644099946"><ele>638.4</ele><time>2026-03-29T10:36:08.999Z</time></trkpt><trkpt lat="43.22958669608284" lon="12.158655593810122"><ele>636.2</ele><time>2026-03-29T10:36:09.999Z</time></trkpt><trkpt lat="43.22952166618896" lon="12.158735970751811"><ele>634.0</ele><time>2026-03-29T10:36:10.999Z</time></trkpt><trkpt lat="43.22945858714608" lon="12.15878410869342"><ele>634.0</ele><time>2026-03-29T10:36:11.999Z</time></trkpt><trkpt lat="43.229395644718316" lon="12.158843788629495"><ele>634.0</ele><time>2026-03-29T10:36:12.999Z</time></trkpt><trkpt lat="43.22932380538107" lon="12.158923643869306"><ele>634.0</ele><time>2026-03-29T10:36:13.999Z</time></trkpt><trkpt lat="43.22926544221954" lon="12.159012871006869"><ele>634.0</ele><time>2026-03-29T10:36:14.999Z</time></trkpt><trkpt lat="43.229232445465875" lon="12.159106381755405"><ele>634.0</ele><time>2026-03-29T10:36:15.999Z</time></trkpt><trkpt lat="43.22921356561718" lon="12.159234139501805"><ele>634.0</ele><time>2026-03-29T10:36:16.999Z</time></trkpt><trkpt lat="43.22918920133049" lon="12.159395310268907"><ele>635.75</ele><time>2026-03-29T10:36:17.999Z</time></trkpt><trkpt lat="43.22917250424253" lon="12.15957347327258"><ele>637.5</ele><time>2026-03-29T10:36:18.999Z</time></trkpt><trkpt lat="43.22913839329056" lon="12.159757351370576"><ele>639.25</ele><time>2026-03-29T10:36:19.999Z</time></trkpt><trkpt lat="43.2290808391701" lon="12.159911632879112"><ele>641.0</ele><time>2026-03-29T10:36:20.999Z</time></trkpt><trkpt lat="43.229015312503954" lon="12.160049464625994"><ele>639.5</ele><time>2026-03-29T10:36:21.999Z</time></trkpt><trkpt lat="43.228952230555635" lon="12.160181769634606"><ele>638.0</ele><time>2026-03-29T10:36:22.999Z</time></trkpt><trkpt lat="43.22884424416388" lon="12.160231458043802"><ele>636.5</ele><time>2026-03-29T10:36:23.999Z</time></trkpt><trkpt lat="43.228733843219715" lon="12.1603053342849"><ele>635.0</ele><time>2026-03-29T10:36:24.999Z</time></trkpt><trkpt lat="43.228622877828" lon="12.160429495966548"><ele>635.0</ele><time>2026-03-29T10:36:25.999Z</time></trkpt><trkpt lat="43.22853545180709" lon="12.16053891765558"><ele>635.0</ele><time>2026-03-29T10:36:26.999Z</time></trkpt><trkpt lat="43.22847927166253" lon="12.160654632380899"><ele>635.0</ele><time>2026-03-29T10:36:27.999Z</time></trkpt><trkpt lat="43.228425618642575" lon="12.160777643056356"><ele>635.0</ele><time>2026-03-29T10:36:28.999Z</time></trkpt><trkpt lat="43.228405164980614" lon="12.16093214488082"><ele>635.0</ele><time>2026-03-29T10:36:29.999Z</time></trkpt><trkpt lat="43.22841248818954" lon="12.161121582724418"><ele>637.75</ele><time>2026-03-29T10:36:30.998Z</time></trkpt><trkpt lat="43.228424179591684" lon="12.16132958486513"><ele>640.5</ele><time>2026-03-29T10:36:31.998Z</time></trkpt><trkpt lat="43.22842657475852" lon="12.161543189114619"><ele>643.25</ele><time>2026-03-29T10:36:32.998Z</time></trkpt><trkpt lat="43.22842253630304" lon="12.161713536856354"><ele>646.0</ele><time>2026-03-29T10:36:33.998Z</time></trkpt><trkpt lat="43.2284155619737" lon="12.161835482880049"><ele>645.8</ele><time>2026-03-29T10:36:34.998Z</time></trkpt><trkpt lat="43.22840490973213" lon="12.161922242005975"><ele>645.5999999999999</ele><time>2026-03-29T10:36:35.998Z</time></trkpt><trkpt lat="43.22833805663928" lon="12.161989653639734"><ele>645.4</ele><time>2026-03-29T10:36:37.998Z</time></trkpt><trkpt lat="43.22820011813731" lon="12.16207657466878"><ele>645.2</ele><time>2026-03-29T10:36:39.998Z</time></trkpt><trkpt lat="43.22807584049103" lon="12.162168556255546"><ele>645.0</ele><time>2026-03-29T10:36:40.998Z</time></trkpt><trkpt lat="43.227921351801406" lon="12.162284247932195"><ele>645.3333333333334</ele><time>2026-03-29T10:36:41.998Z</time></trkpt><trkpt lat="43.227762103879265" lon="12.162407206488401"><ele>645.6666666666667</ele><time>2026-03-29T10:36:42.998Z</time></trkpt><trkpt lat="43.22762113123217" lon="12.162506561724669"><ele>646.0</ele><time>2026-03-29T10:36:43.998Z</time></trkpt><trkpt lat="43.22749157698963" lon="12.162588179233328"><ele>646.0</ele><time>2026-03-29T10:36:44.998Z</time></trkpt><trkpt lat="43.22736713479892" lon="12.162664162245688"><ele>646.0</ele><time>2026-03-29T10:36:45.998Z</time></trkpt><trkpt lat="43.22726184595483" lon="12.162750176584371"><ele>646.0</ele><time>2026-03-29T10:36:46.998Z</time></trkpt><trkpt lat="43.22716109942309" lon="12.162809208223525"><ele>646.0</ele><time>2026-03-29T10:36:47.998Z</time></trkpt><trkpt lat="43.2270680388993" lon="12.162860372861235"><ele>643.25</ele><time>2026-03-29T10:36:48.998Z</time></trkpt><trkpt lat="43.22697338084222" lon="12.162887942929002"><ele>640.5</ele><time>2026-03-29T10:36:49.998Z</time></trkpt><trkpt lat="43.22688047469563" lon="12.16285566506084"><ele>637.75</ele><time>2026-03-29T10:36:50.998Z</time></trkpt><trkpt lat="43.22678037969053" lon="12.162810797005664"><ele>635.0</ele><time>2026-03-29T10:36:51.998Z</time></trkpt><trkpt lat="43.22662838035945" lon="12.162773910822741"><ele>632.0</ele><time>2026-03-29T10:36:52.998Z</time></trkpt><trkpt lat="43.22647700058109" lon="12.16269772635672"><ele>629.0</ele><time>2026-03-29T10:36:53.998Z</time></trkpt><trkpt lat="43.226324322678266" lon="12.16265626836592"><ele>626.0</ele><time>2026-03-29T10:36:54.998Z</time></trkpt><trkpt lat="43.226190601406536" lon="12.162598606249254"><ele>626.0</ele><time>2026-03-29T10:36:55.998Z</time></trkpt><trkpt lat="43.2260592590865" lon="12.162546053380277"><ele>626.0</ele><time>2026-03-29T10:36:56.998Z</time></trkpt><trkpt lat="43.225939449167946" lon="12.162494492006847"><ele>626.0</ele><time>2026-03-29T10:36:57.998Z</time></trkpt><trkpt lat="43.22582649299104" lon="12.162454169175147"><ele>626.0</ele><time>2026-03-29T10:36:58.998Z</time></trkpt><trkpt lat="43.22571065964308" lon="12.162413962809149"><ele>624.0</ele><time>2026-03-29T10:36:59.998Z</time></trkpt><trkpt lat="43.2255927058704" lon="12.162375377491731"><ele>622.0</ele><time>2026-03-29T10:37:00.998Z</time></trkpt><trkpt lat="43.225472862097796" lon="12.162333112188357"><ele>620.0</ele><time>2026-03-29T10:37:01.998Z</time></trkpt><trkpt lat="43.22535515826153" lon="12.162295370292693"><ele>618.0</ele><time>2026-03-29T10:37:02.998Z</time></trkpt><trkpt lat="43.22524170359912" lon="12.162262338356447"><ele>616.75</ele><time>2026-03-29T10:37:03.998Z</time></trkpt><trkpt lat="43.225131464551914" lon="12.16223717645699"><ele>615.5</ele><time>2026-03-29T10:37:04.998Z</time></trkpt><trkpt lat="43.2250218693044" lon="12.162231944347406"><ele>614.25</ele><time>2026-03-29T10:37:05.998Z</time></trkpt><trkpt lat="43.22489689451965" lon="12.162248862112289"><ele>613.0</ele><time>2026-03-29T10:37:06.998Z</time></trkpt><trkpt lat="43.224761974138666" lon="12.162256969550725"><ele>611.0</ele><time>2026-03-29T10:37:07.998Z</time></trkpt><trkpt lat="43.224636919530255" lon="12.16224730391812"><ele>609.0</ele><time>2026-03-29T10:37:08.998Z</time></trkpt><trkpt lat="43.224514446632114" lon="12.16222268194747"><ele>607.0</ele><time>2026-03-29T10:37:09.998Z</time></trkpt><trkpt lat="43.22439084277484" lon="12.162194469897882"><ele>605.0</ele><time>2026-03-29T10:37:10.998Z</time></trkpt><trkpt lat="43.22426877246889" lon="12.162185086316489"><ele>605.0</ele><time>2026-03-29T10:37:11.998Z</time></trkpt><trkpt lat="43.22412989546828" lon="12.162199425895317"><ele>605.0</ele><time>2026-03-29T10:37:13Z</time></trkpt><trkpt lat="43.223979127682796" lon="12.162226194392176"><ele>605.0</ele><time>2026-03-29T10:37:14Z</time></trkpt><trkpt lat="43.223826375792044" lon="12.162258862348413"><ele>605.0</ele><time>2026-03-29T10:37:15Z</time></trkpt><trkpt lat="43.22368945161307" lon="12.162280039667822"><ele>602.5</ele><time>2026-03-29T10:37:16Z</time></trkpt><trkpt lat="43.22355699408745" lon="12.162298648681558"><ele>600.0</ele><time>2026-03-29T10:37:17Z</time></trkpt><trkpt lat="43.22342668612644" lon="12.162319395824891"><ele>597.5</ele><time>2026-03-29T10:37:18Z</time></trkpt><trkpt lat="43.223297111589446" lon="12.162338530385213"><ele>595.0</ele><time>2026-03-29T10:37:19Z</time></trkpt><trkpt lat="43.22316949409577" lon="12.162334048383997"><ele>594.25</ele><time>2026-03-29T10:37:20Z</time></trkpt><trkpt lat="43.22304850499477" lon="12.162348997568426"><ele>593.5</ele><time>2026-03-29T10:37:21Z</time></trkpt><trkpt lat="43.222932656076516" lon="12.162391433631306"><ele>592.75</ele><time>2026-03-29T10:37:22Z</time></trkpt><trkpt lat="43.2228130850537" lon="12.162393612353078"><ele>592.0</ele><time>2026-03-29T10:37:23Z</time></trkpt><trkpt lat="43.2226956715353" lon="12.162421236871115"><ele>592.0</ele><time>2026-03-29T10:37:24Z</time></trkpt><trkpt lat="43.222585270894676" lon="12.162452929565484"><ele>592.0</ele><time>2026-03-29T10:37:25Z</time></trkpt><trkpt lat="43.22249484221166" lon="12.162483731941446"><ele>592.0</ele><time>2026-03-29T10:37:26Z</time></trkpt><trkpt lat="43.222420389116614" lon="12.162509535306919"><ele>592.0</ele><time>2026-03-29T10:37:27Z</time></trkpt><trkpt lat="43.22235099518522" lon="12.162533585202057"><ele>592.0</ele><time>2026-03-29T10:37:28Z</time></trkpt><trkpt lat="43.2222882968516" lon="12.162555314784308"><ele>592.0</ele><time>2026-03-29T10:37:29Z</time></trkpt><trkpt lat="43.22221460708793" lon="12.162568530375541"><ele>590.6</ele><time>2026-03-29T10:37:31Z</time></trkpt><trkpt lat="43.222139603552414" lon="12.162546282378251"><ele>589.2</ele><time>2026-03-29T10:37:37.999Z</time></trkpt><trkpt lat="43.22206886009432" lon="12.162550745156425"><ele>587.8</ele><time>2026-03-29T10:37:38.999Z</time></trkpt><trkpt lat="43.2219780127426" lon="12.162542060830173"><ele>586.4</ele><time>2026-03-29T10:37:39.999Z</time></trkpt><trkpt lat="43.221867484799475" lon="12.162734785498111"><ele>585.0</ele><time>2026-03-29T10:37:40.999Z</time></trkpt><trkpt lat="43.221753311126506" lon="12.16274573452123"><ele>585.0</ele><time>2026-03-29T10:37:41.999Z</time></trkpt><trkpt lat="43.22164346828318" lon="12.162747510937912"><ele>585.0</ele><time>2026-03-29T10:37:42.999Z</time></trkpt><trkpt lat="43.22153924015935" lon="12.162775101979994"><ele>585.0</ele><time>2026-03-29T10:37:43.999Z</time></trkpt><trkpt lat="43.2214313134717" lon="12.162819509844349"><ele>585.0</ele><time>2026-03-29T10:37:44.999Z</time></trkpt><trkpt lat="43.221321851925595" lon="12.162862157542826"><ele>585.0</ele><time>2026-03-29T10:37:45.999Z</time></trkpt><trkpt lat="43.221205074015266" lon="12.162891350037265"><ele>583.2</ele><time>2026-03-29T10:37:46.999Z</time></trkpt><trkpt lat="43.221096921259175" lon="12.162913432774491"><ele>581.4</ele><time>2026-03-29T10:37:47.999Z</time></trkpt><trkpt lat="43.22099954686937" lon="12.162942619183381"><ele>579.6</ele><time>2026-03-29T10:37:48.999Z</time></trkpt><trkpt lat="43.220915515897104" lon="12.162972083674186"><ele>577.8</ele><time>2026-03-29T10:37:49.999Z</time></trkpt><trkpt lat="43.22084242317617" lon="12.163029475539265"><ele>576.0</ele><time>2026-03-29T10:37:50.999Z</time></trkpt><trkpt lat="43.220786314788015" lon="12.16310141830124"><ele>576.0</ele><time>2026-03-29T10:37:51.999Z</time></trkpt><trkpt lat="43.22075265961771" lon="12.163178737739296"><ele>576.0</ele><time>2026-03-29T10:37:52.999Z</time></trkpt><trkpt lat="43.22072864810922" lon="12.16327781186696"><ele>576.0</ele><time>2026-03-29T10:37:53.999Z</time></trkpt><trkpt lat="43.22070425246907" lon="12.163377656898913"><ele>576.0</ele><time>2026-03-29T10:37:54.999Z</time></trkpt><trkpt lat="43.220677345663425" lon="12.163466181206624"><ele>576.0</ele><time>2026-03-29T10:37:55.999Z</time></trkpt><trkpt lat="43.22067855208953" lon="12.16356656254525"><ele>576.0</ele><time>2026-03-29T10:37:56.999Z</time></trkpt><trkpt lat="43.22070433051832" lon="12.16368971811765"><ele>576.8</ele><time>2026-03-29T10:37:57.999Z</time></trkpt><trkpt lat="43.22073438213353" lon="12.16380159796642"><ele>577.6</ele><time>2026-03-29T10:37:58.999Z</time></trkpt><trkpt lat="43.22076976116847" lon="12.16389560187745"><ele>578.4</ele><time>2026-03-29T10:37:59.999Z</time></trkpt><trkpt lat="43.22081548685044" lon="12.16399239074621"><ele>579.2</ele><time>2026-03-29T10:38:00.999Z</time></trkpt><trkpt lat="43.220889008309214" lon="12.164101468074975"><ele>580.0</ele><time>2026-03-29T10:38:01.999Z</time></trkpt><trkpt lat="43.220974622957186" lon="12.164183749985561"><ele>578.6666666666667</ele><time>2026-03-29T10:38:02.999Z</time></trkpt><trkpt lat="43.22104831545597" lon="12.164246769137014"><ele>577.3333333333334</ele><time>2026-03-29T10:38:03.999Z</time></trkpt><trkpt lat="43.22111017967987" lon="12.164322117333448"><ele>576.0</ele><time>2026-03-29T10:38:04.999Z</time></trkpt><trkpt lat="43.221159954084335" lon="12.16440369865294"><ele>574.6666666666666</ele><time>2026-03-29T10:38:05.999Z</time></trkpt><trkpt lat="43.22119757857197" lon="12.164485786649523"><ele>573.3333333333333</ele><time>2026-03-29T10:38:06.999Z</time></trkpt><trkpt lat="43.22127087054009" lon="12.164618026574216"><ele>572.0</ele><time>2026-03-29T10:38:08.999Z</time></trkpt><trkpt lat="43.22134851555073" lon="12.164735342119567"><ele>572.0</ele><time>2026-03-29T10:38:10.999Z</time></trkpt><trkpt lat="43.22141889463793" lon="12.164831161294874"><ele>572.0</ele><time>2026-03-29T10:38:12.999Z</time></trkpt><trkpt lat="43.22146330523542" lon="12.164915581579836"><ele>572.0</ele><time>2026-03-29T10:38:14.999Z</time></trkpt><trkpt lat="43.221403405762025" lon="12.164993955788178"><ele>572.0</ele><time>2026-03-29T10:38:16.999Z</time></trkpt><trkpt lat="43.2212871915302" lon="12.164986766282896"><ele>572.0</ele><time>2026-03-29T10:38:18.999Z</time></trkpt><trkpt lat="43.2212138877981" lon="12.164963097619234"><ele>572.0</ele><time>2026-03-29T10:38:20.999Z</time></trkpt><trkpt lat="43.221171703304854" lon="12.16505415153366"><ele>568.6666666666666</ele><time>2026-03-29T10:38:22.999Z</time></trkpt><trkpt lat="43.221237556000816" lon="12.165169817959873"><ele>565.3333333333333</ele><time>2026-03-29T10:38:24.999Z</time></trkpt><trkpt lat="43.221308426787004" lon="12.165221873122988"><ele>562.0</ele><time>2026-03-29T10:38:25.999Z</time></trkpt><trkpt lat="43.221373998013966" lon="12.165242947521211"><ele>558.6666666666666</ele><time>2026-03-29T10:38:26.999Z</time></trkpt><trkpt lat="43.221451372935334" lon="12.165308737311761"><ele>555.3333333333334</ele><time>2026-03-29T10:38:28.999Z</time></trkpt><trkpt lat="43.22142894159291" lon="12.165444656743338"><ele>552.0</ele><time>2026-03-29T10:38:30.999Z</time></trkpt><trkpt lat="43.221377941112486" lon="12.165500626052685"><ele>552.0</ele><time>2026-03-29T10:38:31.999Z</time></trkpt><trkpt lat="43.22127848916395" lon="12.16559582460823"><ele>552.0</ele><time>2026-03-29T10:38:33.999Z</time></trkpt><trkpt lat="43.22118837165552" lon="12.165659910656624"><ele>552.0</ele><time>2026-03-29T10:38:35.999Z</time></trkpt><trkpt lat="43.22112060011968" lon="12.16567496667407"><ele>552.0</ele><time>2026-03-29T10:38:37.999Z</time></trkpt><trkpt lat="43.22102806402393" lon="12.165720965210795"><ele>552.0</ele><time>2026-03-29T10:38:39.999Z</time></trkpt><trkpt lat="43.22099451108066" lon="12.165813663862448"><ele>549.2</ele><time>2026-03-29T10:38:42.998Z</time></trkpt><trkpt lat="43.22101599871938" lon="12.165902650638643"><ele>546.4000000000001</ele><time>2026-03-29T10:38:44.998Z</time></trkpt><trkpt lat="43.22099311867642" lon="12.166079747533608"><ele>543.5999999999999</ele><time>2026-03-29T10:38:47.998Z</time></trkpt><trkpt lat="43.220942041150394" lon="12.166211599283901"><ele>540.8</ele><time>2026-03-29T10:38:49.998Z</time></trkpt><trkpt lat="43.220907747093754" lon="12.166318887424556"><ele>538.0</ele><time>2026-03-29T10:38:51.998Z</time></trkpt><trkpt lat="43.22092565656686" lon="12.166481049601535"><ele>535.1999999999999</ele><time>2026-03-29T10:38:55.998Z</time></trkpt><trkpt lat="43.22091041896555" lon="12.16661082302985"><ele>532.4</ele><time>2026-03-29T10:38:57.998Z</time></trkpt><trkpt lat="43.220925478294994" lon="12.16672838961826"><ele>529.5999999999999</ele><time>2026-03-29T10:38:59.998Z</time></trkpt><trkpt lat="43.2209937140602" lon="12.166817675982998"><ele>526.8</ele><time>2026-03-29T10:39:01.998Z</time></trkpt><trkpt lat="43.221070266060856" lon="12.166896754642607"><ele>524.0</ele><time>2026-03-29T10:39:03.998Z</time></trkpt><trkpt lat="43.22109482155644" lon="12.167024312494664"><ele>524.0</ele><time>2026-03-29T10:39:05.998Z</time></trkpt><trkpt lat="43.22110261764856" lon="12.167169589455696"><ele>524.0</ele><time>2026-03-29T10:39:07.998Z</time></trkpt><trkpt lat="43.221057078268466" lon="12.167317692897985"><ele>524.0</ele><time>2026-03-29T10:39:09.998Z</time></trkpt><trkpt lat="43.22099002596396" lon="12.16738025170773"><ele>524.0</ele><time>2026-03-29T10:39:11.998Z</time></trkpt><trkpt lat="43.22094417514212" lon="12.16746290949229"><ele>524.0</ele><time>2026-03-29T10:39:13.998Z</time></trkpt><trkpt lat="43.22097951424004" lon="12.167562811331596"><ele>521.5</ele><time>2026-03-29T10:39:15.998Z</time></trkpt><trkpt lat="43.221012865048294" lon="12.167673681170719"><ele>519.0</ele><time>2026-03-29T10:39:19Z</time></trkpt><trkpt lat="43.221033935434626" lon="12.167791909140385"><ele>516.5</ele><time>2026-03-29T10:39:21Z</time></trkpt><trkpt lat="43.221017140402196" lon="12.167898084694082"><ele>514.0</ele><time>2026-03-29T10:39:23Z</time></trkpt><trkpt lat="43.220949935821515" lon="12.167955064453436"><ele>511.49999999999994</ele><time>2026-03-29T10:39:25Z</time></trkpt><trkpt lat="43.22088372503816" lon="12.168018655572896"><ele>509.0</ele><time>2026-03-29T10:39:27Z</time></trkpt><trkpt lat="43.22081701212755" lon="12.168042080675654"><ele>508.99999999999994</ele><time>2026-03-29T10:39:29Z</time></trkpt><trkpt lat="43.220746680939584" lon="12.168074826584169"><ele>509.0</ele><time>2026-03-29T10:39:31Z</time></trkpt><trkpt lat="43.22066320062854" lon="12.168103285831318"><ele>509.0</ele><time>2026-03-29T10:39:34Z</time></trkpt><trkpt lat="43.220607098225614" lon="12.168148623226228"><ele>509.0</ele><time>2026-03-29T10:39:36Z</time></trkpt><trkpt lat="43.220563489031605" lon="12.16822045664412"><ele>508.99999999999994</ele><time>2026-03-29T10:39:50.999Z</time></trkpt><trkpt lat="43.22057192875455" lon="12.168336309240448"><ele>509.0</ele><time>2026-03-29T10:39:54.999Z</time></trkpt><trkpt lat="43.220583500092616" lon="12.168439209945603"><ele>503.79999999999995</ele><time>2026-03-29T10:39:57.999Z</time></trkpt><trkpt lat="43.22058661253637" lon="12.168590324849838"><ele>498.59999999999997</ele><time>2026-03-29T10:40:00.999Z</time></trkpt><trkpt lat="43.220594217123335" lon="12.168715645905307"><ele>493.4</ele><time>2026-03-29T10:40:01.999Z</time></trkpt><trkpt lat="43.2205216673929" lon="12.168781591499954"><ele>488.2</ele><time>2026-03-29T10:40:03.999Z</time></trkpt><trkpt lat="43.22044647549645" lon="12.168822775696302"><ele>483.0</ele><time>2026-03-29T10:40:05.999Z</time></trkpt><trkpt lat="43.220362242065015" lon="12.168885699737476"><ele>483.0</ele><time>2026-03-29T10:40:07.999Z</time></trkpt><trkpt lat="43.220280557532476" lon="12.168947278098061"><ele>483.0</ele><time>2026-03-29T10:40:09.999Z</time></trkpt><trkpt lat="43.22020263914582" lon="12.169000464751152"><ele>483.0</ele><time>2026-03-29T10:40:11.999Z</time></trkpt><trkpt lat="43.22014047248364" lon="12.169041609222262"><ele>483.0</ele><time>2026-03-29T10:40:13.999Z</time></trkpt><trkpt lat="43.22007888716677" lon="12.169111690957122"><ele>483.0</ele><time>2026-03-29T10:40:15.999Z</time></trkpt><trkpt lat="43.22001965057284" lon="12.169199504528494"><ele>483.0</ele><time>2026-03-29T10:40:17.999Z</time></trkpt><trkpt lat="43.21995365714312" lon="12.1692925726601"><ele>481.1666666666667</ele><time>2026-03-29T10:40:19.999Z</time></trkpt><trkpt lat="43.21988227905221" lon="12.169377702870312"><ele>479.33333333333337</ele><time>2026-03-29T10:40:21.999Z</time></trkpt><trkpt lat="43.21981038226796" lon="12.169436033376464"><ele>477.5</ele><time>2026-03-29T10:40:23.999Z</time></trkpt><trkpt lat="43.21974121896958" lon="12.169456536030879"><ele>475.6666666666667</ele><time>2026-03-29T10:40:25.999Z</time></trkpt><trkpt lat="43.21965729197374" lon="12.16949758719281"><ele>473.83333333333337</ele><time>2026-03-29T10:40:27.999Z</time></trkpt><trkpt lat="43.21957695578872" lon="12.169513843199987"><ele>472.0</ele><time>2026-03-29T10:40:29.999Z</time></trkpt><trkpt lat="43.21950112738447" lon="12.169523096776611"><ele>469.6666666666667</ele><time>2026-03-29T10:40:31.999Z</time></trkpt><trkpt lat="43.21942562691984" lon="12.169524957126157"><ele>467.33333333333337</ele><time>2026-03-29T10:40:34.999Z</time></trkpt><trkpt lat="43.21936338276712" lon="12.169594218911536"><ele>465.0</ele><time>2026-03-29T10:40:36.999Z</time></trkpt><trkpt lat="43.21935934067383" lon="12.169710612287307"><ele>462.66666666666663</ele><time>2026-03-29T10:40:38.999Z</time></trkpt><trkpt lat="43.21929846202594" lon="12.169825535484607"><ele>460.3333333333333</ele><time>2026-03-29T10:40:40.999Z</time></trkpt><trkpt lat="43.21923062480881" lon="12.169867990672486"><ele>458.0</ele><time>2026-03-29T10:40:41.999Z</time></trkpt><trkpt lat="43.219163609197494" lon="12.169900959798476"><ele>457.4</ele><time>2026-03-29T10:40:42.999Z</time></trkpt><trkpt lat="43.21906256453403" lon="12.169987002216866"><ele>456.79999999999995</ele><time>2026-03-29T10:40:44.998Z</time></trkpt><trkpt lat="43.21901578712592" lon="12.170121568467984"><ele>456.2</ele><time>2026-03-29T10:40:46.998Z</time></trkpt><trkpt lat="43.21904850244986" lon="12.170224806390312"><ele>455.6</ele><time>2026-03-29T10:40:48.998Z</time></trkpt><trkpt lat="43.219173482361" lon="12.170258435286001"><ele>455.0</ele><time>2026-03-29T10:40:50.998Z</time></trkpt><trkpt lat="43.21925964690507" lon="12.170235958415303"><ele>454.99999999999994</ele><time>2026-03-29T10:40:51.998Z</time></trkpt><trkpt lat="43.2193210900412" lon="12.170216598468379"><ele>455.0</ele><time>2026-03-29T10:40:52.998Z</time></trkpt><trkpt lat="43.219453230897045" lon="12.170271644096335"><ele>455.0</ele><time>2026-03-29T10:40:54.998Z</time></trkpt><trkpt lat="43.21952723415665" lon="12.170329638804196"><ele>455.0</ele><time>2026-03-29T10:40:55.998Z</time></trkpt><trkpt lat="43.219594655563604" lon="12.170391582411357"><ele>454.99999999999994</ele><time>2026-03-29T10:40:56.998Z</time></trkpt><trkpt lat="43.21965748223576" lon="12.170421779698204"><ele>455.0</ele><time>2026-03-29T10:40:57.998Z</time></trkpt><trkpt lat="43.21973356636689" lon="12.17043534946155"><ele>455.0</ele><time>2026-03-29T10:40:58.998Z</time></trkpt><trkpt lat="43.2198092566748" lon="12.170440849252557"><ele>455.0</ele><time>2026-03-29T10:40:59.998Z</time></trkpt><trkpt lat="43.21991685596678" lon="12.170430864145864"><ele>455.0</ele><time>2026-03-29T10:41:01.998Z</time></trkpt><trkpt lat="43.22000514839138" lon="12.170333537314018"><ele>455.0</ele><time>2026-03-29T10:41:03.998Z</time></trkpt><trkpt lat="43.220120028191836" lon="12.170341488409269"><ele>455.0</ele><time>2026-03-29T10:41:05.998Z</time></trkpt><trkpt lat="43.220200688449324" lon="12.170360955920666"><ele>455.8333333333333</ele><time>2026-03-29T10:41:06.998Z</time></trkpt><trkpt lat="43.22026233737626" lon="12.17033983567454"><ele>456.66666666666663</ele><time>2026-03-29T10:41:07.998Z</time></trkpt><trkpt lat="43.22033057935895" lon="12.170304309926491"><ele>457.5</ele><time>2026-03-29T10:41:08.998Z</time></trkpt><trkpt lat="43.22040150918398" lon="12.17026312548879"><ele>458.33333333333337</ele><time>2026-03-29T10:41:09.998Z</time></trkpt><trkpt lat="43.22045851642446" lon="12.170220962042658"><ele>459.1666666666667</ele><time>2026-03-29T10:41:10.998Z</time></trkpt><trkpt lat="43.22055176818186" lon="12.170108975304785"><ele>460.0</ele><time>2026-03-29T10:41:12.998Z</time></trkpt><trkpt lat="43.22059599701946" lon="12.170029880830537"><ele>457.83333333333337</ele><time>2026-03-29T10:41:13.998Z</time></trkpt><trkpt lat="43.22064976724276" lon="12.169974303831674"><ele>455.6666666666667</ele><time>2026-03-29T10:41:14.998Z</time></trkpt><trkpt lat="43.22074784396316" lon="12.16994411025218"><ele>453.5</ele><time>2026-03-29T10:41:16.998Z</time></trkpt><trkpt lat="43.22085946424184" lon="12.169970771337459"><ele>451.33333333333337</ele><time>2026-03-29T10:41:18.998Z</time></trkpt><trkpt lat="43.220926385103" lon="12.169956602376331"><ele>449.1666666666667</ele><time>2026-03-29T10:41:19.998Z</time></trkpt><trkpt lat="43.22099829202398" lon="12.16991996094906"><ele>447.0</ele><time>2026-03-29T10:41:20.998Z</time></trkpt><trkpt lat="43.22106276394739" lon="12.169876583764124"><ele>452.40000000000003</ele><time>2026-03-29T10:41:21.998Z</time></trkpt><trkpt lat="43.221174783249914" lon="12.169808572352155"><ele>457.80000000000007</ele><time>2026-03-29T10:41:23.998Z</time></trkpt><trkpt lat="43.22124489969127" lon="12.16975677164653"><ele>463.2</ele><time>2026-03-29T10:41:25Z</time></trkpt><trkpt lat="43.221305035067246" lon="12.169691907549394"><ele>468.6</ele><time>2026-03-29T10:41:26Z</time></trkpt><trkpt lat="43.22137074544136" lon="12.169581404302871"><ele>474.0</ele><time>2026-03-29T10:41:28Z</time></trkpt><trkpt lat="43.22140601454527" lon="12.169499347517531"><ele>474.0</ele><time>2026-03-29T10:41:29Z</time></trkpt><trkpt lat="43.221432177419985" lon="12.169419403760543"><ele>474.0</ele><time>2026-03-29T10:41:30Z</time></trkpt><trkpt lat="43.22148159814478" lon="12.16925652115867"><ele>474.0</ele><time>2026-03-29T10:41:32Z</time></trkpt><trkpt lat="43.221521539927714" lon="12.169164585587534"><ele>474.0</ele><time>2026-03-29T10:41:33Z</time></trkpt><trkpt lat="43.2215597055044" lon="12.169072467397976"><ele>474.0</ele><time>2026-03-29T10:41:34Z</time></trkpt><trkpt lat="43.221595017744754" lon="12.16897731142452"><ele>474.0</ele><time>2026-03-29T10:41:35Z</time></trkpt><trkpt lat="43.221657729511186" lon="12.168854308399215"><ele>474.0</ele><time>2026-03-29T10:41:37Z</time></trkpt><trkpt lat="43.22174159477254" lon="12.168773989038053"><ele>474.0</ele><time>2026-03-29T10:41:39Z</time></trkpt><trkpt lat="43.2217819203056" lon="12.168679636115527"><ele>474.0</ele><time>2026-03-29T10:41:41Z</time></trkpt><trkpt lat="43.22188066639649" lon="12.168641910902624"><ele>474.0</ele><time>2026-03-29T10:41:43.999Z</time></trkpt><trkpt lat="43.221941806127525" lon="12.16867005003069"><ele>474.0</ele><time>2026-03-29T10:41:45.999Z</time></trkpt><trkpt lat="43.2219632743895" lon="12.168768763338644"><ele>474.0</ele><time>2026-03-29T10:41:47.999Z</time></trkpt><trkpt lat="43.222006255073175" lon="12.168856473968342"><ele>474.0</ele><time>2026-03-29T10:41:50.999Z</time></trkpt><trkpt lat="43.22209635133596" lon="12.168948681170866"><ele>474.0</ele><time>2026-03-29T10:41:51.999Z</time></trkpt><trkpt lat="43.22214789386691" lon="12.16904392250803"><ele>474.0</ele><time>2026-03-29T10:41:53.999Z</time></trkpt><trkpt lat="43.22215215674097" lon="12.169167726901133"><ele>474.0</ele><time>2026-03-29T10:41:56.999Z</time></trkpt><trkpt lat="43.22212405964711" lon="12.169268495180662"><ele>474.0</ele><time>2026-03-29T10:41:58.999Z</time></trkpt><trkpt lat="43.22211875690674" lon="12.169360889880274"><ele>474.0</ele><time>2026-03-29T10:42:00.999Z</time></trkpt><trkpt lat="43.22218333728566" lon="12.169376851145586"><ele>470.2</ele><time>2026-03-29T10:42:02.999Z</time></trkpt><trkpt lat="43.22226436302583" lon="12.169350439083452"><ele>466.4</ele><time>2026-03-29T10:42:05.999Z</time></trkpt><trkpt lat="43.22229157248223" lon="12.169433510335807"><ele>462.6</ele><time>2026-03-29T10:42:08.999Z</time></trkpt><trkpt lat="43.22222105443377" lon="12.16956451230872"><ele>458.8</ele><time>2026-03-29T10:42:10.999Z</time></trkpt><trkpt lat="43.22218619799899" lon="12.169705782068458"><ele>455.0</ele><time>2026-03-29T10:42:12.999Z</time></trkpt><trkpt lat="43.222194539215266" lon="12.169840816151744"><ele>450.49999999999994</ele><time>2026-03-29T10:42:13.999Z</time></trkpt><trkpt lat="43.22217483342559" lon="12.169980681795002"><ele>446.0</ele><time>2026-03-29T10:42:14.999Z</time></trkpt><trkpt lat="43.22212867449962" lon="12.170056816192426"><ele>441.5</ele><time>2026-03-29T10:42:15.999Z</time></trkpt><trkpt lat="43.22209185608849" lon="12.170148874842825"><ele>437.0</ele><time>2026-03-29T10:42:17.999Z</time></trkpt><trkpt lat="43.22212025705404" lon="12.17023001291652"><ele>432.49999999999994</ele><time>2026-03-29T10:42:18.999Z</time></trkpt><trkpt lat="43.22214990482276" lon="12.170369614705697"><ele>428.0</ele><time>2026-03-29T10:42:20.999Z</time></trkpt><trkpt lat="43.22218132767758" lon="12.170468992529846"><ele>428.0</ele><time>2026-03-29T10:42:22.999Z</time></trkpt><trkpt lat="43.22227882853814" lon="12.170526803239017"><ele>427.99999999999994</ele><time>2026-03-29T10:42:24.999Z</time></trkpt><trkpt lat="43.22235916904039" lon="12.170603486433215"><ele>427.99999999999994</ele><time>2026-03-29T10:42:26.999Z</time></trkpt><trkpt lat="43.22237417523841" lon="12.170762622220993"><ele>428.0</ele><time>2026-03-29T10:42:28.999Z</time></trkpt><trkpt lat="43.22241756472932" lon="12.170898244731386"><ele>428.0</ele><time>2026-03-29T10:42:30.999Z</time></trkpt><trkpt lat="43.22252478805062" lon="12.170983921589224"><ele>427.8333333333333</ele><time>2026-03-29T10:42:32.999Z</time></trkpt><trkpt lat="43.22254795475778" lon="12.171121322379157"><ele>427.66666666666663</ele><time>2026-03-29T10:42:34.999Z</time></trkpt><trkpt lat="43.2225457518405" lon="12.1712257014171"><ele>427.5</ele><time>2026-03-29T10:42:35.999Z</time></trkpt><trkpt lat="43.222551964282964" lon="12.171312678560358"><ele>427.33333333333337</ele><time>2026-03-29T10:42:36.999Z</time></trkpt><trkpt lat="43.222580969609396" lon="12.17140300045563"><ele>427.1666666666667</ele><time>2026-03-29T10:42:37.999Z</time></trkpt><trkpt lat="43.22261901796685" lon="12.171524617307677"><ele>427.0</ele><time>2026-03-29T10:42:38.999Z</time></trkpt><trkpt lat="43.222633116742905" lon="12.17161294041608"><ele>426.0</ele><time>2026-03-29T10:42:39.999Z</time></trkpt><trkpt lat="43.22259905185387" lon="12.171701762142979"><ele>425.00000000000006</ele><time>2026-03-29T10:42:40.999Z</time></trkpt><trkpt lat="43.22253930642081" lon="12.171800772610743"><ele>424.0</ele><time>2026-03-29T10:42:41.999Z</time></trkpt><trkpt lat="43.22248973917426" lon="12.171951640861709"><ele>423.0</ele><time>2026-03-29T10:42:42.999Z</time></trkpt><trkpt lat="43.22244859822105" lon="12.172129112123873"><ele>422.0</ele><time>2026-03-29T10:42:43.999Z</time></trkpt><trkpt lat="43.22241414756946" lon="12.17228306196788"><ele>422.49999999999994</ele><time>2026-03-29T10:42:44.999Z</time></trkpt><trkpt lat="43.22239763233186" lon="12.172391383396317"><ele>423.0</ele><time>2026-03-29T10:42:45.998Z</time></trkpt><trkpt lat="43.22239351824779" lon="12.172482449086726"><ele>423.5</ele><time>2026-03-29T10:42:46.998Z</time></trkpt><trkpt lat="43.22238132939999" lon="12.172580647170758"><ele>424.0</ele><time>2026-03-29T10:42:47.998Z</time></trkpt><trkpt lat="43.22235384643361" lon="12.172703342050538"><ele>424.49999999999994</ele><time>2026-03-29T10:42:48.998Z</time></trkpt><trkpt lat="43.22231001298206" lon="12.172838366166728"><ele>425.0</ele><time>2026-03-29T10:42:49.998Z</time></trkpt><trkpt lat="43.22226966578529" lon="12.172933184776484"><ele>422.3333333333333</ele><time>2026-03-29T10:42:50.998Z</time></trkpt><trkpt lat="43.22223500211036" lon="12.173020802192791"><ele>419.66666666666663</ele><time>2026-03-29T10:42:51.998Z</time></trkpt><trkpt lat="43.222192917552896" lon="12.173130542442118"><ele>417.0</ele><time>2026-03-29T10:42:52.998Z</time></trkpt><trkpt lat="43.22215141448478" lon="12.173211638954417"><ele>414.33333333333337</ele><time>2026-03-29T10:42:53.998Z</time></trkpt><trkpt lat="43.22208763242133" lon="12.173248991569832"><ele>411.6666666666667</ele><time>2026-03-29T10:42:54.998Z</time></trkpt><trkpt lat="43.22200871313782" lon="12.173262162402729"><ele>409.0</ele><time>2026-03-29T10:42:55.998Z</time></trkpt><trkpt lat="43.22192664366247" lon="12.173271144138061"><ele>409.0</ele><time>2026-03-29T10:42:56.998Z</time></trkpt><trkpt lat="43.221870905818626" lon="12.173312793704044"><ele>409.0</ele><time>2026-03-29T10:42:57.998Z</time></trkpt><trkpt lat="43.22184483640441" lon="12.173474837281894"><ele>409.0</ele><time>2026-03-29T10:42:59.998Z</time></trkpt><trkpt lat="43.221834414589004" lon="12.173633150566104"><ele>409.0</ele><time>2026-03-29T10:43:01.998Z</time></trkpt><trkpt lat="43.22184794867414" lon="12.1738360587281"><ele>409.0</ele><time>2026-03-29T10:43:03.998Z</time></trkpt><trkpt lat="43.22187767628687" lon="12.17397732892658"><ele>408.1666666666667</ele><time>2026-03-29T10:43:04.998Z</time></trkpt><trkpt lat="43.22189984255058" lon="12.17409831236148"><ele>407.33333333333337</ele><time>2026-03-29T10:43:05.998Z</time></trkpt><trkpt lat="43.22190936440586" lon="12.17420215456678"><ele>406.5</ele><time>2026-03-29T10:43:06.998Z</time></trkpt><trkpt lat="43.221918505548615" lon="12.174313641463288"><ele>405.66666666666663</ele><time>2026-03-29T10:43:07.998Z</time></trkpt><trkpt lat="43.22193460524982" lon="12.174433881898864"><ele>404.8333333333333</ele><time>2026-03-29T10:43:08.998Z</time></trkpt><trkpt lat="43.22196465511077" lon="12.174535111830513"><ele>404.0</ele><time>2026-03-29T10:43:09.998Z</time></trkpt><trkpt lat="43.22199435563438" lon="12.174616036299204"><ele>403.99999999999994</ele><time>2026-03-29T10:43:10.998Z</time></trkpt><trkpt lat="43.22204683649449" lon="12.17470075844763"><ele>404.0</ele><time>2026-03-29T10:43:11.998Z</time></trkpt><trkpt lat="43.222099092324235" lon="12.174768782853985"><ele>404.0</ele><time>2026-03-29T10:43:12.998Z</time></trkpt><trkpt lat="43.22215042828836" lon="12.17482955463832"><ele>404.0</ele><time>2026-03-29T10:43:13.998Z</time></trkpt><trkpt lat="43.22222748047586" lon="12.174878912856103"><ele>403.99999999999994</ele><time>2026-03-29T10:43:14.998Z</time></trkpt><trkpt lat="43.222334851284074" lon="12.174904396200711"><ele>404.0</ele><time>2026-03-29T10:43:15.998Z</time></trkpt><trkpt lat="43.22246119217942" lon="12.17491361646711"><ele>404.6</ele><time>2026-03-29T10:43:16.998Z</time></trkpt><trkpt lat="43.22258383225117" lon="12.174901369844076"><ele>405.2</ele><time>2026-03-29T10:43:17.998Z</time></trkpt><trkpt lat="43.222679806549344" lon="12.17490758600267"><ele>405.8</ele><time>2026-03-29T10:43:18.998Z</time></trkpt><trkpt lat="43.2227719048851" lon="12.174943054971797"><ele>406.40000000000003</ele><time>2026-03-29T10:43:19.998Z</time></trkpt><trkpt lat="43.22287214169406" lon="12.174942094328909"><ele>407.0</ele><time>2026-03-29T10:43:20.998Z</time></trkpt><trkpt lat="43.22296609739506" lon="12.17495870995019"><ele>407.0</ele><time>2026-03-29T10:43:21.998Z</time></trkpt><trkpt lat="43.22305221972665" lon="12.174976115048846"><ele>407.0</ele><time>2026-03-29T10:43:22.998Z</time></trkpt><trkpt lat="43.22314639698313" lon="12.174996038549846"><ele>407.0</ele><time>2026-03-29T10:43:23.998Z</time></trkpt><trkpt lat="43.223230822279845" lon="12.175027860374147"><ele>407.0</ele><time>2026-03-29T10:43:24.998Z</time></trkpt><trkpt lat="43.223294634328745" lon="12.175066537114736"><ele>407.0</ele><time>2026-03-29T10:43:25.998Z</time></trkpt><trkpt lat="43.22333979567666" lon="12.175219408337151"><ele>406.99999999999994</ele><time>2026-03-29T10:43:27.998Z</time></trkpt><trkpt lat="43.22331594460738" lon="12.175325960091396"><ele>407.0</ele><time>2026-03-29T10:43:28.998Z</time></trkpt><trkpt lat="43.223263903948876" lon="12.175407197796709"><ele>407.0</ele><time>2026-03-29T10:43:29.998Z</time></trkpt><trkpt lat="43.223186569076766" lon="12.175454275602366"><ele>407.0</ele><time>2026-03-29T10:43:31Z</time></trkpt><trkpt lat="43.22308951065882" lon="12.175467006824451"><ele>406.99999999999994</ele><time>2026-03-29T10:43:32Z</time></trkpt><trkpt lat="43.22298803290235" lon="12.17547318370056"><ele>407.0</ele><time>2026-03-29T10:43:33Z</time></trkpt><trkpt lat="43.22292169518054" lon="12.175517419959641"><ele>406.99999999999994</ele><time>2026-03-29T10:43:34Z</time></trkpt><trkpt lat="43.22284996536874" lon="12.175600794368762"><ele>407.0</ele><time>2026-03-29T10:43:35Z</time></trkpt><trkpt lat="43.22279453679495" lon="12.175694671521157"><ele>407.0</ele><time>2026-03-29T10:43:36Z</time></trkpt><trkpt lat="43.22272185657022" lon="12.175745509202354"><ele>407.0</ele><time>2026-03-29T10:43:37Z</time></trkpt><trkpt lat="43.22264954477756" lon="12.175754553535333"><ele>406.99999999999994</ele><time>2026-03-29T10:43:38Z</time></trkpt><trkpt lat="43.2225665889483" lon="12.1757719176453"><ele>407.0</ele><time>2026-03-29T10:43:39Z</time></trkpt><trkpt lat="43.22249580581297" lon="12.175815334283385"><ele>405.66666666666663</ele><time>2026-03-29T10:43:40Z</time></trkpt><trkpt lat="43.222433918548994" lon="12.175882181273254"><ele>404.3333333333333</ele><time>2026-03-29T10:43:41Z</time></trkpt><trkpt lat="43.2223833654544" lon="12.17596487843001"><ele>403.0</ele><time>2026-03-29T10:43:42Z</time></trkpt><trkpt lat="43.222342670512624" lon="12.176061007781202"><ele>401.66666666666663</ele><time>2026-03-29T10:43:43Z</time></trkpt><trkpt lat="43.222299110163924" lon="12.176144751981063"><ele>400.3333333333333</ele><time>2026-03-29T10:43:44Z</time></trkpt><trkpt lat="43.22224481191949" lon="12.176202000636371"><ele>399.0</ele><time>2026-03-29T10:43:45Z</time></trkpt><trkpt lat="43.22218193162321" lon="12.176263358081332"><ele>397.0</ele><time>2026-03-29T10:43:46Z</time></trkpt><trkpt lat="43.22212577191641" lon="12.17633964893505"><ele>395.0</ele><time>2026-03-29T10:43:47Z</time></trkpt><trkpt lat="43.222088857762984" lon="12.17642146600506"><ele>393.0</ele><time>2026-03-29T10:43:48Z</time></trkpt><trkpt lat="43.222053341290334" lon="12.176496399328501"><ele>391.0</ele><time>2026-03-29T10:43:48.999Z</time></trkpt><trkpt lat="43.22193697054439" lon="12.176572349121768"><ele>389.0</ele><time>2026-03-29T10:43:50.999Z</time></trkpt><trkpt lat="43.22186852014262" lon="12.176571632632625"><ele>387.0</ele><time>2026-03-29T10:43:51.999Z</time></trkpt><trkpt lat="43.221796300786835" lon="12.17656499447132"><ele>387.0</ele><time>2026-03-29T10:43:52.999Z</time></trkpt><trkpt lat="43.22172606909785" lon="12.176569262518061"><ele>387.0</ele><time>2026-03-29T10:43:53.999Z</time></trkpt><trkpt lat="43.22166025280266" lon="12.176564847910852"><ele>387.0</ele><time>2026-03-29T10:43:54.999Z</time></trkpt><trkpt lat="43.22159586805922" lon="12.176553138304673"><ele>387.0</ele><time>2026-03-29T10:43:55.999Z</time></trkpt><trkpt lat="43.22152521167635" lon="12.176531001984678"><ele>387.0</ele><time>2026-03-29T10:43:56.999Z</time></trkpt><trkpt lat="43.22144790821176" lon="12.176505656735417"><ele>387.0</ele><time>2026-03-29T10:43:57.999Z</time></trkpt><trkpt lat="43.22137712585992" lon="12.17647855938294"><ele>387.0</ele><time>2026-03-29T10:43:58.999Z</time></trkpt><trkpt lat="43.22130737011874" lon="12.176448178314823"><ele>385.3333333333333</ele><time>2026-03-29T10:43:59.999Z</time></trkpt><trkpt lat="43.22123289575907" lon="12.176417056280162"><ele>383.6666666666667</ele><time>2026-03-29T10:44:00.999Z</time></trkpt><trkpt lat="43.221155646850555" lon="12.176384966397201"><ele>382.0</ele><time>2026-03-29T10:44:01.999Z</time></trkpt><trkpt lat="43.22106934706136" lon="12.17635156591874"><ele>380.33333333333337</ele><time>2026-03-29T10:44:02.999Z</time></trkpt><trkpt lat="43.2209772065366" lon="12.176320265777356"><ele>378.6666666666667</ele><time>2026-03-29T10:44:03.999Z</time></trkpt><trkpt lat="43.220884366409564" lon="12.176304323533351"><ele>377.0</ele><time>2026-03-29T10:44:04.999Z</time></trkpt><trkpt lat="43.2208109881059" lon="12.176291110594857"><ele>377.0</ele><time>2026-03-29T10:44:05.999Z</time></trkpt><trkpt lat="43.220701035669556" lon="12.176335138601916"><ele>377.0</ele><time>2026-03-29T10:44:07.999Z</time></trkpt><trkpt lat="43.22066344155961" lon="12.176418979373118"><ele>377.0</ele><time>2026-03-29T10:44:08.999Z</time></trkpt><trkpt lat="43.22060644200912" lon="12.176523492482241"><ele>377.0</ele><time>2026-03-29T10:44:09.999Z</time></trkpt><trkpt lat="43.220535241620254" lon="12.176593509606667"><ele>377.0</ele><time>2026-03-29T10:44:10.999Z</time></trkpt><trkpt lat="43.22043488373665" lon="12.176649731273557"><ele>371.6666666666667</ele><time>2026-03-29T10:44:11.999Z</time></trkpt><trkpt lat="43.22029336157643" lon="12.176703534499635"><ele>366.3333333333333</ele><time>2026-03-29T10:44:12.999Z</time></trkpt><trkpt lat="43.22013488628916" lon="12.176768693173974"><ele>361.0</ele><time>2026-03-29T10:44:13.999Z</time></trkpt><trkpt lat="43.21995642501711" lon="12.176854026264431"><ele>357.66666666666663</ele><time>2026-03-29T10:44:14.999Z</time></trkpt><trkpt lat="43.21978572289821" lon="12.1769347518019"><ele>354.3333333333333</ele><time>2026-03-29T10:44:15.999Z</time></trkpt><trkpt lat="43.219632301307286" lon="12.17700668841552"><ele>351.0</ele><time>2026-03-29T10:44:16.999Z</time></trkpt><trkpt lat="43.219489958622184" lon="12.177079238951862"><ele>351.0</ele><time>2026-03-29T10:44:17.999Z</time></trkpt><trkpt lat="43.21935735221005" lon="12.177156642687907"><ele>351.0</ele><time>2026-03-29T10:44:18.999Z</time></trkpt><trkpt lat="43.21923197835055" lon="12.177240558896187"><ele>351.0</ele><time>2026-03-29T10:44:19.999Z</time></trkpt><trkpt lat="43.21911926893186" lon="12.177337951263429"><ele>351.0</ele><time>2026-03-29T10:44:20.999Z</time></trkpt><trkpt lat="43.21901480141572" lon="12.177461014588236"><ele>348.25</ele><time>2026-03-29T10:44:21.999Z</time></trkpt><trkpt lat="43.218913509264844" lon="12.177576772902613"><ele>345.5</ele><time>2026-03-29T10:44:22.999Z</time></trkpt><trkpt lat="43.21880573349854" lon="12.177683966666919"><ele>342.75</ele><time>2026-03-29T10:44:23.999Z</time></trkpt><trkpt lat="43.21869602007498" lon="12.177777315436963"><ele>340.0</ele><time>2026-03-29T10:44:24.999Z</time></trkpt><trkpt lat="43.218594410071084" lon="12.177855365939935"><ele>340.0</ele><time>2026-03-29T10:44:25.999Z</time></trkpt><trkpt lat="43.21850613573113" lon="12.177949046789555"><ele>340.0</ele><time>2026-03-29T10:44:26.999Z</time></trkpt><trkpt lat="43.21842598867634" lon="12.17806268367108"><ele>340.0</ele><time>2026-03-29T10:44:27.999Z</time></trkpt><trkpt lat="43.21833089232547" lon="12.178156938458725"><ele>340.0</ele><time>2026-03-29T10:44:28.999Z</time></trkpt><trkpt lat="43.21821132683417" lon="12.178233986455842"><ele>339.0</ele><time>2026-03-29T10:44:29.999Z</time></trkpt><trkpt lat="43.21808373492056" lon="12.178308045735623"><ele>338.0</ele><time>2026-03-29T10:44:30.999Z</time></trkpt><trkpt lat="43.217959167245716" lon="12.178388042559835"><ele>337.0</ele><time>2026-03-29T10:44:31.999Z</time></trkpt><trkpt lat="43.21783962810537" lon="12.178465143928086"><ele>336.0</ele><time>2026-03-29T10:44:32.999Z</time></trkpt><trkpt lat="43.217730929060004" lon="12.17851870776757"><ele>336.0</ele><time>2026-03-29T10:44:33.999Z</time></trkpt><trkpt lat="43.21764021811488" lon="12.178549660833799"><ele>336.0</ele><time>2026-03-29T10:44:34.999Z</time></trkpt><trkpt lat="43.217556392847726" lon="12.178552056881168"><ele>336.0</ele><time>2026-03-29T10:44:35.999Z</time></trkpt><trkpt lat="43.21748174597687" lon="12.178539084917302"><ele>336.0</ele><time>2026-03-29T10:44:36.999Z</time></trkpt><trkpt lat="43.217408349217685" lon="12.178565917436451"><ele>336.0</ele><time>2026-03-29T10:44:38.999Z</time></trkpt><trkpt lat="43.21731119253112" lon="12.17862764551375"><ele>336.0</ele><time>2026-03-29T10:44:40.999Z</time></trkpt><trkpt lat="43.217223853028194" lon="12.178710794883024"><ele>334.8</ele><time>2026-03-29T10:44:41.999Z</time></trkpt><trkpt lat="43.21711798910494" lon="12.178807520863764"><ele>333.6</ele><time>2026-03-29T10:44:42.999Z</time></trkpt><trkpt lat="43.21703051134519" lon="12.178884111287768"><ele>332.4</ele><time>2026-03-29T10:44:43.999Z</time></trkpt><trkpt lat="43.21694781535563" lon="12.178954377549326"><ele>331.2</ele><time>2026-03-29T10:44:44.999Z</time></trkpt><trkpt lat="43.21686360031073" lon="12.179025176656422"><ele>330.0</ele><time>2026-03-29T10:44:45.999Z</time></trkpt><trkpt lat="43.21676210107569" lon="12.179110506488406"><ele>329.6666666666667</ele><time>2026-03-29T10:44:46.999Z</time></trkpt><trkpt lat="43.216639038732524" lon="12.17921189126201"><ele>329.33333333333337</ele><time>2026-03-29T10:44:47.999Z</time></trkpt><trkpt lat="43.216494754839246" lon="12.179327992760772"><ele>329.0</ele><time>2026-03-29T10:44:48.999Z</time></trkpt><trkpt lat="43.216340485238774" lon="12.17945370563296"><ele>327.0</ele><time>2026-03-29T10:44:49.999Z</time></trkpt><trkpt lat="43.21619490533457" lon="12.179576252981484"><ele>325.0</ele><time>2026-03-29T10:44:50.999Z</time></trkpt><trkpt lat="43.21607256943965" lon="12.179688114240696"><ele>323.0</ele><time>2026-03-29T10:44:51.999Z</time></trkpt><trkpt lat="43.21598131411505" lon="12.179780899303092"><ele>321.0</ele><time>2026-03-29T10:44:52.999Z</time></trkpt><trkpt lat="43.21591010345554" lon="12.179857269946107"><ele>320.6</ele><time>2026-03-29T10:44:53.998Z</time></trkpt><trkpt lat="43.21584925657409" lon="12.179941555493738"><ele>320.20000000000005</ele><time>2026-03-29T10:44:54.998Z</time></trkpt><trkpt lat="43.2158101037616" lon="12.180065538364863"><ele>319.79999999999995</ele><time>2026-03-29T10:44:55.998Z</time></trkpt><trkpt lat="43.21580941122677" lon="12.180210973759147"><ele>319.4</ele><time>2026-03-29T10:44:56.998Z</time></trkpt><trkpt lat="43.215819041735074" lon="12.180339633375636"><ele>319.0</ele><time>2026-03-29T10:44:57.998Z</time></trkpt><trkpt lat="43.215902572412794" lon="12.18045314573797"><ele>319.0</ele><time>2026-03-29T10:44:58.998Z</time></trkpt><trkpt lat="43.216004415709534" lon="12.180548022568559"><ele>319.0</ele><time>2026-03-29T10:44:59.998Z</time></trkpt><trkpt lat="43.21609828721967" lon="12.180710500493163"><ele>319.0</ele><time>2026-03-29T10:45:00.998Z</time></trkpt><trkpt lat="43.21620774858199" lon="12.18085465442763"><ele>319.0</ele><time>2026-03-29T10:45:01.998Z</time></trkpt><trkpt lat="43.21636039582437" lon="12.180958667757286"><ele>320.3333333333333</ele><time>2026-03-29T10:45:02.998Z</time></trkpt><trkpt lat="43.216493745118854" lon="12.181086469802883"><ele>321.6666666666667</ele><time>2026-03-29T10:45:03.998Z</time></trkpt><trkpt lat="43.21659924004366" lon="12.181230648045718"><ele>323.0</ele><time>2026-03-29T10:45:04.998Z</time></trkpt><trkpt lat="43.21672449410948" lon="12.181416263149389"><ele>321.6666666666667</ele><time>2026-03-29T10:45:05.998Z</time></trkpt><trkpt lat="43.21685914939631" lon="12.181612259945874"><ele>320.3333333333333</ele><time>2026-03-29T10:45:06.998Z</time></trkpt><trkpt lat="43.21700490370044" lon="12.18182619994184"><ele>319.0</ele><time>2026-03-29T10:45:07.998Z</time></trkpt><trkpt lat="43.21716414002993" lon="12.182062072201397"><ele>321.0</ele><time>2026-03-29T10:45:08.998Z</time></trkpt><trkpt lat="43.21732695030643" lon="12.182311576959563"><ele>323.0</ele><time>2026-03-29T10:45:09.998Z</time></trkpt><trkpt lat="43.217496270057275" lon="12.182571057185575"><ele>323.0</ele><time>2026-03-29T10:45:10.998Z</time></trkpt><trkpt lat="43.21765961565028" lon="12.182817161468003"><ele>323.0</ele><time>2026-03-29T10:45:11.998Z</time></trkpt><trkpt lat="43.217803776540855" lon="12.183032376246958"><ele>323.33333333333337</ele><time>2026-03-29T10:45:12.998Z</time></trkpt><trkpt lat="43.217937967104554" lon="12.183233276401147"><ele>323.6666666666667</ele><time>2026-03-29T10:45:13.998Z</time></trkpt><trkpt lat="43.21806717743696" lon="12.183427977430405"><ele>324.0</ele><time>2026-03-29T10:45:14.998Z</time></trkpt><trkpt lat="43.21818640183071" lon="12.183607631262309"><ele>324.3333333333333</ele><time>2026-03-29T10:45:15.998Z</time></trkpt><trkpt lat="43.21829633988952" lon="12.183770112450858"><ele>324.66666666666663</ele><time>2026-03-29T10:45:16.998Z</time></trkpt><trkpt lat="43.2184001828904" lon="12.183923285950584"><ele>325.0</ele><time>2026-03-29T10:45:17.998Z</time></trkpt><trkpt lat="43.21850239154339" lon="12.184074046844367"><ele>325.0</ele><time>2026-03-29T10:45:18.998Z</time></trkpt><trkpt lat="43.21861484891857" lon="12.184239924916104"><ele>325.0</ele><time>2026-03-29T10:45:19.998Z</time></trkpt><trkpt lat="43.21874597398755" lon="12.184404093668066"><ele>325.0</ele><time>2026-03-29T10:45:20.998Z</time></trkpt><trkpt lat="43.21886756529407" lon="12.184586329273294"><ele>326.0</ele><time>2026-03-29T10:45:21.998Z</time></trkpt><trkpt lat="43.21899063201644" lon="12.184756414709986"><ele>327.0</ele><time>2026-03-29T10:45:22.998Z</time></trkpt><trkpt lat="43.21910721572152" lon="12.184886982380243"><ele>328.0</ele><time>2026-03-29T10:45:23.998Z</time></trkpt><trkpt lat="43.219219101849085" lon="12.185002397930509"><ele>328.0</ele><time>2026-03-29T10:45:24.998Z</time></trkpt><trkpt lat="43.219313488224145" lon="12.185099008293015"><ele>328.0</ele><time>2026-03-29T10:45:25.998Z</time></trkpt><trkpt lat="43.21939535354981" lon="12.185193923950164"><ele>328.0</ele><time>2026-03-29T10:45:26.998Z</time></trkpt><trkpt lat="43.219498670876575" lon="12.18531189221042"><ele>328.0</ele><time>2026-03-29T10:45:27.998Z</time></trkpt><trkpt lat="43.21962325958483" lon="12.1854399877827"><ele>328.0</ele><time>2026-03-29T10:45:28.998Z</time></trkpt><trkpt lat="43.2197454870097" lon="12.185559799551394"><ele>328.0</ele><time>2026-03-29T10:45:29.998Z</time></trkpt><trkpt lat="43.2198571744392" lon="12.185666671697426"><ele>328.0</ele><time>2026-03-29T10:45:30.998Z</time></trkpt><trkpt lat="43.21996522754996" lon="12.185768230960992"><ele>328.0</ele><time>2026-03-29T10:45:31.998Z</time></trkpt><trkpt lat="43.2200762155531" lon="12.185872859687224"><ele>326.4</ele><time>2026-03-29T10:45:32.998Z</time></trkpt><trkpt lat="43.22018852008574" lon="12.185976703046148"><ele>324.79999999999995</ele><time>2026-03-29T10:45:33.998Z</time></trkpt><trkpt lat="43.220284217196976" lon="12.186064804600772"><ele>323.2</ele><time>2026-03-29T10:45:34.998Z</time></trkpt><trkpt lat="43.220366927248676" lon="12.186138706484336"><ele>321.6</ele><time>2026-03-29T10:45:35.998Z</time></trkpt><trkpt lat="43.22043907546615" lon="12.186205661304472"><ele>320.0</ele><time>2026-03-29T10:45:37Z</time></trkpt><trkpt lat="43.220507806788184" lon="12.186267591333593"><ele>320.0</ele><time>2026-03-29T10:45:38Z</time></trkpt><trkpt lat="43.220565463642224" lon="12.18632112141884"><ele>320.0</ele><time>2026-03-29T10:45:39Z</time></trkpt><trkpt lat="43.2206494123714" lon="12.186400526816637"><ele>320.0</ele><time>2026-03-29T10:45:41Z</time></trkpt><trkpt lat="43.22072425047064" lon="12.186473058576999"><ele>320.0</ele><time>2026-03-29T10:45:42Z</time></trkpt><trkpt lat="43.22079507451478" lon="12.186557953153228"><ele>320.0</ele><time>2026-03-29T10:45:43Z</time></trkpt><trkpt lat="43.220849283793285" lon="12.186622095854789"><ele>320.0</ele><time>2026-03-29T10:45:44Z</time></trkpt><trkpt lat="43.22089614307046" lon="12.18673882174539"><ele>320.0</ele><time>2026-03-29T10:45:46Z</time></trkpt><trkpt lat="43.22090531568445" lon="12.18685111906231"><ele>320.0</ele><time>2026-03-29T10:45:47Z</time></trkpt><trkpt lat="43.220889555468375" lon="12.18702929751876"><ele>320.0</ele><time>2026-03-29T10:45:48Z</time></trkpt><trkpt lat="43.2208657827396" lon="12.187244865715149"><ele>320.0</ele><time>2026-03-29T10:45:49Z</time></trkpt><trkpt lat="43.22085155710816" lon="12.187488528473708"><ele>320.0</ele><time>2026-03-29T10:45:50Z</time></trkpt><trkpt lat="43.2208354883919" lon="12.187744791129482"><ele>320.0</ele><time>2026-03-29T10:45:51Z</time></trkpt><trkpt lat="43.22081339945761" lon="12.187994739234826"><ele>320.0</ele><time>2026-03-29T10:45:52Z</time></trkpt><trkpt lat="43.22078445273319" lon="12.188214668835139"><ele>319.0</ele><time>2026-03-29T10:45:53Z</time></trkpt><trkpt lat="43.220751051294066" lon="12.188413558748447"><ele>318.0</ele><time>2026-03-29T10:45:54Z</time></trkpt><trkpt lat="43.220717563523905" lon="12.188595652890276"><ele>317.0</ele><time>2026-03-29T10:45:55Z</time></trkpt><trkpt lat="43.220674033473735" lon="12.188767368595967"><ele>316.0</ele><time>2026-03-29T10:45:55.999Z</time></trkpt><trkpt lat="43.22061650601284" lon="12.188934380886279"><ele>316.3333333333333</ele><time>2026-03-29T10:45:56.999Z</time></trkpt><trkpt lat="43.220538933052346" lon="12.189096474929238"><ele>316.6666666666667</ele><time>2026-03-29T10:45:57.999Z</time></trkpt><trkpt lat="43.220437300155744" lon="12.189256460532402"><ele>317.0</ele><time>2026-03-29T10:45:58.999Z</time></trkpt><trkpt lat="43.22031831923177" lon="12.189426250149754"><ele>317.0</ele><time>2026-03-29T10:45:59.999Z</time></trkpt><trkpt lat="43.22018893292069" lon="12.189618393796026"><ele>317.0</ele><time>2026-03-29T10:46:00.999Z</time></trkpt><trkpt lat="43.22006318785456" lon="12.189808795073878"><ele>317.0</ele><time>2026-03-29T10:46:01.999Z</time></trkpt><trkpt lat="43.21995014526506" lon="12.18997406591029"><ele>316.5</ele><time>2026-03-29T10:46:02.999Z</time></trkpt><trkpt lat="43.21985094126813" lon="12.19012131914363"><ele>316.0</ele><time>2026-03-29T10:46:03.999Z</time></trkpt><trkpt lat="43.21976451732497" lon="12.190263596195567"><ele>315.5</ele><time>2026-03-29T10:46:04.999Z</time></trkpt><trkpt lat="43.21967125859246" lon="12.19042078169772"><ele>315.0</ele><time>2026-03-29T10:46:05.999Z</time></trkpt><trkpt lat="43.2195595797992" lon="12.190595025784615"><ele>315.25</ele><time>2026-03-29T10:46:06.999Z</time></trkpt><trkpt lat="43.219455797934046" lon="12.190759129992935"><ele>315.5</ele><time>2026-03-29T10:46:07.999Z</time></trkpt><trkpt lat="43.21936375778271" lon="12.19090941336515"><ele>315.75</ele><time>2026-03-29T10:46:08.999Z</time></trkpt><trkpt lat="43.219285620548156" lon="12.19103287719584"><ele>316.0</ele><time>2026-03-29T10:46:09.999Z</time></trkpt><trkpt lat="43.219220116922536" lon="12.191140289324627"><ele>316.0</ele><time>2026-03-29T10:46:10.999Z</time></trkpt><trkpt lat="43.21917011677996" lon="12.19123474757307"><ele>316.0</ele><time>2026-03-29T10:46:11.999Z</time></trkpt><trkpt lat="43.21913328444254" lon="12.191319990304054"><ele>316.0</ele><time>2026-03-29T10:46:12.999Z</time></trkpt><trkpt lat="43.2190816516742" lon="12.191401584729931"><ele>316.0</ele><time>2026-03-29T10:46:13.999Z</time></trkpt><trkpt lat="43.21898589542251" lon="12.191482524627371"><ele>316.0</ele><time>2026-03-29T10:46:14.999Z</time></trkpt><trkpt lat="43.218848774394814" lon="12.191547874998047"><ele>315.0</ele><time>2026-03-29T10:46:15.999Z</time></trkpt><trkpt lat="43.21868083156479" lon="12.191602910383295"><ele>314.0</ele><time>2026-03-29T10:46:16.999Z</time></trkpt><trkpt lat="43.2185303908049" lon="12.19164851271083"><ele>313.0</ele><time>2026-03-29T10:46:17.999Z</time></trkpt><trkpt lat="43.218430838376555" lon="12.191669240454338"><ele>312.0</ele><time>2026-03-29T10:46:18.999Z</time></trkpt><trkpt lat="43.2183561121656" lon="12.191675215042093"><ele>312.0</ele><time>2026-03-29T10:46:19.999Z</time></trkpt><trkpt lat="43.21825599407659" lon="12.191683042636955"><ele>312.0</ele><time>2026-03-29T10:46:20.999Z</time></trkpt><trkpt lat="43.21811708388703" lon="12.191696288968755"><ele>312.0</ele><time>2026-03-29T10:46:21.999Z</time></trkpt><trkpt lat="43.217963544550784" lon="12.191712087177082"><ele>312.0</ele><time>2026-03-29T10:46:22.999Z</time></trkpt><trkpt lat="43.217793675127524" lon="12.19172731927026"><ele>312.0</ele><time>2026-03-29T10:46:23.999Z</time></trkpt><trkpt lat="43.21762642118807" lon="12.191743235674116"><ele>312.0</ele><time>2026-03-29T10:46:24.999Z</time></trkpt><trkpt lat="43.21747223498804" lon="12.191759537351713"><ele>312.0</ele><time>2026-03-29T10:46:25.999Z</time></trkpt><trkpt lat="43.21732972718301" lon="12.191777216661293"><ele>312.25</ele><time>2026-03-29T10:46:26.999Z</time></trkpt><trkpt lat="43.217196831170234" lon="12.191788183655234"><ele>312.5</ele><time>2026-03-29T10:46:27.999Z</time></trkpt><trkpt lat="43.21707171084307" lon="12.191794834549691"><ele>312.75</ele><time>2026-03-29T10:46:28.999Z</time></trkpt><trkpt lat="43.21695554756378" lon="12.19180120640916"><ele>313.0</ele><time>2026-03-29T10:46:29.999Z</time></trkpt><trkpt lat="43.21684763641148" lon="12.191811542590443"><ele>313.0</ele><time>2026-03-29T10:46:30.999Z</time></trkpt><trkpt lat="43.21674739342369" lon="12.191820656770222"><ele>313.0</ele><time>2026-03-29T10:46:31.999Z</time></trkpt><trkpt lat="43.21665726278469" lon="12.191820458632863"><ele>313.0</ele><time>2026-03-29T10:46:32.999Z</time></trkpt><trkpt lat="43.216580355564844" lon="12.191819949491686"><ele>313.0</ele><time>2026-03-29T10:46:33.999Z</time></trkpt><trkpt lat="43.21647305700857" lon="12.19182694177158"><ele>313.0</ele><time>2026-03-29T10:46:35.999Z</time></trkpt><trkpt lat="43.2164049209085" lon="12.191827711048596"><ele>313.0</ele><time>2026-03-29T10:46:53.999Z</time></trkpt><trkpt lat="43.216425904374475" lon="12.191954188627825"><ele>313.0</ele><time>2026-03-29T10:48:40.999Z</time></trkpt><trkpt lat="43.21646087224885" lon="12.192081367486658"><ele>313.0</ele><time>2026-03-29T10:48:41.999Z</time></trkpt><trkpt lat="43.21648431368787" lon="12.192239185403896"><ele>313.0</ele><time>2026-03-29T10:48:42.999Z</time></trkpt><trkpt lat="43.21651562855937" lon="12.19242617983054"><ele>313.0</ele><time>2026-03-29T10:48:43.999Z</time></trkpt><trkpt lat="43.21657592969604" lon="12.192633152872425"><ele>313.0</ele><time>2026-03-29T10:48:44.999Z</time></trkpt><trkpt lat="43.21667681412286" lon="12.192856179898357"><ele>313.0</ele><time>2026-03-29T10:48:45.999Z</time></trkpt><trkpt lat="43.21679421626252" lon="12.193090037865806"><ele>313.0</ele><time>2026-03-29T10:48:46.999Z</time></trkpt><trkpt lat="43.216896716861676" lon="12.193316116482517"><ele>313.0</ele><time>2026-03-29T10:48:47.999Z</time></trkpt><trkpt lat="43.216970620858895" lon="12.1935117106201"><ele>313.0</ele><time>2026-03-29T10:48:48.999Z</time></trkpt><trkpt lat="43.21703898466585" lon="12.193692090924353"><ele>313.0</ele><time>2026-03-29T10:48:49.999Z</time></trkpt><trkpt lat="43.21710718498235" lon="12.193854355481035"><ele>313.0</ele><time>2026-03-29T10:48:50.999Z</time></trkpt><trkpt lat="43.217174095468735" lon="12.194018184749066"><ele>313.0</ele><time>2026-03-29T10:48:51.999Z</time></trkpt><trkpt lat="43.21724511048686" lon="12.194190464798133"><ele>313.0</ele><time>2026-03-29T10:48:52.999Z</time></trkpt><trkpt lat="43.21731674640611" lon="12.19434756984815"><ele>313.0</ele><time>2026-03-29T10:48:53.999Z</time></trkpt><trkpt lat="43.21738573717118" lon="12.19448545629559"><ele>313.0</ele><time>2026-03-29T10:48:54.999Z</time></trkpt><trkpt lat="43.21745320885867" lon="12.194622020772044"><ele>312.8</ele><time>2026-03-29T10:48:55.999Z</time></trkpt><trkpt lat="43.21749274129358" lon="12.194741104326653"><ele>312.6</ele><time>2026-03-29T10:48:56.999Z</time></trkpt><trkpt lat="43.21750245368683" lon="12.194846385781899"><ele>312.4</ele><time>2026-03-29T10:48:57.999Z</time></trkpt><trkpt lat="43.21748585649527" lon="12.194946541249616"><ele>312.2</ele><time>2026-03-29T10:48:58.999Z</time></trkpt><trkpt lat="43.21745026452081" lon="12.195083790178842"><ele>312.0</ele><time>2026-03-29T10:48:59.999Z</time></trkpt><trkpt lat="43.21739826305734" lon="12.195269854319546"><ele>312.0</ele><time>2026-03-29T10:49:00.999Z</time></trkpt><trkpt lat="43.21734877299268" lon="12.195466834369444"><ele>312.0</ele><time>2026-03-29T10:49:01.999Z</time></trkpt><trkpt lat="43.217298334411865" lon="12.195667028314558"><ele>312.0</ele><time>2026-03-29T10:49:02.999Z</time></trkpt><trkpt lat="43.21725174224528" lon="12.195848885183514"><ele>312.0</ele><time>2026-03-29T10:49:03.999Z</time></trkpt><trkpt lat="43.21721360694426" lon="12.19601491468584"><ele>312.0</ele><time>2026-03-29T10:49:04.999Z</time></trkpt><trkpt lat="43.217177066466" lon="12.196183979186063"><ele>312.0</ele><time>2026-03-29T10:49:05.998Z</time></trkpt><trkpt lat="43.21715272895177" lon="12.196363980564147"><ele>312.0</ele><time>2026-03-29T10:49:06.998Z</time></trkpt><trkpt lat="43.21715470461706" lon="12.196553335847533"><ele>312.0</ele><time>2026-03-29T10:49:07.998Z</time></trkpt><trkpt lat="43.21717034016299" lon="12.196746973308793"><ele>311.6666666666667</ele><time>2026-03-29T10:49:08.998Z</time></trkpt><trkpt lat="43.217194308926956" lon="12.196962650782098"><ele>311.33333333333337</ele><time>2026-03-29T10:49:09.998Z</time></trkpt><trkpt lat="43.217226912260315" lon="12.197198481649218"><ele>311.0</ele><time>2026-03-29T10:49:10.998Z</time></trkpt><trkpt lat="43.21726165168652" lon="12.197434562963101"><ele>311.0</ele><time>2026-03-29T10:49:11.998Z</time></trkpt><trkpt lat="43.217293887152074" lon="12.197669548101626"><ele>311.0</ele><time>2026-03-29T10:49:12.998Z</time></trkpt><trkpt lat="43.21731990569502" lon="12.197899502871227"><ele>311.0</ele><time>2026-03-29T10:49:13.998Z</time></trkpt><trkpt lat="43.217333779596586" lon="12.198124993532435"><ele>310.6666666666667</ele><time>2026-03-29T10:49:14.998Z</time></trkpt><trkpt lat="43.21735425918979" lon="12.198335584251993"><ele>310.3333333333333</ele><time>2026-03-29T10:49:15.998Z</time></trkpt><trkpt lat="43.217403048952775" lon="12.198546947056343"><ele>310.0</ele><time>2026-03-29T10:49:16.998Z</time></trkpt><trkpt lat="43.21747797196115" lon="12.198768213643127"><ele>310.0</ele><time>2026-03-29T10:49:17.998Z</time></trkpt><trkpt lat="43.217569845933276" lon="12.198983482108861"><ele>310.0</ele><time>2026-03-29T10:49:18.998Z</time></trkpt><trkpt lat="43.2176669036507" lon="12.199204017658591"><ele>310.0</ele><time>2026-03-29T10:49:19.998Z</time></trkpt><trkpt lat="43.21775831130641" lon="12.199435165097075"><ele>310.0</ele><time>2026-03-29T10:49:20.998Z</time></trkpt><trkpt lat="43.21785082142896" lon="12.19967386232579"><ele>310.0</ele><time>2026-03-29T10:49:21.998Z</time></trkpt><trkpt lat="43.21794445616943" lon="12.199917304813617"><ele>310.0</ele><time>2026-03-29T10:49:22.998Z</time></trkpt><trkpt lat="43.21803931573639" lon="12.200160929503207"><ele>310.0</ele><time>2026-03-29T10:49:23.998Z</time></trkpt><trkpt lat="43.21813978316265" lon="12.200401506944452"><ele>310.0</ele><time>2026-03-29T10:49:24.998Z</time></trkpt><trkpt lat="43.21823985136371" lon="12.200641620385527"><ele>310.0</ele><time>2026-03-29T10:49:25.998Z</time></trkpt><trkpt lat="43.21833193173645" lon="12.200863986146494"><ele>310.66666666666663</ele><time>2026-03-29T10:49:26.998Z</time></trkpt><trkpt lat="43.21840812067307" lon="12.201067140718099"><ele>311.3333333333333</ele><time>2026-03-29T10:49:27.998Z</time></trkpt><trkpt lat="43.21847416755906" lon="12.20125127743785"><ele>312.0</ele><time>2026-03-29T10:49:28.998Z</time></trkpt><trkpt lat="43.21853897204455" lon="12.201422736229796"><ele>312.4</ele><time>2026-03-29T10:49:29.998Z</time></trkpt><trkpt lat="43.21859638167252" lon="12.201583596231458"><ele>312.79999999999995</ele><time>2026-03-29T10:49:30.998Z</time></trkpt><trkpt lat="43.2186471991585" lon="12.201729754851966"><ele>313.2</ele><time>2026-03-29T10:49:31.998Z</time></trkpt><trkpt lat="43.21868744613735" lon="12.20185391260058"><ele>313.59999999999997</ele><time>2026-03-29T10:49:32.998Z</time></trkpt><trkpt lat="43.21871928644412" lon="12.201944117178229"><ele>314.0</ele><time>2026-03-29T10:49:33.998Z</time></trkpt><trkpt lat="43.21871640872843" lon="12.202068274419076"><ele>314.0</ele><time>2026-03-29T10:49:35.998Z</time></trkpt><trkpt lat="43.218626797645655" lon="12.202134232414329"><ele>314.0</ele><time>2026-03-29T10:49:37.998Z</time></trkpt><trkpt lat="43.21853620662321" lon="12.202142466616156"><ele>314.0</ele><time>2026-03-29T10:49:38.998Z</time></trkpt><trkpt lat="43.2184032183087" lon="12.202146074619257"><ele>314.0</ele><time>2026-03-29T10:49:39.998Z</time></trkpt><trkpt lat="43.21824300297247" lon="12.202158933781998"><ele>314.0</ele><time>2026-03-29T10:49:40.998Z</time></trkpt><trkpt lat="43.21805939804123" lon="12.20218033277854"><ele>314.0</ele><time>2026-03-29T10:49:41.998Z</time></trkpt><trkpt lat="43.217864059802956" lon="12.202205145927552"><ele>314.0</ele><time>2026-03-29T10:49:42.998Z</time></trkpt><trkpt lat="43.21768755816566" lon="12.20222605660224"><ele>314.0</ele><time>2026-03-29T10:49:43.998Z</time></trkpt><trkpt lat="43.2175128329014" lon="12.202245169215402"><ele>314.0</ele><time>2026-03-29T10:49:44.998Z</time></trkpt><trkpt lat="43.2173598860236" lon="12.202261251374445"><ele>314.0</ele><time>2026-03-29T10:49:45.998Z</time></trkpt><trkpt lat="43.21722797910477" lon="12.202276849637789"><ele>314.0</ele><time>2026-03-29T10:49:46.998Z</time></trkpt><trkpt lat="43.217115401811654" lon="12.202310879184408"><ele>314.0</ele><time>2026-03-29T10:49:47.998Z</time></trkpt><trkpt lat="43.21702679376846" lon="12.202368993752666"><ele>314.0</ele><time>2026-03-29T10:49:49Z</time></trkpt><trkpt lat="43.216955067916665" lon="12.202455307900678"><ele>314.0</ele><time>2026-03-29T10:49:50Z</time></trkpt><trkpt lat="43.216898439071244" lon="12.202543034577296"><ele>314.0</ele><time>2026-03-29T10:49:51Z</time></trkpt><trkpt lat="43.216854155617476" lon="12.20262305265873"><ele>314.0</ele><time>2026-03-29T10:49:53Z</time></trkpt><trkpt lat="43.21678405188925" lon="12.202743349494154"><ele>314.0</ele><time>2026-03-29T10:49:56Z</time></trkpt><trkpt lat="43.216713551811814" lon="12.202854653483085"><ele>314.0</ele><time>2026-03-29T10:49:57Z</time></trkpt><trkpt lat="43.21662533738698" lon="12.20299543555367"><ele>314.0</ele><time>2026-03-29T10:49:58Z</time></trkpt><trkpt lat="43.21651820317842" lon="12.203163887888476"><ele>316.0</ele><time>2026-03-29T10:49:59Z</time></trkpt><trkpt lat="43.216392900410995" lon="12.203348952495677"><ele>318.0</ele><time>2026-03-29T10:50:00Z</time></trkpt><trkpt lat="43.21627961882801" lon="12.203511312052521"><ele>320.0</ele><time>2026-03-29T10:50:01Z</time></trkpt><trkpt lat="43.21618594316009" lon="12.203631840415268"><ele>320.0</ele><time>2026-03-29T10:50:02Z</time></trkpt><trkpt lat="43.216113169352596" lon="12.203756729525475"><ele>320.0</ele><time>2026-03-29T10:50:03Z</time></trkpt><trkpt lat="43.21606360869224" lon="12.203898057494792"><ele>320.0</ele><time>2026-03-29T10:50:04Z</time></trkpt><trkpt lat="43.21602271594194" lon="12.204038728358682"><ele>320.0</ele><time>2026-03-29T10:50:05Z</time></trkpt><trkpt lat="43.2159786303577" lon="12.204131234614175"><ele>320.0</ele><time>2026-03-29T10:50:06Z</time></trkpt><trkpt lat="43.21592926183847" lon="12.204190514209756"><ele>320.5</ele><time>2026-03-29T10:50:06.999Z</time></trkpt><trkpt lat="43.21584817220287" lon="12.204299261305898"><ele>321.0</ele><time>2026-03-29T10:50:08.999Z</time></trkpt><trkpt lat="43.215788790023915" lon="12.2043569139968"><ele>321.5</ele><time>2026-03-29T10:50:09.999Z</time></trkpt><trkpt lat="43.215717297707506" lon="12.204416848504504"><ele>322.0</ele><time>2026-03-29T10:50:10.999Z</time></trkpt><trkpt lat="43.2156340127986" lon="12.204468555030362"><ele>322.5</ele><time>2026-03-29T10:50:11.999Z</time></trkpt><trkpt lat="43.21556580508666" lon="12.204513630455187"><ele>323.0</ele><time>2026-03-29T10:50:12.999Z</time></trkpt><trkpt lat="43.21550655821312" lon="12.204572436031805"><ele>323.4</ele><time>2026-03-29T10:50:13.999Z</time></trkpt><trkpt lat="43.215445617458755" lon="12.204647670091061"><ele>323.79999999999995</ele><time>2026-03-29T10:50:14.999Z</time></trkpt><trkpt lat="43.21537291727522" lon="12.20473695337086"><ele>324.2</ele><time>2026-03-29T10:50:15.999Z</time></trkpt><trkpt lat="43.21530412014165" lon="12.204831620567594"><ele>324.6</ele><time>2026-03-29T10:50:16.999Z</time></trkpt><trkpt lat="43.21523650760016" lon="12.204906162886719"><ele>325.0</ele><time>2026-03-29T10:50:17.999Z</time></trkpt><trkpt lat="43.21516530528034" lon="12.204979720845051"><ele>325.5</ele><time>2026-03-29T10:50:18.999Z</time></trkpt><trkpt lat="43.21509755185553" lon="12.205068859952583"><ele>326.0</ele><time>2026-03-29T10:50:19.999Z</time></trkpt><trkpt lat="43.21502887337803" lon="12.205145913108959"><ele>326.5</ele><time>2026-03-29T10:50:20.999Z</time></trkpt><trkpt lat="43.21496319410737" lon="12.205215870093628"><ele>327.0</ele><time>2026-03-29T10:50:21.999Z</time></trkpt><trkpt lat="43.214901707275075" lon="12.205267483806399"><ele>327.5</ele><time>2026-03-29T10:50:22.999Z</time></trkpt><trkpt lat="43.214833145882345" lon="12.205292350842903"><ele>328.0</ele><time>2026-03-29T10:50:23.999Z</time></trkpt><trkpt lat="43.21476761980116" lon="12.205315124461087"><ele>328.0</ele><time>2026-03-29T10:50:24.999Z</time></trkpt><trkpt lat="43.2146940090751" lon="12.205384068136684"><ele>328.0</ele><time>2026-03-29T10:50:25.999Z</time></trkpt><trkpt lat="43.214626476455834" lon="12.2054582528106"><ele>328.0</ele><time>2026-03-29T10:50:26.999Z</time></trkpt><trkpt lat="43.21456244374213" lon="12.205525318307652"><ele>328.0</ele><time>2026-03-29T10:50:27.999Z</time></trkpt><trkpt lat="43.21451127619282" lon="12.205605259993082"><ele>328.0</ele><time>2026-03-29T10:50:28.999Z</time></trkpt><trkpt lat="43.2144631996969" lon="12.205696543290637"><ele>328.0</ele><time>2026-03-29T10:50:29.999Z</time></trkpt><trkpt lat="43.21440952656423" lon="12.205806919552122"><ele>328.16666666666663</ele><time>2026-03-29T10:50:30.999Z</time></trkpt><trkpt lat="43.2143562442017" lon="12.205916172673465"><ele>328.3333333333333</ele><time>2026-03-29T10:50:31.999Z</time></trkpt><trkpt lat="43.214314561826214" lon="12.206008800529577"><ele>328.5</ele><time>2026-03-29T10:50:32.999Z</time></trkpt><trkpt lat="43.21427837882306" lon="12.206092578103977"><ele>328.6666666666667</ele><time>2026-03-29T10:50:33.999Z</time></trkpt><trkpt lat="43.214247537075295" lon="12.206172363726525"><ele>328.83333333333337</ele><time>2026-03-29T10:50:34.999Z</time></trkpt><trkpt lat="43.21422027829616" lon="12.206310765182193"><ele>329.0</ele><time>2026-03-29T10:50:36.999Z</time></trkpt><trkpt lat="43.21419237595778" lon="12.206431091782763"><ele>329.5</ele><time>2026-03-29T10:50:38.999Z</time></trkpt><trkpt lat="43.21417554016614" lon="12.20651581987874"><ele>330.0</ele><time>2026-03-29T10:50:39.999Z</time></trkpt><trkpt lat="43.214144458021046" lon="12.206621052035963"><ele>330.5</ele><time>2026-03-29T10:50:40.999Z</time></trkpt><trkpt lat="43.21411747873509" lon="12.206714508116596"><ele>331.0</ele><time>2026-03-29T10:50:41.999Z</time></trkpt><trkpt lat="43.21408649171128" lon="12.206860009936563"><ele>331.5</ele><time>2026-03-29T10:50:43.999Z</time></trkpt><trkpt lat="43.214071468628745" lon="12.206946041510259"><ele>332.0</ele><time>2026-03-29T10:50:44.999Z</time></trkpt><trkpt lat="43.2140629027154" lon="12.20707280857196"><ele>332.0</ele><time>2026-03-29T10:50:46.999Z</time></trkpt><trkpt lat="43.214076752489134" lon="12.207158391511317"><ele>332.0</ele><time>2026-03-29T10:50:48.999Z</time></trkpt><trkpt lat="43.21407794918825" lon="12.207277248605623"><ele>332.0</ele><time>2026-03-29T10:50:52.999Z</time></trkpt><trkpt lat="43.214027741481424" lon="12.207349374644703"><ele>332.0</ele><time>2026-03-29T10:50:54.999Z</time></trkpt><trkpt lat="43.2139788344722" lon="12.207414285276199"><ele>332.0</ele><time>2026-03-29T10:50:55.999Z</time></trkpt><trkpt lat="43.21391743259495" lon="12.207496976793763"><ele>332.0</ele><time>2026-03-29T10:50:56.999Z</time></trkpt><trkpt lat="43.213861675108646" lon="12.207597508865337"><ele>333.0</ele><time>2026-03-29T10:50:57.999Z</time></trkpt><trkpt lat="43.21382185885215" lon="12.207673930062375"><ele>334.0</ele><time>2026-03-29T10:50:58.999Z</time></trkpt><trkpt lat="43.21377561139634" lon="12.207774567590064"><ele>335.0</ele><time>2026-03-29T10:51:00.999Z</time></trkpt><trkpt lat="43.2136940439524" lon="12.20783557505426"><ele>336.0</ele><time>2026-03-29T10:51:02.999Z</time></trkpt><trkpt lat="43.21361012156818" lon="12.207934177081684"><ele>337.0</ele><time>2026-03-29T10:51:04.999Z</time></trkpt><trkpt lat="43.21350600194932" lon="12.208028096837307"><ele>337.0</ele><time>2026-03-29T10:51:06.999Z</time></trkpt><trkpt lat="43.21340710082898" lon="12.208031204461998"><ele>337.0</ele><time>2026-03-29T10:51:08.998Z</time></trkpt><trkpt lat="43.21334375235171" lon="12.208025842272892"><ele>337.0</ele><time>2026-03-29T10:51:09.998Z</time></trkpt><trkpt lat="43.21326973479245" lon="12.208034760966786"><ele>337.0</ele><time>2026-03-29T10:51:10.998Z</time></trkpt><trkpt lat="43.21318403786448" lon="12.208068617743345"><ele>337.0</ele><time>2026-03-29T10:51:11.998Z</time></trkpt><trkpt lat="43.213095128596656" lon="12.208112382251171"><ele>337.0</ele><time>2026-03-29T10:51:12.998Z</time></trkpt><trkpt lat="43.213016585430225" lon="12.208141370243569"><ele>337.7142857142857</ele><time>2026-03-29T10:51:13.998Z</time></trkpt><trkpt lat="43.212948046229826" lon="12.20817662889806"><ele>338.42857142857144</ele><time>2026-03-29T10:51:14.998Z</time></trkpt><trkpt lat="43.21287942703926" lon="12.208213778752272"><ele>339.1428571428571</ele><time>2026-03-29T10:51:15.998Z</time></trkpt><trkpt lat="43.21281097644456" lon="12.208241804867162"><ele>339.8571428571429</ele><time>2026-03-29T10:51:16.998Z</time></trkpt><trkpt lat="43.212744026739166" lon="12.208256074309697"><ele>340.57142857142856</ele><time>2026-03-29T10:51:17.998Z</time></trkpt><trkpt lat="43.21267666677697" lon="12.208280378358236"><ele>341.2857142857143</ele><time>2026-03-29T10:51:18.998Z</time></trkpt><trkpt lat="43.21260407760598" lon="12.208335939800369"><ele>342.0</ele><time>2026-03-29T10:51:19.998Z</time></trkpt><trkpt lat="43.21253388500382" lon="12.20840149847223"><ele>342.0</ele><time>2026-03-29T10:51:20.998Z</time></trkpt><trkpt lat="43.21247188204053" lon="12.20844702249684"><ele>342.0</ele><time>2026-03-29T10:51:21.998Z</time></trkpt><trkpt lat="43.212413439631426" lon="12.208485698870712"><ele>342.0</ele><time>2026-03-29T10:51:22.998Z</time></trkpt><trkpt lat="43.21229497802335" lon="12.208563757619482"><ele>342.0</ele><time>2026-03-29T10:51:24.998Z</time></trkpt><trkpt lat="43.21223753132173" lon="12.20863497843093"><ele>342.0</ele><time>2026-03-29T10:51:25.998Z</time></trkpt><trkpt lat="43.21218507925038" lon="12.208711495845275"><ele>342.0</ele><time>2026-03-29T10:51:26.998Z</time></trkpt><trkpt lat="43.21212696314221" lon="12.208778696779241"><ele>342.6666666666667</ele><time>2026-03-29T10:51:27.998Z</time></trkpt><trkpt lat="43.21208127388291" lon="12.20884338348922"><ele>343.3333333333333</ele><time>2026-03-29T10:51:28.998Z</time></trkpt><trkpt lat="43.212029921402895" lon="12.208897510004652"><ele>344.0</ele><time>2026-03-29T10:51:29.998Z</time></trkpt><trkpt lat="43.211946884542265" lon="12.208971735027857"><ele>344.66666666666663</ele><time>2026-03-29T10:51:31.998Z</time></trkpt><trkpt lat="43.211893270239585" lon="12.209110142238012"><ele>345.3333333333333</ele><time>2026-03-29T10:51:33.998Z</time></trkpt><trkpt lat="43.2119191000765" lon="12.209220772209111"><ele>346.0</ele><time>2026-03-29T10:51:34.998Z</time></trkpt><trkpt lat="43.21195262010359" lon="12.20934114359242"><ele>346.0</ele><time>2026-03-29T10:51:35.998Z</time></trkpt><trkpt lat="43.21198409568325" lon="12.209447748999509"><ele>346.0</ele><time>2026-03-29T10:51:36.998Z</time></trkpt><trkpt lat="43.21201638724846" lon="12.209550413048712"><ele>346.0</ele><time>2026-03-29T10:51:37.998Z</time></trkpt><trkpt lat="43.212028529998044" lon="12.209650714283473"><ele>346.0</ele><time>2026-03-29T10:51:38.998Z</time></trkpt><trkpt lat="43.21198332450337" lon="12.209765222377891"><ele>346.0</ele><time>2026-03-29T10:51:40.998Z</time></trkpt><trkpt lat="43.211951070027844" lon="12.209864850678958"><ele>346.0</ele><time>2026-03-29T10:51:42.998Z</time></trkpt><trkpt lat="43.211969499139904" lon="12.209967539289103"><ele>346.8333333333333</ele><time>2026-03-29T10:51:43.998Z</time></trkpt><trkpt lat="43.211997446956914" lon="12.21008955351081"><ele>347.66666666666663</ele><time>2026-03-29T10:51:44.998Z</time></trkpt><trkpt lat="43.212009963857014" lon="12.210216711996718"><ele>348.5</ele><time>2026-03-29T10:51:45.998Z</time></trkpt><trkpt lat="43.21199536731378" lon="12.210316972518758"><ele>349.3333333333333</ele><time>2026-03-29T10:51:46.998Z</time></trkpt><trkpt lat="43.21195761182781" lon="12.210399774966236"><ele>350.1666666666667</ele><time>2026-03-29T10:51:47.998Z</time></trkpt><trkpt lat="43.21193844973704" lon="12.210506651131205"><ele>351.0</ele><time>2026-03-29T10:51:48.998Z</time></trkpt><trkpt lat="43.2119316643631" lon="12.21059589999584"><ele>351.0</ele><time>2026-03-29T10:51:49.998Z</time></trkpt><trkpt lat="43.211909410490414" lon="12.210683185821352"><ele>351.0</ele><time>2026-03-29T10:51:51.998Z</time></trkpt><trkpt lat="43.211807249452164" lon="12.210704890745909"><ele>351.0</ele><time>2026-03-29T10:51:53.998Z</time></trkpt><trkpt lat="43.21173943675113" lon="12.210676591981043"><ele>351.0</ele><time>2026-03-29T10:51:58Z</time></trkpt><trkpt lat="43.21175363194454" lon="12.21055511601134"><ele>351.0</ele><time>2026-03-29T10:52:01Z</time></trkpt><trkpt lat="43.21171024515383" lon="12.2103644339921"><ele>351.0</ele><time>2026-03-29T10:52:04Z</time></trkpt><trkpt lat="43.21168058167567" lon="12.210245238583168"><ele>351.0</ele><time>2026-03-29T10:52:06Z</time></trkpt><trkpt lat="43.211681035564695" lon="12.210134123621309"><ele>351.0</ele><time>2026-03-29T10:52:08Z</time></trkpt><trkpt lat="43.2116621958783" lon="12.210017790453497"><ele>351.0</ele><time>2026-03-29T10:52:09.999Z</time></trkpt><trkpt lat="43.211640461661815" lon="12.2098994730201"><ele>351.0</ele><time>2026-03-29T10:52:11.999Z</time></trkpt><trkpt lat="43.211596418724056" lon="12.20979489855499"><ele>351.0</ele><time>2026-03-29T10:52:13.999Z</time></trkpt><trkpt lat="43.211581371390515" lon="12.209710820873502"><ele>350.1666666666667</ele><time>2026-03-29T10:52:15.999Z</time></trkpt><trkpt lat="43.21150194804154" lon="12.209664398865632"><ele>349.3333333333333</ele><time>2026-03-29T10:52:19.999Z</time></trkpt><trkpt lat="43.21144182125318" lon="12.20959379561371"><ele>348.5</ele><time>2026-03-29T10:52:21.999Z</time></trkpt><trkpt lat="43.21134426987962" lon="12.209533931932274"><ele>347.66666666666663</ele><time>2026-03-29T10:52:25.999Z</time></trkpt><trkpt lat="43.21129172199937" lon="12.209603268303383"><ele>346.8333333333333</ele><time>2026-03-29T10:52:27.999Z</time></trkpt><trkpt lat="43.21129111481653" lon="12.20972158309254"><ele>346.0</ele><time>2026-03-29T10:52:29.999Z</time></trkpt><trkpt lat="43.21122652356007" lon="12.209808492549179"><ele>347.6</ele><time>2026-03-29T10:52:32.999Z</time></trkpt><trkpt lat="43.211140736557674" lon="12.209816804383225"><ele>349.20000000000005</ele><time>2026-03-29T10:52:35.999Z</time></trkpt><trkpt lat="43.21101072181118" lon="12.209841380785836"><ele>350.79999999999995</ele><time>2026-03-29T10:52:37.999Z</time></trkpt><trkpt lat="43.21090403520999" lon="12.20989110716598"><ele>352.4</ele><time>2026-03-29T10:52:39.999Z</time></trkpt><trkpt lat="43.210802299127934" lon="12.209921253305366"><ele>354.0</ele><time>2026-03-29T10:52:41.999Z</time></trkpt><trkpt lat="43.21072747165404" lon="12.209970303715941"><ele>357.0</ele><time>2026-03-29T10:52:44.999Z</time></trkpt><trkpt lat="43.21065068909916" lon="12.210024466388779"><ele>360.0</ele><time>2026-03-29T10:52:50.999Z</time></trkpt><trkpt lat="43.21061265476487" lon="12.210097500499733"><ele>363.0</ele><time>2026-03-29T10:52:53.999Z</time></trkpt><trkpt lat="43.21054329793965" lon="12.21014980512346"><ele>366.0</ele><time>2026-03-29T10:52:56.999Z</time></trkpt><trkpt lat="43.21048970496133" lon="12.210211919195062"><ele>369.0</ele><time>2026-03-29T10:52:57.999Z</time></trkpt><trkpt lat="43.21039592416571" lon="12.21028474737688"><ele>372.0</ele><time>2026-03-29T10:52:58.999Z</time></trkpt><trkpt lat="43.21032570759058" lon="12.210317472564856"><ele>372.0</ele><time>2026-03-29T10:53:00.999Z</time></trkpt><trkpt lat="43.21025891706603" lon="12.210297945263637"><ele>372.0</ele><time>2026-03-29T10:53:03.999Z</time></trkpt><trkpt lat="43.21022078131771" lon="12.210395408825002"><ele>372.0</ele><time>2026-03-29T10:53:06.999Z</time></trkpt><trkpt lat="43.210188273997005" lon="12.210474819967281"><ele>372.0</ele><time>2026-03-29T10:53:07.999Z</time></trkpt><trkpt lat="43.21014645461105" lon="12.210574590279675"><ele>372.0</ele><time>2026-03-29T10:53:08.999Z</time></trkpt><trkpt lat="43.210111413037275" lon="12.210649131058885"><ele>372.0</ele><time>2026-03-29T10:53:09.999Z</time></trkpt><trkpt lat="43.21002915386551" lon="12.210737742217768"><ele>372.8333333333333</ele><time>2026-03-29T10:53:11.999Z</time></trkpt><trkpt lat="43.20994090205948" lon="12.210767542333395"><ele>373.6666666666667</ele><time>2026-03-29T10:53:14.998Z</time></trkpt><trkpt lat="43.20987670024554" lon="12.210781322529645"><ele>374.5</ele><time>2026-03-29T10:53:16.998Z</time></trkpt><trkpt lat="43.209798501998954" lon="12.210828880897353"><ele>375.33333333333337</ele><time>2026-03-29T10:53:21.998Z</time></trkpt><trkpt lat="43.209736191625524" lon="12.210813200731009"><ele>376.1666666666667</ele><time>2026-03-29T10:53:23.998Z</time></trkpt><trkpt lat="43.20965809409082" lon="12.210838332276422"><ele>377.0</ele><time>2026-03-29T10:53:26.998Z</time></trkpt><trkpt lat="43.20957013757712" lon="12.210885012276721"><ele>377.0</ele><time>2026-03-29T10:53:29.998Z</time></trkpt><trkpt lat="43.20949771315667" lon="12.210923823022322"><ele>377.0</ele><time>2026-03-29T10:53:32.998Z</time></trkpt><trkpt lat="43.20945166968888" lon="12.210987200313625"><ele>377.0</ele><time>2026-03-29T10:53:34.998Z</time></trkpt><trkpt lat="43.209395571624064" lon="12.21104302739875"><ele>377.0</ele><time>2026-03-29T10:53:38.998Z</time></trkpt><trkpt lat="43.209357232183756" lon="12.211144553621176"><ele>377.0</ele><time>2026-03-29T10:53:41.998Z</time></trkpt><trkpt lat="43.20931307307271" lon="12.211248636771016"><ele>377.0</ele><time>2026-03-29T10:53:44.998Z</time></trkpt><trkpt lat="43.209268910983226" lon="12.211341724473776"><ele>376.20000000000005</ele><time>2026-03-29T10:53:47.998Z</time></trkpt><trkpt lat="43.20917507333718" lon="12.211527976055104"><ele>375.4</ele><time>2026-03-29T10:53:49.998Z</time></trkpt><trkpt lat="43.20913103029417" lon="12.211621441189124"><ele>374.6</ele><time>2026-03-29T10:54:03Z</time></trkpt><trkpt lat="43.20909676886395" lon="12.21170498555348"><ele>373.79999999999995</ele><time>2026-03-29T10:54:06Z</time></trkpt><trkpt lat="43.2090248185505" lon="12.2117262938972"><ele>373.0</ele><time>2026-03-29T10:54:09Z</time></trkpt><trkpt lat="43.208980302341864" lon="12.211787803043041"><ele>373.0</ele><time>2026-03-29T10:56:20.001Z</time></trkpt><trkpt lat="43.2089277961271" lon="12.211891290301729"><ele>373.0</ele><time>2026-03-29T10:56:22Z</time></trkpt><trkpt lat="43.208950426610286" lon="12.211989225567256"><ele>373.0</ele><time>2026-03-29T10:56:24Z</time></trkpt><trkpt lat="43.20901786613813" lon="12.212042553342943"><ele>373.0</ele><time>2026-03-29T10:56:27Z</time></trkpt><trkpt lat="43.20907868566427" lon="12.21199392944346"><ele>373.0</ele><time>2026-03-29T10:56:29Z</time></trkpt><trkpt lat="43.209142094424436" lon="12.211977706288788"><ele>373.0</ele><time>2026-03-29T10:56:32Z</time></trkpt><trkpt lat="43.209224685117015" lon="12.211968991677447"><ele>373.0</ele><time>2026-03-29T10:57:19Z</time></trkpt><trkpt lat="43.20927911409903" lon="12.211924998481152"><ele>373.0</ele><time>2026-03-29T10:57:54.999Z</time></trkpt><trkpt lat="43.20931671531439" lon="12.212073483767528"><ele>373.0</ele><time>2026-03-29T10:59:32.999Z</time></trkpt><trkpt lat="43.2093450681862" lon="12.212167845024695"><ele>373.0</ele><time>2026-03-29T10:59:33.999Z</time></trkpt><trkpt lat="43.209368433393934" lon="12.212250798403955"><ele>373.0</ele><time>2026-03-29T10:59:34.999Z</time></trkpt><trkpt lat="43.20938413971603" lon="12.212334845309043"><ele>373.0</ele><time>2026-03-29T10:59:35.999Z</time></trkpt><trkpt lat="43.20938757435753" lon="12.212440367504424"><ele>374.5</ele><time>2026-03-29T10:59:37.999Z</time></trkpt><trkpt lat="43.209406812036086" lon="12.21257456976663"><ele>376.0</ele><time>2026-03-29T11:00:14.999Z</time></trkpt><trkpt lat="43.20944564605433" lon="12.212654477406518"><ele>377.5</ele><time>2026-03-29T11:00:15.999Z</time></trkpt><trkpt lat="43.20948801928233" lon="12.21273862291664"><ele>379.0</ele><time>2026-03-29T11:00:16.999Z</time></trkpt><trkpt lat="43.2095137408191" lon="12.212843642984351"><ele>380.5</ele><time>2026-03-29T11:00:18Z</time></trkpt><trkpt lat="43.209529897730455" lon="12.212962801697595"><ele>382.0</ele><time>2026-03-29T11:00:19Z</time></trkpt><trkpt lat="43.209567692250225" lon="12.213052649453033"><ele>382.0</ele><time>2026-03-29T11:00:21Z</time></trkpt><trkpt lat="43.20951387949492" lon="12.21313462670622"><ele>382.0</ele><time>2026-03-29T11:03:23Z</time></trkpt><trkpt lat="43.20945834576224" lon="12.213260551700202"><ele>382.0</ele><time>2026-03-29T11:03:25Z</time></trkpt><trkpt lat="43.209402637732744" lon="12.213424266080962"><ele>382.0</ele><time>2026-03-29T11:03:27Z</time></trkpt><trkpt lat="43.20937467823799" lon="12.21352269244089"><ele>382.0</ele><time>2026-03-29T11:03:28Z</time></trkpt><trkpt lat="43.20934748875806" lon="12.213607280138392"><ele>385.20000000000005</ele><time>2026-03-29T11:03:29Z</time></trkpt><trkpt lat="43.209297205828626" lon="12.213775865583088"><ele>388.4</ele><time>2026-03-29T11:03:31Z</time></trkpt><trkpt lat="43.209280982775695" lon="12.21387339669633"><ele>391.6</ele><time>2026-03-29T11:03:32Z</time></trkpt><trkpt lat="43.209246489657254" lon="12.21403078357786"><ele>394.79999999999995</ele><time>2026-03-29T11:03:34Z</time></trkpt><trkpt lat="43.20920466264835" lon="12.21416766557797"><ele>398.0</ele><time>2026-03-29T11:03:35.999Z</time></trkpt><trkpt lat="43.20920959397615" lon="12.21427173637145"><ele>397.66666666666663</ele><time>2026-03-29T11:03:36.999Z</time></trkpt><trkpt lat="43.20921398375744" lon="12.214368260525445"><ele>397.3333333333333</ele><time>2026-03-29T11:03:37.999Z</time></trkpt><trkpt lat="43.20918991892918" lon="12.21447759735047"><ele>397.0</ele><time>2026-03-29T11:03:39.999Z</time></trkpt><trkpt lat="43.20908239782011" lon="12.214586832288058"><ele>396.66666666666663</ele><time>2026-03-29T11:03:41.999Z</time></trkpt><trkpt lat="43.209025955100245" lon="12.214658595990842"><ele>396.3333333333333</ele><time>2026-03-29T11:03:42.999Z</time></trkpt><trkpt lat="43.20898094425334" lon="12.214735941141408"><ele>396.0</ele><time>2026-03-29T11:03:43.999Z</time></trkpt><trkpt lat="43.20893687764396" lon="12.214827566059023"><ele>399.20000000000005</ele><time>2026-03-29T11:03:44.999Z</time></trkpt><trkpt lat="43.208904633469494" lon="12.214929057461122"><ele>402.40000000000003</ele><time>2026-03-29T11:03:45.999Z</time></trkpt><trkpt lat="43.20889430508689" lon="12.215051616300043"><ele>405.6</ele><time>2026-03-29T11:03:46.999Z</time></trkpt><trkpt lat="43.20887474714685" lon="12.215166519216908"><ele>408.8</ele><time>2026-03-29T11:03:47.999Z</time></trkpt><trkpt lat="43.20885584494501" lon="12.215289068878395"><ele>412.0</ele><time>2026-03-29T11:03:48.999Z</time></trkpt><trkpt lat="43.208824988951285" lon="12.21542969246284"><ele>412.0</ele><time>2026-03-29T11:03:49.999Z</time></trkpt><trkpt lat="43.20880003076485" lon="12.215607768054996"><ele>412.0</ele><time>2026-03-29T11:03:50.999Z</time></trkpt><trkpt lat="43.20878246544707" lon="12.215789435931475"><ele>412.0</ele><time>2026-03-29T11:03:51.999Z</time></trkpt><trkpt lat="43.20876615820134" lon="12.215911938189006"><ele>412.0</ele><time>2026-03-29T11:03:52.999Z</time></trkpt><trkpt lat="43.20875425623341" lon="12.216005602580081"><ele>412.0</ele><time>2026-03-29T11:03:53.999Z</time></trkpt><trkpt lat="43.20876786714193" lon="12.216150694879392"><ele>415.5</ele><time>2026-03-29T11:03:55.999Z</time></trkpt><trkpt lat="43.20886982110457" lon="12.216317574465819"><ele>419.0</ele><time>2026-03-29T11:03:57.999Z</time></trkpt><trkpt lat="43.20893313869592" lon="12.216424013958244"><ele>422.5</ele><time>2026-03-29T11:03:58.999Z</time></trkpt><trkpt lat="43.20901439118936" lon="12.216514477315089"><ele>426.0</ele><time>2026-03-29T11:03:59.999Z</time></trkpt><trkpt lat="43.20909830205354" lon="12.216569569347039"><ele>429.6666666666667</ele><time>2026-03-29T11:04:00.999Z</time></trkpt><trkpt lat="43.20919110856106" lon="12.216606924255258"><ele>433.33333333333337</ele><time>2026-03-29T11:04:01.999Z</time></trkpt><trkpt lat="43.2092857320781" lon="12.216637907593421"><ele>437.0</ele><time>2026-03-29T11:04:02.999Z</time></trkpt><trkpt lat="43.209355187908876" lon="12.216669676427134"><ele>440.6666666666667</ele><time>2026-03-29T11:04:03.999Z</time></trkpt><trkpt lat="43.20940881225343" lon="12.216718971860939"><ele>444.33333333333337</ele><time>2026-03-29T11:04:04.999Z</time></trkpt><trkpt lat="43.20945130735763" lon="12.216787152203569"><ele>448.0</ele><time>2026-03-29T11:04:05.999Z</time></trkpt><trkpt lat="43.20949708876852" lon="12.216870583015275"><ele>448.0</ele><time>2026-03-29T11:04:06.999Z</time></trkpt><trkpt lat="43.20955493870121" lon="12.216936172872003"><ele>447.99999999999994</ele><time>2026-03-29T11:04:07.999Z</time></trkpt><trkpt lat="43.20965984541109" lon="12.217003625701658"><ele>447.99999999999994</ele><time>2026-03-29T11:04:08.999Z</time></trkpt><trkpt lat="43.20976239675912" lon="12.217061001866789"><ele>448.0</ele><time>2026-03-29T11:04:09.999Z</time></trkpt><trkpt lat="43.20984396206793" lon="12.217130207794696"><ele>448.0</ele><time>2026-03-29T11:04:10.999Z</time></trkpt><trkpt lat="43.20991736480723" lon="12.217208433629311"><ele>447.59999999999997</ele><time>2026-03-29T11:04:11.999Z</time></trkpt><trkpt lat="43.20997443675814" lon="12.217280572240618"><ele>447.19999999999993</ele><time>2026-03-29T11:04:12.999Z</time></trkpt><trkpt lat="43.210093005055604" lon="12.217336730233258"><ele>446.8</ele><time>2026-03-29T11:04:14.999Z</time></trkpt><trkpt lat="43.21018891604453" lon="12.217323614412999"><ele>446.4</ele><time>2026-03-29T11:04:15.999Z</time></trkpt><trkpt lat="43.210273658888916" lon="12.217321709274668"><ele>446.0</ele><time>2026-03-29T11:04:16.999Z</time></trkpt><trkpt lat="43.210353207871634" lon="12.217353473490736"><ele>449.8</ele><time>2026-03-29T11:04:17.999Z</time></trkpt><trkpt lat="43.210433551250325" lon="12.217393362349235"><ele>453.6</ele><time>2026-03-29T11:04:18.999Z</time></trkpt><trkpt lat="43.21050887022979" lon="12.217461842994833"><ele>457.4</ele><time>2026-03-29T11:04:19.999Z</time></trkpt><trkpt lat="43.210544543354935" lon="12.2175382865861"><ele>461.2</ele><time>2026-03-29T11:04:20.999Z</time></trkpt><trkpt lat="43.21052477390139" lon="12.217686215004836"><ele>465.0</ele><time>2026-03-29T11:04:22.999Z</time></trkpt><trkpt lat="43.21044141703203" lon="12.217793461172082"><ele>465.0</ele><time>2026-03-29T11:04:24.999Z</time></trkpt><trkpt lat="43.210354187028415" lon="12.21789259545632"><ele>465.0</ele><time>2026-03-29T11:04:25.999Z</time></trkpt><trkpt lat="43.21025958090688" lon="12.218028521360212"><ele>465.0</ele><time>2026-03-29T11:04:26.999Z</time></trkpt><trkpt lat="43.21017240765277" lon="12.218163810695847"><ele>465.0</ele><time>2026-03-29T11:04:27.999Z</time></trkpt><trkpt lat="43.210111194750525" lon="12.21825874178934"><ele>467.25</ele><time>2026-03-29T11:04:28.999Z</time></trkpt><trkpt lat="43.21005828826387" lon="12.21835475513195"><ele>469.5</ele><time>2026-03-29T11:04:30Z</time></trkpt><trkpt lat="43.21000624804072" lon="12.21849649347939"><ele>471.75</ele><time>2026-03-29T11:04:31Z</time></trkpt><trkpt lat="43.20994924883884" lon="12.218653370976426"><ele>474.0</ele><time>2026-03-29T11:04:32Z</time></trkpt><trkpt lat="43.20985885473795" lon="12.2187827587649"><ele>476.25</ele><time>2026-03-29T11:04:33Z</time></trkpt><trkpt lat="43.209770568441016" lon="12.218902137918745"><ele>478.5</ele><time>2026-03-29T11:04:34Z</time></trkpt><trkpt lat="43.20970730000054" lon="12.219040384510466"><ele>480.75</ele><time>2026-03-29T11:04:35Z</time></trkpt><trkpt lat="43.209629786224774" lon="12.219183843700936"><ele>483.0</ele><time>2026-03-29T11:04:36Z</time></trkpt><trkpt lat="43.20955125610514" lon="12.219312746049086"><ele>484.59999999999997</ele><time>2026-03-29T11:04:37Z</time></trkpt><trkpt lat="43.20948811058576" lon="12.219397124577158"><ele>486.19999999999993</ele><time>2026-03-29T11:04:38Z</time></trkpt><trkpt lat="43.20942405715848" lon="12.21946004891506"><ele>487.8</ele><time>2026-03-29T11:04:39Z</time></trkpt><trkpt lat="43.209346324987685" lon="12.219447309616664"><ele>489.4</ele><time>2026-03-29T11:04:40Z</time></trkpt><trkpt lat="43.20926293184823" lon="12.219399631195776"><ele>491.0</ele><time>2026-03-29T11:04:41Z</time></trkpt><trkpt lat="43.20915498957923" lon="12.21930781908386"><ele>491.0</ele><time>2026-03-29T11:04:42Z</time></trkpt><trkpt lat="43.2090349664682" lon="12.21919973398148"><ele>491.0</ele><time>2026-03-29T11:04:43Z</time></trkpt><trkpt lat="43.20893937688724" lon="12.219130513179088"><ele>491.0</ele><time>2026-03-29T11:04:44Z</time></trkpt><trkpt lat="43.20886161647954" lon="12.219063872428906"><ele>491.0</ele><time>2026-03-29T11:04:45Z</time></trkpt><trkpt lat="43.20880032298402" lon="12.218998833687856"><ele>491.0</ele><time>2026-03-29T11:04:46Z</time></trkpt><trkpt lat="43.20867165477691" lon="12.218939296792804"><ele>490.20000000000005</ele><time>2026-03-29T11:04:48Z</time></trkpt><trkpt lat="43.20859987651338" lon="12.218950649955135"><ele>489.40000000000003</ele><time>2026-03-29T11:04:49Z</time></trkpt><trkpt lat="43.20853432368698" lon="12.21899768048122"><ele>488.6</ele><time>2026-03-29T11:04:50Z</time></trkpt><trkpt lat="43.20846289972507" lon="12.219086767737117"><ele>487.8</ele><time>2026-03-29T11:04:51Z</time></trkpt><trkpt lat="43.208378039853486" lon="12.219215579010958"><ele>487.0</ele><time>2026-03-29T11:04:52Z</time></trkpt><trkpt lat="43.20827725024111" lon="12.219380504611014"><ele>489.0</ele><time>2026-03-29T11:04:53Z</time></trkpt><trkpt lat="43.20815764327447" lon="12.219554281539079"><ele>491.0</ele><time>2026-03-29T11:04:54Z</time></trkpt><trkpt lat="43.20804518812349" lon="12.219720332212495"><ele>493.0</ele><time>2026-03-29T11:04:55Z</time></trkpt><trkpt lat="43.20796367516085" lon="12.219866514825455"><ele>496.2</ele><time>2026-03-29T11:04:56Z</time></trkpt><trkpt lat="43.20789430598781" lon="12.219978819520906"><ele>499.4</ele><time>2026-03-29T11:04:57Z</time></trkpt><trkpt lat="43.20782845071582" lon="12.220067138238145"><ele>502.59999999999997</ele><time>2026-03-29T11:04:58Z</time></trkpt><trkpt lat="43.20777088615417" lon="12.22013164235033"><ele>505.79999999999995</ele><time>2026-03-29T11:04:59Z</time></trkpt><trkpt lat="43.20765760883379" lon="12.220151653406901"><ele>509.0</ele><time>2026-03-29T11:05:01Z</time></trkpt><trkpt lat="43.207600796946004" lon="12.22010406506401"><ele>509.0</ele><time>2026-03-29T11:05:02Z</time></trkpt><trkpt lat="43.207556797756475" lon="12.219995027350599"><ele>509.0</ele><time>2026-03-29T11:05:03Z</time></trkpt><trkpt lat="43.20752618758567" lon="12.219877892564531"><ele>509.0</ele><time>2026-03-29T11:05:04Z</time></trkpt><trkpt lat="43.207401633131056" lon="12.219832222099807"><ele>509.0</ele><time>2026-03-29T11:05:06Z</time></trkpt><trkpt lat="43.2073261376994" lon="12.219874491648401"><ele>509.0</ele><time>2026-03-29T11:05:07Z</time></trkpt><trkpt lat="43.20723976467571" lon="12.219960354390851"><ele>510.25</ele><time>2026-03-29T11:05:08Z</time></trkpt><trkpt lat="43.20713587099969" lon="12.220066566750981"><ele>511.5</ele><time>2026-03-29T11:05:09Z</time></trkpt><trkpt lat="43.20700980968319" lon="12.220157772266106"><ele>512.75</ele><time>2026-03-29T11:05:10Z</time></trkpt><trkpt lat="43.20687246802746" lon="12.220247140251782"><ele>514.0</ele><time>2026-03-29T11:05:11Z</time></trkpt><trkpt lat="43.206736965881795" lon="12.220335018419672"><ele>514.0</ele><time>2026-03-29T11:05:12Z</time></trkpt><trkpt lat="43.20661978312035" lon="12.220401672098843"><ele>514.0</ele><time>2026-03-29T11:05:13Z</time></trkpt><trkpt lat="43.20651929180762" lon="12.220464247760058"><ele>514.0</ele><time>2026-03-29T11:05:14Z</time></trkpt><trkpt lat="43.2064203888802" lon="12.220534667904731"><ele>514.0</ele><time>2026-03-29T11:05:15Z</time></trkpt><trkpt lat="43.20633230611203" lon="12.220593043447256"><ele>514.0</ele><time>2026-03-29T11:05:16Z</time></trkpt><trkpt lat="43.20625379709116" lon="12.220619724413472"><ele>514.8333333333334</ele><time>2026-03-29T11:05:17Z</time></trkpt><trkpt lat="43.20618070274721" lon="12.220603589683058"><ele>515.6666666666667</ele><time>2026-03-29T11:05:18Z</time></trkpt><trkpt lat="43.20609903712272" lon="12.220554937840188"><ele>516.5</ele><time>2026-03-29T11:05:19Z</time></trkpt><trkpt lat="43.20600816218481" lon="12.220502831914848"><ele>517.3333333333334</ele><time>2026-03-29T11:05:20Z</time></trkpt><trkpt lat="43.2059183512326" lon="12.220487011511775"><ele>518.1666666666666</ele><time>2026-03-29T11:05:21Z</time></trkpt><trkpt lat="43.20583254038374" lon="12.220507004397026"><ele>519.0</ele><time>2026-03-29T11:05:22Z</time></trkpt><trkpt lat="43.20574283353634" lon="12.220555437855111"><ele>520.5</ele><time>2026-03-29T11:05:23Z</time></trkpt><trkpt lat="43.205649961640596" lon="12.220620201881598"><ele>522.0</ele><time>2026-03-29T11:05:24Z</time></trkpt><trkpt lat="43.20553613533815" lon="12.220687166963735"><ele>523.5</ele><time>2026-03-29T11:05:25Z</time></trkpt><trkpt lat="43.205404016441065" lon="12.220745505477629"><ele>525.0</ele><time>2026-03-29T11:05:26Z</time></trkpt><trkpt lat="43.20528056313315" lon="12.22078673276993"><ele>528.3333333333334</ele><time>2026-03-29T11:05:27Z</time></trkpt><trkpt lat="43.205186401012526" lon="12.22081226452516"><ele>531.6666666666666</ele><time>2026-03-29T11:05:28Z</time></trkpt><trkpt lat="43.205117361983866" lon="12.220839147892027"><ele>535.0</ele><time>2026-03-29T11:05:29Z</time></trkpt><trkpt lat="43.20505640797917" lon="12.220885358337583"><ele>538.3333333333333</ele><time>2026-03-29T11:05:30Z</time></trkpt><trkpt lat="43.204992776142866" lon="12.220954122102638"><ele>541.6666666666666</ele><time>2026-03-29T11:05:31Z</time></trkpt><trkpt lat="43.20494092113746" lon="12.22104157771016"><ele>545.0</ele><time>2026-03-29T11:05:32Z</time></trkpt><trkpt lat="43.20489983296371" lon="12.221109340784853"><ele>545.0</ele><time>2026-03-29T11:05:33Z</time></trkpt><trkpt lat="43.20488532242886" lon="12.221243985402106"><ele>545.0</ele><time>2026-03-29T11:05:35Z</time></trkpt><trkpt lat="43.20493055529909" lon="12.221324422008408"><ele>545.0</ele><time>2026-03-29T11:05:36Z</time></trkpt><trkpt lat="43.20501111246939" lon="12.221361615839305"><ele>545.0</ele><time>2026-03-29T11:05:37Z</time></trkpt><trkpt lat="43.20509789232866" lon="12.2213609144052"><ele>545.0</ele><time>2026-03-29T11:05:38Z</time></trkpt><trkpt lat="43.205172995963274" lon="12.221438706854372"><ele>545.0</ele><time>2026-03-29T11:05:39.999Z</time></trkpt><trkpt lat="43.20514015094437" lon="12.221570544716576"><ele>547.8</ele><time>2026-03-29T11:05:41.999Z</time></trkpt><trkpt lat="43.20508230539086" lon="12.221670663139957"><ele>550.6</ele><time>2026-03-29T11:05:42.999Z</time></trkpt><trkpt lat="43.20501563679976" lon="12.221773496101127"><ele>553.4</ele><time>2026-03-29T11:05:43.999Z</time></trkpt><trkpt lat="43.20496490925851" lon="12.221888220423395"><ele>556.2</ele><time>2026-03-29T11:05:44.999Z</time></trkpt><trkpt lat="43.204900567794205" lon="12.222007456806224"><ele>559.0</ele><time>2026-03-29T11:05:45.999Z</time></trkpt><trkpt lat="43.204820525459915" lon="12.222109586772703"><ele>559.8</ele><time>2026-03-29T11:05:46.999Z</time></trkpt><trkpt lat="43.204730467284804" lon="12.222190248129419"><ele>560.5999999999999</ele><time>2026-03-29T11:05:47.999Z</time></trkpt><trkpt lat="43.204644879794984" lon="12.22224710566043"><ele>561.4</ele><time>2026-03-29T11:05:48.999Z</time></trkpt><trkpt lat="43.204543235257475" lon="12.222288357857199"><ele>562.1999999999999</ele><time>2026-03-29T11:05:49.999Z</time></trkpt><trkpt lat="43.20445162068913" lon="12.22231134893821"><ele>563.0</ele><time>2026-03-29T11:05:50.999Z</time></trkpt><trkpt lat="43.2043665338815" lon="12.222333145604855"><ele>565.8</ele><time>2026-03-29T11:05:51.999Z</time></trkpt><trkpt lat="43.20428630892262" lon="12.222371241654715"><ele>568.5999999999999</ele><time>2026-03-29T11:05:52.999Z</time></trkpt><trkpt lat="43.204202818575496" lon="12.222416854724388"><ele>571.4000000000001</ele><time>2026-03-29T11:05:53.999Z</time></trkpt><trkpt lat="43.20410311517914" lon="12.222471060421144"><ele>574.2</ele><time>2026-03-29T11:05:54.999Z</time></trkpt><trkpt lat="43.20400891893776" lon="12.22253930428007"><ele>577.0</ele><time>2026-03-29T11:05:55.999Z</time></trkpt><trkpt lat="43.20392605688134" lon="12.222600179667618"><ele>577.3333333333334</ele><time>2026-03-29T11:05:56.999Z</time></trkpt><trkpt lat="43.2038473761311" lon="12.222656468113987"><ele>577.6666666666667</ele><time>2026-03-29T11:05:57.999Z</time></trkpt><trkpt lat="43.20377653623942" lon="12.222712327587157"><ele>578.0</ele><time>2026-03-29T11:05:58.999Z</time></trkpt><trkpt lat="43.20371149466143" lon="12.222773999498184"><ele>578.3333333333334</ele><time>2026-03-29T11:05:59.999Z</time></trkpt><trkpt lat="43.20365383545117" lon="12.222847539090667"><ele>578.6666666666666</ele><time>2026-03-29T11:06:00.999Z</time></trkpt><trkpt lat="43.20360185693473" lon="12.22292284460929"><ele>579.0</ele><time>2026-03-29T11:06:01.999Z</time></trkpt><trkpt lat="43.203551509531565" lon="12.22298478819708"><ele>579.0</ele><time>2026-03-29T11:06:02.999Z</time></trkpt><trkpt lat="43.20348989597199" lon="12.22304264464616"><ele>579.0</ele><time>2026-03-29T11:06:03.999Z</time></trkpt><trkpt lat="43.20341636341633" lon="12.223087053800832"><ele>579.0</ele><time>2026-03-29T11:06:04.999Z</time></trkpt><trkpt lat="43.20333470264432" lon="12.22312221456989"><ele>579.0</ele><time>2026-03-29T11:06:05.999Z</time></trkpt><trkpt lat="43.203239639444256" lon="12.223161140724992"><ele>579.0</ele><time>2026-03-29T11:06:06.999Z</time></trkpt><trkpt lat="43.2031351864299" lon="12.223209816283129"><ele>583.2</ele><time>2026-03-29T11:06:07.999Z</time></trkpt><trkpt lat="43.203031664727504" lon="12.22325574545163"><ele>587.4</ele><time>2026-03-29T11:06:08.999Z</time></trkpt><trkpt lat="43.202946569876275" lon="12.223284938668593"><ele>591.6</ele><time>2026-03-29T11:06:09.999Z</time></trkpt><trkpt lat="43.20286223224298" lon="12.22327487932059"><ele>595.8</ele><time>2026-03-29T11:06:10.999Z</time></trkpt><trkpt lat="43.20277717204013" lon="12.223232032130744"><ele>600.0</ele><time>2026-03-29T11:06:11.999Z</time></trkpt><trkpt lat="43.20269996489978" lon="12.223200964483617"><ele>600.0</ele><time>2026-03-29T11:06:12.999Z</time></trkpt><trkpt lat="43.20261593737698" lon="12.223212894426121"><ele>600.0</ele><time>2026-03-29T11:06:13.999Z</time></trkpt><trkpt lat="43.202530972543094" lon="12.223262220803136"><ele>600.0</ele><time>2026-03-29T11:06:14.999Z</time></trkpt><trkpt lat="43.20246642595834" lon="12.223337196699639"><ele>600.0</ele><time>2026-03-29T11:06:15.999Z</time></trkpt><trkpt lat="43.20242446062875" lon="12.223433102062257"><ele>600.0</ele><time>2026-03-29T11:06:16.999Z</time></trkpt><trkpt lat="43.20240432011567" lon="12.223542025541532"><ele>600.0</ele><time>2026-03-29T11:06:17.999Z</time></trkpt><trkpt lat="43.202369808936425" lon="12.223627442210871"><ele>601.6</ele><time>2026-03-29T11:06:18.999Z</time></trkpt><trkpt lat="43.20229677439285" lon="12.2236778771494"><ele>603.2</ele><time>2026-03-29T11:06:19.999Z</time></trkpt><trkpt lat="43.20220344439206" lon="12.2236924272381"><ele>604.8</ele><time>2026-03-29T11:06:20.999Z</time></trkpt><trkpt lat="43.20210747298495" lon="12.223702505832566"><ele>606.4</ele><time>2026-03-29T11:06:21.999Z</time></trkpt><trkpt lat="43.20201933461268" lon="12.223778859107851"><ele>608.0</ele><time>2026-03-29T11:06:23.999Z</time></trkpt><trkpt lat="43.202017365209656" lon="12.22390339741496"><ele>611.6666666666666</ele><time>2026-03-29T11:06:24.999Z</time></trkpt><trkpt lat="43.202038879969116" lon="12.22400708763519"><ele>615.3333333333333</ele><time>2026-03-29T11:06:25.999Z</time></trkpt><trkpt lat="43.20200288497493" lon="12.224085850184322"><ele>619.0</ele><time>2026-03-29T11:06:27.999Z</time></trkpt><trkpt lat="43.20194591745212" lon="12.22414193535092"><ele>622.6666666666666</ele><time>2026-03-29T11:06:28.999Z</time></trkpt><trkpt lat="43.201870035637256" lon="12.224192384656288"><ele>626.3333333333334</ele><time>2026-03-29T11:06:29.999Z</time></trkpt><trkpt lat="43.20179202669035" lon="12.224245960352231"><ele>630.0</ele><time>2026-03-29T11:06:30.999Z</time></trkpt><trkpt lat="43.201695121829076" lon="12.224323553207729"><ele>630.0</ele><time>2026-03-29T11:06:31.999Z</time></trkpt><trkpt lat="43.20163968747803" lon="12.224416178300048"><ele>630.0</ele><time>2026-03-29T11:06:32.999Z</time></trkpt><trkpt lat="43.20158821481701" lon="12.224484103248448"><ele>630.0</ele><time>2026-03-29T11:06:33.999Z</time></trkpt><trkpt lat="43.201533761506184" lon="12.22453692713206"><ele>630.0</ele><time>2026-03-29T11:06:34.999Z</time></trkpt><trkpt lat="43.20141201799233" lon="12.224576603101232"><ele>630.0</ele><time>2026-03-29T11:06:37Z</time></trkpt><trkpt lat="43.20130972673369" lon="12.224615453181066"><ele>630.1666666666666</ele><time>2026-03-29T11:06:38Z</time></trkpt><trkpt lat="43.20122287048055" lon="12.224643037751818"><ele>630.3333333333334</ele><time>2026-03-29T11:06:39Z</time></trkpt><trkpt lat="43.201136017976985" lon="12.224691415109156"><ele>630.5</ele><time>2026-03-29T11:06:40Z</time></trkpt><trkpt lat="43.20104929320394" lon="12.224724007300471"><ele>630.6666666666667</ele><time>2026-03-29T11:06:41Z</time></trkpt><trkpt lat="43.200969283363165" lon="12.224749556403673"><ele>630.8333333333334</ele><time>2026-03-29T11:06:42Z</time></trkpt><trkpt lat="43.20087826025726" lon="12.224762882322823"><ele>631.0</ele><time>2026-03-29T11:06:43Z</time></trkpt><trkpt lat="43.20077320641446" lon="12.22474755480092"><ele>631.0</ele><time>2026-03-29T11:06:44Z</time></trkpt><trkpt lat="43.200671927820046" lon="12.22469600341617"><ele>631.0</ele><time>2026-03-29T11:06:45Z</time></trkpt><trkpt lat="43.200573408398085" lon="12.224671075762023"><ele>631.0</ele><time>2026-03-29T11:06:46Z</time></trkpt><trkpt lat="43.20049069919232" lon="12.224656508998223"><ele>631.0</ele><time>2026-03-29T11:06:47Z</time></trkpt><trkpt lat="43.20040520995166" lon="12.22464560947231"><ele>631.0</ele><time>2026-03-29T11:06:48Z</time></trkpt><trkpt lat="43.20032371813101" lon="12.224634080413379"><ele>634.3333333333334</ele><time>2026-03-29T11:06:49Z</time></trkpt><trkpt lat="43.200250339781896" lon="12.224625265864882"><ele>637.6666666666667</ele><time>2026-03-29T11:06:50Z</time></trkpt><trkpt lat="43.20018786089292" lon="12.224614473064324"><ele>641.0</ele><time>2026-03-29T11:06:51Z</time></trkpt><trkpt lat="43.20010482145477" lon="12.224596575736431"><ele>644.3333333333334</ele><time>2026-03-29T11:06:53Z</time></trkpt><trkpt lat="43.20002895173536" lon="12.224590666916546"><ele>647.6666666666666</ele><time>2026-03-29T11:06:55Z</time></trkpt><trkpt lat="43.1999731070914" lon="12.224646730688583"><ele>651.0</ele><time>2026-03-29T11:06:58Z</time></trkpt><trkpt lat="43.19996081251637" lon="12.224781091335705"><ele>652.0</ele><time>2026-03-29T11:07:00Z</time></trkpt><trkpt lat="43.20003266880932" lon="12.224922830755009"><ele>653.0</ele><time>2026-03-29T11:07:02Z</time></trkpt><trkpt lat="43.200068512352175" lon="12.225071503116006"><ele>654.0</ele><time>2026-03-29T11:07:04Z</time></trkpt><trkpt lat="43.20012385949865" lon="12.225222855070342"><ele>655.0</ele><time>2026-03-29T11:07:06Z</time></trkpt><trkpt lat="43.20017336668536" lon="12.225383228457876"><ele>655.0</ele><time>2026-03-29T11:07:07Z</time></trkpt><trkpt lat="43.20019396900365" lon="12.225534070651724"><ele>655.0</ele><time>2026-03-29T11:07:08Z</time></trkpt><trkpt lat="43.2002127913161" lon="12.22570202238551"><ele>655.0</ele><time>2026-03-29T11:07:09Z</time></trkpt><trkpt lat="43.200228695806345" lon="12.225902913539043"><ele>655.0</ele><time>2026-03-29T11:07:10Z</time></trkpt><trkpt lat="43.20024692479289" lon="12.226099724040784"><ele>655.0</ele><time>2026-03-29T11:07:11Z</time></trkpt><trkpt lat="43.20026315863576" lon="12.226240010131432"><ele>655.0</ele><time>2026-03-29T11:07:12Z</time></trkpt><trkpt lat="43.20027804285402" lon="12.226384752682433"><ele>655.0</ele><time>2026-03-29T11:07:13Z</time></trkpt><trkpt lat="43.20029615916656" lon="12.226504829495278"><ele>655.0</ele><time>2026-03-29T11:07:14Z</time></trkpt><trkpt lat="43.20030735183044" lon="12.226613659544924"><ele>655.0</ele><time>2026-03-29T11:07:15Z</time></trkpt><trkpt lat="43.200315653549374" lon="12.226732795602441"><ele>655.0</ele><time>2026-03-29T11:07:16Z</time></trkpt><trkpt lat="43.20032766583444" lon="12.226854869461185"><ele>655.0</ele><time>2026-03-29T11:07:17Z</time></trkpt><trkpt lat="43.200340865886766" lon="12.226985609792655"><ele>655.0</ele><time>2026-03-29T11:07:18Z</time></trkpt><trkpt lat="43.200348083459396" lon="12.227099536681946"><ele>655.0</ele><time>2026-03-29T11:07:19Z</time></trkpt><trkpt lat="43.200353730356085" lon="12.22722931492018"><ele>655.0</ele><time>2026-03-29T11:07:20Z</time></trkpt><trkpt lat="43.20036807044023" lon="12.2273448489979"><ele>655.8</ele><time>2026-03-29T11:07:21Z</time></trkpt><trkpt lat="43.20038991268996" lon="12.227483780217307"><ele>656.6</ele><time>2026-03-29T11:07:22Z</time></trkpt><trkpt lat="43.200406331468656" lon="12.227616073235836"><ele>657.4000000000001</ele><time>2026-03-29T11:07:23Z</time></trkpt><trkpt lat="43.200422566761745" lon="12.227736022482679"><ele>658.2</ele><time>2026-03-29T11:07:24Z</time></trkpt><trkpt lat="43.20046305759396" lon="12.227858203429422"><ele>659.0</ele><time>2026-03-29T11:07:25Z</time></trkpt><trkpt lat="43.20050755187821" lon="12.227990404813438"><ele>659.0</ele><time>2026-03-29T11:07:26Z</time></trkpt><trkpt lat="43.20057017744368" lon="12.228115878145509"><ele>659.0</ele><time>2026-03-29T11:07:27Z</time></trkpt><trkpt lat="43.20064259506416" lon="12.228248687959743"><ele>659.0</ele><time>2026-03-29T11:07:28Z</time></trkpt><trkpt lat="43.20072067364716" lon="12.228381695070567"><ele>659.0</ele><time>2026-03-29T11:07:29Z</time></trkpt><trkpt lat="43.2007783250617" lon="12.228493535050934"><ele>661.2</ele><time>2026-03-29T11:07:30Z</time></trkpt><trkpt lat="43.20081728902277" lon="12.228609326651437"><ele>663.4000000000001</ele><time>2026-03-29T11:07:31Z</time></trkpt><trkpt lat="43.20083335982385" lon="12.22874725028902"><ele>665.6</ele><time>2026-03-29T11:07:32Z</time></trkpt><trkpt lat="43.20083305727386" lon="12.228894214945319"><ele>667.8</ele><time>2026-03-29T11:07:33Z</time></trkpt><trkpt lat="43.200817817305136" lon="12.22903773075208"><ele>670.0</ele><time>2026-03-29T11:07:34Z</time></trkpt><trkpt lat="43.200781023389915" lon="12.229176111878711"><ele>670.75</ele><time>2026-03-29T11:07:35Z</time></trkpt><trkpt lat="43.20072843230549" lon="12.229286569805767"><ele>671.5</ele><time>2026-03-29T11:07:36Z</time></trkpt><trkpt lat="43.200660258117225" lon="12.229374416416983"><ele>672.25</ele><time>2026-03-29T11:07:37Z</time></trkpt><trkpt lat="43.200529259259625" lon="12.229425907521943"><ele>673.0</ele><time>2026-03-29T11:07:38Z</time></trkpt><trkpt lat="43.200405083331404" lon="12.229471962071733"><ele>669.5999999999999</ele><time>2026-03-29T11:07:39Z</time></trkpt><trkpt lat="43.20027901780576" lon="12.229508300692729"><ele>666.1999999999999</ele><time>2026-03-29T11:07:40Z</time></trkpt><trkpt lat="43.20018037917977" lon="12.229533632357349"><ele>662.8</ele><time>2026-03-29T11:07:41Z</time></trkpt><trkpt lat="43.20008817699233" lon="12.229556060057309"><ele>659.4</ele><time>2026-03-29T11:07:42Z</time></trkpt><trkpt lat="43.200000399347644" lon="12.229584636226104"><ele>656.0</ele><time>2026-03-29T11:07:42.999Z</time></trkpt><trkpt lat="43.19991168126187" lon="12.229622608297996"><ele>655.8</ele><time>2026-03-29T11:07:43.999Z</time></trkpt><trkpt lat="43.19982232635234" lon="12.229676195427723"><ele>655.5999999999999</ele><time>2026-03-29T11:07:44.999Z</time></trkpt><trkpt lat="43.19974173940304" lon="12.22975256575404"><ele>655.4</ele><time>2026-03-29T11:07:45.999Z</time></trkpt><trkpt lat="43.199682480286945" lon="12.229842247388044"><ele>655.2</ele><time>2026-03-29T11:07:46.999Z</time></trkpt><trkpt lat="43.19964775326153" lon="12.229951301845277"><ele>655.0</ele><time>2026-03-29T11:07:47.999Z</time></trkpt><trkpt lat="43.199642205603666" lon="12.230060737616618"><ele>655.0</ele><time>2026-03-29T11:07:48.999Z</time></trkpt><trkpt lat="43.19966733754931" lon="12.230167970299147"><ele>655.0</ele><time>2026-03-29T11:07:49.999Z</time></trkpt><trkpt lat="43.19971984249519" lon="12.23027311694774"><ele>655.0</ele><time>2026-03-29T11:07:50.999Z</time></trkpt><trkpt lat="43.19978275389934" lon="12.23037284182853"><ele>655.0</ele><time>2026-03-29T11:07:51.999Z</time></trkpt><trkpt lat="43.19984147228031" lon="12.230475448280432"><ele>655.0</ele><time>2026-03-29T11:07:52.999Z</time></trkpt><trkpt lat="43.199900736716096" lon="12.230573201545495"><ele>655.5</ele><time>2026-03-29T11:07:53.999Z</time></trkpt><trkpt lat="43.19996811077033" lon="12.23066681025198"><ele>656.0</ele><time>2026-03-29T11:07:54.999Z</time></trkpt><trkpt lat="43.20004324954142" lon="12.23077185401307"><ele>656.5</ele><time>2026-03-29T11:07:55.999Z</time></trkpt><trkpt lat="43.20013364883146" lon="12.23088793329525"><ele>657.0</ele><time>2026-03-29T11:07:56.999Z</time></trkpt><trkpt lat="43.20023844104538" lon="12.230996729997791"><ele>657.0</ele><time>2026-03-29T11:07:57.999Z</time></trkpt><trkpt lat="43.200367487232775" lon="12.231086007917336"><ele>657.0</ele><time>2026-03-29T11:07:58.999Z</time></trkpt><trkpt lat="43.20050239494303" lon="12.231179715883389"><ele>657.0</ele><time>2026-03-29T11:07:59.999Z</time></trkpt><trkpt lat="43.20064001808094" lon="12.231230890750416"><ele>657.0</ele><time>2026-03-29T11:08:00.999Z</time></trkpt><trkpt lat="43.200778319141435" lon="12.231262948340845"><ele>658.25</ele><time>2026-03-29T11:08:01.999Z</time></trkpt><trkpt lat="43.20090863485013" lon="12.2312808092477"><ele>659.5</ele><time>2026-03-29T11:08:02.999Z</time></trkpt><trkpt lat="43.20103690998914" lon="12.231296560207351"><ele>660.75</ele><time>2026-03-29T11:08:03.999Z</time></trkpt><trkpt lat="43.20115035232202" lon="12.231311455838604"><ele>662.0</ele><time>2026-03-29T11:08:04.999Z</time></trkpt><trkpt lat="43.20125132491063" lon="12.231343955152553"><ele>662.0</ele><time>2026-03-29T11:08:05.999Z</time></trkpt><trkpt lat="43.20133917475926" lon="12.231403452293641"><ele>662.0</ele><time>2026-03-29T11:08:06.999Z</time></trkpt><trkpt lat="43.201398485623706" lon="12.231532392830776"><ele>662.0</ele><time>2026-03-29T11:08:07.999Z</time></trkpt><trkpt lat="43.20141817612075" lon="12.231700485274327"><ele>662.0</ele><time>2026-03-29T11:08:08.999Z</time></trkpt><trkpt lat="43.20140462123874" lon="12.231892743182833"><ele>654.3333333333333</ele><time>2026-03-29T11:08:09.999Z</time></trkpt><trkpt lat="43.20136312693347" lon="12.232110019811897"><ele>646.6666666666666</ele><time>2026-03-29T11:08:10.999Z</time></trkpt><trkpt lat="43.20132360378929" lon="12.232343507971066"><ele>639.0</ele><time>2026-03-29T11:08:11.999Z</time></trkpt><trkpt lat="43.201296955514316" lon="12.232583828505167"><ele>634.3333333333334</ele><time>2026-03-29T11:08:12.999Z</time></trkpt><trkpt lat="43.201287618427" lon="12.232831373888121"><ele>629.6666666666667</ele><time>2026-03-29T11:08:13.999Z</time></trkpt><trkpt lat="43.20130645986484" lon="12.233083992027849"><ele>625.0</ele><time>2026-03-29T11:08:14.999Z</time></trkpt><trkpt lat="43.20134789540016" lon="12.233346605988206"><ele>625.0</ele><time>2026-03-29T11:08:15.999Z</time></trkpt><trkpt lat="43.20139595458136" lon="12.233609725866978"><ele>625.0</ele><time>2026-03-29T11:08:16.999Z</time></trkpt><trkpt lat="43.20144130751291" lon="12.233838349173435"><ele>625.0</ele><time>2026-03-29T11:08:17.999Z</time></trkpt><trkpt lat="43.20147478365128" lon="12.234038615438543"><ele>629.0</ele><time>2026-03-29T11:08:18.999Z</time></trkpt><trkpt lat="43.201500420470815" lon="12.234221009460878"><ele>633.0</ele><time>2026-03-29T11:08:19.999Z</time></trkpt><trkpt lat="43.201527647578544" lon="12.234393590241995"><ele>637.0</ele><time>2026-03-29T11:08:20.999Z</time></trkpt><trkpt lat="43.20156510347244" lon="12.23456743702249"><ele>641.0</ele><time>2026-03-29T11:08:21.999Z</time></trkpt><trkpt lat="43.20160089064682" lon="12.234761126449367"><ele>641.6666666666666</ele><time>2026-03-29T11:08:22.999Z</time></trkpt><trkpt lat="43.20163043383103" lon="12.234971099316423"><ele>642.3333333333334</ele><time>2026-03-29T11:08:23.999Z</time></trkpt><trkpt lat="43.201659988893105" lon="12.235180539575214"><ele>643.0</ele><time>2026-03-29T11:08:24.999Z</time></trkpt><trkpt lat="43.20169744240601" lon="12.235387697661285"><ele>643.0</ele><time>2026-03-29T11:08:25.999Z</time></trkpt><trkpt lat="43.201737625035655" lon="12.235601451659956"><ele>643.0</ele><time>2026-03-29T11:08:26.999Z</time></trkpt><trkpt lat="43.201775031011756" lon="12.235813885705571"><ele>643.0</ele><time>2026-03-29T11:08:27.999Z</time></trkpt><trkpt lat="43.20182038294215" lon="12.236020775472461"><ele>642.6666666666667</ele><time>2026-03-29T11:08:28.999Z</time></trkpt><trkpt lat="43.20187901138126" lon="12.23622633217105"><ele>642.3333333333334</ele><time>2026-03-29T11:08:29.999Z</time></trkpt><trkpt lat="43.201937936138556" lon="12.236433231983664"><ele>642.0</ele><time>2026-03-29T11:08:30.999Z</time></trkpt><trkpt lat="43.20199977905731" lon="12.236641548054655"><ele>641.0</ele><time>2026-03-29T11:08:31.999Z</time></trkpt><trkpt lat="43.202058933820005" lon="12.236842813538143"><ele>640.0</ele><time>2026-03-29T11:08:32.999Z</time></trkpt><trkpt lat="43.20210987240448" lon="12.23704677242684"><ele>639.0</ele><time>2026-03-29T11:08:33.999Z</time></trkpt><trkpt lat="43.202155143034354" lon="12.237256933876074"><ele>638.75</ele><time>2026-03-29T11:08:34.999Z</time></trkpt><trkpt lat="43.202193062774036" lon="12.237465156011229"><ele>638.5</ele><time>2026-03-29T11:08:35.999Z</time></trkpt><trkpt lat="43.202226967803576" lon="12.237663716939423"><ele>638.25</ele><time>2026-03-29T11:08:36.999Z</time></trkpt><trkpt lat="43.20225800131355" lon="12.237841523048935"><ele>638.0</ele><time>2026-03-29T11:08:37.999Z</time></trkpt><trkpt lat="43.2022892653462" lon="12.23802225184528"><ele>637.0</ele><time>2026-03-29T11:08:38.999Z</time></trkpt><trkpt lat="43.202323448912864" lon="12.238213305368129"><ele>636.0</ele><time>2026-03-29T11:08:39.999Z</time></trkpt><trkpt lat="43.20236451891856" lon="12.238408413694822"><ele>635.0</ele><time>2026-03-29T11:08:40.999Z</time></trkpt><trkpt lat="43.20241119755066" lon="12.23860554168898"><ele>634.0</ele><time>2026-03-29T11:08:42Z</time></trkpt><trkpt lat="43.20246876967083" lon="12.238794065517205"><ele>638.5</ele><time>2026-03-29T11:08:43Z</time></trkpt><trkpt lat="43.20253365340787" lon="12.238963639299023"><ele>643.0</ele><time>2026-03-29T11:08:44Z</time></trkpt><trkpt lat="43.202591784979326" lon="12.239114528728225"><ele>647.5</ele><time>2026-03-29T11:08:45Z</time></trkpt><trkpt lat="43.20264576810207" lon="12.239252491144502"><ele>652.0</ele><time>2026-03-29T11:08:46Z</time></trkpt><trkpt lat="43.20269254402864" lon="12.239365526896972"><ele>652.0</ele><time>2026-03-29T11:08:47Z</time></trkpt><trkpt lat="43.20272454521044" lon="12.239456227204636"><ele>652.0</ele><time>2026-03-29T11:08:48Z</time></trkpt><trkpt lat="43.20273753030701" lon="12.239565545956324"><ele>652.0</ele><time>2026-03-29T11:08:51Z</time></trkpt><trkpt lat="43.20269141122927" lon="12.239640217960385"><ele>652.0</ele><time>2026-03-29T11:08:52Z</time></trkpt><trkpt lat="43.202622910748886" lon="12.239788116310722"><ele>652.0</ele><time>2026-03-29T11:08:54Z</time></trkpt><trkpt lat="43.20254628528816" lon="12.239943834082702"><ele>652.1666666666667</ele><time>2026-03-29T11:08:56Z</time></trkpt><trkpt lat="43.20250078202427" lon="12.240029102185654"><ele>652.3333333333334</ele><time>2026-03-29T11:08:57Z</time></trkpt><trkpt lat="43.202457403786774" lon="12.240112753016989"><ele>652.5</ele><time>2026-03-29T11:08:58Z</time></trkpt><trkpt lat="43.20241607488588" lon="12.240184419970893"><ele>652.6666666666666</ele><time>2026-03-29T11:08:59Z</time></trkpt><trkpt lat="43.20236583027737" lon="12.240254740035466"><ele>652.8333333333333</ele><time>2026-03-29T11:09:00Z</time></trkpt><trkpt lat="43.20231913522222" lon="12.240319924628539"><ele>653.0</ele><time>2026-03-29T11:09:01Z</time></trkpt><trkpt lat="43.20225827393401" lon="12.240458419628169"><ele>652.5</ele><time>2026-03-29T11:09:03Z</time></trkpt><trkpt lat="43.20227563589483" lon="12.24064354252804"><ele>652.0</ele><time>2026-03-29T11:09:05Z</time></trkpt><trkpt lat="43.20230039865413" lon="12.240769176120724"><ele>651.5</ele><time>2026-03-29T11:09:06Z</time></trkpt><trkpt lat="43.2023561064349" lon="12.240897584994908"><ele>651.0</ele><time>2026-03-29T11:09:07Z</time></trkpt><trkpt lat="43.20244768819116" lon="12.241004754985232"><ele>651.0</ele><time>2026-03-29T11:09:08Z</time></trkpt><trkpt lat="43.20254125459087" lon="12.241075376928398"><ele>651.0</ele><time>2026-03-29T11:09:09Z</time></trkpt><trkpt lat="43.202621245918415" lon="12.241142028485708"><ele>651.0</ele><time>2026-03-29T11:09:10Z</time></trkpt><trkpt lat="43.20270077809441" lon="12.241204644686034"><ele>651.0</ele><time>2026-03-29T11:09:11Z</time></trkpt><trkpt lat="43.202778378836584" lon="12.241263839357826"><ele>651.0</ele><time>2026-03-29T11:09:12Z</time></trkpt><trkpt lat="43.20285651995992" lon="12.241321401557306"><ele>651.0</ele><time>2026-03-29T11:09:13Z</time></trkpt><trkpt lat="43.20293525505819" lon="12.241383035867493"><ele>651.0</ele><time>2026-03-29T11:09:14Z</time></trkpt><trkpt lat="43.203011356661456" lon="12.241457066157198"><ele>651.0</ele><time>2026-03-29T11:09:15Z</time></trkpt><trkpt lat="43.20308184594082" lon="12.241537616035705"><ele>651.0</ele><time>2026-03-29T11:09:16Z</time></trkpt><trkpt lat="43.203154742122884" lon="12.241618831451573"><ele>651.0</ele><time>2026-03-29T11:09:17Z</time></trkpt><trkpt lat="43.203233897250485" lon="12.241698266386193"><ele>649.6666666666666</ele><time>2026-03-29T11:09:18Z</time></trkpt><trkpt lat="43.203315206057376" lon="12.24177346781462"><ele>648.3333333333334</ele><time>2026-03-29T11:09:19Z</time></trkpt><trkpt lat="43.20339432012092" lon="12.241840720845818"><ele>647.0</ele><time>2026-03-29T11:09:20Z</time></trkpt><trkpt lat="43.20347548293965" lon="12.241902255100689"><ele>645.6666666666667</ele><time>2026-03-29T11:09:21Z</time></trkpt><trkpt lat="43.203551824513475" lon="12.241951124971223"><ele>644.3333333333334</ele><time>2026-03-29T11:09:22Z</time></trkpt><trkpt lat="43.20362197471409" lon="12.241996293484085"><ele>643.0</ele><time>2026-03-29T11:09:23Z</time></trkpt><trkpt lat="43.203679453488284" lon="12.24205542435707"><ele>643.0</ele><time>2026-03-29T11:09:24Z</time></trkpt><trkpt lat="43.20371300540595" lon="12.242158671302827"><ele>643.0</ele><time>2026-03-29T11:09:25Z</time></trkpt><trkpt lat="43.20374308181158" lon="12.242270993452983"><ele>643.0</ele><time>2026-03-29T11:09:26Z</time></trkpt><trkpt lat="43.20376237308996" lon="12.242384260166492"><ele>643.0</ele><time>2026-03-29T11:09:27Z</time></trkpt><trkpt lat="43.203772779548785" lon="12.242494986405026"><ele>643.0</ele><time>2026-03-29T11:09:28Z</time></trkpt><trkpt lat="43.20377563578808" lon="12.242587570656747"><ele>643.0</ele><time>2026-03-29T11:09:29Z</time></trkpt><trkpt lat="43.203770177288455" lon="12.242757424923841"><ele>638.8</ele><time>2026-03-29T11:09:31Z</time></trkpt><trkpt lat="43.20373700748225" lon="12.242842790833455"><ele>634.5999999999999</ele><time>2026-03-29T11:09:32Z</time></trkpt><trkpt lat="43.20362876149668" lon="12.242856544238867"><ele>630.4000000000001</ele><time>2026-03-29T11:09:33Z</time></trkpt><trkpt lat="43.2035333687433" lon="12.242878547775266"><ele>626.2</ele><time>2026-03-29T11:09:34Z</time></trkpt><trkpt lat="43.203431982115845" lon="12.242921050609164"><ele>622.0</ele><time>2026-03-29T11:09:35Z</time></trkpt><trkpt lat="43.20332549583413" lon="12.24297968929551"><ele>622.0</ele><time>2026-03-29T11:09:36Z</time></trkpt><trkpt lat="43.20322346864662" lon="12.24301924640543"><ele>622.0</ele><time>2026-03-29T11:09:37Z</time></trkpt><trkpt lat="43.20313015898575" lon="12.243074582027328"><ele>622.0</ele><time>2026-03-29T11:09:38Z</time></trkpt><trkpt lat="43.20303585735361" lon="12.24311606696702"><ele>622.0</ele><time>2026-03-29T11:09:39Z</time></trkpt><trkpt lat="43.202945455058305" lon="12.243166754591051"><ele>622.0</ele><time>2026-03-29T11:09:40Z</time></trkpt><trkpt lat="43.202864942630626" lon="12.243215702629097"><ele>619.5</ele><time>2026-03-29T11:09:41Z</time></trkpt><trkpt lat="43.20279279874842" lon="12.243282036482718"><ele>617.0</ele><time>2026-03-29T11:09:42Z</time></trkpt><trkpt lat="43.202723130846636" lon="12.243366817957293"><ele>614.5</ele><time>2026-03-29T11:09:43Z</time></trkpt><trkpt lat="43.202664214746335" lon="12.243472619017293"><ele>612.0</ele><time>2026-03-29T11:09:44Z</time></trkpt><trkpt lat="43.20262194998008" lon="12.243571612492449"><ele>609.5</ele><time>2026-03-29T11:09:45Z</time></trkpt><trkpt lat="43.202582089181426" lon="12.243643188285917"><ele>607.0</ele><time>2026-03-29T11:09:46Z</time></trkpt><trkpt lat="43.2025317550799" lon="12.243695491480773"><ele>607.0</ele><time>2026-03-29T11:09:47Z</time></trkpt><trkpt lat="43.2024614176364" lon="12.243692716173138"><ele>607.0</ele><time>2026-03-29T11:09:48Z</time></trkpt><trkpt lat="43.20236276145841" lon="12.243678346478896"><ele>607.0</ele><time>2026-03-29T11:09:49Z</time></trkpt><trkpt lat="43.202267188257366" lon="12.243670117397958"><ele>607.0</ele><time>2026-03-29T11:09:50Z</time></trkpt><trkpt lat="43.20220121335535" lon="12.243685211908119"><ele>607.0</ele><time>2026-03-29T11:09:50.999Z</time></trkpt><trkpt lat="43.2021496072089" lon="12.243753782242761"><ele>607.0</ele><time>2026-03-29T11:09:51.999Z</time></trkpt><trkpt lat="43.20203592395379" lon="12.243883782513928"><ele>604.6</ele><time>2026-03-29T11:09:53.999Z</time></trkpt><trkpt lat="43.20197248920366" lon="12.24400848676522"><ele>602.2</ele><time>2026-03-29T11:09:54.999Z</time></trkpt><trkpt lat="43.201898130313936" lon="12.244119655459196"><ele>599.8</ele><time>2026-03-29T11:09:55.999Z</time></trkpt><trkpt lat="43.20183330174909" lon="12.24422406449036"><ele>597.4</ele><time>2026-03-29T11:09:56.999Z</time></trkpt><trkpt lat="43.20177951308893" lon="12.244349133517874"><ele>595.0</ele><time>2026-03-29T11:09:57.999Z</time></trkpt><trkpt lat="43.20173183681742" lon="12.24446741893815"><ele>595.0</ele><time>2026-03-29T11:09:58.999Z</time></trkpt><trkpt lat="43.20168817852249" lon="12.244587425837835"><ele>595.0</ele><time>2026-03-29T11:09:59.999Z</time></trkpt><trkpt lat="43.20166895028471" lon="12.24467725906541"><ele>595.0</ele><time>2026-03-29T11:10:00.999Z</time></trkpt><trkpt lat="43.20167720560928" lon="12.244801404796151"><ele>595.0</ele><time>2026-03-29T11:10:02.999Z</time></trkpt><trkpt lat="43.20171618314718" lon="12.244896420088027"><ele>595.0</ele><time>2026-03-29T11:10:03.999Z</time></trkpt><trkpt lat="43.201802336402565" lon="12.2449718792378"><ele>595.0</ele><time>2026-03-29T11:10:04.999Z</time></trkpt><trkpt lat="43.2018552706314" lon="12.245059054834798"><ele>595.5</ele><time>2026-03-29T11:10:05.999Z</time></trkpt><trkpt lat="43.201890048614864" lon="12.245239820255485"><ele>596.0</ele><time>2026-03-29T11:10:06.999Z</time></trkpt><trkpt lat="43.201893599453804" lon="12.245427967078218"><ele>596.5</ele><time>2026-03-29T11:10:07.999Z</time></trkpt><trkpt lat="43.20189532721825" lon="12.245598064905785"><ele>597.0</ele><time>2026-03-29T11:10:08.999Z</time></trkpt><trkpt lat="43.20191184928546" lon="12.245740774915351"><ele>594.8000000000001</ele><time>2026-03-29T11:10:09.999Z</time></trkpt><trkpt lat="43.20194791155027" lon="12.245864404816619"><ele>592.6</ele><time>2026-03-29T11:10:10.999Z</time></trkpt><trkpt lat="43.20197260731691" lon="12.245967747092932"><ele>590.4000000000001</ele><time>2026-03-29T11:10:11.999Z</time></trkpt><trkpt lat="43.20198527580594" lon="12.246092973591095"><ele>588.2</ele><time>2026-03-29T11:10:12.999Z</time></trkpt><trkpt lat="43.20196216948595" lon="12.24622697298249"><ele>586.0</ele><time>2026-03-29T11:10:13.999Z</time></trkpt><trkpt lat="43.20190768005648" lon="12.246394882901777"><ele>586.2</ele><time>2026-03-29T11:10:14.999Z</time></trkpt><trkpt lat="43.2018363781463" lon="12.246534212252907"><ele>586.4000000000001</ele><time>2026-03-29T11:10:15.999Z</time></trkpt><trkpt lat="43.20178049768044" lon="12.246661258994175"><ele>586.6</ele><time>2026-03-29T11:10:16.999Z</time></trkpt><trkpt lat="43.201755292156044" lon="12.246807991021885"><ele>586.8000000000001</ele><time>2026-03-29T11:10:17.999Z</time></trkpt><trkpt lat="43.201743964089204" lon="12.246940277824176"><ele>587.0</ele><time>2026-03-29T11:10:18.999Z</time></trkpt><trkpt lat="43.20174685587378" lon="12.247078712113186"><ele>587.0</ele><time>2026-03-29T11:10:19.999Z</time></trkpt><trkpt lat="43.20176123602481" lon="12.247224565525267"><ele>587.0</ele><time>2026-03-29T11:10:20.999Z</time></trkpt><trkpt lat="43.2017909034837" lon="12.247352843327276"><ele>587.0</ele><time>2026-03-29T11:10:21.999Z</time></trkpt><trkpt lat="43.201820276695884" lon="12.24743223627658"><ele>587.0</ele><time>2026-03-29T11:10:22.999Z</time></trkpt><trkpt lat="43.201859271316636" lon="12.2475104823619"><ele>587.0</ele><time>2026-03-29T11:10:23.999Z</time></trkpt><trkpt lat="43.20190170762762" lon="12.24761184668374"><ele>587.0</ele><time>2026-03-29T11:10:25.999Z</time></trkpt><trkpt lat="43.20187339767029" lon="12.247716337961878"><ele>587.7142857142858</ele><time>2026-03-29T11:10:27.999Z</time></trkpt><trkpt lat="43.20183250447898" lon="12.24778432588701"><ele>588.4285714285714</ele><time>2026-03-29T11:10:28.999Z</time></trkpt><trkpt lat="43.20178363269395" lon="12.247862597257066"><ele>589.1428571428571</ele><time>2026-03-29T11:10:29.999Z</time></trkpt><trkpt lat="43.201740812904454" lon="12.247937794181164"><ele>589.8571428571429</ele><time>2026-03-29T11:10:30.999Z</time></trkpt><trkpt lat="43.20170449477991" lon="12.248022773282912"><ele>590.5714285714286</ele><time>2026-03-29T11:10:31.999Z</time></trkpt><trkpt lat="43.20167512566255" lon="12.248112577534554"><ele>591.2857142857143</ele><time>2026-03-29T11:10:32.999Z</time></trkpt><trkpt lat="43.20166313387168" lon="12.248209095064576"><ele>592.0</ele><time>2026-03-29T11:10:33.999Z</time></trkpt><trkpt lat="43.20167039469539" lon="12.248301321291517"><ele>592.0</ele><time>2026-03-29T11:10:34.999Z</time></trkpt><trkpt lat="43.20166061450531" lon="12.248403627436074"><ele>592.0</ele><time>2026-03-29T11:10:35.999Z</time></trkpt><trkpt lat="43.201654539264815" lon="12.248516592971905"><ele>592.0</ele><time>2026-03-29T11:10:36.999Z</time></trkpt><trkpt lat="43.20164909108806" lon="12.248616117868231"><ele>592.0</ele><time>2026-03-29T11:10:37.999Z</time></trkpt><trkpt lat="43.20165104004364" lon="12.248724134034203"><ele>592.0</ele><time>2026-03-29T11:10:38.999Z</time></trkpt><trkpt lat="43.201647827052675" lon="12.248817236415528"><ele>592.0</ele><time>2026-03-29T11:10:39.999Z</time></trkpt><trkpt lat="43.20165098857914" lon="12.24895592448711"><ele>588.8000000000001</ele><time>2026-03-29T11:10:41.999Z</time></trkpt><trkpt lat="43.20171445878679" lon="12.249083276221556"><ele>585.6</ele><time>2026-03-29T11:10:43.999Z</time></trkpt><trkpt lat="43.20176236934397" lon="12.249165248051458"><ele>582.4000000000001</ele><time>2026-03-29T11:10:44.999Z</time></trkpt><trkpt lat="43.20183372449596" lon="12.249243690996124"><ele>579.2</ele><time>2026-03-29T11:10:45.999Z</time></trkpt><trkpt lat="43.201912799650664" lon="12.249325818887327"><ele>576.0</ele><time>2026-03-29T11:10:46.999Z</time></trkpt><trkpt lat="43.20200463259558" lon="12.249414704339497"><ele>576.0</ele><time>2026-03-29T11:10:48Z</time></trkpt><trkpt lat="43.20209775436476" lon="12.249501201591917"><ele>576.0</ele><time>2026-03-29T11:10:49Z</time></trkpt><trkpt lat="43.20218432745762" lon="12.249570775451035"><ele>576.0</ele><time>2026-03-29T11:10:50Z</time></trkpt><trkpt lat="43.20227477984632" lon="12.249619260607242"><ele>576.0</ele><time>2026-03-29T11:10:51Z</time></trkpt><trkpt lat="43.20234229320504" lon="12.2496574108628"><ele>576.0</ele><time>2026-03-29T11:10:52Z</time></trkpt><trkpt lat="43.20241349887274" lon="12.24976604226547"><ele>575.1666666666666</ele><time>2026-03-29T11:10:54Z</time></trkpt><trkpt lat="43.20245382972904" lon="12.24986852429216"><ele>574.3333333333334</ele><time>2026-03-29T11:10:55Z</time></trkpt><trkpt lat="43.20243344227788" lon="12.250007278521682"><ele>573.5</ele><time>2026-03-29T11:10:56Z</time></trkpt><trkpt lat="43.202402866936545" lon="12.250133627202777"><ele>572.6666666666667</ele><time>2026-03-29T11:10:57Z</time></trkpt><trkpt lat="43.20236445783396" lon="12.250235316985332"><ele>571.8333333333334</ele><time>2026-03-29T11:10:58Z</time></trkpt><trkpt lat="43.20233167584766" lon="12.250314499476744"><ele>571.0</ele><time>2026-03-29T11:10:59Z</time></trkpt><trkpt lat="43.20224669784798" lon="12.250407018834604"><ele>569.0</ele><time>2026-03-29T11:11:01Z</time></trkpt><trkpt lat="43.20217578813241" lon="12.250416179819897"><ele>567.0</ele><time>2026-03-29T11:11:02Z</time></trkpt><trkpt lat="43.2020937459495" lon="12.250376494994025"><ele>565.0</ele><time>2026-03-29T11:11:03Z</time></trkpt><trkpt lat="43.202006308960286" lon="12.250348565542325"><ele>563.0</ele><time>2026-03-29T11:11:04Z</time></trkpt><trkpt lat="43.20192319448365" lon="12.250324471393593"><ele>561.0</ele><time>2026-03-29T11:11:05Z</time></trkpt><trkpt lat="43.201843991572254" lon="12.250310856457398"><ele>559.0</ele><time>2026-03-29T11:11:06Z</time></trkpt><trkpt lat="43.20177895672022" lon="12.250299578637183"><ele>559.0</ele><time>2026-03-29T11:11:07Z</time></trkpt><trkpt lat="43.20165957426492" lon="12.250299367292596"><ele>559.0</ele><time>2026-03-29T11:11:09Z</time></trkpt><trkpt lat="43.20160056930035" lon="12.250337988207777"><ele>559.0</ele><time>2026-03-29T11:11:10Z</time></trkpt><trkpt lat="43.20154922011991" lon="12.25039331476379"><ele>559.0</ele><time>2026-03-29T11:11:11Z</time></trkpt><trkpt lat="43.201513916639605" lon="12.250493733784422"><ele>559.0</ele><time>2026-03-29T11:11:12Z</time></trkpt><trkpt lat="43.20146594330625" lon="12.250639261530798"><ele>559.0</ele><time>2026-03-29T11:11:14Z</time></trkpt><trkpt lat="43.201470529291065" lon="12.250734592040523"><ele>558.0</ele><time>2026-03-29T11:11:15Z</time></trkpt><trkpt lat="43.20148462738904" lon="12.250832294224141"><ele>557.0</ele><time>2026-03-29T11:11:16Z</time></trkpt><trkpt lat="43.201502250367334" lon="12.250916840673666"><ele>556.0</ele><time>2026-03-29T11:11:17Z</time></trkpt><trkpt lat="43.201513766534475" lon="12.251059062705785"><ele>555.0</ele><time>2026-03-29T11:11:19Z</time></trkpt><trkpt lat="43.2014921742912" lon="12.251158187262236"><ele>554.0</ele><time>2026-03-29T11:11:20Z</time></trkpt><trkpt lat="43.20139200237315" lon="12.251263211703213"><ele>553.0</ele><time>2026-03-29T11:11:21Z</time></trkpt><trkpt lat="43.201290195511056" lon="12.25140695080219"><ele>548.0</ele><time>2026-03-29T11:11:22Z</time></trkpt><trkpt lat="43.20119389419318" lon="12.251566643074298"><ele>543.0</ele><time>2026-03-29T11:11:23Z</time></trkpt><trkpt lat="43.201118610329246" lon="12.251709836259774"><ele>538.0</ele><time>2026-03-29T11:11:24Z</time></trkpt><trkpt lat="43.20105069304074" lon="12.251840717534817"><ele>533.0</ele><time>2026-03-29T11:11:25Z</time></trkpt><trkpt lat="43.20099103707656" lon="12.251970444110412"><ele>533.0</ele><time>2026-03-29T11:11:26Z</time></trkpt><trkpt lat="43.20093227971712" lon="12.252115108682684"><ele>533.0</ele><time>2026-03-29T11:11:27Z</time></trkpt><trkpt lat="43.20087457689437" lon="12.25224958597096"><ele>533.0</ele><time>2026-03-29T11:11:28Z</time></trkpt><trkpt lat="43.20081642876037" lon="12.25237826793175"><ele>533.0</ele><time>2026-03-29T11:11:29Z</time></trkpt><trkpt lat="43.20075832664532" lon="12.252499326314263"><ele>533.25</ele><time>2026-03-29T11:11:30Z</time></trkpt><trkpt lat="43.20069712363211" lon="12.25262409611026"><ele>533.5</ele><time>2026-03-29T11:11:31Z</time></trkpt><trkpt lat="43.200634027258054" lon="12.252768400896509"><ele>533.75</ele><time>2026-03-29T11:11:32Z</time></trkpt><trkpt lat="43.20056917413092" lon="12.25292833101625"><ele>534.0</ele><time>2026-03-29T11:11:33Z</time></trkpt><trkpt lat="43.200508391730814" lon="12.253057526047204"><ele>533.8</ele><time>2026-03-29T11:11:34Z</time></trkpt><trkpt lat="43.200445251003515" lon="12.25315302871901"><ele>533.5999999999999</ele><time>2026-03-29T11:11:35Z</time></trkpt><trkpt lat="43.20036337866164" lon="12.253247645189646"><ele>533.4</ele><time>2026-03-29T11:11:36Z</time></trkpt><trkpt lat="43.200278688205266" lon="12.253318064130044"><ele>533.1999999999999</ele><time>2026-03-29T11:11:37Z</time></trkpt><trkpt lat="43.200185014121345" lon="12.253366160904777"><ele>533.0</ele><time>2026-03-29T11:11:38Z</time></trkpt><trkpt lat="43.20008272297117" lon="12.253392602227107"><ele>533.0</ele><time>2026-03-29T11:11:39Z</time></trkpt><trkpt lat="43.19996389862921" lon="12.253412456306258"><ele>533.0</ele><time>2026-03-29T11:11:40Z</time></trkpt><trkpt lat="43.199845668283224" lon="12.2534356847793"><ele>533.0</ele><time>2026-03-29T11:11:41Z</time></trkpt><trkpt lat="43.19973305086291" lon="12.253450264787656"><ele>533.0</ele><time>2026-03-29T11:11:42Z</time></trkpt><trkpt lat="43.199619140227604" lon="12.253473769483811"><ele>531.5</ele><time>2026-03-29T11:11:43Z</time></trkpt><trkpt lat="43.19950607437748" lon="12.253517090254324"><ele>530.0</ele><time>2026-03-29T11:11:44Z</time></trkpt><trkpt lat="43.19939232539392" lon="12.253585429981413"><ele>528.5</ele><time>2026-03-29T11:11:45Z</time></trkpt><trkpt lat="43.19927326558739" lon="12.253661662476219"><ele>527.0</ele><time>2026-03-29T11:11:46Z</time></trkpt><trkpt lat="43.199157234690105" lon="12.25372831104092"><ele>527.0</ele><time>2026-03-29T11:11:47Z</time></trkpt><trkpt lat="43.19905523088166" lon="12.253778776617713"><ele>527.0</ele><time>2026-03-29T11:11:48Z</time></trkpt><trkpt lat="43.19897114130703" lon="12.253835955278028"><ele>527.0</ele><time>2026-03-29T11:11:49Z</time></trkpt><trkpt lat="43.198904782475886" lon="12.253927516732691"><ele>527.0</ele><time>2026-03-29T11:11:50Z</time></trkpt><trkpt lat="43.198864844565975" lon="12.254026965413484"><ele>527.0</ele><time>2026-03-29T11:11:51Z</time></trkpt><trkpt lat="43.19882386480437" lon="12.254104403071135"><ele>527.0</ele><time>2026-03-29T11:11:52Z</time></trkpt><trkpt lat="43.1987658476427" lon="12.254158982890337"><ele>527.5</ele><time>2026-03-29T11:11:53Z</time></trkpt><trkpt lat="43.19868197919536" lon="12.254208203158118"><ele>528.0</ele><time>2026-03-29T11:11:53.999Z</time></trkpt><trkpt lat="43.19858252570016" lon="12.254235735631081"><ele>528.5</ele><time>2026-03-29T11:11:54.999Z</time></trkpt><trkpt lat="43.19849177177025" lon="12.254260978817896"><ele>529.0</ele><time>2026-03-29T11:11:55.999Z</time></trkpt><trkpt lat="43.19841039968027" lon="12.25428090994098"><ele>529.5</ele><time>2026-03-29T11:11:56.999Z</time></trkpt><trkpt lat="43.19833253124053" lon="12.254302896847955"><ele>530.0</ele><time>2026-03-29T11:11:57.999Z</time></trkpt><trkpt lat="43.198257342431944" lon="12.254320036061111"><ele>529.9999999999999</ele><time>2026-03-29T11:11:58.999Z</time></trkpt><trkpt lat="43.19818600312776" lon="12.254339927398854"><ele>530.0</ele><time>2026-03-29T11:11:59.999Z</time></trkpt><trkpt lat="43.19811314788962" lon="12.254356850089112"><ele>530.0</ele><time>2026-03-29T11:12:00.999Z</time></trkpt><trkpt lat="43.19804154666432" lon="12.254376182287267"><ele>530.0</ele><time>2026-03-29T11:12:01.999Z</time></trkpt><trkpt lat="43.19797027216033" lon="12.254388483158067"><ele>530.0</ele><time>2026-03-29T11:12:02.999Z</time></trkpt><trkpt lat="43.197896948947076" lon="12.25439388134208"><ele>529.9999999999999</ele><time>2026-03-29T11:12:03.999Z</time></trkpt><trkpt lat="43.19782159268941" lon="12.25440416476673"><ele>530.0</ele><time>2026-03-29T11:12:04.999Z</time></trkpt><trkpt lat="43.19775000668115" lon="12.254439401344575"><ele>528.1428571428571</ele><time>2026-03-29T11:12:05.999Z</time></trkpt><trkpt lat="43.197676934810936" lon="12.254468044760529"><ele>526.2857142857142</ele><time>2026-03-29T11:12:06.999Z</time></trkpt><trkpt lat="43.197609860296204" lon="12.254517080443113"><ele>524.4285714285714</ele><time>2026-03-29T11:12:07.999Z</time></trkpt><trkpt lat="43.19755090379031" lon="12.25456966507205"><ele>522.5714285714286</ele><time>2026-03-29T11:12:08.999Z</time></trkpt><trkpt lat="43.197491705745094" lon="12.254630617663404"><ele>520.7142857142858</ele><time>2026-03-29T11:12:09.999Z</time></trkpt><trkpt lat="43.19744148709639" lon="12.254702424449407"><ele>518.8571428571429</ele><time>2026-03-29T11:12:10.999Z</time></trkpt><trkpt lat="43.19739178880643" lon="12.254777226463762"><ele>517.0</ele><time>2026-03-29T11:12:11.999Z</time></trkpt><trkpt lat="43.19733282282996" lon="12.254851441919701"><ele>516.5</ele><time>2026-03-29T11:12:12.999Z</time></trkpt><trkpt lat="43.19730396162209" lon="12.25493390839401"><ele>516.0</ele><time>2026-03-29T11:12:13.999Z</time></trkpt><trkpt lat="43.19728888087529" lon="12.255026988857493"><ele>515.5</ele><time>2026-03-29T11:12:14.999Z</time></trkpt><trkpt lat="43.19729913115549" lon="12.25512554376135"><ele>515.0</ele><time>2026-03-29T11:12:15.999Z</time></trkpt><trkpt lat="43.197318082742804" lon="12.255224708290084"><ele>514.5</ele><time>2026-03-29T11:12:16.999Z</time></trkpt><trkpt lat="43.19735435475792" lon="12.25536658255272"><ele>514.0</ele><time>2026-03-29T11:12:18.999Z</time></trkpt><trkpt lat="43.19734937254062" lon="12.255485889122248"><ele>511.0</ele><time>2026-03-29T11:12:20.999Z</time></trkpt><trkpt lat="43.19722852440056" lon="12.255557599215585"><ele>508.0</ele><time>2026-03-29T11:12:22.999Z</time></trkpt><trkpt lat="43.19714494584734" lon="12.25559721092791"><ele>505.0</ele><time>2026-03-29T11:12:23.999Z</time></trkpt><trkpt lat="43.19706063849297" lon="12.25566254995805"><ele>502.0</ele><time>2026-03-29T11:12:24.999Z</time></trkpt><trkpt lat="43.19697112039251" lon="12.25576064292392"><ele>499.0</ele><time>2026-03-29T11:12:25.999Z</time></trkpt><trkpt lat="43.19688456483576" lon="12.255864358676613"><ele>499.0</ele><time>2026-03-29T11:12:26.999Z</time></trkpt><trkpt lat="43.19680411395003" lon="12.255952729350929"><ele>499.0</ele><time>2026-03-29T11:12:27.999Z</time></trkpt><trkpt lat="43.19671946299652" lon="12.256008102648469"><ele>499.0</ele><time>2026-03-29T11:12:28.999Z</time></trkpt><trkpt lat="43.19662011048025" lon="12.255996493300948"><ele>499.0</ele><time>2026-03-29T11:12:29.999Z</time></trkpt><trkpt lat="43.19650994634294" lon="12.255998455760816"><ele>499.0</ele><time>2026-03-29T11:12:30.999Z</time></trkpt><trkpt lat="43.19638017640881" lon="12.256017131440599"><ele>497.6</ele><time>2026-03-29T11:12:31.999Z</time></trkpt><trkpt lat="43.19626091283888" lon="12.256007061909065"><ele>496.2</ele><time>2026-03-29T11:12:32.999Z</time></trkpt><trkpt lat="43.19614736912831" lon="12.256014362935577"><ele>494.80000000000007</ele><time>2026-03-29T11:12:33.999Z</time></trkpt><trkpt lat="43.19604141973674" lon="12.25604136615625"><ele>493.40000000000003</ele><time>2026-03-29T11:12:34.999Z</time></trkpt><trkpt lat="43.19594488789901" lon="12.256085824563566"><ele>492.0</ele><time>2026-03-29T11:12:35.999Z</time></trkpt><trkpt lat="43.195861399984224" lon="12.256131654014203"><ele>492.0</ele><time>2026-03-29T11:12:36.999Z</time></trkpt><trkpt lat="43.19579631448846" lon="12.256134424194302"><ele>492.0</ele><time>2026-03-29T11:12:37.999Z</time></trkpt><trkpt lat="43.19570239926628" lon="12.256130735753652"><ele>492.0</ele><time>2026-03-29T11:12:39.999Z</time></trkpt><trkpt lat="43.195678994873326" lon="12.2560386570927"><ele>492.0</ele><time>2026-03-29T11:12:40.999Z</time></trkpt><trkpt lat="43.1956484499915" lon="12.25592340197706"><ele>492.0</ele><time>2026-03-29T11:12:41.999Z</time></trkpt><trkpt lat="43.19556748123025" lon="12.255819386526163"><ele>492.0</ele><time>2026-03-29T11:12:42.999Z</time></trkpt><trkpt lat="43.195482023976794" lon="12.255712749838443"><ele>490.0</ele><time>2026-03-29T11:12:43.999Z</time></trkpt><trkpt lat="43.1954163925541" lon="12.255601790911337"><ele>488.00000000000006</ele><time>2026-03-29T11:12:44.999Z</time></trkpt><trkpt lat="43.19534078643597" lon="12.255537966072422"><ele>486.00000000000006</ele><time>2026-03-29T11:12:45.999Z</time></trkpt><trkpt lat="43.19527743116544" lon="12.255454638466372"><ele>484.0</ele><time>2026-03-29T11:12:46.999Z</time></trkpt><trkpt lat="43.19522270391895" lon="12.255375074912243"><ele>482.0</ele><time>2026-03-29T11:12:47.999Z</time></trkpt><trkpt lat="43.19516381425329" lon="12.25524712641331"><ele>482.0</ele><time>2026-03-29T11:12:49.999Z</time></trkpt><trkpt lat="43.195090074542534" lon="12.255148369188976"><ele>482.00000000000006</ele><time>2026-03-29T11:12:51.999Z</time></trkpt><trkpt lat="43.19498004875531" lon="12.255112715032583"><ele>482.00000000000006</ele><time>2026-03-29T11:12:54Z</time></trkpt><trkpt lat="43.19490887316996" lon="12.25508394803142"><ele>482.0</ele><time>2026-03-29T11:12:56Z</time></trkpt><trkpt lat="43.194884111983406" lon="12.255287858407815"><ele>482.0</ele><time>2026-03-29T11:12:58Z</time></trkpt><trkpt lat="43.1948312819992" lon="12.255357861463182"><ele>480.20000000000005</ele><time>2026-03-29T11:13:00Z</time></trkpt><trkpt lat="43.19472397893991" lon="12.255309753894144"><ele>478.40000000000003</ele><time>2026-03-29T11:13:02Z</time></trkpt><trkpt lat="43.1946595848216" lon="12.255259993138152"><ele>476.59999999999997</ele><time>2026-03-29T11:13:03Z</time></trkpt><trkpt lat="43.19457130260101" lon="12.255245216603237"><ele>474.79999999999995</ele><time>2026-03-29T11:13:04Z</time></trkpt><trkpt lat="43.19446667589142" lon="12.255274310576741"><ele>473.0</ele><time>2026-03-29T11:13:05Z</time></trkpt><trkpt lat="43.19435059225931" lon="12.255321689794416"><ele>473.0</ele><time>2026-03-29T11:13:06Z</time></trkpt><trkpt lat="43.19421878301604" lon="12.255364205683348"><ele>473.0</ele><time>2026-03-29T11:13:07Z</time></trkpt><trkpt lat="43.19410042108123" lon="12.255402036469112"><ele>473.0</ele><time>2026-03-29T11:13:08Z</time></trkpt><trkpt lat="43.193998322848735" lon="12.255442049330737"><ele>473.0</ele><time>2026-03-29T11:13:09Z</time></trkpt><trkpt lat="43.19390053671208" lon="12.255493695359402"><ele>473.4</ele><time>2026-03-29T11:13:10Z</time></trkpt><trkpt lat="43.19380614216973" lon="12.255539408960074"><ele>473.79999999999995</ele><time>2026-03-29T11:13:11Z</time></trkpt><trkpt lat="43.193681947804535" lon="12.255596548749036"><ele>474.2</ele><time>2026-03-29T11:13:12Z</time></trkpt><trkpt lat="43.19358108241558" lon="12.255662131861692"><ele>474.6</ele><time>2026-03-29T11:13:13Z</time></trkpt><trkpt lat="43.19351568718486" lon="12.255726350807276"><ele>475.0</ele><time>2026-03-29T11:13:14Z</time></trkpt><trkpt lat="43.19344706492419" lon="12.255754237583902"><ele>475.00000000000006</ele><time>2026-03-29T11:13:15Z</time></trkpt><trkpt lat="43.19337253285768" lon="12.255745484347184"><ele>475.0</ele><time>2026-03-29T11:13:16Z</time></trkpt><trkpt lat="43.19330342449684" lon="12.255709131248842"><ele>475.0</ele><time>2026-03-29T11:13:17Z</time></trkpt><trkpt lat="43.193226683668044" lon="12.255644006369769"><ele>475.0</ele><time>2026-03-29T11:13:18Z</time></trkpt><trkpt lat="43.19315912500274" lon="12.255584024114128"><ele>475.00000000000006</ele><time>2026-03-29T11:13:19Z</time></trkpt><trkpt lat="43.1930994089474" lon="12.255547637749222"><ele>475.0</ele><time>2026-03-29T11:13:20Z</time></trkpt><trkpt lat="43.193019492537594" lon="12.25551288643245"><ele>475.6666666666667</ele><time>2026-03-29T11:13:21Z</time></trkpt><trkpt lat="43.19295393780048" lon="12.255470837666154"><ele>476.33333333333337</ele><time>2026-03-29T11:13:22Z</time></trkpt><trkpt lat="43.19286463408001" lon="12.255410489999612"><ele>477.0</ele><time>2026-03-29T11:13:24Z</time></trkpt><trkpt lat="43.19278778568846" lon="12.255432076998238"><ele>477.66666666666663</ele><time>2026-03-29T11:13:26Z</time></trkpt><trkpt lat="43.192715626807605" lon="12.25552240835351"><ele>478.3333333333333</ele><time>2026-03-29T11:13:28Z</time></trkpt><trkpt lat="43.19265272847261" lon="12.25558368153391"><ele>479.0</ele><time>2026-03-29T11:13:29Z</time></trkpt><trkpt lat="43.19258929697886" lon="12.255638892378778"><ele>479.0</ele><time>2026-03-29T11:13:30Z</time></trkpt><trkpt lat="43.19251314599717" lon="12.255673206581047"><ele>479.0</ele><time>2026-03-29T11:13:31Z</time></trkpt><trkpt lat="43.19240086682167" lon="12.255690108003865"><ele>479.0</ele><time>2026-03-29T11:13:32Z</time></trkpt><trkpt lat="43.19229488435911" lon="12.255720810253862"><ele>479.0</ele><time>2026-03-29T11:13:33Z</time></trkpt><trkpt lat="43.19222121162562" lon="12.255760253438856"><ele>479.0</ele><time>2026-03-29T11:13:34Z</time></trkpt><trkpt lat="43.19215658745703" lon="12.25580121295494"><ele>477.2</ele><time>2026-03-29T11:13:35Z</time></trkpt><trkpt lat="43.19209554111613" lon="12.255823234430329"><ele>475.4</ele><time>2026-03-29T11:13:36Z</time></trkpt><trkpt lat="43.19201474047442" lon="12.2558191767481"><ele>473.6</ele><time>2026-03-29T11:13:38Z</time></trkpt><trkpt lat="43.19198769129159" lon="12.25571502748893"><ele>471.8</ele><time>2026-03-29T11:13:40Z</time></trkpt><trkpt lat="43.19200144203694" lon="12.255557273520258"><ele>470.0</ele><time>2026-03-29T11:13:42Z</time></trkpt><trkpt lat="43.19202083143424" lon="12.25539653584155"><ele>467.0</ele><time>2026-03-29T11:13:44Z</time></trkpt><trkpt lat="43.192022619879324" lon="12.255233185523265"><ele>464.0</ele><time>2026-03-29T11:13:46Z</time></trkpt><trkpt lat="43.19200316566309" lon="12.25514435058046"><ele>461.0</ele><time>2026-03-29T11:13:47Z</time></trkpt><trkpt lat="43.191978451484964" lon="12.25506057682702"><ele>458.0</ele><time>2026-03-29T11:13:48Z</time></trkpt><trkpt lat="43.191919240465786" lon="12.25492084655689"><ele>455.0</ele><time>2026-03-29T11:13:50Z</time></trkpt><trkpt lat="43.191851634698104" lon="12.25480034852798"><ele>452.6</ele><time>2026-03-29T11:13:52Z</time></trkpt><trkpt lat="43.191772958107144" lon="12.254681948361238"><ele>450.2</ele><time>2026-03-29T11:13:54Z</time></trkpt><trkpt lat="43.19173434752828" lon="12.25458174199142"><ele>447.79999999999995</ele><time>2026-03-29T11:13:56Z</time></trkpt><trkpt lat="43.19174457544267" lon="12.254490042962042"><ele>445.4</ele><time>2026-03-29T11:13:58Z</time></trkpt><trkpt lat="43.1918028333293" lon="12.254421460065736"><ele>443.0</ele><time>2026-03-29T11:13:59.999Z</time></trkpt><trkpt lat="43.19192105232111" lon="12.254411160298368"><ele>443.0</ele><time>2026-03-29T11:14:01.999Z</time></trkpt><trkpt lat="43.19199157980065" lon="12.254433714098177"><ele>442.99999999999994</ele><time>2026-03-29T11:14:02.999Z</time></trkpt><trkpt lat="43.19208131797258" lon="12.254445535506076"><ele>442.99999999999994</ele><time>2026-03-29T11:14:03.999Z</time></trkpt><trkpt lat="43.192185493330776" lon="12.254420869237808"><ele>443.0</ele><time>2026-03-29T11:14:04.999Z</time></trkpt><trkpt lat="43.192281553061186" lon="12.254388408361386"><ele>443.0</ele><time>2026-03-29T11:14:05.999Z</time></trkpt><trkpt lat="43.1923713771024" lon="12.254361155340156"><ele>445.16666666666663</ele><time>2026-03-29T11:14:06.999Z</time></trkpt><trkpt lat="43.19244943098722" lon="12.254333581604483"><ele>447.3333333333333</ele><time>2026-03-29T11:14:07.999Z</time></trkpt><trkpt lat="43.19251849451101" lon="12.254328571904095"><ele>449.5</ele><time>2026-03-29T11:14:08.999Z</time></trkpt><trkpt lat="43.19260583074357" lon="12.254345845284643"><ele>451.66666666666663</ele><time>2026-03-29T11:14:09.999Z</time></trkpt><trkpt lat="43.1926793390179" lon="12.25438983939075"><ele>453.8333333333333</ele><time>2026-03-29T11:14:10.999Z</time></trkpt><trkpt lat="43.19274213785019" lon="12.254436067247653"><ele>456.0</ele><time>2026-03-29T11:14:11.999Z</time></trkpt><trkpt lat="43.19280765496186" lon="12.254446042865021"><ele>456.0</ele><time>2026-03-29T11:14:12.999Z</time></trkpt><trkpt lat="43.19287113070589" lon="12.254356982432512"><ele>456.0</ele><time>2026-03-29T11:14:14.999Z</time></trkpt><trkpt lat="43.192827007716836" lon="12.254240829021178"><ele>456.0</ele><time>2026-03-29T11:14:16.999Z</time></trkpt><trkpt lat="43.192710911016775" lon="12.254161189319037"><ele>456.0</ele><time>2026-03-29T11:14:18.999Z</time></trkpt><trkpt lat="43.19263602403469" lon="12.254127634313546"><ele>456.0</ele><time>2026-03-29T11:14:19.999Z</time></trkpt><trkpt lat="43.19257439460266" lon="12.254096382545383"><ele>456.0</ele><time>2026-03-29T11:14:20.999Z</time></trkpt><trkpt lat="43.192475305457535" lon="12.254039377218076"><ele>456.0</ele><time>2026-03-29T11:14:22.999Z</time></trkpt><trkpt lat="43.19235441902982" lon="12.254011269522353"><ele>456.0</ele><time>2026-03-29T11:14:24.999Z</time></trkpt><trkpt lat="43.192234646350926" lon="12.253977630563021"><ele>456.0</ele><time>2026-03-29T11:14:26.999Z</time></trkpt><trkpt lat="43.19210187752064" lon="12.253972890261227"><ele>453.4</ele><time>2026-03-29T11:14:28.999Z</time></trkpt><trkpt lat="43.19203143175272" lon="12.253969515689244"><ele>450.8</ele><time>2026-03-29T11:14:29.999Z</time></trkpt><trkpt lat="43.19196175001259" lon="12.253949633535385"><ele>448.19999999999993</ele><time>2026-03-29T11:14:30.999Z</time></trkpt><trkpt lat="43.1918609877522" lon="12.253915310507374"><ele>445.59999999999997</ele><time>2026-03-29T11:14:32.999Z</time></trkpt><trkpt lat="43.19176202573331" lon="12.253871391127925"><ele>443.0</ele><time>2026-03-29T11:14:34.999Z</time></trkpt><trkpt lat="43.19165804376001" lon="12.253797683346306"><ele>439.2</ele><time>2026-03-29T11:14:36.999Z</time></trkpt><trkpt lat="43.191573082354694" lon="12.253751339989064"><ele>435.4</ele><time>2026-03-29T11:14:38.999Z</time></trkpt><trkpt lat="43.191481994653266" lon="12.253721014141114"><ele>431.59999999999997</ele><time>2026-03-29T11:14:40.999Z</time></trkpt><trkpt lat="43.19139335980476" lon="12.253692961200878"><ele>427.79999999999995</ele><time>2026-03-29T11:14:42.999Z</time></trkpt><trkpt lat="43.191298810825586" lon="12.253664101490081"><ele>424.0</ele><time>2026-03-29T11:14:44.999Z</time></trkpt><trkpt lat="43.19122674703991" lon="12.25362807690465"><ele>421.50000000000006</ele><time>2026-03-29T11:14:46.999Z</time></trkpt><trkpt lat="43.191173737059216" lon="12.253554507749465"><ele>419.0</ele><time>2026-03-29T11:14:48.999Z</time></trkpt><trkpt lat="43.191068673351" lon="12.253550035336692"><ele>416.5</ele><time>2026-03-29T11:14:50.999Z</time></trkpt><trkpt lat="43.19102209139442" lon="12.25363481367221"><ele>414.0</ele><time>2026-03-29T11:14:52.999Z</time></trkpt><trkpt lat="43.19102729673528" lon="12.253723281417326"><ele>411.50000000000006</ele><time>2026-03-29T11:14:54.999Z</time></trkpt><trkpt lat="43.19097621989239" lon="12.253810355075023"><ele>409.0</ele><time>2026-03-29T11:14:56.999Z</time></trkpt><trkpt lat="43.190943458152624" lon="12.253908759366986"><ele>411.2</ele><time>2026-03-29T11:15:00Z</time></trkpt><trkpt lat="43.19093984196433" lon="12.254028502484866"><ele>413.4</ele><time>2026-03-29T11:15:02Z</time></trkpt><trkpt lat="43.19092622469665" lon="12.254140376272721"><ele>415.6</ele><time>2026-03-29T11:15:04Z</time></trkpt><trkpt lat="43.190886998927986" lon="12.254275271552812"><ele>417.8</ele><time>2026-03-29T11:15:06Z</time></trkpt><trkpt lat="43.19081228611123" lon="12.254375487927199"><ele>420.0</ele><time>2026-03-29T11:15:08Z</time></trkpt><trkpt lat="43.19075939183909" lon="12.254495538313725"><ele>420.0</ele><time>2026-03-29T11:15:10Z</time></trkpt><trkpt lat="43.19073481339193" lon="12.254577410606501"><ele>420.0</ele><time>2026-03-29T11:15:11Z</time></trkpt><trkpt lat="43.19071484954601" lon="12.254660130264863"><ele>420.0</ele><time>2026-03-29T11:15:12Z</time></trkpt><trkpt lat="43.19068415808429" lon="12.254740507758772"><ele>420.0</ele><time>2026-03-29T11:15:13Z</time></trkpt><trkpt lat="43.190568852983716" lon="12.254779362748351"><ele>420.0</ele><time>2026-03-29T11:15:15Z</time></trkpt><trkpt lat="43.190492971283156" lon="12.254747561535622"><ele>420.0</ele><time>2026-03-29T11:15:16Z</time></trkpt><trkpt lat="43.19043309389176" lon="12.254716091122997"><ele>419.6</ele><time>2026-03-29T11:15:17Z</time></trkpt><trkpt lat="43.19030798514922" lon="12.254716446957069"><ele>419.2</ele><time>2026-03-29T11:15:19Z</time></trkpt><trkpt lat="43.19022363675424" lon="12.254743054737027"><ele>418.79999999999995</ele><time>2026-03-29T11:15:20Z</time></trkpt><trkpt lat="43.190155993287966" lon="12.254766937636365"><ele>418.4</ele><time>2026-03-29T11:15:21Z</time></trkpt><trkpt lat="43.1900977616768" lon="12.254810612702324"><ele>418.0</ele><time>2026-03-29T11:15:22Z</time></trkpt><trkpt lat="43.19000363500013" lon="12.25490382977768"><ele>418.00000000000006</ele><time>2026-03-29T11:15:24Z</time></trkpt><trkpt lat="43.18996589767831" lon="12.254999536132262"><ele>418.0</ele><time>2026-03-29T11:15:25Z</time></trkpt><trkpt lat="43.18993000704041" lon="12.255087886349362"><ele>418.0</ele><time>2026-03-29T11:15:26Z</time></trkpt><trkpt lat="43.18989035671237" lon="12.255160327065726"><ele>418.0</ele><time>2026-03-29T11:15:28Z</time></trkpt><trkpt lat="43.18982553365763" lon="12.25509943883142"><ele>418.00000000000006</ele><time>2026-03-29T11:15:29Z</time></trkpt><trkpt lat="43.18975376655799" lon="12.255029608900632"><ele>418.0</ele><time>2026-03-29T11:15:30Z</time></trkpt><trkpt lat="43.18967181342463" lon="12.255005262697184"><ele>416.6666666666667</ele><time>2026-03-29T11:15:31Z</time></trkpt><trkpt lat="43.189606580922984" lon="12.255006781686298"><ele>415.33333333333337</ele><time>2026-03-29T11:15:32Z</time></trkpt><trkpt lat="43.189551718299924" lon="12.254956866939972"><ele>414.0</ele><time>2026-03-29T11:15:33Z</time></trkpt><trkpt lat="43.189441894723096" lon="12.254978716130807"><ele>412.66666666666663</ele><time>2026-03-29T11:15:35Z</time></trkpt><trkpt lat="43.18937279169452" lon="12.255014422771868"><ele>411.3333333333333</ele><time>2026-03-29T11:15:36Z</time></trkpt><trkpt lat="43.18930387072671" lon="12.255051230620273"><ele>410.0</ele><time>2026-03-29T11:15:37Z</time></trkpt><trkpt lat="43.18922379507475" lon="12.255058039426155"><ele>409.99999999999994</ele><time>2026-03-29T11:15:38Z</time></trkpt><trkpt lat="43.18915044852374" lon="12.255069026517738"><ele>410.0</ele><time>2026-03-29T11:15:39Z</time></trkpt><trkpt lat="43.18908630329231" lon="12.255064048460296"><ele>410.0</ele><time>2026-03-29T11:15:40Z</time></trkpt><trkpt lat="43.18899428589884" lon="12.25497219979399"><ele>410.0</ele><time>2026-03-29T11:15:42Z</time></trkpt><trkpt lat="43.18894697644138" lon="12.254911473122592"><ele>409.99999999999994</ele><time>2026-03-29T11:15:43Z</time></trkpt><trkpt lat="43.18883180872997" lon="12.254858111764147"><ele>410.0</ele><time>2026-03-29T11:15:45Z</time></trkpt><trkpt lat="43.18873269209437" lon="12.25481531771935"><ele>409.6</ele><time>2026-03-29T11:15:47Z</time></trkpt><trkpt lat="43.18863863705365" lon="12.254823932811679"><ele>409.2</ele><time>2026-03-29T11:15:49Z</time></trkpt><trkpt lat="43.18854114201429" lon="12.25485272325396"><ele>408.79999999999995</ele><time>2026-03-29T11:15:51Z</time></trkpt><trkpt lat="43.188440172735795" lon="12.254860838278779"><ele>408.4</ele><time>2026-03-29T11:15:53Z</time></trkpt><trkpt lat="43.18834546650843" lon="12.254823968352206"><ele>408.0</ele><time>2026-03-29T11:15:55Z</time></trkpt><trkpt lat="43.188228382931975" lon="12.254759338064892"><ele>405.0</ele><time>2026-03-29T11:15:57Z</time></trkpt><trkpt lat="43.18814723993372" lon="12.254685199933144"><ele>402.0</ele><time>2026-03-29T11:15:59Z</time></trkpt><trkpt lat="43.18809155390731" lon="12.254527814337445"><ele>399.0</ele><time>2026-03-29T11:16:01Z</time></trkpt><trkpt lat="43.18805528532377" lon="12.254446306200226"><ele>396.0</ele><time>2026-03-29T11:16:02Z</time></trkpt><trkpt lat="43.18799534428472" lon="12.254419197115451"><ele>393.0</ele><time>2026-03-29T11:16:03Z</time></trkpt><trkpt lat="43.187911762847556" lon="12.254412521979695"><ele>390.0</ele><time>2026-03-29T11:16:04Z</time></trkpt><trkpt lat="43.187824692952496" lon="12.254422498807871"><ele>390.0</ele><time>2026-03-29T11:16:05Z</time></trkpt><trkpt lat="43.18774266123249" lon="12.25442459094488"><ele>390.0</ele><time>2026-03-29T11:16:06Z</time></trkpt><trkpt lat="43.187673711238716" lon="12.254426781982799"><ele>390.0</ele><time>2026-03-29T11:16:07Z</time></trkpt><trkpt lat="43.18757193376091" lon="12.254436086251326"><ele>390.0</ele><time>2026-03-29T11:16:08.999Z</time></trkpt><trkpt lat="43.18746174593211" lon="12.254473446978567"><ele>390.0</ele><time>2026-03-29T11:16:10.999Z</time></trkpt><trkpt lat="43.187383552540254" lon="12.25447271592315"><ele>390.0</ele><time>2026-03-29T11:16:11.999Z</time></trkpt><trkpt lat="43.18731843467644" lon="12.254466162939194"><ele>388.5</ele><time>2026-03-29T11:16:12.999Z</time></trkpt><trkpt lat="43.18724791159553" lon="12.254463120627765"><ele>387.0</ele><time>2026-03-29T11:16:13.999Z</time></trkpt><trkpt lat="43.187126295149376" lon="12.254475663703081"><ele>385.5</ele><time>2026-03-29T11:16:15.999Z</time></trkpt><trkpt lat="43.18705328826969" lon="12.254482904436959"><ele>384.0</ele><time>2026-03-29T11:16:16.999Z</time></trkpt><trkpt lat="43.18698658337916" lon="12.254514463792374"><ele>382.5</ele><time>2026-03-29T11:16:17.999Z</time></trkpt><trkpt lat="43.18691947424763" lon="12.254579756535101"><ele>381.0</ele><time>2026-03-29T11:16:18.999Z</time></trkpt><trkpt lat="43.18685114611787" lon="12.25464987402669"><ele>381.0</ele><time>2026-03-29T11:16:19.999Z</time></trkpt><trkpt lat="43.18676386542492" lon="12.254716091815327"><ele>381.0</ele><time>2026-03-29T11:16:21.999Z</time></trkpt><trkpt lat="43.186648825226015" lon="12.254744139666034"><ele>381.0</ele><time>2026-03-29T11:16:23.999Z</time></trkpt><trkpt lat="43.18657173809023" lon="12.254750118082034"><ele>381.0</ele><time>2026-03-29T11:16:24.999Z</time></trkpt><trkpt lat="43.18648995844994" lon="12.254771632324069"><ele>381.0</ele><time>2026-03-29T11:16:25.999Z</time></trkpt><trkpt lat="43.18641458023792" lon="12.25478444646754"><ele>383.0</ele><time>2026-03-29T11:16:26.999Z</time></trkpt><trkpt lat="43.18635033378583" lon="12.254813565172334"><ele>385.0</ele><time>2026-03-29T11:16:27.999Z</time></trkpt><trkpt lat="43.18623381043896" lon="12.254830364721892"><ele>387.0</ele><time>2026-03-29T11:16:29.999Z</time></trkpt><trkpt lat="43.18616080558321" lon="12.254806293765872"><ele>389.0</ele><time>2026-03-29T11:16:30.999Z</time></trkpt><trkpt lat="43.18608359570338" lon="12.254786039000804"><ele>391.0</ele><time>2026-03-29T11:16:31.999Z</time></trkpt><trkpt lat="43.18601485394892" lon="12.254799091776126"><ele>393.0</ele><time>2026-03-29T11:16:32.999Z</time></trkpt><trkpt lat="43.18591061994736" lon="12.254819457951275"><ele>393.0</ele><time>2026-03-29T11:16:34.999Z</time></trkpt><trkpt lat="43.185825855679894" lon="12.254839650090332"><ele>393.0</ele><time>2026-03-29T11:16:36.999Z</time></trkpt><trkpt lat="43.185768141108355" lon="12.254881689014088"><ele>393.0</ele><time>2026-03-29T11:16:38.999Z</time></trkpt><trkpt lat="43.185687642763654" lon="12.25490733206878"><ele>393.0</ele><time>2026-03-29T11:16:40.999Z</time></trkpt><trkpt lat="43.185609341634496" lon="12.254938669131606"><ele>393.0</ele><time>2026-03-29T11:16:42.999Z</time></trkpt><trkpt lat="43.18552383298345" lon="12.255010751092584"><ele>393.0</ele><time>2026-03-29T11:16:44.999Z</time></trkpt><trkpt lat="43.18543885778553" lon="12.255075294817562"><ele>390.4</ele><time>2026-03-29T11:16:46.999Z</time></trkpt><trkpt lat="43.185329790858404" lon="12.255030050490074"><ele>387.79999999999995</ele><time>2026-03-29T11:16:48.999Z</time></trkpt><trkpt lat="43.18521073363691" lon="12.254998858548136"><ele>385.2</ele><time>2026-03-29T11:16:50.999Z</time></trkpt><trkpt lat="43.185140464589345" lon="12.254997820973884"><ele>382.6</ele><time>2026-03-29T11:16:51.999Z</time></trkpt><trkpt lat="43.18502621228646" lon="12.254957700319041"><ele>380.0</ele><time>2026-03-29T11:16:53.999Z</time></trkpt><trkpt lat="43.18491368429103" lon="12.254909099256473"><ele>376.6</ele><time>2026-03-29T11:16:55.999Z</time></trkpt><trkpt lat="43.18480075366863" lon="12.254899274351546"><ele>373.2</ele><time>2026-03-29T11:16:57.999Z</time></trkpt><trkpt lat="43.18470439000548" lon="12.254908322695064"><ele>369.79999999999995</ele><time>2026-03-29T11:16:59.999Z</time></trkpt><trkpt lat="43.184609885282704" lon="12.2549685633567"><ele>366.4</ele><time>2026-03-29T11:17:01.999Z</time></trkpt><trkpt lat="43.18452380301776" lon="12.25510967475985"><ele>363.0</ele><time>2026-03-29T11:17:03.999Z</time></trkpt><trkpt lat="43.18446327934119" lon="12.255209341951934"><ele>363.0</ele><time>2026-03-29T11:17:04.999Z</time></trkpt><trkpt lat="43.184389140190056" lon="12.255273302890483"><ele>363.0</ele><time>2026-03-29T11:17:06Z</time></trkpt><trkpt lat="43.18430486979429" lon="12.25529864094828"><ele>363.0</ele><time>2026-03-29T11:17:07Z</time></trkpt><trkpt lat="43.18421334066322" lon="12.255354077130203"><ele>363.0</ele><time>2026-03-29T11:17:08Z</time></trkpt><trkpt lat="43.18413970791423" lon="12.255422278868686"><ele>363.0</ele><time>2026-03-29T11:17:09Z</time></trkpt><trkpt lat="43.18407646489989" lon="12.25548860592263"><ele>363.0</ele><time>2026-03-29T11:17:10Z</time></trkpt><trkpt lat="43.18400734557101" lon="12.255566084178913"><ele>360.2</ele><time>2026-03-29T11:17:11Z</time></trkpt><trkpt lat="43.183947764302864" lon="12.255632353918772"><ele>357.4</ele><time>2026-03-29T11:17:12Z</time></trkpt><trkpt lat="43.18388250407262" lon="12.255758467281016"><ele>354.59999999999997</ele><time>2026-03-29T11:17:14Z</time></trkpt><trkpt lat="43.183899884801825" lon="12.25596976906373"><ele>351.79999999999995</ele><time>2026-03-29T11:17:16Z</time></trkpt><trkpt lat="43.18390424620468" lon="12.256064331192603"><ele>349.0</ele><time>2026-03-29T11:17:17Z</time></trkpt><trkpt lat="43.183923563418546" lon="12.25620550920136"><ele>349.0</ele><time>2026-03-29T11:17:19Z</time></trkpt><trkpt lat="43.18386438958572" lon="12.256256067712673"><ele>349.0</ele><time>2026-03-29T11:17:22Z</time></trkpt><trkpt lat="43.18383824082868" lon="12.256111096408478"><ele>349.0</ele><time>2026-03-29T11:17:24Z</time></trkpt><trkpt lat="43.18378410489646" lon="12.256002355875824"><ele>349.0</ele><time>2026-03-29T11:17:26Z</time></trkpt><trkpt lat="43.18372380138407" lon="12.255929482445469"><ele>349.0</ele><time>2026-03-29T11:17:28Z</time></trkpt><trkpt lat="43.18365796587229" lon="12.255866828572035"><ele>349.0</ele><time>2026-03-29T11:17:30Z</time></trkpt><trkpt lat="43.18357695572882" lon="12.255772922219121"><ele>349.0</ele><time>2026-03-29T11:17:32Z</time></trkpt><trkpt lat="43.18350369728982" lon="12.255671997463375"><ele>349.0</ele><time>2026-03-29T11:17:34Z</time></trkpt><trkpt lat="43.183457331329464" lon="12.255597894096681"><ele>349.0</ele><time>2026-03-29T11:17:36Z</time></trkpt><trkpt lat="43.18340335880526" lon="12.255478617399108"><ele>349.0</ele><time>2026-03-29T11:17:38Z</time></trkpt><trkpt lat="43.18335712982475" lon="12.255401099169749"><ele>349.0</ele><time>2026-03-29T11:17:40Z</time></trkpt><trkpt lat="43.18330925475318" lon="12.255313204200764"><ele>349.0</ele><time>2026-03-29T11:17:42Z</time></trkpt><trkpt lat="43.183227141857856" lon="12.255263198183885"><ele>345.0</ele><time>2026-03-29T11:17:44Z</time></trkpt><trkpt lat="43.18315141709463" lon="12.255243729687821"><ele>341.0</ele><time>2026-03-29T11:17:46Z</time></trkpt><trkpt lat="43.183091075219295" lon="12.255211095208276"><ele>337.0</ele><time>2026-03-29T11:17:48Z</time></trkpt><trkpt lat="43.18305311453548" lon="12.255111058552044"><ele>333.0</ele><time>2026-03-29T11:17:52Z</time></trkpt><trkpt lat="43.18303967713952" lon="12.254959013288927"><ele>329.0</ele><time>2026-03-29T11:17:54Z</time></trkpt><trkpt lat="43.183005275089094" lon="12.254825681428189"><ele>325.0</ele><time>2026-03-29T11:17:56Z</time></trkpt><trkpt lat="43.18294569784518" lon="12.254795090653685"><ele>325.0</ele><time>2026-03-29T11:17:58Z</time></trkpt><trkpt lat="43.182861039779745" lon="12.254900027821945"><ele>325.0</ele><time>2026-03-29T11:18:00Z</time></trkpt><trkpt lat="43.18282615552841" lon="12.255044802457656"><ele>325.0</ele><time>2026-03-29T11:18:02Z</time></trkpt><trkpt lat="43.18283835408606" lon="12.255162265569039"><ele>325.0</ele><time>2026-03-29T11:18:03Z</time></trkpt><trkpt lat="43.18285545528128" lon="12.255252036277577"><ele>325.0</ele><time>2026-03-29T11:18:04Z</time></trkpt><trkpt lat="43.18288004087366" lon="12.255406861211734"><ele>325.0</ele><time>2026-03-29T11:18:06Z</time></trkpt><trkpt lat="43.1829138816366" lon="12.255500505617407"><ele>325.0</ele><time>2026-03-29T11:18:08Z</time></trkpt><trkpt lat="43.18286678020813" lon="12.255569118112376"><ele>325.0</ele><time>2026-03-29T11:18:23.999Z</time></trkpt><trkpt lat="43.1827869136472" lon="12.255616973776162"><ele>325.0</ele><time>2026-03-29T11:18:25.999Z</time></trkpt><trkpt lat="43.18270100015343" lon="12.255546012414172"><ele>325.0</ele><time>2026-03-29T11:18:28.999Z</time></trkpt><trkpt lat="43.18260898762828" lon="12.25545622005765"><ele>325.0</ele><time>2026-03-29T11:18:30.999Z</time></trkpt><trkpt lat="43.18250100681887" lon="12.25532055609067"><ele>325.0</ele><time>2026-03-29T11:18:32.999Z</time></trkpt><trkpt lat="43.18245378049922" lon="12.255217272089297"><ele>325.0</ele><time>2026-03-29T11:18:33.999Z</time></trkpt><trkpt lat="43.18239739800191" lon="12.255108568022173"><ele>325.0</ele><time>2026-03-29T11:18:34.999Z</time></trkpt><trkpt lat="43.182320962373396" lon="12.255004595476318"><ele>325.0</ele><time>2026-03-29T11:18:35.999Z</time></trkpt><trkpt lat="43.18224426156893" lon="12.254913573505371"><ele>325.0</ele><time>2026-03-29T11:18:36.999Z</time></trkpt><trkpt lat="43.1821739273731" lon="12.254821741004417"><ele>321.6</ele><time>2026-03-29T11:18:37.999Z</time></trkpt><trkpt lat="43.18210356235006" lon="12.254726855642435"><ele>318.2</ele><time>2026-03-29T11:18:38.999Z</time></trkpt><trkpt lat="43.182038820238866" lon="12.25462512781099"><ele>314.8</ele><time>2026-03-29T11:18:39.999Z</time></trkpt><trkpt lat="43.18198755565529" lon="12.254518140852088"><ele>311.4</ele><time>2026-03-29T11:18:40.999Z</time></trkpt><trkpt lat="43.18194056159459" lon="12.254410160215125"><ele>308.0</ele><time>2026-03-29T11:18:41.999Z</time></trkpt><trkpt lat="43.18189663335671" lon="12.254309730638758"><ele>308.0</ele><time>2026-03-29T11:18:42.999Z</time></trkpt><trkpt lat="43.18184014559193" lon="12.254235491448533"><ele>308.0</ele><time>2026-03-29T11:18:43.999Z</time></trkpt><trkpt lat="43.1817741686297" lon="12.254194635826433"><ele>308.0</ele><time>2026-03-29T11:18:44.999Z</time></trkpt><trkpt lat="43.181677759187934" lon="12.254163287459313"><ele>308.0</ele><time>2026-03-29T11:18:45.999Z</time></trkpt><trkpt lat="43.181544456103715" lon="12.254142104966222"><ele>308.0</ele><time>2026-03-29T11:18:46.999Z</time></trkpt><trkpt lat="43.181414598615824" lon="12.254120856848349"><ele>308.0</ele><time>2026-03-29T11:18:47.999Z</time></trkpt><trkpt lat="43.18131944178251" lon="12.25408960305945"><ele>308.0</ele><time>2026-03-29T11:18:48.999Z</time></trkpt><trkpt lat="43.18124704227753" lon="12.254037395146756"><ele>308.0</ele><time>2026-03-29T11:18:49.999Z</time></trkpt><trkpt lat="43.18119709109535" lon="12.253956287526774"><ele>308.0</ele><time>2026-03-29T11:18:50.999Z</time></trkpt><trkpt lat="43.181173446812394" lon="12.253847229608034"><ele>308.0</ele><time>2026-03-29T11:18:51.999Z</time></trkpt><trkpt lat="43.181169518211014" lon="12.253745043033854"><ele>308.0</ele><time>2026-03-29T11:18:52.999Z</time></trkpt><trkpt lat="43.18110181151352" lon="12.253641156266758"><ele>308.0</ele><time>2026-03-29T11:18:54.999Z</time></trkpt><trkpt lat="43.1810189932472" lon="12.253642772695919"><ele>308.0</ele><time>2026-03-29T11:18:55.999Z</time></trkpt><trkpt lat="43.180901413506696" lon="12.25365445643833"><ele>308.0</ele><time>2026-03-29T11:18:56.999Z</time></trkpt><trkpt lat="43.18077980260238" lon="12.253629230398147"><ele>308.0</ele><time>2026-03-29T11:18:57.999Z</time></trkpt><trkpt lat="43.18067237904354" lon="12.253581242745435"><ele>308.0</ele><time>2026-03-29T11:18:58.999Z</time></trkpt><trkpt lat="43.180568308767825" lon="12.253522645194169"><ele>309.6</ele><time>2026-03-29T11:18:59.999Z</time></trkpt><trkpt lat="43.180458088045526" lon="12.253467725663286"><ele>311.20000000000005</ele><time>2026-03-29T11:19:00.999Z</time></trkpt><trkpt lat="43.180360392078796" lon="12.253416936656453"><ele>312.8</ele><time>2026-03-29T11:19:01.999Z</time></trkpt><trkpt lat="43.1802771015554" lon="12.25335591902089"><ele>314.40000000000003</ele><time>2026-03-29T11:19:02.999Z</time></trkpt><trkpt lat="43.18020379370824" lon="12.253280017945132"><ele>316.0</ele><time>2026-03-29T11:19:03.999Z</time></trkpt><trkpt lat="43.180141973458014" lon="12.253198498599586"><ele>314.7142857142857</ele><time>2026-03-29T11:19:04.999Z</time></trkpt><trkpt lat="43.18009335608821" lon="12.253114481990655"><ele>313.42857142857144</ele><time>2026-03-29T11:19:05.999Z</time></trkpt><trkpt lat="43.180060660171726" lon="12.253040632042957"><ele>312.1428571428571</ele><time>2026-03-29T11:19:06.999Z</time></trkpt><trkpt lat="43.180037259834904" lon="12.25295780322491"><ele>310.8571428571429</ele><time>2026-03-29T11:19:09.999Z</time></trkpt><trkpt lat="43.18001124140385" lon="12.252876236836553"><ele>309.57142857142856</ele><time>2026-03-29T11:19:27Z</time></trkpt><trkpt lat="43.17993513630152" lon="12.252888420755589"><ele>308.2857142857143</ele><time>2026-03-29T11:20:40.999Z</time></trkpt><trkpt lat="43.179862959136564" lon="12.252968205159863"><ele>307.0</ele><time>2026-03-29T11:20:44.999Z</time></trkpt><trkpt lat="43.17979431734413" lon="12.253017380559337"><ele>313.5</ele><time>2026-03-29T11:20:47.999Z</time></trkpt><trkpt lat="43.179705425985084" lon="12.25305599805094"><ele>320.0</ele><time>2026-03-29T11:20:49.999Z</time></trkpt><trkpt lat="43.17961020535265" lon="12.253180680155602"><ele>326.5</ele><time>2026-03-29T11:20:51.999Z</time></trkpt><trkpt lat="43.17955423657005" lon="12.253295927642444"><ele>333.0</ele><time>2026-03-29T11:20:53.999Z</time></trkpt><trkpt lat="43.17943868385983" lon="12.25341940746778"><ele>334.14285714285717</ele><time>2026-03-29T11:20:56.999Z</time></trkpt><trkpt lat="43.17940289199657" lon="12.253490489794105"><ele>335.2857142857143</ele><time>2026-03-29T11:20:57.999Z</time></trkpt><trkpt lat="43.17935979109661" lon="12.253555983142036"><ele>336.42857142857144</ele><time>2026-03-29T11:20:58.999Z</time></trkpt><trkpt lat="43.17930225764262" lon="12.25366884950439"><ele>337.57142857142856</ele><time>2026-03-29T11:21:00.999Z</time></trkpt><trkpt lat="43.17925381396875" lon="12.253732500778723"><ele>338.7142857142857</ele><time>2026-03-29T11:21:03.999Z</time></trkpt><trkpt lat="43.1792244601085" lon="12.253831234239051"><ele>339.85714285714283</ele><time>2026-03-29T11:21:06.999Z</time></trkpt><trkpt lat="43.17917513334021" lon="12.253892099117014"><ele>341.0</ele><time>2026-03-29T11:21:12.999Z</time></trkpt><trkpt lat="43.17913419161465" lon="12.25398375148101"><ele>342.57142857142856</ele><time>2026-03-29T11:21:15.999Z</time></trkpt><trkpt lat="43.179152925688854" lon="12.254070072319257"><ele>344.14285714285717</ele><time>2026-03-29T11:21:16.999Z</time></trkpt><trkpt lat="43.17913415515833" lon="12.254156152998691"><ele>345.7142857142857</ele><time>2026-03-29T11:21:19Z</time></trkpt><trkpt lat="43.179111110609234" lon="12.254255541096597"><ele>347.2857142857143</ele><time>2026-03-29T11:21:22Z</time></trkpt><trkpt lat="43.179053334190314" lon="12.254301488546217"><ele>348.85714285714283</ele><time>2026-03-29T11:21:43Z</time></trkpt><trkpt lat="43.17899978649183" lon="12.25441005366446"><ele>350.42857142857144</ele><time>2026-03-29T11:21:45Z</time></trkpt><trkpt lat="43.178958330969465" lon="12.254493489009308"><ele>352.0</ele><time>2026-03-29T11:21:47Z</time></trkpt><trkpt lat="43.17892934174" lon="12.254599341271119"><ele>355.6</ele><time>2026-03-29T11:21:49Z</time></trkpt><trkpt lat="43.17892379758099" lon="12.254462093779091"><ele>359.20000000000005</ele><time>2026-03-29T11:22:14Z</time></trkpt><trkpt lat="43.17891674606908" lon="12.254304499111246"><ele>362.8</ele><time>2026-03-29T11:22:16Z</time></trkpt><trkpt lat="43.1788770444703" lon="12.25418402635429"><ele>366.4</ele><time>2026-03-29T11:22:18Z</time></trkpt><trkpt lat="43.17879506231659" lon="12.254107379495407"><ele>370.0</ele><time>2026-03-29T11:22:20Z</time></trkpt><trkpt lat="43.17870280342297" lon="12.254055857476393"><ele>370.0</ele><time>2026-03-29T11:22:21.999Z</time></trkpt><trkpt lat="43.17863966185675" lon="12.254078065040595"><ele>370.0</ele><time>2026-03-29T11:22:23.999Z</time></trkpt><trkpt lat="43.178575606166234" lon="12.254100863235983"><ele>370.0</ele><time>2026-03-29T11:22:24.999Z</time></trkpt><trkpt lat="43.17850931273368" lon="12.254117076012871"><ele>370.0</ele><time>2026-03-29T11:22:25.999Z</time></trkpt><trkpt lat="43.17843142284407" lon="12.254056505956305"><ele>370.0</ele><time>2026-03-29T11:22:27.999Z</time></trkpt><trkpt lat="43.17841092256261" lon="12.253874720873979"><ele>370.0</ele><time>2026-03-29T11:22:29.999Z</time></trkpt><trkpt lat="43.178408141835035" lon="12.25378793582512"><ele>369.0</ele><time>2026-03-29T11:22:30.999Z</time></trkpt><trkpt lat="43.17839832657596" lon="12.253682844810402"><ele>368.0</ele><time>2026-03-29T11:22:32.999Z</time></trkpt><trkpt lat="43.17840985219114" lon="12.253564661817844"><ele>367.0</ele><time>2026-03-29T11:22:34.999Z</time></trkpt><trkpt lat="43.17839975202574" lon="12.253409015465957"><ele>366.0</ele><time>2026-03-29T11:22:36.999Z</time></trkpt><trkpt lat="43.17842682390131" lon="12.253324926312645"><ele>365.0</ele><time>2026-03-29T11:22:38.999Z</time></trkpt><trkpt lat="43.17842535926119" lon="12.253232279272847"><ele>364.0</ele><time>2026-03-29T11:22:40.999Z</time></trkpt><trkpt lat="43.178450378785506" lon="12.253117062570146"><ele>363.0</ele><time>2026-03-29T11:22:41.999Z</time></trkpt><trkpt lat="43.178471421330045" lon="12.253001699468117"><ele>362.0</ele><time>2026-03-29T11:22:42.999Z</time></trkpt><trkpt lat="43.17847912244124" lon="12.252912970226317"><ele>361.0</ele><time>2026-03-29T11:22:43.999Z</time></trkpt><trkpt lat="43.17849068553116" lon="12.252822752923125"><ele>360.0</ele><time>2026-03-29T11:22:44.999Z</time></trkpt><trkpt lat="43.17849857911902" lon="12.252731842828192"><ele>359.0</ele><time>2026-03-29T11:22:45.999Z</time></trkpt><trkpt lat="43.178485787824556" lon="12.25261270857407"><ele>358.0</ele><time>2026-03-29T11:22:47.999Z</time></trkpt><trkpt lat="43.17844208817994" lon="12.252475076824165"><ele>358.0</ele><time>2026-03-29T11:22:49.999Z</time></trkpt><trkpt lat="43.17839238239069" lon="12.252363145528122"><ele>358.0</ele><time>2026-03-29T11:22:51.999Z</time></trkpt><trkpt lat="43.17834294590093" lon="12.252241032012664"><ele>358.0</ele><time>2026-03-29T11:22:53.999Z</time></trkpt><trkpt lat="43.17828909137594" lon="12.252115928470722"><ele>358.0</ele><time>2026-03-29T11:22:55.999Z</time></trkpt><trkpt lat="43.178271531944546" lon="12.251995306726874"><ele>358.0</ele><time>2026-03-29T11:22:57.999Z</time></trkpt><trkpt lat="43.17825959839802" lon="12.251902711409942"><ele>353.4</ele><time>2026-03-29T11:22:59.999Z</time></trkpt><trkpt lat="43.178180704352386" lon="12.251876725731252"><ele>348.79999999999995</ele><time>2026-03-29T11:23:02.999Z</time></trkpt><trkpt lat="43.17810018289014" lon="12.251911995137323"><ele>344.2</ele><time>2026-03-29T11:23:04.999Z</time></trkpt><trkpt lat="43.178047474467476" lon="12.252038759698992"><ele>339.6</ele><time>2026-03-29T11:23:06.999Z</time></trkpt><trkpt lat="43.17798637140633" lon="12.252169816222814"><ele>335.0</ele><time>2026-03-29T11:23:08.999Z</time></trkpt><trkpt lat="43.177942275663554" lon="12.252263030056888"><ele>337.6</ele><time>2026-03-29T11:23:10.999Z</time></trkpt><trkpt lat="43.17790320837477" lon="12.252372709774662"><ele>340.2</ele><time>2026-03-29T11:23:12.999Z</time></trkpt><trkpt lat="43.17787426200501" lon="12.25245900541405"><ele>342.79999999999995</ele><time>2026-03-29T11:23:15.999Z</time></trkpt><trkpt lat="43.17784480951964" lon="12.25260499393573"><ele>345.4</ele><time>2026-03-29T11:23:17.999Z</time></trkpt><trkpt lat="43.177794931765405" lon="12.252726771726776"><ele>348.0</ele><time>2026-03-29T11:23:19.999Z</time></trkpt><trkpt lat="43.17775675819026" lon="12.252869191089172"><ele>348.0</ele><time>2026-03-29T11:23:21.999Z</time></trkpt><trkpt lat="43.17774224013569" lon="12.253016546132713"><ele>348.0</ele><time>2026-03-29T11:23:24Z</time></trkpt><trkpt lat="43.177716137011494" lon="12.253167049989393"><ele>348.0</ele><time>2026-03-29T11:23:26Z</time></trkpt><trkpt lat="43.1777296757666" lon="12.253269125726906"><ele>348.0</ele><time>2026-03-29T11:23:28Z</time></trkpt><trkpt lat="43.17772995132914" lon="12.253381382095025"><ele>348.0</ele><time>2026-03-29T11:23:31Z</time></trkpt><trkpt lat="43.17771031940605" lon="12.253613012198677"><ele>350.4</ele><time>2026-03-29T11:23:33Z</time></trkpt><trkpt lat="43.17772395981524" lon="12.253733510303604"><ele>352.79999999999995</ele><time>2026-03-29T11:23:35Z</time></trkpt><trkpt lat="43.177762551412556" lon="12.25385303229694"><ele>355.2</ele><time>2026-03-29T11:23:37Z</time></trkpt><trkpt lat="43.177795798904874" lon="12.253978191582531"><ele>357.6</ele><time>2026-03-29T11:23:39Z</time></trkpt><trkpt lat="43.17777971018901" lon="12.254096675417706"><ele>360.0</ele><time>2026-03-29T11:23:41Z</time></trkpt><trkpt lat="43.17774511164852" lon="12.25421553808176"><ele>362.8</ele><time>2026-03-29T11:23:45Z</time></trkpt><trkpt lat="43.17773614714149" lon="12.254352914715582"><ele>365.6</ele><time>2026-03-29T11:23:47Z</time></trkpt><trkpt lat="43.17779022628945" lon="12.254433317133355"><ele>368.4</ele><time>2026-03-29T11:23:49Z</time></trkpt><trkpt lat="43.177862254550114" lon="12.254585041875321"><ele>371.2</ele><time>2026-03-29T11:23:51Z</time></trkpt><trkpt lat="43.17791395704802" lon="12.254722074887924"><ele>374.0</ele><time>2026-03-29T11:23:53Z</time></trkpt><trkpt lat="43.17797760232946" lon="12.254838572210167"><ele>375.0</ele><time>2026-03-29T11:23:55Z</time></trkpt><trkpt lat="43.178049872017006" lon="12.254959157729688"><ele>376.0</ele><time>2026-03-29T11:23:57Z</time></trkpt><trkpt lat="43.17812441710239" lon="12.255090257589405"><ele>377.0</ele><time>2026-03-29T11:23:59Z</time></trkpt><trkpt lat="43.178161366461794" lon="12.255161193096766"><ele>378.0</ele><time>2026-03-29T11:24:00Z</time></trkpt><trkpt lat="43.17818967860574" lon="12.255240911840785"><ele>379.0</ele><time>2026-03-29T11:24:01Z</time></trkpt><trkpt lat="43.178204516064156" lon="12.25539262005602"><ele>379.0</ele><time>2026-03-29T11:24:03Z</time></trkpt><trkpt lat="43.178194695400165" lon="12.255483285427825"><ele>379.0</ele><time>2026-03-29T11:24:04Z</time></trkpt><trkpt lat="43.178169958342785" lon="12.255603071085828"><ele>379.0</ele><time>2026-03-29T11:24:05Z</time></trkpt><trkpt lat="43.178149589930385" lon="12.255705735809965"><ele>379.0</ele><time>2026-03-29T11:24:06Z</time></trkpt><trkpt lat="43.17813738498075" lon="12.255804649753722"><ele>379.0</ele><time>2026-03-29T11:24:07Z</time></trkpt><trkpt lat="43.178134510749246" lon="12.255900350952915"><ele>379.0</ele><time>2026-03-29T11:24:08Z</time></trkpt><trkpt lat="43.17814102311141" lon="12.256000288462278"><ele>381.0</ele><time>2026-03-29T11:24:09Z</time></trkpt><trkpt lat="43.17812363992988" lon="12.256103621125604"><ele>383.0</ele><time>2026-03-29T11:24:10Z</time></trkpt><trkpt lat="43.17809560406336" lon="12.256181828253913"><ele>385.0</ele><time>2026-03-29T11:24:11Z</time></trkpt><trkpt lat="43.17803662994461" lon="12.256326658478441"><ele>387.0</ele><time>2026-03-29T11:24:13Z</time></trkpt><trkpt lat="43.17808603100231" lon="12.25644052338684"><ele>389.0</ele><time>2026-03-29T11:24:15Z</time></trkpt><trkpt lat="43.17819840226517" lon="12.256447734085938"><ele>389.0</ele><time>2026-03-29T11:24:17Z</time></trkpt><trkpt lat="43.17827767141022" lon="12.256412735555182"><ele>389.0</ele><time>2026-03-29T11:24:19Z</time></trkpt><trkpt lat="43.17842348578742" lon="12.256397871412599"><ele>389.0</ele><time>2026-03-29T11:24:20.999Z</time></trkpt><trkpt lat="43.17848554560555" lon="12.256369275382202"><ele>389.0</ele><time>2026-03-29T11:24:21.999Z</time></trkpt><trkpt lat="43.178611731125635" lon="12.256380773968484"><ele>389.0</ele><time>2026-03-29T11:24:23.999Z</time></trkpt><trkpt lat="43.17867964690556" lon="12.256365263393759"><ele>389.0</ele><time>2026-03-29T11:24:24.999Z</time></trkpt><trkpt lat="43.178741456918296" lon="12.256348334086974"><ele>389.0</ele><time>2026-03-29T11:24:25.999Z</time></trkpt><trkpt lat="43.17888535843816" lon="12.256354844682644"><ele>389.0</ele><time>2026-03-29T11:24:28.999Z</time></trkpt><trkpt lat="43.178885645633066" lon="12.25644433021645"><ele>389.0</ele><time>2026-03-29T11:24:32.999Z</time></trkpt><trkpt lat="43.17874006893026" lon="12.256571932879188"><ele>389.0</ele><time>2026-03-29T11:24:35.999Z</time></trkpt><trkpt lat="43.17870720724804" lon="12.256652135652896"><ele>391.16666666666663</ele><time>2026-03-29T11:24:36.999Z</time></trkpt><trkpt lat="43.17866647997759" lon="12.256745305896837"><ele>393.3333333333333</ele><time>2026-03-29T11:24:37.999Z</time></trkpt><trkpt lat="43.17862671332525" lon="12.256825876589472"><ele>395.5</ele><time>2026-03-29T11:24:38.999Z</time></trkpt><trkpt lat="43.17861224460295" lon="12.256919093385534"><ele>397.66666666666663</ele><time>2026-03-29T11:24:39.999Z</time></trkpt><trkpt lat="43.1785664827375" lon="12.25707198515459"><ele>399.8333333333333</ele><time>2026-03-29T11:24:41.999Z</time></trkpt><trkpt lat="43.178524185689476" lon="12.257142579142693"><ele>402.0</ele><time>2026-03-29T11:24:42.999Z</time></trkpt><trkpt lat="43.178466126568594" lon="12.25720128443512"><ele>403.8</ele><time>2026-03-29T11:24:43.999Z</time></trkpt><trkpt lat="43.17836522535268" lon="12.257299921978472"><ele>405.6</ele><time>2026-03-29T11:24:45.999Z</time></trkpt><trkpt lat="43.17830484707867" lon="12.257367701603462"><ele>407.40000000000003</ele><time>2026-03-29T11:24:46.999Z</time></trkpt><trkpt lat="43.17824565065066" lon="12.257435006904768"><ele>409.20000000000005</ele><time>2026-03-29T11:24:47.999Z</time></trkpt><trkpt lat="43.17813572452451" lon="12.257506054394348"><ele>411.0</ele><time>2026-03-29T11:24:49.999Z</time></trkpt><trkpt lat="43.178035511239585" lon="12.257505667773891"><ele>413.7142857142857</ele><time>2026-03-29T11:24:51.999Z</time></trkpt><trkpt lat="43.17803592365456" lon="12.257592038922825"><ele>416.42857142857144</ele><time>2026-03-29T11:24:57.999Z</time></trkpt><trkpt lat="43.17806452269286" lon="12.257688304854799"><ele>419.1428571428571</ele><time>2026-03-29T11:24:58.999Z</time></trkpt><trkpt lat="43.17808134913536" lon="12.257780052021136"><ele>421.8571428571429</ele><time>2026-03-29T11:24:59.999Z</time></trkpt><trkpt lat="43.17810763268221" lon="12.257859392677766"><ele>424.5714285714286</ele><time>2026-03-29T11:25:00.999Z</time></trkpt><trkpt lat="43.17811895909289" lon="12.257997819148777"><ele>427.2857142857143</ele><time>2026-03-29T11:25:02.999Z</time></trkpt><trkpt lat="43.178105278234625" lon="12.258083207457924"><ele>430.0</ele><time>2026-03-29T11:25:03.999Z</time></trkpt><trkpt lat="43.17805468709611" lon="12.258222826912089"><ele>431.2</ele><time>2026-03-29T11:25:05.999Z</time></trkpt><trkpt lat="43.17805476686898" lon="12.258326634144574"><ele>432.4</ele><time>2026-03-29T11:25:06.999Z</time></trkpt><trkpt lat="43.17806347280113" lon="12.25848204689984"><ele>433.6</ele><time>2026-03-29T11:25:08.999Z</time></trkpt><trkpt lat="43.17809408528879" lon="12.258575902930156"><ele>434.8</ele><time>2026-03-29T11:25:10.999Z</time></trkpt><trkpt lat="43.17807353972762" lon="12.258688935746875"><ele>436.0</ele><time>2026-03-29T11:25:13.999Z</time></trkpt><trkpt lat="43.17804665192684" lon="12.25883903225277"><ele>436.0</ele><time>2026-03-29T11:25:15.999Z</time></trkpt><trkpt lat="43.1780672145908" lon="12.258948909804214"><ele>436.0</ele><time>2026-03-29T11:25:17.999Z</time></trkpt><trkpt lat="43.17799884439001" lon="12.259181916049927"><ele>436.0</ele><time>2026-03-29T11:25:20.999Z</time></trkpt><trkpt lat="43.17798535651905" lon="12.259301719545094"><ele>436.0</ele><time>2026-03-29T11:25:22.999Z</time></trkpt><trkpt lat="43.1780878148612" lon="12.259355795449203"><ele>435.00000000000006</ele><time>2026-03-29T11:25:24.998Z</time></trkpt><trkpt lat="43.178150772796855" lon="12.259470025411709"><ele>434.0</ele><time>2026-03-29T11:25:26.998Z</time></trkpt><trkpt lat="43.17814482970848" lon="12.259584072803907"><ele>433.0</ele><time>2026-03-29T11:25:28.998Z</time></trkpt><trkpt lat="43.17818534213314" lon="12.259711868273106"><ele>432.0</ele><time>2026-03-29T11:25:31Z</time></trkpt><trkpt lat="43.17824200952459" lon="12.259764555366536"><ele>431.00000000000006</ele><time>2026-03-29T11:25:32Z</time></trkpt><trkpt lat="43.17832302414894" lon="12.259800603641901"><ele>430.0</ele><time>2026-03-29T11:25:33Z</time></trkpt><trkpt lat="43.178397060568706" lon="12.259858716501956"><ele>426.83333333333337</ele><time>2026-03-29T11:25:34Z</time></trkpt><trkpt lat="43.17847342945622" lon="12.259904442418064"><ele>423.6666666666667</ele><time>2026-03-29T11:25:35Z</time></trkpt><trkpt lat="43.178575452109186" lon="12.259944118037495"><ele>420.5</ele><time>2026-03-29T11:25:36Z</time></trkpt><trkpt lat="43.178644057328306" lon="12.259976148395513"><ele>417.33333333333337</ele><time>2026-03-29T11:25:37Z</time></trkpt><trkpt lat="43.17869618095277" lon="12.260027738394042"><ele>414.1666666666667</ele><time>2026-03-29T11:25:38Z</time></trkpt><trkpt lat="43.17879415340712" lon="12.26013012723488"><ele>411.0</ele><time>2026-03-29T11:25:42Z</time></trkpt><trkpt lat="43.178859481751466" lon="12.260272741987498"><ele>411.0</ele><time>2026-03-29T11:25:44Z</time></trkpt><trkpt lat="43.17888491888586" lon="12.260421629659088"><ele>411.0</ele><time>2026-03-29T11:25:46Z</time></trkpt><trkpt lat="43.17890422455259" lon="12.260563756259147"><ele>411.0</ele><time>2026-03-29T11:25:48Z</time></trkpt><trkpt lat="43.178945573396696" lon="12.260655460653899"><ele>411.0</ele><time>2026-03-29T11:25:50Z</time></trkpt><trkpt lat="43.17901513803486" lon="12.260634974134792"><ele>411.0</ele><time>2026-03-29T11:25:52Z</time></trkpt><trkpt lat="43.17907211510676" lon="12.26059485032226"><ele>411.0</ele><time>2026-03-29T11:25:53Z</time></trkpt><trkpt lat="43.179187990335635" lon="12.260550897823215"><ele>407.8333333333333</ele><time>2026-03-29T11:25:55Z</time></trkpt><trkpt lat="43.17926697077868" lon="12.260518178948814"><ele>404.66666666666663</ele><time>2026-03-29T11:25:56Z</time></trkpt><trkpt lat="43.17934022764802" lon="12.260477354237638"><ele>401.5</ele><time>2026-03-29T11:25:57Z</time></trkpt><trkpt lat="43.1794040900364" lon="12.26045590832124"><ele>398.3333333333333</ele><time>2026-03-29T11:25:58Z</time></trkpt><trkpt lat="43.17947328395482" lon="12.260447550115943"><ele>395.16666666666663</ele><time>2026-03-29T11:25:59Z</time></trkpt><trkpt lat="43.179541781653306" lon="12.260460395203582"><ele>392.0</ele><time>2026-03-29T11:26:00Z</time></trkpt><trkpt lat="43.1796162709136" lon="12.260568483182546"><ele>392.66666666666663</ele><time>2026-03-29T11:26:02Z</time></trkpt><trkpt lat="43.1796795271747" lon="12.260629067858956"><ele>393.3333333333333</ele><time>2026-03-29T11:26:03Z</time></trkpt><trkpt lat="43.17974164198624" lon="12.26066682729246"><ele>394.0</ele><time>2026-03-29T11:26:04Z</time></trkpt><trkpt lat="43.17980889275653" lon="12.26064320825576"><ele>394.66666666666663</ele><time>2026-03-29T11:26:05Z</time></trkpt><trkpt lat="43.179866069817514" lon="12.260594335706555"><ele>395.3333333333333</ele><time>2026-03-29T11:26:06Z</time></trkpt><trkpt lat="43.17997608964533" lon="12.260624357145806"><ele>396.0</ele><time>2026-03-29T11:26:08Z</time></trkpt><trkpt lat="43.18004956684262" lon="12.260648060851183"><ele>396.0</ele><time>2026-03-29T11:26:09Z</time></trkpt><trkpt lat="43.18017434878969" lon="12.260669817383675"><ele>396.0</ele><time>2026-03-29T11:26:11Z</time></trkpt><trkpt lat="43.18024013480212" lon="12.260651212394082"><ele>396.0</ele><time>2026-03-29T11:26:12Z</time></trkpt><trkpt lat="43.18032194521373" lon="12.260622562554651"><ele>396.0</ele><time>2026-03-29T11:26:13Z</time></trkpt><trkpt lat="43.18040204418954" lon="12.260590788185958"><ele>396.0</ele><time>2026-03-29T11:26:14Z</time></trkpt><trkpt lat="43.18049880063569" lon="12.260589897284316"><ele>396.0</ele><time>2026-03-29T11:26:16Z</time></trkpt><trkpt lat="43.180584174912454" lon="12.26060404729524"><ele>396.0</ele><time>2026-03-29T11:26:18Z</time></trkpt><trkpt lat="43.180629819739615" lon="12.260697055955676"><ele>396.0</ele><time>2026-03-29T11:26:20Z</time></trkpt><trkpt lat="43.18060579462981" lon="12.260835608149648"><ele>396.0</ele><time>2026-03-29T11:26:22Z</time></trkpt><trkpt lat="43.180526793106665" lon="12.260939836948895"><ele>396.0</ele><time>2026-03-29T11:26:24Z</time></trkpt><trkpt lat="43.18047113114705" lon="12.261010052197555"><ele>400.20000000000005</ele><time>2026-03-29T11:26:26Z</time></trkpt><trkpt lat="43.18036131046124" lon="12.26111846749965"><ele>404.40000000000003</ele><time>2026-03-29T11:26:28Z</time></trkpt><trkpt lat="43.180277740997944" lon="12.261164342644678"><ele>408.6</ele><time>2026-03-29T11:26:29Z</time></trkpt><trkpt lat="43.180190080312926" lon="12.261202462883366"><ele>412.8</ele><time>2026-03-29T11:26:29.999Z</time></trkpt><trkpt lat="43.18009708089175" lon="12.261225344217381"><ele>417.0</ele><time>2026-03-29T11:26:30.999Z</time></trkpt><trkpt lat="43.180001786069646" lon="12.261261507673016"><ele>417.0</ele><time>2026-03-29T11:26:31.999Z</time></trkpt><trkpt lat="43.17990858552299" lon="12.261332898259095"><ele>417.0</ele><time>2026-03-29T11:26:32.999Z</time></trkpt><trkpt lat="43.17981644983328" lon="12.261408622351787"><ele>417.0</ele><time>2026-03-29T11:26:33.999Z</time></trkpt><trkpt lat="43.17973147034442" lon="12.261491634907596"><ele>417.0</ele><time>2026-03-29T11:26:34.999Z</time></trkpt><trkpt lat="43.179634856207365" lon="12.261570141101648"><ele>417.0</ele><time>2026-03-29T11:26:35.999Z</time></trkpt><trkpt lat="43.17952088077005" lon="12.261648400537474"><ele>422.25</ele><time>2026-03-29T11:26:36.999Z</time></trkpt><trkpt lat="43.17942346438094" lon="12.261694095487444"><ele>427.5</ele><time>2026-03-29T11:26:37.999Z</time></trkpt><trkpt lat="43.17933796798689" lon="12.26175167413453"><ele>432.75</ele><time>2026-03-29T11:26:38.999Z</time></trkpt><trkpt lat="43.17922546183556" lon="12.261855201959113"><ele>438.0</ele><time>2026-03-29T11:26:39.999Z</time></trkpt><trkpt lat="43.17910444098816" lon="12.261942958206042"><ele>439.2</ele><time>2026-03-29T11:26:40.999Z</time></trkpt><trkpt lat="43.17900134717606" lon="12.262010852484732"><ele>440.4</ele><time>2026-03-29T11:26:41.999Z</time></trkpt><trkpt lat="43.17892452290134" lon="12.262082318481465"><ele>441.59999999999997</ele><time>2026-03-29T11:26:42.999Z</time></trkpt><trkpt lat="43.17885274231963" lon="12.262147558852305"><ele>442.79999999999995</ele><time>2026-03-29T11:26:43.999Z</time></trkpt><trkpt lat="43.178760669950194" lon="12.262174077407897"><ele>444.0</ele><time>2026-03-29T11:26:44.999Z</time></trkpt><trkpt lat="43.178697608808655" lon="12.262184666928441"><ele>444.0</ele><time>2026-03-29T11:26:45.999Z</time></trkpt><trkpt lat="43.17863252866073" lon="12.262193138371387"><ele>444.0</ele><time>2026-03-29T11:26:47.999Z</time></trkpt><trkpt lat="43.17846802879632" lon="12.26217923253976"><ele>444.0</ele><time>2026-03-29T11:26:49.999Z</time></trkpt><trkpt lat="43.17833763984932" lon="12.262160075877512"><ele>444.0</ele><time>2026-03-29T11:26:50.999Z</time></trkpt><trkpt lat="43.17818116158041" lon="12.262142928720337"><ele>446.0</ele><time>2026-03-29T11:26:51.999Z</time></trkpt><trkpt lat="43.17800716668229" lon="12.26213336995401"><ele>448.0</ele><time>2026-03-29T11:26:52.999Z</time></trkpt><trkpt lat="43.17787045074013" lon="12.26209954943552"><ele>450.0</ele><time>2026-03-29T11:26:53.999Z</time></trkpt><trkpt lat="43.17776972121515" lon="12.262018286797238"><ele>452.0</ele><time>2026-03-29T11:26:54.999Z</time></trkpt><trkpt lat="43.17765876900754" lon="12.261932836048857"><ele>452.0</ele><time>2026-03-29T11:26:55.999Z</time></trkpt><trkpt lat="43.17750976123839" lon="12.26183954430967"><ele>452.0</ele><time>2026-03-29T11:26:56.999Z</time></trkpt><trkpt lat="43.177355210372475" lon="12.261708863062466"><ele>452.0</ele><time>2026-03-29T11:26:57.999Z</time></trkpt><trkpt lat="43.177177245025945" lon="12.261661550881355"><ele>452.8</ele><time>2026-03-29T11:26:58.999Z</time></trkpt><trkpt lat="43.177052512736196" lon="12.261618431714908"><ele>453.6</ele><time>2026-03-29T11:26:59.999Z</time></trkpt><trkpt lat="43.1769709493314" lon="12.26159761464764"><ele>454.40000000000003</ele><time>2026-03-29T11:27:00.999Z</time></trkpt><trkpt lat="43.17688964745846" lon="12.26156750986191"><ele>455.20000000000005</ele><time>2026-03-29T11:27:02.999Z</time></trkpt><trkpt lat="43.176824082802625" lon="12.26162022919895"><ele>456.0</ele><time>2026-03-29T11:27:36Z</time></trkpt><trkpt lat="43.17686459475283" lon="12.261737671077498"><ele>456.0</ele><time>2026-03-29T11:27:39Z</time></trkpt><trkpt lat="43.17686758688191" lon="12.261858689591318"><ele>456.0</ele><time>2026-03-29T11:27:42Z</time></trkpt><trkpt lat="43.17687548411093" lon="12.261967743996944"><ele>456.0</ele><time>2026-03-29T11:27:45Z</time></trkpt><trkpt lat="43.17687458606635" lon="12.262079295907718"><ele>456.0</ele><time>2026-03-29T11:27:48Z</time></trkpt><trkpt lat="43.176868814466324" lon="12.262169411586111"><ele>456.0</ele><time>2026-03-29T11:27:51Z</time></trkpt><trkpt lat="43.17680547078195" lon="12.262217895831972"><ele>456.0</ele><time>2026-03-29T11:27:54Z</time></trkpt><trkpt lat="43.176737530958086" lon="12.262263570782396"><ele>456.0</ele><time>2026-03-29T11:27:56Z</time></trkpt><trkpt lat="43.176604993699826" lon="12.262251860652785"><ele>456.0</ele><time>2026-03-29T11:28:00Z</time></trkpt><trkpt lat="43.17652794582988" lon="12.262253877761275"><ele>456.0</ele><time>2026-03-29T11:28:01Z</time></trkpt><trkpt lat="43.176425987560066" lon="12.262258559132093"><ele>456.0</ele><time>2026-03-29T11:28:03Z</time></trkpt><trkpt lat="43.17634356663929" lon="12.262291127818578"><ele>456.0</ele><time>2026-03-29T11:28:05Z</time></trkpt><trkpt lat="43.176275762493475" lon="12.2623384997277"><ele>452.5</ele><time>2026-03-29T11:28:08Z</time></trkpt><trkpt lat="43.17618272457031" lon="12.262385734522596"><ele>449.0</ele><time>2026-03-29T11:28:10Z</time></trkpt><trkpt lat="43.17608743321956" lon="12.26239455760541"><ele>445.5</ele><time>2026-03-29T11:28:12Z</time></trkpt><trkpt lat="43.1760021968332" lon="12.262439124672781"><ele>442.0</ele><time>2026-03-29T11:28:26Z</time></trkpt><trkpt lat="43.175918103348344" lon="12.262489331454077"><ele>438.5</ele><time>2026-03-29T11:28:30Z</time></trkpt><trkpt lat="43.17584927276437" lon="12.262512701674279"><ele>435.0</ele><time>2026-03-29T11:28:33.999Z</time></trkpt><trkpt lat="43.1757722110153" lon="12.26255213019893"><ele>435.0</ele><time>2026-03-29T11:28:36.999Z</time></trkpt><trkpt lat="43.17570411765531" lon="12.26255710461017"><ele>435.0</ele><time>2026-03-29T11:28:39.999Z</time></trkpt><trkpt lat="43.17563994229274" lon="12.262601799710257"><ele>435.0</ele><time>2026-03-29T11:28:42.999Z</time></trkpt><trkpt lat="43.17554007975934" lon="12.262601095329776"><ele>435.0</ele><time>2026-03-29T11:28:45.999Z</time></trkpt><trkpt lat="43.17545292921798" lon="12.262584700637673"><ele>435.0</ele><time>2026-03-29T11:28:47.999Z</time></trkpt><trkpt lat="43.17538645498164" lon="12.262566335995086"><ele>435.0</ele><time>2026-03-29T11:28:48.999Z</time></trkpt><trkpt lat="43.17532625219767" lon="12.262535712334733"><ele>431.6666666666667</ele><time>2026-03-29T11:28:50.999Z</time></trkpt><trkpt lat="43.175256642596786" lon="12.262534756070986"><ele>428.33333333333337</ele><time>2026-03-29T11:28:52.999Z</time></trkpt><trkpt lat="43.175175583810606" lon="12.262517062761884"><ele>425.0</ele><time>2026-03-29T11:28:54.999Z</time></trkpt><trkpt lat="43.17509123363993" lon="12.262526773239104"><ele>421.6666666666667</ele><time>2026-03-29T11:28:57.999Z</time></trkpt><trkpt lat="43.175055291374605" lon="12.262602274801397"><ele>418.33333333333337</ele><time>2026-03-29T11:28:59.999Z</time></trkpt><trkpt lat="43.175039938241746" lon="12.262715648388635"><ele>415.0</ele><time>2026-03-29T11:29:02.999Z</time></trkpt><trkpt lat="43.1749904416794" lon="12.262820658614045"><ele>415.00000000000006</ele><time>2026-03-29T11:29:19.999Z</time></trkpt><trkpt lat="43.17492208299062" lon="12.26284341202702"><ele>415.0</ele><time>2026-03-29T11:29:22.999Z</time></trkpt><trkpt lat="43.17487222353317" lon="12.262932629045324"><ele>415.0</ele><time>2026-03-29T11:29:26.999Z</time></trkpt><trkpt lat="43.174840030315174" lon="12.263016692836048"><ele>415.0</ele><time>2026-03-29T11:29:28.999Z</time></trkpt><trkpt lat="43.17479113382386" lon="12.263094996801106"><ele>415.00000000000006</ele><time>2026-03-29T11:29:31.999Z</time></trkpt><trkpt lat="43.17476516797995" lon="12.263189934465323"><ele>415.0</ele><time>2026-03-29T11:29:33.998Z</time></trkpt><trkpt lat="43.17469192942545" lon="12.263237714336707"><ele>411.2857142857143</ele><time>2026-03-29T11:29:35.998Z</time></trkpt><trkpt lat="43.17461574662677" lon="12.263249843607877"><ele>407.57142857142856</ele><time>2026-03-29T11:29:37.998Z</time></trkpt><trkpt lat="43.17455565709289" lon="12.26329741548148"><ele>403.8571428571429</ele><time>2026-03-29T11:29:39.998Z</time></trkpt><trkpt lat="43.1745137071941" lon="12.263388324210354"><ele>400.1428571428571</ele><time>2026-03-29T11:29:42Z</time></trkpt><trkpt lat="43.174450614069876" lon="12.2634156713934"><ele>396.4285714285714</ele><time>2026-03-29T11:29:44Z</time></trkpt><trkpt lat="43.17439327613203" lon="12.26338001581866"><ele>392.7142857142857</ele><time>2026-03-29T11:29:46Z</time></trkpt><trkpt lat="43.17433700955489" lon="12.263293657096492"><ele>389.0</ele><time>2026-03-29T11:29:48Z</time></trkpt><trkpt lat="43.17429273338555" lon="12.263178959393096"><ele>390.66666666666663</ele><time>2026-03-29T11:29:50Z</time></trkpt><trkpt lat="43.17429441818197" lon="12.26308511011551"><ele>392.3333333333333</ele><time>2026-03-29T11:29:52Z</time></trkpt><trkpt lat="43.174307106215245" lon="12.262987365152238"><ele>394.0</ele><time>2026-03-29T11:29:54Z</time></trkpt><trkpt lat="43.174263614252936" lon="12.2628964062829"><ele>395.66666666666663</ele><time>2026-03-29T11:29:57Z</time></trkpt><trkpt lat="43.174183367619385" lon="12.262836423879916"><ele>397.3333333333333</ele><time>2026-03-29T11:29:59Z</time></trkpt><trkpt lat="43.17414051218577" lon="12.262750288131658"><ele>399.0</ele><time>2026-03-29T11:30:01Z</time></trkpt><trkpt lat="43.17407109899255" lon="12.262756876040227"><ele>400.1666666666667</ele><time>2026-03-29T11:30:04Z</time></trkpt><trkpt lat="43.17401920642527" lon="12.262813829843019"><ele>401.33333333333337</ele><time>2026-03-29T11:30:06Z</time></trkpt><trkpt lat="43.17393208271917" lon="12.262813078854014"><ele>402.5</ele><time>2026-03-29T11:30:09Z</time></trkpt><trkpt lat="43.17384406985253" lon="12.262813257433962"><ele>403.6666666666667</ele><time>2026-03-29T11:30:11Z</time></trkpt><trkpt lat="43.173784934911794" lon="12.262871181268585"><ele>404.83333333333337</ele><time>2026-03-29T11:30:13Z</time></trkpt><trkpt lat="43.17375353285089" lon="12.262986124224932"><ele>406.0</ele><time>2026-03-29T11:30:16Z</time></trkpt><trkpt lat="43.1736635311209" lon="12.263046765039874"><ele>406.0</ele><time>2026-03-29T11:30:19Z</time></trkpt><trkpt lat="43.173600459013244" lon="12.263104141189553"><ele>406.0</ele><time>2026-03-29T11:30:20Z</time></trkpt><trkpt lat="43.17353551084219" lon="12.263157342177244"><ele>406.0</ele><time>2026-03-29T11:30:21Z</time></trkpt><trkpt lat="43.17342766406299" lon="12.263219420890952"><ele>406.0</ele><time>2026-03-29T11:30:23Z</time></trkpt><trkpt lat="43.17332574943009" lon="12.263313585186504"><ele>406.0</ele><time>2026-03-29T11:30:25Z</time></trkpt><trkpt lat="43.17326177102732" lon="12.263358934360358"><ele>404.1666666666667</ele><time>2026-03-29T11:30:26Z</time></trkpt><trkpt lat="43.17320018054981" lon="12.263407752488693"><ele>402.33333333333337</ele><time>2026-03-29T11:30:27Z</time></trkpt><trkpt lat="43.17310952695801" lon="12.263505573910463"><ele>400.5</ele><time>2026-03-29T11:30:29Z</time></trkpt><trkpt lat="43.173084875185985" lon="12.263588057962501"><ele>398.66666666666663</ele><time>2026-03-29T11:30:30Z</time></trkpt><trkpt lat="43.17305976032085" lon="12.263668906094695"><ele>396.8333333333333</ele><time>2026-03-29T11:30:31Z</time></trkpt><trkpt lat="43.17298216294326" lon="12.26377532531533"><ele>395.0</ele><time>2026-03-29T11:30:33Z</time></trkpt><trkpt lat="43.17289431378914" lon="12.263864327528221"><ele>395.0</ele><time>2026-03-29T11:30:35Z</time></trkpt><trkpt lat="43.17279969801715" lon="12.263939101097193"><ele>395.0</ele><time>2026-03-29T11:30:36.999Z</time></trkpt><trkpt lat="43.172764894016524" lon="12.264117047880472"><ele>395.0</ele><time>2026-03-29T11:30:38.999Z</time></trkpt><trkpt lat="43.17273382241962" lon="12.264196280776016"><ele>395.0</ele><time>2026-03-29T11:30:39.999Z</time></trkpt><trkpt lat="43.172690640805044" lon="12.26435914307509"><ele>395.0</ele><time>2026-03-29T11:30:41.999Z</time></trkpt><trkpt lat="43.172620092316045" lon="12.264478918522142"><ele>391.6</ele><time>2026-03-29T11:30:43.999Z</time></trkpt><trkpt lat="43.17255590993236" lon="12.26458063115428"><ele>388.2</ele><time>2026-03-29T11:30:45.999Z</time></trkpt><trkpt lat="43.17250264859689" lon="12.264702511116694"><ele>384.79999999999995</ele><time>2026-03-29T11:30:47.999Z</time></trkpt><trkpt lat="43.17245930856501" lon="12.264804113364217"><ele>381.4</ele><time>2026-03-29T11:30:49.999Z</time></trkpt><trkpt lat="43.172435749810035" lon="12.26496870975449"><ele>378.0</ele><time>2026-03-29T11:30:51.999Z</time></trkpt><trkpt lat="43.172421720038" lon="12.265070065956273"><ele>375.6666666666667</ele><time>2026-03-29T11:30:52.999Z</time></trkpt><trkpt lat="43.172399617937806" lon="12.265180824318442"><ele>373.3333333333333</ele><time>2026-03-29T11:30:53.999Z</time></trkpt><trkpt lat="43.1723623216495" lon="12.265279405767213"><ele>371.0</ele><time>2026-03-29T11:30:54.999Z</time></trkpt><trkpt lat="43.172329553495345" lon="12.26537415458622"><ele>368.66666666666663</ele><time>2026-03-29T11:30:55.999Z</time></trkpt><trkpt lat="43.172288617898964" lon="12.265455587566043"><ele>366.3333333333333</ele><time>2026-03-29T11:30:56.999Z</time></trkpt><trkpt lat="43.172247730127275" lon="12.26560821317475"><ele>364.0</ele><time>2026-03-29T11:30:58.999Z</time></trkpt><trkpt lat="43.1722341677152" lon="12.265721676981393"><ele>361.79999999999995</ele><time>2026-03-29T11:30:59.999Z</time></trkpt><trkpt lat="43.17222720602859" lon="12.265810712966514"><ele>359.59999999999997</ele><time>2026-03-29T11:31:00.999Z</time></trkpt><trkpt lat="43.17223455709728" lon="12.265898071360553"><ele>357.4</ele><time>2026-03-29T11:31:01.999Z</time></trkpt><trkpt lat="43.17222690844145" lon="12.266052790790969"><ele>355.2</ele><time>2026-03-29T11:31:03.999Z</time></trkpt><trkpt lat="43.17214651682195" lon="12.266183162026522"><ele>353.0</ele><time>2026-03-29T11:31:05.999Z</time></trkpt><trkpt lat="43.17206389876615" lon="12.266314408691619"><ele>353.0</ele><time>2026-03-29T11:31:07.999Z</time></trkpt><trkpt lat="43.17200511877791" lon="12.266425729767796"><ele>353.0</ele><time>2026-03-29T11:31:09.999Z</time></trkpt><trkpt lat="43.171991088075565" lon="12.266538150633634"><ele>353.0</ele><time>2026-03-29T11:31:11.999Z</time></trkpt><trkpt lat="43.171972796954535" lon="12.266643423730752"><ele>353.0</ele><time>2026-03-29T11:31:13.999Z</time></trkpt><trkpt lat="43.17198150679859" lon="12.266733673035814"><ele>353.0</ele><time>2026-03-29T11:31:16.999Z</time></trkpt><trkpt lat="43.17197063013278" lon="12.266822785498253"><ele>353.0</ele><time>2026-03-29T11:31:20.999Z</time></trkpt><trkpt lat="43.17196368899206" lon="12.266914294689066"><ele>350.1666666666667</ele><time>2026-03-29T11:31:21.999Z</time></trkpt><trkpt lat="43.17192895996847" lon="12.267029538253475"><ele>347.33333333333337</ele><time>2026-03-29T11:31:23.999Z</time></trkpt><trkpt lat="43.171884237384006" lon="12.267130669828191"><ele>344.5</ele><time>2026-03-29T11:31:25.999Z</time></trkpt><trkpt lat="43.17181434770479" lon="12.267202038284127"><ele>341.6666666666667</ele><time>2026-03-29T11:31:27.999Z</time></trkpt><trkpt lat="43.17174952824069" lon="12.267249784911264"><ele>338.8333333333333</ele><time>2026-03-29T11:31:28.999Z</time></trkpt><trkpt lat="43.17167676798945" lon="12.267300888446398"><ele>336.0</ele><time>2026-03-29T11:31:29.999Z</time></trkpt><trkpt lat="43.17161154136376" lon="12.267340020290836"><ele>334.1666666666667</ele><time>2026-03-29T11:31:30.999Z</time></trkpt><trkpt lat="43.17154459991799" lon="12.267364090373583"><ele>332.3333333333333</ele><time>2026-03-29T11:31:31.999Z</time></trkpt><trkpt lat="43.1714198356094" lon="12.267406024091047"><ele>330.5</ele><time>2026-03-29T11:31:33.999Z</time></trkpt><trkpt lat="43.1713563777393" lon="12.267420917308673"><ele>328.66666666666663</ele><time>2026-03-29T11:31:34.999Z</time></trkpt><trkpt lat="43.17126679721577" lon="12.26746704221521"><ele>326.8333333333333</ele><time>2026-03-29T11:31:36.999Z</time></trkpt><trkpt lat="43.17123288348285" lon="12.267581632945154"><ele>325.0</ele><time>2026-03-29T11:31:42.998Z</time></trkpt><trkpt lat="43.17117282551277" lon="12.267690112529316"><ele>323.6</ele><time>2026-03-29T11:31:45.998Z</time></trkpt><trkpt lat="43.171138640435025" lon="12.267769508568323"><ele>322.2</ele><time>2026-03-29T11:34:40Z</time></trkpt><trkpt lat="43.17110795972316" lon="12.26789898853777"><ele>320.8</ele><time>2026-03-29T11:38:18Z</time></trkpt><trkpt lat="43.171027243501825" lon="12.268046980267304"><ele>319.4</ele><time>2026-03-29T11:38:20Z</time></trkpt><trkpt lat="43.17094030443855" lon="12.268157540931343"><ele>318.0</ele><time>2026-03-29T11:38:21Z</time></trkpt><trkpt lat="43.1708213521743" lon="12.268282139997481"><ele>317.5</ele><time>2026-03-29T11:38:22Z</time></trkpt><trkpt lat="43.17072502444331" lon="12.268346339879965"><ele>317.0</ele><time>2026-03-29T11:38:23Z</time></trkpt><trkpt lat="43.17063507607538" lon="12.268405986205343"><ele>316.5</ele><time>2026-03-29T11:38:25Z</time></trkpt><trkpt lat="43.17058815736856" lon="12.268467830437215"><ele>316.0</ele><time>2026-03-29T11:38:26Z</time></trkpt><trkpt lat="43.17052669941412" lon="12.26850335812419"><ele>315.5</ele><time>2026-03-29T11:38:27Z</time></trkpt><trkpt lat="43.17045775657419" lon="12.268564083713308"><ele>315.0</ele><time>2026-03-29T11:38:28Z</time></trkpt><trkpt lat="43.17039076255552" lon="12.268643799893582"><ele>314.0</ele><time>2026-03-29T11:38:29Z</time></trkpt><trkpt lat="43.17029730444549" lon="12.268730208728142"><ele>313.0</ele><time>2026-03-29T11:38:30Z</time></trkpt><trkpt lat="43.17016627146119" lon="12.268813803223209"><ele>312.0</ele><time>2026-03-29T11:38:31Z</time></trkpt><trkpt lat="43.170038055562124" lon="12.268893534868967"><ele>311.0</ele><time>2026-03-29T11:38:32Z</time></trkpt><trkpt lat="43.16993624665085" lon="12.268946100507847"><ele>310.0</ele><time>2026-03-29T11:38:33Z</time></trkpt><trkpt lat="43.16985755304595" lon="12.268986185948572"><ele>309.0</ele><time>2026-03-29T11:38:34Z</time></trkpt><trkpt lat="43.16979867043843" lon="12.269029139824625"><ele>308.0</ele><time>2026-03-29T11:38:35Z</time></trkpt><trkpt lat="43.16971513838357" lon="12.269113670701254"><ele>307.0</ele><time>2026-03-29T11:38:37Z</time></trkpt><trkpt lat="43.16966748189678" lon="12.269222201811106"><ele>306.0</ele><time>2026-03-29T11:38:39Z</time></trkpt><trkpt lat="43.16962895868599" lon="12.269304060334596"><ele>305.0</ele><time>2026-03-29T11:38:41Z</time></trkpt><trkpt lat="43.16957441962932" lon="12.269363667762002"><ele>305.0</ele><time>2026-03-29T11:38:43Z</time></trkpt><trkpt lat="43.16950006295303" lon="12.269424260184762"><ele>305.0</ele><time>2026-03-29T11:38:45Z</time></trkpt><trkpt lat="43.169429752159246" lon="12.269441398314378"><ele>305.0</ele><time>2026-03-29T11:38:46Z</time></trkpt><trkpt lat="43.16932459112461" lon="12.269456829099697"><ele>305.0</ele><time>2026-03-29T11:38:47Z</time></trkpt><trkpt lat="43.169200155143976" lon="12.269489715164632"><ele>305.0</ele><time>2026-03-29T11:38:48Z</time></trkpt><trkpt lat="43.16907421124296" lon="12.269542132690184"><ele>304.0</ele><time>2026-03-29T11:38:49Z</time></trkpt><trkpt lat="43.16893245333026" lon="12.269623317577505"><ele>303.0</ele><time>2026-03-29T11:38:50Z</time></trkpt><trkpt lat="43.16880775449878" lon="12.269685758680263"><ele>302.0</ele><time>2026-03-29T11:38:51Z</time></trkpt><trkpt lat="43.16870664024259" lon="12.269731088365212"><ele>301.0</ele><time>2026-03-29T11:38:51.999Z</time></trkpt><trkpt lat="43.16862069115944" lon="12.269779645756538"><ele>300.75</ele><time>2026-03-29T11:38:52.999Z</time></trkpt><trkpt lat="43.16853640404532" lon="12.269850516244187"><ele>300.5</ele><time>2026-03-29T11:38:53.999Z</time></trkpt><trkpt lat="43.168430524173765" lon="12.26996795567182"><ele>300.25</ele><time>2026-03-29T11:38:54.999Z</time></trkpt><trkpt lat="43.16832780439456" lon="12.270090507610252"><ele>300.0</ele><time>2026-03-29T11:38:55.999Z</time></trkpt><trkpt lat="43.16823875137942" lon="12.270197747137134"><ele>299.75</ele><time>2026-03-29T11:38:56.999Z</time></trkpt><trkpt lat="43.168159684444525" lon="12.270306311204438"><ele>299.5</ele><time>2026-03-29T11:38:57.999Z</time></trkpt><trkpt lat="43.168065641174366" lon="12.270429371449685"><ele>299.25</ele><time>2026-03-29T11:38:58.999Z</time></trkpt><trkpt lat="43.16796002729705" lon="12.270561762917188"><ele>299.0</ele><time>2026-03-29T11:38:59.999Z</time></trkpt><trkpt lat="43.167855290187475" lon="12.27066416717969"><ele>299.0</ele><time>2026-03-29T11:39:00.999Z</time></trkpt><trkpt lat="43.16775707108687" lon="12.27074890582398"><ele>299.0</ele><time>2026-03-29T11:39:01.999Z</time></trkpt><trkpt lat="43.16764634959954" lon="12.270836996443236"><ele>299.0</ele><time>2026-03-29T11:39:02.999Z</time></trkpt><trkpt lat="43.16754807721124" lon="12.270919473158031"><ele>299.0</ele><time>2026-03-29T11:39:03.999Z</time></trkpt><trkpt lat="43.1674630482345" lon="12.270996515801807"><ele>299.0</ele><time>2026-03-29T11:39:04.999Z</time></trkpt><trkpt lat="43.16739026238767" lon="12.271076905277384"><ele>299.0</ele><time>2026-03-29T11:39:05.999Z</time></trkpt><trkpt lat="43.16733013330599" lon="12.271152706465779"><ele>299.0</ele><time>2026-03-29T11:39:06.999Z</time></trkpt><trkpt lat="43.16727601806617" lon="12.271244901940676"><ele>299.0</ele><time>2026-03-29T11:39:07.999Z</time></trkpt><trkpt lat="43.167240400044996" lon="12.271376992018219"><ele>299.0</ele><time>2026-03-29T11:39:08.999Z</time></trkpt><trkpt lat="43.16720153364167" lon="12.271528587438299"><ele>296.8</ele><time>2026-03-29T11:39:09.999Z</time></trkpt><trkpt lat="43.167172588068794" lon="12.271677433626923"><ele>294.59999999999997</ele><time>2026-03-29T11:39:10.999Z</time></trkpt><trkpt lat="43.16715380466881" lon="12.271810559111776"><ele>292.4</ele><time>2026-03-29T11:39:11.999Z</time></trkpt><trkpt lat="43.1671265143545" lon="12.271923678014375"><ele>290.2</ele><time>2026-03-29T11:39:12.999Z</time></trkpt><trkpt lat="43.16708242652515" lon="12.272009919988502"><ele>288.0</ele><time>2026-03-29T11:39:13.999Z</time></trkpt><trkpt lat="43.16701754678228" lon="12.272062022823123"><ele>288.0</ele><time>2026-03-29T11:39:14.999Z</time></trkpt><trkpt lat="43.16694406571082" lon="12.272074539358707"><ele>288.0</ele><time>2026-03-29T11:39:15.999Z</time></trkpt><trkpt lat="43.166869772134234" lon="12.272090821723287"><ele>288.0</ele><time>2026-03-29T11:39:16.999Z</time></trkpt><trkpt lat="43.16680733325694" lon="12.272143889654357"><ele>288.0</ele><time>2026-03-29T11:39:17.999Z</time></trkpt><trkpt lat="43.16674149818626" lon="12.272227544312317"><ele>288.0</ele><time>2026-03-29T11:39:18.999Z</time></trkpt><trkpt lat="43.166658501577324" lon="12.272334456541229"><ele>288.0</ele><time>2026-03-29T11:39:19.999Z</time></trkpt><trkpt lat="43.16658189360417" lon="12.272431604499669"><ele>286.4</ele><time>2026-03-29T11:39:20.999Z</time></trkpt><trkpt lat="43.16651127947917" lon="12.272524711819425"><ele>284.8</ele><time>2026-03-29T11:39:21.999Z</time></trkpt><trkpt lat="43.16643880549532" lon="12.272599797254559"><ele>283.2</ele><time>2026-03-29T11:39:22.999Z</time></trkpt><trkpt lat="43.16635183455518" lon="12.272650037355858"><ele>281.6</ele><time>2026-03-29T11:39:23.999Z</time></trkpt><trkpt lat="43.16624689157297" lon="12.27267544117089"><ele>280.0</ele><time>2026-03-29T11:39:24.999Z</time></trkpt><trkpt lat="43.16613730659298" lon="12.272669710017338"><ele>280.0</ele><time>2026-03-29T11:39:25.999Z</time></trkpt><trkpt lat="43.16604405773866" lon="12.272683223859586"><ele>280.0</ele><time>2026-03-29T11:39:26.999Z</time></trkpt><trkpt lat="43.165968673106185" lon="12.272700898445295"><ele>280.0</ele><time>2026-03-29T11:39:27.999Z</time></trkpt><trkpt lat="43.165901908556634" lon="12.272726291314767"><ele>280.0</ele><time>2026-03-29T11:39:28.999Z</time></trkpt><trkpt lat="43.165840774788755" lon="12.272769158548742"><ele>280.0</ele><time>2026-03-29T11:39:29.999Z</time></trkpt><trkpt lat="43.16579409189088" lon="12.27284473034153"><ele>280.0</ele><time>2026-03-29T11:39:30.999Z</time></trkpt><trkpt lat="43.16576130382249" lon="12.272937660452616"><ele>280.0</ele><time>2026-03-29T11:39:31.999Z</time></trkpt><trkpt lat="43.16573746048074" lon="12.273060347066613"><ele>280.0</ele><time>2026-03-29T11:39:32.999Z</time></trkpt><trkpt lat="43.16572004388875" lon="12.273173915773864"><ele>280.0</ele><time>2026-03-29T11:39:33.999Z</time></trkpt><trkpt lat="43.165700936543026" lon="12.273291816648644"><ele>280.0</ele><time>2026-03-29T11:39:34.999Z</time></trkpt><trkpt lat="43.16568443569683" lon="12.27341278055742"><ele>280.0</ele><time>2026-03-29T11:39:35.999Z</time></trkpt><trkpt lat="43.16567751029201" lon="12.273533006998655"><ele>280.0</ele><time>2026-03-29T11:39:36.999Z</time></trkpt><trkpt lat="43.16566843114281" lon="12.27364619953787"><ele>277.8</ele><time>2026-03-29T11:39:37.999Z</time></trkpt><trkpt lat="43.165656348884696" lon="12.273757817536863"><ele>275.6</ele><time>2026-03-29T11:39:38.999Z</time></trkpt><trkpt lat="43.16564135446009" lon="12.273869106882108"><ele>273.4</ele><time>2026-03-29T11:39:39.999Z</time></trkpt><trkpt lat="43.16562472345345" lon="12.273995395921098"><ele>271.2</ele><time>2026-03-29T11:39:40.999Z</time></trkpt><trkpt lat="43.16560621413544" lon="12.274136967052788"><ele>269.0</ele><time>2026-03-29T11:39:41.999Z</time></trkpt><trkpt lat="43.16558719295218" lon="12.274270821704594"><ele>268.4</ele><time>2026-03-29T11:39:42.999Z</time></trkpt><trkpt lat="43.1655687381654" lon="12.27439496171356"><ele>267.79999999999995</ele><time>2026-03-29T11:39:43.999Z</time></trkpt><trkpt lat="43.16555291592509" lon="12.274521937658367"><ele>267.20000000000005</ele><time>2026-03-29T11:39:44.999Z</time></trkpt><trkpt lat="43.16553819502839" lon="12.274655027857728"><ele>266.6</ele><time>2026-03-29T11:39:45.999Z</time></trkpt><trkpt lat="43.16552251385179" lon="12.274789557011262"><ele>266.0</ele><time>2026-03-29T11:39:46.999Z</time></trkpt><trkpt lat="43.16550057327768" lon="12.274927603308665"><ele>265.5</ele><time>2026-03-29T11:39:47.999Z</time></trkpt><trkpt lat="43.16547294402016" lon="12.275060859410353"><ele>265.0</ele><time>2026-03-29T11:39:48.999Z</time></trkpt><trkpt lat="43.16545459862431" lon="12.27518615416175"><ele>264.5</ele><time>2026-03-29T11:39:49.999Z</time></trkpt><trkpt lat="43.16544257964701" lon="12.275306359049662"><ele>264.0</ele><time>2026-03-29T11:39:50.999Z</time></trkpt><trkpt lat="43.165414300696845" lon="12.275398681190502"><ele>263.5</ele><time>2026-03-29T11:39:51.999Z</time></trkpt><trkpt lat="43.16537519664569" lon="12.27547412882725"><ele>263.0</ele><time>2026-03-29T11:39:52.999Z</time></trkpt><trkpt lat="43.165319537517924" lon="12.275530286179107"><ele>263.0</ele><time>2026-03-29T11:39:53.999Z</time></trkpt><trkpt lat="43.165256255235576" lon="12.275562546036294"><ele>263.0</ele><time>2026-03-29T11:39:54.999Z</time></trkpt><trkpt lat="43.1651858074608" lon="12.275541974696306"><ele>263.0</ele><time>2026-03-29T11:39:55.999Z</time></trkpt><trkpt lat="43.16509687541528" lon="12.275567168589957"><ele>263.0</ele><time>2026-03-29T11:39:56.999Z</time></trkpt><trkpt lat="43.164989271526444" lon="12.275567245158049"><ele>263.0</ele><time>2026-03-29T11:39:57.999Z</time></trkpt><trkpt lat="43.164866240876094" lon="12.275552177099538"><ele>262.4</ele><time>2026-03-29T11:39:58.999Z</time></trkpt><trkpt lat="43.16475284990149" lon="12.275557136248459"><ele>261.8</ele><time>2026-03-29T11:39:59.999Z</time></trkpt><trkpt lat="43.16465173621742" lon="12.27556688475322"><ele>261.2</ele><time>2026-03-29T11:40:00.998Z</time></trkpt><trkpt lat="43.16456422407204" lon="12.27556999552167"><ele>260.6</ele><time>2026-03-29T11:40:01.998Z</time></trkpt><trkpt lat="43.16447974915392" lon="12.275567206895616"><ele>260.0</ele><time>2026-03-29T11:40:02.998Z</time></trkpt><trkpt lat="43.16441039622558" lon="12.275570392859187"><ele>260.0</ele><time>2026-03-29T11:40:03.998Z</time></trkpt><trkpt lat="43.164348970733194" lon="12.27560095740944"><ele>260.0</ele><time>2026-03-29T11:40:04.998Z</time></trkpt><trkpt lat="43.16425760866612" lon="12.275713535603375"><ele>260.0</ele><time>2026-03-29T11:40:06.998Z</time></trkpt><trkpt lat="43.16421859140455" lon="12.275820284988072"><ele>260.0</ele><time>2026-03-29T11:40:07.998Z</time></trkpt><trkpt lat="43.16416241387719" lon="12.275931722209226"><ele>260.0</ele><time>2026-03-29T11:40:08.998Z</time></trkpt><trkpt lat="43.164114450968576" lon="12.276054861021754"><ele>260.1666666666667</ele><time>2026-03-29T11:40:09.998Z</time></trkpt><trkpt lat="43.1640673039761" lon="12.27616913501165"><ele>260.33333333333337</ele><time>2026-03-29T11:40:11Z</time></trkpt><trkpt lat="43.16402344006723" lon="12.276280932683054"><ele>260.5</ele><time>2026-03-29T11:40:12Z</time></trkpt><trkpt lat="43.16398968326733" lon="12.276386287004787"><ele>260.6666666666667</ele><time>2026-03-29T11:40:13Z</time></trkpt><trkpt lat="43.163983412059345" lon="12.276492298382989"><ele>260.8333333333333</ele><time>2026-03-29T11:40:14Z</time></trkpt><trkpt lat="43.16397395102901" lon="12.276600355115995"><ele>261.0</ele><time>2026-03-29T11:40:15Z</time></trkpt><trkpt lat="43.163948476243675" lon="12.276721447434333"><ele>260.2</ele><time>2026-03-29T11:40:16Z</time></trkpt><trkpt lat="43.16395617940189" lon="12.276864307440505"><ele>259.40000000000003</ele><time>2026-03-29T11:40:17Z</time></trkpt><trkpt lat="43.1639705873018" lon="12.277004954334982"><ele>258.6</ele><time>2026-03-29T11:40:18Z</time></trkpt><trkpt lat="43.16396041401927" lon="12.277152955328797"><ele>257.8</ele><time>2026-03-29T11:40:19Z</time></trkpt><trkpt lat="43.16395191743891" lon="12.277298038177303"><ele>257.0</ele><time>2026-03-29T11:40:20Z</time></trkpt><trkpt lat="43.163948282671385" lon="12.277438551397116"><ele>257.0</ele><time>2026-03-29T11:40:21Z</time></trkpt><trkpt lat="43.16393963018029" lon="12.27757780647436"><ele>257.0</ele><time>2026-03-29T11:40:22Z</time></trkpt><trkpt lat="43.16393196689899" lon="12.277730574526828"><ele>257.0</ele><time>2026-03-29T11:40:23Z</time></trkpt><trkpt lat="43.163931419003326" lon="12.277890228342333"><ele>257.0</ele><time>2026-03-29T11:40:24Z</time></trkpt><trkpt lat="43.16394406057659" lon="12.278050019593923"><ele>257.0</ele><time>2026-03-29T11:40:25Z</time></trkpt><trkpt lat="43.16397182468768" lon="12.278207869400042"><ele>256.6</ele><time>2026-03-29T11:40:26Z</time></trkpt><trkpt lat="43.16400311791376" lon="12.27834633933395"><ele>256.2</ele><time>2026-03-29T11:40:27Z</time></trkpt><trkpt lat="43.16403403289978" lon="12.278483344895275"><ele>255.8</ele><time>2026-03-29T11:40:28Z</time></trkpt><trkpt lat="43.16406321803812" lon="12.278630143150854"><ele>255.4</ele><time>2026-03-29T11:40:29Z</time></trkpt><trkpt lat="43.164088351563045" lon="12.278763028828303"><ele>255.0</ele><time>2026-03-29T11:40:30Z</time></trkpt><trkpt lat="43.16409582665238" lon="12.278888518285854"><ele>254.75</ele><time>2026-03-29T11:40:31Z</time></trkpt><trkpt lat="43.16411671318304" lon="12.278982225529727"><ele>254.5</ele><time>2026-03-29T11:40:32Z</time></trkpt><trkpt lat="43.164121089143876" lon="12.279106739147197"><ele>254.25</ele><time>2026-03-29T11:40:34Z</time></trkpt><trkpt lat="43.16396085764624" lon="12.279230525696427"><ele>254.0</ele><time>2026-03-29T11:40:37Z</time></trkpt><trkpt lat="43.16385827958165" lon="12.279250974520945"><ele>253.5</ele><time>2026-03-29T11:40:38Z</time></trkpt><trkpt lat="43.163735190790696" lon="12.279291829103315"><ele>253.0</ele><time>2026-03-29T11:40:39Z</time></trkpt><trkpt lat="43.16360793587696" lon="12.279365520894833"><ele>252.5</ele><time>2026-03-29T11:40:40Z</time></trkpt><trkpt lat="43.163493303441896" lon="12.279468921526735"><ele>252.0</ele><time>2026-03-29T11:40:41Z</time></trkpt><trkpt lat="43.163388150040525" lon="12.279595797191298"><ele>252.0</ele><time>2026-03-29T11:40:42Z</time></trkpt><trkpt lat="43.163292878901856" lon="12.279754183710683"><ele>252.0</ele><time>2026-03-29T11:40:43Z</time></trkpt><trkpt lat="43.16319946206144" lon="12.27992757172153"><ele>252.0</ele><time>2026-03-29T11:40:44Z</time></trkpt><trkpt lat="43.16310802098266" lon="12.280101161355548"><ele>251.66666666666669</ele><time>2026-03-29T11:40:45Z</time></trkpt><trkpt lat="43.16301820397896" lon="12.280273079060345"><ele>251.33333333333334</ele><time>2026-03-29T11:40:46Z</time></trkpt><trkpt lat="43.1629302158263" lon="12.280448032034087"><ele>251.0</ele><time>2026-03-29T11:40:47Z</time></trkpt><trkpt lat="43.162842693875" lon="12.280615180744142"><ele>250.75</ele><time>2026-03-29T11:40:48Z</time></trkpt><trkpt lat="43.16276358127339" lon="12.280768660159367"><ele>250.5</ele><time>2026-03-29T11:40:49Z</time></trkpt><trkpt lat="43.162692662713425" lon="12.280910582015148"><ele>250.25</ele><time>2026-03-29T11:40:50Z</time></trkpt><trkpt lat="43.16262433304545" lon="12.281040323742669"><ele>250.0</ele><time>2026-03-29T11:40:51Z</time></trkpt><trkpt lat="43.16255477307472" lon="12.281174416493421"><ele>250.0</ele><time>2026-03-29T11:40:52Z</time></trkpt><trkpt lat="43.16247707041891" lon="12.281318133777395"><ele>250.0</ele><time>2026-03-29T11:40:53Z</time></trkpt><trkpt lat="43.16240611865959" lon="12.281448560072207"><ele>250.0</ele><time>2026-03-29T11:40:54Z</time></trkpt><trkpt lat="43.162344365782204" lon="12.281567501151212"><ele>250.0</ele><time>2026-03-29T11:40:55Z</time></trkpt><trkpt lat="43.16227568854463" lon="12.281696596172726"><ele>250.0</ele><time>2026-03-29T11:40:56Z</time></trkpt><trkpt lat="43.16220362536848" lon="12.281834692635298"><ele>250.0</ele><time>2026-03-29T11:40:57Z</time></trkpt><trkpt lat="43.16214282482451" lon="12.281958202537886"><ele>250.0</ele><time>2026-03-29T11:40:58Z</time></trkpt><trkpt lat="43.16208689207416" lon="12.282071288953274"><ele>250.0</ele><time>2026-03-29T11:40:59Z</time></trkpt><trkpt lat="43.162029117215035" lon="12.28218851929556"><ele>250.0</ele><time>2026-03-29T11:41:00Z</time></trkpt><trkpt lat="43.161965518328145" lon="12.282313841816176"><ele>250.16666666666666</ele><time>2026-03-29T11:41:01Z</time></trkpt><trkpt lat="43.16190430900787" lon="12.282436841053697"><ele>250.33333333333331</ele><time>2026-03-29T11:41:01.999Z</time></trkpt><trkpt lat="43.16184980129821" lon="12.282545925065993"><ele>250.5</ele><time>2026-03-29T11:41:02.999Z</time></trkpt><trkpt lat="43.16179993351641" lon="12.282646991349694"><ele>250.66666666666669</ele><time>2026-03-29T11:41:03.999Z</time></trkpt><trkpt lat="43.16175885002449" lon="12.282734298075898"><ele>250.83333333333334</ele><time>2026-03-29T11:41:04.999Z</time></trkpt><trkpt lat="43.161725122318046" lon="12.282807223461855"><ele>251.0</ele><time>2026-03-29T11:41:05.999Z</time></trkpt><trkpt lat="43.16166588217175" lon="12.282897219658992"><ele>251.0</ele><time>2026-03-29T11:41:07.999Z</time></trkpt><trkpt lat="43.16161874231012" lon="12.282960274795172"><ele>251.00000000000003</ele><time>2026-03-29T11:41:09.999Z</time></trkpt><trkpt lat="43.1615797536166" lon="12.283037240444992"><ele>251.00000000000003</ele><time>2026-03-29T11:41:11.999Z</time></trkpt><trkpt lat="43.161538766781646" lon="12.283116514526444"><ele>251.0</ele><time>2026-03-29T11:41:14.999Z</time></trkpt><trkpt lat="43.16152578497178" lon="12.282883675132448"><ele>251.0</ele><time>2026-03-29T11:41:16.999Z</time></trkpt><trkpt lat="43.16146901195636" lon="12.28298793710417"><ele>250.0</ele><time>2026-03-29T11:41:23.999Z</time></trkpt></trkseg></trk></gpx>